<?xml version="1.0" encoding="UTF-8"?>
<gpx version="1.1" creator="https://www.youtrack.es" xsi:schemaLocation="http://www.topografix.com/GPX/1/1 http://www.topografix.com/GPX/1/1/gpx.xsd http://www.garmin.com/xmlschemas/GpxExtensions/v3 http://www.garmin.com/xmlschemas/GpxExtensionsv3.xsd http://www.garmin.com/xmlschemas/TrackPointExtension/v1 http://www.garmin.com/xmlschemas/TrackPointExtensionv1.xsd" xmlns:gpxtpx="http://www.garmin.com/xmlschemas/TrackPointExtension/v1" xmlns:gpxx="http://www.garmin.com/xmlschemas/GpxExtensions/v3" xmlns:xsi="http://www.w3.org/2001/XMLSchema-instance">
  <metadata>
    <link href="https://www.youtrack.es">
      <text>YouTrack.es</text>
    </link>
    <time>2026-05-09T02:19:31Z</time>
  </metadata>
  <trk>
    <src>https://www.youtrack.es</src>
    <link href="https://www.youtrack.es/ruta/20450-porto">
      <text>YouTrack.es</text>
    </link>
    <trkseg>
      <trkpt lat="41.19303" lon="-8.575">
        <ele>117.2</ele>
        <time>2021-03-20 12:00:31</time>
      </trkpt>
      <trkpt lat="41.19303" lon="-8.575">
        <ele>117</ele>
        <time>2021-03-20 12:00:32</time>
      </trkpt>
      <trkpt lat="41.19305" lon="-8.57498">
        <ele>117.2</ele>
        <time>2021-03-20 12:00:33</time>
      </trkpt>
      <trkpt lat="41.19308" lon="-8.57494">
        <ele>117.6</ele>
        <time>2021-03-20 12:00:34</time>
      </trkpt>
      <trkpt lat="41.1931" lon="-8.5749">
        <ele>117.6</ele>
        <time>2021-03-20 12:00:35</time>
      </trkpt>
      <trkpt lat="41.19313" lon="-8.57487">
        <ele>117.6</ele>
        <time>2021-03-20 12:00:36</time>
      </trkpt>
      <trkpt lat="41.19315" lon="-8.57484">
        <ele>117.6</ele>
        <time>2021-03-20 12:00:37</time>
      </trkpt>
      <trkpt lat="41.19318" lon="-8.57481">
        <ele>117.8</ele>
        <time>2021-03-20 12:00:38</time>
      </trkpt>
      <trkpt lat="41.19321" lon="-8.57478">
        <ele>117.6</ele>
        <time>2021-03-20 12:00:39</time>
      </trkpt>
      <trkpt lat="41.19323" lon="-8.57475">
        <ele>117.6</ele>
        <time>2021-03-20 12:00:40</time>
      </trkpt>
      <trkpt lat="41.19326" lon="-8.57471">
        <ele>117.8</ele>
        <time>2021-03-20 12:00:41</time>
      </trkpt>
      <trkpt lat="41.19328" lon="-8.57468">
        <ele>117.8</ele>
        <time>2021-03-20 12:00:42</time>
      </trkpt>
      <trkpt lat="41.19331" lon="-8.57464">
        <ele>117.8</ele>
        <time>2021-03-20 12:00:43</time>
      </trkpt>
      <trkpt lat="41.19334" lon="-8.5746">
        <ele>118</ele>
        <time>2021-03-20 12:00:44</time>
      </trkpt>
      <trkpt lat="41.19336" lon="-8.57457">
        <ele>118</ele>
        <time>2021-03-20 12:00:45</time>
      </trkpt>
      <trkpt lat="41.19337" lon="-8.57454">
        <ele>118.2</ele>
        <time>2021-03-20 12:00:46</time>
      </trkpt>
      <trkpt lat="41.19339" lon="-8.5745">
        <ele>118.2</ele>
        <time>2021-03-20 12:00:47</time>
      </trkpt>
      <trkpt lat="41.19341" lon="-8.57446">
        <ele>118.4</ele>
        <time>2021-03-20 12:00:48</time>
      </trkpt>
      <trkpt lat="41.19344" lon="-8.57442">
        <ele>118.4</ele>
        <time>2021-03-20 12:00:49</time>
      </trkpt>
      <trkpt lat="41.19347" lon="-8.57437">
        <ele>118.6</ele>
        <time>2021-03-20 12:00:50</time>
      </trkpt>
      <trkpt lat="41.1935" lon="-8.57433">
        <ele>118.6</ele>
        <time>2021-03-20 12:00:51</time>
      </trkpt>
      <trkpt lat="41.19352" lon="-8.5743">
        <ele>118.8</ele>
        <time>2021-03-20 12:00:52</time>
      </trkpt>
      <trkpt lat="41.19355" lon="-8.57425">
        <ele>118.8</ele>
        <time>2021-03-20 12:00:53</time>
      </trkpt>
      <trkpt lat="41.19357" lon="-8.57421">
        <ele>119</ele>
        <time>2021-03-20 12:00:54</time>
      </trkpt>
      <trkpt lat="41.1936" lon="-8.57417">
        <ele>119.2</ele>
        <time>2021-03-20 12:00:55</time>
      </trkpt>
      <trkpt lat="41.19363" lon="-8.57413">
        <ele>119.2</ele>
        <time>2021-03-20 12:00:56</time>
      </trkpt>
      <trkpt lat="41.19365" lon="-8.57409">
        <ele>119.2</ele>
        <time>2021-03-20 12:00:57</time>
      </trkpt>
      <trkpt lat="41.19368" lon="-8.57405">
        <ele>119.4</ele>
        <time>2021-03-20 12:00:58</time>
      </trkpt>
      <trkpt lat="41.1937" lon="-8.57402">
        <ele>119.2</ele>
        <time>2021-03-20 12:00:59</time>
      </trkpt>
      <trkpt lat="41.19371" lon="-8.574">
        <ele>119</ele>
        <time>2021-03-20 12:01:00</time>
      </trkpt>
      <trkpt lat="41.19371" lon="-8.57399">
        <ele>119</ele>
        <time>2021-03-20 12:01:01</time>
      </trkpt>
      <trkpt lat="41.19372" lon="-8.57399">
        <ele>119.2</ele>
        <time>2021-03-20 12:01:02</time>
      </trkpt>
      <trkpt lat="41.19373" lon="-8.574">
        <ele>119.2</ele>
        <time>2021-03-20 12:01:03</time>
      </trkpt>
      <trkpt lat="41.19374" lon="-8.57394">
        <ele>119.6</ele>
        <time>2021-03-20 12:01:04</time>
      </trkpt>
      <trkpt lat="41.19376" lon="-8.57394">
        <ele>120</ele>
        <time>2021-03-20 12:01:05</time>
      </trkpt>
      <trkpt lat="41.1938" lon="-8.57392">
        <ele>120.2</ele>
        <time>2021-03-20 12:01:06</time>
      </trkpt>
      <trkpt lat="41.19383" lon="-8.57393">
        <ele>120.2</ele>
        <time>2021-03-20 12:01:07</time>
      </trkpt>
      <trkpt lat="41.19387" lon="-8.57393">
        <ele>120.2</ele>
        <time>2021-03-20 12:01:08</time>
      </trkpt>
      <trkpt lat="41.1939" lon="-8.57394">
        <ele>120.2</ele>
        <time>2021-03-20 12:01:09</time>
      </trkpt>
      <trkpt lat="41.19393" lon="-8.57393">
        <ele>120.6</ele>
        <time>2021-03-20 12:01:10</time>
      </trkpt>
      <trkpt lat="41.19394" lon="-8.57399">
        <ele>120.8</ele>
        <time>2021-03-20 12:01:11</time>
      </trkpt>
      <trkpt lat="41.19395" lon="-8.57404">
        <ele>121</ele>
        <time>2021-03-20 12:01:12</time>
      </trkpt>
      <trkpt lat="41.19397" lon="-8.57406">
        <ele>121.2</ele>
        <time>2021-03-20 12:01:13</time>
      </trkpt>
      <trkpt lat="41.194" lon="-8.5741">
        <ele>121.2</ele>
        <time>2021-03-20 12:01:14</time>
      </trkpt>
      <trkpt lat="41.19402" lon="-8.57415">
        <ele>121.2</ele>
        <time>2021-03-20 12:01:15</time>
      </trkpt>
      <trkpt lat="41.19406" lon="-8.57416">
        <ele>121.2</ele>
        <time>2021-03-20 12:01:16</time>
      </trkpt>
      <trkpt lat="41.19408" lon="-8.5742">
        <ele>121.4</ele>
        <time>2021-03-20 12:01:17</time>
      </trkpt>
      <trkpt lat="41.19411" lon="-8.57425">
        <ele>121.6</ele>
        <time>2021-03-20 12:01:18</time>
      </trkpt>
      <trkpt lat="41.19414" lon="-8.57428">
        <ele>121.6</ele>
        <time>2021-03-20 12:01:19</time>
      </trkpt>
      <trkpt lat="41.19417" lon="-8.57431">
        <ele>121.8</ele>
        <time>2021-03-20 12:01:20</time>
      </trkpt>
      <trkpt lat="41.19419" lon="-8.57435">
        <ele>122.6</ele>
        <time>2021-03-20 12:01:21</time>
      </trkpt>
      <trkpt lat="41.19421" lon="-8.57439">
        <ele>122.6</ele>
        <time>2021-03-20 12:01:22</time>
      </trkpt>
      <trkpt lat="41.19424" lon="-8.57445">
        <ele>122.8</ele>
        <time>2021-03-20 12:01:23</time>
      </trkpt>
      <trkpt lat="41.19427" lon="-8.57449">
        <ele>122.8</ele>
        <time>2021-03-20 12:01:24</time>
      </trkpt>
      <trkpt lat="41.1943" lon="-8.57456">
        <ele>123</ele>
        <time>2021-03-20 12:01:25</time>
      </trkpt>
      <trkpt lat="41.19431" lon="-8.57458">
        <ele>123</ele>
        <time>2021-03-20 12:01:26</time>
      </trkpt>
      <trkpt lat="41.19433" lon="-8.57463">
        <ele>122.8</ele>
        <time>2021-03-20 12:01:27</time>
      </trkpt>
      <trkpt lat="41.19434" lon="-8.57469">
        <ele>122.8</ele>
        <time>2021-03-20 12:01:28</time>
      </trkpt>
      <trkpt lat="41.1944" lon="-8.57505">
        <ele>122.8</ele>
        <time>2021-03-20 12:01:29</time>
      </trkpt>
      <trkpt lat="41.19441" lon="-8.57511">
        <ele>122.6</ele>
        <time>2021-03-20 12:01:30</time>
      </trkpt>
      <trkpt lat="41.19441" lon="-8.57517">
        <ele>122.4</ele>
        <time>2021-03-20 12:01:31</time>
      </trkpt>
      <trkpt lat="41.19442" lon="-8.57522">
        <ele>122.4</ele>
        <time>2021-03-20 12:01:32</time>
      </trkpt>
      <trkpt lat="41.19443" lon="-8.57527">
        <ele>122.4</ele>
        <time>2021-03-20 12:01:33</time>
      </trkpt>
      <trkpt lat="41.19445" lon="-8.57533">
        <ele>122.2</ele>
        <time>2021-03-20 12:01:34</time>
      </trkpt>
      <trkpt lat="41.19445" lon="-8.5754">
        <ele>122.2</ele>
        <time>2021-03-20 12:01:35</time>
      </trkpt>
      <trkpt lat="41.19446" lon="-8.57546">
        <ele>122.2</ele>
        <time>2021-03-20 12:01:36</time>
      </trkpt>
      <trkpt lat="41.19447" lon="-8.57553">
        <ele>122</ele>
        <time>2021-03-20 12:01:37</time>
      </trkpt>
      <trkpt lat="41.19447" lon="-8.57559">
        <ele>122</ele>
        <time>2021-03-20 12:01:38</time>
      </trkpt>
      <trkpt lat="41.19448" lon="-8.57565">
        <ele>121.8</ele>
        <time>2021-03-20 12:01:39</time>
      </trkpt>
      <trkpt lat="41.19448" lon="-8.57571">
        <ele>121.8</ele>
        <time>2021-03-20 12:01:40</time>
      </trkpt>
      <trkpt lat="41.19449" lon="-8.57577">
        <ele>121.8</ele>
        <time>2021-03-20 12:01:41</time>
      </trkpt>
      <trkpt lat="41.1945" lon="-8.57583">
        <ele>121.6</ele>
        <time>2021-03-20 12:01:42</time>
      </trkpt>
      <trkpt lat="41.19451" lon="-8.57589">
        <ele>121.6</ele>
        <time>2021-03-20 12:01:43</time>
      </trkpt>
      <trkpt lat="41.19452" lon="-8.57594">
        <ele>121.6</ele>
        <time>2021-03-20 12:01:44</time>
      </trkpt>
      <trkpt lat="41.19463" lon="-8.57626">
        <ele>121.4</ele>
        <time>2021-03-20 12:01:45</time>
      </trkpt>
      <trkpt lat="41.19466" lon="-8.57631">
        <ele>121</ele>
        <time>2021-03-20 12:01:46</time>
      </trkpt>
      <trkpt lat="41.19468" lon="-8.57634">
        <ele>120.8</ele>
        <time>2021-03-20 12:01:47</time>
      </trkpt>
      <trkpt lat="41.1947" lon="-8.57638">
        <ele>120.8</ele>
        <time>2021-03-20 12:01:48</time>
      </trkpt>
      <trkpt lat="41.19472" lon="-8.57642">
        <ele>120.6</ele>
        <time>2021-03-20 12:01:49</time>
      </trkpt>
      <trkpt lat="41.19475" lon="-8.57648">
        <ele>119.6</ele>
        <time>2021-03-20 12:01:50</time>
      </trkpt>
      <trkpt lat="41.19476" lon="-8.5765">
        <ele>119.4</ele>
        <time>2021-03-20 12:01:51</time>
      </trkpt>
      <trkpt lat="41.19478" lon="-8.57655">
        <ele>119</ele>
        <time>2021-03-20 12:01:52</time>
      </trkpt>
      <trkpt lat="41.1948" lon="-8.5766">
        <ele>118.8</ele>
        <time>2021-03-20 12:01:53</time>
      </trkpt>
      <trkpt lat="41.19483" lon="-8.57664">
        <ele>118.8</ele>
        <time>2021-03-20 12:01:54</time>
      </trkpt>
      <trkpt lat="41.19486" lon="-8.5767">
        <ele>118.6</ele>
        <time>2021-03-20 12:01:55</time>
      </trkpt>
      <trkpt lat="41.19488" lon="-8.57674">
        <ele>118.4</ele>
        <time>2021-03-20 12:01:56</time>
      </trkpt>
      <trkpt lat="41.1949" lon="-8.57679">
        <ele>118.2</ele>
        <time>2021-03-20 12:01:57</time>
      </trkpt>
      <trkpt lat="41.19492" lon="-8.57682">
        <ele>118</ele>
        <time>2021-03-20 12:01:58</time>
      </trkpt>
      <trkpt lat="41.19494" lon="-8.57685">
        <ele>117.8</ele>
        <time>2021-03-20 12:01:59</time>
      </trkpt>
      <trkpt lat="41.19495" lon="-8.57694">
        <ele>117.8</ele>
        <time>2021-03-20 12:02:00</time>
      </trkpt>
      <trkpt lat="41.19496" lon="-8.57695">
        <ele>117.8</ele>
        <time>2021-03-20 12:02:01</time>
      </trkpt>
      <trkpt lat="41.19498" lon="-8.57697">
        <ele>117.8</ele>
        <time>2021-03-20 12:02:02</time>
      </trkpt>
      <trkpt lat="41.19499" lon="-8.577">
        <ele>117.8</ele>
        <time>2021-03-20 12:02:03</time>
      </trkpt>
      <trkpt lat="41.19502" lon="-8.57702">
        <ele>117.8</ele>
        <time>2021-03-20 12:02:04</time>
      </trkpt>
      <trkpt lat="41.19503" lon="-8.57701">
        <ele>118</ele>
        <time>2021-03-20 12:02:05</time>
      </trkpt>
      <trkpt lat="41.19505" lon="-8.577">
        <ele>118</ele>
        <time>2021-03-20 12:02:06</time>
      </trkpt>
      <trkpt lat="41.19512" lon="-8.57697">
        <ele>118</ele>
        <time>2021-03-20 12:02:07</time>
      </trkpt>
      <trkpt lat="41.19514" lon="-8.57697">
        <ele>118</ele>
        <time>2021-03-20 12:02:08</time>
      </trkpt>
      <trkpt lat="41.19518" lon="-8.57695">
        <ele>118</ele>
        <time>2021-03-20 12:02:09</time>
      </trkpt>
      <trkpt lat="41.19525" lon="-8.57692">
        <ele>118</ele>
        <time>2021-03-20 12:02:10</time>
      </trkpt>
      <trkpt lat="41.19527" lon="-8.57691">
        <ele>118</ele>
        <time>2021-03-20 12:02:11</time>
      </trkpt>
      <trkpt lat="41.1953" lon="-8.57688">
        <ele>118</ele>
        <time>2021-03-20 12:02:12</time>
      </trkpt>
      <trkpt lat="41.19535" lon="-8.57685">
        <ele>118</ele>
        <time>2021-03-20 12:02:13</time>
      </trkpt>
      <trkpt lat="41.19565" lon="-8.57664">
        <ele>118.2</ele>
        <time>2021-03-20 12:02:14</time>
      </trkpt>
      <trkpt lat="41.19571" lon="-8.57659">
        <ele>118</ele>
        <time>2021-03-20 12:02:15</time>
      </trkpt>
      <trkpt lat="41.1958" lon="-8.57659">
        <ele>118</ele>
        <time>2021-03-20 12:02:16</time>
      </trkpt>
      <trkpt lat="41.19587" lon="-8.5765">
        <ele>118</ele>
        <time>2021-03-20 12:02:17</time>
      </trkpt>
      <trkpt lat="41.19589" lon="-8.57649">
        <ele>118</ele>
        <time>2021-03-20 12:02:18</time>
      </trkpt>
      <trkpt lat="41.19596" lon="-8.57646">
        <ele>118.2</ele>
        <time>2021-03-20 12:02:19</time>
      </trkpt>
      <trkpt lat="41.19602" lon="-8.57643">
        <ele>118.2</ele>
        <time>2021-03-20 12:02:20</time>
      </trkpt>
      <trkpt lat="41.19609" lon="-8.5764">
        <ele>118.2</ele>
        <time>2021-03-20 12:02:21</time>
      </trkpt>
      <trkpt lat="41.19616" lon="-8.57637">
        <ele>118.2</ele>
        <time>2021-03-20 12:02:22</time>
      </trkpt>
      <trkpt lat="41.19623" lon="-8.57634">
        <ele>118</ele>
        <time>2021-03-20 12:02:23</time>
      </trkpt>
      <trkpt lat="41.19634" lon="-8.57631">
        <ele>118</ele>
        <time>2021-03-20 12:02:24</time>
      </trkpt>
      <trkpt lat="41.19642" lon="-8.5763">
        <ele>117.8</ele>
        <time>2021-03-20 12:02:25</time>
      </trkpt>
      <trkpt lat="41.19648" lon="-8.57626">
        <ele>118</ele>
        <time>2021-03-20 12:02:26</time>
      </trkpt>
      <trkpt lat="41.19654" lon="-8.57625">
        <ele>117.8</ele>
        <time>2021-03-20 12:02:27</time>
      </trkpt>
      <trkpt lat="41.1966" lon="-8.57624">
        <ele>117.4</ele>
        <time>2021-03-20 12:02:28</time>
      </trkpt>
      <trkpt lat="41.19666" lon="-8.57622">
        <ele>117.4</ele>
        <time>2021-03-20 12:02:29</time>
      </trkpt>
      <trkpt lat="41.19674" lon="-8.57617">
        <ele>117.4</ele>
        <time>2021-03-20 12:02:30</time>
      </trkpt>
      <trkpt lat="41.19682" lon="-8.57616">
        <ele>117.2</ele>
        <time>2021-03-20 12:02:31</time>
      </trkpt>
      <trkpt lat="41.19689" lon="-8.57615">
        <ele>117.4</ele>
        <time>2021-03-20 12:02:32</time>
      </trkpt>
      <trkpt lat="41.19693" lon="-8.57615">
        <ele>117.6</ele>
        <time>2021-03-20 12:02:33</time>
      </trkpt>
      <trkpt lat="41.19699" lon="-8.57613">
        <ele>117.6</ele>
        <time>2021-03-20 12:02:34</time>
      </trkpt>
      <trkpt lat="41.19705" lon="-8.57608">
        <ele>117.6</ele>
        <time>2021-03-20 12:02:35</time>
      </trkpt>
      <trkpt lat="41.19711" lon="-8.57608">
        <ele>117.6</ele>
        <time>2021-03-20 12:02:36</time>
      </trkpt>
      <trkpt lat="41.19717" lon="-8.57606">
        <ele>117.6</ele>
        <time>2021-03-20 12:02:37</time>
      </trkpt>
      <trkpt lat="41.19724" lon="-8.57604">
        <ele>117.4</ele>
        <time>2021-03-20 12:02:38</time>
      </trkpt>
      <trkpt lat="41.19731" lon="-8.57602">
        <ele>117.6</ele>
        <time>2021-03-20 12:02:39</time>
      </trkpt>
      <trkpt lat="41.19738" lon="-8.576">
        <ele>117.6</ele>
        <time>2021-03-20 12:02:40</time>
      </trkpt>
      <trkpt lat="41.19745" lon="-8.57599">
        <ele>117.4</ele>
        <time>2021-03-20 12:02:41</time>
      </trkpt>
      <trkpt lat="41.19749" lon="-8.57597">
        <ele>117.4</ele>
        <time>2021-03-20 12:02:42</time>
      </trkpt>
      <trkpt lat="41.19755" lon="-8.57597">
        <ele>117.4</ele>
        <time>2021-03-20 12:02:43</time>
      </trkpt>
      <trkpt lat="41.19763" lon="-8.57593">
        <ele>117.6</ele>
        <time>2021-03-20 12:02:44</time>
      </trkpt>
      <trkpt lat="41.19769" lon="-8.57593">
        <ele>117.8</ele>
        <time>2021-03-20 12:02:45</time>
      </trkpt>
      <trkpt lat="41.19775" lon="-8.57594">
        <ele>117.8</ele>
        <time>2021-03-20 12:02:46</time>
      </trkpt>
      <trkpt lat="41.19784" lon="-8.5759">
        <ele>118</ele>
        <time>2021-03-20 12:02:47</time>
      </trkpt>
      <trkpt lat="41.19791" lon="-8.57588">
        <ele>118.2</ele>
        <time>2021-03-20 12:02:48</time>
      </trkpt>
      <trkpt lat="41.19802" lon="-8.57587">
        <ele>118.2</ele>
        <time>2021-03-20 12:02:49</time>
      </trkpt>
      <trkpt lat="41.19809" lon="-8.57584">
        <ele>118</ele>
        <time>2021-03-20 12:02:50</time>
      </trkpt>
      <trkpt lat="41.19816" lon="-8.57581">
        <ele>118</ele>
        <time>2021-03-20 12:02:51</time>
      </trkpt>
      <trkpt lat="41.19823" lon="-8.57578">
        <ele>118</ele>
        <time>2021-03-20 12:02:52</time>
      </trkpt>
      <trkpt lat="41.19831" lon="-8.57576">
        <ele>118</ele>
        <time>2021-03-20 12:02:53</time>
      </trkpt>
      <trkpt lat="41.19836" lon="-8.57575">
        <ele>118</ele>
        <time>2021-03-20 12:02:54</time>
      </trkpt>
      <trkpt lat="41.19842" lon="-8.57574">
        <ele>118</ele>
        <time>2021-03-20 12:02:55</time>
      </trkpt>
      <trkpt lat="41.19848" lon="-8.57572">
        <ele>118.2</ele>
        <time>2021-03-20 12:02:56</time>
      </trkpt>
      <trkpt lat="41.19855" lon="-8.57571">
        <ele>118.2</ele>
        <time>2021-03-20 12:02:57</time>
      </trkpt>
      <trkpt lat="41.1986" lon="-8.57569">
        <ele>118.2</ele>
        <time>2021-03-20 12:02:58</time>
      </trkpt>
      <trkpt lat="41.19868" lon="-8.57567">
        <ele>118.2</ele>
        <time>2021-03-20 12:02:59</time>
      </trkpt>
      <trkpt lat="41.19875" lon="-8.57564">
        <ele>118.2</ele>
        <time>2021-03-20 12:03:00</time>
      </trkpt>
      <trkpt lat="41.1988" lon="-8.57562">
        <ele>117.8</ele>
        <time>2021-03-20 12:03:01</time>
      </trkpt>
      <trkpt lat="41.19887" lon="-8.5756">
        <ele>117.8</ele>
        <time>2021-03-20 12:03:02</time>
      </trkpt>
      <trkpt lat="41.19893" lon="-8.57556">
        <ele>117.8</ele>
        <time>2021-03-20 12:03:03</time>
      </trkpt>
      <trkpt lat="41.19898" lon="-8.57554">
        <ele>117.8</ele>
        <time>2021-03-20 12:03:04</time>
      </trkpt>
      <trkpt lat="41.19904" lon="-8.57551">
        <ele>117.6</ele>
        <time>2021-03-20 12:03:05</time>
      </trkpt>
      <trkpt lat="41.1991" lon="-8.57548">
        <ele>117.4</ele>
        <time>2021-03-20 12:03:06</time>
      </trkpt>
      <trkpt lat="41.19916" lon="-8.57545">
        <ele>117</ele>
        <time>2021-03-20 12:03:07</time>
      </trkpt>
      <trkpt lat="41.19927" lon="-8.57538">
        <ele>116.8</ele>
        <time>2021-03-20 12:03:08</time>
      </trkpt>
      <trkpt lat="41.19933" lon="-8.57535">
        <ele>116.6</ele>
        <time>2021-03-20 12:03:09</time>
      </trkpt>
      <trkpt lat="41.19939" lon="-8.57531">
        <ele>116.4</ele>
        <time>2021-03-20 12:03:10</time>
      </trkpt>
      <trkpt lat="41.19945" lon="-8.57527">
        <ele>116.2</ele>
        <time>2021-03-20 12:03:11</time>
      </trkpt>
      <trkpt lat="41.19949" lon="-8.57524">
        <ele>115.8</ele>
        <time>2021-03-20 12:03:12</time>
      </trkpt>
      <trkpt lat="41.19956" lon="-8.57518">
        <ele>115.8</ele>
        <time>2021-03-20 12:03:13</time>
      </trkpt>
      <trkpt lat="41.1996" lon="-8.57514">
        <ele>115.8</ele>
        <time>2021-03-20 12:03:14</time>
      </trkpt>
      <trkpt lat="41.19967" lon="-8.5751">
        <ele>114.8</ele>
        <time>2021-03-20 12:03:15</time>
      </trkpt>
      <trkpt lat="41.19973" lon="-8.57506">
        <ele>114.8</ele>
        <time>2021-03-20 12:03:16</time>
      </trkpt>
      <trkpt lat="41.19977" lon="-8.57503">
        <ele>114.6</ele>
        <time>2021-03-20 12:03:17</time>
      </trkpt>
      <trkpt lat="41.19982" lon="-8.57499">
        <ele>114.6</ele>
        <time>2021-03-20 12:03:18</time>
      </trkpt>
      <trkpt lat="41.19988" lon="-8.57494">
        <ele>114.4</ele>
        <time>2021-03-20 12:03:19</time>
      </trkpt>
      <trkpt lat="41.19994" lon="-8.57487">
        <ele>114.4</ele>
        <time>2021-03-20 12:03:20</time>
      </trkpt>
      <trkpt lat="41.2" lon="-8.57485">
        <ele>114.2</ele>
        <time>2021-03-20 12:03:21</time>
      </trkpt>
      <trkpt lat="41.20004" lon="-8.57482">
        <ele>114.2</ele>
        <time>2021-03-20 12:03:22</time>
      </trkpt>
      <trkpt lat="41.2001" lon="-8.57478">
        <ele>114.2</ele>
        <time>2021-03-20 12:03:23</time>
      </trkpt>
      <trkpt lat="41.20016" lon="-8.57471">
        <ele>114</ele>
        <time>2021-03-20 12:03:24</time>
      </trkpt>
      <trkpt lat="41.20019" lon="-8.57468">
        <ele>113.6</ele>
        <time>2021-03-20 12:03:25</time>
      </trkpt>
      <trkpt lat="41.20025" lon="-8.57464">
        <ele>113.6</ele>
        <time>2021-03-20 12:03:26</time>
      </trkpt>
      <trkpt lat="41.20033" lon="-8.57457">
        <ele>113.4</ele>
        <time>2021-03-20 12:03:27</time>
      </trkpt>
      <trkpt lat="41.20036" lon="-8.57455">
        <ele>113.4</ele>
        <time>2021-03-20 12:03:28</time>
      </trkpt>
      <trkpt lat="41.20042" lon="-8.5745">
        <ele>113.4</ele>
        <time>2021-03-20 12:03:29</time>
      </trkpt>
      <trkpt lat="41.20048" lon="-8.57445">
        <ele>113.4</ele>
        <time>2021-03-20 12:03:30</time>
      </trkpt>
      <trkpt lat="41.20081" lon="-8.57418">
        <ele>113.2</ele>
        <time>2021-03-20 12:03:31</time>
      </trkpt>
      <trkpt lat="41.20089" lon="-8.5741">
        <ele>113</ele>
        <time>2021-03-20 12:03:32</time>
      </trkpt>
      <trkpt lat="41.20091" lon="-8.57408">
        <ele>113.2</ele>
        <time>2021-03-20 12:03:33</time>
      </trkpt>
      <trkpt lat="41.20097" lon="-8.57403">
        <ele>113</ele>
        <time>2021-03-20 12:03:34</time>
      </trkpt>
      <trkpt lat="41.20106" lon="-8.57395">
        <ele>113</ele>
        <time>2021-03-20 12:03:35</time>
      </trkpt>
      <trkpt lat="41.20108" lon="-8.57392">
        <ele>113</ele>
        <time>2021-03-20 12:03:36</time>
      </trkpt>
      <trkpt lat="41.20114" lon="-8.57386">
        <ele>113</ele>
        <time>2021-03-20 12:03:37</time>
      </trkpt>
      <trkpt lat="41.20119" lon="-8.5738">
        <ele>113.2</ele>
        <time>2021-03-20 12:03:38</time>
      </trkpt>
      <trkpt lat="41.2016" lon="-8.57335">
        <ele>113.2</ele>
        <time>2021-03-20 12:03:39</time>
      </trkpt>
      <trkpt lat="41.20164" lon="-8.57331">
        <ele>113.4</ele>
        <time>2021-03-20 12:03:40</time>
      </trkpt>
      <trkpt lat="41.2017" lon="-8.57322">
        <ele>113.2</ele>
        <time>2021-03-20 12:03:41</time>
      </trkpt>
      <trkpt lat="41.20176" lon="-8.57318">
        <ele>113.2</ele>
        <time>2021-03-20 12:03:42</time>
      </trkpt>
      <trkpt lat="41.20183" lon="-8.57308">
        <ele>113.2</ele>
        <time>2021-03-20 12:03:43</time>
      </trkpt>
      <trkpt lat="41.20188" lon="-8.57304">
        <ele>113.2</ele>
        <time>2021-03-20 12:03:44</time>
      </trkpt>
      <trkpt lat="41.20195" lon="-8.57294">
        <ele>113.6</ele>
        <time>2021-03-20 12:03:45</time>
      </trkpt>
      <trkpt lat="41.20199" lon="-8.57291">
        <ele>113.6</ele>
        <time>2021-03-20 12:03:46</time>
      </trkpt>
      <trkpt lat="41.20205" lon="-8.57284">
        <ele>113.6</ele>
        <time>2021-03-20 12:03:47</time>
      </trkpt>
      <trkpt lat="41.20211" lon="-8.57276">
        <ele>113.6</ele>
        <time>2021-03-20 12:03:48</time>
      </trkpt>
      <trkpt lat="41.20218" lon="-8.57269">
        <ele>113.8</ele>
        <time>2021-03-20 12:03:49</time>
      </trkpt>
      <trkpt lat="41.20224" lon="-8.57261">
        <ele>114</ele>
        <time>2021-03-20 12:03:50</time>
      </trkpt>
      <trkpt lat="41.20229" lon="-8.57256">
        <ele>113.8</ele>
        <time>2021-03-20 12:03:51</time>
      </trkpt>
      <trkpt lat="41.20234" lon="-8.57251">
        <ele>113.6</ele>
        <time>2021-03-20 12:03:52</time>
      </trkpt>
      <trkpt lat="41.2024" lon="-8.57244">
        <ele>113.6</ele>
        <time>2021-03-20 12:03:53</time>
      </trkpt>
      <trkpt lat="41.20246" lon="-8.57237">
        <ele>113.6</ele>
        <time>2021-03-20 12:03:54</time>
      </trkpt>
      <trkpt lat="41.2025" lon="-8.57233">
        <ele>113.6</ele>
        <time>2021-03-20 12:03:55</time>
      </trkpt>
      <trkpt lat="41.20256" lon="-8.57223">
        <ele>113.6</ele>
        <time>2021-03-20 12:03:56</time>
      </trkpt>
      <trkpt lat="41.2026" lon="-8.57222">
        <ele>113.6</ele>
        <time>2021-03-20 12:03:57</time>
      </trkpt>
      <trkpt lat="41.20267" lon="-8.57214">
        <ele>113.6</ele>
        <time>2021-03-20 12:03:58</time>
      </trkpt>
      <trkpt lat="41.20274" lon="-8.57204">
        <ele>113.6</ele>
        <time>2021-03-20 12:03:59</time>
      </trkpt>
      <trkpt lat="41.20279" lon="-8.57199">
        <ele>113.6</ele>
        <time>2021-03-20 12:04:00</time>
      </trkpt>
      <trkpt lat="41.20284" lon="-8.57193">
        <ele>113.4</ele>
        <time>2021-03-20 12:04:01</time>
      </trkpt>
      <trkpt lat="41.20288" lon="-8.57188">
        <ele>113.6</ele>
        <time>2021-03-20 12:04:02</time>
      </trkpt>
      <trkpt lat="41.20294" lon="-8.57181">
        <ele>113.6</ele>
        <time>2021-03-20 12:04:03</time>
      </trkpt>
      <trkpt lat="41.20299" lon="-8.57175">
        <ele>113.6</ele>
        <time>2021-03-20 12:04:04</time>
      </trkpt>
      <trkpt lat="41.20303" lon="-8.57169">
        <ele>113.6</ele>
        <time>2021-03-20 12:04:05</time>
      </trkpt>
      <trkpt lat="41.20307" lon="-8.57163">
        <ele>113.8</ele>
        <time>2021-03-20 12:04:06</time>
      </trkpt>
      <trkpt lat="41.20311" lon="-8.57157">
        <ele>113.8</ele>
        <time>2021-03-20 12:04:07</time>
      </trkpt>
      <trkpt lat="41.20316" lon="-8.57151">
        <ele>113.8</ele>
        <time>2021-03-20 12:04:08</time>
      </trkpt>
      <trkpt lat="41.20321" lon="-8.57145">
        <ele>113.8</ele>
        <time>2021-03-20 12:04:09</time>
      </trkpt>
      <trkpt lat="41.20324" lon="-8.57141">
        <ele>114</ele>
        <time>2021-03-20 12:04:10</time>
      </trkpt>
      <trkpt lat="41.20329" lon="-8.57136">
        <ele>113.8</ele>
        <time>2021-03-20 12:04:11</time>
      </trkpt>
      <trkpt lat="41.20333" lon="-8.57129">
        <ele>113.8</ele>
        <time>2021-03-20 12:04:12</time>
      </trkpt>
      <trkpt lat="41.20337" lon="-8.57124">
        <ele>113.8</ele>
        <time>2021-03-20 12:04:13</time>
      </trkpt>
      <trkpt lat="41.2034" lon="-8.57118">
        <ele>113.8</ele>
        <time>2021-03-20 12:04:14</time>
      </trkpt>
      <trkpt lat="41.20342" lon="-8.57114">
        <ele>113.6</ele>
        <time>2021-03-20 12:04:15</time>
      </trkpt>
      <trkpt lat="41.20346" lon="-8.5711">
        <ele>113.6</ele>
        <time>2021-03-20 12:04:16</time>
      </trkpt>
      <trkpt lat="41.20349" lon="-8.57104">
        <ele>113.4</ele>
        <time>2021-03-20 12:04:17</time>
      </trkpt>
      <trkpt lat="41.20353" lon="-8.57098">
        <ele>113.4</ele>
        <time>2021-03-20 12:04:18</time>
      </trkpt>
      <trkpt lat="41.20355" lon="-8.57094">
        <ele>113.6</ele>
        <time>2021-03-20 12:04:19</time>
      </trkpt>
      <trkpt lat="41.20357" lon="-8.57091">
        <ele>113.2</ele>
        <time>2021-03-20 12:04:20</time>
      </trkpt>
      <trkpt lat="41.20359" lon="-8.57087">
        <ele>113.6</ele>
        <time>2021-03-20 12:04:21</time>
      </trkpt>
      <trkpt lat="41.20359" lon="-8.57085">
        <ele>113.8</ele>
        <time>2021-03-20 12:04:22</time>
      </trkpt>
      <trkpt lat="41.20361" lon="-8.57083">
        <ele>113.6</ele>
        <time>2021-03-20 12:04:23</time>
      </trkpt>
      <trkpt lat="41.20362" lon="-8.57082">
        <ele>113.4</ele>
        <time>2021-03-20 12:04:24</time>
      </trkpt>
      <trkpt lat="41.20363" lon="-8.5708">
        <ele>112.8</ele>
        <time>2021-03-20 12:04:25</time>
      </trkpt>
      <trkpt lat="41.20367" lon="-8.57078">
        <ele>112.8</ele>
        <time>2021-03-20 12:04:26</time>
      </trkpt>
      <trkpt lat="41.20369" lon="-8.57074">
        <ele>112.8</ele>
        <time>2021-03-20 12:04:27</time>
      </trkpt>
      <trkpt lat="41.2037" lon="-8.57073">
        <ele>112.6</ele>
        <time>2021-03-20 12:04:28</time>
      </trkpt>
      <trkpt lat="41.2037" lon="-8.57073">
        <ele>112.6</ele>
        <time>2021-03-20 12:04:29</time>
      </trkpt>
      <trkpt lat="41.2037" lon="-8.57067">
        <ele>112.4</ele>
        <time>2021-03-20 12:04:30</time>
      </trkpt>
      <trkpt lat="41.2037" lon="-8.57068">
        <ele>112.6</ele>
        <time>2021-03-20 12:04:31</time>
      </trkpt>
      <trkpt lat="41.2037" lon="-8.57067">
        <ele>112.6</ele>
        <time>2021-03-20 12:04:32</time>
      </trkpt>
      <trkpt lat="41.2037" lon="-8.57067">
        <ele>112.6</ele>
        <time>2021-03-20 12:04:33</time>
      </trkpt>
      <trkpt lat="41.20372" lon="-8.57071">
        <ele>112.2</ele>
        <time>2021-03-20 12:04:34</time>
      </trkpt>
      <trkpt lat="41.20373" lon="-8.57073">
        <ele>112</ele>
        <time>2021-03-20 12:04:35</time>
      </trkpt>
      <trkpt lat="41.20374" lon="-8.57075">
        <ele>112</ele>
        <time>2021-03-20 12:04:36</time>
      </trkpt>
      <trkpt lat="41.20375" lon="-8.57075">
        <ele>112</ele>
        <time>2021-03-20 12:04:37</time>
      </trkpt>
      <trkpt lat="41.20375" lon="-8.57072">
        <ele>112</ele>
        <time>2021-03-20 12:04:38</time>
      </trkpt>
      <trkpt lat="41.2038" lon="-8.5707">
        <ele>111.8</ele>
        <time>2021-03-20 12:04:39</time>
      </trkpt>
      <trkpt lat="41.20381" lon="-8.5707">
        <ele>111.6</ele>
        <time>2021-03-20 12:04:40</time>
      </trkpt>
      <trkpt lat="41.20382" lon="-8.5707">
        <ele>111.2</ele>
        <time>2021-03-20 12:04:41</time>
      </trkpt>
      <trkpt lat="41.20382" lon="-8.57069">
        <ele>111</ele>
        <time>2021-03-20 12:04:42</time>
      </trkpt>
      <trkpt lat="41.20383" lon="-8.57066">
        <ele>110.8</ele>
        <time>2021-03-20 12:04:43</time>
      </trkpt>
      <trkpt lat="41.20384" lon="-8.57063">
        <ele>110.8</ele>
        <time>2021-03-20 12:04:44</time>
      </trkpt>
      <trkpt lat="41.20385" lon="-8.5706">
        <ele>110.4</ele>
        <time>2021-03-20 12:04:45</time>
      </trkpt>
      <trkpt lat="41.20386" lon="-8.57059">
        <ele>110</ele>
        <time>2021-03-20 12:04:46</time>
      </trkpt>
      <trkpt lat="41.20389" lon="-8.57054">
        <ele>110</ele>
        <time>2021-03-20 12:04:47</time>
      </trkpt>
      <trkpt lat="41.20391" lon="-8.57048">
        <ele>110</ele>
        <time>2021-03-20 12:04:48</time>
      </trkpt>
      <trkpt lat="41.20393" lon="-8.57044">
        <ele>110</ele>
        <time>2021-03-20 12:04:49</time>
      </trkpt>
      <trkpt lat="41.20395" lon="-8.57039">
        <ele>109.8</ele>
        <time>2021-03-20 12:04:50</time>
      </trkpt>
      <trkpt lat="41.20397" lon="-8.57036">
        <ele>109.4</ele>
        <time>2021-03-20 12:04:51</time>
      </trkpt>
      <trkpt lat="41.204" lon="-8.5703">
        <ele>109.4</ele>
        <time>2021-03-20 12:04:52</time>
      </trkpt>
      <trkpt lat="41.20403" lon="-8.57024">
        <ele>109.4</ele>
        <time>2021-03-20 12:04:53</time>
      </trkpt>
      <trkpt lat="41.20406" lon="-8.57019">
        <ele>109.4</ele>
        <time>2021-03-20 12:04:54</time>
      </trkpt>
      <trkpt lat="41.20409" lon="-8.57015">
        <ele>109.4</ele>
        <time>2021-03-20 12:04:55</time>
      </trkpt>
      <trkpt lat="41.20413" lon="-8.57009">
        <ele>109.4</ele>
        <time>2021-03-20 12:04:56</time>
      </trkpt>
      <trkpt lat="41.20417" lon="-8.57003">
        <ele>109.4</ele>
        <time>2021-03-20 12:04:57</time>
      </trkpt>
      <trkpt lat="41.20421" lon="-8.56997">
        <ele>109.4</ele>
        <time>2021-03-20 12:04:58</time>
      </trkpt>
      <trkpt lat="41.20424" lon="-8.5699">
        <ele>109.4</ele>
        <time>2021-03-20 12:04:59</time>
      </trkpt>
      <trkpt lat="41.20427" lon="-8.56984">
        <ele>109.6</ele>
        <time>2021-03-20 12:05:00</time>
      </trkpt>
      <trkpt lat="41.20431" lon="-8.56977">
        <ele>109.4</ele>
        <time>2021-03-20 12:05:01</time>
      </trkpt>
      <trkpt lat="41.20435" lon="-8.5697">
        <ele>109.4</ele>
        <time>2021-03-20 12:05:02</time>
      </trkpt>
      <trkpt lat="41.2044" lon="-8.56964">
        <ele>109</ele>
        <time>2021-03-20 12:05:03</time>
      </trkpt>
      <trkpt lat="41.20442" lon="-8.56959">
        <ele>109</ele>
        <time>2021-03-20 12:05:12</time>
      </trkpt>
      <trkpt lat="41.20446" lon="-8.56953">
        <ele>109.2</ele>
        <time>2021-03-20 12:05:13</time>
      </trkpt>
      <trkpt lat="41.2045" lon="-8.56947">
        <ele>109.2</ele>
        <time>2021-03-20 12:05:14</time>
      </trkpt>
      <trkpt lat="41.20455" lon="-8.56938">
        <ele>109.2</ele>
        <time>2021-03-20 12:05:15</time>
      </trkpt>
      <trkpt lat="41.20459" lon="-8.56934">
        <ele>109.4</ele>
        <time>2021-03-20 12:05:16</time>
      </trkpt>
      <trkpt lat="41.20464" lon="-8.5693">
        <ele>109.2</ele>
        <time>2021-03-20 12:05:17</time>
      </trkpt>
      <trkpt lat="41.20468" lon="-8.56923">
        <ele>109.2</ele>
        <time>2021-03-20 12:05:18</time>
      </trkpt>
      <trkpt lat="41.20473" lon="-8.56912">
        <ele>109</ele>
        <time>2021-03-20 12:05:19</time>
      </trkpt>
      <trkpt lat="41.20477" lon="-8.56907">
        <ele>109</ele>
        <time>2021-03-20 12:05:20</time>
      </trkpt>
      <trkpt lat="41.20482" lon="-8.56898">
        <ele>109</ele>
        <time>2021-03-20 12:05:21</time>
      </trkpt>
      <trkpt lat="41.20486" lon="-8.5689">
        <ele>109.4</ele>
        <time>2021-03-20 12:05:22</time>
      </trkpt>
      <trkpt lat="41.20491" lon="-8.56882">
        <ele>109.4</ele>
        <time>2021-03-20 12:05:23</time>
      </trkpt>
      <trkpt lat="41.20494" lon="-8.56877">
        <ele>109.4</ele>
        <time>2021-03-20 12:05:24</time>
      </trkpt>
      <trkpt lat="41.20499" lon="-8.56868">
        <ele>109.4</ele>
        <time>2021-03-20 12:05:25</time>
      </trkpt>
      <trkpt lat="41.20503" lon="-8.56861">
        <ele>109.6</ele>
        <time>2021-03-20 12:05:26</time>
      </trkpt>
      <trkpt lat="41.2051" lon="-8.56851">
        <ele>109.8</ele>
        <time>2021-03-20 12:05:27</time>
      </trkpt>
      <trkpt lat="41.20514" lon="-8.56847">
        <ele>110</ele>
        <time>2021-03-20 12:05:28</time>
      </trkpt>
      <trkpt lat="41.20518" lon="-8.56841">
        <ele>110</ele>
        <time>2021-03-20 12:05:29</time>
      </trkpt>
      <trkpt lat="41.20524" lon="-8.56834">
        <ele>110</ele>
        <time>2021-03-20 12:05:30</time>
      </trkpt>
      <trkpt lat="41.20529" lon="-8.56829">
        <ele>109.8</ele>
        <time>2021-03-20 12:05:31</time>
      </trkpt>
      <trkpt lat="41.20532" lon="-8.56823">
        <ele>109.8</ele>
        <time>2021-03-20 12:05:32</time>
      </trkpt>
      <trkpt lat="41.20537" lon="-8.56817">
        <ele>109.8</ele>
        <time>2021-03-20 12:05:33</time>
      </trkpt>
      <trkpt lat="41.20541" lon="-8.5681">
        <ele>109.8</ele>
        <time>2021-03-20 12:05:34</time>
      </trkpt>
      <trkpt lat="41.20552" lon="-8.56804">
        <ele>109.6</ele>
        <time>2021-03-20 12:05:35</time>
      </trkpt>
      <trkpt lat="41.20558" lon="-8.56798">
        <ele>109.8</ele>
        <time>2021-03-20 12:05:36</time>
      </trkpt>
      <trkpt lat="41.20564" lon="-8.56792">
        <ele>109.8</ele>
        <time>2021-03-20 12:05:37</time>
      </trkpt>
      <trkpt lat="41.20568" lon="-8.56791">
        <ele>110</ele>
        <time>2021-03-20 12:05:38</time>
      </trkpt>
      <trkpt lat="41.20576" lon="-8.56781">
        <ele>110</ele>
        <time>2021-03-20 12:05:39</time>
      </trkpt>
      <trkpt lat="41.2058" lon="-8.5678">
        <ele>110</ele>
        <time>2021-03-20 12:05:40</time>
      </trkpt>
      <trkpt lat="41.20584" lon="-8.56772">
        <ele>110</ele>
        <time>2021-03-20 12:05:41</time>
      </trkpt>
      <trkpt lat="41.20588" lon="-8.56766">
        <ele>110</ele>
        <time>2021-03-20 12:05:42</time>
      </trkpt>
      <trkpt lat="41.20591" lon="-8.56762">
        <ele>110</ele>
        <time>2021-03-20 12:05:43</time>
      </trkpt>
      <trkpt lat="41.20592" lon="-8.5676">
        <ele>110</ele>
        <time>2021-03-20 12:05:44</time>
      </trkpt>
      <trkpt lat="41.20596" lon="-8.56758">
        <ele>110</ele>
        <time>2021-03-20 12:05:45</time>
      </trkpt>
      <trkpt lat="41.20601" lon="-8.56753">
        <ele>110</ele>
        <time>2021-03-20 12:05:46</time>
      </trkpt>
      <trkpt lat="41.20605" lon="-8.5675">
        <ele>110</ele>
        <time>2021-03-20 12:05:47</time>
      </trkpt>
      <trkpt lat="41.20607" lon="-8.56748">
        <ele>110</ele>
        <time>2021-03-20 12:05:48</time>
      </trkpt>
      <trkpt lat="41.20611" lon="-8.56745">
        <ele>110</ele>
        <time>2021-03-20 12:05:49</time>
      </trkpt>
      <trkpt lat="41.20613" lon="-8.56742">
        <ele>110</ele>
        <time>2021-03-20 12:05:50</time>
      </trkpt>
      <trkpt lat="41.20615" lon="-8.5674">
        <ele>110</ele>
        <time>2021-03-20 12:05:51</time>
      </trkpt>
      <trkpt lat="41.2062" lon="-8.56738">
        <ele>110</ele>
        <time>2021-03-20 12:05:52</time>
      </trkpt>
      <trkpt lat="41.2062" lon="-8.56735">
        <ele>110</ele>
        <time>2021-03-20 12:05:53</time>
      </trkpt>
      <trkpt lat="41.20622" lon="-8.56732">
        <ele>110</ele>
        <time>2021-03-20 12:05:54</time>
      </trkpt>
      <trkpt lat="41.20625" lon="-8.56733">
        <ele>110.2</ele>
        <time>2021-03-20 12:05:55</time>
      </trkpt>
      <trkpt lat="41.20629" lon="-8.56733">
        <ele>110</ele>
        <time>2021-03-20 12:05:56</time>
      </trkpt>
      <trkpt lat="41.20632" lon="-8.56732">
        <ele>109.8</ele>
        <time>2021-03-20 12:05:57</time>
      </trkpt>
      <trkpt lat="41.20637" lon="-8.56733">
        <ele>110</ele>
        <time>2021-03-20 12:05:58</time>
      </trkpt>
      <trkpt lat="41.20641" lon="-8.5673">
        <ele>110</ele>
        <time>2021-03-20 12:05:59</time>
      </trkpt>
      <trkpt lat="41.20644" lon="-8.56727">
        <ele>110</ele>
        <time>2021-03-20 12:06:00</time>
      </trkpt>
      <trkpt lat="41.20647" lon="-8.56726">
        <ele>110.2</ele>
        <time>2021-03-20 12:06:01</time>
      </trkpt>
      <trkpt lat="41.20649" lon="-8.56724">
        <ele>110.2</ele>
        <time>2021-03-20 12:06:02</time>
      </trkpt>
      <trkpt lat="41.2065" lon="-8.56722">
        <ele>110.2</ele>
        <time>2021-03-20 12:06:03</time>
      </trkpt>
      <trkpt lat="41.20652" lon="-8.56722">
        <ele>110.4</ele>
        <time>2021-03-20 12:06:04</time>
      </trkpt>
      <trkpt lat="41.20655" lon="-8.56721">
        <ele>110.4</ele>
        <time>2021-03-20 12:06:05</time>
      </trkpt>
      <trkpt lat="41.20658" lon="-8.56721">
        <ele>110.6</ele>
        <time>2021-03-20 12:06:06</time>
      </trkpt>
      <trkpt lat="41.20661" lon="-8.56721">
        <ele>111</ele>
        <time>2021-03-20 12:06:07</time>
      </trkpt>
      <trkpt lat="41.20664" lon="-8.56721">
        <ele>111</ele>
        <time>2021-03-20 12:06:08</time>
      </trkpt>
      <trkpt lat="41.20667" lon="-8.56721">
        <ele>111</ele>
        <time>2021-03-20 12:06:09</time>
      </trkpt>
      <trkpt lat="41.20669" lon="-8.56721">
        <ele>111.2</ele>
        <time>2021-03-20 12:06:10</time>
      </trkpt>
      <trkpt lat="41.20671" lon="-8.56721">
        <ele>111.6</ele>
        <time>2021-03-20 12:06:11</time>
      </trkpt>
      <trkpt lat="41.20673" lon="-8.56721">
        <ele>112</ele>
        <time>2021-03-20 12:06:12</time>
      </trkpt>
      <trkpt lat="41.20674" lon="-8.5672">
        <ele>112.2</ele>
        <time>2021-03-20 12:06:13</time>
      </trkpt>
      <trkpt lat="41.20676" lon="-8.5672">
        <ele>112.4</ele>
        <time>2021-03-20 12:06:14</time>
      </trkpt>
      <trkpt lat="41.20677" lon="-8.56721">
        <ele>112.6</ele>
        <time>2021-03-20 12:06:15</time>
      </trkpt>
      <trkpt lat="41.20678" lon="-8.56721">
        <ele>112.6</ele>
        <time>2021-03-20 12:06:16</time>
      </trkpt>
      <trkpt lat="41.20679" lon="-8.56721">
        <ele>112.8</ele>
        <time>2021-03-20 12:06:17</time>
      </trkpt>
      <trkpt lat="41.2068" lon="-8.56721">
        <ele>112.8</ele>
        <time>2021-03-20 12:06:18</time>
      </trkpt>
      <trkpt lat="41.20681" lon="-8.56721">
        <ele>112.8</ele>
        <time>2021-03-20 12:06:19</time>
      </trkpt>
      <trkpt lat="41.20682" lon="-8.5672">
        <ele>112.8</ele>
        <time>2021-03-20 12:06:20</time>
      </trkpt>
      <trkpt lat="41.20684" lon="-8.56722">
        <ele>112.8</ele>
        <time>2021-03-20 12:06:21</time>
      </trkpt>
      <trkpt lat="41.20685" lon="-8.56723">
        <ele>112.8</ele>
        <time>2021-03-20 12:06:22</time>
      </trkpt>
      <trkpt lat="41.20685" lon="-8.56723">
        <ele>113.2</ele>
        <time>2021-03-20 12:06:23</time>
      </trkpt>
      <trkpt lat="41.20686" lon="-8.56721">
        <ele>113.4</ele>
        <time>2021-03-20 12:06:24</time>
      </trkpt>
      <trkpt lat="41.20686" lon="-8.5672">
        <ele>113.4</ele>
        <time>2021-03-20 12:06:25</time>
      </trkpt>
      <trkpt lat="41.20687" lon="-8.5672">
        <ele>113.4</ele>
        <time>2021-03-20 12:06:26</time>
      </trkpt>
      <trkpt lat="41.20688" lon="-8.56721">
        <ele>113</ele>
        <time>2021-03-20 12:06:27</time>
      </trkpt>
      <trkpt lat="41.20691" lon="-8.5672">
        <ele>113</ele>
        <time>2021-03-20 12:06:28</time>
      </trkpt>
      <trkpt lat="41.20694" lon="-8.56719">
        <ele>113.2</ele>
        <time>2021-03-20 12:06:29</time>
      </trkpt>
      <trkpt lat="41.20696" lon="-8.56719">
        <ele>113.2</ele>
        <time>2021-03-20 12:06:30</time>
      </trkpt>
      <trkpt lat="41.207" lon="-8.56719">
        <ele>113.2</ele>
        <time>2021-03-20 12:06:31</time>
      </trkpt>
      <trkpt lat="41.20703" lon="-8.56718">
        <ele>112.8</ele>
        <time>2021-03-20 12:06:32</time>
      </trkpt>
      <trkpt lat="41.20707" lon="-8.56719">
        <ele>112.4</ele>
        <time>2021-03-20 12:06:33</time>
      </trkpt>
      <trkpt lat="41.20711" lon="-8.56719">
        <ele>112.2</ele>
        <time>2021-03-20 12:06:34</time>
      </trkpt>
      <trkpt lat="41.20713" lon="-8.56719">
        <ele>112</ele>
        <time>2021-03-20 12:06:35</time>
      </trkpt>
      <trkpt lat="41.20717" lon="-8.56718">
        <ele>111.8</ele>
        <time>2021-03-20 12:06:36</time>
      </trkpt>
      <trkpt lat="41.20722" lon="-8.56719">
        <ele>111.8</ele>
        <time>2021-03-20 12:06:37</time>
      </trkpt>
      <trkpt lat="41.20725" lon="-8.56719">
        <ele>111</ele>
        <time>2021-03-20 12:06:38</time>
      </trkpt>
      <trkpt lat="41.20729" lon="-8.56719">
        <ele>110.6</ele>
        <time>2021-03-20 12:06:39</time>
      </trkpt>
      <trkpt lat="41.20733" lon="-8.56718">
        <ele>110</ele>
        <time>2021-03-20 12:06:40</time>
      </trkpt>
      <trkpt lat="41.20736" lon="-8.56718">
        <ele>109.6</ele>
        <time>2021-03-20 12:06:41</time>
      </trkpt>
      <trkpt lat="41.20742" lon="-8.56718">
        <ele>109.2</ele>
        <time>2021-03-20 12:06:42</time>
      </trkpt>
      <trkpt lat="41.20747" lon="-8.56718">
        <ele>108.6</ele>
        <time>2021-03-20 12:06:43</time>
      </trkpt>
      <trkpt lat="41.2075" lon="-8.56716">
        <ele>108</ele>
        <time>2021-03-20 12:06:44</time>
      </trkpt>
      <trkpt lat="41.20754" lon="-8.56715">
        <ele>107.8</ele>
        <time>2021-03-20 12:06:45</time>
      </trkpt>
      <trkpt lat="41.20758" lon="-8.56715">
        <ele>107.6</ele>
        <time>2021-03-20 12:06:46</time>
      </trkpt>
      <trkpt lat="41.20761" lon="-8.56715">
        <ele>107.4</ele>
        <time>2021-03-20 12:06:47</time>
      </trkpt>
      <trkpt lat="41.20766" lon="-8.56715">
        <ele>107.4</ele>
        <time>2021-03-20 12:06:48</time>
      </trkpt>
      <trkpt lat="41.2077" lon="-8.56716">
        <ele>107.4</ele>
        <time>2021-03-20 12:06:49</time>
      </trkpt>
      <trkpt lat="41.20776" lon="-8.56715">
        <ele>107.4</ele>
        <time>2021-03-20 12:06:50</time>
      </trkpt>
      <trkpt lat="41.2078" lon="-8.56715">
        <ele>107</ele>
        <time>2021-03-20 12:06:51</time>
      </trkpt>
      <trkpt lat="41.20783" lon="-8.56715">
        <ele>107</ele>
        <time>2021-03-20 12:06:52</time>
      </trkpt>
      <trkpt lat="41.20788" lon="-8.56715">
        <ele>107</ele>
        <time>2021-03-20 12:06:53</time>
      </trkpt>
      <trkpt lat="41.20792" lon="-8.56714">
        <ele>107.2</ele>
        <time>2021-03-20 12:06:54</time>
      </trkpt>
      <trkpt lat="41.20796" lon="-8.56715">
        <ele>107</ele>
        <time>2021-03-20 12:06:55</time>
      </trkpt>
      <trkpt lat="41.20802" lon="-8.56714">
        <ele>107</ele>
        <time>2021-03-20 12:06:56</time>
      </trkpt>
      <trkpt lat="41.20807" lon="-8.56712">
        <ele>106.8</ele>
        <time>2021-03-20 12:06:57</time>
      </trkpt>
      <trkpt lat="41.20812" lon="-8.56714">
        <ele>106.6</ele>
        <time>2021-03-20 12:06:58</time>
      </trkpt>
      <trkpt lat="41.20818" lon="-8.56714">
        <ele>106.2</ele>
        <time>2021-03-20 12:06:59</time>
      </trkpt>
      <trkpt lat="41.20823" lon="-8.56715">
        <ele>106</ele>
        <time>2021-03-20 12:07:00</time>
      </trkpt>
      <trkpt lat="41.20829" lon="-8.56715">
        <ele>106</ele>
        <time>2021-03-20 12:07:01</time>
      </trkpt>
      <trkpt lat="41.20835" lon="-8.56715">
        <ele>106</ele>
        <time>2021-03-20 12:07:02</time>
      </trkpt>
      <trkpt lat="41.20841" lon="-8.56713">
        <ele>105.6</ele>
        <time>2021-03-20 12:07:03</time>
      </trkpt>
      <trkpt lat="41.20846" lon="-8.56712">
        <ele>105.4</ele>
        <time>2021-03-20 12:07:04</time>
      </trkpt>
      <trkpt lat="41.2085" lon="-8.56712">
        <ele>105.2</ele>
        <time>2021-03-20 12:07:05</time>
      </trkpt>
      <trkpt lat="41.20857" lon="-8.56711">
        <ele>105.2</ele>
        <time>2021-03-20 12:07:06</time>
      </trkpt>
      <trkpt lat="41.20863" lon="-8.56709">
        <ele>104.6</ele>
        <time>2021-03-20 12:07:07</time>
      </trkpt>
      <trkpt lat="41.20869" lon="-8.56706">
        <ele>104.6</ele>
        <time>2021-03-20 12:07:08</time>
      </trkpt>
      <trkpt lat="41.20879" lon="-8.56701">
        <ele>104.6</ele>
        <time>2021-03-20 12:07:09</time>
      </trkpt>
      <trkpt lat="41.20887" lon="-8.56697">
        <ele>104.4</ele>
        <time>2021-03-20 12:07:10</time>
      </trkpt>
      <trkpt lat="41.20894" lon="-8.56692">
        <ele>104</ele>
        <time>2021-03-20 12:07:11</time>
      </trkpt>
      <trkpt lat="41.209" lon="-8.56688">
        <ele>103.4</ele>
        <time>2021-03-20 12:07:12</time>
      </trkpt>
      <trkpt lat="41.20907" lon="-8.56683">
        <ele>103</ele>
        <time>2021-03-20 12:07:13</time>
      </trkpt>
      <trkpt lat="41.20915" lon="-8.56677">
        <ele>102.6</ele>
        <time>2021-03-20 12:07:14</time>
      </trkpt>
      <trkpt lat="41.20923" lon="-8.56672">
        <ele>102.6</ele>
        <time>2021-03-20 12:07:15</time>
      </trkpt>
      <trkpt lat="41.20932" lon="-8.56665">
        <ele>102.4</ele>
        <time>2021-03-20 12:07:16</time>
      </trkpt>
      <trkpt lat="41.20939" lon="-8.5666">
        <ele>102</ele>
        <time>2021-03-20 12:07:17</time>
      </trkpt>
      <trkpt lat="41.20947" lon="-8.56654">
        <ele>101.8</ele>
        <time>2021-03-20 12:07:18</time>
      </trkpt>
      <trkpt lat="41.20951" lon="-8.56651">
        <ele>101.8</ele>
        <time>2021-03-20 12:07:19</time>
      </trkpt>
      <trkpt lat="41.20959" lon="-8.56644">
        <ele>101.8</ele>
        <time>2021-03-20 12:07:20</time>
      </trkpt>
      <trkpt lat="41.20967" lon="-8.56639">
        <ele>101.8</ele>
        <time>2021-03-20 12:07:21</time>
      </trkpt>
      <trkpt lat="41.20973" lon="-8.56634">
        <ele>101.6</ele>
        <time>2021-03-20 12:07:22</time>
      </trkpt>
      <trkpt lat="41.20981" lon="-8.56627">
        <ele>101.6</ele>
        <time>2021-03-20 12:07:23</time>
      </trkpt>
      <trkpt lat="41.20985" lon="-8.56623">
        <ele>101.4</ele>
        <time>2021-03-20 12:07:24</time>
      </trkpt>
      <trkpt lat="41.2099" lon="-8.56619">
        <ele>101.6</ele>
        <time>2021-03-20 12:07:25</time>
      </trkpt>
      <trkpt lat="41.20997" lon="-8.56615">
        <ele>101.8</ele>
        <time>2021-03-20 12:07:26</time>
      </trkpt>
      <trkpt lat="41.21003" lon="-8.56609">
        <ele>101.4</ele>
        <time>2021-03-20 12:07:27</time>
      </trkpt>
      <trkpt lat="41.2101" lon="-8.56604">
        <ele>101</ele>
        <time>2021-03-20 12:07:28</time>
      </trkpt>
      <trkpt lat="41.21016" lon="-8.56597">
        <ele>100.6</ele>
        <time>2021-03-20 12:07:29</time>
      </trkpt>
      <trkpt lat="41.21023" lon="-8.56591">
        <ele>100.8</ele>
        <time>2021-03-20 12:07:30</time>
      </trkpt>
      <trkpt lat="41.21029" lon="-8.56585">
        <ele>101.2</ele>
        <time>2021-03-20 12:07:31</time>
      </trkpt>
      <trkpt lat="41.21033" lon="-8.56582">
        <ele>101</ele>
        <time>2021-03-20 12:07:32</time>
      </trkpt>
      <trkpt lat="41.21038" lon="-8.56577">
        <ele>100.8</ele>
        <time>2021-03-20 12:07:33</time>
      </trkpt>
      <trkpt lat="41.21045" lon="-8.56572">
        <ele>101</ele>
        <time>2021-03-20 12:07:34</time>
      </trkpt>
      <trkpt lat="41.21055" lon="-8.56566">
        <ele>101</ele>
        <time>2021-03-20 12:07:35</time>
      </trkpt>
      <trkpt lat="41.21061" lon="-8.56561">
        <ele>100.8</ele>
        <time>2021-03-20 12:07:36</time>
      </trkpt>
      <trkpt lat="41.21067" lon="-8.56556">
        <ele>100.8</ele>
        <time>2021-03-20 12:07:37</time>
      </trkpt>
      <trkpt lat="41.21073" lon="-8.56556">
        <ele>100.6</ele>
        <time>2021-03-20 12:07:38</time>
      </trkpt>
      <trkpt lat="41.21078" lon="-8.5655">
        <ele>100.8</ele>
        <time>2021-03-20 12:07:39</time>
      </trkpt>
      <trkpt lat="41.21086" lon="-8.56544">
        <ele>101</ele>
        <time>2021-03-20 12:07:40</time>
      </trkpt>
      <trkpt lat="41.21093" lon="-8.56539">
        <ele>101</ele>
        <time>2021-03-20 12:07:41</time>
      </trkpt>
      <trkpt lat="41.21102" lon="-8.56532">
        <ele>100.8</ele>
        <time>2021-03-20 12:07:42</time>
      </trkpt>
      <trkpt lat="41.21109" lon="-8.56526">
        <ele>100.6</ele>
        <time>2021-03-20 12:07:43</time>
      </trkpt>
      <trkpt lat="41.21115" lon="-8.56522">
        <ele>100.2</ele>
        <time>2021-03-20 12:07:44</time>
      </trkpt>
      <trkpt lat="41.21122" lon="-8.56516">
        <ele>99.8</ele>
        <time>2021-03-20 12:07:45</time>
      </trkpt>
      <trkpt lat="41.21128" lon="-8.56511">
        <ele>99.4</ele>
        <time>2021-03-20 12:07:46</time>
      </trkpt>
      <trkpt lat="41.21136" lon="-8.56504">
        <ele>99</ele>
        <time>2021-03-20 12:07:47</time>
      </trkpt>
      <trkpt lat="41.21145" lon="-8.56497">
        <ele>98.2</ele>
        <time>2021-03-20 12:07:48</time>
      </trkpt>
      <trkpt lat="41.21151" lon="-8.56492">
        <ele>97.8</ele>
        <time>2021-03-20 12:07:49</time>
      </trkpt>
      <trkpt lat="41.21167" lon="-8.56478">
        <ele>97.6</ele>
        <time>2021-03-20 12:07:50</time>
      </trkpt>
      <trkpt lat="41.21173" lon="-8.56472">
        <ele>96.8</ele>
        <time>2021-03-20 12:07:51</time>
      </trkpt>
      <trkpt lat="41.2118" lon="-8.56465">
        <ele>96.2</ele>
        <time>2021-03-20 12:07:52</time>
      </trkpt>
      <trkpt lat="41.21186" lon="-8.56459">
        <ele>95.8</ele>
        <time>2021-03-20 12:07:53</time>
      </trkpt>
      <trkpt lat="41.21201" lon="-8.56446">
        <ele>95.2</ele>
        <time>2021-03-20 12:07:54</time>
      </trkpt>
      <trkpt lat="41.21204" lon="-8.5644">
        <ele>94.2</ele>
        <time>2021-03-20 12:07:55</time>
      </trkpt>
      <trkpt lat="41.2121" lon="-8.56436">
        <ele>93.6</ele>
        <time>2021-03-20 12:07:56</time>
      </trkpt>
      <trkpt lat="41.21215" lon="-8.56433">
        <ele>93.2</ele>
        <time>2021-03-20 12:07:57</time>
      </trkpt>
      <trkpt lat="41.21222" lon="-8.56429">
        <ele>93</ele>
        <time>2021-03-20 12:07:58</time>
      </trkpt>
      <trkpt lat="41.21228" lon="-8.56424">
        <ele>92.4</ele>
        <time>2021-03-20 12:07:59</time>
      </trkpt>
      <trkpt lat="41.21233" lon="-8.56421">
        <ele>92.2</ele>
        <time>2021-03-20 12:08:00</time>
      </trkpt>
      <trkpt lat="41.21239" lon="-8.56418">
        <ele>92.4</ele>
        <time>2021-03-20 12:08:01</time>
      </trkpt>
      <trkpt lat="41.21245" lon="-8.56415">
        <ele>92.2</ele>
        <time>2021-03-20 12:08:02</time>
      </trkpt>
      <trkpt lat="41.21251" lon="-8.56411">
        <ele>92.2</ele>
        <time>2021-03-20 12:08:03</time>
      </trkpt>
      <trkpt lat="41.21256" lon="-8.56406">
        <ele>92</ele>
        <time>2021-03-20 12:08:04</time>
      </trkpt>
      <trkpt lat="41.21261" lon="-8.56401">
        <ele>91.6</ele>
        <time>2021-03-20 12:08:05</time>
      </trkpt>
      <trkpt lat="41.21265" lon="-8.56398">
        <ele>91.2</ele>
        <time>2021-03-20 12:08:06</time>
      </trkpt>
      <trkpt lat="41.21271" lon="-8.56394">
        <ele>91.2</ele>
        <time>2021-03-20 12:08:07</time>
      </trkpt>
      <trkpt lat="41.21276" lon="-8.56388">
        <ele>91</ele>
        <time>2021-03-20 12:08:08</time>
      </trkpt>
      <trkpt lat="41.2128" lon="-8.56384">
        <ele>90.6</ele>
        <time>2021-03-20 12:08:09</time>
      </trkpt>
      <trkpt lat="41.21285" lon="-8.56377">
        <ele>90</ele>
        <time>2021-03-20 12:08:10</time>
      </trkpt>
      <trkpt lat="41.21289" lon="-8.5637">
        <ele>89.2</ele>
        <time>2021-03-20 12:08:11</time>
      </trkpt>
      <trkpt lat="41.21292" lon="-8.56363">
        <ele>88.8</ele>
        <time>2021-03-20 12:08:12</time>
      </trkpt>
      <trkpt lat="41.21295" lon="-8.56357">
        <ele>88.2</ele>
        <time>2021-03-20 12:08:13</time>
      </trkpt>
      <trkpt lat="41.21299" lon="-8.56348">
        <ele>88</ele>
        <time>2021-03-20 12:08:14</time>
      </trkpt>
      <trkpt lat="41.21304" lon="-8.56338">
        <ele>87.6</ele>
        <time>2021-03-20 12:08:15</time>
      </trkpt>
      <trkpt lat="41.21308" lon="-8.56329">
        <ele>87.6</ele>
        <time>2021-03-20 12:08:16</time>
      </trkpt>
      <trkpt lat="41.21312" lon="-8.5632">
        <ele>87.2</ele>
        <time>2021-03-20 12:08:17</time>
      </trkpt>
      <trkpt lat="41.21315" lon="-8.56313">
        <ele>87.2</ele>
        <time>2021-03-20 12:08:18</time>
      </trkpt>
      <trkpt lat="41.21319" lon="-8.56302">
        <ele>86.4</ele>
        <time>2021-03-20 12:08:19</time>
      </trkpt>
      <trkpt lat="41.21323" lon="-8.56293">
        <ele>86.4</ele>
        <time>2021-03-20 12:08:20</time>
      </trkpt>
      <trkpt lat="41.21328" lon="-8.56284">
        <ele>86.4</ele>
        <time>2021-03-20 12:08:21</time>
      </trkpt>
      <trkpt lat="41.21331" lon="-8.56277">
        <ele>86.4</ele>
        <time>2021-03-20 12:08:22</time>
      </trkpt>
      <trkpt lat="41.21334" lon="-8.56268">
        <ele>86.2</ele>
        <time>2021-03-20 12:08:23</time>
      </trkpt>
      <trkpt lat="41.21339" lon="-8.5626">
        <ele>86.2</ele>
        <time>2021-03-20 12:08:24</time>
      </trkpt>
      <trkpt lat="41.21343" lon="-8.56251">
        <ele>86</ele>
        <time>2021-03-20 12:08:25</time>
      </trkpt>
      <trkpt lat="41.21347" lon="-8.56242">
        <ele>85.8</ele>
        <time>2021-03-20 12:08:26</time>
      </trkpt>
      <trkpt lat="41.2135" lon="-8.56234">
        <ele>85.8</ele>
        <time>2021-03-20 12:08:27</time>
      </trkpt>
      <trkpt lat="41.21353" lon="-8.56225">
        <ele>85.6</ele>
        <time>2021-03-20 12:08:28</time>
      </trkpt>
      <trkpt lat="41.21358" lon="-8.56216">
        <ele>85.6</ele>
        <time>2021-03-20 12:08:29</time>
      </trkpt>
      <trkpt lat="41.21363" lon="-8.56204">
        <ele>85.4</ele>
        <time>2021-03-20 12:08:30</time>
      </trkpt>
      <trkpt lat="41.21368" lon="-8.56194">
        <ele>85.2</ele>
        <time>2021-03-20 12:08:31</time>
      </trkpt>
      <trkpt lat="41.21371" lon="-8.56188">
        <ele>85.2</ele>
        <time>2021-03-20 12:08:32</time>
      </trkpt>
      <trkpt lat="41.21375" lon="-8.56176">
        <ele>85</ele>
        <time>2021-03-20 12:08:33</time>
      </trkpt>
      <trkpt lat="41.21378" lon="-8.56166">
        <ele>84.6</ele>
        <time>2021-03-20 12:08:34</time>
      </trkpt>
      <trkpt lat="41.21382" lon="-8.56157">
        <ele>84.2</ele>
        <time>2021-03-20 12:08:35</time>
      </trkpt>
      <trkpt lat="41.21385" lon="-8.5615">
        <ele>83.6</ele>
        <time>2021-03-20 12:08:36</time>
      </trkpt>
      <trkpt lat="41.2139" lon="-8.56141">
        <ele>83</ele>
        <time>2021-03-20 12:08:37</time>
      </trkpt>
      <trkpt lat="41.21393" lon="-8.56132">
        <ele>82.2</ele>
        <time>2021-03-20 12:08:38</time>
      </trkpt>
      <trkpt lat="41.21396" lon="-8.56124">
        <ele>81.8</ele>
        <time>2021-03-20 12:08:39</time>
      </trkpt>
      <trkpt lat="41.21399" lon="-8.56118">
        <ele>80.8</ele>
        <time>2021-03-20 12:08:40</time>
      </trkpt>
      <trkpt lat="41.21402" lon="-8.5611">
        <ele>80.6</ele>
        <time>2021-03-20 12:08:41</time>
      </trkpt>
      <trkpt lat="41.21406" lon="-8.56104">
        <ele>80.8</ele>
        <time>2021-03-20 12:08:42</time>
      </trkpt>
      <trkpt lat="41.21409" lon="-8.56098">
        <ele>80.2</ele>
        <time>2021-03-20 12:08:43</time>
      </trkpt>
      <trkpt lat="41.21413" lon="-8.56093">
        <ele>79.8</ele>
        <time>2021-03-20 12:08:44</time>
      </trkpt>
      <trkpt lat="41.21414" lon="-8.56089">
        <ele>79.4</ele>
        <time>2021-03-20 12:08:45</time>
      </trkpt>
      <trkpt lat="41.21417" lon="-8.56085">
        <ele>79.2</ele>
        <time>2021-03-20 12:08:46</time>
      </trkpt>
      <trkpt lat="41.2142" lon="-8.56081">
        <ele>79</ele>
        <time>2021-03-20 12:08:47</time>
      </trkpt>
      <trkpt lat="41.21421" lon="-8.56077">
        <ele>77.6</ele>
        <time>2021-03-20 12:08:48</time>
      </trkpt>
      <trkpt lat="41.21423" lon="-8.56072">
        <ele>77.2</ele>
        <time>2021-03-20 12:08:49</time>
      </trkpt>
      <trkpt lat="41.21424" lon="-8.56068">
        <ele>76.6</ele>
        <time>2021-03-20 12:08:50</time>
      </trkpt>
      <trkpt lat="41.21426" lon="-8.56067">
        <ele>76.4</ele>
        <time>2021-03-20 12:08:51</time>
      </trkpt>
      <trkpt lat="41.21428" lon="-8.56065">
        <ele>76.2</ele>
        <time>2021-03-20 12:08:52</time>
      </trkpt>
      <trkpt lat="41.2143" lon="-8.56061">
        <ele>76</ele>
        <time>2021-03-20 12:08:53</time>
      </trkpt>
      <trkpt lat="41.2143" lon="-8.5606">
        <ele>75.8</ele>
        <time>2021-03-20 12:08:54</time>
      </trkpt>
      <trkpt lat="41.21431" lon="-8.56059">
        <ele>75.4</ele>
        <time>2021-03-20 12:08:55</time>
      </trkpt>
      <trkpt lat="41.21431" lon="-8.56058">
        <ele>75</ele>
        <time>2021-03-20 12:08:56</time>
      </trkpt>
      <trkpt lat="41.21432" lon="-8.56053">
        <ele>74.6</ele>
        <time>2021-03-20 12:08:57</time>
      </trkpt>
      <trkpt lat="41.21433" lon="-8.56053">
        <ele>74.8</ele>
        <time>2021-03-20 12:08:58</time>
      </trkpt>
      <trkpt lat="41.21434" lon="-8.56054">
        <ele>74.6</ele>
        <time>2021-03-20 12:08:59</time>
      </trkpt>
      <trkpt lat="41.21434" lon="-8.56054">
        <ele>74.2</ele>
        <time>2021-03-20 12:09:00</time>
      </trkpt>
      <trkpt lat="41.21436" lon="-8.56051">
        <ele>74</ele>
        <time>2021-03-20 12:09:01</time>
      </trkpt>
      <trkpt lat="41.21438" lon="-8.56048">
        <ele>73.8</ele>
        <time>2021-03-20 12:09:02</time>
      </trkpt>
      <trkpt lat="41.21442" lon="-8.56043">
        <ele>74</ele>
        <time>2021-03-20 12:09:03</time>
      </trkpt>
      <trkpt lat="41.21445" lon="-8.56039">
        <ele>73.8</ele>
        <time>2021-03-20 12:09:04</time>
      </trkpt>
      <trkpt lat="41.2145" lon="-8.56034">
        <ele>73.2</ele>
        <time>2021-03-20 12:09:05</time>
      </trkpt>
      <trkpt lat="41.21453" lon="-8.56031">
        <ele>72.4</ele>
        <time>2021-03-20 12:09:06</time>
      </trkpt>
      <trkpt lat="41.21458" lon="-8.56028">
        <ele>72.4</ele>
        <time>2021-03-20 12:09:07</time>
      </trkpt>
      <trkpt lat="41.21463" lon="-8.56022">
        <ele>71.4</ele>
        <time>2021-03-20 12:09:08</time>
      </trkpt>
      <trkpt lat="41.21468" lon="-8.56016">
        <ele>70.6</ele>
        <time>2021-03-20 12:09:09</time>
      </trkpt>
      <trkpt lat="41.21474" lon="-8.56009">
        <ele>70</ele>
        <time>2021-03-20 12:09:10</time>
      </trkpt>
      <trkpt lat="41.21481" lon="-8.56002">
        <ele>69.2</ele>
        <time>2021-03-20 12:09:11</time>
      </trkpt>
      <trkpt lat="41.21488" lon="-8.55996">
        <ele>68.6</ele>
        <time>2021-03-20 12:09:12</time>
      </trkpt>
      <trkpt lat="41.21497" lon="-8.55989">
        <ele>68.4</ele>
        <time>2021-03-20 12:09:13</time>
      </trkpt>
      <trkpt lat="41.21506" lon="-8.55982">
        <ele>67.8</ele>
        <time>2021-03-20 12:09:14</time>
      </trkpt>
      <trkpt lat="41.21513" lon="-8.55978">
        <ele>67.6</ele>
        <time>2021-03-20 12:09:15</time>
      </trkpt>
      <trkpt lat="41.21519" lon="-8.55973">
        <ele>67.2</ele>
        <time>2021-03-20 12:09:16</time>
      </trkpt>
      <trkpt lat="41.21527" lon="-8.55966">
        <ele>66.8</ele>
        <time>2021-03-20 12:09:17</time>
      </trkpt>
      <trkpt lat="41.21534" lon="-8.55963">
        <ele>66.4</ele>
        <time>2021-03-20 12:09:18</time>
      </trkpt>
      <trkpt lat="41.21542" lon="-8.55957">
        <ele>66</ele>
        <time>2021-03-20 12:09:19</time>
      </trkpt>
      <trkpt lat="41.21564" lon="-8.55941">
        <ele>65.6</ele>
        <time>2021-03-20 12:09:20</time>
      </trkpt>
      <trkpt lat="41.21578" lon="-8.55931">
        <ele>65.2</ele>
        <time>2021-03-20 12:09:21</time>
      </trkpt>
      <trkpt lat="41.21601" lon="-8.55913">
        <ele>64.4</ele>
        <time>2021-03-20 12:09:22</time>
      </trkpt>
      <trkpt lat="41.21614" lon="-8.55904">
        <ele>63.8</ele>
        <time>2021-03-20 12:09:23</time>
      </trkpt>
      <trkpt lat="41.21621" lon="-8.559">
        <ele>63.2</ele>
        <time>2021-03-20 12:09:24</time>
      </trkpt>
      <trkpt lat="41.21629" lon="-8.55895">
        <ele>62.2</ele>
        <time>2021-03-20 12:09:25</time>
      </trkpt>
      <trkpt lat="41.21636" lon="-8.55891">
        <ele>61</ele>
        <time>2021-03-20 12:09:26</time>
      </trkpt>
      <trkpt lat="41.21644" lon="-8.55888">
        <ele>60.4</ele>
        <time>2021-03-20 12:09:27</time>
      </trkpt>
      <trkpt lat="41.21652" lon="-8.55885">
        <ele>59.4</ele>
        <time>2021-03-20 12:09:28</time>
      </trkpt>
      <trkpt lat="41.21661" lon="-8.55883">
        <ele>59</ele>
        <time>2021-03-20 12:09:29</time>
      </trkpt>
      <trkpt lat="41.21668" lon="-8.55881">
        <ele>58.2</ele>
        <time>2021-03-20 12:09:30</time>
      </trkpt>
      <trkpt lat="41.21677" lon="-8.5588">
        <ele>57.6</ele>
        <time>2021-03-20 12:09:31</time>
      </trkpt>
      <trkpt lat="41.21687" lon="-8.55879">
        <ele>56.6</ele>
        <time>2021-03-20 12:09:32</time>
      </trkpt>
      <trkpt lat="41.21696" lon="-8.55878">
        <ele>56</ele>
        <time>2021-03-20 12:09:33</time>
      </trkpt>
      <trkpt lat="41.21706" lon="-8.55878">
        <ele>55</ele>
        <time>2021-03-20 12:09:34</time>
      </trkpt>
      <trkpt lat="41.21715" lon="-8.55877">
        <ele>54.4</ele>
        <time>2021-03-20 12:09:35</time>
      </trkpt>
      <trkpt lat="41.21725" lon="-8.55877">
        <ele>54</ele>
        <time>2021-03-20 12:09:36</time>
      </trkpt>
      <trkpt lat="41.21736" lon="-8.55875">
        <ele>53.4</ele>
        <time>2021-03-20 12:09:37</time>
      </trkpt>
      <trkpt lat="41.21745" lon="-8.55877">
        <ele>52.8</ele>
        <time>2021-03-20 12:09:38</time>
      </trkpt>
      <trkpt lat="41.21756" lon="-8.55877">
        <ele>52.2</ele>
        <time>2021-03-20 12:09:39</time>
      </trkpt>
      <trkpt lat="41.21766" lon="-8.55875">
        <ele>52</ele>
        <time>2021-03-20 12:09:40</time>
      </trkpt>
      <trkpt lat="41.21773" lon="-8.55877">
        <ele>52</ele>
        <time>2021-03-20 12:09:41</time>
      </trkpt>
      <trkpt lat="41.21782" lon="-8.55876">
        <ele>52</ele>
        <time>2021-03-20 12:09:42</time>
      </trkpt>
      <trkpt lat="41.21791" lon="-8.55876">
        <ele>51.8</ele>
        <time>2021-03-20 12:09:43</time>
      </trkpt>
      <trkpt lat="41.21801" lon="-8.55877">
        <ele>51.8</ele>
        <time>2021-03-20 12:09:44</time>
      </trkpt>
      <trkpt lat="41.21812" lon="-8.55876">
        <ele>52</ele>
        <time>2021-03-20 12:09:45</time>
      </trkpt>
      <trkpt lat="41.21819" lon="-8.55876">
        <ele>52.2</ele>
        <time>2021-03-20 12:09:46</time>
      </trkpt>
      <trkpt lat="41.21829" lon="-8.55876">
        <ele>52.2</ele>
        <time>2021-03-20 12:09:47</time>
      </trkpt>
      <trkpt lat="41.21839" lon="-8.55875">
        <ele>52.4</ele>
        <time>2021-03-20 12:09:48</time>
      </trkpt>
      <trkpt lat="41.21848" lon="-8.55875">
        <ele>52.4</ele>
        <time>2021-03-20 12:09:49</time>
      </trkpt>
      <trkpt lat="41.21866" lon="-8.55874">
        <ele>52.4</ele>
        <time>2021-03-20 12:09:50</time>
      </trkpt>
      <trkpt lat="41.21876" lon="-8.55874">
        <ele>52.4</ele>
        <time>2021-03-20 12:09:51</time>
      </trkpt>
      <trkpt lat="41.21887" lon="-8.55874">
        <ele>52.2</ele>
        <time>2021-03-20 12:09:52</time>
      </trkpt>
      <trkpt lat="41.21898" lon="-8.55874">
        <ele>51.8</ele>
        <time>2021-03-20 12:09:53</time>
      </trkpt>
      <trkpt lat="41.21909" lon="-8.55875">
        <ele>52</ele>
        <time>2021-03-20 12:09:54</time>
      </trkpt>
      <trkpt lat="41.21921" lon="-8.55875">
        <ele>52.2</ele>
        <time>2021-03-20 12:09:55</time>
      </trkpt>
      <trkpt lat="41.2193" lon="-8.55876">
        <ele>52.2</ele>
        <time>2021-03-20 12:09:56</time>
      </trkpt>
      <trkpt lat="41.21941" lon="-8.55874">
        <ele>52.4</ele>
        <time>2021-03-20 12:09:57</time>
      </trkpt>
      <trkpt lat="41.21953" lon="-8.55874">
        <ele>52.2</ele>
        <time>2021-03-20 12:09:58</time>
      </trkpt>
      <trkpt lat="41.21964" lon="-8.55874">
        <ele>52.4</ele>
        <time>2021-03-20 12:09:59</time>
      </trkpt>
      <trkpt lat="41.21974" lon="-8.55873">
        <ele>52.8</ele>
        <time>2021-03-20 12:10:00</time>
      </trkpt>
      <trkpt lat="41.21983" lon="-8.55869">
        <ele>53.2</ele>
        <time>2021-03-20 12:10:01</time>
      </trkpt>
      <trkpt lat="41.21989" lon="-8.55866">
        <ele>53.4</ele>
        <time>2021-03-20 12:10:02</time>
      </trkpt>
      <trkpt lat="41.21996" lon="-8.5586">
        <ele>53.8</ele>
        <time>2021-03-20 12:10:03</time>
      </trkpt>
      <trkpt lat="41.22004" lon="-8.5585">
        <ele>54.2</ele>
        <time>2021-03-20 12:10:04</time>
      </trkpt>
      <trkpt lat="41.22011" lon="-8.55848">
        <ele>54.6</ele>
        <time>2021-03-20 12:10:05</time>
      </trkpt>
      <trkpt lat="41.22021" lon="-8.55838">
        <ele>54.8</ele>
        <time>2021-03-20 12:10:06</time>
      </trkpt>
      <trkpt lat="41.22026" lon="-8.55838">
        <ele>55</ele>
        <time>2021-03-20 12:10:07</time>
      </trkpt>
      <trkpt lat="41.22035" lon="-8.55842">
        <ele>55.4</ele>
        <time>2021-03-20 12:10:08</time>
      </trkpt>
      <trkpt lat="41.22043" lon="-8.55846">
        <ele>56</ele>
        <time>2021-03-20 12:10:09</time>
      </trkpt>
      <trkpt lat="41.22048" lon="-8.55849">
        <ele>56.4</ele>
        <time>2021-03-20 12:10:10</time>
      </trkpt>
      <trkpt lat="41.22053" lon="-8.55852">
        <ele>56.4</ele>
        <time>2021-03-20 12:10:11</time>
      </trkpt>
      <trkpt lat="41.22059" lon="-8.55854">
        <ele>56.4</ele>
        <time>2021-03-20 12:10:12</time>
      </trkpt>
      <trkpt lat="41.22067" lon="-8.55855">
        <ele>56.4</ele>
        <time>2021-03-20 12:10:13</time>
      </trkpt>
      <trkpt lat="41.22074" lon="-8.55855">
        <ele>56.4</ele>
        <time>2021-03-20 12:10:14</time>
      </trkpt>
      <trkpt lat="41.2208" lon="-8.55854">
        <ele>56.8</ele>
        <time>2021-03-20 12:10:15</time>
      </trkpt>
      <trkpt lat="41.22086" lon="-8.55854">
        <ele>57</ele>
        <time>2021-03-20 12:10:16</time>
      </trkpt>
      <trkpt lat="41.22091" lon="-8.55852">
        <ele>57.4</ele>
        <time>2021-03-20 12:10:17</time>
      </trkpt>
      <trkpt lat="41.22097" lon="-8.5585">
        <ele>57.6</ele>
        <time>2021-03-20 12:10:18</time>
      </trkpt>
      <trkpt lat="41.22104" lon="-8.55847">
        <ele>57.8</ele>
        <time>2021-03-20 12:10:19</time>
      </trkpt>
      <trkpt lat="41.2211" lon="-8.55847">
        <ele>58</ele>
        <time>2021-03-20 12:10:20</time>
      </trkpt>
      <trkpt lat="41.22117" lon="-8.55844">
        <ele>58.2</ele>
        <time>2021-03-20 12:10:21</time>
      </trkpt>
      <trkpt lat="41.22122" lon="-8.55841">
        <ele>58.2</ele>
        <time>2021-03-20 12:10:22</time>
      </trkpt>
      <trkpt lat="41.22129" lon="-8.55837">
        <ele>58</ele>
        <time>2021-03-20 12:10:23</time>
      </trkpt>
      <trkpt lat="41.22135" lon="-8.55833">
        <ele>57.8</ele>
        <time>2021-03-20 12:10:24</time>
      </trkpt>
      <trkpt lat="41.22139" lon="-8.55829">
        <ele>57.4</ele>
        <time>2021-03-20 12:10:25</time>
      </trkpt>
      <trkpt lat="41.22144" lon="-8.55824">
        <ele>57.4</ele>
        <time>2021-03-20 12:10:26</time>
      </trkpt>
      <trkpt lat="41.22149" lon="-8.55818">
        <ele>57.2</ele>
        <time>2021-03-20 12:10:27</time>
      </trkpt>
      <trkpt lat="41.22153" lon="-8.55813">
        <ele>56.8</ele>
        <time>2021-03-20 12:10:28</time>
      </trkpt>
      <trkpt lat="41.22157" lon="-8.55807">
        <ele>56.8</ele>
        <time>2021-03-20 12:10:29</time>
      </trkpt>
      <trkpt lat="41.22159" lon="-8.55803">
        <ele>56</ele>
        <time>2021-03-20 12:10:30</time>
      </trkpt>
      <trkpt lat="41.22163" lon="-8.55798">
        <ele>55.4</ele>
        <time>2021-03-20 12:10:31</time>
      </trkpt>
      <trkpt lat="41.22165" lon="-8.55792">
        <ele>54.8</ele>
        <time>2021-03-20 12:10:32</time>
      </trkpt>
      <trkpt lat="41.22168" lon="-8.55786">
        <ele>54.6</ele>
        <time>2021-03-20 12:10:33</time>
      </trkpt>
      <trkpt lat="41.22171" lon="-8.5578">
        <ele>54.6</ele>
        <time>2021-03-20 12:10:34</time>
      </trkpt>
      <trkpt lat="41.22173" lon="-8.55776">
        <ele>54.6</ele>
        <time>2021-03-20 12:10:35</time>
      </trkpt>
      <trkpt lat="41.22175" lon="-8.5577">
        <ele>54.4</ele>
        <time>2021-03-20 12:10:36</time>
      </trkpt>
      <trkpt lat="41.22178" lon="-8.55764">
        <ele>54.4</ele>
        <time>2021-03-20 12:10:37</time>
      </trkpt>
      <trkpt lat="41.22181" lon="-8.55757">
        <ele>54.4</ele>
        <time>2021-03-20 12:10:38</time>
      </trkpt>
      <trkpt lat="41.22183" lon="-8.5575">
        <ele>54.2</ele>
        <time>2021-03-20 12:10:39</time>
      </trkpt>
      <trkpt lat="41.22186" lon="-8.55744">
        <ele>54</ele>
        <time>2021-03-20 12:10:40</time>
      </trkpt>
      <trkpt lat="41.22187" lon="-8.55739">
        <ele>54</ele>
        <time>2021-03-20 12:10:41</time>
      </trkpt>
      <trkpt lat="41.22189" lon="-8.55734">
        <ele>54</ele>
        <time>2021-03-20 12:10:42</time>
      </trkpt>
      <trkpt lat="41.22192" lon="-8.55729">
        <ele>53.8</ele>
        <time>2021-03-20 12:10:43</time>
      </trkpt>
      <trkpt lat="41.22194" lon="-8.55724">
        <ele>53.6</ele>
        <time>2021-03-20 12:10:44</time>
      </trkpt>
      <trkpt lat="41.22196" lon="-8.5572">
        <ele>53.2</ele>
        <time>2021-03-20 12:10:45</time>
      </trkpt>
      <trkpt lat="41.22198" lon="-8.55715">
        <ele>52.8</ele>
        <time>2021-03-20 12:10:46</time>
      </trkpt>
      <trkpt lat="41.22201" lon="-8.5571">
        <ele>52.4</ele>
        <time>2021-03-20 12:10:47</time>
      </trkpt>
      <trkpt lat="41.22204" lon="-8.55705">
        <ele>52.2</ele>
        <time>2021-03-20 12:10:48</time>
      </trkpt>
      <trkpt lat="41.22209" lon="-8.557">
        <ele>52</ele>
        <time>2021-03-20 12:10:49</time>
      </trkpt>
      <trkpt lat="41.22214" lon="-8.55697">
        <ele>51.8</ele>
        <time>2021-03-20 12:10:50</time>
      </trkpt>
      <trkpt lat="41.22219" lon="-8.55693">
        <ele>51.8</ele>
        <time>2021-03-20 12:10:51</time>
      </trkpt>
      <trkpt lat="41.22222" lon="-8.5569">
        <ele>51.6</ele>
        <time>2021-03-20 12:10:52</time>
      </trkpt>
      <trkpt lat="41.22226" lon="-8.55686">
        <ele>51.2</ele>
        <time>2021-03-20 12:10:53</time>
      </trkpt>
      <trkpt lat="41.22232" lon="-8.55683">
        <ele>51.2</ele>
        <time>2021-03-20 12:10:54</time>
      </trkpt>
      <trkpt lat="41.22238" lon="-8.5568">
        <ele>51</ele>
        <time>2021-03-20 12:10:55</time>
      </trkpt>
      <trkpt lat="41.22242" lon="-8.55679">
        <ele>51</ele>
        <time>2021-03-20 12:10:56</time>
      </trkpt>
      <trkpt lat="41.22248" lon="-8.55675">
        <ele>51</ele>
        <time>2021-03-20 12:10:57</time>
      </trkpt>
      <trkpt lat="41.22255" lon="-8.5567">
        <ele>50.8</ele>
        <time>2021-03-20 12:10:58</time>
      </trkpt>
      <trkpt lat="41.22261" lon="-8.55666">
        <ele>50.4</ele>
        <time>2021-03-20 12:10:59</time>
      </trkpt>
      <trkpt lat="41.22266" lon="-8.55663">
        <ele>50.6</ele>
        <time>2021-03-20 12:11:00</time>
      </trkpt>
      <trkpt lat="41.22272" lon="-8.55659">
        <ele>50.4</ele>
        <time>2021-03-20 12:11:01</time>
      </trkpt>
      <trkpt lat="41.22276" lon="-8.55658">
        <ele>50.2</ele>
        <time>2021-03-20 12:11:02</time>
      </trkpt>
      <trkpt lat="41.22282" lon="-8.55654">
        <ele>50.4</ele>
        <time>2021-03-20 12:11:03</time>
      </trkpt>
      <trkpt lat="41.22287" lon="-8.55649">
        <ele>50.8</ele>
        <time>2021-03-20 12:11:04</time>
      </trkpt>
      <trkpt lat="41.22293" lon="-8.55644">
        <ele>50.6</ele>
        <time>2021-03-20 12:11:05</time>
      </trkpt>
      <trkpt lat="41.22301" lon="-8.5564">
        <ele>50.8</ele>
        <time>2021-03-20 12:11:06</time>
      </trkpt>
      <trkpt lat="41.22306" lon="-8.55638">
        <ele>51.8</ele>
        <time>2021-03-20 12:11:07</time>
      </trkpt>
      <trkpt lat="41.22314" lon="-8.55634">
        <ele>51.6</ele>
        <time>2021-03-20 12:11:08</time>
      </trkpt>
      <trkpt lat="41.22321" lon="-8.55629">
        <ele>51.4</ele>
        <time>2021-03-20 12:11:09</time>
      </trkpt>
      <trkpt lat="41.22328" lon="-8.55625">
        <ele>51.4</ele>
        <time>2021-03-20 12:11:10</time>
      </trkpt>
      <trkpt lat="41.22334" lon="-8.55624">
        <ele>51.2</ele>
        <time>2021-03-20 12:11:11</time>
      </trkpt>
      <trkpt lat="41.22342" lon="-8.55616">
        <ele>51.2</ele>
        <time>2021-03-20 12:11:12</time>
      </trkpt>
      <trkpt lat="41.22348" lon="-8.55614">
        <ele>51.2</ele>
        <time>2021-03-20 12:11:13</time>
      </trkpt>
      <trkpt lat="41.22355" lon="-8.5561">
        <ele>51.2</ele>
        <time>2021-03-20 12:11:14</time>
      </trkpt>
      <trkpt lat="41.22362" lon="-8.55607">
        <ele>51.2</ele>
        <time>2021-03-20 12:11:15</time>
      </trkpt>
      <trkpt lat="41.22369" lon="-8.55601">
        <ele>51.2</ele>
        <time>2021-03-20 12:11:16</time>
      </trkpt>
      <trkpt lat="41.22374" lon="-8.55597">
        <ele>51.2</ele>
        <time>2021-03-20 12:11:17</time>
      </trkpt>
      <trkpt lat="41.2238" lon="-8.55594">
        <ele>51.2</ele>
        <time>2021-03-20 12:11:18</time>
      </trkpt>
      <trkpt lat="41.22387" lon="-8.55586">
        <ele>51.4</ele>
        <time>2021-03-20 12:11:19</time>
      </trkpt>
      <trkpt lat="41.22401" lon="-8.55573">
        <ele>51.8</ele>
        <time>2021-03-20 12:11:20</time>
      </trkpt>
      <trkpt lat="41.22426" lon="-8.55546">
        <ele>51.4</ele>
        <time>2021-03-20 12:11:21</time>
      </trkpt>
      <trkpt lat="41.22426" lon="-8.55546">
        <ele>51.2</ele>
        <time>2021-03-20 12:11:22</time>
      </trkpt>
      <trkpt lat="41.22437" lon="-8.55533">
        <ele>51.4</ele>
        <time>2021-03-20 12:11:23</time>
      </trkpt>
      <trkpt lat="41.22444" lon="-8.55527">
        <ele>51.6</ele>
        <time>2021-03-20 12:11:24</time>
      </trkpt>
      <trkpt lat="41.2245" lon="-8.55521">
        <ele>52.4</ele>
        <time>2021-03-20 12:11:25</time>
      </trkpt>
      <trkpt lat="41.2245" lon="-8.55521">
        <ele>52.4</ele>
        <time>2021-03-20 12:11:26</time>
      </trkpt>
      <trkpt lat="41.2246" lon="-8.55508">
        <ele>52.4</ele>
        <time>2021-03-20 12:11:27</time>
      </trkpt>
      <trkpt lat="41.22465" lon="-8.55501">
        <ele>52.6</ele>
        <time>2021-03-20 12:11:28</time>
      </trkpt>
      <trkpt lat="41.22471" lon="-8.55496">
        <ele>52.6</ele>
        <time>2021-03-20 12:11:29</time>
      </trkpt>
      <trkpt lat="41.22477" lon="-8.5549">
        <ele>52.6</ele>
        <time>2021-03-20 12:11:30</time>
      </trkpt>
      <trkpt lat="41.22482" lon="-8.55485">
        <ele>52.8</ele>
        <time>2021-03-20 12:11:31</time>
      </trkpt>
      <trkpt lat="41.22486" lon="-8.55479">
        <ele>52.8</ele>
        <time>2021-03-20 12:11:32</time>
      </trkpt>
      <trkpt lat="41.22491" lon="-8.55474">
        <ele>52.6</ele>
        <time>2021-03-20 12:11:33</time>
      </trkpt>
      <trkpt lat="41.22496" lon="-8.55468">
        <ele>53</ele>
        <time>2021-03-20 12:11:34</time>
      </trkpt>
      <trkpt lat="41.22499" lon="-8.55464">
        <ele>53.2</ele>
        <time>2021-03-20 12:11:35</time>
      </trkpt>
      <trkpt lat="41.22504" lon="-8.55463">
        <ele>53.2</ele>
        <time>2021-03-20 12:11:36</time>
      </trkpt>
      <trkpt lat="41.22509" lon="-8.55456">
        <ele>53.4</ele>
        <time>2021-03-20 12:11:37</time>
      </trkpt>
      <trkpt lat="41.22513" lon="-8.55451">
        <ele>53.4</ele>
        <time>2021-03-20 12:11:38</time>
      </trkpt>
      <trkpt lat="41.22518" lon="-8.55446">
        <ele>53.2</ele>
        <time>2021-03-20 12:11:39</time>
      </trkpt>
      <trkpt lat="41.22524" lon="-8.55441">
        <ele>53.4</ele>
        <time>2021-03-20 12:11:40</time>
      </trkpt>
      <trkpt lat="41.22528" lon="-8.55436">
        <ele>53.4</ele>
        <time>2021-03-20 12:11:41</time>
      </trkpt>
      <trkpt lat="41.22534" lon="-8.5543">
        <ele>53.6</ele>
        <time>2021-03-20 12:11:42</time>
      </trkpt>
      <trkpt lat="41.22538" lon="-8.55427">
        <ele>53.8</ele>
        <time>2021-03-20 12:11:43</time>
      </trkpt>
      <trkpt lat="41.22543" lon="-8.55421">
        <ele>53.8</ele>
        <time>2021-03-20 12:11:44</time>
      </trkpt>
      <trkpt lat="41.22548" lon="-8.55417">
        <ele>53.8</ele>
        <time>2021-03-20 12:11:45</time>
      </trkpt>
      <trkpt lat="41.22553" lon="-8.55412">
        <ele>54</ele>
        <time>2021-03-20 12:11:46</time>
      </trkpt>
      <trkpt lat="41.22559" lon="-8.55408">
        <ele>54</ele>
        <time>2021-03-20 12:11:47</time>
      </trkpt>
      <trkpt lat="41.22563" lon="-8.55406">
        <ele>54.2</ele>
        <time>2021-03-20 12:11:48</time>
      </trkpt>
      <trkpt lat="41.22569" lon="-8.55402">
        <ele>54.2</ele>
        <time>2021-03-20 12:11:49</time>
      </trkpt>
      <trkpt lat="41.22574" lon="-8.554">
        <ele>54.4</ele>
        <time>2021-03-20 12:11:50</time>
      </trkpt>
      <trkpt lat="41.2258" lon="-8.55399">
        <ele>54.6</ele>
        <time>2021-03-20 12:11:51</time>
      </trkpt>
      <trkpt lat="41.22584" lon="-8.55397">
        <ele>54.6</ele>
        <time>2021-03-20 12:11:52</time>
      </trkpt>
      <trkpt lat="41.22588" lon="-8.55396">
        <ele>54.8</ele>
        <time>2021-03-20 12:11:53</time>
      </trkpt>
      <trkpt lat="41.22593" lon="-8.55395">
        <ele>55</ele>
        <time>2021-03-20 12:11:54</time>
      </trkpt>
      <trkpt lat="41.22599" lon="-8.55395">
        <ele>55</ele>
        <time>2021-03-20 12:11:55</time>
      </trkpt>
      <trkpt lat="41.22604" lon="-8.55395">
        <ele>55.2</ele>
        <time>2021-03-20 12:11:56</time>
      </trkpt>
      <trkpt lat="41.22609" lon="-8.55395">
        <ele>55.2</ele>
        <time>2021-03-20 12:11:57</time>
      </trkpt>
      <trkpt lat="41.22613" lon="-8.55393">
        <ele>55.2</ele>
        <time>2021-03-20 12:11:58</time>
      </trkpt>
      <trkpt lat="41.22618" lon="-8.55393">
        <ele>55.2</ele>
        <time>2021-03-20 12:11:59</time>
      </trkpt>
      <trkpt lat="41.22623" lon="-8.55393">
        <ele>55.4</ele>
        <time>2021-03-20 12:12:00</time>
      </trkpt>
      <trkpt lat="41.22629" lon="-8.55393">
        <ele>55.6</ele>
        <time>2021-03-20 12:12:01</time>
      </trkpt>
      <trkpt lat="41.22634" lon="-8.55394">
        <ele>55.8</ele>
        <time>2021-03-20 12:12:02</time>
      </trkpt>
      <trkpt lat="41.22639" lon="-8.55393">
        <ele>56</ele>
        <time>2021-03-20 12:12:03</time>
      </trkpt>
      <trkpt lat="41.22644" lon="-8.55393">
        <ele>55.8</ele>
        <time>2021-03-20 12:12:04</time>
      </trkpt>
      <trkpt lat="41.22649" lon="-8.55394">
        <ele>56</ele>
        <time>2021-03-20 12:12:05</time>
      </trkpt>
      <trkpt lat="41.22655" lon="-8.55394">
        <ele>56</ele>
        <time>2021-03-20 12:12:06</time>
      </trkpt>
      <trkpt lat="41.22659" lon="-8.55394">
        <ele>56</ele>
        <time>2021-03-20 12:12:07</time>
      </trkpt>
      <trkpt lat="41.22665" lon="-8.55394">
        <ele>56.4</ele>
        <time>2021-03-20 12:12:08</time>
      </trkpt>
      <trkpt lat="41.22671" lon="-8.55395">
        <ele>56.4</ele>
        <time>2021-03-20 12:12:09</time>
      </trkpt>
      <trkpt lat="41.22676" lon="-8.55395">
        <ele>56.4</ele>
        <time>2021-03-20 12:12:10</time>
      </trkpt>
      <trkpt lat="41.22682" lon="-8.55396">
        <ele>56.8</ele>
        <time>2021-03-20 12:12:11</time>
      </trkpt>
      <trkpt lat="41.22685" lon="-8.55396">
        <ele>56.8</ele>
        <time>2021-03-20 12:12:12</time>
      </trkpt>
      <trkpt lat="41.22691" lon="-8.55397">
        <ele>57</ele>
        <time>2021-03-20 12:12:13</time>
      </trkpt>
      <trkpt lat="41.22697" lon="-8.55397">
        <ele>57.2</ele>
        <time>2021-03-20 12:12:14</time>
      </trkpt>
      <trkpt lat="41.22713" lon="-8.55398">
        <ele>57.2</ele>
        <time>2021-03-20 12:12:15</time>
      </trkpt>
      <trkpt lat="41.22719" lon="-8.55398">
        <ele>57.4</ele>
        <time>2021-03-20 12:12:16</time>
      </trkpt>
      <trkpt lat="41.22725" lon="-8.55398">
        <ele>57.4</ele>
        <time>2021-03-20 12:12:17</time>
      </trkpt>
      <trkpt lat="41.2273" lon="-8.55399">
        <ele>57.6</ele>
        <time>2021-03-20 12:12:18</time>
      </trkpt>
      <trkpt lat="41.22734" lon="-8.554">
        <ele>57.6</ele>
        <time>2021-03-20 12:12:19</time>
      </trkpt>
      <trkpt lat="41.22741" lon="-8.554">
        <ele>57.8</ele>
        <time>2021-03-20 12:12:20</time>
      </trkpt>
      <trkpt lat="41.22747" lon="-8.554">
        <ele>58</ele>
        <time>2021-03-20 12:12:21</time>
      </trkpt>
      <trkpt lat="41.2275" lon="-8.554">
        <ele>58</ele>
        <time>2021-03-20 12:12:22</time>
      </trkpt>
      <trkpt lat="41.22756" lon="-8.554">
        <ele>58.2</ele>
        <time>2021-03-20 12:12:23</time>
      </trkpt>
      <trkpt lat="41.22762" lon="-8.55401">
        <ele>58.4</ele>
        <time>2021-03-20 12:12:24</time>
      </trkpt>
      <trkpt lat="41.22768" lon="-8.55401">
        <ele>58.2</ele>
        <time>2021-03-20 12:12:25</time>
      </trkpt>
      <trkpt lat="41.22772" lon="-8.55401">
        <ele>58.6</ele>
        <time>2021-03-20 12:12:26</time>
      </trkpt>
      <trkpt lat="41.22777" lon="-8.55402">
        <ele>58.8</ele>
        <time>2021-03-20 12:12:27</time>
      </trkpt>
      <trkpt lat="41.22782" lon="-8.55403">
        <ele>59</ele>
        <time>2021-03-20 12:12:28</time>
      </trkpt>
      <trkpt lat="41.22787" lon="-8.55403">
        <ele>59</ele>
        <time>2021-03-20 12:12:29</time>
      </trkpt>
      <trkpt lat="41.22792" lon="-8.55402">
        <ele>59.2</ele>
        <time>2021-03-20 12:12:30</time>
      </trkpt>
      <trkpt lat="41.22798" lon="-8.55403">
        <ele>59.2</ele>
        <time>2021-03-20 12:12:31</time>
      </trkpt>
      <trkpt lat="41.22803" lon="-8.55403">
        <ele>59.2</ele>
        <time>2021-03-20 12:12:32</time>
      </trkpt>
      <trkpt lat="41.22808" lon="-8.55403">
        <ele>59.2</ele>
        <time>2021-03-20 12:12:33</time>
      </trkpt>
      <trkpt lat="41.22812" lon="-8.55402">
        <ele>59.4</ele>
        <time>2021-03-20 12:12:34</time>
      </trkpt>
      <trkpt lat="41.22818" lon="-8.55403">
        <ele>59.6</ele>
        <time>2021-03-20 12:12:35</time>
      </trkpt>
      <trkpt lat="41.22824" lon="-8.55403">
        <ele>59.8</ele>
        <time>2021-03-20 12:12:36</time>
      </trkpt>
      <trkpt lat="41.22831" lon="-8.55404">
        <ele>59.8</ele>
        <time>2021-03-20 12:12:37</time>
      </trkpt>
      <trkpt lat="41.22842" lon="-8.55404">
        <ele>60</ele>
        <time>2021-03-20 12:12:38</time>
      </trkpt>
      <trkpt lat="41.22847" lon="-8.55405">
        <ele>60.2</ele>
        <time>2021-03-20 12:12:39</time>
      </trkpt>
      <trkpt lat="41.22853" lon="-8.55405">
        <ele>60.6</ele>
        <time>2021-03-20 12:12:40</time>
      </trkpt>
      <trkpt lat="41.22859" lon="-8.55406">
        <ele>60.8</ele>
        <time>2021-03-20 12:12:41</time>
      </trkpt>
      <trkpt lat="41.22864" lon="-8.55406">
        <ele>61</ele>
        <time>2021-03-20 12:12:42</time>
      </trkpt>
      <trkpt lat="41.2287" lon="-8.55407">
        <ele>61.2</ele>
        <time>2021-03-20 12:12:43</time>
      </trkpt>
      <trkpt lat="41.22876" lon="-8.55407">
        <ele>61.2</ele>
        <time>2021-03-20 12:12:44</time>
      </trkpt>
      <trkpt lat="41.22881" lon="-8.55408">
        <ele>61.4</ele>
        <time>2021-03-20 12:12:45</time>
      </trkpt>
      <trkpt lat="41.22886" lon="-8.55408">
        <ele>61.6</ele>
        <time>2021-03-20 12:12:46</time>
      </trkpt>
      <trkpt lat="41.22891" lon="-8.55409">
        <ele>61.6</ele>
        <time>2021-03-20 12:12:47</time>
      </trkpt>
      <trkpt lat="41.22896" lon="-8.5541">
        <ele>61.8</ele>
        <time>2021-03-20 12:12:48</time>
      </trkpt>
      <trkpt lat="41.22901" lon="-8.5541">
        <ele>62</ele>
        <time>2021-03-20 12:12:49</time>
      </trkpt>
      <trkpt lat="41.22907" lon="-8.55411">
        <ele>62.4</ele>
        <time>2021-03-20 12:12:50</time>
      </trkpt>
      <trkpt lat="41.22913" lon="-8.55411">
        <ele>62.6</ele>
        <time>2021-03-20 12:12:51</time>
      </trkpt>
      <trkpt lat="41.22918" lon="-8.55412">
        <ele>63</ele>
        <time>2021-03-20 12:12:52</time>
      </trkpt>
      <trkpt lat="41.22924" lon="-8.55412">
        <ele>63</ele>
        <time>2021-03-20 12:12:53</time>
      </trkpt>
      <trkpt lat="41.22928" lon="-8.55413">
        <ele>63</ele>
        <time>2021-03-20 12:12:54</time>
      </trkpt>
      <trkpt lat="41.22932" lon="-8.55413">
        <ele>63.4</ele>
        <time>2021-03-20 12:12:55</time>
      </trkpt>
      <trkpt lat="41.22937" lon="-8.55413">
        <ele>63.6</ele>
        <time>2021-03-20 12:12:56</time>
      </trkpt>
      <trkpt lat="41.22943" lon="-8.55413">
        <ele>63.8</ele>
        <time>2021-03-20 12:12:57</time>
      </trkpt>
      <trkpt lat="41.22949" lon="-8.55414">
        <ele>64</ele>
        <time>2021-03-20 12:12:58</time>
      </trkpt>
      <trkpt lat="41.22954" lon="-8.55414">
        <ele>64.4</ele>
        <time>2021-03-20 12:12:59</time>
      </trkpt>
      <trkpt lat="41.2296" lon="-8.55415">
        <ele>64.6</ele>
        <time>2021-03-20 12:13:00</time>
      </trkpt>
      <trkpt lat="41.22966" lon="-8.55416">
        <ele>64.6</ele>
        <time>2021-03-20 12:13:01</time>
      </trkpt>
      <trkpt lat="41.22971" lon="-8.55417">
        <ele>64.6</ele>
        <time>2021-03-20 12:13:02</time>
      </trkpt>
      <trkpt lat="41.22977" lon="-8.55417">
        <ele>64.8</ele>
        <time>2021-03-20 12:13:03</time>
      </trkpt>
      <trkpt lat="41.22984" lon="-8.55418">
        <ele>65.2</ele>
        <time>2021-03-20 12:13:04</time>
      </trkpt>
      <trkpt lat="41.22989" lon="-8.55418">
        <ele>65.4</ele>
        <time>2021-03-20 12:13:05</time>
      </trkpt>
      <trkpt lat="41.22994" lon="-8.55419">
        <ele>65.8</ele>
        <time>2021-03-20 12:13:06</time>
      </trkpt>
      <trkpt lat="41.23" lon="-8.5542">
        <ele>66</ele>
        <time>2021-03-20 12:13:07</time>
      </trkpt>
      <trkpt lat="41.23006" lon="-8.55421">
        <ele>66.4</ele>
        <time>2021-03-20 12:13:08</time>
      </trkpt>
      <trkpt lat="41.23012" lon="-8.55421">
        <ele>66.6</ele>
        <time>2021-03-20 12:13:09</time>
      </trkpt>
      <trkpt lat="41.23017" lon="-8.55421">
        <ele>66.6</ele>
        <time>2021-03-20 12:13:10</time>
      </trkpt>
      <trkpt lat="41.23023" lon="-8.55422">
        <ele>66.8</ele>
        <time>2021-03-20 12:13:11</time>
      </trkpt>
      <trkpt lat="41.23029" lon="-8.55422">
        <ele>67</ele>
        <time>2021-03-20 12:13:12</time>
      </trkpt>
      <trkpt lat="41.23034" lon="-8.55422">
        <ele>67.4</ele>
        <time>2021-03-20 12:13:13</time>
      </trkpt>
      <trkpt lat="41.23038" lon="-8.55423">
        <ele>67.6</ele>
        <time>2021-03-20 12:13:14</time>
      </trkpt>
      <trkpt lat="41.23044" lon="-8.55423">
        <ele>67.8</ele>
        <time>2021-03-20 12:13:15</time>
      </trkpt>
      <trkpt lat="41.23049" lon="-8.55423">
        <ele>68.2</ele>
        <time>2021-03-20 12:13:16</time>
      </trkpt>
      <trkpt lat="41.23055" lon="-8.55422">
        <ele>68.2</ele>
        <time>2021-03-20 12:13:17</time>
      </trkpt>
      <trkpt lat="41.2306" lon="-8.55422">
        <ele>68.6</ele>
        <time>2021-03-20 12:13:18</time>
      </trkpt>
      <trkpt lat="41.23064" lon="-8.55422">
        <ele>68.8</ele>
        <time>2021-03-20 12:13:19</time>
      </trkpt>
      <trkpt lat="41.23069" lon="-8.55421">
        <ele>69</ele>
        <time>2021-03-20 12:13:20</time>
      </trkpt>
      <trkpt lat="41.23074" lon="-8.55421">
        <ele>68.8</ele>
        <time>2021-03-20 12:13:21</time>
      </trkpt>
      <trkpt lat="41.23078" lon="-8.5542">
        <ele>68.8</ele>
        <time>2021-03-20 12:13:22</time>
      </trkpt>
      <trkpt lat="41.23083" lon="-8.55419">
        <ele>69</ele>
        <time>2021-03-20 12:13:23</time>
      </trkpt>
      <trkpt lat="41.23087" lon="-8.55418">
        <ele>69.6</ele>
        <time>2021-03-20 12:13:24</time>
      </trkpt>
      <trkpt lat="41.23092" lon="-8.55417">
        <ele>70</ele>
        <time>2021-03-20 12:13:25</time>
      </trkpt>
      <trkpt lat="41.23095" lon="-8.55416">
        <ele>70.2</ele>
        <time>2021-03-20 12:13:26</time>
      </trkpt>
      <trkpt lat="41.231" lon="-8.55415">
        <ele>70.4</ele>
        <time>2021-03-20 12:13:27</time>
      </trkpt>
      <trkpt lat="41.23105" lon="-8.55414">
        <ele>70.6</ele>
        <time>2021-03-20 12:13:28</time>
      </trkpt>
      <trkpt lat="41.23109" lon="-8.55412">
        <ele>71</ele>
        <time>2021-03-20 12:13:29</time>
      </trkpt>
      <trkpt lat="41.23112" lon="-8.55411">
        <ele>71</ele>
        <time>2021-03-20 12:13:30</time>
      </trkpt>
      <trkpt lat="41.23117" lon="-8.55409">
        <ele>71.2</ele>
        <time>2021-03-20 12:13:31</time>
      </trkpt>
      <trkpt lat="41.23121" lon="-8.55407">
        <ele>71.4</ele>
        <time>2021-03-20 12:13:32</time>
      </trkpt>
      <trkpt lat="41.23126" lon="-8.55405">
        <ele>71.4</ele>
        <time>2021-03-20 12:13:33</time>
      </trkpt>
      <trkpt lat="41.23129" lon="-8.55404">
        <ele>71.4</ele>
        <time>2021-03-20 12:13:34</time>
      </trkpt>
      <trkpt lat="41.23134" lon="-8.55402">
        <ele>72</ele>
        <time>2021-03-20 12:13:35</time>
      </trkpt>
      <trkpt lat="41.23138" lon="-8.554">
        <ele>72</ele>
        <time>2021-03-20 12:13:36</time>
      </trkpt>
      <trkpt lat="41.23142" lon="-8.55398">
        <ele>72.6</ele>
        <time>2021-03-20 12:13:37</time>
      </trkpt>
      <trkpt lat="41.23146" lon="-8.55396">
        <ele>72.6</ele>
        <time>2021-03-20 12:13:38</time>
      </trkpt>
      <trkpt lat="41.2315" lon="-8.55394">
        <ele>72.8</ele>
        <time>2021-03-20 12:13:39</time>
      </trkpt>
      <trkpt lat="41.23154" lon="-8.55391">
        <ele>73</ele>
        <time>2021-03-20 12:13:40</time>
      </trkpt>
      <trkpt lat="41.23159" lon="-8.55389">
        <ele>73</ele>
        <time>2021-03-20 12:13:41</time>
      </trkpt>
      <trkpt lat="41.23162" lon="-8.55387">
        <ele>73.2</ele>
        <time>2021-03-20 12:13:42</time>
      </trkpt>
      <trkpt lat="41.23166" lon="-8.55385">
        <ele>73.2</ele>
        <time>2021-03-20 12:13:43</time>
      </trkpt>
      <trkpt lat="41.2317" lon="-8.55382">
        <ele>73.2</ele>
        <time>2021-03-20 12:13:44</time>
      </trkpt>
      <trkpt lat="41.23173" lon="-8.5538">
        <ele>73.4</ele>
        <time>2021-03-20 12:13:45</time>
      </trkpt>
      <trkpt lat="41.23176" lon="-8.55378">
        <ele>73.4</ele>
        <time>2021-03-20 12:13:46</time>
      </trkpt>
      <trkpt lat="41.2318" lon="-8.55375">
        <ele>73.2</ele>
        <time>2021-03-20 12:13:47</time>
      </trkpt>
      <trkpt lat="41.23184" lon="-8.55372">
        <ele>73.6</ele>
        <time>2021-03-20 12:13:48</time>
      </trkpt>
      <trkpt lat="41.23187" lon="-8.55369">
        <ele>73.4</ele>
        <time>2021-03-20 12:13:49</time>
      </trkpt>
      <trkpt lat="41.23189" lon="-8.55367">
        <ele>73.4</ele>
        <time>2021-03-20 12:13:50</time>
      </trkpt>
      <trkpt lat="41.23192" lon="-8.55364">
        <ele>73.6</ele>
        <time>2021-03-20 12:13:51</time>
      </trkpt>
      <trkpt lat="41.23196" lon="-8.55361">
        <ele>73.6</ele>
        <time>2021-03-20 12:13:52</time>
      </trkpt>
      <trkpt lat="41.23199" lon="-8.55358">
        <ele>73.4</ele>
        <time>2021-03-20 12:13:53</time>
      </trkpt>
      <trkpt lat="41.23202" lon="-8.55355">
        <ele>73.4</ele>
        <time>2021-03-20 12:13:54</time>
      </trkpt>
      <trkpt lat="41.23206" lon="-8.55352">
        <ele>73.6</ele>
        <time>2021-03-20 12:13:55</time>
      </trkpt>
      <trkpt lat="41.23209" lon="-8.55348">
        <ele>73.2</ele>
        <time>2021-03-20 12:13:56</time>
      </trkpt>
      <trkpt lat="41.23212" lon="-8.55345">
        <ele>73.4</ele>
        <time>2021-03-20 12:13:57</time>
      </trkpt>
      <trkpt lat="41.23215" lon="-8.55342">
        <ele>74</ele>
        <time>2021-03-20 12:13:58</time>
      </trkpt>
      <trkpt lat="41.23218" lon="-8.55338">
        <ele>74.2</ele>
        <time>2021-03-20 12:13:59</time>
      </trkpt>
      <trkpt lat="41.23221" lon="-8.55335">
        <ele>74.2</ele>
        <time>2021-03-20 12:14:00</time>
      </trkpt>
      <trkpt lat="41.23224" lon="-8.55331">
        <ele>74.2</ele>
        <time>2021-03-20 12:14:01</time>
      </trkpt>
      <trkpt lat="41.23227" lon="-8.55327">
        <ele>74.4</ele>
        <time>2021-03-20 12:14:02</time>
      </trkpt>
      <trkpt lat="41.2323" lon="-8.55323">
        <ele>74.4</ele>
        <time>2021-03-20 12:14:03</time>
      </trkpt>
      <trkpt lat="41.23233" lon="-8.55319">
        <ele>74.4</ele>
        <time>2021-03-20 12:14:04</time>
      </trkpt>
      <trkpt lat="41.23235" lon="-8.55316">
        <ele>74.6</ele>
        <time>2021-03-20 12:14:05</time>
      </trkpt>
      <trkpt lat="41.23238" lon="-8.55312">
        <ele>74.4</ele>
        <time>2021-03-20 12:14:06</time>
      </trkpt>
      <trkpt lat="41.23241" lon="-8.55308">
        <ele>74.4</ele>
        <time>2021-03-20 12:14:07</time>
      </trkpt>
      <trkpt lat="41.23244" lon="-8.55303">
        <ele>74.6</ele>
        <time>2021-03-20 12:14:08</time>
      </trkpt>
      <trkpt lat="41.23247" lon="-8.55299">
        <ele>74.4</ele>
        <time>2021-03-20 12:14:09</time>
      </trkpt>
      <trkpt lat="41.23249" lon="-8.55295">
        <ele>74.6</ele>
        <time>2021-03-20 12:14:10</time>
      </trkpt>
      <trkpt lat="41.23252" lon="-8.55291">
        <ele>74.6</ele>
        <time>2021-03-20 12:14:11</time>
      </trkpt>
      <trkpt lat="41.23255" lon="-8.55286">
        <ele>74.6</ele>
        <time>2021-03-20 12:14:12</time>
      </trkpt>
      <trkpt lat="41.23258" lon="-8.55282">
        <ele>74.8</ele>
        <time>2021-03-20 12:14:13</time>
      </trkpt>
      <trkpt lat="41.2326" lon="-8.55278">
        <ele>75</ele>
        <time>2021-03-20 12:14:14</time>
      </trkpt>
      <trkpt lat="41.23263" lon="-8.55273">
        <ele>75</ele>
        <time>2021-03-20 12:14:15</time>
      </trkpt>
      <trkpt lat="41.23266" lon="-8.55268">
        <ele>75.4</ele>
        <time>2021-03-20 12:14:16</time>
      </trkpt>
      <trkpt lat="41.23268" lon="-8.55262">
        <ele>75.2</ele>
        <time>2021-03-20 12:14:17</time>
      </trkpt>
      <trkpt lat="41.2327" lon="-8.55258">
        <ele>75.4</ele>
        <time>2021-03-20 12:14:18</time>
      </trkpt>
      <trkpt lat="41.23273" lon="-8.55253">
        <ele>75.6</ele>
        <time>2021-03-20 12:14:19</time>
      </trkpt>
      <trkpt lat="41.23275" lon="-8.55248">
        <ele>75.6</ele>
        <time>2021-03-20 12:14:20</time>
      </trkpt>
      <trkpt lat="41.23278" lon="-8.55243">
        <ele>75.6</ele>
        <time>2021-03-20 12:14:21</time>
      </trkpt>
      <trkpt lat="41.2328" lon="-8.55238">
        <ele>75.6</ele>
        <time>2021-03-20 12:14:22</time>
      </trkpt>
      <trkpt lat="41.23282" lon="-8.55232">
        <ele>75.6</ele>
        <time>2021-03-20 12:14:23</time>
      </trkpt>
      <trkpt lat="41.23283" lon="-8.55227">
        <ele>75.6</ele>
        <time>2021-03-20 12:14:24</time>
      </trkpt>
      <trkpt lat="41.23285" lon="-8.55222">
        <ele>75.8</ele>
        <time>2021-03-20 12:14:25</time>
      </trkpt>
      <trkpt lat="41.23287" lon="-8.55217">
        <ele>75.8</ele>
        <time>2021-03-20 12:14:26</time>
      </trkpt>
      <trkpt lat="41.23289" lon="-8.55212">
        <ele>76</ele>
        <time>2021-03-20 12:14:27</time>
      </trkpt>
      <trkpt lat="41.23291" lon="-8.55206">
        <ele>75.8</ele>
        <time>2021-03-20 12:14:28</time>
      </trkpt>
      <trkpt lat="41.23292" lon="-8.552">
        <ele>76</ele>
        <time>2021-03-20 12:14:29</time>
      </trkpt>
      <trkpt lat="41.23294" lon="-8.55194">
        <ele>76.2</ele>
        <time>2021-03-20 12:14:30</time>
      </trkpt>
      <trkpt lat="41.23295" lon="-8.5519">
        <ele>76.2</ele>
        <time>2021-03-20 12:14:31</time>
      </trkpt>
      <trkpt lat="41.23297" lon="-8.55184">
        <ele>76.6</ele>
        <time>2021-03-20 12:14:32</time>
      </trkpt>
      <trkpt lat="41.23299" lon="-8.55178">
        <ele>76.6</ele>
        <time>2021-03-20 12:14:33</time>
      </trkpt>
      <trkpt lat="41.233" lon="-8.55172">
        <ele>76.6</ele>
        <time>2021-03-20 12:14:34</time>
      </trkpt>
      <trkpt lat="41.23301" lon="-8.55167">
        <ele>76.8</ele>
        <time>2021-03-20 12:14:35</time>
      </trkpt>
      <trkpt lat="41.23303" lon="-8.55161">
        <ele>76.6</ele>
        <time>2021-03-20 12:14:36</time>
      </trkpt>
      <trkpt lat="41.23304" lon="-8.55154">
        <ele>76.6</ele>
        <time>2021-03-20 12:14:37</time>
      </trkpt>
      <trkpt lat="41.23305" lon="-8.55148">
        <ele>76.8</ele>
        <time>2021-03-20 12:14:38</time>
      </trkpt>
      <trkpt lat="41.23306" lon="-8.55142">
        <ele>77</ele>
        <time>2021-03-20 12:14:39</time>
      </trkpt>
      <trkpt lat="41.23306" lon="-8.55137">
        <ele>76.8</ele>
        <time>2021-03-20 12:14:40</time>
      </trkpt>
      <trkpt lat="41.23307" lon="-8.5513">
        <ele>77.2</ele>
        <time>2021-03-20 12:14:41</time>
      </trkpt>
      <trkpt lat="41.23308" lon="-8.55124">
        <ele>77.4</ele>
        <time>2021-03-20 12:14:42</time>
      </trkpt>
      <trkpt lat="41.23309" lon="-8.55118">
        <ele>77.2</ele>
        <time>2021-03-20 12:14:43</time>
      </trkpt>
      <trkpt lat="41.23309" lon="-8.55112">
        <ele>77.2</ele>
        <time>2021-03-20 12:14:44</time>
      </trkpt>
      <trkpt lat="41.2331" lon="-8.55106">
        <ele>77</ele>
        <time>2021-03-20 12:14:45</time>
      </trkpt>
      <trkpt lat="41.2331" lon="-8.55102">
        <ele>77.4</ele>
        <time>2021-03-20 12:14:46</time>
      </trkpt>
      <trkpt lat="41.23311" lon="-8.55094">
        <ele>77.6</ele>
        <time>2021-03-20 12:14:47</time>
      </trkpt>
      <trkpt lat="41.23311" lon="-8.55089">
        <ele>77.6</ele>
        <time>2021-03-20 12:14:48</time>
      </trkpt>
      <trkpt lat="41.23311" lon="-8.55082">
        <ele>77.6</ele>
        <time>2021-03-20 12:14:49</time>
      </trkpt>
      <trkpt lat="41.23312" lon="-8.55075">
        <ele>77.6</ele>
        <time>2021-03-20 12:14:50</time>
      </trkpt>
      <trkpt lat="41.23312" lon="-8.5507">
        <ele>77.6</ele>
        <time>2021-03-20 12:14:51</time>
      </trkpt>
      <trkpt lat="41.23312" lon="-8.55064">
        <ele>77.6</ele>
        <time>2021-03-20 12:14:52</time>
      </trkpt>
      <trkpt lat="41.23312" lon="-8.55058">
        <ele>77.8</ele>
        <time>2021-03-20 12:14:53</time>
      </trkpt>
      <trkpt lat="41.23313" lon="-8.55051">
        <ele>77.8</ele>
        <time>2021-03-20 12:14:54</time>
      </trkpt>
      <trkpt lat="41.23313" lon="-8.55044">
        <ele>78</ele>
        <time>2021-03-20 12:14:55</time>
      </trkpt>
      <trkpt lat="41.23312" lon="-8.55037">
        <ele>78</ele>
        <time>2021-03-20 12:14:56</time>
      </trkpt>
      <trkpt lat="41.23311" lon="-8.55031">
        <ele>78.2</ele>
        <time>2021-03-20 12:14:57</time>
      </trkpt>
      <trkpt lat="41.23311" lon="-8.55026">
        <ele>78.4</ele>
        <time>2021-03-20 12:14:58</time>
      </trkpt>
      <trkpt lat="41.23311" lon="-8.5502">
        <ele>78.4</ele>
        <time>2021-03-20 12:14:59</time>
      </trkpt>
      <trkpt lat="41.2331" lon="-8.55014">
        <ele>78.2</ele>
        <time>2021-03-20 12:15:00</time>
      </trkpt>
      <trkpt lat="41.23309" lon="-8.55008">
        <ele>78.6</ele>
        <time>2021-03-20 12:15:01</time>
      </trkpt>
      <trkpt lat="41.23308" lon="-8.55">
        <ele>78.8</ele>
        <time>2021-03-20 12:15:02</time>
      </trkpt>
      <trkpt lat="41.23308" lon="-8.54994">
        <ele>78.8</ele>
        <time>2021-03-20 12:15:03</time>
      </trkpt>
      <trkpt lat="41.23307" lon="-8.54987">
        <ele>79</ele>
        <time>2021-03-20 12:15:04</time>
      </trkpt>
      <trkpt lat="41.23306" lon="-8.54981">
        <ele>79</ele>
        <time>2021-03-20 12:15:05</time>
      </trkpt>
      <trkpt lat="41.23305" lon="-8.54975">
        <ele>79.4</ele>
        <time>2021-03-20 12:15:06</time>
      </trkpt>
      <trkpt lat="41.23304" lon="-8.54969">
        <ele>79.4</ele>
        <time>2021-03-20 12:15:07</time>
      </trkpt>
      <trkpt lat="41.23303" lon="-8.54962">
        <ele>79.8</ele>
        <time>2021-03-20 12:15:08</time>
      </trkpt>
      <trkpt lat="41.23302" lon="-8.54956">
        <ele>79.8</ele>
        <time>2021-03-20 12:15:09</time>
      </trkpt>
      <trkpt lat="41.23302" lon="-8.5495">
        <ele>79.8</ele>
        <time>2021-03-20 12:15:10</time>
      </trkpt>
      <trkpt lat="41.233" lon="-8.54943">
        <ele>80</ele>
        <time>2021-03-20 12:15:11</time>
      </trkpt>
      <trkpt lat="41.233" lon="-8.54937">
        <ele>80.2</ele>
        <time>2021-03-20 12:15:12</time>
      </trkpt>
      <trkpt lat="41.23299" lon="-8.54933">
        <ele>80.4</ele>
        <time>2021-03-20 12:15:13</time>
      </trkpt>
      <trkpt lat="41.23298" lon="-8.54927">
        <ele>80.6</ele>
        <time>2021-03-20 12:15:14</time>
      </trkpt>
      <trkpt lat="41.23298" lon="-8.54919">
        <ele>80.8</ele>
        <time>2021-03-20 12:15:15</time>
      </trkpt>
      <trkpt lat="41.23296" lon="-8.54911">
        <ele>80.8</ele>
        <time>2021-03-20 12:15:16</time>
      </trkpt>
      <trkpt lat="41.23295" lon="-8.54908">
        <ele>81</ele>
        <time>2021-03-20 12:15:17</time>
      </trkpt>
      <trkpt lat="41.23295" lon="-8.54899">
        <ele>81.2</ele>
        <time>2021-03-20 12:15:18</time>
      </trkpt>
      <trkpt lat="41.23294" lon="-8.54894">
        <ele>81.4</ele>
        <time>2021-03-20 12:15:19</time>
      </trkpt>
      <trkpt lat="41.23293" lon="-8.54889">
        <ele>81.6</ele>
        <time>2021-03-20 12:15:20</time>
      </trkpt>
      <trkpt lat="41.23292" lon="-8.54881">
        <ele>81.6</ele>
        <time>2021-03-20 12:15:21</time>
      </trkpt>
      <trkpt lat="41.23291" lon="-8.54875">
        <ele>81.6</ele>
        <time>2021-03-20 12:15:22</time>
      </trkpt>
      <trkpt lat="41.23291" lon="-8.54871">
        <ele>81.8</ele>
        <time>2021-03-20 12:15:23</time>
      </trkpt>
      <trkpt lat="41.2329" lon="-8.54864">
        <ele>82.2</ele>
        <time>2021-03-20 12:15:24</time>
      </trkpt>
      <trkpt lat="41.23289" lon="-8.54858">
        <ele>82.4</ele>
        <time>2021-03-20 12:15:25</time>
      </trkpt>
      <trkpt lat="41.2329" lon="-8.54851">
        <ele>82.6</ele>
        <time>2021-03-20 12:15:26</time>
      </trkpt>
      <trkpt lat="41.23288" lon="-8.54843">
        <ele>82.8</ele>
        <time>2021-03-20 12:15:27</time>
      </trkpt>
      <trkpt lat="41.23286" lon="-8.54835">
        <ele>83</ele>
        <time>2021-03-20 12:15:28</time>
      </trkpt>
      <trkpt lat="41.23286" lon="-8.5483">
        <ele>83.2</ele>
        <time>2021-03-20 12:15:29</time>
      </trkpt>
      <trkpt lat="41.23285" lon="-8.54824">
        <ele>83.2</ele>
        <time>2021-03-20 12:15:30</time>
      </trkpt>
      <trkpt lat="41.23284" lon="-8.54819">
        <ele>83.6</ele>
        <time>2021-03-20 12:15:31</time>
      </trkpt>
      <trkpt lat="41.23283" lon="-8.54812">
        <ele>83.6</ele>
        <time>2021-03-20 12:15:32</time>
      </trkpt>
      <trkpt lat="41.23282" lon="-8.54805">
        <ele>83.8</ele>
        <time>2021-03-20 12:15:33</time>
      </trkpt>
      <trkpt lat="41.23282" lon="-8.54797">
        <ele>84</ele>
        <time>2021-03-20 12:15:34</time>
      </trkpt>
      <trkpt lat="41.23281" lon="-8.54791">
        <ele>84</ele>
        <time>2021-03-20 12:15:35</time>
      </trkpt>
      <trkpt lat="41.23281" lon="-8.54786">
        <ele>84.2</ele>
        <time>2021-03-20 12:15:36</time>
      </trkpt>
      <trkpt lat="41.2328" lon="-8.54779">
        <ele>84.6</ele>
        <time>2021-03-20 12:15:37</time>
      </trkpt>
      <trkpt lat="41.23279" lon="-8.54773">
        <ele>84.8</ele>
        <time>2021-03-20 12:15:38</time>
      </trkpt>
      <trkpt lat="41.23278" lon="-8.54767">
        <ele>85</ele>
        <time>2021-03-20 12:15:39</time>
      </trkpt>
      <trkpt lat="41.23278" lon="-8.54761">
        <ele>85.2</ele>
        <time>2021-03-20 12:15:40</time>
      </trkpt>
      <trkpt lat="41.23277" lon="-8.54755">
        <ele>85.4</ele>
        <time>2021-03-20 12:15:41</time>
      </trkpt>
      <trkpt lat="41.23276" lon="-8.54749">
        <ele>85.6</ele>
        <time>2021-03-20 12:15:42</time>
      </trkpt>
      <trkpt lat="41.23275" lon="-8.54742">
        <ele>85.8</ele>
        <time>2021-03-20 12:15:43</time>
      </trkpt>
      <trkpt lat="41.23275" lon="-8.54737">
        <ele>86.2</ele>
        <time>2021-03-20 12:15:44</time>
      </trkpt>
      <trkpt lat="41.23274" lon="-8.54731">
        <ele>86.4</ele>
        <time>2021-03-20 12:15:45</time>
      </trkpt>
      <trkpt lat="41.23273" lon="-8.54724">
        <ele>86.4</ele>
        <time>2021-03-20 12:15:46</time>
      </trkpt>
      <trkpt lat="41.23272" lon="-8.54718">
        <ele>86.4</ele>
        <time>2021-03-20 12:15:47</time>
      </trkpt>
      <trkpt lat="41.23271" lon="-8.54713">
        <ele>86.4</ele>
        <time>2021-03-20 12:15:48</time>
      </trkpt>
      <trkpt lat="41.23271" lon="-8.54706">
        <ele>86.2</ele>
        <time>2021-03-20 12:15:49</time>
      </trkpt>
      <trkpt lat="41.2327" lon="-8.547">
        <ele>85.8</ele>
        <time>2021-03-20 12:15:50</time>
      </trkpt>
      <trkpt lat="41.2327" lon="-8.54692">
        <ele>85.6</ele>
        <time>2021-03-20 12:15:51</time>
      </trkpt>
      <trkpt lat="41.23269" lon="-8.54687">
        <ele>85.4</ele>
        <time>2021-03-20 12:15:52</time>
      </trkpt>
      <trkpt lat="41.23269" lon="-8.54681">
        <ele>84.8</ele>
        <time>2021-03-20 12:15:53</time>
      </trkpt>
      <trkpt lat="41.23268" lon="-8.54674">
        <ele>84.8</ele>
        <time>2021-03-20 12:15:54</time>
      </trkpt>
      <trkpt lat="41.23267" lon="-8.54668">
        <ele>85</ele>
        <time>2021-03-20 12:15:55</time>
      </trkpt>
      <trkpt lat="41.23267" lon="-8.54663">
        <ele>85</ele>
        <time>2021-03-20 12:15:56</time>
      </trkpt>
      <trkpt lat="41.23266" lon="-8.54657">
        <ele>84.8</ele>
        <time>2021-03-20 12:15:57</time>
      </trkpt>
      <trkpt lat="41.23265" lon="-8.54649">
        <ele>84.8</ele>
        <time>2021-03-20 12:15:58</time>
      </trkpt>
      <trkpt lat="41.23265" lon="-8.54644">
        <ele>84.8</ele>
        <time>2021-03-20 12:15:59</time>
      </trkpt>
      <trkpt lat="41.23264" lon="-8.54637">
        <ele>84.8</ele>
        <time>2021-03-20 12:16:00</time>
      </trkpt>
      <trkpt lat="41.23263" lon="-8.54631">
        <ele>84.8</ele>
        <time>2021-03-20 12:16:01</time>
      </trkpt>
      <trkpt lat="41.23262" lon="-8.54625">
        <ele>85.2</ele>
        <time>2021-03-20 12:16:02</time>
      </trkpt>
      <trkpt lat="41.23262" lon="-8.54619">
        <ele>85.4</ele>
        <time>2021-03-20 12:16:03</time>
      </trkpt>
      <trkpt lat="41.23261" lon="-8.54614">
        <ele>85.4</ele>
        <time>2021-03-20 12:16:04</time>
      </trkpt>
      <trkpt lat="41.2326" lon="-8.54609">
        <ele>85.6</ele>
        <time>2021-03-20 12:16:05</time>
      </trkpt>
      <trkpt lat="41.23259" lon="-8.54603">
        <ele>85.8</ele>
        <time>2021-03-20 12:16:06</time>
      </trkpt>
      <trkpt lat="41.23258" lon="-8.54595">
        <ele>86</ele>
        <time>2021-03-20 12:16:07</time>
      </trkpt>
      <trkpt lat="41.23257" lon="-8.5459">
        <ele>86.2</ele>
        <time>2021-03-20 12:16:08</time>
      </trkpt>
      <trkpt lat="41.23257" lon="-8.54583">
        <ele>86.2</ele>
        <time>2021-03-20 12:16:09</time>
      </trkpt>
      <trkpt lat="41.23256" lon="-8.54578">
        <ele>86.4</ele>
        <time>2021-03-20 12:16:10</time>
      </trkpt>
      <trkpt lat="41.23256" lon="-8.54573">
        <ele>86.4</ele>
        <time>2021-03-20 12:16:11</time>
      </trkpt>
      <trkpt lat="41.23255" lon="-8.54567">
        <ele>86.4</ele>
        <time>2021-03-20 12:16:12</time>
      </trkpt>
      <trkpt lat="41.23255" lon="-8.54561">
        <ele>86.6</ele>
        <time>2021-03-20 12:16:13</time>
      </trkpt>
      <trkpt lat="41.23254" lon="-8.54555">
        <ele>86.8</ele>
        <time>2021-03-20 12:16:14</time>
      </trkpt>
      <trkpt lat="41.23255" lon="-8.54549">
        <ele>87</ele>
        <time>2021-03-20 12:16:15</time>
      </trkpt>
      <trkpt lat="41.23257" lon="-8.54543">
        <ele>87</ele>
        <time>2021-03-20 12:16:16</time>
      </trkpt>
      <trkpt lat="41.23261" lon="-8.54539">
        <ele>87</ele>
        <time>2021-03-20 12:16:17</time>
      </trkpt>
      <trkpt lat="41.23266" lon="-8.54535">
        <ele>86.8</ele>
        <time>2021-03-20 12:16:18</time>
      </trkpt>
      <trkpt lat="41.23269" lon="-8.54533">
        <ele>87</ele>
        <time>2021-03-20 12:16:19</time>
      </trkpt>
      <trkpt lat="41.23275" lon="-8.54531">
        <ele>87.2</ele>
        <time>2021-03-20 12:16:20</time>
      </trkpt>
      <trkpt lat="41.23281" lon="-8.54528">
        <ele>87.2</ele>
        <time>2021-03-20 12:16:21</time>
      </trkpt>
      <trkpt lat="41.23287" lon="-8.54524">
        <ele>87.4</ele>
        <time>2021-03-20 12:16:22</time>
      </trkpt>
      <trkpt lat="41.23293" lon="-8.5452">
        <ele>87.4</ele>
        <time>2021-03-20 12:16:23</time>
      </trkpt>
      <trkpt lat="41.23299" lon="-8.54516">
        <ele>87.2</ele>
        <time>2021-03-20 12:16:24</time>
      </trkpt>
      <trkpt lat="41.23305" lon="-8.54513">
        <ele>87.2</ele>
        <time>2021-03-20 12:16:25</time>
      </trkpt>
      <trkpt lat="41.23311" lon="-8.54509">
        <ele>87.4</ele>
        <time>2021-03-20 12:16:26</time>
      </trkpt>
      <trkpt lat="41.23317" lon="-8.54506">
        <ele>87.4</ele>
        <time>2021-03-20 12:16:27</time>
      </trkpt>
      <trkpt lat="41.23322" lon="-8.54503">
        <ele>87.6</ele>
        <time>2021-03-20 12:16:28</time>
      </trkpt>
      <trkpt lat="41.23327" lon="-8.545">
        <ele>87.6</ele>
        <time>2021-03-20 12:16:29</time>
      </trkpt>
      <trkpt lat="41.23332" lon="-8.54496">
        <ele>87.6</ele>
        <time>2021-03-20 12:16:30</time>
      </trkpt>
      <trkpt lat="41.23336" lon="-8.54493">
        <ele>87.6</ele>
        <time>2021-03-20 12:16:31</time>
      </trkpt>
      <trkpt lat="41.23341" lon="-8.5449">
        <ele>87.8</ele>
        <time>2021-03-20 12:16:32</time>
      </trkpt>
      <trkpt lat="41.23346" lon="-8.54486">
        <ele>88.2</ele>
        <time>2021-03-20 12:16:33</time>
      </trkpt>
      <trkpt lat="41.23351" lon="-8.54484">
        <ele>88.2</ele>
        <time>2021-03-20 12:16:34</time>
      </trkpt>
      <trkpt lat="41.23355" lon="-8.5448">
        <ele>88.4</ele>
        <time>2021-03-20 12:16:35</time>
      </trkpt>
      <trkpt lat="41.23359" lon="-8.54477">
        <ele>88.6</ele>
        <time>2021-03-20 12:16:36</time>
      </trkpt>
      <trkpt lat="41.23364" lon="-8.54474">
        <ele>88.8</ele>
        <time>2021-03-20 12:16:37</time>
      </trkpt>
      <trkpt lat="41.23369" lon="-8.54472">
        <ele>89</ele>
        <time>2021-03-20 12:16:38</time>
      </trkpt>
      <trkpt lat="41.23373" lon="-8.54468">
        <ele>89.2</ele>
        <time>2021-03-20 12:16:39</time>
      </trkpt>
      <trkpt lat="41.23378" lon="-8.54466">
        <ele>89.6</ele>
        <time>2021-03-20 12:16:40</time>
      </trkpt>
      <trkpt lat="41.23382" lon="-8.54463">
        <ele>89.8</ele>
        <time>2021-03-20 12:16:41</time>
      </trkpt>
      <trkpt lat="41.23386" lon="-8.54461">
        <ele>90</ele>
        <time>2021-03-20 12:16:42</time>
      </trkpt>
      <trkpt lat="41.23391" lon="-8.54459">
        <ele>90.2</ele>
        <time>2021-03-20 12:16:43</time>
      </trkpt>
      <trkpt lat="41.23395" lon="-8.54457">
        <ele>90.4</ele>
        <time>2021-03-20 12:16:44</time>
      </trkpt>
      <trkpt lat="41.234" lon="-8.54455">
        <ele>90.6</ele>
        <time>2021-03-20 12:16:45</time>
      </trkpt>
      <trkpt lat="41.23404" lon="-8.54453">
        <ele>90.8</ele>
        <time>2021-03-20 12:16:46</time>
      </trkpt>
      <trkpt lat="41.23408" lon="-8.54451">
        <ele>91</ele>
        <time>2021-03-20 12:16:47</time>
      </trkpt>
      <trkpt lat="41.23413" lon="-8.54449">
        <ele>91.2</ele>
        <time>2021-03-20 12:16:48</time>
      </trkpt>
      <trkpt lat="41.23417" lon="-8.54448">
        <ele>91.2</ele>
        <time>2021-03-20 12:16:49</time>
      </trkpt>
      <trkpt lat="41.23422" lon="-8.54446">
        <ele>91.6</ele>
        <time>2021-03-20 12:16:50</time>
      </trkpt>
      <trkpt lat="41.23427" lon="-8.54445">
        <ele>91.6</ele>
        <time>2021-03-20 12:16:51</time>
      </trkpt>
      <trkpt lat="41.23433" lon="-8.54444">
        <ele>91.8</ele>
        <time>2021-03-20 12:16:52</time>
      </trkpt>
      <trkpt lat="41.23438" lon="-8.54443">
        <ele>92.2</ele>
        <time>2021-03-20 12:16:53</time>
      </trkpt>
      <trkpt lat="41.23444" lon="-8.54442">
        <ele>92.4</ele>
        <time>2021-03-20 12:16:54</time>
      </trkpt>
      <trkpt lat="41.23449" lon="-8.54442">
        <ele>92.8</ele>
        <time>2021-03-20 12:16:55</time>
      </trkpt>
      <trkpt lat="41.23455" lon="-8.54441">
        <ele>93</ele>
        <time>2021-03-20 12:16:56</time>
      </trkpt>
      <trkpt lat="41.2346" lon="-8.54441">
        <ele>93.2</ele>
        <time>2021-03-20 12:16:57</time>
      </trkpt>
      <trkpt lat="41.23467" lon="-8.54441">
        <ele>93.2</ele>
        <time>2021-03-20 12:16:58</time>
      </trkpt>
      <trkpt lat="41.23472" lon="-8.54441">
        <ele>93.2</ele>
        <time>2021-03-20 12:16:59</time>
      </trkpt>
      <trkpt lat="41.23476" lon="-8.54441">
        <ele>93.4</ele>
        <time>2021-03-20 12:17:00</time>
      </trkpt>
      <trkpt lat="41.23481" lon="-8.54441">
        <ele>93.6</ele>
        <time>2021-03-20 12:17:01</time>
      </trkpt>
      <trkpt lat="41.23486" lon="-8.54441">
        <ele>94.2</ele>
        <time>2021-03-20 12:17:02</time>
      </trkpt>
      <trkpt lat="41.23491" lon="-8.54442">
        <ele>94.4</ele>
        <time>2021-03-20 12:17:03</time>
      </trkpt>
      <trkpt lat="41.23497" lon="-8.54442">
        <ele>94.4</ele>
        <time>2021-03-20 12:17:04</time>
      </trkpt>
      <trkpt lat="41.23502" lon="-8.54442">
        <ele>94.6</ele>
        <time>2021-03-20 12:17:05</time>
      </trkpt>
      <trkpt lat="41.23508" lon="-8.54442">
        <ele>94.6</ele>
        <time>2021-03-20 12:17:06</time>
      </trkpt>
      <trkpt lat="41.23511" lon="-8.54443">
        <ele>95</ele>
        <time>2021-03-20 12:17:07</time>
      </trkpt>
      <trkpt lat="41.23516" lon="-8.54443">
        <ele>95.2</ele>
        <time>2021-03-20 12:17:08</time>
      </trkpt>
      <trkpt lat="41.2352" lon="-8.54443">
        <ele>95.4</ele>
        <time>2021-03-20 12:17:09</time>
      </trkpt>
      <trkpt lat="41.23524" lon="-8.54443">
        <ele>95.4</ele>
        <time>2021-03-20 12:17:10</time>
      </trkpt>
      <trkpt lat="41.23529" lon="-8.54443">
        <ele>95.6</ele>
        <time>2021-03-20 12:17:11</time>
      </trkpt>
      <trkpt lat="41.23532" lon="-8.54442">
        <ele>95.8</ele>
        <time>2021-03-20 12:17:12</time>
      </trkpt>
      <trkpt lat="41.23536" lon="-8.54442">
        <ele>96</ele>
        <time>2021-03-20 12:17:13</time>
      </trkpt>
      <trkpt lat="41.2354" lon="-8.54441">
        <ele>96.4</ele>
        <time>2021-03-20 12:17:14</time>
      </trkpt>
      <trkpt lat="41.23543" lon="-8.5444">
        <ele>96.8</ele>
        <time>2021-03-20 12:17:15</time>
      </trkpt>
      <trkpt lat="41.23548" lon="-8.5444">
        <ele>97</ele>
        <time>2021-03-20 12:17:16</time>
      </trkpt>
      <trkpt lat="41.23552" lon="-8.54441">
        <ele>97.2</ele>
        <time>2021-03-20 12:17:17</time>
      </trkpt>
      <trkpt lat="41.23556" lon="-8.54442">
        <ele>97.6</ele>
        <time>2021-03-20 12:17:18</time>
      </trkpt>
      <trkpt lat="41.2356" lon="-8.54442">
        <ele>97.8</ele>
        <time>2021-03-20 12:17:19</time>
      </trkpt>
      <trkpt lat="41.23564" lon="-8.54442">
        <ele>98</ele>
        <time>2021-03-20 12:17:20</time>
      </trkpt>
      <trkpt lat="41.23568" lon="-8.54441">
        <ele>98.4</ele>
        <time>2021-03-20 12:17:21</time>
      </trkpt>
      <trkpt lat="41.23572" lon="-8.54441">
        <ele>98.6</ele>
        <time>2021-03-20 12:17:22</time>
      </trkpt>
      <trkpt lat="41.23575" lon="-8.5444">
        <ele>98.6</ele>
        <time>2021-03-20 12:17:23</time>
      </trkpt>
      <trkpt lat="41.23579" lon="-8.54439">
        <ele>98.8</ele>
        <time>2021-03-20 12:17:24</time>
      </trkpt>
      <trkpt lat="41.23582" lon="-8.54438">
        <ele>99.2</ele>
        <time>2021-03-20 12:17:25</time>
      </trkpt>
      <trkpt lat="41.23585" lon="-8.54437">
        <ele>99</ele>
        <time>2021-03-20 12:17:26</time>
      </trkpt>
      <trkpt lat="41.23589" lon="-8.54434">
        <ele>99</ele>
        <time>2021-03-20 12:17:27</time>
      </trkpt>
      <trkpt lat="41.23592" lon="-8.54433">
        <ele>99</ele>
        <time>2021-03-20 12:17:28</time>
      </trkpt>
      <trkpt lat="41.23595" lon="-8.54431">
        <ele>99</ele>
        <time>2021-03-20 12:17:29</time>
      </trkpt>
      <trkpt lat="41.23599" lon="-8.54429">
        <ele>99.2</ele>
        <time>2021-03-20 12:17:30</time>
      </trkpt>
      <trkpt lat="41.23603" lon="-8.54426">
        <ele>99.2</ele>
        <time>2021-03-20 12:17:31</time>
      </trkpt>
      <trkpt lat="41.23605" lon="-8.54424">
        <ele>99.4</ele>
        <time>2021-03-20 12:17:32</time>
      </trkpt>
      <trkpt lat="41.23609" lon="-8.54423">
        <ele>99.4</ele>
        <time>2021-03-20 12:17:33</time>
      </trkpt>
      <trkpt lat="41.23613" lon="-8.5442">
        <ele>99.6</ele>
        <time>2021-03-20 12:17:34</time>
      </trkpt>
      <trkpt lat="41.23616" lon="-8.54418">
        <ele>99.4</ele>
        <time>2021-03-20 12:17:35</time>
      </trkpt>
      <trkpt lat="41.2362" lon="-8.54416">
        <ele>99.4</ele>
        <time>2021-03-20 12:17:36</time>
      </trkpt>
      <trkpt lat="41.23623" lon="-8.54414">
        <ele>99.4</ele>
        <time>2021-03-20 12:17:37</time>
      </trkpt>
      <trkpt lat="41.23627" lon="-8.54411">
        <ele>99.4</ele>
        <time>2021-03-20 12:17:38</time>
      </trkpt>
      <trkpt lat="41.2363" lon="-8.54409">
        <ele>99.4</ele>
        <time>2021-03-20 12:17:39</time>
      </trkpt>
      <trkpt lat="41.23634" lon="-8.54407">
        <ele>99.6</ele>
        <time>2021-03-20 12:17:40</time>
      </trkpt>
      <trkpt lat="41.23637" lon="-8.54405">
        <ele>99.8</ele>
        <time>2021-03-20 12:17:41</time>
      </trkpt>
      <trkpt lat="41.23641" lon="-8.54403">
        <ele>100.2</ele>
        <time>2021-03-20 12:17:42</time>
      </trkpt>
      <trkpt lat="41.23645" lon="-8.54401">
        <ele>100.4</ele>
        <time>2021-03-20 12:17:43</time>
      </trkpt>
      <trkpt lat="41.23648" lon="-8.544">
        <ele>100.6</ele>
        <time>2021-03-20 12:17:44</time>
      </trkpt>
      <trkpt lat="41.2365" lon="-8.54398">
        <ele>100.6</ele>
        <time>2021-03-20 12:17:45</time>
      </trkpt>
      <trkpt lat="41.23653" lon="-8.54396">
        <ele>100.8</ele>
        <time>2021-03-20 12:17:46</time>
      </trkpt>
      <trkpt lat="41.23656" lon="-8.54394">
        <ele>101</ele>
        <time>2021-03-20 12:17:47</time>
      </trkpt>
      <trkpt lat="41.23658" lon="-8.54393">
        <ele>101.2</ele>
        <time>2021-03-20 12:17:48</time>
      </trkpt>
      <trkpt lat="41.23661" lon="-8.54391">
        <ele>101.4</ele>
        <time>2021-03-20 12:17:49</time>
      </trkpt>
      <trkpt lat="41.23665" lon="-8.54389">
        <ele>101.6</ele>
        <time>2021-03-20 12:17:50</time>
      </trkpt>
      <trkpt lat="41.23667" lon="-8.54388">
        <ele>101.8</ele>
        <time>2021-03-20 12:17:51</time>
      </trkpt>
      <trkpt lat="41.2367" lon="-8.54386">
        <ele>102</ele>
        <time>2021-03-20 12:17:52</time>
      </trkpt>
      <trkpt lat="41.23672" lon="-8.54385">
        <ele>102</ele>
        <time>2021-03-20 12:17:53</time>
      </trkpt>
      <trkpt lat="41.23676" lon="-8.54383">
        <ele>102.4</ele>
        <time>2021-03-20 12:17:54</time>
      </trkpt>
      <trkpt lat="41.23678" lon="-8.54382">
        <ele>102.6</ele>
        <time>2021-03-20 12:17:55</time>
      </trkpt>
      <trkpt lat="41.23681" lon="-8.5438">
        <ele>102.6</ele>
        <time>2021-03-20 12:17:56</time>
      </trkpt>
      <trkpt lat="41.23685" lon="-8.54378">
        <ele>103</ele>
        <time>2021-03-20 12:17:57</time>
      </trkpt>
      <trkpt lat="41.23688" lon="-8.54377">
        <ele>103</ele>
        <time>2021-03-20 12:17:58</time>
      </trkpt>
      <trkpt lat="41.23691" lon="-8.54375">
        <ele>103.2</ele>
        <time>2021-03-20 12:17:59</time>
      </trkpt>
      <trkpt lat="41.23694" lon="-8.54372">
        <ele>103.4</ele>
        <time>2021-03-20 12:18:00</time>
      </trkpt>
      <trkpt lat="41.23697" lon="-8.54371">
        <ele>103.6</ele>
        <time>2021-03-20 12:18:01</time>
      </trkpt>
      <trkpt lat="41.237" lon="-8.54369">
        <ele>103.6</ele>
        <time>2021-03-20 12:18:02</time>
      </trkpt>
      <trkpt lat="41.23704" lon="-8.54368">
        <ele>103.6</ele>
        <time>2021-03-20 12:18:03</time>
      </trkpt>
      <trkpt lat="41.23708" lon="-8.54365">
        <ele>104</ele>
        <time>2021-03-20 12:18:04</time>
      </trkpt>
      <trkpt lat="41.23711" lon="-8.54363">
        <ele>104.2</ele>
        <time>2021-03-20 12:18:05</time>
      </trkpt>
      <trkpt lat="41.23715" lon="-8.54361">
        <ele>104.4</ele>
        <time>2021-03-20 12:18:06</time>
      </trkpt>
      <trkpt lat="41.23718" lon="-8.54359">
        <ele>104.6</ele>
        <time>2021-03-20 12:18:07</time>
      </trkpt>
      <trkpt lat="41.23721" lon="-8.54356">
        <ele>104.6</ele>
        <time>2021-03-20 12:18:08</time>
      </trkpt>
      <trkpt lat="41.23724" lon="-8.54355">
        <ele>104.6</ele>
        <time>2021-03-20 12:18:09</time>
      </trkpt>
      <trkpt lat="41.23728" lon="-8.54353">
        <ele>105</ele>
        <time>2021-03-20 12:18:10</time>
      </trkpt>
      <trkpt lat="41.23731" lon="-8.54351">
        <ele>105</ele>
        <time>2021-03-20 12:18:11</time>
      </trkpt>
      <trkpt lat="41.23734" lon="-8.54349">
        <ele>105</ele>
        <time>2021-03-20 12:18:12</time>
      </trkpt>
      <trkpt lat="41.23737" lon="-8.54348">
        <ele>105.2</ele>
        <time>2021-03-20 12:18:13</time>
      </trkpt>
      <trkpt lat="41.23739" lon="-8.54346">
        <ele>105.4</ele>
        <time>2021-03-20 12:18:14</time>
      </trkpt>
      <trkpt lat="41.23742" lon="-8.54344">
        <ele>105.6</ele>
        <time>2021-03-20 12:18:15</time>
      </trkpt>
      <trkpt lat="41.23746" lon="-8.54342">
        <ele>105.8</ele>
        <time>2021-03-20 12:18:16</time>
      </trkpt>
      <trkpt lat="41.23749" lon="-8.5434">
        <ele>106</ele>
        <time>2021-03-20 12:18:17</time>
      </trkpt>
      <trkpt lat="41.23752" lon="-8.54338">
        <ele>106.2</ele>
        <time>2021-03-20 12:18:18</time>
      </trkpt>
      <trkpt lat="41.23755" lon="-8.54337">
        <ele>106.4</ele>
        <time>2021-03-20 12:18:19</time>
      </trkpt>
      <trkpt lat="41.23758" lon="-8.54335">
        <ele>106.4</ele>
        <time>2021-03-20 12:18:20</time>
      </trkpt>
      <trkpt lat="41.2376" lon="-8.54333">
        <ele>106.6</ele>
        <time>2021-03-20 12:18:21</time>
      </trkpt>
      <trkpt lat="41.23762" lon="-8.54331">
        <ele>106.8</ele>
        <time>2021-03-20 12:18:22</time>
      </trkpt>
      <trkpt lat="41.23765" lon="-8.54329">
        <ele>107</ele>
        <time>2021-03-20 12:18:23</time>
      </trkpt>
      <trkpt lat="41.23768" lon="-8.54328">
        <ele>107.4</ele>
        <time>2021-03-20 12:18:24</time>
      </trkpt>
      <trkpt lat="41.23771" lon="-8.54326">
        <ele>107.8</ele>
        <time>2021-03-20 12:18:25</time>
      </trkpt>
      <trkpt lat="41.23774" lon="-8.54324">
        <ele>107.8</ele>
        <time>2021-03-20 12:18:26</time>
      </trkpt>
      <trkpt lat="41.23777" lon="-8.54322">
        <ele>107.8</ele>
        <time>2021-03-20 12:18:27</time>
      </trkpt>
      <trkpt lat="41.2378" lon="-8.5432">
        <ele>108</ele>
        <time>2021-03-20 12:18:28</time>
      </trkpt>
      <trkpt lat="41.23783" lon="-8.54317">
        <ele>108.2</ele>
        <time>2021-03-20 12:18:29</time>
      </trkpt>
      <trkpt lat="41.23785" lon="-8.54316">
        <ele>108.4</ele>
        <time>2021-03-20 12:18:30</time>
      </trkpt>
      <trkpt lat="41.23788" lon="-8.54314">
        <ele>108.6</ele>
        <time>2021-03-20 12:18:31</time>
      </trkpt>
      <trkpt lat="41.23792" lon="-8.54314">
        <ele>109</ele>
        <time>2021-03-20 12:18:32</time>
      </trkpt>
      <trkpt lat="41.23795" lon="-8.54311">
        <ele>109.2</ele>
        <time>2021-03-20 12:18:33</time>
      </trkpt>
      <trkpt lat="41.23798" lon="-8.54308">
        <ele>109.4</ele>
        <time>2021-03-20 12:18:34</time>
      </trkpt>
      <trkpt lat="41.23801" lon="-8.54307">
        <ele>109.8</ele>
        <time>2021-03-20 12:18:35</time>
      </trkpt>
      <trkpt lat="41.23804" lon="-8.54305">
        <ele>110</ele>
        <time>2021-03-20 12:18:36</time>
      </trkpt>
      <trkpt lat="41.23808" lon="-8.54303">
        <ele>110.2</ele>
        <time>2021-03-20 12:18:37</time>
      </trkpt>
      <trkpt lat="41.23811" lon="-8.54301">
        <ele>110.4</ele>
        <time>2021-03-20 12:18:38</time>
      </trkpt>
      <trkpt lat="41.23814" lon="-8.54299">
        <ele>110.6</ele>
        <time>2021-03-20 12:18:39</time>
      </trkpt>
      <trkpt lat="41.23817" lon="-8.54297">
        <ele>110.8</ele>
        <time>2021-03-20 12:18:40</time>
      </trkpt>
      <trkpt lat="41.2382" lon="-8.54295">
        <ele>111</ele>
        <time>2021-03-20 12:18:41</time>
      </trkpt>
      <trkpt lat="41.23823" lon="-8.54293">
        <ele>111.4</ele>
        <time>2021-03-20 12:18:42</time>
      </trkpt>
      <trkpt lat="41.23826" lon="-8.54291">
        <ele>111.6</ele>
        <time>2021-03-20 12:18:43</time>
      </trkpt>
      <trkpt lat="41.2383" lon="-8.5429">
        <ele>112</ele>
        <time>2021-03-20 12:18:44</time>
      </trkpt>
      <trkpt lat="41.23832" lon="-8.54288">
        <ele>112.2</ele>
        <time>2021-03-20 12:18:45</time>
      </trkpt>
      <trkpt lat="41.23835" lon="-8.54286">
        <ele>112.6</ele>
        <time>2021-03-20 12:18:46</time>
      </trkpt>
      <trkpt lat="41.23837" lon="-8.54284">
        <ele>112.6</ele>
        <time>2021-03-20 12:18:47</time>
      </trkpt>
      <trkpt lat="41.2384" lon="-8.54282">
        <ele>113</ele>
        <time>2021-03-20 12:18:48</time>
      </trkpt>
      <trkpt lat="41.23843" lon="-8.5428">
        <ele>113.2</ele>
        <time>2021-03-20 12:18:49</time>
      </trkpt>
      <trkpt lat="41.23846" lon="-8.54277">
        <ele>113.6</ele>
        <time>2021-03-20 12:18:50</time>
      </trkpt>
      <trkpt lat="41.23848" lon="-8.54275">
        <ele>113.6</ele>
        <time>2021-03-20 12:18:51</time>
      </trkpt>
      <trkpt lat="41.23851" lon="-8.54273">
        <ele>114</ele>
        <time>2021-03-20 12:18:52</time>
      </trkpt>
      <trkpt lat="41.23854" lon="-8.54271">
        <ele>114.2</ele>
        <time>2021-03-20 12:18:53</time>
      </trkpt>
      <trkpt lat="41.23857" lon="-8.5427">
        <ele>114.4</ele>
        <time>2021-03-20 12:18:54</time>
      </trkpt>
      <trkpt lat="41.2386" lon="-8.54268">
        <ele>114.6</ele>
        <time>2021-03-20 12:18:55</time>
      </trkpt>
      <trkpt lat="41.23861" lon="-8.54266">
        <ele>115</ele>
        <time>2021-03-20 12:18:56</time>
      </trkpt>
      <trkpt lat="41.23863" lon="-8.54263">
        <ele>115.4</ele>
        <time>2021-03-20 12:18:57</time>
      </trkpt>
      <trkpt lat="41.23865" lon="-8.5426">
        <ele>115.6</ele>
        <time>2021-03-20 12:18:58</time>
      </trkpt>
      <trkpt lat="41.23868" lon="-8.54258">
        <ele>115.8</ele>
        <time>2021-03-20 12:18:59</time>
      </trkpt>
      <trkpt lat="41.23871" lon="-8.54257">
        <ele>116</ele>
        <time>2021-03-20 12:19:00</time>
      </trkpt>
      <trkpt lat="41.23875" lon="-8.54255">
        <ele>116.4</ele>
        <time>2021-03-20 12:19:01</time>
      </trkpt>
      <trkpt lat="41.23877" lon="-8.54253">
        <ele>116.4</ele>
        <time>2021-03-20 12:19:02</time>
      </trkpt>
      <trkpt lat="41.2388" lon="-8.54252">
        <ele>116.6</ele>
        <time>2021-03-20 12:19:03</time>
      </trkpt>
      <trkpt lat="41.23882" lon="-8.5425">
        <ele>117</ele>
        <time>2021-03-20 12:19:04</time>
      </trkpt>
      <trkpt lat="41.23885" lon="-8.54248">
        <ele>117.4</ele>
        <time>2021-03-20 12:19:05</time>
      </trkpt>
      <trkpt lat="41.23889" lon="-8.54246">
        <ele>117.6</ele>
        <time>2021-03-20 12:19:06</time>
      </trkpt>
      <trkpt lat="41.23892" lon="-8.54245">
        <ele>118</ele>
        <time>2021-03-20 12:19:07</time>
      </trkpt>
      <trkpt lat="41.23896" lon="-8.54242">
        <ele>118.2</ele>
        <time>2021-03-20 12:19:08</time>
      </trkpt>
      <trkpt lat="41.23899" lon="-8.5424">
        <ele>118.4</ele>
        <time>2021-03-20 12:19:09</time>
      </trkpt>
      <trkpt lat="41.23901" lon="-8.54238">
        <ele>118.8</ele>
        <time>2021-03-20 12:19:10</time>
      </trkpt>
      <trkpt lat="41.23903" lon="-8.54237">
        <ele>118.8</ele>
        <time>2021-03-20 12:19:11</time>
      </trkpt>
      <trkpt lat="41.23906" lon="-8.54235">
        <ele>119.2</ele>
        <time>2021-03-20 12:19:12</time>
      </trkpt>
      <trkpt lat="41.23908" lon="-8.54233">
        <ele>119.4</ele>
        <time>2021-03-20 12:19:13</time>
      </trkpt>
      <trkpt lat="41.23911" lon="-8.54231">
        <ele>119.4</ele>
        <time>2021-03-20 12:19:14</time>
      </trkpt>
      <trkpt lat="41.23915" lon="-8.54229">
        <ele>119.6</ele>
        <time>2021-03-20 12:19:15</time>
      </trkpt>
      <trkpt lat="41.23918" lon="-8.54228">
        <ele>120</ele>
        <time>2021-03-20 12:19:16</time>
      </trkpt>
      <trkpt lat="41.2392" lon="-8.54226">
        <ele>120.2</ele>
        <time>2021-03-20 12:19:17</time>
      </trkpt>
      <trkpt lat="41.23924" lon="-8.54224">
        <ele>120.4</ele>
        <time>2021-03-20 12:19:18</time>
      </trkpt>
      <trkpt lat="41.23927" lon="-8.54222">
        <ele>121</ele>
        <time>2021-03-20 12:19:19</time>
      </trkpt>
      <trkpt lat="41.2393" lon="-8.5422">
        <ele>121.4</ele>
        <time>2021-03-20 12:19:20</time>
      </trkpt>
      <trkpt lat="41.23933" lon="-8.54218">
        <ele>121.8</ele>
        <time>2021-03-20 12:19:21</time>
      </trkpt>
      <trkpt lat="41.23936" lon="-8.54216">
        <ele>121.8</ele>
        <time>2021-03-20 12:19:22</time>
      </trkpt>
      <trkpt lat="41.2394" lon="-8.54214">
        <ele>122</ele>
        <time>2021-03-20 12:19:23</time>
      </trkpt>
      <trkpt lat="41.23943" lon="-8.54213">
        <ele>122.2</ele>
        <time>2021-03-20 12:19:24</time>
      </trkpt>
      <trkpt lat="41.23946" lon="-8.5421">
        <ele>122.4</ele>
        <time>2021-03-20 12:19:25</time>
      </trkpt>
      <trkpt lat="41.23948" lon="-8.54209">
        <ele>122.8</ele>
        <time>2021-03-20 12:19:26</time>
      </trkpt>
      <trkpt lat="41.23949" lon="-8.54207">
        <ele>123</ele>
        <time>2021-03-20 12:19:27</time>
      </trkpt>
      <trkpt lat="41.2395" lon="-8.54206">
        <ele>123.4</ele>
        <time>2021-03-20 12:19:28</time>
      </trkpt>
      <trkpt lat="41.23952" lon="-8.54204">
        <ele>123.4</ele>
        <time>2021-03-20 12:19:29</time>
      </trkpt>
      <trkpt lat="41.23954" lon="-8.54202">
        <ele>123.8</ele>
        <time>2021-03-20 12:19:30</time>
      </trkpt>
      <trkpt lat="41.23957" lon="-8.54201">
        <ele>123.8</ele>
        <time>2021-03-20 12:19:31</time>
      </trkpt>
      <trkpt lat="41.2396" lon="-8.54198">
        <ele>124</ele>
        <time>2021-03-20 12:19:32</time>
      </trkpt>
      <trkpt lat="41.23964" lon="-8.54196">
        <ele>124.2</ele>
        <time>2021-03-20 12:19:33</time>
      </trkpt>
      <trkpt lat="41.23967" lon="-8.54194">
        <ele>124.2</ele>
        <time>2021-03-20 12:19:34</time>
      </trkpt>
      <trkpt lat="41.2397" lon="-8.54191">
        <ele>124.4</ele>
        <time>2021-03-20 12:19:35</time>
      </trkpt>
      <trkpt lat="41.23973" lon="-8.54189">
        <ele>124.4</ele>
        <time>2021-03-20 12:19:36</time>
      </trkpt>
      <trkpt lat="41.23977" lon="-8.54187">
        <ele>124.4</ele>
        <time>2021-03-20 12:19:37</time>
      </trkpt>
      <trkpt lat="41.23979" lon="-8.54185">
        <ele>124.6</ele>
        <time>2021-03-20 12:19:38</time>
      </trkpt>
      <trkpt lat="41.23983" lon="-8.54183">
        <ele>124.6</ele>
        <time>2021-03-20 12:19:39</time>
      </trkpt>
      <trkpt lat="41.23986" lon="-8.54181">
        <ele>124.8</ele>
        <time>2021-03-20 12:19:40</time>
      </trkpt>
      <trkpt lat="41.23989" lon="-8.54178">
        <ele>124.8</ele>
        <time>2021-03-20 12:19:41</time>
      </trkpt>
      <trkpt lat="41.23992" lon="-8.54175">
        <ele>125</ele>
        <time>2021-03-20 12:19:42</time>
      </trkpt>
      <trkpt lat="41.23995" lon="-8.54172">
        <ele>125</ele>
        <time>2021-03-20 12:19:43</time>
      </trkpt>
      <trkpt lat="41.23998" lon="-8.5417">
        <ele>125.2</ele>
        <time>2021-03-20 12:19:44</time>
      </trkpt>
      <trkpt lat="41.24001" lon="-8.54167">
        <ele>125.2</ele>
        <time>2021-03-20 12:19:45</time>
      </trkpt>
      <trkpt lat="41.24004" lon="-8.54164">
        <ele>125.4</ele>
        <time>2021-03-20 12:19:46</time>
      </trkpt>
      <trkpt lat="41.24007" lon="-8.54162">
        <ele>125.6</ele>
        <time>2021-03-20 12:19:47</time>
      </trkpt>
      <trkpt lat="41.2401" lon="-8.5416">
        <ele>125.8</ele>
        <time>2021-03-20 12:19:48</time>
      </trkpt>
      <trkpt lat="41.24012" lon="-8.54157">
        <ele>125.8</ele>
        <time>2021-03-20 12:19:49</time>
      </trkpt>
      <trkpt lat="41.24015" lon="-8.54155">
        <ele>126.2</ele>
        <time>2021-03-20 12:19:50</time>
      </trkpt>
      <trkpt lat="41.24017" lon="-8.54153">
        <ele>126.6</ele>
        <time>2021-03-20 12:19:51</time>
      </trkpt>
      <trkpt lat="41.24019" lon="-8.5415">
        <ele>126.6</ele>
        <time>2021-03-20 12:19:52</time>
      </trkpt>
      <trkpt lat="41.24021" lon="-8.54148">
        <ele>126.6</ele>
        <time>2021-03-20 12:19:53</time>
      </trkpt>
      <trkpt lat="41.24024" lon="-8.54145">
        <ele>126.8</ele>
        <time>2021-03-20 12:19:54</time>
      </trkpt>
      <trkpt lat="41.24027" lon="-8.54142">
        <ele>126.8</ele>
        <time>2021-03-20 12:19:55</time>
      </trkpt>
      <trkpt lat="41.24029" lon="-8.54139">
        <ele>127.2</ele>
        <time>2021-03-20 12:19:56</time>
      </trkpt>
      <trkpt lat="41.24032" lon="-8.54136">
        <ele>127.2</ele>
        <time>2021-03-20 12:19:57</time>
      </trkpt>
      <trkpt lat="41.24035" lon="-8.54133">
        <ele>127.4</ele>
        <time>2021-03-20 12:19:58</time>
      </trkpt>
      <trkpt lat="41.24038" lon="-8.5413">
        <ele>127.6</ele>
        <time>2021-03-20 12:19:59</time>
      </trkpt>
      <trkpt lat="41.24041" lon="-8.54128">
        <ele>127.8</ele>
        <time>2021-03-20 12:20:00</time>
      </trkpt>
      <trkpt lat="41.24045" lon="-8.54125">
        <ele>127.8</ele>
        <time>2021-03-20 12:20:01</time>
      </trkpt>
      <trkpt lat="41.24048" lon="-8.54122">
        <ele>127.8</ele>
        <time>2021-03-20 12:20:02</time>
      </trkpt>
      <trkpt lat="41.24052" lon="-8.54119">
        <ele>128</ele>
        <time>2021-03-20 12:20:03</time>
      </trkpt>
      <trkpt lat="41.24054" lon="-8.54116">
        <ele>128</ele>
        <time>2021-03-20 12:20:04</time>
      </trkpt>
      <trkpt lat="41.24057" lon="-8.54113">
        <ele>127.8</ele>
        <time>2021-03-20 12:20:05</time>
      </trkpt>
      <trkpt lat="41.24058" lon="-8.5411">
        <ele>127.8</ele>
        <time>2021-03-20 12:20:06</time>
      </trkpt>
      <trkpt lat="41.24061" lon="-8.54107">
        <ele>127.8</ele>
        <time>2021-03-20 12:20:07</time>
      </trkpt>
      <trkpt lat="41.24065" lon="-8.54104">
        <ele>128</ele>
        <time>2021-03-20 12:20:08</time>
      </trkpt>
      <trkpt lat="41.24069" lon="-8.541">
        <ele>128</ele>
        <time>2021-03-20 12:20:09</time>
      </trkpt>
      <trkpt lat="41.24073" lon="-8.54097">
        <ele>128</ele>
        <time>2021-03-20 12:20:10</time>
      </trkpt>
      <trkpt lat="41.24076" lon="-8.54094">
        <ele>128</ele>
        <time>2021-03-20 12:20:11</time>
      </trkpt>
      <trkpt lat="41.2408" lon="-8.54091">
        <ele>127.8</ele>
        <time>2021-03-20 12:20:12</time>
      </trkpt>
      <trkpt lat="41.24083" lon="-8.54088">
        <ele>127.6</ele>
        <time>2021-03-20 12:20:13</time>
      </trkpt>
      <trkpt lat="41.24087" lon="-8.54085">
        <ele>127.4</ele>
        <time>2021-03-20 12:20:14</time>
      </trkpt>
      <trkpt lat="41.2409" lon="-8.54082">
        <ele>127.2</ele>
        <time>2021-03-20 12:20:15</time>
      </trkpt>
      <trkpt lat="41.24094" lon="-8.54079">
        <ele>126.8</ele>
        <time>2021-03-20 12:20:16</time>
      </trkpt>
      <trkpt lat="41.24098" lon="-8.54075">
        <ele>126.6</ele>
        <time>2021-03-20 12:20:17</time>
      </trkpt>
      <trkpt lat="41.24101" lon="-8.54072">
        <ele>126.2</ele>
        <time>2021-03-20 12:20:18</time>
      </trkpt>
      <trkpt lat="41.24105" lon="-8.54069">
        <ele>126</ele>
        <time>2021-03-20 12:20:19</time>
      </trkpt>
      <trkpt lat="41.24108" lon="-8.54065">
        <ele>126</ele>
        <time>2021-03-20 12:20:20</time>
      </trkpt>
      <trkpt lat="41.24113" lon="-8.54061">
        <ele>125.8</ele>
        <time>2021-03-20 12:20:21</time>
      </trkpt>
      <trkpt lat="41.24116" lon="-8.54059">
        <ele>125.6</ele>
        <time>2021-03-20 12:20:22</time>
      </trkpt>
      <trkpt lat="41.2412" lon="-8.54055">
        <ele>125</ele>
        <time>2021-03-20 12:20:23</time>
      </trkpt>
      <trkpt lat="41.24124" lon="-8.54052">
        <ele>124.8</ele>
        <time>2021-03-20 12:20:24</time>
      </trkpt>
      <trkpt lat="41.24128" lon="-8.54049">
        <ele>124.8</ele>
        <time>2021-03-20 12:20:25</time>
      </trkpt>
      <trkpt lat="41.24132" lon="-8.54046">
        <ele>124.6</ele>
        <time>2021-03-20 12:20:26</time>
      </trkpt>
      <trkpt lat="41.24136" lon="-8.54042">
        <ele>124.2</ele>
        <time>2021-03-20 12:20:27</time>
      </trkpt>
      <trkpt lat="41.2414" lon="-8.54039">
        <ele>124.2</ele>
        <time>2021-03-20 12:20:28</time>
      </trkpt>
      <trkpt lat="41.24144" lon="-8.54036">
        <ele>124.2</ele>
        <time>2021-03-20 12:20:29</time>
      </trkpt>
      <trkpt lat="41.24148" lon="-8.54032">
        <ele>124.2</ele>
        <time>2021-03-20 12:20:30</time>
      </trkpt>
      <trkpt lat="41.24152" lon="-8.54029">
        <ele>124.2</ele>
        <time>2021-03-20 12:20:31</time>
      </trkpt>
      <trkpt lat="41.24155" lon="-8.54026">
        <ele>124</ele>
        <time>2021-03-20 12:20:32</time>
      </trkpt>
      <trkpt lat="41.24159" lon="-8.54023">
        <ele>124</ele>
        <time>2021-03-20 12:20:33</time>
      </trkpt>
      <trkpt lat="41.24163" lon="-8.54021">
        <ele>124</ele>
        <time>2021-03-20 12:20:34</time>
      </trkpt>
      <trkpt lat="41.24168" lon="-8.54018">
        <ele>124</ele>
        <time>2021-03-20 12:20:35</time>
      </trkpt>
      <trkpt lat="41.24172" lon="-8.54015">
        <ele>124</ele>
        <time>2021-03-20 12:20:36</time>
      </trkpt>
      <trkpt lat="41.24176" lon="-8.54012">
        <ele>124</ele>
        <time>2021-03-20 12:20:37</time>
      </trkpt>
      <trkpt lat="41.24178" lon="-8.5401">
        <ele>124</ele>
        <time>2021-03-20 12:20:38</time>
      </trkpt>
      <trkpt lat="41.24182" lon="-8.54007">
        <ele>124.2</ele>
        <time>2021-03-20 12:20:39</time>
      </trkpt>
      <trkpt lat="41.24186" lon="-8.54005">
        <ele>124.4</ele>
        <time>2021-03-20 12:20:40</time>
      </trkpt>
      <trkpt lat="41.24189" lon="-8.54002">
        <ele>125</ele>
        <time>2021-03-20 12:20:41</time>
      </trkpt>
      <trkpt lat="41.24193" lon="-8.53999">
        <ele>125.2</ele>
        <time>2021-03-20 12:20:42</time>
      </trkpt>
      <trkpt lat="41.24197" lon="-8.53996">
        <ele>125</ele>
        <time>2021-03-20 12:20:43</time>
      </trkpt>
      <trkpt lat="41.24201" lon="-8.53993">
        <ele>125</ele>
        <time>2021-03-20 12:20:44</time>
      </trkpt>
      <trkpt lat="41.24206" lon="-8.5399">
        <ele>124.8</ele>
        <time>2021-03-20 12:20:45</time>
      </trkpt>
      <trkpt lat="41.2421" lon="-8.53987">
        <ele>124.6</ele>
        <time>2021-03-20 12:20:46</time>
      </trkpt>
      <trkpt lat="41.24216" lon="-8.53983">
        <ele>124.4</ele>
        <time>2021-03-20 12:20:47</time>
      </trkpt>
      <trkpt lat="41.2422" lon="-8.5398">
        <ele>124.2</ele>
        <time>2021-03-20 12:20:48</time>
      </trkpt>
      <trkpt lat="41.24226" lon="-8.53977">
        <ele>124</ele>
        <time>2021-03-20 12:20:49</time>
      </trkpt>
      <trkpt lat="41.24232" lon="-8.53973">
        <ele>124</ele>
        <time>2021-03-20 12:20:50</time>
      </trkpt>
      <trkpt lat="41.24238" lon="-8.53969">
        <ele>123.8</ele>
        <time>2021-03-20 12:20:51</time>
      </trkpt>
      <trkpt lat="41.24244" lon="-8.53966">
        <ele>123.8</ele>
        <time>2021-03-20 12:20:52</time>
      </trkpt>
      <trkpt lat="41.2425" lon="-8.53962">
        <ele>123.4</ele>
        <time>2021-03-20 12:20:53</time>
      </trkpt>
      <trkpt lat="41.24256" lon="-8.53958">
        <ele>123.4</ele>
        <time>2021-03-20 12:20:54</time>
      </trkpt>
      <trkpt lat="41.24262" lon="-8.53954">
        <ele>123.2</ele>
        <time>2021-03-20 12:20:55</time>
      </trkpt>
      <trkpt lat="41.24268" lon="-8.53951">
        <ele>123.2</ele>
        <time>2021-03-20 12:20:56</time>
      </trkpt>
      <trkpt lat="41.24274" lon="-8.53947">
        <ele>123</ele>
        <time>2021-03-20 12:20:57</time>
      </trkpt>
      <trkpt lat="41.2428" lon="-8.53943">
        <ele>123</ele>
        <time>2021-03-20 12:20:58</time>
      </trkpt>
      <trkpt lat="41.24285" lon="-8.5394">
        <ele>123</ele>
        <time>2021-03-20 12:20:59</time>
      </trkpt>
      <trkpt lat="41.24291" lon="-8.53936">
        <ele>123</ele>
        <time>2021-03-20 12:21:00</time>
      </trkpt>
      <trkpt lat="41.24297" lon="-8.53933">
        <ele>123</ele>
        <time>2021-03-20 12:21:01</time>
      </trkpt>
      <trkpt lat="41.24303" lon="-8.5393">
        <ele>123</ele>
        <time>2021-03-20 12:21:02</time>
      </trkpt>
      <trkpt lat="41.24308" lon="-8.53927">
        <ele>123</ele>
        <time>2021-03-20 12:21:03</time>
      </trkpt>
      <trkpt lat="41.24314" lon="-8.53924">
        <ele>123.2</ele>
        <time>2021-03-20 12:21:04</time>
      </trkpt>
      <trkpt lat="41.24318" lon="-8.53921">
        <ele>123</ele>
        <time>2021-03-20 12:21:05</time>
      </trkpt>
      <trkpt lat="41.24323" lon="-8.53919">
        <ele>122.8</ele>
        <time>2021-03-20 12:21:06</time>
      </trkpt>
      <trkpt lat="41.24328" lon="-8.53917">
        <ele>123</ele>
        <time>2021-03-20 12:21:07</time>
      </trkpt>
      <trkpt lat="41.24332" lon="-8.53914">
        <ele>123.6</ele>
        <time>2021-03-20 12:21:08</time>
      </trkpt>
      <trkpt lat="41.24337" lon="-8.53911">
        <ele>124.2</ele>
        <time>2021-03-20 12:21:09</time>
      </trkpt>
      <trkpt lat="41.24342" lon="-8.53908">
        <ele>124.4</ele>
        <time>2021-03-20 12:21:10</time>
      </trkpt>
      <trkpt lat="41.24345" lon="-8.53906">
        <ele>124.6</ele>
        <time>2021-03-20 12:21:11</time>
      </trkpt>
      <trkpt lat="41.24351" lon="-8.53903">
        <ele>124.6</ele>
        <time>2021-03-20 12:21:12</time>
      </trkpt>
      <trkpt lat="41.24355" lon="-8.539">
        <ele>125</ele>
        <time>2021-03-20 12:21:13</time>
      </trkpt>
      <trkpt lat="41.2436" lon="-8.53897">
        <ele>125.4</ele>
        <time>2021-03-20 12:21:14</time>
      </trkpt>
      <trkpt lat="41.24366" lon="-8.53894">
        <ele>125.6</ele>
        <time>2021-03-20 12:21:15</time>
      </trkpt>
      <trkpt lat="41.24369" lon="-8.53892">
        <ele>126</ele>
        <time>2021-03-20 12:21:16</time>
      </trkpt>
      <trkpt lat="41.24376" lon="-8.53888">
        <ele>126.2</ele>
        <time>2021-03-20 12:21:17</time>
      </trkpt>
      <trkpt lat="41.24382" lon="-8.53884">
        <ele>126.4</ele>
        <time>2021-03-20 12:21:18</time>
      </trkpt>
      <trkpt lat="41.24387" lon="-8.53881">
        <ele>126.6</ele>
        <time>2021-03-20 12:21:19</time>
      </trkpt>
      <trkpt lat="41.24393" lon="-8.53878">
        <ele>126.8</ele>
        <time>2021-03-20 12:21:20</time>
      </trkpt>
      <trkpt lat="41.24399" lon="-8.53875">
        <ele>127</ele>
        <time>2021-03-20 12:21:21</time>
      </trkpt>
      <trkpt lat="41.24405" lon="-8.53871">
        <ele>127.4</ele>
        <time>2021-03-20 12:21:22</time>
      </trkpt>
      <trkpt lat="41.24411" lon="-8.53867">
        <ele>127.6</ele>
        <time>2021-03-20 12:21:23</time>
      </trkpt>
      <trkpt lat="41.24417" lon="-8.53864">
        <ele>128.2</ele>
        <time>2021-03-20 12:21:24</time>
      </trkpt>
      <trkpt lat="41.24423" lon="-8.53861">
        <ele>128.4</ele>
        <time>2021-03-20 12:21:25</time>
      </trkpt>
      <trkpt lat="41.24428" lon="-8.53858">
        <ele>129</ele>
        <time>2021-03-20 12:21:26</time>
      </trkpt>
      <trkpt lat="41.24434" lon="-8.53854">
        <ele>129.2</ele>
        <time>2021-03-20 12:21:27</time>
      </trkpt>
      <trkpt lat="41.24439" lon="-8.53851">
        <ele>129.6</ele>
        <time>2021-03-20 12:21:28</time>
      </trkpt>
      <trkpt lat="41.24445" lon="-8.53848">
        <ele>129.8</ele>
        <time>2021-03-20 12:21:29</time>
      </trkpt>
      <trkpt lat="41.2445" lon="-8.53845">
        <ele>130</ele>
        <time>2021-03-20 12:21:30</time>
      </trkpt>
      <trkpt lat="41.24456" lon="-8.53842">
        <ele>130.2</ele>
        <time>2021-03-20 12:21:31</time>
      </trkpt>
      <trkpt lat="41.24461" lon="-8.53838">
        <ele>130.4</ele>
        <time>2021-03-20 12:21:32</time>
      </trkpt>
      <trkpt lat="41.24466" lon="-8.53836">
        <ele>130.8</ele>
        <time>2021-03-20 12:21:33</time>
      </trkpt>
      <trkpt lat="41.24471" lon="-8.53832">
        <ele>131</ele>
        <time>2021-03-20 12:21:34</time>
      </trkpt>
      <trkpt lat="41.24476" lon="-8.53829">
        <ele>131.2</ele>
        <time>2021-03-20 12:21:35</time>
      </trkpt>
      <trkpt lat="41.24481" lon="-8.53826">
        <ele>131.4</ele>
        <time>2021-03-20 12:21:36</time>
      </trkpt>
      <trkpt lat="41.24485" lon="-8.53823">
        <ele>131.6</ele>
        <time>2021-03-20 12:21:37</time>
      </trkpt>
      <trkpt lat="41.2449" lon="-8.53821">
        <ele>131.8</ele>
        <time>2021-03-20 12:21:38</time>
      </trkpt>
      <trkpt lat="41.24495" lon="-8.53818">
        <ele>132</ele>
        <time>2021-03-20 12:21:39</time>
      </trkpt>
      <trkpt lat="41.24499" lon="-8.53815">
        <ele>132.2</ele>
        <time>2021-03-20 12:21:40</time>
      </trkpt>
      <trkpt lat="41.24503" lon="-8.53813">
        <ele>132.6</ele>
        <time>2021-03-20 12:21:41</time>
      </trkpt>
      <trkpt lat="41.24508" lon="-8.5381">
        <ele>132.6</ele>
        <time>2021-03-20 12:21:42</time>
      </trkpt>
      <trkpt lat="41.24512" lon="-8.53809">
        <ele>132.8</ele>
        <time>2021-03-20 12:21:43</time>
      </trkpt>
      <trkpt lat="41.24515" lon="-8.53805">
        <ele>133</ele>
        <time>2021-03-20 12:21:44</time>
      </trkpt>
      <trkpt lat="41.24519" lon="-8.53803">
        <ele>133.2</ele>
        <time>2021-03-20 12:21:45</time>
      </trkpt>
      <trkpt lat="41.24524" lon="-8.538">
        <ele>133.4</ele>
        <time>2021-03-20 12:21:46</time>
      </trkpt>
      <trkpt lat="41.24527" lon="-8.53799">
        <ele>133.8</ele>
        <time>2021-03-20 12:21:47</time>
      </trkpt>
      <trkpt lat="41.2453" lon="-8.53798">
        <ele>134</ele>
        <time>2021-03-20 12:21:48</time>
      </trkpt>
      <trkpt lat="41.24534" lon="-8.53797">
        <ele>134.2</ele>
        <time>2021-03-20 12:21:49</time>
      </trkpt>
      <trkpt lat="41.24537" lon="-8.53796">
        <ele>134.4</ele>
        <time>2021-03-20 12:21:50</time>
      </trkpt>
      <trkpt lat="41.24541" lon="-8.53794">
        <ele>134.6</ele>
        <time>2021-03-20 12:21:51</time>
      </trkpt>
      <trkpt lat="41.24545" lon="-8.53792">
        <ele>135</ele>
        <time>2021-03-20 12:21:52</time>
      </trkpt>
      <trkpt lat="41.24549" lon="-8.53792">
        <ele>135.2</ele>
        <time>2021-03-20 12:21:53</time>
      </trkpt>
      <trkpt lat="41.24551" lon="-8.53791">
        <ele>135.2</ele>
        <time>2021-03-20 12:21:54</time>
      </trkpt>
      <trkpt lat="41.24552" lon="-8.53791">
        <ele>135.4</ele>
        <time>2021-03-20 12:21:55</time>
      </trkpt>
      <trkpt lat="41.24555" lon="-8.5379">
        <ele>136.2</ele>
        <time>2021-03-20 12:21:56</time>
      </trkpt>
      <trkpt lat="41.24558" lon="-8.5379">
        <ele>136.2</ele>
        <time>2021-03-20 12:21:57</time>
      </trkpt>
      <trkpt lat="41.24561" lon="-8.53789">
        <ele>136.2</ele>
        <time>2021-03-20 12:21:58</time>
      </trkpt>
      <trkpt lat="41.24563" lon="-8.53789">
        <ele>136.2</ele>
        <time>2021-03-20 12:21:59</time>
      </trkpt>
      <trkpt lat="41.24565" lon="-8.53788">
        <ele>136.6</ele>
        <time>2021-03-20 12:22:00</time>
      </trkpt>
      <trkpt lat="41.24568" lon="-8.53787">
        <ele>136.6</ele>
        <time>2021-03-20 12:22:01</time>
      </trkpt>
      <trkpt lat="41.2457" lon="-8.53787">
        <ele>137</ele>
        <time>2021-03-20 12:22:02</time>
      </trkpt>
      <trkpt lat="41.24574" lon="-8.53788">
        <ele>137.2</ele>
        <time>2021-03-20 12:22:03</time>
      </trkpt>
      <trkpt lat="41.24577" lon="-8.53789">
        <ele>137.4</ele>
        <time>2021-03-20 12:22:04</time>
      </trkpt>
      <trkpt lat="41.2458" lon="-8.53789">
        <ele>137.6</ele>
        <time>2021-03-20 12:22:05</time>
      </trkpt>
      <trkpt lat="41.24584" lon="-8.5379">
        <ele>138</ele>
        <time>2021-03-20 12:22:06</time>
      </trkpt>
      <trkpt lat="41.24586" lon="-8.53791">
        <ele>138.2</ele>
        <time>2021-03-20 12:22:07</time>
      </trkpt>
      <trkpt lat="41.24589" lon="-8.53793">
        <ele>138.4</ele>
        <time>2021-03-20 12:22:08</time>
      </trkpt>
      <trkpt lat="41.24592" lon="-8.53794">
        <ele>138.6</ele>
        <time>2021-03-20 12:22:09</time>
      </trkpt>
      <trkpt lat="41.24595" lon="-8.53794">
        <ele>138.8</ele>
        <time>2021-03-20 12:22:10</time>
      </trkpt>
      <trkpt lat="41.24598" lon="-8.53796">
        <ele>139</ele>
        <time>2021-03-20 12:22:11</time>
      </trkpt>
      <trkpt lat="41.24602" lon="-8.53798">
        <ele>139</ele>
        <time>2021-03-20 12:22:12</time>
      </trkpt>
      <trkpt lat="41.24604" lon="-8.538">
        <ele>139.4</ele>
        <time>2021-03-20 12:22:13</time>
      </trkpt>
      <trkpt lat="41.24607" lon="-8.53802">
        <ele>139.6</ele>
        <time>2021-03-20 12:22:14</time>
      </trkpt>
      <trkpt lat="41.24609" lon="-8.53804">
        <ele>139.6</ele>
        <time>2021-03-20 12:22:15</time>
      </trkpt>
      <trkpt lat="41.24612" lon="-8.53805">
        <ele>140</ele>
        <time>2021-03-20 12:22:16</time>
      </trkpt>
      <trkpt lat="41.24614" lon="-8.53808">
        <ele>140.4</ele>
        <time>2021-03-20 12:22:17</time>
      </trkpt>
      <trkpt lat="41.24617" lon="-8.53809">
        <ele>140.8</ele>
        <time>2021-03-20 12:22:18</time>
      </trkpt>
      <trkpt lat="41.24619" lon="-8.53812">
        <ele>141</ele>
        <time>2021-03-20 12:22:19</time>
      </trkpt>
      <trkpt lat="41.24623" lon="-8.53815">
        <ele>141.2</ele>
        <time>2021-03-20 12:22:20</time>
      </trkpt>
      <trkpt lat="41.24625" lon="-8.53817">
        <ele>141.2</ele>
        <time>2021-03-20 12:22:21</time>
      </trkpt>
      <trkpt lat="41.24628" lon="-8.53821">
        <ele>141.2</ele>
        <time>2021-03-20 12:22:22</time>
      </trkpt>
      <trkpt lat="41.2463" lon="-8.53823">
        <ele>141.6</ele>
        <time>2021-03-20 12:22:23</time>
      </trkpt>
      <trkpt lat="41.24633" lon="-8.53826">
        <ele>141.8</ele>
        <time>2021-03-20 12:22:24</time>
      </trkpt>
      <trkpt lat="41.24636" lon="-8.53829">
        <ele>142.2</ele>
        <time>2021-03-20 12:22:25</time>
      </trkpt>
      <trkpt lat="41.24639" lon="-8.53832">
        <ele>142.4</ele>
        <time>2021-03-20 12:22:26</time>
      </trkpt>
      <trkpt lat="41.24641" lon="-8.53834">
        <ele>142.6</ele>
        <time>2021-03-20 12:22:27</time>
      </trkpt>
      <trkpt lat="41.24644" lon="-8.53836">
        <ele>142.6</ele>
        <time>2021-03-20 12:22:28</time>
      </trkpt>
      <trkpt lat="41.24648" lon="-8.53838">
        <ele>142.8</ele>
        <time>2021-03-20 12:22:29</time>
      </trkpt>
      <trkpt lat="41.2465" lon="-8.5384">
        <ele>143</ele>
        <time>2021-03-20 12:22:30</time>
      </trkpt>
      <trkpt lat="41.24655" lon="-8.53843">
        <ele>143.2</ele>
        <time>2021-03-20 12:22:31</time>
      </trkpt>
      <trkpt lat="41.24657" lon="-8.53844">
        <ele>143.6</ele>
        <time>2021-03-20 12:22:32</time>
      </trkpt>
      <trkpt lat="41.2466" lon="-8.53845">
        <ele>143.6</ele>
        <time>2021-03-20 12:22:33</time>
      </trkpt>
      <trkpt lat="41.24664" lon="-8.53846">
        <ele>143.8</ele>
        <time>2021-03-20 12:22:34</time>
      </trkpt>
      <trkpt lat="41.24668" lon="-8.53848">
        <ele>144.2</ele>
        <time>2021-03-20 12:22:35</time>
      </trkpt>
      <trkpt lat="41.2467" lon="-8.53849">
        <ele>144.4</ele>
        <time>2021-03-20 12:22:36</time>
      </trkpt>
      <trkpt lat="41.24673" lon="-8.53851">
        <ele>144.6</ele>
        <time>2021-03-20 12:22:37</time>
      </trkpt>
      <trkpt lat="41.24677" lon="-8.53852">
        <ele>144.8</ele>
        <time>2021-03-20 12:22:38</time>
      </trkpt>
      <trkpt lat="41.2468" lon="-8.53852">
        <ele>145</ele>
        <time>2021-03-20 12:22:39</time>
      </trkpt>
      <trkpt lat="41.24682" lon="-8.53852">
        <ele>145.2</ele>
        <time>2021-03-20 12:22:40</time>
      </trkpt>
      <trkpt lat="41.24684" lon="-8.53852">
        <ele>145.4</ele>
        <time>2021-03-20 12:22:41</time>
      </trkpt>
      <trkpt lat="41.24688" lon="-8.53851">
        <ele>145.6</ele>
        <time>2021-03-20 12:22:42</time>
      </trkpt>
      <trkpt lat="41.24691" lon="-8.5385">
        <ele>145.8</ele>
        <time>2021-03-20 12:22:43</time>
      </trkpt>
      <trkpt lat="41.24694" lon="-8.53849">
        <ele>146.2</ele>
        <time>2021-03-20 12:22:44</time>
      </trkpt>
      <trkpt lat="41.24698" lon="-8.53848">
        <ele>146.6</ele>
        <time>2021-03-20 12:22:45</time>
      </trkpt>
      <trkpt lat="41.247" lon="-8.53848">
        <ele>146.8</ele>
        <time>2021-03-20 12:22:46</time>
      </trkpt>
      <trkpt lat="41.24704" lon="-8.53848">
        <ele>147</ele>
        <time>2021-03-20 12:22:47</time>
      </trkpt>
      <trkpt lat="41.24708" lon="-8.53847">
        <ele>147</ele>
        <time>2021-03-20 12:22:48</time>
      </trkpt>
      <trkpt lat="41.24711" lon="-8.53846">
        <ele>147</ele>
        <time>2021-03-20 12:22:49</time>
      </trkpt>
      <trkpt lat="41.24714" lon="-8.53845">
        <ele>147.2</ele>
        <time>2021-03-20 12:22:50</time>
      </trkpt>
      <trkpt lat="41.24718" lon="-8.53843">
        <ele>147.4</ele>
        <time>2021-03-20 12:22:51</time>
      </trkpt>
      <trkpt lat="41.2472" lon="-8.53842">
        <ele>147.8</ele>
        <time>2021-03-20 12:22:52</time>
      </trkpt>
      <trkpt lat="41.24723" lon="-8.5384">
        <ele>148</ele>
        <time>2021-03-20 12:22:53</time>
      </trkpt>
      <trkpt lat="41.24726" lon="-8.53839">
        <ele>148.2</ele>
        <time>2021-03-20 12:22:54</time>
      </trkpt>
      <trkpt lat="41.24729" lon="-8.53837">
        <ele>148.6</ele>
        <time>2021-03-20 12:22:55</time>
      </trkpt>
      <trkpt lat="41.24731" lon="-8.53836">
        <ele>148.8</ele>
        <time>2021-03-20 12:22:56</time>
      </trkpt>
      <trkpt lat="41.24735" lon="-8.53835">
        <ele>149</ele>
        <time>2021-03-20 12:22:57</time>
      </trkpt>
      <trkpt lat="41.24739" lon="-8.53833">
        <ele>149.2</ele>
        <time>2021-03-20 12:22:58</time>
      </trkpt>
      <trkpt lat="41.24741" lon="-8.53832">
        <ele>149.6</ele>
        <time>2021-03-20 12:22:59</time>
      </trkpt>
      <trkpt lat="41.24744" lon="-8.53831">
        <ele>149.8</ele>
        <time>2021-03-20 12:23:00</time>
      </trkpt>
      <trkpt lat="41.24747" lon="-8.53829">
        <ele>150.4</ele>
        <time>2021-03-20 12:23:01</time>
      </trkpt>
      <trkpt lat="41.2475" lon="-8.53827">
        <ele>150.6</ele>
        <time>2021-03-20 12:23:02</time>
      </trkpt>
      <trkpt lat="41.24752" lon="-8.53827">
        <ele>150.8</ele>
        <time>2021-03-20 12:23:03</time>
      </trkpt>
      <trkpt lat="41.24755" lon="-8.53826">
        <ele>150.8</ele>
        <time>2021-03-20 12:23:04</time>
      </trkpt>
      <trkpt lat="41.24757" lon="-8.53825">
        <ele>151</ele>
        <time>2021-03-20 12:23:05</time>
      </trkpt>
      <trkpt lat="41.24759" lon="-8.53824">
        <ele>151.4</ele>
        <time>2021-03-20 12:23:06</time>
      </trkpt>
      <trkpt lat="41.2476" lon="-8.53824">
        <ele>151.6</ele>
        <time>2021-03-20 12:23:07</time>
      </trkpt>
      <trkpt lat="41.24763" lon="-8.53822">
        <ele>152</ele>
        <time>2021-03-20 12:23:08</time>
      </trkpt>
      <trkpt lat="41.24764" lon="-8.5382">
        <ele>152.6</ele>
        <time>2021-03-20 12:23:09</time>
      </trkpt>
      <trkpt lat="41.24767" lon="-8.53819">
        <ele>152.6</ele>
        <time>2021-03-20 12:23:10</time>
      </trkpt>
      <trkpt lat="41.24769" lon="-8.53817">
        <ele>152.6</ele>
        <time>2021-03-20 12:23:11</time>
      </trkpt>
      <trkpt lat="41.24771" lon="-8.53815">
        <ele>152.6</ele>
        <time>2021-03-20 12:23:12</time>
      </trkpt>
      <trkpt lat="41.24774" lon="-8.53813">
        <ele>152.8</ele>
        <time>2021-03-20 12:23:13</time>
      </trkpt>
      <trkpt lat="41.24778" lon="-8.53811">
        <ele>153</ele>
        <time>2021-03-20 12:23:14</time>
      </trkpt>
      <trkpt lat="41.24781" lon="-8.53808">
        <ele>153.4</ele>
        <time>2021-03-20 12:23:15</time>
      </trkpt>
      <trkpt lat="41.24784" lon="-8.53807">
        <ele>153.6</ele>
        <time>2021-03-20 12:23:16</time>
      </trkpt>
      <trkpt lat="41.24787" lon="-8.53804">
        <ele>153.8</ele>
        <time>2021-03-20 12:23:17</time>
      </trkpt>
      <trkpt lat="41.24789" lon="-8.53803">
        <ele>154</ele>
        <time>2021-03-20 12:23:18</time>
      </trkpt>
      <trkpt lat="41.24792" lon="-8.538">
        <ele>154.2</ele>
        <time>2021-03-20 12:23:19</time>
      </trkpt>
      <trkpt lat="41.24794" lon="-8.53797">
        <ele>154.4</ele>
        <time>2021-03-20 12:23:20</time>
      </trkpt>
      <trkpt lat="41.24797" lon="-8.53794">
        <ele>154.8</ele>
        <time>2021-03-20 12:23:21</time>
      </trkpt>
      <trkpt lat="41.24799" lon="-8.53791">
        <ele>155</ele>
        <time>2021-03-20 12:23:22</time>
      </trkpt>
      <trkpt lat="41.248" lon="-8.53789">
        <ele>155</ele>
        <time>2021-03-20 12:23:23</time>
      </trkpt>
      <trkpt lat="41.24803" lon="-8.53785">
        <ele>155.4</ele>
        <time>2021-03-20 12:23:24</time>
      </trkpt>
      <trkpt lat="41.24805" lon="-8.53782">
        <ele>155.6</ele>
        <time>2021-03-20 12:23:25</time>
      </trkpt>
      <trkpt lat="41.24806" lon="-8.53779">
        <ele>155.8</ele>
        <time>2021-03-20 12:23:26</time>
      </trkpt>
      <trkpt lat="41.24808" lon="-8.53776">
        <ele>156</ele>
        <time>2021-03-20 12:23:27</time>
      </trkpt>
      <trkpt lat="41.24809" lon="-8.53772">
        <ele>156</ele>
        <time>2021-03-20 12:23:28</time>
      </trkpt>
      <trkpt lat="41.24811" lon="-8.53769">
        <ele>156.4</ele>
        <time>2021-03-20 12:23:29</time>
      </trkpt>
      <trkpt lat="41.24814" lon="-8.53765">
        <ele>156.6</ele>
        <time>2021-03-20 12:23:30</time>
      </trkpt>
      <trkpt lat="41.24815" lon="-8.53761">
        <ele>156.8</ele>
        <time>2021-03-20 12:23:31</time>
      </trkpt>
      <trkpt lat="41.24817" lon="-8.53758">
        <ele>157.2</ele>
        <time>2021-03-20 12:23:32</time>
      </trkpt>
      <trkpt lat="41.24819" lon="-8.53754">
        <ele>157.2</ele>
        <time>2021-03-20 12:23:33</time>
      </trkpt>
      <trkpt lat="41.24822" lon="-8.53749">
        <ele>157.2</ele>
        <time>2021-03-20 12:23:34</time>
      </trkpt>
      <trkpt lat="41.24823" lon="-8.53746">
        <ele>157.6</ele>
        <time>2021-03-20 12:23:35</time>
      </trkpt>
      <trkpt lat="41.24825" lon="-8.53744">
        <ele>157.8</ele>
        <time>2021-03-20 12:23:36</time>
      </trkpt>
      <trkpt lat="41.24826" lon="-8.5374">
        <ele>157.6</ele>
        <time>2021-03-20 12:23:37</time>
      </trkpt>
      <trkpt lat="41.24828" lon="-8.53737">
        <ele>158</ele>
        <time>2021-03-20 12:23:38</time>
      </trkpt>
      <trkpt lat="41.24829" lon="-8.53735">
        <ele>158.2</ele>
        <time>2021-03-20 12:23:39</time>
      </trkpt>
      <trkpt lat="41.24831" lon="-8.5373">
        <ele>158.4</ele>
        <time>2021-03-20 12:23:40</time>
      </trkpt>
      <trkpt lat="41.24832" lon="-8.53726">
        <ele>158.6</ele>
        <time>2021-03-20 12:23:41</time>
      </trkpt>
      <trkpt lat="41.24834" lon="-8.53723">
        <ele>158.8</ele>
        <time>2021-03-20 12:23:42</time>
      </trkpt>
      <trkpt lat="41.24835" lon="-8.5372">
        <ele>159</ele>
        <time>2021-03-20 12:23:43</time>
      </trkpt>
      <trkpt lat="41.24836" lon="-8.53716">
        <ele>159</ele>
        <time>2021-03-20 12:23:44</time>
      </trkpt>
      <trkpt lat="41.24838" lon="-8.53713">
        <ele>159.4</ele>
        <time>2021-03-20 12:23:45</time>
      </trkpt>
      <trkpt lat="41.2484" lon="-8.53709">
        <ele>159.6</ele>
        <time>2021-03-20 12:23:46</time>
      </trkpt>
      <trkpt lat="41.24842" lon="-8.53706">
        <ele>159.6</ele>
        <time>2021-03-20 12:23:47</time>
      </trkpt>
      <trkpt lat="41.24844" lon="-8.53703">
        <ele>159.6</ele>
        <time>2021-03-20 12:23:48</time>
      </trkpt>
      <trkpt lat="41.24846" lon="-8.537">
        <ele>160.2</ele>
        <time>2021-03-20 12:23:49</time>
      </trkpt>
      <trkpt lat="41.24847" lon="-8.53697">
        <ele>160.8</ele>
        <time>2021-03-20 12:23:50</time>
      </trkpt>
      <trkpt lat="41.24849" lon="-8.53694">
        <ele>161</ele>
        <time>2021-03-20 12:23:51</time>
      </trkpt>
      <trkpt lat="41.2485" lon="-8.53691">
        <ele>161.2</ele>
        <time>2021-03-20 12:23:52</time>
      </trkpt>
      <trkpt lat="41.24852" lon="-8.53688">
        <ele>161.4</ele>
        <time>2021-03-20 12:23:53</time>
      </trkpt>
      <trkpt lat="41.24854" lon="-8.53687">
        <ele>162.2</ele>
        <time>2021-03-20 12:23:54</time>
      </trkpt>
      <trkpt lat="41.24857" lon="-8.53684">
        <ele>162.4</ele>
        <time>2021-03-20 12:23:55</time>
      </trkpt>
      <trkpt lat="41.24859" lon="-8.53683">
        <ele>162.6</ele>
        <time>2021-03-20 12:23:56</time>
      </trkpt>
      <trkpt lat="41.24862" lon="-8.5368">
        <ele>163</ele>
        <time>2021-03-20 12:23:57</time>
      </trkpt>
      <trkpt lat="41.24864" lon="-8.53678">
        <ele>163.2</ele>
        <time>2021-03-20 12:23:58</time>
      </trkpt>
      <trkpt lat="41.24866" lon="-8.53676">
        <ele>163.6</ele>
        <time>2021-03-20 12:23:59</time>
      </trkpt>
      <trkpt lat="41.24869" lon="-8.53672">
        <ele>164</ele>
        <time>2021-03-20 12:24:00</time>
      </trkpt>
      <trkpt lat="41.24872" lon="-8.5367">
        <ele>164.2</ele>
        <time>2021-03-20 12:24:01</time>
      </trkpt>
      <trkpt lat="41.24875" lon="-8.53667">
        <ele>164.6</ele>
        <time>2021-03-20 12:24:02</time>
      </trkpt>
      <trkpt lat="41.24876" lon="-8.53665">
        <ele>165</ele>
        <time>2021-03-20 12:24:03</time>
      </trkpt>
      <trkpt lat="41.24879" lon="-8.53662">
        <ele>165.4</ele>
        <time>2021-03-20 12:24:04</time>
      </trkpt>
      <trkpt lat="41.24881" lon="-8.53659">
        <ele>165.8</ele>
        <time>2021-03-20 12:24:05</time>
      </trkpt>
      <trkpt lat="41.24885" lon="-8.53656">
        <ele>166.2</ele>
        <time>2021-03-20 12:24:06</time>
      </trkpt>
      <trkpt lat="41.24887" lon="-8.53654">
        <ele>166.6</ele>
        <time>2021-03-20 12:24:07</time>
      </trkpt>
      <trkpt lat="41.24889" lon="-8.53652">
        <ele>167</ele>
        <time>2021-03-20 12:24:08</time>
      </trkpt>
      <trkpt lat="41.24892" lon="-8.53649">
        <ele>167</ele>
        <time>2021-03-20 12:24:09</time>
      </trkpt>
      <trkpt lat="41.24895" lon="-8.53646">
        <ele>167.8</ele>
        <time>2021-03-20 12:24:10</time>
      </trkpt>
      <trkpt lat="41.24897" lon="-8.53644">
        <ele>168.2</ele>
        <time>2021-03-20 12:24:11</time>
      </trkpt>
      <trkpt lat="41.249" lon="-8.53642">
        <ele>168.4</ele>
        <time>2021-03-20 12:24:12</time>
      </trkpt>
      <trkpt lat="41.24903" lon="-8.53639">
        <ele>169</ele>
        <time>2021-03-20 12:24:13</time>
      </trkpt>
      <trkpt lat="41.24907" lon="-8.53634">
        <ele>169.6</ele>
        <time>2021-03-20 12:24:14</time>
      </trkpt>
      <trkpt lat="41.24908" lon="-8.53632">
        <ele>170</ele>
        <time>2021-03-20 12:24:15</time>
      </trkpt>
      <trkpt lat="41.2491" lon="-8.5363">
        <ele>170.2</ele>
        <time>2021-03-20 12:24:16</time>
      </trkpt>
      <trkpt lat="41.24912" lon="-8.53627">
        <ele>170.4</ele>
        <time>2021-03-20 12:24:17</time>
      </trkpt>
      <trkpt lat="41.24919" lon="-8.53621">
        <ele>171</ele>
        <time>2021-03-20 12:24:18</time>
      </trkpt>
      <trkpt lat="41.24923" lon="-8.53617">
        <ele>171.4</ele>
        <time>2021-03-20 12:24:19</time>
      </trkpt>
      <trkpt lat="41.24927" lon="-8.53612">
        <ele>172</ele>
        <time>2021-03-20 12:24:20</time>
      </trkpt>
      <trkpt lat="41.2493" lon="-8.53609">
        <ele>172.2</ele>
        <time>2021-03-20 12:24:21</time>
      </trkpt>
      <trkpt lat="41.24933" lon="-8.53607">
        <ele>172.8</ele>
        <time>2021-03-20 12:24:22</time>
      </trkpt>
      <trkpt lat="41.24934" lon="-8.53605">
        <ele>173.6</ele>
        <time>2021-03-20 12:24:23</time>
      </trkpt>
      <trkpt lat="41.24939" lon="-8.536">
        <ele>174.2</ele>
        <time>2021-03-20 12:24:24</time>
      </trkpt>
      <trkpt lat="41.24941" lon="-8.53596">
        <ele>174.6</ele>
        <time>2021-03-20 12:24:25</time>
      </trkpt>
      <trkpt lat="41.24945" lon="-8.5359">
        <ele>175</ele>
        <time>2021-03-20 12:24:26</time>
      </trkpt>
      <trkpt lat="41.24947" lon="-8.53587">
        <ele>175.2</ele>
        <time>2021-03-20 12:24:27</time>
      </trkpt>
      <trkpt lat="41.2495" lon="-8.53581">
        <ele>175.6</ele>
        <time>2021-03-20 12:24:28</time>
      </trkpt>
      <trkpt lat="41.24953" lon="-8.53575">
        <ele>175.6</ele>
        <time>2021-03-20 12:24:29</time>
      </trkpt>
      <trkpt lat="41.24956" lon="-8.53569">
        <ele>175.6</ele>
        <time>2021-03-20 12:24:30</time>
      </trkpt>
      <trkpt lat="41.24957" lon="-8.53567">
        <ele>175.8</ele>
        <time>2021-03-20 12:24:31</time>
      </trkpt>
      <trkpt lat="41.24958" lon="-8.5356">
        <ele>176.2</ele>
        <time>2021-03-20 12:24:32</time>
      </trkpt>
      <trkpt lat="41.24959" lon="-8.53557">
        <ele>176.2</ele>
        <time>2021-03-20 12:24:33</time>
      </trkpt>
      <trkpt lat="41.2496" lon="-8.5355">
        <ele>176.6</ele>
        <time>2021-03-20 12:24:34</time>
      </trkpt>
      <trkpt lat="41.24961" lon="-8.53546">
        <ele>177</ele>
        <time>2021-03-20 12:24:35</time>
      </trkpt>
      <trkpt lat="41.24962" lon="-8.53539">
        <ele>177.2</ele>
        <time>2021-03-20 12:24:36</time>
      </trkpt>
      <trkpt lat="41.24963" lon="-8.53532">
        <ele>177.6</ele>
        <time>2021-03-20 12:24:37</time>
      </trkpt>
      <trkpt lat="41.24963" lon="-8.53525">
        <ele>178</ele>
        <time>2021-03-20 12:24:39</time>
      </trkpt>
      <trkpt lat="41.24963" lon="-8.53517">
        <ele>178.4</ele>
        <time>2021-03-20 12:24:40</time>
      </trkpt>
      <trkpt lat="41.24963" lon="-8.53512">
        <ele>178.8</ele>
        <time>2021-03-20 12:24:41</time>
      </trkpt>
      <trkpt lat="41.24963" lon="-8.53509">
        <ele>179</ele>
        <time>2021-03-20 12:24:42</time>
      </trkpt>
      <trkpt lat="41.24962" lon="-8.53502">
        <ele>179.2</ele>
        <time>2021-03-20 12:24:44</time>
      </trkpt>
      <trkpt lat="41.24962" lon="-8.53498">
        <ele>179.4</ele>
        <time>2021-03-20 12:24:45</time>
      </trkpt>
      <trkpt lat="41.24962" lon="-8.53492">
        <ele>179.8</ele>
        <time>2021-03-20 12:24:47</time>
      </trkpt>
      <trkpt lat="41.24961" lon="-8.53487">
        <ele>180</ele>
        <time>2021-03-20 12:24:48</time>
      </trkpt>
      <trkpt lat="41.24957" lon="-8.53476">
        <ele>180.2</ele>
        <time>2021-03-20 12:24:49</time>
      </trkpt>
      <trkpt lat="41.24956" lon="-8.53468">
        <ele>180.6</ele>
        <time>2021-03-20 12:24:50</time>
      </trkpt>
      <trkpt lat="41.24957" lon="-8.53458">
        <ele>180.8</ele>
        <time>2021-03-20 12:24:52</time>
      </trkpt>
      <trkpt lat="41.24953" lon="-8.53454">
        <ele>181</ele>
        <time>2021-03-20 12:24:53</time>
      </trkpt>
      <trkpt lat="41.24952" lon="-8.53443">
        <ele>181.2</ele>
        <time>2021-03-20 12:24:55</time>
      </trkpt>
      <trkpt lat="41.24951" lon="-8.53438">
        <ele>181.4</ele>
        <time>2021-03-20 12:24:56</time>
      </trkpt>
      <trkpt lat="41.24952" lon="-8.53431">
        <ele>181.6</ele>
        <time>2021-03-20 12:24:58</time>
      </trkpt>
      <trkpt lat="41.24953" lon="-8.53426">
        <ele>181.8</ele>
        <time>2021-03-20 12:25:00</time>
      </trkpt>
      <trkpt lat="41.24954" lon="-8.53419">
        <ele>182</ele>
        <time>2021-03-20 12:25:02</time>
      </trkpt>
      <trkpt lat="41.24956" lon="-8.53417">
        <ele>182.2</ele>
        <time>2021-03-20 12:25:03</time>
      </trkpt>
      <trkpt lat="41.24958" lon="-8.53409">
        <ele>182.4</ele>
        <time>2021-03-20 12:25:05</time>
      </trkpt>
      <trkpt lat="41.24959" lon="-8.53406">
        <ele>182.6</ele>
        <time>2021-03-20 12:25:06</time>
      </trkpt>
      <trkpt lat="41.24962" lon="-8.53401">
        <ele>182.6</ele>
        <time>2021-03-20 12:25:08</time>
      </trkpt>
      <trkpt lat="41.24966" lon="-8.53397">
        <ele>182.8</ele>
        <time>2021-03-20 12:25:09</time>
      </trkpt>
      <trkpt lat="41.24968" lon="-8.53396">
        <ele>183.2</ele>
        <time>2021-03-20 12:25:11</time>
      </trkpt>
      <trkpt lat="41.24972" lon="-8.53392">
        <ele>183.2</ele>
        <time>2021-03-20 12:25:13</time>
      </trkpt>
      <trkpt lat="41.24974" lon="-8.53391">
        <ele>183.4</ele>
        <time>2021-03-20 12:25:15</time>
      </trkpt>
      <trkpt lat="41.24979" lon="-8.53387">
        <ele>183.6</ele>
        <time>2021-03-20 12:25:17</time>
      </trkpt>
      <trkpt lat="41.24981" lon="-8.53387">
        <ele>183.8</ele>
        <time>2021-03-20 12:25:18</time>
      </trkpt>
      <trkpt lat="41.24983" lon="-8.53386">
        <ele>184.2</ele>
        <time>2021-03-20 12:25:19</time>
      </trkpt>
      <trkpt lat="41.24985" lon="-8.53385">
        <ele>184.4</ele>
        <time>2021-03-20 12:25:21</time>
      </trkpt>
      <trkpt lat="41.24987" lon="-8.53384">
        <ele>184.6</ele>
        <time>2021-03-20 12:25:22</time>
      </trkpt>
      <trkpt lat="41.24989" lon="-8.53383">
        <ele>185</ele>
        <time>2021-03-20 12:25:24</time>
      </trkpt>
      <trkpt lat="41.24991" lon="-8.53383">
        <ele>185.2</ele>
        <time>2021-03-20 12:25:25</time>
      </trkpt>
      <trkpt lat="41.24993" lon="-8.53382">
        <ele>185.4</ele>
        <time>2021-03-20 12:25:27</time>
      </trkpt>
      <trkpt lat="41.24994" lon="-8.53379">
        <ele>185.8</ele>
        <time>2021-03-20 12:25:29</time>
      </trkpt>
      <trkpt lat="41.24996" lon="-8.53379">
        <ele>186</ele>
        <time>2021-03-20 12:25:31</time>
      </trkpt>
      <trkpt lat="41.24999" lon="-8.53379">
        <ele>186.2</ele>
        <time>2021-03-20 12:25:33</time>
      </trkpt>
      <trkpt lat="41.25002" lon="-8.5338">
        <ele>186.4</ele>
        <time>2021-03-20 12:25:35</time>
      </trkpt>
      <trkpt lat="41.25004" lon="-8.53379">
        <ele>186.6</ele>
        <time>2021-03-20 12:25:36</time>
      </trkpt>
      <trkpt lat="41.25007" lon="-8.53381">
        <ele>186.8</ele>
        <time>2021-03-20 12:25:38</time>
      </trkpt>
      <trkpt lat="41.25011" lon="-8.5338">
        <ele>187.2</ele>
        <time>2021-03-20 12:25:39</time>
      </trkpt>
      <trkpt lat="41.25013" lon="-8.5338">
        <ele>187.4</ele>
        <time>2021-03-20 12:25:41</time>
      </trkpt>
      <trkpt lat="41.25016" lon="-8.53381">
        <ele>187.6</ele>
        <time>2021-03-20 12:25:42</time>
      </trkpt>
      <trkpt lat="41.25019" lon="-8.53381">
        <ele>187.8</ele>
        <time>2021-03-20 12:25:44</time>
      </trkpt>
      <trkpt lat="41.25021" lon="-8.53381">
        <ele>187.8</ele>
        <time>2021-03-20 12:25:45</time>
      </trkpt>
      <trkpt lat="41.25025" lon="-8.53383">
        <ele>188</ele>
        <time>2021-03-20 12:25:47</time>
      </trkpt>
      <trkpt lat="41.25028" lon="-8.53385">
        <ele>188.2</ele>
        <time>2021-03-20 12:25:49</time>
      </trkpt>
      <trkpt lat="41.25031" lon="-8.53387">
        <ele>188.4</ele>
        <time>2021-03-20 12:25:51</time>
      </trkpt>
      <trkpt lat="41.25033" lon="-8.53388">
        <ele>188.6</ele>
        <time>2021-03-20 12:25:52</time>
      </trkpt>
      <trkpt lat="41.25036" lon="-8.53391">
        <ele>188.6</ele>
        <time>2021-03-20 12:25:54</time>
      </trkpt>
      <trkpt lat="41.25039" lon="-8.53394">
        <ele>189</ele>
        <time>2021-03-20 12:25:55</time>
      </trkpt>
      <trkpt lat="41.25042" lon="-8.53396">
        <ele>189.2</ele>
        <time>2021-03-20 12:25:57</time>
      </trkpt>
      <trkpt lat="41.25044" lon="-8.53399">
        <ele>189.4</ele>
        <time>2021-03-20 12:25:58</time>
      </trkpt>
      <trkpt lat="41.25047" lon="-8.53401">
        <ele>189.6</ele>
        <time>2021-03-20 12:25:59</time>
      </trkpt>
      <trkpt lat="41.25049" lon="-8.53404">
        <ele>189.8</ele>
        <time>2021-03-20 12:26:00</time>
      </trkpt>
      <trkpt lat="41.25052" lon="-8.53406">
        <ele>190</ele>
        <time>2021-03-20 12:26:01</time>
      </trkpt>
      <trkpt lat="41.25055" lon="-8.53408">
        <ele>190.2</ele>
        <time>2021-03-20 12:26:02</time>
      </trkpt>
      <trkpt lat="41.25058" lon="-8.5341">
        <ele>190</ele>
        <time>2021-03-20 12:26:03</time>
      </trkpt>
      <trkpt lat="41.25062" lon="-8.53413">
        <ele>190.2</ele>
        <time>2021-03-20 12:26:04</time>
      </trkpt>
      <trkpt lat="41.25064" lon="-8.53415">
        <ele>190.4</ele>
        <time>2021-03-20 12:26:05</time>
      </trkpt>
      <trkpt lat="41.25067" lon="-8.53417">
        <ele>190.6</ele>
        <time>2021-03-20 12:26:06</time>
      </trkpt>
      <trkpt lat="41.2507" lon="-8.53419">
        <ele>190.8</ele>
        <time>2021-03-20 12:26:07</time>
      </trkpt>
      <trkpt lat="41.25072" lon="-8.53419">
        <ele>191.2</ele>
        <time>2021-03-20 12:26:08</time>
      </trkpt>
      <trkpt lat="41.25075" lon="-8.5342">
        <ele>191.4</ele>
        <time>2021-03-20 12:26:09</time>
      </trkpt>
      <trkpt lat="41.25077" lon="-8.53421">
        <ele>191.8</ele>
        <time>2021-03-20 12:26:10</time>
      </trkpt>
      <trkpt lat="41.2508" lon="-8.53423">
        <ele>191.8</ele>
        <time>2021-03-20 12:26:11</time>
      </trkpt>
      <trkpt lat="41.25082" lon="-8.53425">
        <ele>191.8</ele>
        <time>2021-03-20 12:26:12</time>
      </trkpt>
      <trkpt lat="41.25084" lon="-8.53425">
        <ele>192</ele>
        <time>2021-03-20 12:26:13</time>
      </trkpt>
      <trkpt lat="41.25088" lon="-8.53425">
        <ele>192.2</ele>
        <time>2021-03-20 12:26:14</time>
      </trkpt>
      <trkpt lat="41.2509" lon="-8.53425">
        <ele>192.6</ele>
        <time>2021-03-20 12:26:15</time>
      </trkpt>
      <trkpt lat="41.25092" lon="-8.53427">
        <ele>192.8</ele>
        <time>2021-03-20 12:26:16</time>
      </trkpt>
      <trkpt lat="41.25094" lon="-8.53425">
        <ele>193.2</ele>
        <time>2021-03-20 12:26:17</time>
      </trkpt>
      <trkpt lat="41.25097" lon="-8.53428">
        <ele>193.4</ele>
        <time>2021-03-20 12:26:18</time>
      </trkpt>
      <trkpt lat="41.25099" lon="-8.53426">
        <ele>193.6</ele>
        <time>2021-03-20 12:26:19</time>
      </trkpt>
      <trkpt lat="41.25101" lon="-8.53423">
        <ele>193.6</ele>
        <time>2021-03-20 12:26:20</time>
      </trkpt>
      <trkpt lat="41.25109" lon="-8.53419">
        <ele>193.6</ele>
        <time>2021-03-20 12:26:21</time>
      </trkpt>
      <trkpt lat="41.25111" lon="-8.53417">
        <ele>193.6</ele>
        <time>2021-03-20 12:26:22</time>
      </trkpt>
      <trkpt lat="41.25113" lon="-8.53418">
        <ele>193.8</ele>
        <time>2021-03-20 12:26:23</time>
      </trkpt>
      <trkpt lat="41.25115" lon="-8.53416">
        <ele>194.2</ele>
        <time>2021-03-20 12:26:24</time>
      </trkpt>
      <trkpt lat="41.25118" lon="-8.53415">
        <ele>194.2</ele>
        <time>2021-03-20 12:26:25</time>
      </trkpt>
      <trkpt lat="41.25121" lon="-8.53412">
        <ele>194.6</ele>
        <time>2021-03-20 12:26:26</time>
      </trkpt>
      <trkpt lat="41.25122" lon="-8.53411">
        <ele>194.6</ele>
        <time>2021-03-20 12:26:27</time>
      </trkpt>
      <trkpt lat="41.25124" lon="-8.5341">
        <ele>194.6</ele>
        <time>2021-03-20 12:26:28</time>
      </trkpt>
      <trkpt lat="41.25128" lon="-8.53409">
        <ele>194.6</ele>
        <time>2021-03-20 12:26:29</time>
      </trkpt>
      <trkpt lat="41.25131" lon="-8.53408">
        <ele>194.8</ele>
        <time>2021-03-20 12:26:30</time>
      </trkpt>
      <trkpt lat="41.25135" lon="-8.53407">
        <ele>194.6</ele>
        <time>2021-03-20 12:26:31</time>
      </trkpt>
      <trkpt lat="41.25137" lon="-8.53407">
        <ele>194.8</ele>
        <time>2021-03-20 12:26:32</time>
      </trkpt>
      <trkpt lat="41.25138" lon="-8.53405">
        <ele>194.8</ele>
        <time>2021-03-20 12:26:33</time>
      </trkpt>
      <trkpt lat="41.25141" lon="-8.53402">
        <ele>194.8</ele>
        <time>2021-03-20 12:26:34</time>
      </trkpt>
      <trkpt lat="41.25145" lon="-8.53401">
        <ele>194.6</ele>
        <time>2021-03-20 12:26:35</time>
      </trkpt>
      <trkpt lat="41.25148" lon="-8.534">
        <ele>194.8</ele>
        <time>2021-03-20 12:26:36</time>
      </trkpt>
      <trkpt lat="41.2515" lon="-8.53399">
        <ele>195</ele>
        <time>2021-03-20 12:26:37</time>
      </trkpt>
      <trkpt lat="41.25154" lon="-8.53396">
        <ele>194.8</ele>
        <time>2021-03-20 12:26:38</time>
      </trkpt>
      <trkpt lat="41.25157" lon="-8.53393">
        <ele>195</ele>
        <time>2021-03-20 12:26:39</time>
      </trkpt>
      <trkpt lat="41.2516" lon="-8.5339">
        <ele>195</ele>
        <time>2021-03-20 12:26:40</time>
      </trkpt>
      <trkpt lat="41.25162" lon="-8.53387">
        <ele>195.2</ele>
        <time>2021-03-20 12:26:41</time>
      </trkpt>
      <trkpt lat="41.25164" lon="-8.53384">
        <ele>195.4</ele>
        <time>2021-03-20 12:26:42</time>
      </trkpt>
      <trkpt lat="41.25167" lon="-8.53381">
        <ele>195</ele>
        <time>2021-03-20 12:26:43</time>
      </trkpt>
      <trkpt lat="41.25169" lon="-8.53377">
        <ele>195</ele>
        <time>2021-03-20 12:26:44</time>
      </trkpt>
      <trkpt lat="41.2517" lon="-8.53374">
        <ele>195</ele>
        <time>2021-03-20 12:26:45</time>
      </trkpt>
      <trkpt lat="41.25171" lon="-8.53372">
        <ele>195</ele>
        <time>2021-03-20 12:26:46</time>
      </trkpt>
      <trkpt lat="41.25172" lon="-8.53369">
        <ele>195</ele>
        <time>2021-03-20 12:26:47</time>
      </trkpt>
      <trkpt lat="41.25174" lon="-8.53366">
        <ele>195.2</ele>
        <time>2021-03-20 12:26:48</time>
      </trkpt>
      <trkpt lat="41.25176" lon="-8.53361">
        <ele>195.4</ele>
        <time>2021-03-20 12:26:49</time>
      </trkpt>
      <trkpt lat="41.25177" lon="-8.53359">
        <ele>195.4</ele>
        <time>2021-03-20 12:26:50</time>
      </trkpt>
      <trkpt lat="41.25178" lon="-8.53356">
        <ele>195.6</ele>
        <time>2021-03-20 12:26:51</time>
      </trkpt>
      <trkpt lat="41.2518" lon="-8.5335">
        <ele>195.6</ele>
        <time>2021-03-20 12:26:52</time>
      </trkpt>
      <trkpt lat="41.25183" lon="-8.53345">
        <ele>195.6</ele>
        <time>2021-03-20 12:26:53</time>
      </trkpt>
      <trkpt lat="41.25184" lon="-8.53341">
        <ele>195.6</ele>
        <time>2021-03-20 12:26:54</time>
      </trkpt>
      <trkpt lat="41.25186" lon="-8.53338">
        <ele>195.6</ele>
        <time>2021-03-20 12:26:55</time>
      </trkpt>
      <trkpt lat="41.25189" lon="-8.53334">
        <ele>195.6</ele>
        <time>2021-03-20 12:26:56</time>
      </trkpt>
      <trkpt lat="41.25192" lon="-8.53331">
        <ele>195.6</ele>
        <time>2021-03-20 12:26:57</time>
      </trkpt>
      <trkpt lat="41.25194" lon="-8.53326">
        <ele>195.8</ele>
        <time>2021-03-20 12:26:58</time>
      </trkpt>
      <trkpt lat="41.25196" lon="-8.53323">
        <ele>195.8</ele>
        <time>2021-03-20 12:26:59</time>
      </trkpt>
      <trkpt lat="41.252" lon="-8.53319">
        <ele>195.8</ele>
        <time>2021-03-20 12:27:00</time>
      </trkpt>
      <trkpt lat="41.25203" lon="-8.53316">
        <ele>195.8</ele>
        <time>2021-03-20 12:27:01</time>
      </trkpt>
      <trkpt lat="41.25207" lon="-8.53314">
        <ele>195.6</ele>
        <time>2021-03-20 12:27:02</time>
      </trkpt>
      <trkpt lat="41.2521" lon="-8.53312">
        <ele>195.4</ele>
        <time>2021-03-20 12:27:03</time>
      </trkpt>
      <trkpt lat="41.25214" lon="-8.5331">
        <ele>195.2</ele>
        <time>2021-03-20 12:27:04</time>
      </trkpt>
      <trkpt lat="41.25217" lon="-8.53307">
        <ele>195.2</ele>
        <time>2021-03-20 12:27:05</time>
      </trkpt>
      <trkpt lat="41.25222" lon="-8.53305">
        <ele>194.8</ele>
        <time>2021-03-20 12:27:06</time>
      </trkpt>
      <trkpt lat="41.25225" lon="-8.53304">
        <ele>194.6</ele>
        <time>2021-03-20 12:27:07</time>
      </trkpt>
      <trkpt lat="41.25229" lon="-8.53301">
        <ele>194.2</ele>
        <time>2021-03-20 12:27:08</time>
      </trkpt>
      <trkpt lat="41.25233" lon="-8.53299">
        <ele>193.8</ele>
        <time>2021-03-20 12:27:09</time>
      </trkpt>
      <trkpt lat="41.25236" lon="-8.53297">
        <ele>193.6</ele>
        <time>2021-03-20 12:27:10</time>
      </trkpt>
      <trkpt lat="41.2524" lon="-8.53295">
        <ele>193</ele>
        <time>2021-03-20 12:27:11</time>
      </trkpt>
      <trkpt lat="41.25244" lon="-8.53293">
        <ele>192.8</ele>
        <time>2021-03-20 12:27:12</time>
      </trkpt>
      <trkpt lat="41.25248" lon="-8.5329">
        <ele>192.8</ele>
        <time>2021-03-20 12:27:13</time>
      </trkpt>
      <trkpt lat="41.25252" lon="-8.53288">
        <ele>192.6</ele>
        <time>2021-03-20 12:27:14</time>
      </trkpt>
      <trkpt lat="41.25256" lon="-8.53286">
        <ele>192.8</ele>
        <time>2021-03-20 12:27:15</time>
      </trkpt>
      <trkpt lat="41.25261" lon="-8.53284">
        <ele>192.6</ele>
        <time>2021-03-20 12:27:16</time>
      </trkpt>
      <trkpt lat="41.25264" lon="-8.53282">
        <ele>192.6</ele>
        <time>2021-03-20 12:27:17</time>
      </trkpt>
      <trkpt lat="41.2527" lon="-8.5328">
        <ele>192.6</ele>
        <time>2021-03-20 12:27:18</time>
      </trkpt>
      <trkpt lat="41.25275" lon="-8.53278">
        <ele>192.8</ele>
        <time>2021-03-20 12:27:19</time>
      </trkpt>
      <trkpt lat="41.25279" lon="-8.53277">
        <ele>193</ele>
        <time>2021-03-20 12:27:20</time>
      </trkpt>
      <trkpt lat="41.25283" lon="-8.53276">
        <ele>193</ele>
        <time>2021-03-20 12:27:21</time>
      </trkpt>
      <trkpt lat="41.25289" lon="-8.53275">
        <ele>193</ele>
        <time>2021-03-20 12:27:22</time>
      </trkpt>
      <trkpt lat="41.25293" lon="-8.53275">
        <ele>193.2</ele>
        <time>2021-03-20 12:27:23</time>
      </trkpt>
      <trkpt lat="41.25298" lon="-8.53274">
        <ele>193.2</ele>
        <time>2021-03-20 12:27:24</time>
      </trkpt>
      <trkpt lat="41.25302" lon="-8.53273">
        <ele>193.2</ele>
        <time>2021-03-20 12:27:25</time>
      </trkpt>
      <trkpt lat="41.25307" lon="-8.53273">
        <ele>193</ele>
        <time>2021-03-20 12:27:26</time>
      </trkpt>
      <trkpt lat="41.2531" lon="-8.53272">
        <ele>193</ele>
        <time>2021-03-20 12:27:27</time>
      </trkpt>
      <trkpt lat="41.25314" lon="-8.53272">
        <ele>192.8</ele>
        <time>2021-03-20 12:27:28</time>
      </trkpt>
      <trkpt lat="41.25319" lon="-8.53272">
        <ele>192.4</ele>
        <time>2021-03-20 12:27:29</time>
      </trkpt>
      <trkpt lat="41.25322" lon="-8.53272">
        <ele>192.4</ele>
        <time>2021-03-20 12:27:30</time>
      </trkpt>
      <trkpt lat="41.25326" lon="-8.53272">
        <ele>192.2</ele>
        <time>2021-03-20 12:27:31</time>
      </trkpt>
      <trkpt lat="41.2533" lon="-8.53271">
        <ele>192.2</ele>
        <time>2021-03-20 12:27:32</time>
      </trkpt>
      <trkpt lat="41.25335" lon="-8.53271">
        <ele>192</ele>
        <time>2021-03-20 12:27:33</time>
      </trkpt>
      <trkpt lat="41.25339" lon="-8.53272">
        <ele>191.6</ele>
        <time>2021-03-20 12:27:34</time>
      </trkpt>
      <trkpt lat="41.25344" lon="-8.53273">
        <ele>191.2</ele>
        <time>2021-03-20 12:27:35</time>
      </trkpt>
      <trkpt lat="41.25348" lon="-8.53273">
        <ele>190.6</ele>
        <time>2021-03-20 12:27:36</time>
      </trkpt>
      <trkpt lat="41.25353" lon="-8.53275">
        <ele>190.8</ele>
        <time>2021-03-20 12:27:37</time>
      </trkpt>
      <trkpt lat="41.25359" lon="-8.53276">
        <ele>190.4</ele>
        <time>2021-03-20 12:27:38</time>
      </trkpt>
      <trkpt lat="41.25365" lon="-8.53277">
        <ele>190</ele>
        <time>2021-03-20 12:27:39</time>
      </trkpt>
      <trkpt lat="41.25371" lon="-8.53278">
        <ele>189.6</ele>
        <time>2021-03-20 12:27:40</time>
      </trkpt>
      <trkpt lat="41.25377" lon="-8.53278">
        <ele>189</ele>
        <time>2021-03-20 12:27:41</time>
      </trkpt>
      <trkpt lat="41.25382" lon="-8.53278">
        <ele>188.2</ele>
        <time>2021-03-20 12:27:42</time>
      </trkpt>
      <trkpt lat="41.25388" lon="-8.53277">
        <ele>188</ele>
        <time>2021-03-20 12:27:43</time>
      </trkpt>
      <trkpt lat="41.25394" lon="-8.53274">
        <ele>187.8</ele>
        <time>2021-03-20 12:27:44</time>
      </trkpt>
      <trkpt lat="41.254" lon="-8.53271">
        <ele>187.2</ele>
        <time>2021-03-20 12:27:45</time>
      </trkpt>
      <trkpt lat="41.25404" lon="-8.53269">
        <ele>186.8</ele>
        <time>2021-03-20 12:27:46</time>
      </trkpt>
      <trkpt lat="41.2541" lon="-8.53266">
        <ele>186.4</ele>
        <time>2021-03-20 12:27:47</time>
      </trkpt>
      <trkpt lat="41.25416" lon="-8.53262">
        <ele>186</ele>
        <time>2021-03-20 12:27:48</time>
      </trkpt>
      <trkpt lat="41.2542" lon="-8.5326">
        <ele>185.6</ele>
        <time>2021-03-20 12:27:49</time>
      </trkpt>
      <trkpt lat="41.25427" lon="-8.53256">
        <ele>185.2</ele>
        <time>2021-03-20 12:27:50</time>
      </trkpt>
      <trkpt lat="41.25432" lon="-8.53254">
        <ele>184.8</ele>
        <time>2021-03-20 12:27:51</time>
      </trkpt>
      <trkpt lat="41.25437" lon="-8.53249">
        <ele>184.4</ele>
        <time>2021-03-20 12:27:52</time>
      </trkpt>
      <trkpt lat="41.2544" lon="-8.53246">
        <ele>184</ele>
        <time>2021-03-20 12:27:53</time>
      </trkpt>
      <trkpt lat="41.25446" lon="-8.53242">
        <ele>183.8</ele>
        <time>2021-03-20 12:27:54</time>
      </trkpt>
      <trkpt lat="41.25451" lon="-8.53238">
        <ele>183.2</ele>
        <time>2021-03-20 12:27:55</time>
      </trkpt>
      <trkpt lat="41.25457" lon="-8.53234">
        <ele>182.8</ele>
        <time>2021-03-20 12:27:56</time>
      </trkpt>
      <trkpt lat="41.25461" lon="-8.53231">
        <ele>182.4</ele>
        <time>2021-03-20 12:27:57</time>
      </trkpt>
      <trkpt lat="41.25466" lon="-8.53228">
        <ele>182.2</ele>
        <time>2021-03-20 12:27:58</time>
      </trkpt>
      <trkpt lat="41.2547" lon="-8.53227">
        <ele>181.6</ele>
        <time>2021-03-20 12:27:59</time>
      </trkpt>
      <trkpt lat="41.25476" lon="-8.53224">
        <ele>181.4</ele>
        <time>2021-03-20 12:28:00</time>
      </trkpt>
      <trkpt lat="41.25483" lon="-8.53221">
        <ele>180.8</ele>
        <time>2021-03-20 12:28:01</time>
      </trkpt>
      <trkpt lat="41.25489" lon="-8.5322">
        <ele>180.2</ele>
        <time>2021-03-20 12:28:02</time>
      </trkpt>
      <trkpt lat="41.25495" lon="-8.53219">
        <ele>179.8</ele>
        <time>2021-03-20 12:28:03</time>
      </trkpt>
      <trkpt lat="41.25502" lon="-8.53218">
        <ele>179.4</ele>
        <time>2021-03-20 12:28:04</time>
      </trkpt>
      <trkpt lat="41.25509" lon="-8.53219">
        <ele>178.6</ele>
        <time>2021-03-20 12:28:05</time>
      </trkpt>
      <trkpt lat="41.25513" lon="-8.5322">
        <ele>178.2</ele>
        <time>2021-03-20 12:28:06</time>
      </trkpt>
      <trkpt lat="41.25521" lon="-8.53223">
        <ele>177.8</ele>
        <time>2021-03-20 12:28:07</time>
      </trkpt>
      <trkpt lat="41.25528" lon="-8.53225">
        <ele>177.4</ele>
        <time>2021-03-20 12:28:08</time>
      </trkpt>
      <trkpt lat="41.25534" lon="-8.53228">
        <ele>176.8</ele>
        <time>2021-03-20 12:28:09</time>
      </trkpt>
      <trkpt lat="41.25541" lon="-8.53232">
        <ele>176.2</ele>
        <time>2021-03-20 12:28:10</time>
      </trkpt>
      <trkpt lat="41.25546" lon="-8.53236">
        <ele>175.4</ele>
        <time>2021-03-20 12:28:11</time>
      </trkpt>
      <trkpt lat="41.25551" lon="-8.53237">
        <ele>175.2</ele>
        <time>2021-03-20 12:28:12</time>
      </trkpt>
      <trkpt lat="41.25558" lon="-8.53239">
        <ele>175.6</ele>
        <time>2021-03-20 12:28:13</time>
      </trkpt>
      <trkpt lat="41.25565" lon="-8.53242">
        <ele>175.6</ele>
        <time>2021-03-20 12:28:14</time>
      </trkpt>
      <trkpt lat="41.25578" lon="-8.53245">
        <ele>175.6</ele>
        <time>2021-03-20 12:28:15</time>
      </trkpt>
      <trkpt lat="41.25594" lon="-8.53246">
        <ele>175.4</ele>
        <time>2021-03-20 12:28:16</time>
      </trkpt>
      <trkpt lat="41.25616" lon="-8.53245">
        <ele>174.4</ele>
        <time>2021-03-20 12:28:17</time>
      </trkpt>
      <trkpt lat="41.25625" lon="-8.53244">
        <ele>174</ele>
        <time>2021-03-20 12:28:18</time>
      </trkpt>
      <trkpt lat="41.25632" lon="-8.53244">
        <ele>173.8</ele>
        <time>2021-03-20 12:28:19</time>
      </trkpt>
      <trkpt lat="41.25638" lon="-8.53244">
        <ele>173</ele>
        <time>2021-03-20 12:28:20</time>
      </trkpt>
      <trkpt lat="41.25644" lon="-8.53246">
        <ele>172.4</ele>
        <time>2021-03-20 12:28:21</time>
      </trkpt>
      <trkpt lat="41.25651" lon="-8.53246">
        <ele>171.8</ele>
        <time>2021-03-20 12:28:22</time>
      </trkpt>
      <trkpt lat="41.2567" lon="-8.53247">
        <ele>171.6</ele>
        <time>2021-03-20 12:28:23</time>
      </trkpt>
      <trkpt lat="41.25678" lon="-8.53251">
        <ele>170.8</ele>
        <time>2021-03-20 12:28:24</time>
      </trkpt>
      <trkpt lat="41.25686" lon="-8.53251">
        <ele>170.2</ele>
        <time>2021-03-20 12:28:25</time>
      </trkpt>
      <trkpt lat="41.25692" lon="-8.53254">
        <ele>169.6</ele>
        <time>2021-03-20 12:28:26</time>
      </trkpt>
      <trkpt lat="41.25701" lon="-8.53258">
        <ele>169.6</ele>
        <time>2021-03-20 12:28:27</time>
      </trkpt>
      <trkpt lat="41.25709" lon="-8.53261">
        <ele>169.6</ele>
        <time>2021-03-20 12:28:28</time>
      </trkpt>
      <trkpt lat="41.25718" lon="-8.53266">
        <ele>169.2</ele>
        <time>2021-03-20 12:28:29</time>
      </trkpt>
      <trkpt lat="41.25727" lon="-8.53266">
        <ele>169</ele>
        <time>2021-03-20 12:28:30</time>
      </trkpt>
      <trkpt lat="41.25735" lon="-8.5327">
        <ele>168.4</ele>
        <time>2021-03-20 12:28:31</time>
      </trkpt>
      <trkpt lat="41.25741" lon="-8.53272">
        <ele>168</ele>
        <time>2021-03-20 12:28:32</time>
      </trkpt>
      <trkpt lat="41.2575" lon="-8.53275">
        <ele>167.4</ele>
        <time>2021-03-20 12:28:33</time>
      </trkpt>
      <trkpt lat="41.25758" lon="-8.53273">
        <ele>167</ele>
        <time>2021-03-20 12:28:34</time>
      </trkpt>
      <trkpt lat="41.25766" lon="-8.53274">
        <ele>166.4</ele>
        <time>2021-03-20 12:28:35</time>
      </trkpt>
      <trkpt lat="41.25773" lon="-8.53271">
        <ele>166</ele>
        <time>2021-03-20 12:28:36</time>
      </trkpt>
      <trkpt lat="41.25776" lon="-8.53268">
        <ele>165.4</ele>
        <time>2021-03-20 12:28:37</time>
      </trkpt>
      <trkpt lat="41.2578" lon="-8.53258">
        <ele>165</ele>
        <time>2021-03-20 12:28:38</time>
      </trkpt>
      <trkpt lat="41.25783" lon="-8.53246">
        <ele>165</ele>
        <time>2021-03-20 12:28:39</time>
      </trkpt>
      <trkpt lat="41.25788" lon="-8.53236">
        <ele>164.6</ele>
        <time>2021-03-20 12:28:40</time>
      </trkpt>
      <trkpt lat="41.25792" lon="-8.53229">
        <ele>164.4</ele>
        <time>2021-03-20 12:28:41</time>
      </trkpt>
      <trkpt lat="41.25798" lon="-8.5322">
        <ele>163.8</ele>
        <time>2021-03-20 12:28:42</time>
      </trkpt>
      <trkpt lat="41.25804" lon="-8.53209">
        <ele>163.2</ele>
        <time>2021-03-20 12:28:43</time>
      </trkpt>
      <trkpt lat="41.2581" lon="-8.532">
        <ele>162.2</ele>
        <time>2021-03-20 12:28:44</time>
      </trkpt>
      <trkpt lat="41.25816" lon="-8.53194">
        <ele>161.4</ele>
        <time>2021-03-20 12:28:45</time>
      </trkpt>
      <trkpt lat="41.25825" lon="-8.53188">
        <ele>160.8</ele>
        <time>2021-03-20 12:28:46</time>
      </trkpt>
      <trkpt lat="41.25834" lon="-8.53183">
        <ele>160.8</ele>
        <time>2021-03-20 12:28:47</time>
      </trkpt>
      <trkpt lat="41.25843" lon="-8.5318">
        <ele>160.4</ele>
        <time>2021-03-20 12:28:48</time>
      </trkpt>
      <trkpt lat="41.25852" lon="-8.53178">
        <ele>160.2</ele>
        <time>2021-03-20 12:28:49</time>
      </trkpt>
      <trkpt lat="41.25859" lon="-8.53177">
        <ele>159.6</ele>
        <time>2021-03-20 12:28:50</time>
      </trkpt>
      <trkpt lat="41.25869" lon="-8.53175">
        <ele>159</ele>
        <time>2021-03-20 12:28:51</time>
      </trkpt>
      <trkpt lat="41.25879" lon="-8.53175">
        <ele>158.2</ele>
        <time>2021-03-20 12:28:52</time>
      </trkpt>
      <trkpt lat="41.2589" lon="-8.53174">
        <ele>157.6</ele>
        <time>2021-03-20 12:28:53</time>
      </trkpt>
      <trkpt lat="41.25899" lon="-8.53175">
        <ele>157.4</ele>
        <time>2021-03-20 12:28:54</time>
      </trkpt>
      <trkpt lat="41.25906" lon="-8.53176">
        <ele>156.8</ele>
        <time>2021-03-20 12:28:55</time>
      </trkpt>
      <trkpt lat="41.25915" lon="-8.53181">
        <ele>156.2</ele>
        <time>2021-03-20 12:28:56</time>
      </trkpt>
      <trkpt lat="41.25922" lon="-8.53188">
        <ele>155.2</ele>
        <time>2021-03-20 12:28:57</time>
      </trkpt>
      <trkpt lat="41.2593" lon="-8.53195">
        <ele>154.4</ele>
        <time>2021-03-20 12:28:58</time>
      </trkpt>
      <trkpt lat="41.25936" lon="-8.53201">
        <ele>154.2</ele>
        <time>2021-03-20 12:28:59</time>
      </trkpt>
      <trkpt lat="41.25943" lon="-8.5321">
        <ele>154</ele>
        <time>2021-03-20 12:29:00</time>
      </trkpt>
      <trkpt lat="41.25951" lon="-8.53219">
        <ele>153.8</ele>
        <time>2021-03-20 12:29:01</time>
      </trkpt>
      <trkpt lat="41.25959" lon="-8.53226">
        <ele>153.4</ele>
        <time>2021-03-20 12:29:02</time>
      </trkpt>
      <trkpt lat="41.25968" lon="-8.53233">
        <ele>153.2</ele>
        <time>2021-03-20 12:29:03</time>
      </trkpt>
      <trkpt lat="41.25974" lon="-8.53238">
        <ele>153</ele>
        <time>2021-03-20 12:29:04</time>
      </trkpt>
      <trkpt lat="41.25992" lon="-8.53244">
        <ele>152.6</ele>
        <time>2021-03-20 12:29:05</time>
      </trkpt>
      <trkpt lat="41.26019" lon="-8.53258">
        <ele>152.2</ele>
        <time>2021-03-20 12:29:06</time>
      </trkpt>
      <trkpt lat="41.26027" lon="-8.53264">
        <ele>151.8</ele>
        <time>2021-03-20 12:29:07</time>
      </trkpt>
      <trkpt lat="41.26037" lon="-8.53268">
        <ele>151.6</ele>
        <time>2021-03-20 12:29:08</time>
      </trkpt>
      <trkpt lat="41.26046" lon="-8.53268">
        <ele>151</ele>
        <time>2021-03-20 12:29:09</time>
      </trkpt>
      <trkpt lat="41.26055" lon="-8.53264">
        <ele>150.8</ele>
        <time>2021-03-20 12:29:10</time>
      </trkpt>
      <trkpt lat="41.26064" lon="-8.53258">
        <ele>150.2</ele>
        <time>2021-03-20 12:29:11</time>
      </trkpt>
      <trkpt lat="41.26073" lon="-8.53252">
        <ele>149.8</ele>
        <time>2021-03-20 12:29:12</time>
      </trkpt>
      <trkpt lat="41.26082" lon="-8.53247">
        <ele>149</ele>
        <time>2021-03-20 12:29:13</time>
      </trkpt>
      <trkpt lat="41.26094" lon="-8.53243">
        <ele>148.6</ele>
        <time>2021-03-20 12:29:14</time>
      </trkpt>
      <trkpt lat="41.26101" lon="-8.53242">
        <ele>147.8</ele>
        <time>2021-03-20 12:29:15</time>
      </trkpt>
      <trkpt lat="41.2611" lon="-8.53243">
        <ele>147.4</ele>
        <time>2021-03-20 12:29:16</time>
      </trkpt>
      <trkpt lat="41.26122" lon="-8.53248">
        <ele>147.2</ele>
        <time>2021-03-20 12:29:17</time>
      </trkpt>
      <trkpt lat="41.26128" lon="-8.53251">
        <ele>146.6</ele>
        <time>2021-03-20 12:29:18</time>
      </trkpt>
      <trkpt lat="41.26134" lon="-8.5326">
        <ele>145.8</ele>
        <time>2021-03-20 12:29:19</time>
      </trkpt>
      <trkpt lat="41.26141" lon="-8.53273">
        <ele>145.4</ele>
        <time>2021-03-20 12:29:20</time>
      </trkpt>
      <trkpt lat="41.2615" lon="-8.53284">
        <ele>144.6</ele>
        <time>2021-03-20 12:29:21</time>
      </trkpt>
      <trkpt lat="41.26157" lon="-8.53287">
        <ele>144.2</ele>
        <time>2021-03-20 12:29:22</time>
      </trkpt>
      <trkpt lat="41.26165" lon="-8.53286">
        <ele>143.8</ele>
        <time>2021-03-20 12:29:23</time>
      </trkpt>
      <trkpt lat="41.26174" lon="-8.53283">
        <ele>143.2</ele>
        <time>2021-03-20 12:29:24</time>
      </trkpt>
      <trkpt lat="41.26184" lon="-8.53278">
        <ele>142.4</ele>
        <time>2021-03-20 12:29:25</time>
      </trkpt>
      <trkpt lat="41.26191" lon="-8.53275">
        <ele>142.2</ele>
        <time>2021-03-20 12:29:26</time>
      </trkpt>
      <trkpt lat="41.26201" lon="-8.53272">
        <ele>142.4</ele>
        <time>2021-03-20 12:29:27</time>
      </trkpt>
      <trkpt lat="41.26211" lon="-8.53271">
        <ele>142.6</ele>
        <time>2021-03-20 12:29:28</time>
      </trkpt>
      <trkpt lat="41.26218" lon="-8.53272">
        <ele>142.2</ele>
        <time>2021-03-20 12:29:29</time>
      </trkpt>
      <trkpt lat="41.26228" lon="-8.53276">
        <ele>141.6</ele>
        <time>2021-03-20 12:29:30</time>
      </trkpt>
      <trkpt lat="41.26238" lon="-8.53281">
        <ele>140.2</ele>
        <time>2021-03-20 12:29:31</time>
      </trkpt>
      <trkpt lat="41.26244" lon="-8.53285">
        <ele>138.8</ele>
        <time>2021-03-20 12:29:32</time>
      </trkpt>
      <trkpt lat="41.26254" lon="-8.53292">
        <ele>137.8</ele>
        <time>2021-03-20 12:29:33</time>
      </trkpt>
      <trkpt lat="41.26261" lon="-8.53301">
        <ele>137</ele>
        <time>2021-03-20 12:29:34</time>
      </trkpt>
      <trkpt lat="41.26267" lon="-8.53311">
        <ele>137</ele>
        <time>2021-03-20 12:29:35</time>
      </trkpt>
      <trkpt lat="41.26272" lon="-8.53322">
        <ele>136.8</ele>
        <time>2021-03-20 12:29:36</time>
      </trkpt>
      <trkpt lat="41.26275" lon="-8.53329">
        <ele>136.4</ele>
        <time>2021-03-20 12:29:37</time>
      </trkpt>
      <trkpt lat="41.26279" lon="-8.53338">
        <ele>136</ele>
        <time>2021-03-20 12:29:38</time>
      </trkpt>
      <trkpt lat="41.26284" lon="-8.5335">
        <ele>135.6</ele>
        <time>2021-03-20 12:29:39</time>
      </trkpt>
      <trkpt lat="41.26298" lon="-8.53357">
        <ele>135.4</ele>
        <time>2021-03-20 12:29:40</time>
      </trkpt>
      <trkpt lat="41.26307" lon="-8.53357">
        <ele>135</ele>
        <time>2021-03-20 12:29:41</time>
      </trkpt>
      <trkpt lat="41.26317" lon="-8.53358">
        <ele>134.6</ele>
        <time>2021-03-20 12:29:42</time>
      </trkpt>
      <trkpt lat="41.26326" lon="-8.5336">
        <ele>134</ele>
        <time>2021-03-20 12:29:43</time>
      </trkpt>
      <trkpt lat="41.26335" lon="-8.53365">
        <ele>133.6</ele>
        <time>2021-03-20 12:29:44</time>
      </trkpt>
      <trkpt lat="41.26344" lon="-8.53373">
        <ele>133</ele>
        <time>2021-03-20 12:29:45</time>
      </trkpt>
      <trkpt lat="41.26352" lon="-8.53382">
        <ele>132.6</ele>
        <time>2021-03-20 12:29:46</time>
      </trkpt>
      <trkpt lat="41.26361" lon="-8.53389">
        <ele>131.8</ele>
        <time>2021-03-20 12:29:47</time>
      </trkpt>
      <trkpt lat="41.26371" lon="-8.53394">
        <ele>131.2</ele>
        <time>2021-03-20 12:29:48</time>
      </trkpt>
      <trkpt lat="41.26381" lon="-8.53394">
        <ele>130.4</ele>
        <time>2021-03-20 12:29:49</time>
      </trkpt>
      <trkpt lat="41.26391" lon="-8.53391">
        <ele>130</ele>
        <time>2021-03-20 12:29:50</time>
      </trkpt>
      <trkpt lat="41.26401" lon="-8.53388">
        <ele>129.4</ele>
        <time>2021-03-20 12:29:51</time>
      </trkpt>
      <trkpt lat="41.26411" lon="-8.53388">
        <ele>129</ele>
        <time>2021-03-20 12:29:52</time>
      </trkpt>
      <trkpt lat="41.26421" lon="-8.5339">
        <ele>128.6</ele>
        <time>2021-03-20 12:29:53</time>
      </trkpt>
      <trkpt lat="41.2643" lon="-8.53393">
        <ele>128.2</ele>
        <time>2021-03-20 12:29:54</time>
      </trkpt>
      <trkpt lat="41.26441" lon="-8.53393">
        <ele>127.6</ele>
        <time>2021-03-20 12:29:55</time>
      </trkpt>
      <trkpt lat="41.2645" lon="-8.53387">
        <ele>127.2</ele>
        <time>2021-03-20 12:29:56</time>
      </trkpt>
      <trkpt lat="41.26458" lon="-8.53378">
        <ele>126.4</ele>
        <time>2021-03-20 12:29:57</time>
      </trkpt>
      <trkpt lat="41.26465" lon="-8.53368">
        <ele>125.6</ele>
        <time>2021-03-20 12:29:58</time>
      </trkpt>
      <trkpt lat="41.26474" lon="-8.5336">
        <ele>124.8</ele>
        <time>2021-03-20 12:29:59</time>
      </trkpt>
      <trkpt lat="41.26483" lon="-8.53355">
        <ele>124.4</ele>
        <time>2021-03-20 12:30:00</time>
      </trkpt>
      <trkpt lat="41.26493" lon="-8.53355">
        <ele>124.2</ele>
        <time>2021-03-20 12:30:01</time>
      </trkpt>
      <trkpt lat="41.26503" lon="-8.53357">
        <ele>123.8</ele>
        <time>2021-03-20 12:30:02</time>
      </trkpt>
      <trkpt lat="41.26512" lon="-8.5336">
        <ele>123.8</ele>
        <time>2021-03-20 12:30:03</time>
      </trkpt>
      <trkpt lat="41.26523" lon="-8.53362">
        <ele>123.2</ele>
        <time>2021-03-20 12:30:04</time>
      </trkpt>
      <trkpt lat="41.26533" lon="-8.53364">
        <ele>123.2</ele>
        <time>2021-03-20 12:30:05</time>
      </trkpt>
      <trkpt lat="41.26543" lon="-8.53366">
        <ele>122.6</ele>
        <time>2021-03-20 12:30:06</time>
      </trkpt>
      <trkpt lat="41.26554" lon="-8.53369">
        <ele>122.2</ele>
        <time>2021-03-20 12:30:07</time>
      </trkpt>
      <trkpt lat="41.26564" lon="-8.53373">
        <ele>122</ele>
        <time>2021-03-20 12:30:08</time>
      </trkpt>
      <trkpt lat="41.26574" lon="-8.53378">
        <ele>121.8</ele>
        <time>2021-03-20 12:30:09</time>
      </trkpt>
      <trkpt lat="41.26584" lon="-8.53384">
        <ele>121.4</ele>
        <time>2021-03-20 12:30:10</time>
      </trkpt>
      <trkpt lat="41.26593" lon="-8.5339">
        <ele>120.6</ele>
        <time>2021-03-20 12:30:11</time>
      </trkpt>
      <trkpt lat="41.26603" lon="-8.53397">
        <ele>120</ele>
        <time>2021-03-20 12:30:12</time>
      </trkpt>
      <trkpt lat="41.26613" lon="-8.53403">
        <ele>119</ele>
        <time>2021-03-20 12:30:13</time>
      </trkpt>
      <trkpt lat="41.26623" lon="-8.53407">
        <ele>119</ele>
        <time>2021-03-20 12:30:14</time>
      </trkpt>
      <trkpt lat="41.26633" lon="-8.53412">
        <ele>118.2</ele>
        <time>2021-03-20 12:30:15</time>
      </trkpt>
      <trkpt lat="41.26646" lon="-8.53417">
        <ele>117.6</ele>
        <time>2021-03-20 12:30:16</time>
      </trkpt>
      <trkpt lat="41.26654" lon="-8.5342">
        <ele>117.4</ele>
        <time>2021-03-20 12:30:17</time>
      </trkpt>
      <trkpt lat="41.26665" lon="-8.53424">
        <ele>116.8</ele>
        <time>2021-03-20 12:30:18</time>
      </trkpt>
      <trkpt lat="41.26677" lon="-8.53428">
        <ele>116.2</ele>
        <time>2021-03-20 12:30:19</time>
      </trkpt>
      <trkpt lat="41.26688" lon="-8.53432">
        <ele>116</ele>
        <time>2021-03-20 12:30:20</time>
      </trkpt>
      <trkpt lat="41.26696" lon="-8.53435">
        <ele>115.6</ele>
        <time>2021-03-20 12:30:21</time>
      </trkpt>
      <trkpt lat="41.26706" lon="-8.53442">
        <ele>114.6</ele>
        <time>2021-03-20 12:30:22</time>
      </trkpt>
      <trkpt lat="41.26714" lon="-8.53444">
        <ele>114.2</ele>
        <time>2021-03-20 12:30:23</time>
      </trkpt>
      <trkpt lat="41.26723" lon="-8.53448">
        <ele>113.6</ele>
        <time>2021-03-20 12:30:24</time>
      </trkpt>
      <trkpt lat="41.26732" lon="-8.53447">
        <ele>113</ele>
        <time>2021-03-20 12:30:25</time>
      </trkpt>
      <trkpt lat="41.26739" lon="-8.53448">
        <ele>112.2</ele>
        <time>2021-03-20 12:30:26</time>
      </trkpt>
      <trkpt lat="41.26747" lon="-8.5345">
        <ele>111.6</ele>
        <time>2021-03-20 12:30:27</time>
      </trkpt>
      <trkpt lat="41.26756" lon="-8.5345">
        <ele>111.2</ele>
        <time>2021-03-20 12:30:28</time>
      </trkpt>
      <trkpt lat="41.26765" lon="-8.5345">
        <ele>110.8</ele>
        <time>2021-03-20 12:30:29</time>
      </trkpt>
      <trkpt lat="41.26774" lon="-8.5345">
        <ele>110.8</ele>
        <time>2021-03-20 12:30:30</time>
      </trkpt>
      <trkpt lat="41.26781" lon="-8.53451">
        <ele>110.6</ele>
        <time>2021-03-20 12:30:31</time>
      </trkpt>
      <trkpt lat="41.26791" lon="-8.53449">
        <ele>110.6</ele>
        <time>2021-03-20 12:30:32</time>
      </trkpt>
      <trkpt lat="41.26799" lon="-8.53449">
        <ele>110.6</ele>
        <time>2021-03-20 12:30:33</time>
      </trkpt>
      <trkpt lat="41.26809" lon="-8.5345">
        <ele>110.8</ele>
        <time>2021-03-20 12:30:34</time>
      </trkpt>
      <trkpt lat="41.26819" lon="-8.5345">
        <ele>111</ele>
        <time>2021-03-20 12:30:35</time>
      </trkpt>
      <trkpt lat="41.26826" lon="-8.5345">
        <ele>110.8</ele>
        <time>2021-03-20 12:30:36</time>
      </trkpt>
      <trkpt lat="41.26835" lon="-8.5345">
        <ele>110.4</ele>
        <time>2021-03-20 12:30:37</time>
      </trkpt>
      <trkpt lat="41.26846" lon="-8.5345">
        <ele>110.2</ele>
        <time>2021-03-20 12:30:38</time>
      </trkpt>
      <trkpt lat="41.26856" lon="-8.5345">
        <ele>110.4</ele>
        <time>2021-03-20 12:30:39</time>
      </trkpt>
      <trkpt lat="41.26874" lon="-8.5345">
        <ele>110.6</ele>
        <time>2021-03-20 12:30:40</time>
      </trkpt>
      <trkpt lat="41.26883" lon="-8.53449">
        <ele>111</ele>
        <time>2021-03-20 12:30:41</time>
      </trkpt>
      <trkpt lat="41.26895" lon="-8.53448">
        <ele>111.2</ele>
        <time>2021-03-20 12:30:42</time>
      </trkpt>
      <trkpt lat="41.26906" lon="-8.53447">
        <ele>111.2</ele>
        <time>2021-03-20 12:30:43</time>
      </trkpt>
      <trkpt lat="41.26917" lon="-8.53447">
        <ele>111.4</ele>
        <time>2021-03-20 12:30:44</time>
      </trkpt>
      <trkpt lat="41.26917" lon="-8.53447">
        <ele>111.4</ele>
        <time>2021-03-20 12:30:45</time>
      </trkpt>
      <trkpt lat="41.26935" lon="-8.53445">
        <ele>111.2</ele>
        <time>2021-03-20 12:30:46</time>
      </trkpt>
      <trkpt lat="41.26946" lon="-8.53444">
        <ele>111.4</ele>
        <time>2021-03-20 12:30:47</time>
      </trkpt>
      <trkpt lat="41.26957" lon="-8.53444">
        <ele>111.6</ele>
        <time>2021-03-20 12:30:48</time>
      </trkpt>
      <trkpt lat="41.26967" lon="-8.53443">
        <ele>111.6</ele>
        <time>2021-03-20 12:30:49</time>
      </trkpt>
      <trkpt lat="41.26978" lon="-8.53442">
        <ele>111.4</ele>
        <time>2021-03-20 12:30:50</time>
      </trkpt>
      <trkpt lat="41.26988" lon="-8.53442">
        <ele>111.4</ele>
        <time>2021-03-20 12:30:51</time>
      </trkpt>
      <trkpt lat="41.26998" lon="-8.53442">
        <ele>111.6</ele>
        <time>2021-03-20 12:30:52</time>
      </trkpt>
      <trkpt lat="41.27007" lon="-8.53441">
        <ele>111.6</ele>
        <time>2021-03-20 12:30:53</time>
      </trkpt>
      <trkpt lat="41.27016" lon="-8.53441">
        <ele>111.8</ele>
        <time>2021-03-20 12:30:54</time>
      </trkpt>
      <trkpt lat="41.27024" lon="-8.5344">
        <ele>111.8</ele>
        <time>2021-03-20 12:30:55</time>
      </trkpt>
      <trkpt lat="41.27031" lon="-8.53439">
        <ele>112.2</ele>
        <time>2021-03-20 12:30:56</time>
      </trkpt>
      <trkpt lat="41.27037" lon="-8.5344">
        <ele>112.2</ele>
        <time>2021-03-20 12:30:57</time>
      </trkpt>
      <trkpt lat="41.27041" lon="-8.53444">
        <ele>112.4</ele>
        <time>2021-03-20 12:30:58</time>
      </trkpt>
      <trkpt lat="41.27044" lon="-8.53449">
        <ele>112.4</ele>
        <time>2021-03-20 12:30:59</time>
      </trkpt>
      <trkpt lat="41.27046" lon="-8.53455">
        <ele>112.6</ele>
        <time>2021-03-20 12:31:00</time>
      </trkpt>
      <trkpt lat="41.27046" lon="-8.53461">
        <ele>112.6</ele>
        <time>2021-03-20 12:31:01</time>
      </trkpt>
      <trkpt lat="41.27047" lon="-8.5347">
        <ele>113</ele>
        <time>2021-03-20 12:31:02</time>
      </trkpt>
      <trkpt lat="41.27048" lon="-8.53474">
        <ele>113.2</ele>
        <time>2021-03-20 12:31:03</time>
      </trkpt>
      <trkpt lat="41.2705" lon="-8.53481">
        <ele>113.4</ele>
        <time>2021-03-20 12:31:04</time>
      </trkpt>
      <trkpt lat="41.27052" lon="-8.53489">
        <ele>113.6</ele>
        <time>2021-03-20 12:31:05</time>
      </trkpt>
      <trkpt lat="41.27055" lon="-8.53495">
        <ele>113.8</ele>
        <time>2021-03-20 12:31:06</time>
      </trkpt>
      <trkpt lat="41.27058" lon="-8.53502">
        <ele>113.8</ele>
        <time>2021-03-20 12:31:07</time>
      </trkpt>
      <trkpt lat="41.27063" lon="-8.5351">
        <ele>114</ele>
        <time>2021-03-20 12:31:08</time>
      </trkpt>
      <trkpt lat="41.27068" lon="-8.53516">
        <ele>114.2</ele>
        <time>2021-03-20 12:31:09</time>
      </trkpt>
      <trkpt lat="41.27071" lon="-8.53521">
        <ele>114.4</ele>
        <time>2021-03-20 12:31:10</time>
      </trkpt>
      <trkpt lat="41.27075" lon="-8.53527">
        <ele>114.4</ele>
        <time>2021-03-20 12:31:11</time>
      </trkpt>
      <trkpt lat="41.27077" lon="-8.5353">
        <ele>114.8</ele>
        <time>2021-03-20 12:31:12</time>
      </trkpt>
      <trkpt lat="41.27084" lon="-8.53533">
        <ele>114.8</ele>
        <time>2021-03-20 12:31:13</time>
      </trkpt>
      <trkpt lat="41.2709" lon="-8.53538">
        <ele>115.2</ele>
        <time>2021-03-20 12:31:14</time>
      </trkpt>
      <trkpt lat="41.27092" lon="-8.53543">
        <ele>115.6</ele>
        <time>2021-03-20 12:31:15</time>
      </trkpt>
      <trkpt lat="41.27095" lon="-8.53548">
        <ele>116</ele>
        <time>2021-03-20 12:31:16</time>
      </trkpt>
      <trkpt lat="41.27099" lon="-8.53554">
        <ele>116</ele>
        <time>2021-03-20 12:31:17</time>
      </trkpt>
      <trkpt lat="41.27103" lon="-8.5356">
        <ele>116.4</ele>
        <time>2021-03-20 12:31:18</time>
      </trkpt>
      <trkpt lat="41.27106" lon="-8.53567">
        <ele>116.6</ele>
        <time>2021-03-20 12:31:19</time>
      </trkpt>
      <trkpt lat="41.27106" lon="-8.53574">
        <ele>116.8</ele>
        <time>2021-03-20 12:31:20</time>
      </trkpt>
      <trkpt lat="41.27109" lon="-8.5358">
        <ele>117.2</ele>
        <time>2021-03-20 12:31:21</time>
      </trkpt>
      <trkpt lat="41.27112" lon="-8.53586">
        <ele>117.4</ele>
        <time>2021-03-20 12:31:22</time>
      </trkpt>
      <trkpt lat="41.27116" lon="-8.53593">
        <ele>117.8</ele>
        <time>2021-03-20 12:31:23</time>
      </trkpt>
      <trkpt lat="41.2712" lon="-8.53604">
        <ele>118</ele>
        <time>2021-03-20 12:31:24</time>
      </trkpt>
      <trkpt lat="41.27125" lon="-8.53614">
        <ele>118.2</ele>
        <time>2021-03-20 12:31:25</time>
      </trkpt>
      <trkpt lat="41.27128" lon="-8.5362">
        <ele>118.6</ele>
        <time>2021-03-20 12:31:26</time>
      </trkpt>
      <trkpt lat="41.27131" lon="-8.53627">
        <ele>118.8</ele>
        <time>2021-03-20 12:31:27</time>
      </trkpt>
      <trkpt lat="41.27133" lon="-8.53629">
        <ele>119</ele>
        <time>2021-03-20 12:31:28</time>
      </trkpt>
      <trkpt lat="41.2714" lon="-8.53635">
        <ele>119.2</ele>
        <time>2021-03-20 12:31:29</time>
      </trkpt>
      <trkpt lat="41.27143" lon="-8.53641">
        <ele>119.6</ele>
        <time>2021-03-20 12:31:30</time>
      </trkpt>
      <trkpt lat="41.27143" lon="-8.5365">
        <ele>120</ele>
        <time>2021-03-20 12:31:31</time>
      </trkpt>
      <trkpt lat="41.27146" lon="-8.53658">
        <ele>120</ele>
        <time>2021-03-20 12:31:32</time>
      </trkpt>
      <trkpt lat="41.27151" lon="-8.53663">
        <ele>120.4</ele>
        <time>2021-03-20 12:31:33</time>
      </trkpt>
      <trkpt lat="41.27152" lon="-8.53666">
        <ele>120.6</ele>
        <time>2021-03-20 12:31:34</time>
      </trkpt>
      <trkpt lat="41.27153" lon="-8.53674">
        <ele>120.8</ele>
        <time>2021-03-20 12:31:35</time>
      </trkpt>
      <trkpt lat="41.27158" lon="-8.53677">
        <ele>121</ele>
        <time>2021-03-20 12:31:36</time>
      </trkpt>
      <trkpt lat="41.27159" lon="-8.53682">
        <ele>121.2</ele>
        <time>2021-03-20 12:31:37</time>
      </trkpt>
      <trkpt lat="41.2716" lon="-8.53687">
        <ele>121.4</ele>
        <time>2021-03-20 12:31:38</time>
      </trkpt>
      <trkpt lat="41.27164" lon="-8.53694">
        <ele>121.6</ele>
        <time>2021-03-20 12:31:39</time>
      </trkpt>
      <trkpt lat="41.27166" lon="-8.53699">
        <ele>122</ele>
        <time>2021-03-20 12:31:40</time>
      </trkpt>
      <trkpt lat="41.27168" lon="-8.53704">
        <ele>122.4</ele>
        <time>2021-03-20 12:31:41</time>
      </trkpt>
      <trkpt lat="41.2717" lon="-8.53711">
        <ele>122.4</ele>
        <time>2021-03-20 12:31:42</time>
      </trkpt>
      <trkpt lat="41.27173" lon="-8.53713">
        <ele>122.6</ele>
        <time>2021-03-20 12:31:43</time>
      </trkpt>
      <trkpt lat="41.27175" lon="-8.53727">
        <ele>122.8</ele>
        <time>2021-03-20 12:31:44</time>
      </trkpt>
      <trkpt lat="41.27176" lon="-8.53732">
        <ele>122.8</ele>
        <time>2021-03-20 12:31:45</time>
      </trkpt>
      <trkpt lat="41.27181" lon="-8.53736">
        <ele>123</ele>
        <time>2021-03-20 12:31:46</time>
      </trkpt>
      <trkpt lat="41.27187" lon="-8.53733">
        <ele>123.2</ele>
        <time>2021-03-20 12:31:47</time>
      </trkpt>
      <trkpt lat="41.27191" lon="-8.53738">
        <ele>123.4</ele>
        <time>2021-03-20 12:31:48</time>
      </trkpt>
      <trkpt lat="41.27195" lon="-8.53739">
        <ele>123.4</ele>
        <time>2021-03-20 12:31:49</time>
      </trkpt>
      <trkpt lat="41.27196" lon="-8.53745">
        <ele>123.6</ele>
        <time>2021-03-20 12:31:50</time>
      </trkpt>
      <trkpt lat="41.27198" lon="-8.53754">
        <ele>123.8</ele>
        <time>2021-03-20 12:31:51</time>
      </trkpt>
      <trkpt lat="41.27201" lon="-8.53761">
        <ele>124</ele>
        <time>2021-03-20 12:31:52</time>
      </trkpt>
      <trkpt lat="41.27205" lon="-8.53766">
        <ele>124.6</ele>
        <time>2021-03-20 12:31:53</time>
      </trkpt>
      <trkpt lat="41.27207" lon="-8.53774">
        <ele>125</ele>
        <time>2021-03-20 12:31:54</time>
      </trkpt>
      <trkpt lat="41.27211" lon="-8.53775">
        <ele>125.2</ele>
        <time>2021-03-20 12:31:55</time>
      </trkpt>
      <trkpt lat="41.27215" lon="-8.5378">
        <ele>125.4</ele>
        <time>2021-03-20 12:31:56</time>
      </trkpt>
      <trkpt lat="41.27219" lon="-8.53789">
        <ele>125.6</ele>
        <time>2021-03-20 12:31:57</time>
      </trkpt>
      <trkpt lat="41.27224" lon="-8.53793">
        <ele>125.8</ele>
        <time>2021-03-20 12:31:58</time>
      </trkpt>
      <trkpt lat="41.27227" lon="-8.53796">
        <ele>126.2</ele>
        <time>2021-03-20 12:31:59</time>
      </trkpt>
      <trkpt lat="41.27231" lon="-8.53798">
        <ele>126.4</ele>
        <time>2021-03-20 12:32:00</time>
      </trkpt>
      <trkpt lat="41.27232" lon="-8.53803">
        <ele>126.6</ele>
        <time>2021-03-20 12:32:01</time>
      </trkpt>
      <trkpt lat="41.27239" lon="-8.53806">
        <ele>126.8</ele>
        <time>2021-03-20 12:32:02</time>
      </trkpt>
      <trkpt lat="41.2724" lon="-8.53811">
        <ele>126.8</ele>
        <time>2021-03-20 12:32:03</time>
      </trkpt>
      <trkpt lat="41.27246" lon="-8.53815">
        <ele>127</ele>
        <time>2021-03-20 12:32:04</time>
      </trkpt>
      <trkpt lat="41.27252" lon="-8.53819">
        <ele>127.2</ele>
        <time>2021-03-20 12:32:05</time>
      </trkpt>
      <trkpt lat="41.27254" lon="-8.53825">
        <ele>127.2</ele>
        <time>2021-03-20 12:32:06</time>
      </trkpt>
      <trkpt lat="41.27253" lon="-8.53829">
        <ele>127.4</ele>
        <time>2021-03-20 12:32:07</time>
      </trkpt>
      <trkpt lat="41.27258" lon="-8.53834">
        <ele>127.6</ele>
        <time>2021-03-20 12:32:08</time>
      </trkpt>
      <trkpt lat="41.27262" lon="-8.53839">
        <ele>127.6</ele>
        <time>2021-03-20 12:32:09</time>
      </trkpt>
      <trkpt lat="41.27265" lon="-8.53843">
        <ele>127.6</ele>
        <time>2021-03-20 12:32:10</time>
      </trkpt>
      <trkpt lat="41.27271" lon="-8.53848">
        <ele>127.8</ele>
        <time>2021-03-20 12:32:11</time>
      </trkpt>
      <trkpt lat="41.27272" lon="-8.53853">
        <ele>127.8</ele>
        <time>2021-03-20 12:32:12</time>
      </trkpt>
      <trkpt lat="41.27277" lon="-8.53859">
        <ele>127.6</ele>
        <time>2021-03-20 12:32:13</time>
      </trkpt>
      <trkpt lat="41.2728" lon="-8.53863">
        <ele>127.8</ele>
        <time>2021-03-20 12:32:14</time>
      </trkpt>
      <trkpt lat="41.27284" lon="-8.53868">
        <ele>127.8</ele>
        <time>2021-03-20 12:32:15</time>
      </trkpt>
      <trkpt lat="41.27287" lon="-8.53873">
        <ele>127.6</ele>
        <time>2021-03-20 12:32:16</time>
      </trkpt>
      <trkpt lat="41.27291" lon="-8.53878">
        <ele>127.6</ele>
        <time>2021-03-20 12:32:17</time>
      </trkpt>
      <trkpt lat="41.27293" lon="-8.53881">
        <ele>127.8</ele>
        <time>2021-03-20 12:32:18</time>
      </trkpt>
      <trkpt lat="41.27298" lon="-8.53886">
        <ele>127.8</ele>
        <time>2021-03-20 12:32:19</time>
      </trkpt>
      <trkpt lat="41.27301" lon="-8.5389">
        <ele>127.6</ele>
        <time>2021-03-20 12:32:20</time>
      </trkpt>
      <trkpt lat="41.27305" lon="-8.53895">
        <ele>127.6</ele>
        <time>2021-03-20 12:32:21</time>
      </trkpt>
      <trkpt lat="41.27308" lon="-8.539">
        <ele>127.6</ele>
        <time>2021-03-20 12:32:22</time>
      </trkpt>
      <trkpt lat="41.27311" lon="-8.53904">
        <ele>127.6</ele>
        <time>2021-03-20 12:32:23</time>
      </trkpt>
      <trkpt lat="41.27314" lon="-8.53908">
        <ele>127.4</ele>
        <time>2021-03-20 12:32:24</time>
      </trkpt>
      <trkpt lat="41.27317" lon="-8.53913">
        <ele>127</ele>
        <time>2021-03-20 12:32:25</time>
      </trkpt>
      <trkpt lat="41.27321" lon="-8.53918">
        <ele>126.8</ele>
        <time>2021-03-20 12:32:26</time>
      </trkpt>
      <trkpt lat="41.27324" lon="-8.53923">
        <ele>126.6</ele>
        <time>2021-03-20 12:32:27</time>
      </trkpt>
      <trkpt lat="41.27326" lon="-8.53927">
        <ele>126.4</ele>
        <time>2021-03-20 12:32:28</time>
      </trkpt>
      <trkpt lat="41.27328" lon="-8.53932">
        <ele>126.2</ele>
        <time>2021-03-20 12:32:29</time>
      </trkpt>
      <trkpt lat="41.27333" lon="-8.53938">
        <ele>126</ele>
        <time>2021-03-20 12:32:30</time>
      </trkpt>
      <trkpt lat="41.27336" lon="-8.53942">
        <ele>125.6</ele>
        <time>2021-03-20 12:32:31</time>
      </trkpt>
      <trkpt lat="41.27341" lon="-8.53948">
        <ele>125.4</ele>
        <time>2021-03-20 12:32:32</time>
      </trkpt>
      <trkpt lat="41.27343" lon="-8.53952">
        <ele>125</ele>
        <time>2021-03-20 12:32:33</time>
      </trkpt>
      <trkpt lat="41.27346" lon="-8.53956">
        <ele>125</ele>
        <time>2021-03-20 12:32:34</time>
      </trkpt>
      <trkpt lat="41.2735" lon="-8.53962">
        <ele>124.8</ele>
        <time>2021-03-20 12:32:35</time>
      </trkpt>
      <trkpt lat="41.27353" lon="-8.53966">
        <ele>124.6</ele>
        <time>2021-03-20 12:32:36</time>
      </trkpt>
      <trkpt lat="41.27355" lon="-8.5397">
        <ele>124</ele>
        <time>2021-03-20 12:32:37</time>
      </trkpt>
      <trkpt lat="41.27359" lon="-8.53975">
        <ele>123.6</ele>
        <time>2021-03-20 12:32:38</time>
      </trkpt>
      <trkpt lat="41.27362" lon="-8.5398">
        <ele>123</ele>
        <time>2021-03-20 12:32:39</time>
      </trkpt>
      <trkpt lat="41.27365" lon="-8.53985">
        <ele>122.8</ele>
        <time>2021-03-20 12:32:40</time>
      </trkpt>
      <trkpt lat="41.27368" lon="-8.53988">
        <ele>122.4</ele>
        <time>2021-03-20 12:32:41</time>
      </trkpt>
      <trkpt lat="41.27371" lon="-8.53993">
        <ele>122.2</ele>
        <time>2021-03-20 12:32:42</time>
      </trkpt>
      <trkpt lat="41.27375" lon="-8.53999">
        <ele>121.8</ele>
        <time>2021-03-20 12:32:43</time>
      </trkpt>
      <trkpt lat="41.27378" lon="-8.54004">
        <ele>121.2</ele>
        <time>2021-03-20 12:32:44</time>
      </trkpt>
      <trkpt lat="41.27382" lon="-8.5401">
        <ele>120.8</ele>
        <time>2021-03-20 12:32:45</time>
      </trkpt>
      <trkpt lat="41.27384" lon="-8.54014">
        <ele>120.4</ele>
        <time>2021-03-20 12:32:46</time>
      </trkpt>
      <trkpt lat="41.27387" lon="-8.54019">
        <ele>119.6</ele>
        <time>2021-03-20 12:32:47</time>
      </trkpt>
      <trkpt lat="41.27391" lon="-8.54025">
        <ele>119.4</ele>
        <time>2021-03-20 12:32:48</time>
      </trkpt>
      <trkpt lat="41.27394" lon="-8.5403">
        <ele>119.2</ele>
        <time>2021-03-20 12:32:49</time>
      </trkpt>
      <trkpt lat="41.27397" lon="-8.54034">
        <ele>119</ele>
        <time>2021-03-20 12:32:50</time>
      </trkpt>
      <trkpt lat="41.274" lon="-8.54039">
        <ele>118.2</ele>
        <time>2021-03-20 12:32:51</time>
      </trkpt>
      <trkpt lat="41.27403" lon="-8.54044">
        <ele>117.8</ele>
        <time>2021-03-20 12:32:52</time>
      </trkpt>
      <trkpt lat="41.27406" lon="-8.54049">
        <ele>117.6</ele>
        <time>2021-03-20 12:32:53</time>
      </trkpt>
      <trkpt lat="41.27409" lon="-8.54055">
        <ele>117.4</ele>
        <time>2021-03-20 12:32:54</time>
      </trkpt>
      <trkpt lat="41.27412" lon="-8.54059">
        <ele>117.2</ele>
        <time>2021-03-20 12:32:55</time>
      </trkpt>
      <trkpt lat="41.27416" lon="-8.54065">
        <ele>116.8</ele>
        <time>2021-03-20 12:32:56</time>
      </trkpt>
      <trkpt lat="41.2742" lon="-8.54069">
        <ele>117</ele>
        <time>2021-03-20 12:32:57</time>
      </trkpt>
      <trkpt lat="41.27425" lon="-8.54074">
        <ele>117</ele>
        <time>2021-03-20 12:32:58</time>
      </trkpt>
      <trkpt lat="41.27429" lon="-8.54078">
        <ele>116.8</ele>
        <time>2021-03-20 12:32:59</time>
      </trkpt>
      <trkpt lat="41.27434" lon="-8.54083">
        <ele>116.4</ele>
        <time>2021-03-20 12:33:00</time>
      </trkpt>
      <trkpt lat="41.2744" lon="-8.54087">
        <ele>116</ele>
        <time>2021-03-20 12:33:01</time>
      </trkpt>
      <trkpt lat="41.27446" lon="-8.54092">
        <ele>115.6</ele>
        <time>2021-03-20 12:33:02</time>
      </trkpt>
      <trkpt lat="41.27452" lon="-8.54097">
        <ele>115.4</ele>
        <time>2021-03-20 12:33:03</time>
      </trkpt>
      <trkpt lat="41.27457" lon="-8.541">
        <ele>115.2</ele>
        <time>2021-03-20 12:33:04</time>
      </trkpt>
      <trkpt lat="41.27463" lon="-8.54105">
        <ele>115.4</ele>
        <time>2021-03-20 12:33:05</time>
      </trkpt>
      <trkpt lat="41.27468" lon="-8.54111">
        <ele>115.4</ele>
        <time>2021-03-20 12:33:06</time>
      </trkpt>
      <trkpt lat="41.27473" lon="-8.54118">
        <ele>115.2</ele>
        <time>2021-03-20 12:33:07</time>
      </trkpt>
      <trkpt lat="41.27477" lon="-8.54123">
        <ele>115</ele>
        <time>2021-03-20 12:33:08</time>
      </trkpt>
      <trkpt lat="41.2748" lon="-8.54131">
        <ele>115</ele>
        <time>2021-03-20 12:33:09</time>
      </trkpt>
      <trkpt lat="41.27483" lon="-8.54139">
        <ele>114.8</ele>
        <time>2021-03-20 12:33:10</time>
      </trkpt>
      <trkpt lat="41.27485" lon="-8.54148">
        <ele>114.4</ele>
        <time>2021-03-20 12:33:11</time>
      </trkpt>
      <trkpt lat="41.27487" lon="-8.54156">
        <ele>114</ele>
        <time>2021-03-20 12:33:12</time>
      </trkpt>
      <trkpt lat="41.27488" lon="-8.54162">
        <ele>113.2</ele>
        <time>2021-03-20 12:33:13</time>
      </trkpt>
      <trkpt lat="41.2749" lon="-8.54172">
        <ele>112.8</ele>
        <time>2021-03-20 12:33:14</time>
      </trkpt>
      <trkpt lat="41.2749" lon="-8.54183">
        <ele>112.6</ele>
        <time>2021-03-20 12:33:15</time>
      </trkpt>
      <trkpt lat="41.27491" lon="-8.54194">
        <ele>111.8</ele>
        <time>2021-03-20 12:33:16</time>
      </trkpt>
      <trkpt lat="41.27492" lon="-8.54201">
        <ele>111.4</ele>
        <time>2021-03-20 12:33:17</time>
      </trkpt>
      <trkpt lat="41.27493" lon="-8.54211">
        <ele>111</ele>
        <time>2021-03-20 12:33:18</time>
      </trkpt>
      <trkpt lat="41.27494" lon="-8.54222">
        <ele>110.4</ele>
        <time>2021-03-20 12:33:19</time>
      </trkpt>
      <trkpt lat="41.27495" lon="-8.54233">
        <ele>110</ele>
        <time>2021-03-20 12:33:20</time>
      </trkpt>
      <trkpt lat="41.27496" lon="-8.54244">
        <ele>109.6</ele>
        <time>2021-03-20 12:33:21</time>
      </trkpt>
      <trkpt lat="41.27496" lon="-8.54255">
        <ele>109.4</ele>
        <time>2021-03-20 12:33:22</time>
      </trkpt>
      <trkpt lat="41.27497" lon="-8.54265">
        <ele>108.6</ele>
        <time>2021-03-20 12:33:23</time>
      </trkpt>
      <trkpt lat="41.27498" lon="-8.54277">
        <ele>108.4</ele>
        <time>2021-03-20 12:33:24</time>
      </trkpt>
      <trkpt lat="41.27498" lon="-8.54287">
        <ele>108</ele>
        <time>2021-03-20 12:33:25</time>
      </trkpt>
      <trkpt lat="41.27499" lon="-8.54298">
        <ele>107.8</ele>
        <time>2021-03-20 12:33:26</time>
      </trkpt>
      <trkpt lat="41.275" lon="-8.5431">
        <ele>107.6</ele>
        <time>2021-03-20 12:33:27</time>
      </trkpt>
      <trkpt lat="41.27501" lon="-8.54322">
        <ele>107.4</ele>
        <time>2021-03-20 12:33:28</time>
      </trkpt>
      <trkpt lat="41.27503" lon="-8.54334">
        <ele>107.4</ele>
        <time>2021-03-20 12:33:29</time>
      </trkpt>
      <trkpt lat="41.27504" lon="-8.54346">
        <ele>107</ele>
        <time>2021-03-20 12:33:30</time>
      </trkpt>
      <trkpt lat="41.27507" lon="-8.54357">
        <ele>106.6</ele>
        <time>2021-03-20 12:33:31</time>
      </trkpt>
      <trkpt lat="41.27511" lon="-8.54369">
        <ele>107.2</ele>
        <time>2021-03-20 12:33:32</time>
      </trkpt>
      <trkpt lat="41.27514" lon="-8.5438">
        <ele>107.4</ele>
        <time>2021-03-20 12:33:33</time>
      </trkpt>
      <trkpt lat="41.27517" lon="-8.54391">
        <ele>107.4</ele>
        <time>2021-03-20 12:33:34</time>
      </trkpt>
      <trkpt lat="41.27521" lon="-8.54402">
        <ele>107.2</ele>
        <time>2021-03-20 12:33:35</time>
      </trkpt>
      <trkpt lat="41.27524" lon="-8.54415">
        <ele>107.2</ele>
        <time>2021-03-20 12:33:36</time>
      </trkpt>
      <trkpt lat="41.27527" lon="-8.54427">
        <ele>106.8</ele>
        <time>2021-03-20 12:33:37</time>
      </trkpt>
      <trkpt lat="41.2753" lon="-8.54438">
        <ele>106.4</ele>
        <time>2021-03-20 12:33:38</time>
      </trkpt>
      <trkpt lat="41.27534" lon="-8.54449">
        <ele>105.8</ele>
        <time>2021-03-20 12:33:39</time>
      </trkpt>
      <trkpt lat="41.27537" lon="-8.5446">
        <ele>105.4</ele>
        <time>2021-03-20 12:33:40</time>
      </trkpt>
      <trkpt lat="41.27541" lon="-8.54472">
        <ele>105.2</ele>
        <time>2021-03-20 12:33:41</time>
      </trkpt>
      <trkpt lat="41.27546" lon="-8.54482">
        <ele>104.6</ele>
        <time>2021-03-20 12:33:42</time>
      </trkpt>
      <trkpt lat="41.27549" lon="-8.54494">
        <ele>103.8</ele>
        <time>2021-03-20 12:33:43</time>
      </trkpt>
      <trkpt lat="41.27553" lon="-8.54506">
        <ele>103.4</ele>
        <time>2021-03-20 12:33:44</time>
      </trkpt>
      <trkpt lat="41.27557" lon="-8.54518">
        <ele>103</ele>
        <time>2021-03-20 12:33:45</time>
      </trkpt>
      <trkpt lat="41.27561" lon="-8.5453">
        <ele>102.8</ele>
        <time>2021-03-20 12:33:46</time>
      </trkpt>
      <trkpt lat="41.27565" lon="-8.54542">
        <ele>102.2</ele>
        <time>2021-03-20 12:33:47</time>
      </trkpt>
      <trkpt lat="41.27569" lon="-8.54555">
        <ele>101.2</ele>
        <time>2021-03-20 12:33:48</time>
      </trkpt>
      <trkpt lat="41.27572" lon="-8.54568">
        <ele>101</ele>
        <time>2021-03-20 12:33:49</time>
      </trkpt>
      <trkpt lat="41.27576" lon="-8.54582">
        <ele>100.4</ele>
        <time>2021-03-20 12:33:50</time>
      </trkpt>
      <trkpt lat="41.27581" lon="-8.54594">
        <ele>99.6</ele>
        <time>2021-03-20 12:33:51</time>
      </trkpt>
      <trkpt lat="41.27584" lon="-8.54607">
        <ele>98.8</ele>
        <time>2021-03-20 12:33:52</time>
      </trkpt>
      <trkpt lat="41.27589" lon="-8.5462">
        <ele>98.4</ele>
        <time>2021-03-20 12:33:53</time>
      </trkpt>
      <trkpt lat="41.27593" lon="-8.54633">
        <ele>98.2</ele>
        <time>2021-03-20 12:33:54</time>
      </trkpt>
      <trkpt lat="41.27597" lon="-8.54645">
        <ele>97.4</ele>
        <time>2021-03-20 12:33:55</time>
      </trkpt>
      <trkpt lat="41.27602" lon="-8.54658">
        <ele>96.8</ele>
        <time>2021-03-20 12:33:56</time>
      </trkpt>
      <trkpt lat="41.27607" lon="-8.54671">
        <ele>95.8</ele>
        <time>2021-03-20 12:33:57</time>
      </trkpt>
      <trkpt lat="41.27613" lon="-8.54682">
        <ele>95</ele>
        <time>2021-03-20 12:33:58</time>
      </trkpt>
      <trkpt lat="41.27619" lon="-8.54694">
        <ele>94.6</ele>
        <time>2021-03-20 12:33:59</time>
      </trkpt>
      <trkpt lat="41.27625" lon="-8.54706">
        <ele>94</ele>
        <time>2021-03-20 12:34:00</time>
      </trkpt>
      <trkpt lat="41.27631" lon="-8.54716">
        <ele>93.6</ele>
        <time>2021-03-20 12:34:01</time>
      </trkpt>
      <trkpt lat="41.27638" lon="-8.54726">
        <ele>93.2</ele>
        <time>2021-03-20 12:34:02</time>
      </trkpt>
      <trkpt lat="41.27644" lon="-8.54735">
        <ele>92.6</ele>
        <time>2021-03-20 12:34:03</time>
      </trkpt>
      <trkpt lat="41.27651" lon="-8.54744">
        <ele>92.2</ele>
        <time>2021-03-20 12:34:04</time>
      </trkpt>
      <trkpt lat="41.27657" lon="-8.54754">
        <ele>92</ele>
        <time>2021-03-20 12:34:05</time>
      </trkpt>
      <trkpt lat="41.27663" lon="-8.54764">
        <ele>91</ele>
        <time>2021-03-20 12:34:06</time>
      </trkpt>
      <trkpt lat="41.27669" lon="-8.54773">
        <ele>90.6</ele>
        <time>2021-03-20 12:34:07</time>
      </trkpt>
      <trkpt lat="41.27676" lon="-8.54782">
        <ele>89.8</ele>
        <time>2021-03-20 12:34:08</time>
      </trkpt>
      <trkpt lat="41.27682" lon="-8.54792">
        <ele>89.6</ele>
        <time>2021-03-20 12:34:09</time>
      </trkpt>
      <trkpt lat="41.27689" lon="-8.54802">
        <ele>90</ele>
        <time>2021-03-20 12:34:10</time>
      </trkpt>
      <trkpt lat="41.27696" lon="-8.54814">
        <ele>90</ele>
        <time>2021-03-20 12:34:11</time>
      </trkpt>
      <trkpt lat="41.27703" lon="-8.54824">
        <ele>89.8</ele>
        <time>2021-03-20 12:34:12</time>
      </trkpt>
      <trkpt lat="41.2771" lon="-8.54835">
        <ele>89.4</ele>
        <time>2021-03-20 12:34:13</time>
      </trkpt>
      <trkpt lat="41.27716" lon="-8.54844">
        <ele>89.2</ele>
        <time>2021-03-20 12:34:14</time>
      </trkpt>
      <trkpt lat="41.27723" lon="-8.54854">
        <ele>89.2</ele>
        <time>2021-03-20 12:34:15</time>
      </trkpt>
      <trkpt lat="41.27728" lon="-8.54864">
        <ele>89.4</ele>
        <time>2021-03-20 12:34:16</time>
      </trkpt>
      <trkpt lat="41.27739" lon="-8.54876">
        <ele>89.6</ele>
        <time>2021-03-20 12:34:17</time>
      </trkpt>
      <trkpt lat="41.27746" lon="-8.54884">
        <ele>89.6</ele>
        <time>2021-03-20 12:34:18</time>
      </trkpt>
      <trkpt lat="41.27753" lon="-8.549">
        <ele>89.2</ele>
        <time>2021-03-20 12:34:19</time>
      </trkpt>
      <trkpt lat="41.27761" lon="-8.54912">
        <ele>88.6</ele>
        <time>2021-03-20 12:34:20</time>
      </trkpt>
      <trkpt lat="41.27769" lon="-8.54927">
        <ele>88.6</ele>
        <time>2021-03-20 12:34:21</time>
      </trkpt>
      <trkpt lat="41.27776" lon="-8.5494">
        <ele>88.4</ele>
        <time>2021-03-20 12:34:22</time>
      </trkpt>
      <trkpt lat="41.27778" lon="-8.54953">
        <ele>88</ele>
        <time>2021-03-20 12:34:23</time>
      </trkpt>
      <trkpt lat="41.27783" lon="-8.54963">
        <ele>87.8</ele>
        <time>2021-03-20 12:34:24</time>
      </trkpt>
      <trkpt lat="41.27788" lon="-8.54978">
        <ele>87.8</ele>
        <time>2021-03-20 12:34:25</time>
      </trkpt>
      <trkpt lat="41.27791" lon="-8.54991">
        <ele>88.2</ele>
        <time>2021-03-20 12:34:26</time>
      </trkpt>
      <trkpt lat="41.27799" lon="-8.55005">
        <ele>88.6</ele>
        <time>2021-03-20 12:34:27</time>
      </trkpt>
      <trkpt lat="41.27803" lon="-8.5502">
        <ele>88.6</ele>
        <time>2021-03-20 12:34:28</time>
      </trkpt>
      <trkpt lat="41.2781" lon="-8.55034">
        <ele>89</ele>
        <time>2021-03-20 12:34:29</time>
      </trkpt>
      <trkpt lat="41.27815" lon="-8.55047">
        <ele>89.4</ele>
        <time>2021-03-20 12:34:30</time>
      </trkpt>
      <trkpt lat="41.27818" lon="-8.55071">
        <ele>89.6</ele>
        <time>2021-03-20 12:34:31</time>
      </trkpt>
      <trkpt lat="41.27824" lon="-8.55082">
        <ele>89.8</ele>
        <time>2021-03-20 12:34:32</time>
      </trkpt>
      <trkpt lat="41.27831" lon="-8.55096">
        <ele>90</ele>
        <time>2021-03-20 12:34:33</time>
      </trkpt>
      <trkpt lat="41.27838" lon="-8.55105">
        <ele>90.4</ele>
        <time>2021-03-20 12:34:34</time>
      </trkpt>
      <trkpt lat="41.2785" lon="-8.55117">
        <ele>90.4</ele>
        <time>2021-03-20 12:34:35</time>
      </trkpt>
      <trkpt lat="41.27855" lon="-8.55129">
        <ele>90.6</ele>
        <time>2021-03-20 12:34:36</time>
      </trkpt>
      <trkpt lat="41.27861" lon="-8.55137">
        <ele>90.8</ele>
        <time>2021-03-20 12:34:37</time>
      </trkpt>
      <trkpt lat="41.27872" lon="-8.55151">
        <ele>90.8</ele>
        <time>2021-03-20 12:34:38</time>
      </trkpt>
      <trkpt lat="41.27878" lon="-8.55159">
        <ele>91</ele>
        <time>2021-03-20 12:34:39</time>
      </trkpt>
      <trkpt lat="41.27886" lon="-8.55169">
        <ele>91.2</ele>
        <time>2021-03-20 12:34:40</time>
      </trkpt>
      <trkpt lat="41.2789" lon="-8.5518">
        <ele>91.2</ele>
        <time>2021-03-20 12:34:41</time>
      </trkpt>
      <trkpt lat="41.27902" lon="-8.55193">
        <ele>91.4</ele>
        <time>2021-03-20 12:34:42</time>
      </trkpt>
      <trkpt lat="41.27908" lon="-8.55206">
        <ele>91.8</ele>
        <time>2021-03-20 12:34:43</time>
      </trkpt>
      <trkpt lat="41.27916" lon="-8.55217">
        <ele>92</ele>
        <time>2021-03-20 12:34:44</time>
      </trkpt>
      <trkpt lat="41.2792" lon="-8.55227">
        <ele>92</ele>
        <time>2021-03-20 12:34:45</time>
      </trkpt>
      <trkpt lat="41.27924" lon="-8.55236">
        <ele>92.2</ele>
        <time>2021-03-20 12:34:46</time>
      </trkpt>
      <trkpt lat="41.2793" lon="-8.55247">
        <ele>92.2</ele>
        <time>2021-03-20 12:34:47</time>
      </trkpt>
      <trkpt lat="41.27929" lon="-8.55259">
        <ele>92.4</ele>
        <time>2021-03-20 12:34:48</time>
      </trkpt>
      <trkpt lat="41.27933" lon="-8.55274">
        <ele>92.4</ele>
        <time>2021-03-20 12:34:49</time>
      </trkpt>
      <trkpt lat="41.27934" lon="-8.55287">
        <ele>92.6</ele>
        <time>2021-03-20 12:34:50</time>
      </trkpt>
      <trkpt lat="41.27934" lon="-8.55298">
        <ele>92.8</ele>
        <time>2021-03-20 12:34:51</time>
      </trkpt>
      <trkpt lat="41.27937" lon="-8.5531">
        <ele>93.2</ele>
        <time>2021-03-20 12:34:52</time>
      </trkpt>
      <trkpt lat="41.27939" lon="-8.55324">
        <ele>93.2</ele>
        <time>2021-03-20 12:34:53</time>
      </trkpt>
      <trkpt lat="41.27941" lon="-8.55335">
        <ele>93.4</ele>
        <time>2021-03-20 12:34:54</time>
      </trkpt>
      <trkpt lat="41.27942" lon="-8.55344">
        <ele>93.6</ele>
        <time>2021-03-20 12:34:55</time>
      </trkpt>
      <trkpt lat="41.27941" lon="-8.55357">
        <ele>93.6</ele>
        <time>2021-03-20 12:34:56</time>
      </trkpt>
      <trkpt lat="41.27945" lon="-8.55369">
        <ele>93.8</ele>
        <time>2021-03-20 12:34:57</time>
      </trkpt>
      <trkpt lat="41.27944" lon="-8.5538">
        <ele>93.8</ele>
        <time>2021-03-20 12:34:58</time>
      </trkpt>
      <trkpt lat="41.27941" lon="-8.5539">
        <ele>93.6</ele>
        <time>2021-03-20 12:34:59</time>
      </trkpt>
      <trkpt lat="41.27939" lon="-8.554">
        <ele>93.2</ele>
        <time>2021-03-20 12:35:00</time>
      </trkpt>
      <trkpt lat="41.27938" lon="-8.5541">
        <ele>93.2</ele>
        <time>2021-03-20 12:35:01</time>
      </trkpt>
      <trkpt lat="41.27937" lon="-8.55417">
        <ele>93</ele>
        <time>2021-03-20 12:35:02</time>
      </trkpt>
      <trkpt lat="41.27929" lon="-8.55424">
        <ele>92.6</ele>
        <time>2021-03-20 12:35:03</time>
      </trkpt>
      <trkpt lat="41.27926" lon="-8.55438">
        <ele>92.2</ele>
        <time>2021-03-20 12:35:04</time>
      </trkpt>
      <trkpt lat="41.27927" lon="-8.55444">
        <ele>91.8</ele>
        <time>2021-03-20 12:35:05</time>
      </trkpt>
      <trkpt lat="41.27927" lon="-8.5545">
        <ele>91.8</ele>
        <time>2021-03-20 12:35:06</time>
      </trkpt>
      <trkpt lat="41.27931" lon="-8.55458">
        <ele>91.8</ele>
        <time>2021-03-20 12:35:07</time>
      </trkpt>
      <trkpt lat="41.27924" lon="-8.55464">
        <ele>91.8</ele>
        <time>2021-03-20 12:35:08</time>
      </trkpt>
      <trkpt lat="41.27924" lon="-8.5547">
        <ele>91.8</ele>
        <time>2021-03-20 12:35:09</time>
      </trkpt>
      <trkpt lat="41.27924" lon="-8.55476">
        <ele>91.6</ele>
        <time>2021-03-20 12:35:10</time>
      </trkpt>
      <trkpt lat="41.27922" lon="-8.55483">
        <ele>91.4</ele>
        <time>2021-03-20 12:35:11</time>
      </trkpt>
      <trkpt lat="41.27921" lon="-8.55489">
        <ele>91</ele>
        <time>2021-03-20 12:35:12</time>
      </trkpt>
      <trkpt lat="41.2792" lon="-8.55496">
        <ele>90.8</ele>
        <time>2021-03-20 12:35:13</time>
      </trkpt>
      <trkpt lat="41.27917" lon="-8.555">
        <ele>90.6</ele>
        <time>2021-03-20 12:35:14</time>
      </trkpt>
      <trkpt lat="41.27917" lon="-8.55506">
        <ele>90.6</ele>
        <time>2021-03-20 12:35:15</time>
      </trkpt>
      <trkpt lat="41.2791" lon="-8.55514">
        <ele>90.4</ele>
        <time>2021-03-20 12:35:16</time>
      </trkpt>
      <trkpt lat="41.2791" lon="-8.55518">
        <ele>90.2</ele>
        <time>2021-03-20 12:35:17</time>
      </trkpt>
      <trkpt lat="41.27904" lon="-8.55537">
        <ele>90.2</ele>
        <time>2021-03-20 12:35:18</time>
      </trkpt>
      <trkpt lat="41.27902" lon="-8.55545">
        <ele>90.2</ele>
        <time>2021-03-20 12:35:19</time>
      </trkpt>
      <trkpt lat="41.27904" lon="-8.55555">
        <ele>90</ele>
        <time>2021-03-20 12:35:20</time>
      </trkpt>
      <trkpt lat="41.27899" lon="-8.55566">
        <ele>89.8</ele>
        <time>2021-03-20 12:35:21</time>
      </trkpt>
      <trkpt lat="41.27905" lon="-8.55571">
        <ele>90</ele>
        <time>2021-03-20 12:35:22</time>
      </trkpt>
      <trkpt lat="41.27907" lon="-8.5558">
        <ele>90.2</ele>
        <time>2021-03-20 12:35:23</time>
      </trkpt>
      <trkpt lat="41.27908" lon="-8.55589">
        <ele>90.2</ele>
        <time>2021-03-20 12:35:24</time>
      </trkpt>
      <trkpt lat="41.2791" lon="-8.55599">
        <ele>90.2</ele>
        <time>2021-03-20 12:35:25</time>
      </trkpt>
      <trkpt lat="41.27913" lon="-8.55605">
        <ele>90.2</ele>
        <time>2021-03-20 12:35:26</time>
      </trkpt>
      <trkpt lat="41.27919" lon="-8.55612">
        <ele>90.4</ele>
        <time>2021-03-20 12:35:27</time>
      </trkpt>
      <trkpt lat="41.2792" lon="-8.55618">
        <ele>90.6</ele>
        <time>2021-03-20 12:35:28</time>
      </trkpt>
      <trkpt lat="41.27924" lon="-8.55627">
        <ele>90.4</ele>
        <time>2021-03-20 12:35:29</time>
      </trkpt>
      <trkpt lat="41.27928" lon="-8.55636">
        <ele>90.4</ele>
        <time>2021-03-20 12:35:30</time>
      </trkpt>
      <trkpt lat="41.27933" lon="-8.55645">
        <ele>90.6</ele>
        <time>2021-03-20 12:35:31</time>
      </trkpt>
      <trkpt lat="41.27937" lon="-8.55654">
        <ele>90.8</ele>
        <time>2021-03-20 12:35:32</time>
      </trkpt>
      <trkpt lat="41.27943" lon="-8.55662">
        <ele>90.8</ele>
        <time>2021-03-20 12:35:33</time>
      </trkpt>
      <trkpt lat="41.27945" lon="-8.55671">
        <ele>90.8</ele>
        <time>2021-03-20 12:35:34</time>
      </trkpt>
      <trkpt lat="41.2795" lon="-8.55682">
        <ele>91</ele>
        <time>2021-03-20 12:35:35</time>
      </trkpt>
      <trkpt lat="41.27952" lon="-8.55693">
        <ele>91.2</ele>
        <time>2021-03-20 12:35:36</time>
      </trkpt>
      <trkpt lat="41.27955" lon="-8.557">
        <ele>91.2</ele>
        <time>2021-03-20 12:35:37</time>
      </trkpt>
      <trkpt lat="41.2796" lon="-8.5571">
        <ele>91.2</ele>
        <time>2021-03-20 12:35:38</time>
      </trkpt>
      <trkpt lat="41.27966" lon="-8.55719">
        <ele>91.4</ele>
        <time>2021-03-20 12:35:39</time>
      </trkpt>
      <trkpt lat="41.27969" lon="-8.55729">
        <ele>91.6</ele>
        <time>2021-03-20 12:35:40</time>
      </trkpt>
      <trkpt lat="41.27972" lon="-8.55738">
        <ele>91.4</ele>
        <time>2021-03-20 12:35:41</time>
      </trkpt>
      <trkpt lat="41.27976" lon="-8.55748">
        <ele>91.4</ele>
        <time>2021-03-20 12:35:42</time>
      </trkpt>
      <trkpt lat="41.27983" lon="-8.55757">
        <ele>91.4</ele>
        <time>2021-03-20 12:35:43</time>
      </trkpt>
      <trkpt lat="41.27987" lon="-8.55773">
        <ele>91.4</ele>
        <time>2021-03-20 12:35:44</time>
      </trkpt>
      <trkpt lat="41.27992" lon="-8.55778">
        <ele>91.4</ele>
        <time>2021-03-20 12:35:45</time>
      </trkpt>
      <trkpt lat="41.27994" lon="-8.5579">
        <ele>91</ele>
        <time>2021-03-20 12:35:46</time>
      </trkpt>
      <trkpt lat="41.27999" lon="-8.55791">
        <ele>91.2</ele>
        <time>2021-03-20 12:35:47</time>
      </trkpt>
      <trkpt lat="41.28003" lon="-8.55802">
        <ele>91.2</ele>
        <time>2021-03-20 12:35:48</time>
      </trkpt>
      <trkpt lat="41.28006" lon="-8.55821">
        <ele>91.4</ele>
        <time>2021-03-20 12:35:49</time>
      </trkpt>
      <trkpt lat="41.28011" lon="-8.55826">
        <ele>91</ele>
        <time>2021-03-20 12:35:50</time>
      </trkpt>
      <trkpt lat="41.28014" lon="-8.55834">
        <ele>91</ele>
        <time>2021-03-20 12:35:51</time>
      </trkpt>
      <trkpt lat="41.2802" lon="-8.55847">
        <ele>91</ele>
        <time>2021-03-20 12:35:52</time>
      </trkpt>
      <trkpt lat="41.28027" lon="-8.55855">
        <ele>91.2</ele>
        <time>2021-03-20 12:35:53</time>
      </trkpt>
      <trkpt lat="41.28033" lon="-8.55863">
        <ele>91</ele>
        <time>2021-03-20 12:35:54</time>
      </trkpt>
      <trkpt lat="41.28036" lon="-8.55871">
        <ele>91</ele>
        <time>2021-03-20 12:35:55</time>
      </trkpt>
      <trkpt lat="41.28036" lon="-8.55881">
        <ele>90.8</ele>
        <time>2021-03-20 12:35:56</time>
      </trkpt>
      <trkpt lat="41.28047" lon="-8.55889">
        <ele>90.6</ele>
        <time>2021-03-20 12:35:57</time>
      </trkpt>
      <trkpt lat="41.28048" lon="-8.55898">
        <ele>90.6</ele>
        <time>2021-03-20 12:35:58</time>
      </trkpt>
      <trkpt lat="41.28052" lon="-8.55906">
        <ele>90.6</ele>
        <time>2021-03-20 12:35:59</time>
      </trkpt>
      <trkpt lat="41.28058" lon="-8.55914">
        <ele>91.2</ele>
        <time>2021-03-20 12:36:00</time>
      </trkpt>
      <trkpt lat="41.28059" lon="-8.55923">
        <ele>91.2</ele>
        <time>2021-03-20 12:36:01</time>
      </trkpt>
      <trkpt lat="41.28065" lon="-8.55931">
        <ele>91</ele>
        <time>2021-03-20 12:36:02</time>
      </trkpt>
      <trkpt lat="41.28068" lon="-8.55938">
        <ele>91</ele>
        <time>2021-03-20 12:36:03</time>
      </trkpt>
      <trkpt lat="41.2807" lon="-8.55948">
        <ele>91.2</ele>
        <time>2021-03-20 12:36:04</time>
      </trkpt>
      <trkpt lat="41.28076" lon="-8.55956">
        <ele>91</ele>
        <time>2021-03-20 12:36:05</time>
      </trkpt>
      <trkpt lat="41.2808" lon="-8.55962">
        <ele>91</ele>
        <time>2021-03-20 12:36:06</time>
      </trkpt>
      <trkpt lat="41.28084" lon="-8.55972">
        <ele>91.2</ele>
        <time>2021-03-20 12:36:07</time>
      </trkpt>
      <trkpt lat="41.28091" lon="-8.55977">
        <ele>91.2</ele>
        <time>2021-03-20 12:36:08</time>
      </trkpt>
      <trkpt lat="41.28095" lon="-8.55985">
        <ele>91.2</ele>
        <time>2021-03-20 12:36:09</time>
      </trkpt>
      <trkpt lat="41.28098" lon="-8.55993">
        <ele>91</ele>
        <time>2021-03-20 12:36:10</time>
      </trkpt>
      <trkpt lat="41.281" lon="-8.56002">
        <ele>90.8</ele>
        <time>2021-03-20 12:36:11</time>
      </trkpt>
      <trkpt lat="41.28105" lon="-8.56009">
        <ele>90.8</ele>
        <time>2021-03-20 12:36:12</time>
      </trkpt>
      <trkpt lat="41.28108" lon="-8.56017">
        <ele>90.6</ele>
        <time>2021-03-20 12:36:13</time>
      </trkpt>
      <trkpt lat="41.28107" lon="-8.56022">
        <ele>90.4</ele>
        <time>2021-03-20 12:36:14</time>
      </trkpt>
      <trkpt lat="41.28115" lon="-8.56032">
        <ele>90.2</ele>
        <time>2021-03-20 12:36:15</time>
      </trkpt>
      <trkpt lat="41.28118" lon="-8.56039">
        <ele>90</ele>
        <time>2021-03-20 12:36:16</time>
      </trkpt>
      <trkpt lat="41.28123" lon="-8.56047">
        <ele>90</ele>
        <time>2021-03-20 12:36:17</time>
      </trkpt>
      <trkpt lat="41.28127" lon="-8.56053">
        <ele>89.6</ele>
        <time>2021-03-20 12:36:18</time>
      </trkpt>
      <trkpt lat="41.28133" lon="-8.56061">
        <ele>89.2</ele>
        <time>2021-03-20 12:36:19</time>
      </trkpt>
      <trkpt lat="41.28149" lon="-8.56085">
        <ele>89</ele>
        <time>2021-03-20 12:36:20</time>
      </trkpt>
      <trkpt lat="41.28158" lon="-8.56105">
        <ele>88.6</ele>
        <time>2021-03-20 12:36:21</time>
      </trkpt>
      <trkpt lat="41.28161" lon="-8.56111">
        <ele>88.4</ele>
        <time>2021-03-20 12:36:22</time>
      </trkpt>
      <trkpt lat="41.28164" lon="-8.56119">
        <ele>88.4</ele>
        <time>2021-03-20 12:36:23</time>
      </trkpt>
      <trkpt lat="41.28166" lon="-8.56128">
        <ele>88.2</ele>
        <time>2021-03-20 12:36:24</time>
      </trkpt>
      <trkpt lat="41.2817" lon="-8.56135">
        <ele>88.2</ele>
        <time>2021-03-20 12:36:25</time>
      </trkpt>
      <trkpt lat="41.28174" lon="-8.56142">
        <ele>87.8</ele>
        <time>2021-03-20 12:36:26</time>
      </trkpt>
      <trkpt lat="41.28176" lon="-8.56149">
        <ele>87.6</ele>
        <time>2021-03-20 12:36:27</time>
      </trkpt>
      <trkpt lat="41.28181" lon="-8.56158">
        <ele>87.4</ele>
        <time>2021-03-20 12:36:28</time>
      </trkpt>
      <trkpt lat="41.28184" lon="-8.56165">
        <ele>87.2</ele>
        <time>2021-03-20 12:36:29</time>
      </trkpt>
      <trkpt lat="41.28189" lon="-8.56174">
        <ele>87</ele>
        <time>2021-03-20 12:36:30</time>
      </trkpt>
      <trkpt lat="41.28191" lon="-8.5618">
        <ele>87</ele>
        <time>2021-03-20 12:36:31</time>
      </trkpt>
      <trkpt lat="41.28192" lon="-8.56188">
        <ele>86.6</ele>
        <time>2021-03-20 12:36:32</time>
      </trkpt>
      <trkpt lat="41.28197" lon="-8.56198">
        <ele>86.2</ele>
        <time>2021-03-20 12:36:33</time>
      </trkpt>
      <trkpt lat="41.28197" lon="-8.56206">
        <ele>86.2</ele>
        <time>2021-03-20 12:36:34</time>
      </trkpt>
      <trkpt lat="41.28203" lon="-8.56213">
        <ele>86</ele>
        <time>2021-03-20 12:36:35</time>
      </trkpt>
      <trkpt lat="41.28201" lon="-8.56218">
        <ele>86</ele>
        <time>2021-03-20 12:36:36</time>
      </trkpt>
      <trkpt lat="41.28208" lon="-8.56225">
        <ele>85.6</ele>
        <time>2021-03-20 12:36:37</time>
      </trkpt>
      <trkpt lat="41.28211" lon="-8.56233">
        <ele>85.6</ele>
        <time>2021-03-20 12:36:38</time>
      </trkpt>
      <trkpt lat="41.28214" lon="-8.5624">
        <ele>85.6</ele>
        <time>2021-03-20 12:36:39</time>
      </trkpt>
      <trkpt lat="41.28219" lon="-8.56245">
        <ele>85.6</ele>
        <time>2021-03-20 12:36:40</time>
      </trkpt>
      <trkpt lat="41.28223" lon="-8.56255">
        <ele>85.6</ele>
        <time>2021-03-20 12:36:41</time>
      </trkpt>
      <trkpt lat="41.28226" lon="-8.56261">
        <ele>85.4</ele>
        <time>2021-03-20 12:36:42</time>
      </trkpt>
      <trkpt lat="41.28229" lon="-8.56272">
        <ele>85.2</ele>
        <time>2021-03-20 12:36:43</time>
      </trkpt>
      <trkpt lat="41.28235" lon="-8.5628">
        <ele>85.2</ele>
        <time>2021-03-20 12:36:44</time>
      </trkpt>
      <trkpt lat="41.28242" lon="-8.56289">
        <ele>85.2</ele>
        <time>2021-03-20 12:36:45</time>
      </trkpt>
      <trkpt lat="41.28242" lon="-8.56297">
        <ele>85.4</ele>
        <time>2021-03-20 12:36:46</time>
      </trkpt>
      <trkpt lat="41.28246" lon="-8.56303">
        <ele>85.4</ele>
        <time>2021-03-20 12:36:47</time>
      </trkpt>
      <trkpt lat="41.28249" lon="-8.56314">
        <ele>85.4</ele>
        <time>2021-03-20 12:36:48</time>
      </trkpt>
      <trkpt lat="41.28255" lon="-8.56324">
        <ele>85.2</ele>
        <time>2021-03-20 12:36:49</time>
      </trkpt>
      <trkpt lat="41.2826" lon="-8.56332">
        <ele>85.2</ele>
        <time>2021-03-20 12:36:50</time>
      </trkpt>
      <trkpt lat="41.28264" lon="-8.56342">
        <ele>85.2</ele>
        <time>2021-03-20 12:36:51</time>
      </trkpt>
      <trkpt lat="41.28269" lon="-8.56351">
        <ele>85.2</ele>
        <time>2021-03-20 12:36:52</time>
      </trkpt>
      <trkpt lat="41.2827" lon="-8.56359">
        <ele>85.4</ele>
        <time>2021-03-20 12:36:53</time>
      </trkpt>
      <trkpt lat="41.28277" lon="-8.56368">
        <ele>85.6</ele>
        <time>2021-03-20 12:36:54</time>
      </trkpt>
      <trkpt lat="41.2828" lon="-8.56379">
        <ele>85.6</ele>
        <time>2021-03-20 12:36:55</time>
      </trkpt>
      <trkpt lat="41.28285" lon="-8.56386">
        <ele>85.6</ele>
        <time>2021-03-20 12:36:56</time>
      </trkpt>
      <trkpt lat="41.28286" lon="-8.56396">
        <ele>85.4</ele>
        <time>2021-03-20 12:36:57</time>
      </trkpt>
      <trkpt lat="41.28286" lon="-8.56407">
        <ele>85.4</ele>
        <time>2021-03-20 12:36:58</time>
      </trkpt>
      <trkpt lat="41.28289" lon="-8.56418">
        <ele>85.6</ele>
        <time>2021-03-20 12:36:59</time>
      </trkpt>
      <trkpt lat="41.28292" lon="-8.56428">
        <ele>85.6</ele>
        <time>2021-03-20 12:37:00</time>
      </trkpt>
      <trkpt lat="41.28295" lon="-8.56434">
        <ele>85.4</ele>
        <time>2021-03-20 12:37:01</time>
      </trkpt>
      <trkpt lat="41.28299" lon="-8.56444">
        <ele>85.6</ele>
        <time>2021-03-20 12:37:02</time>
      </trkpt>
      <trkpt lat="41.28302" lon="-8.56456">
        <ele>85.6</ele>
        <time>2021-03-20 12:37:03</time>
      </trkpt>
      <trkpt lat="41.28302" lon="-8.56467">
        <ele>85.4</ele>
        <time>2021-03-20 12:37:04</time>
      </trkpt>
      <trkpt lat="41.28304" lon="-8.56474">
        <ele>85.4</ele>
        <time>2021-03-20 12:37:05</time>
      </trkpt>
      <trkpt lat="41.28303" lon="-8.56486">
        <ele>85.4</ele>
        <time>2021-03-20 12:37:06</time>
      </trkpt>
      <trkpt lat="41.28307" lon="-8.56497">
        <ele>85.4</ele>
        <time>2021-03-20 12:37:07</time>
      </trkpt>
      <trkpt lat="41.2831" lon="-8.56508">
        <ele>85.6</ele>
        <time>2021-03-20 12:37:08</time>
      </trkpt>
      <trkpt lat="41.28314" lon="-8.56519">
        <ele>85.6</ele>
        <time>2021-03-20 12:37:09</time>
      </trkpt>
      <trkpt lat="41.28313" lon="-8.56527">
        <ele>85.8</ele>
        <time>2021-03-20 12:37:10</time>
      </trkpt>
      <trkpt lat="41.28316" lon="-8.56536">
        <ele>85.6</ele>
        <time>2021-03-20 12:37:11</time>
      </trkpt>
      <trkpt lat="41.28318" lon="-8.56547">
        <ele>85.4</ele>
        <time>2021-03-20 12:37:12</time>
      </trkpt>
      <trkpt lat="41.28321" lon="-8.56557">
        <ele>85.2</ele>
        <time>2021-03-20 12:37:13</time>
      </trkpt>
      <trkpt lat="41.28324" lon="-8.56567">
        <ele>85.2</ele>
        <time>2021-03-20 12:37:14</time>
      </trkpt>
      <trkpt lat="41.28324" lon="-8.56575">
        <ele>85.4</ele>
        <time>2021-03-20 12:37:15</time>
      </trkpt>
      <trkpt lat="41.28326" lon="-8.56584">
        <ele>85.2</ele>
        <time>2021-03-20 12:37:16</time>
      </trkpt>
      <trkpt lat="41.2833" lon="-8.56591">
        <ele>85.2</ele>
        <time>2021-03-20 12:37:17</time>
      </trkpt>
      <trkpt lat="41.28334" lon="-8.56598">
        <ele>85.2</ele>
        <time>2021-03-20 12:37:18</time>
      </trkpt>
      <trkpt lat="41.28335" lon="-8.56604">
        <ele>85</ele>
        <time>2021-03-20 12:37:19</time>
      </trkpt>
      <trkpt lat="41.28339" lon="-8.56614">
        <ele>85</ele>
        <time>2021-03-20 12:37:20</time>
      </trkpt>
      <trkpt lat="41.28339" lon="-8.56624">
        <ele>85</ele>
        <time>2021-03-20 12:37:21</time>
      </trkpt>
      <trkpt lat="41.28339" lon="-8.56634">
        <ele>85.2</ele>
        <time>2021-03-20 12:37:22</time>
      </trkpt>
      <trkpt lat="41.28343" lon="-8.56641">
        <ele>85.4</ele>
        <time>2021-03-20 12:37:23</time>
      </trkpt>
      <trkpt lat="41.28345" lon="-8.56651">
        <ele>85.4</ele>
        <time>2021-03-20 12:37:24</time>
      </trkpt>
      <trkpt lat="41.28346" lon="-8.56661">
        <ele>85.4</ele>
        <time>2021-03-20 12:37:25</time>
      </trkpt>
      <trkpt lat="41.28347" lon="-8.56671">
        <ele>85.4</ele>
        <time>2021-03-20 12:37:26</time>
      </trkpt>
      <trkpt lat="41.2835" lon="-8.5668">
        <ele>85.4</ele>
        <time>2021-03-20 12:37:27</time>
      </trkpt>
      <trkpt lat="41.2835" lon="-8.56691">
        <ele>85.6</ele>
        <time>2021-03-20 12:37:28</time>
      </trkpt>
      <trkpt lat="41.28352" lon="-8.56701">
        <ele>85.6</ele>
        <time>2021-03-20 12:37:29</time>
      </trkpt>
      <trkpt lat="41.2835" lon="-8.56715">
        <ele>85.6</ele>
        <time>2021-03-20 12:37:30</time>
      </trkpt>
      <trkpt lat="41.28353" lon="-8.56723">
        <ele>85.8</ele>
        <time>2021-03-20 12:37:31</time>
      </trkpt>
      <trkpt lat="41.28358" lon="-8.56733">
        <ele>85.8</ele>
        <time>2021-03-20 12:37:32</time>
      </trkpt>
      <trkpt lat="41.28357" lon="-8.5674">
        <ele>85.8</ele>
        <time>2021-03-20 12:37:33</time>
      </trkpt>
      <trkpt lat="41.28362" lon="-8.56749">
        <ele>85.8</ele>
        <time>2021-03-20 12:37:34</time>
      </trkpt>
      <trkpt lat="41.28362" lon="-8.56759">
        <ele>86</ele>
        <time>2021-03-20 12:37:35</time>
      </trkpt>
      <trkpt lat="41.28364" lon="-8.56768">
        <ele>86.4</ele>
        <time>2021-03-20 12:37:36</time>
      </trkpt>
      <trkpt lat="41.28364" lon="-8.56784">
        <ele>86.8</ele>
        <time>2021-03-20 12:37:37</time>
      </trkpt>
      <trkpt lat="41.28364" lon="-8.56793">
        <ele>86.8</ele>
        <time>2021-03-20 12:37:38</time>
      </trkpt>
      <trkpt lat="41.28368" lon="-8.56799">
        <ele>87.2</ele>
        <time>2021-03-20 12:37:39</time>
      </trkpt>
      <trkpt lat="41.28369" lon="-8.5681">
        <ele>87.6</ele>
        <time>2021-03-20 12:37:40</time>
      </trkpt>
      <trkpt lat="41.28369" lon="-8.5682">
        <ele>87.8</ele>
        <time>2021-03-20 12:37:41</time>
      </trkpt>
      <trkpt lat="41.28369" lon="-8.56833">
        <ele>88</ele>
        <time>2021-03-20 12:37:42</time>
      </trkpt>
      <trkpt lat="41.2837" lon="-8.56842">
        <ele>88.2</ele>
        <time>2021-03-20 12:37:43</time>
      </trkpt>
      <trkpt lat="41.28369" lon="-8.56853">
        <ele>88.4</ele>
        <time>2021-03-20 12:37:44</time>
      </trkpt>
      <trkpt lat="41.28369" lon="-8.56865">
        <ele>88.6</ele>
        <time>2021-03-20 12:37:45</time>
      </trkpt>
      <trkpt lat="41.2837" lon="-8.56876">
        <ele>89</ele>
        <time>2021-03-20 12:37:46</time>
      </trkpt>
      <trkpt lat="41.2837" lon="-8.56887">
        <ele>89.2</ele>
        <time>2021-03-20 12:37:47</time>
      </trkpt>
      <trkpt lat="41.2837" lon="-8.56898">
        <ele>89.6</ele>
        <time>2021-03-20 12:37:48</time>
      </trkpt>
      <trkpt lat="41.2837" lon="-8.56911">
        <ele>90</ele>
        <time>2021-03-20 12:37:49</time>
      </trkpt>
      <trkpt lat="41.28369" lon="-8.56923">
        <ele>90.2</ele>
        <time>2021-03-20 12:37:50</time>
      </trkpt>
      <trkpt lat="41.28369" lon="-8.56936">
        <ele>90.4</ele>
        <time>2021-03-20 12:37:51</time>
      </trkpt>
      <trkpt lat="41.28368" lon="-8.56949">
        <ele>90.6</ele>
        <time>2021-03-20 12:37:52</time>
      </trkpt>
      <trkpt lat="41.28367" lon="-8.56964">
        <ele>90.8</ele>
        <time>2021-03-20 12:37:53</time>
      </trkpt>
      <trkpt lat="41.28367" lon="-8.56976">
        <ele>91</ele>
        <time>2021-03-20 12:37:54</time>
      </trkpt>
      <trkpt lat="41.28367" lon="-8.56986">
        <ele>91.2</ele>
        <time>2021-03-20 12:37:55</time>
      </trkpt>
      <trkpt lat="41.28367" lon="-8.56996">
        <ele>91.4</ele>
        <time>2021-03-20 12:37:56</time>
      </trkpt>
      <trkpt lat="41.28366" lon="-8.57009">
        <ele>91.8</ele>
        <time>2021-03-20 12:37:57</time>
      </trkpt>
      <trkpt lat="41.28366" lon="-8.5702">
        <ele>92.4</ele>
        <time>2021-03-20 12:37:58</time>
      </trkpt>
      <trkpt lat="41.28366" lon="-8.57031">
        <ele>92.8</ele>
        <time>2021-03-20 12:37:59</time>
      </trkpt>
      <trkpt lat="41.28366" lon="-8.57042">
        <ele>93</ele>
        <time>2021-03-20 12:38:00</time>
      </trkpt>
      <trkpt lat="41.28366" lon="-8.57052">
        <ele>93.2</ele>
        <time>2021-03-20 12:38:01</time>
      </trkpt>
      <trkpt lat="41.28367" lon="-8.57061">
        <ele>93.4</ele>
        <time>2021-03-20 12:38:02</time>
      </trkpt>
      <trkpt lat="41.28367" lon="-8.57071">
        <ele>93.6</ele>
        <time>2021-03-20 12:38:03</time>
      </trkpt>
      <trkpt lat="41.28367" lon="-8.57079">
        <ele>93.6</ele>
        <time>2021-03-20 12:38:04</time>
      </trkpt>
      <trkpt lat="41.28367" lon="-8.57083">
        <ele>93.8</ele>
        <time>2021-03-20 12:38:05</time>
      </trkpt>
      <trkpt lat="41.28368" lon="-8.57093">
        <ele>94</ele>
        <time>2021-03-20 12:38:06</time>
      </trkpt>
      <trkpt lat="41.28368" lon="-8.57102">
        <ele>94.4</ele>
        <time>2021-03-20 12:38:07</time>
      </trkpt>
      <trkpt lat="41.28369" lon="-8.57111">
        <ele>94.6</ele>
        <time>2021-03-20 12:38:08</time>
      </trkpt>
      <trkpt lat="41.28368" lon="-8.57119">
        <ele>94.8</ele>
        <time>2021-03-20 12:38:09</time>
      </trkpt>
      <trkpt lat="41.28368" lon="-8.5713">
        <ele>95</ele>
        <time>2021-03-20 12:38:10</time>
      </trkpt>
      <trkpt lat="41.28368" lon="-8.5714">
        <ele>95.4</ele>
        <time>2021-03-20 12:38:11</time>
      </trkpt>
      <trkpt lat="41.28375" lon="-8.57148">
        <ele>95.4</ele>
        <time>2021-03-20 12:38:12</time>
      </trkpt>
      <trkpt lat="41.2837" lon="-8.57157">
        <ele>95.6</ele>
        <time>2021-03-20 12:38:13</time>
      </trkpt>
      <trkpt lat="41.2837" lon="-8.57167">
        <ele>95.8</ele>
        <time>2021-03-20 12:38:14</time>
      </trkpt>
      <trkpt lat="41.28371" lon="-8.57175">
        <ele>96</ele>
        <time>2021-03-20 12:38:15</time>
      </trkpt>
      <trkpt lat="41.28371" lon="-8.57182">
        <ele>96.4</ele>
        <time>2021-03-20 12:38:16</time>
      </trkpt>
      <trkpt lat="41.28373" lon="-8.57186">
        <ele>96.8</ele>
        <time>2021-03-20 12:38:17</time>
      </trkpt>
      <trkpt lat="41.28373" lon="-8.57195">
        <ele>97</ele>
        <time>2021-03-20 12:38:18</time>
      </trkpt>
      <trkpt lat="41.28374" lon="-8.57203">
        <ele>97.2</ele>
        <time>2021-03-20 12:38:19</time>
      </trkpt>
      <trkpt lat="41.28374" lon="-8.5721">
        <ele>97.4</ele>
        <time>2021-03-20 12:38:20</time>
      </trkpt>
      <trkpt lat="41.28371" lon="-8.57219">
        <ele>97.6</ele>
        <time>2021-03-20 12:38:21</time>
      </trkpt>
      <trkpt lat="41.28373" lon="-8.57228">
        <ele>97.8</ele>
        <time>2021-03-20 12:38:22</time>
      </trkpt>
      <trkpt lat="41.28372" lon="-8.57237">
        <ele>98</ele>
        <time>2021-03-20 12:38:23</time>
      </trkpt>
      <trkpt lat="41.28372" lon="-8.57245">
        <ele>98.2</ele>
        <time>2021-03-20 12:38:24</time>
      </trkpt>
      <trkpt lat="41.28371" lon="-8.57253">
        <ele>98.8</ele>
        <time>2021-03-20 12:38:25</time>
      </trkpt>
      <trkpt lat="41.28368" lon="-8.5726">
        <ele>99</ele>
        <time>2021-03-20 12:38:26</time>
      </trkpt>
      <trkpt lat="41.28373" lon="-8.57269">
        <ele>99.2</ele>
        <time>2021-03-20 12:38:27</time>
      </trkpt>
      <trkpt lat="41.28372" lon="-8.57278">
        <ele>99.4</ele>
        <time>2021-03-20 12:38:28</time>
      </trkpt>
      <trkpt lat="41.28372" lon="-8.57285">
        <ele>99.4</ele>
        <time>2021-03-20 12:38:29</time>
      </trkpt>
      <trkpt lat="41.28372" lon="-8.57292">
        <ele>99.6</ele>
        <time>2021-03-20 12:38:30</time>
      </trkpt>
      <trkpt lat="41.28372" lon="-8.57299">
        <ele>99.8</ele>
        <time>2021-03-20 12:38:31</time>
      </trkpt>
      <trkpt lat="41.28372" lon="-8.57306">
        <ele>99.8</ele>
        <time>2021-03-20 12:38:32</time>
      </trkpt>
      <trkpt lat="41.28372" lon="-8.57313">
        <ele>100.2</ele>
        <time>2021-03-20 12:38:33</time>
      </trkpt>
      <trkpt lat="41.28373" lon="-8.5732">
        <ele>100.4</ele>
        <time>2021-03-20 12:38:34</time>
      </trkpt>
      <trkpt lat="41.28373" lon="-8.57325">
        <ele>100.4</ele>
        <time>2021-03-20 12:38:35</time>
      </trkpt>
      <trkpt lat="41.28373" lon="-8.57334">
        <ele>100.6</ele>
        <time>2021-03-20 12:38:36</time>
      </trkpt>
      <trkpt lat="41.28373" lon="-8.57339">
        <ele>100.8</ele>
        <time>2021-03-20 12:38:37</time>
      </trkpt>
      <trkpt lat="41.28373" lon="-8.57347">
        <ele>101.2</ele>
        <time>2021-03-20 12:38:38</time>
      </trkpt>
      <trkpt lat="41.28373" lon="-8.57353">
        <ele>101.4</ele>
        <time>2021-03-20 12:38:39</time>
      </trkpt>
      <trkpt lat="41.28373" lon="-8.5736">
        <ele>101.6</ele>
        <time>2021-03-20 12:38:40</time>
      </trkpt>
      <trkpt lat="41.28373" lon="-8.57367">
        <ele>101.8</ele>
        <time>2021-03-20 12:38:41</time>
      </trkpt>
      <trkpt lat="41.28372" lon="-8.57375">
        <ele>102</ele>
        <time>2021-03-20 12:38:42</time>
      </trkpt>
      <trkpt lat="41.28372" lon="-8.57381">
        <ele>102</ele>
        <time>2021-03-20 12:38:43</time>
      </trkpt>
      <trkpt lat="41.28373" lon="-8.57387">
        <ele>102.4</ele>
        <time>2021-03-20 12:38:44</time>
      </trkpt>
      <trkpt lat="41.28373" lon="-8.57392">
        <ele>102.8</ele>
        <time>2021-03-20 12:38:45</time>
      </trkpt>
      <trkpt lat="41.28373" lon="-8.57398">
        <ele>103.2</ele>
        <time>2021-03-20 12:38:46</time>
      </trkpt>
      <trkpt lat="41.28374" lon="-8.57403">
        <ele>103.4</ele>
        <time>2021-03-20 12:38:47</time>
      </trkpt>
      <trkpt lat="41.28375" lon="-8.57407">
        <ele>103.4</ele>
        <time>2021-03-20 12:38:48</time>
      </trkpt>
      <trkpt lat="41.28376" lon="-8.5741">
        <ele>103.8</ele>
        <time>2021-03-20 12:38:49</time>
      </trkpt>
      <trkpt lat="41.28376" lon="-8.57413">
        <ele>104.2</ele>
        <time>2021-03-20 12:38:50</time>
      </trkpt>
      <trkpt lat="41.28378" lon="-8.5742">
        <ele>104.4</ele>
        <time>2021-03-20 12:38:51</time>
      </trkpt>
      <trkpt lat="41.28381" lon="-8.57427">
        <ele>104.6</ele>
        <time>2021-03-20 12:38:52</time>
      </trkpt>
      <trkpt lat="41.28374" lon="-8.57447">
        <ele>104.8</ele>
        <time>2021-03-20 12:38:53</time>
      </trkpt>
      <trkpt lat="41.28364" lon="-8.57468">
        <ele>105.2</ele>
        <time>2021-03-20 12:38:54</time>
      </trkpt>
      <trkpt lat="41.28362" lon="-8.57469">
        <ele>105.4</ele>
        <time>2021-03-20 12:38:55</time>
      </trkpt>
      <trkpt lat="41.28366" lon="-8.57475">
        <ele>105.6</ele>
        <time>2021-03-20 12:38:56</time>
      </trkpt>
      <trkpt lat="41.28366" lon="-8.57481">
        <ele>105.8</ele>
        <time>2021-03-20 12:38:57</time>
      </trkpt>
      <trkpt lat="41.28365" lon="-8.57487">
        <ele>106.2</ele>
        <time>2021-03-20 12:38:58</time>
      </trkpt>
      <trkpt lat="41.28366" lon="-8.57492">
        <ele>106.2</ele>
        <time>2021-03-20 12:38:59</time>
      </trkpt>
      <trkpt lat="41.28366" lon="-8.57497">
        <ele>106.6</ele>
        <time>2021-03-20 12:39:00</time>
      </trkpt>
      <trkpt lat="41.28367" lon="-8.57503">
        <ele>106.8</ele>
        <time>2021-03-20 12:39:01</time>
      </trkpt>
      <trkpt lat="41.28369" lon="-8.57507">
        <ele>107</ele>
        <time>2021-03-20 12:39:02</time>
      </trkpt>
      <trkpt lat="41.28371" lon="-8.57511">
        <ele>107</ele>
        <time>2021-03-20 12:39:03</time>
      </trkpt>
      <trkpt lat="41.28372" lon="-8.57517">
        <ele>107</ele>
        <time>2021-03-20 12:39:04</time>
      </trkpt>
      <trkpt lat="41.28373" lon="-8.57521">
        <ele>107.2</ele>
        <time>2021-03-20 12:39:05</time>
      </trkpt>
      <trkpt lat="41.28377" lon="-8.57528">
        <ele>107.6</ele>
        <time>2021-03-20 12:39:06</time>
      </trkpt>
      <trkpt lat="41.28378" lon="-8.57534">
        <ele>107.6</ele>
        <time>2021-03-20 12:39:07</time>
      </trkpt>
      <trkpt lat="41.28376" lon="-8.5754">
        <ele>107.8</ele>
        <time>2021-03-20 12:39:08</time>
      </trkpt>
      <trkpt lat="41.28377" lon="-8.57547">
        <ele>108</ele>
        <time>2021-03-20 12:39:09</time>
      </trkpt>
      <trkpt lat="41.28377" lon="-8.57554">
        <ele>108.2</ele>
        <time>2021-03-20 12:39:10</time>
      </trkpt>
      <trkpt lat="41.28378" lon="-8.57559">
        <ele>108.4</ele>
        <time>2021-03-20 12:39:11</time>
      </trkpt>
      <trkpt lat="41.28381" lon="-8.57564">
        <ele>108.6</ele>
        <time>2021-03-20 12:39:12</time>
      </trkpt>
      <trkpt lat="41.28383" lon="-8.57573">
        <ele>108.8</ele>
        <time>2021-03-20 12:39:13</time>
      </trkpt>
      <trkpt lat="41.28383" lon="-8.57579">
        <ele>108.8</ele>
        <time>2021-03-20 12:39:14</time>
      </trkpt>
      <trkpt lat="41.28381" lon="-8.57584">
        <ele>109.4</ele>
        <time>2021-03-20 12:39:15</time>
      </trkpt>
      <trkpt lat="41.28387" lon="-8.57591">
        <ele>109.6</ele>
        <time>2021-03-20 12:39:16</time>
      </trkpt>
      <trkpt lat="41.2839" lon="-8.57597">
        <ele>109.8</ele>
        <time>2021-03-20 12:39:17</time>
      </trkpt>
      <trkpt lat="41.2839" lon="-8.57601">
        <ele>110.2</ele>
        <time>2021-03-20 12:39:18</time>
      </trkpt>
      <trkpt lat="41.28389" lon="-8.57609">
        <ele>110.2</ele>
        <time>2021-03-20 12:39:19</time>
      </trkpt>
      <trkpt lat="41.2839" lon="-8.57613">
        <ele>110.2</ele>
        <time>2021-03-20 12:39:20</time>
      </trkpt>
      <trkpt lat="41.2839" lon="-8.57616">
        <ele>110.4</ele>
        <time>2021-03-20 12:39:21</time>
      </trkpt>
      <trkpt lat="41.28396" lon="-8.57619">
        <ele>110.4</ele>
        <time>2021-03-20 12:39:22</time>
      </trkpt>
      <trkpt lat="41.28395" lon="-8.57622">
        <ele>110.6</ele>
        <time>2021-03-20 12:39:23</time>
      </trkpt>
      <trkpt lat="41.28397" lon="-8.57626">
        <ele>111.2</ele>
        <time>2021-03-20 12:39:24</time>
      </trkpt>
      <trkpt lat="41.284" lon="-8.57632">
        <ele>111.6</ele>
        <time>2021-03-20 12:39:25</time>
      </trkpt>
      <trkpt lat="41.28397" lon="-8.57639">
        <ele>111.8</ele>
        <time>2021-03-20 12:39:26</time>
      </trkpt>
      <trkpt lat="41.28403" lon="-8.57643">
        <ele>112</ele>
        <time>2021-03-20 12:39:27</time>
      </trkpt>
      <trkpt lat="41.284" lon="-8.57649">
        <ele>112.4</ele>
        <time>2021-03-20 12:39:28</time>
      </trkpt>
      <trkpt lat="41.28401" lon="-8.57653">
        <ele>112.6</ele>
        <time>2021-03-20 12:39:29</time>
      </trkpt>
      <trkpt lat="41.28402" lon="-8.57658">
        <ele>113</ele>
        <time>2021-03-20 12:39:30</time>
      </trkpt>
      <trkpt lat="41.28403" lon="-8.57662">
        <ele>113.2</ele>
        <time>2021-03-20 12:39:31</time>
      </trkpt>
      <trkpt lat="41.28404" lon="-8.57668">
        <ele>113.4</ele>
        <time>2021-03-20 12:39:32</time>
      </trkpt>
      <trkpt lat="41.28405" lon="-8.57674">
        <ele>113.4</ele>
        <time>2021-03-20 12:39:33</time>
      </trkpt>
      <trkpt lat="41.28411" lon="-8.57678">
        <ele>113.6</ele>
        <time>2021-03-20 12:39:34</time>
      </trkpt>
      <trkpt lat="41.28407" lon="-8.57683">
        <ele>113.8</ele>
        <time>2021-03-20 12:39:35</time>
      </trkpt>
      <trkpt lat="41.28407" lon="-8.57686">
        <ele>113.8</ele>
        <time>2021-03-20 12:39:36</time>
      </trkpt>
      <trkpt lat="41.28408" lon="-8.57691">
        <ele>114.4</ele>
        <time>2021-03-20 12:39:37</time>
      </trkpt>
      <trkpt lat="41.28408" lon="-8.57695">
        <ele>114.2</ele>
        <time>2021-03-20 12:39:38</time>
      </trkpt>
      <trkpt lat="41.28409" lon="-8.577">
        <ele>114.4</ele>
        <time>2021-03-20 12:39:39</time>
      </trkpt>
      <trkpt lat="41.28408" lon="-8.57704">
        <ele>114.8</ele>
        <time>2021-03-20 12:39:40</time>
      </trkpt>
      <trkpt lat="41.28408" lon="-8.57708">
        <ele>115.2</ele>
        <time>2021-03-20 12:39:41</time>
      </trkpt>
      <trkpt lat="41.28409" lon="-8.57712">
        <ele>115.2</ele>
        <time>2021-03-20 12:39:42</time>
      </trkpt>
      <trkpt lat="41.28409" lon="-8.57716">
        <ele>115.4</ele>
        <time>2021-03-20 12:39:43</time>
      </trkpt>
      <trkpt lat="41.28409" lon="-8.57722">
        <ele>115.8</ele>
        <time>2021-03-20 12:39:44</time>
      </trkpt>
      <trkpt lat="41.28411" lon="-8.57726">
        <ele>116</ele>
        <time>2021-03-20 12:39:45</time>
      </trkpt>
      <trkpt lat="41.28411" lon="-8.57732">
        <ele>116.2</ele>
        <time>2021-03-20 12:39:46</time>
      </trkpt>
      <trkpt lat="41.28414" lon="-8.57735">
        <ele>116.6</ele>
        <time>2021-03-20 12:39:47</time>
      </trkpt>
      <trkpt lat="41.28413" lon="-8.5774">
        <ele>116.8</ele>
        <time>2021-03-20 12:39:48</time>
      </trkpt>
      <trkpt lat="41.28414" lon="-8.57747">
        <ele>117</ele>
        <time>2021-03-20 12:39:49</time>
      </trkpt>
      <trkpt lat="41.28414" lon="-8.57755">
        <ele>117.2</ele>
        <time>2021-03-20 12:39:50</time>
      </trkpt>
      <trkpt lat="41.28415" lon="-8.5776">
        <ele>117.6</ele>
        <time>2021-03-20 12:39:51</time>
      </trkpt>
      <trkpt lat="41.28415" lon="-8.5777">
        <ele>117.8</ele>
        <time>2021-03-20 12:39:52</time>
      </trkpt>
      <trkpt lat="41.28413" lon="-8.57775">
        <ele>118</ele>
        <time>2021-03-20 12:39:53</time>
      </trkpt>
      <trkpt lat="41.28417" lon="-8.57783">
        <ele>118.2</ele>
        <time>2021-03-20 12:39:54</time>
      </trkpt>
      <trkpt lat="41.28413" lon="-8.5779">
        <ele>118.4</ele>
        <time>2021-03-20 12:39:55</time>
      </trkpt>
      <trkpt lat="41.28414" lon="-8.57797">
        <ele>118.8</ele>
        <time>2021-03-20 12:39:56</time>
      </trkpt>
      <trkpt lat="41.28411" lon="-8.57802">
        <ele>119</ele>
        <time>2021-03-20 12:39:57</time>
      </trkpt>
      <trkpt lat="41.28412" lon="-8.57808">
        <ele>119</ele>
        <time>2021-03-20 12:39:58</time>
      </trkpt>
      <trkpt lat="41.28409" lon="-8.57814">
        <ele>119.2</ele>
        <time>2021-03-20 12:39:59</time>
      </trkpt>
      <trkpt lat="41.2841" lon="-8.57821">
        <ele>119.4</ele>
        <time>2021-03-20 12:40:00</time>
      </trkpt>
      <trkpt lat="41.28411" lon="-8.57831">
        <ele>119.6</ele>
        <time>2021-03-20 12:40:01</time>
      </trkpt>
      <trkpt lat="41.28409" lon="-8.57836">
        <ele>119.6</ele>
        <time>2021-03-20 12:40:02</time>
      </trkpt>
      <trkpt lat="41.28408" lon="-8.57843">
        <ele>120</ele>
        <time>2021-03-20 12:40:03</time>
      </trkpt>
      <trkpt lat="41.28406" lon="-8.57849">
        <ele>120.2</ele>
        <time>2021-03-20 12:40:04</time>
      </trkpt>
      <trkpt lat="41.28401" lon="-8.57854">
        <ele>120.6</ele>
        <time>2021-03-20 12:40:05</time>
      </trkpt>
      <trkpt lat="41.28397" lon="-8.5786">
        <ele>120.6</ele>
        <time>2021-03-20 12:40:06</time>
      </trkpt>
      <trkpt lat="41.28391" lon="-8.57866">
        <ele>120.8</ele>
        <time>2021-03-20 12:40:07</time>
      </trkpt>
      <trkpt lat="41.28388" lon="-8.57871">
        <ele>120.8</ele>
        <time>2021-03-20 12:40:08</time>
      </trkpt>
      <trkpt lat="41.28383" lon="-8.57877">
        <ele>121</ele>
        <time>2021-03-20 12:40:09</time>
      </trkpt>
      <trkpt lat="41.28379" lon="-8.57881">
        <ele>121.2</ele>
        <time>2021-03-20 12:40:10</time>
      </trkpt>
      <trkpt lat="41.28377" lon="-8.57884">
        <ele>121.4</ele>
        <time>2021-03-20 12:40:11</time>
      </trkpt>
      <trkpt lat="41.28373" lon="-8.57888">
        <ele>121.6</ele>
        <time>2021-03-20 12:40:12</time>
      </trkpt>
      <trkpt lat="41.2837" lon="-8.57893">
        <ele>121.8</ele>
        <time>2021-03-20 12:40:13</time>
      </trkpt>
      <trkpt lat="41.28366" lon="-8.57897">
        <ele>122</ele>
        <time>2021-03-20 12:40:14</time>
      </trkpt>
      <trkpt lat="41.28362" lon="-8.57901">
        <ele>122</ele>
        <time>2021-03-20 12:40:15</time>
      </trkpt>
      <trkpt lat="41.28358" lon="-8.57905">
        <ele>122.2</ele>
        <time>2021-03-20 12:40:16</time>
      </trkpt>
      <trkpt lat="41.28354" lon="-8.57909">
        <ele>122.6</ele>
        <time>2021-03-20 12:40:17</time>
      </trkpt>
      <trkpt lat="41.28351" lon="-8.57912">
        <ele>122.6</ele>
        <time>2021-03-20 12:40:18</time>
      </trkpt>
      <trkpt lat="41.28347" lon="-8.57916">
        <ele>122.8</ele>
        <time>2021-03-20 12:40:19</time>
      </trkpt>
      <trkpt lat="41.28343" lon="-8.5792">
        <ele>123</ele>
        <time>2021-03-20 12:40:20</time>
      </trkpt>
      <trkpt lat="41.2834" lon="-8.57924">
        <ele>123</ele>
        <time>2021-03-20 12:40:21</time>
      </trkpt>
      <trkpt lat="41.28335" lon="-8.57928">
        <ele>123.4</ele>
        <time>2021-03-20 12:40:22</time>
      </trkpt>
      <trkpt lat="41.28332" lon="-8.57931">
        <ele>123.6</ele>
        <time>2021-03-20 12:40:23</time>
      </trkpt>
      <trkpt lat="41.28328" lon="-8.57935">
        <ele>123.6</ele>
        <time>2021-03-20 12:40:24</time>
      </trkpt>
      <trkpt lat="41.28325" lon="-8.57939">
        <ele>123.8</ele>
        <time>2021-03-20 12:40:25</time>
      </trkpt>
      <trkpt lat="41.28323" lon="-8.57944">
        <ele>124</ele>
        <time>2021-03-20 12:40:26</time>
      </trkpt>
      <trkpt lat="41.28321" lon="-8.5795">
        <ele>124.4</ele>
        <time>2021-03-20 12:40:27</time>
      </trkpt>
      <trkpt lat="41.28319" lon="-8.57956">
        <ele>124.8</ele>
        <time>2021-03-20 12:40:28</time>
      </trkpt>
      <trkpt lat="41.28317" lon="-8.57963">
        <ele>125</ele>
        <time>2021-03-20 12:40:29</time>
      </trkpt>
      <trkpt lat="41.28316" lon="-8.57967">
        <ele>124.8</ele>
        <time>2021-03-20 12:40:30</time>
      </trkpt>
      <trkpt lat="41.28315" lon="-8.57973">
        <ele>124.8</ele>
        <time>2021-03-20 12:40:31</time>
      </trkpt>
      <trkpt lat="41.28314" lon="-8.57979">
        <ele>125.2</ele>
        <time>2021-03-20 12:40:32</time>
      </trkpt>
      <trkpt lat="41.28313" lon="-8.57985">
        <ele>125.4</ele>
        <time>2021-03-20 12:40:33</time>
      </trkpt>
      <trkpt lat="41.28313" lon="-8.57991">
        <ele>125.6</ele>
        <time>2021-03-20 12:40:34</time>
      </trkpt>
      <trkpt lat="41.28312" lon="-8.57996">
        <ele>125.8</ele>
        <time>2021-03-20 12:40:35</time>
      </trkpt>
      <trkpt lat="41.28311" lon="-8.58002">
        <ele>126</ele>
        <time>2021-03-20 12:40:36</time>
      </trkpt>
      <trkpt lat="41.2831" lon="-8.58007">
        <ele>126.4</ele>
        <time>2021-03-20 12:40:37</time>
      </trkpt>
      <trkpt lat="41.2831" lon="-8.58013">
        <ele>126.6</ele>
        <time>2021-03-20 12:40:38</time>
      </trkpt>
      <trkpt lat="41.28309" lon="-8.58019">
        <ele>127</ele>
        <time>2021-03-20 12:40:39</time>
      </trkpt>
      <trkpt lat="41.28308" lon="-8.58025">
        <ele>127.4</ele>
        <time>2021-03-20 12:40:40</time>
      </trkpt>
      <trkpt lat="41.28308" lon="-8.5803">
        <ele>127.8</ele>
        <time>2021-03-20 12:40:41</time>
      </trkpt>
      <trkpt lat="41.28308" lon="-8.58036">
        <ele>127.8</ele>
        <time>2021-03-20 12:40:42</time>
      </trkpt>
      <trkpt lat="41.28308" lon="-8.5804">
        <ele>127.8</ele>
        <time>2021-03-20 12:40:43</time>
      </trkpt>
      <trkpt lat="41.28307" lon="-8.58044">
        <ele>127.8</ele>
        <time>2021-03-20 12:40:44</time>
      </trkpt>
      <trkpt lat="41.28307" lon="-8.5805">
        <ele>127.8</ele>
        <time>2021-03-20 12:40:45</time>
      </trkpt>
      <trkpt lat="41.28307" lon="-8.58055">
        <ele>128.2</ele>
        <time>2021-03-20 12:40:46</time>
      </trkpt>
      <trkpt lat="41.28306" lon="-8.58061">
        <ele>128.2</ele>
        <time>2021-03-20 12:40:47</time>
      </trkpt>
      <trkpt lat="41.28305" lon="-8.58068">
        <ele>128.2</ele>
        <time>2021-03-20 12:40:48</time>
      </trkpt>
      <trkpt lat="41.28305" lon="-8.58072">
        <ele>128.4</ele>
        <time>2021-03-20 12:40:49</time>
      </trkpt>
      <trkpt lat="41.28305" lon="-8.58077">
        <ele>128.6</ele>
        <time>2021-03-20 12:40:50</time>
      </trkpt>
      <trkpt lat="41.28305" lon="-8.58082">
        <ele>128.8</ele>
        <time>2021-03-20 12:40:51</time>
      </trkpt>
      <trkpt lat="41.28305" lon="-8.58088">
        <ele>129</ele>
        <time>2021-03-20 12:40:52</time>
      </trkpt>
      <trkpt lat="41.28304" lon="-8.58094">
        <ele>129.2</ele>
        <time>2021-03-20 12:40:53</time>
      </trkpt>
      <trkpt lat="41.28303" lon="-8.58101">
        <ele>129.4</ele>
        <time>2021-03-20 12:40:54</time>
      </trkpt>
      <trkpt lat="41.28302" lon="-8.58108">
        <ele>129.8</ele>
        <time>2021-03-20 12:40:55</time>
      </trkpt>
      <trkpt lat="41.28302" lon="-8.58114">
        <ele>130</ele>
        <time>2021-03-20 12:40:56</time>
      </trkpt>
      <trkpt lat="41.28302" lon="-8.58122">
        <ele>130</ele>
        <time>2021-03-20 12:40:57</time>
      </trkpt>
      <trkpt lat="41.28301" lon="-8.5813">
        <ele>130</ele>
        <time>2021-03-20 12:40:58</time>
      </trkpt>
      <trkpt lat="41.283" lon="-8.58137">
        <ele>129.8</ele>
        <time>2021-03-20 12:40:59</time>
      </trkpt>
      <trkpt lat="41.283" lon="-8.58142">
        <ele>129.6</ele>
        <time>2021-03-20 12:41:00</time>
      </trkpt>
      <trkpt lat="41.28302" lon="-8.58151">
        <ele>129.8</ele>
        <time>2021-03-20 12:41:01</time>
      </trkpt>
      <trkpt lat="41.28303" lon="-8.58167">
        <ele>129.8</ele>
        <time>2021-03-20 12:41:02</time>
      </trkpt>
      <trkpt lat="41.28302" lon="-8.58192">
        <ele>129.8</ele>
        <time>2021-03-20 12:41:03</time>
      </trkpt>
      <trkpt lat="41.28302" lon="-8.58198">
        <ele>129.8</ele>
        <time>2021-03-20 12:41:04</time>
      </trkpt>
      <trkpt lat="41.28302" lon="-8.58204">
        <ele>130</ele>
        <time>2021-03-20 12:41:05</time>
      </trkpt>
      <trkpt lat="41.28301" lon="-8.5821">
        <ele>130</ele>
        <time>2021-03-20 12:41:06</time>
      </trkpt>
      <trkpt lat="41.28301" lon="-8.58216">
        <ele>129.6</ele>
        <time>2021-03-20 12:41:07</time>
      </trkpt>
      <trkpt lat="41.283" lon="-8.58223">
        <ele>129.6</ele>
        <time>2021-03-20 12:41:08</time>
      </trkpt>
      <trkpt lat="41.283" lon="-8.5823">
        <ele>129.6</ele>
        <time>2021-03-20 12:41:09</time>
      </trkpt>
      <trkpt lat="41.28299" lon="-8.58236">
        <ele>129.8</ele>
        <time>2021-03-20 12:41:10</time>
      </trkpt>
      <trkpt lat="41.28299" lon="-8.58243">
        <ele>129.6</ele>
        <time>2021-03-20 12:41:11</time>
      </trkpt>
      <trkpt lat="41.28298" lon="-8.5825">
        <ele>129.6</ele>
        <time>2021-03-20 12:41:12</time>
      </trkpt>
      <trkpt lat="41.28298" lon="-8.58256">
        <ele>129.6</ele>
        <time>2021-03-20 12:41:13</time>
      </trkpt>
      <trkpt lat="41.28298" lon="-8.58265">
        <ele>129.4</ele>
        <time>2021-03-20 12:41:14</time>
      </trkpt>
      <trkpt lat="41.28298" lon="-8.5827">
        <ele>130</ele>
        <time>2021-03-20 12:41:15</time>
      </trkpt>
      <trkpt lat="41.28297" lon="-8.58276">
        <ele>130</ele>
        <time>2021-03-20 12:41:16</time>
      </trkpt>
      <trkpt lat="41.28296" lon="-8.58284">
        <ele>129.8</ele>
        <time>2021-03-20 12:41:17</time>
      </trkpt>
      <trkpt lat="41.28295" lon="-8.58292">
        <ele>130</ele>
        <time>2021-03-20 12:41:18</time>
      </trkpt>
      <trkpt lat="41.28294" lon="-8.583">
        <ele>130</ele>
        <time>2021-03-20 12:41:19</time>
      </trkpt>
      <trkpt lat="41.28293" lon="-8.58305">
        <ele>129.8</ele>
        <time>2021-03-20 12:41:20</time>
      </trkpt>
      <trkpt lat="41.28292" lon="-8.58312">
        <ele>130</ele>
        <time>2021-03-20 12:41:21</time>
      </trkpt>
      <trkpt lat="41.28291" lon="-8.58319">
        <ele>130</ele>
        <time>2021-03-20 12:41:22</time>
      </trkpt>
      <trkpt lat="41.2829" lon="-8.58328">
        <ele>130</ele>
        <time>2021-03-20 12:41:23</time>
      </trkpt>
      <trkpt lat="41.2829" lon="-8.58336">
        <ele>130</ele>
        <time>2021-03-20 12:41:24</time>
      </trkpt>
      <trkpt lat="41.28289" lon="-8.58342">
        <ele>129.8</ele>
        <time>2021-03-20 12:41:25</time>
      </trkpt>
      <trkpt lat="41.28288" lon="-8.58351">
        <ele>129.8</ele>
        <time>2021-03-20 12:41:26</time>
      </trkpt>
      <trkpt lat="41.28288" lon="-8.58359">
        <ele>129.6</ele>
        <time>2021-03-20 12:41:27</time>
      </trkpt>
      <trkpt lat="41.28287" lon="-8.58366">
        <ele>129.2</ele>
        <time>2021-03-20 12:41:28</time>
      </trkpt>
      <trkpt lat="41.28286" lon="-8.58372">
        <ele>129</ele>
        <time>2021-03-20 12:41:29</time>
      </trkpt>
      <trkpt lat="41.28285" lon="-8.58381">
        <ele>128.8</ele>
        <time>2021-03-20 12:41:30</time>
      </trkpt>
      <trkpt lat="41.28283" lon="-8.5839">
        <ele>128.4</ele>
        <time>2021-03-20 12:41:31</time>
      </trkpt>
      <trkpt lat="41.28282" lon="-8.58399">
        <ele>127.8</ele>
        <time>2021-03-20 12:41:32</time>
      </trkpt>
      <trkpt lat="41.28282" lon="-8.58408">
        <ele>127.4</ele>
        <time>2021-03-20 12:41:33</time>
      </trkpt>
      <trkpt lat="41.28281" lon="-8.58414">
        <ele>127</ele>
        <time>2021-03-20 12:41:34</time>
      </trkpt>
      <trkpt lat="41.2828" lon="-8.58423">
        <ele>126.8</ele>
        <time>2021-03-20 12:41:35</time>
      </trkpt>
      <trkpt lat="41.28281" lon="-8.58431">
        <ele>126.8</ele>
        <time>2021-03-20 12:41:36</time>
      </trkpt>
      <trkpt lat="41.28281" lon="-8.58439">
        <ele>126.4</ele>
        <time>2021-03-20 12:41:37</time>
      </trkpt>
      <trkpt lat="41.28279" lon="-8.58445">
        <ele>126.2</ele>
        <time>2021-03-20 12:41:38</time>
      </trkpt>
      <trkpt lat="41.28279" lon="-8.58453">
        <ele>126.2</ele>
        <time>2021-03-20 12:41:39</time>
      </trkpt>
      <trkpt lat="41.28281" lon="-8.58457">
        <ele>126</ele>
        <time>2021-03-20 12:41:40</time>
      </trkpt>
      <trkpt lat="41.2828" lon="-8.58465">
        <ele>125.6</ele>
        <time>2021-03-20 12:41:41</time>
      </trkpt>
      <trkpt lat="41.28281" lon="-8.5847">
        <ele>125.2</ele>
        <time>2021-03-20 12:41:42</time>
      </trkpt>
      <trkpt lat="41.28282" lon="-8.58474">
        <ele>125</ele>
        <time>2021-03-20 12:41:43</time>
      </trkpt>
      <trkpt lat="41.28283" lon="-8.5848">
        <ele>124.6</ele>
        <time>2021-03-20 12:41:44</time>
      </trkpt>
      <trkpt lat="41.28284" lon="-8.58486">
        <ele>124</ele>
        <time>2021-03-20 12:41:45</time>
      </trkpt>
      <trkpt lat="41.28285" lon="-8.58492">
        <ele>123.6</ele>
        <time>2021-03-20 12:41:46</time>
      </trkpt>
      <trkpt lat="41.28287" lon="-8.58498">
        <ele>123</ele>
        <time>2021-03-20 12:41:47</time>
      </trkpt>
      <trkpt lat="41.28288" lon="-8.58505">
        <ele>122.8</ele>
        <time>2021-03-20 12:41:48</time>
      </trkpt>
      <trkpt lat="41.28289" lon="-8.58513">
        <ele>122.2</ele>
        <time>2021-03-20 12:41:49</time>
      </trkpt>
      <trkpt lat="41.28291" lon="-8.58522">
        <ele>121.8</ele>
        <time>2021-03-20 12:41:50</time>
      </trkpt>
      <trkpt lat="41.28296" lon="-8.5853">
        <ele>121.4</ele>
        <time>2021-03-20 12:41:51</time>
      </trkpt>
      <trkpt lat="41.28295" lon="-8.58537">
        <ele>120.8</ele>
        <time>2021-03-20 12:41:52</time>
      </trkpt>
      <trkpt lat="41.28302" lon="-8.58547">
        <ele>120.4</ele>
        <time>2021-03-20 12:41:53</time>
      </trkpt>
      <trkpt lat="41.28302" lon="-8.58556">
        <ele>120.4</ele>
        <time>2021-03-20 12:41:54</time>
      </trkpt>
      <trkpt lat="41.28308" lon="-8.58567">
        <ele>120.2</ele>
        <time>2021-03-20 12:41:55</time>
      </trkpt>
      <trkpt lat="41.28309" lon="-8.58574">
        <ele>120.2</ele>
        <time>2021-03-20 12:41:56</time>
      </trkpt>
      <trkpt lat="41.28311" lon="-8.58584">
        <ele>120.2</ele>
        <time>2021-03-20 12:41:57</time>
      </trkpt>
      <trkpt lat="41.28314" lon="-8.58594">
        <ele>120</ele>
        <time>2021-03-20 12:41:58</time>
      </trkpt>
      <trkpt lat="41.2832" lon="-8.58607">
        <ele>120.2</ele>
        <time>2021-03-20 12:41:59</time>
      </trkpt>
      <trkpt lat="41.28325" lon="-8.58613">
        <ele>120.2</ele>
        <time>2021-03-20 12:42:00</time>
      </trkpt>
      <trkpt lat="41.28327" lon="-8.58624">
        <ele>120.6</ele>
        <time>2021-03-20 12:42:01</time>
      </trkpt>
      <trkpt lat="41.28329" lon="-8.58636">
        <ele>121</ele>
        <time>2021-03-20 12:42:02</time>
      </trkpt>
      <trkpt lat="41.28333" lon="-8.58645">
        <ele>121.4</ele>
        <time>2021-03-20 12:42:03</time>
      </trkpt>
      <trkpt lat="41.28338" lon="-8.58654">
        <ele>121</ele>
        <time>2021-03-20 12:42:04</time>
      </trkpt>
      <trkpt lat="41.28343" lon="-8.58659">
        <ele>121.4</ele>
        <time>2021-03-20 12:42:05</time>
      </trkpt>
      <trkpt lat="41.28344" lon="-8.5867">
        <ele>122.2</ele>
        <time>2021-03-20 12:42:06</time>
      </trkpt>
      <trkpt lat="41.2835" lon="-8.58681">
        <ele>122.6</ele>
        <time>2021-03-20 12:42:07</time>
      </trkpt>
      <trkpt lat="41.28355" lon="-8.58688">
        <ele>122.6</ele>
        <time>2021-03-20 12:42:08</time>
      </trkpt>
      <trkpt lat="41.28352" lon="-8.58696">
        <ele>122.8</ele>
        <time>2021-03-20 12:42:09</time>
      </trkpt>
      <trkpt lat="41.28356" lon="-8.58708">
        <ele>123</ele>
        <time>2021-03-20 12:42:10</time>
      </trkpt>
      <trkpt lat="41.28357" lon="-8.58728">
        <ele>123.2</ele>
        <time>2021-03-20 12:42:11</time>
      </trkpt>
      <trkpt lat="41.28367" lon="-8.58739">
        <ele>123.6</ele>
        <time>2021-03-20 12:42:12</time>
      </trkpt>
      <trkpt lat="41.28375" lon="-8.58748">
        <ele>123.4</ele>
        <time>2021-03-20 12:42:13</time>
      </trkpt>
      <trkpt lat="41.28376" lon="-8.58755">
        <ele>123.6</ele>
        <time>2021-03-20 12:42:14</time>
      </trkpt>
      <trkpt lat="41.28383" lon="-8.58762">
        <ele>124</ele>
        <time>2021-03-20 12:42:15</time>
      </trkpt>
      <trkpt lat="41.28387" lon="-8.58774">
        <ele>124.2</ele>
        <time>2021-03-20 12:42:16</time>
      </trkpt>
      <trkpt lat="41.2839" lon="-8.58795">
        <ele>124.4</ele>
        <time>2021-03-20 12:42:17</time>
      </trkpt>
      <trkpt lat="41.2839" lon="-8.58805">
        <ele>124.4</ele>
        <time>2021-03-20 12:42:18</time>
      </trkpt>
      <trkpt lat="41.28391" lon="-8.58819">
        <ele>124.6</ele>
        <time>2021-03-20 12:42:19</time>
      </trkpt>
      <trkpt lat="41.28399" lon="-8.58833">
        <ele>124.4</ele>
        <time>2021-03-20 12:42:20</time>
      </trkpt>
      <trkpt lat="41.28399" lon="-8.5884">
        <ele>124.4</ele>
        <time>2021-03-20 12:42:21</time>
      </trkpt>
      <trkpt lat="41.28405" lon="-8.58851">
        <ele>124.4</ele>
        <time>2021-03-20 12:42:22</time>
      </trkpt>
      <trkpt lat="41.28409" lon="-8.5887">
        <ele>124.2</ele>
        <time>2021-03-20 12:42:23</time>
      </trkpt>
      <trkpt lat="41.28415" lon="-8.58885">
        <ele>124</ele>
        <time>2021-03-20 12:42:24</time>
      </trkpt>
      <trkpt lat="41.28413" lon="-8.58895">
        <ele>124.2</ele>
        <time>2021-03-20 12:42:25</time>
      </trkpt>
      <trkpt lat="41.28422" lon="-8.58898">
        <ele>124.2</ele>
        <time>2021-03-20 12:42:26</time>
      </trkpt>
      <trkpt lat="41.28426" lon="-8.58906">
        <ele>124.2</ele>
        <time>2021-03-20 12:42:27</time>
      </trkpt>
      <trkpt lat="41.28427" lon="-8.58921">
        <ele>124</ele>
        <time>2021-03-20 12:42:28</time>
      </trkpt>
      <trkpt lat="41.28427" lon="-8.58934">
        <ele>124</ele>
        <time>2021-03-20 12:42:29</time>
      </trkpt>
      <trkpt lat="41.28434" lon="-8.58944">
        <ele>124.2</ele>
        <time>2021-03-20 12:42:30</time>
      </trkpt>
      <trkpt lat="41.28434" lon="-8.58954">
        <ele>124.2</ele>
        <time>2021-03-20 12:42:31</time>
      </trkpt>
      <trkpt lat="41.2844" lon="-8.58962">
        <ele>124.4</ele>
        <time>2021-03-20 12:42:32</time>
      </trkpt>
      <trkpt lat="41.2844" lon="-8.58971">
        <ele>124.4</ele>
        <time>2021-03-20 12:42:33</time>
      </trkpt>
      <trkpt lat="41.28446" lon="-8.58981">
        <ele>124.2</ele>
        <time>2021-03-20 12:42:34</time>
      </trkpt>
      <trkpt lat="41.28453" lon="-8.58987">
        <ele>124.4</ele>
        <time>2021-03-20 12:42:35</time>
      </trkpt>
      <trkpt lat="41.28452" lon="-8.58996">
        <ele>124.2</ele>
        <time>2021-03-20 12:42:36</time>
      </trkpt>
      <trkpt lat="41.28454" lon="-8.59006">
        <ele>124.2</ele>
        <time>2021-03-20 12:42:37</time>
      </trkpt>
      <trkpt lat="41.2846" lon="-8.59016">
        <ele>124</ele>
        <time>2021-03-20 12:42:38</time>
      </trkpt>
      <trkpt lat="41.28461" lon="-8.59023">
        <ele>123.8</ele>
        <time>2021-03-20 12:42:39</time>
      </trkpt>
      <trkpt lat="41.28467" lon="-8.59033">
        <ele>123.6</ele>
        <time>2021-03-20 12:42:40</time>
      </trkpt>
      <trkpt lat="41.28469" lon="-8.59042">
        <ele>123.4</ele>
        <time>2021-03-20 12:42:41</time>
      </trkpt>
      <trkpt lat="41.28475" lon="-8.59051">
        <ele>123</ele>
        <time>2021-03-20 12:42:42</time>
      </trkpt>
      <trkpt lat="41.28475" lon="-8.59058">
        <ele>122.4</ele>
        <time>2021-03-20 12:42:43</time>
      </trkpt>
      <trkpt lat="41.28477" lon="-8.59067">
        <ele>122.2</ele>
        <time>2021-03-20 12:42:44</time>
      </trkpt>
      <trkpt lat="41.28482" lon="-8.59075">
        <ele>122</ele>
        <time>2021-03-20 12:42:45</time>
      </trkpt>
      <trkpt lat="41.28486" lon="-8.59083">
        <ele>121.8</ele>
        <time>2021-03-20 12:42:46</time>
      </trkpt>
      <trkpt lat="41.2849" lon="-8.5909">
        <ele>121.4</ele>
        <time>2021-03-20 12:42:47</time>
      </trkpt>
      <trkpt lat="41.2849" lon="-8.59097">
        <ele>121</ele>
        <time>2021-03-20 12:42:48</time>
      </trkpt>
      <trkpt lat="41.2849" lon="-8.59106">
        <ele>121</ele>
        <time>2021-03-20 12:42:49</time>
      </trkpt>
      <trkpt lat="41.28498" lon="-8.59114">
        <ele>120.8</ele>
        <time>2021-03-20 12:42:50</time>
      </trkpt>
      <trkpt lat="41.28499" lon="-8.59123">
        <ele>120.4</ele>
        <time>2021-03-20 12:42:51</time>
      </trkpt>
      <trkpt lat="41.28501" lon="-8.59129">
        <ele>120</ele>
        <time>2021-03-20 12:42:52</time>
      </trkpt>
      <trkpt lat="41.28503" lon="-8.59138">
        <ele>119.6</ele>
        <time>2021-03-20 12:42:53</time>
      </trkpt>
      <trkpt lat="41.28515" lon="-8.59145">
        <ele>119.6</ele>
        <time>2021-03-20 12:42:54</time>
      </trkpt>
      <trkpt lat="41.28513" lon="-8.59152">
        <ele>119.2</ele>
        <time>2021-03-20 12:42:55</time>
      </trkpt>
      <trkpt lat="41.28512" lon="-8.59161">
        <ele>118.6</ele>
        <time>2021-03-20 12:42:56</time>
      </trkpt>
      <trkpt lat="41.28514" lon="-8.59169">
        <ele>118.2</ele>
        <time>2021-03-20 12:42:57</time>
      </trkpt>
      <trkpt lat="41.2852" lon="-8.59178">
        <ele>118</ele>
        <time>2021-03-20 12:42:58</time>
      </trkpt>
      <trkpt lat="41.28525" lon="-8.59186">
        <ele>117.6</ele>
        <time>2021-03-20 12:42:59</time>
      </trkpt>
      <trkpt lat="41.28524" lon="-8.59194">
        <ele>117.4</ele>
        <time>2021-03-20 12:43:00</time>
      </trkpt>
      <trkpt lat="41.28529" lon="-8.59201">
        <ele>117</ele>
        <time>2021-03-20 12:43:01</time>
      </trkpt>
      <trkpt lat="41.28529" lon="-8.59209">
        <ele>116.4</ele>
        <time>2021-03-20 12:43:02</time>
      </trkpt>
      <trkpt lat="41.28536" lon="-8.59214">
        <ele>116</ele>
        <time>2021-03-20 12:43:03</time>
      </trkpt>
      <trkpt lat="41.28539" lon="-8.59223">
        <ele>115.6</ele>
        <time>2021-03-20 12:43:04</time>
      </trkpt>
      <trkpt lat="41.2854" lon="-8.5923">
        <ele>115.4</ele>
        <time>2021-03-20 12:43:05</time>
      </trkpt>
      <trkpt lat="41.28544" lon="-8.59238">
        <ele>115</ele>
        <time>2021-03-20 12:43:06</time>
      </trkpt>
      <trkpt lat="41.28547" lon="-8.59246">
        <ele>114.8</ele>
        <time>2021-03-20 12:43:07</time>
      </trkpt>
      <trkpt lat="41.28551" lon="-8.59254">
        <ele>114.4</ele>
        <time>2021-03-20 12:43:08</time>
      </trkpt>
      <trkpt lat="41.28556" lon="-8.59262">
        <ele>114</ele>
        <time>2021-03-20 12:43:09</time>
      </trkpt>
      <trkpt lat="41.28556" lon="-8.5927">
        <ele>113.2</ele>
        <time>2021-03-20 12:43:10</time>
      </trkpt>
      <trkpt lat="41.28561" lon="-8.59278">
        <ele>113</ele>
        <time>2021-03-20 12:43:11</time>
      </trkpt>
      <trkpt lat="41.28562" lon="-8.59286">
        <ele>112.8</ele>
        <time>2021-03-20 12:43:12</time>
      </trkpt>
      <trkpt lat="41.28566" lon="-8.59294">
        <ele>112.6</ele>
        <time>2021-03-20 12:43:13</time>
      </trkpt>
      <trkpt lat="41.2857" lon="-8.59302">
        <ele>112.2</ele>
        <time>2021-03-20 12:43:14</time>
      </trkpt>
      <trkpt lat="41.28573" lon="-8.5931">
        <ele>112</ele>
        <time>2021-03-20 12:43:15</time>
      </trkpt>
      <trkpt lat="41.28576" lon="-8.59319">
        <ele>112</ele>
        <time>2021-03-20 12:43:16</time>
      </trkpt>
      <trkpt lat="41.2858" lon="-8.59331">
        <ele>111.8</ele>
        <time>2021-03-20 12:43:17</time>
      </trkpt>
      <trkpt lat="41.28582" lon="-8.5934">
        <ele>111.4</ele>
        <time>2021-03-20 12:43:18</time>
      </trkpt>
      <trkpt lat="41.28584" lon="-8.59348">
        <ele>110.8</ele>
        <time>2021-03-20 12:43:19</time>
      </trkpt>
      <trkpt lat="41.28586" lon="-8.59358">
        <ele>110.6</ele>
        <time>2021-03-20 12:43:20</time>
      </trkpt>
      <trkpt lat="41.28586" lon="-8.5937">
        <ele>110</ele>
        <time>2021-03-20 12:43:21</time>
      </trkpt>
      <trkpt lat="41.28586" lon="-8.59378">
        <ele>109.6</ele>
        <time>2021-03-20 12:43:22</time>
      </trkpt>
      <trkpt lat="41.28587" lon="-8.5939">
        <ele>109.4</ele>
        <time>2021-03-20 12:43:23</time>
      </trkpt>
      <trkpt lat="41.28586" lon="-8.59402">
        <ele>109</ele>
        <time>2021-03-20 12:43:24</time>
      </trkpt>
      <trkpt lat="41.28585" lon="-8.59417">
        <ele>109</ele>
        <time>2021-03-20 12:43:25</time>
      </trkpt>
      <trkpt lat="41.28584" lon="-8.59425">
        <ele>108.4</ele>
        <time>2021-03-20 12:43:26</time>
      </trkpt>
      <trkpt lat="41.28584" lon="-8.59437">
        <ele>108</ele>
        <time>2021-03-20 12:43:27</time>
      </trkpt>
      <trkpt lat="41.28582" lon="-8.59449">
        <ele>107.6</ele>
        <time>2021-03-20 12:43:28</time>
      </trkpt>
      <trkpt lat="41.28581" lon="-8.59462">
        <ele>107.2</ele>
        <time>2021-03-20 12:43:29</time>
      </trkpt>
      <trkpt lat="41.2858" lon="-8.59474">
        <ele>107</ele>
        <time>2021-03-20 12:43:30</time>
      </trkpt>
      <trkpt lat="41.28578" lon="-8.59486">
        <ele>106.6</ele>
        <time>2021-03-20 12:43:31</time>
      </trkpt>
      <trkpt lat="41.28577" lon="-8.59499">
        <ele>106.4</ele>
        <time>2021-03-20 12:43:32</time>
      </trkpt>
      <trkpt lat="41.28576" lon="-8.59515">
        <ele>106</ele>
        <time>2021-03-20 12:43:33</time>
      </trkpt>
      <trkpt lat="41.28576" lon="-8.59527">
        <ele>105.8</ele>
        <time>2021-03-20 12:43:34</time>
      </trkpt>
      <trkpt lat="41.28577" lon="-8.59536">
        <ele>105.4</ele>
        <time>2021-03-20 12:43:35</time>
      </trkpt>
      <trkpt lat="41.28578" lon="-8.59551">
        <ele>105.2</ele>
        <time>2021-03-20 12:43:36</time>
      </trkpt>
      <trkpt lat="41.28578" lon="-8.59564">
        <ele>104.4</ele>
        <time>2021-03-20 12:43:37</time>
      </trkpt>
      <trkpt lat="41.28578" lon="-8.59576">
        <ele>104</ele>
        <time>2021-03-20 12:43:38</time>
      </trkpt>
      <trkpt lat="41.28579" lon="-8.59589">
        <ele>103.6</ele>
        <time>2021-03-20 12:43:39</time>
      </trkpt>
      <trkpt lat="41.28579" lon="-8.59598">
        <ele>103</ele>
        <time>2021-03-20 12:43:40</time>
      </trkpt>
      <trkpt lat="41.28577" lon="-8.59614">
        <ele>102.8</ele>
        <time>2021-03-20 12:43:41</time>
      </trkpt>
      <trkpt lat="41.28575" lon="-8.59629">
        <ele>102.4</ele>
        <time>2021-03-20 12:43:42</time>
      </trkpt>
      <trkpt lat="41.28572" lon="-8.5964">
        <ele>101.6</ele>
        <time>2021-03-20 12:43:43</time>
      </trkpt>
      <trkpt lat="41.28569" lon="-8.59649">
        <ele>101.2</ele>
        <time>2021-03-20 12:43:44</time>
      </trkpt>
      <trkpt lat="41.28564" lon="-8.59663">
        <ele>100.2</ele>
        <time>2021-03-20 12:43:45</time>
      </trkpt>
      <trkpt lat="41.28561" lon="-8.59674">
        <ele>100</ele>
        <time>2021-03-20 12:43:46</time>
      </trkpt>
      <trkpt lat="41.28559" lon="-8.5968">
        <ele>99.8</ele>
        <time>2021-03-20 12:43:47</time>
      </trkpt>
      <trkpt lat="41.28556" lon="-8.59692">
        <ele>99.4</ele>
        <time>2021-03-20 12:43:48</time>
      </trkpt>
      <trkpt lat="41.28555" lon="-8.59702">
        <ele>99.2</ele>
        <time>2021-03-20 12:43:49</time>
      </trkpt>
      <trkpt lat="41.28554" lon="-8.59709">
        <ele>98.8</ele>
        <time>2021-03-20 12:43:50</time>
      </trkpt>
      <trkpt lat="41.28555" lon="-8.59718">
        <ele>99.4</ele>
        <time>2021-03-20 12:43:51</time>
      </trkpt>
      <trkpt lat="41.28556" lon="-8.59728">
        <ele>99.4</ele>
        <time>2021-03-20 12:43:52</time>
      </trkpt>
      <trkpt lat="41.2856" lon="-8.59734">
        <ele>99.6</ele>
        <time>2021-03-20 12:43:53</time>
      </trkpt>
      <trkpt lat="41.28565" lon="-8.5974">
        <ele>99.6</ele>
        <time>2021-03-20 12:43:54</time>
      </trkpt>
      <trkpt lat="41.28568" lon="-8.59749">
        <ele>99.8</ele>
        <time>2021-03-20 12:43:55</time>
      </trkpt>
      <trkpt lat="41.28579" lon="-8.59762">
        <ele>99.8</ele>
        <time>2021-03-20 12:43:56</time>
      </trkpt>
      <trkpt lat="41.28584" lon="-8.59773">
        <ele>99.6</ele>
        <time>2021-03-20 12:43:57</time>
      </trkpt>
      <trkpt lat="41.28588" lon="-8.59779">
        <ele>99.4</ele>
        <time>2021-03-20 12:43:58</time>
      </trkpt>
      <trkpt lat="41.28594" lon="-8.5979">
        <ele>99.4</ele>
        <time>2021-03-20 12:43:59</time>
      </trkpt>
      <trkpt lat="41.28598" lon="-8.59808">
        <ele>99.4</ele>
        <time>2021-03-20 12:44:00</time>
      </trkpt>
      <trkpt lat="41.28601" lon="-8.5981">
        <ele>99.4</ele>
        <time>2021-03-20 12:44:01</time>
      </trkpt>
      <trkpt lat="41.28604" lon="-8.59818">
        <ele>99.4</ele>
        <time>2021-03-20 12:44:02</time>
      </trkpt>
      <trkpt lat="41.28613" lon="-8.59828">
        <ele>99.4</ele>
        <time>2021-03-20 12:44:03</time>
      </trkpt>
      <trkpt lat="41.28619" lon="-8.59839">
        <ele>99.4</ele>
        <time>2021-03-20 12:44:04</time>
      </trkpt>
      <trkpt lat="41.28626" lon="-8.59853">
        <ele>99.4</ele>
        <time>2021-03-20 12:44:05</time>
      </trkpt>
      <trkpt lat="41.28631" lon="-8.59863">
        <ele>99.2</ele>
        <time>2021-03-20 12:44:06</time>
      </trkpt>
      <trkpt lat="41.28632" lon="-8.59876">
        <ele>99.2</ele>
        <time>2021-03-20 12:44:07</time>
      </trkpt>
      <trkpt lat="41.28636" lon="-8.59886">
        <ele>99.4</ele>
        <time>2021-03-20 12:44:08</time>
      </trkpt>
      <trkpt lat="41.28636" lon="-8.59899">
        <ele>99.6</ele>
        <time>2021-03-20 12:44:09</time>
      </trkpt>
      <trkpt lat="41.28633" lon="-8.59913">
        <ele>99.6</ele>
        <time>2021-03-20 12:44:10</time>
      </trkpt>
      <trkpt lat="41.28635" lon="-8.59926">
        <ele>99.6</ele>
        <time>2021-03-20 12:44:11</time>
      </trkpt>
      <trkpt lat="41.28642" lon="-8.59934">
        <ele>99.8</ele>
        <time>2021-03-20 12:44:12</time>
      </trkpt>
      <trkpt lat="41.28643" lon="-8.59953">
        <ele>99.8</ele>
        <time>2021-03-20 12:44:13</time>
      </trkpt>
      <trkpt lat="41.28646" lon="-8.59964">
        <ele>100</ele>
        <time>2021-03-20 12:44:14</time>
      </trkpt>
      <trkpt lat="41.28643" lon="-8.5998">
        <ele>100</ele>
        <time>2021-03-20 12:44:15</time>
      </trkpt>
      <trkpt lat="41.28643" lon="-8.59992">
        <ele>100</ele>
        <time>2021-03-20 12:44:16</time>
      </trkpt>
      <trkpt lat="41.28644" lon="-8.60005">
        <ele>100</ele>
        <time>2021-03-20 12:44:17</time>
      </trkpt>
      <trkpt lat="41.28644" lon="-8.60016">
        <ele>99.8</ele>
        <time>2021-03-20 12:44:18</time>
      </trkpt>
      <trkpt lat="41.28645" lon="-8.60032">
        <ele>99.8</ele>
        <time>2021-03-20 12:44:19</time>
      </trkpt>
      <trkpt lat="41.28646" lon="-8.60045">
        <ele>99.8</ele>
        <time>2021-03-20 12:44:20</time>
      </trkpt>
      <trkpt lat="41.28648" lon="-8.60057">
        <ele>99.6</ele>
        <time>2021-03-20 12:44:21</time>
      </trkpt>
      <trkpt lat="41.28648" lon="-8.60074">
        <ele>99.6</ele>
        <time>2021-03-20 12:44:22</time>
      </trkpt>
      <trkpt lat="41.28647" lon="-8.60086">
        <ele>99.6</ele>
        <time>2021-03-20 12:44:23</time>
      </trkpt>
      <trkpt lat="41.28647" lon="-8.60094">
        <ele>99.6</ele>
        <time>2021-03-20 12:44:24</time>
      </trkpt>
      <trkpt lat="41.28647" lon="-8.60106">
        <ele>99.6</ele>
        <time>2021-03-20 12:44:25</time>
      </trkpt>
      <trkpt lat="41.28648" lon="-8.60121">
        <ele>99.4</ele>
        <time>2021-03-20 12:44:26</time>
      </trkpt>
      <trkpt lat="41.28647" lon="-8.60132">
        <ele>99.4</ele>
        <time>2021-03-20 12:44:27</time>
      </trkpt>
      <trkpt lat="41.28647" lon="-8.6014">
        <ele>99.4</ele>
        <time>2021-03-20 12:44:28</time>
      </trkpt>
      <trkpt lat="41.28648" lon="-8.60153">
        <ele>99.6</ele>
        <time>2021-03-20 12:44:29</time>
      </trkpt>
      <trkpt lat="41.28648" lon="-8.60164">
        <ele>99.6</ele>
        <time>2021-03-20 12:44:30</time>
      </trkpt>
      <trkpt lat="41.28648" lon="-8.60173">
        <ele>99.6</ele>
        <time>2021-03-20 12:44:31</time>
      </trkpt>
      <trkpt lat="41.28647" lon="-8.60185">
        <ele>99.6</ele>
        <time>2021-03-20 12:44:32</time>
      </trkpt>
      <trkpt lat="41.28646" lon="-8.60194">
        <ele>99.8</ele>
        <time>2021-03-20 12:44:33</time>
      </trkpt>
      <trkpt lat="41.28646" lon="-8.60202">
        <ele>100.2</ele>
        <time>2021-03-20 12:44:34</time>
      </trkpt>
      <trkpt lat="41.28647" lon="-8.60208">
        <ele>100.6</ele>
        <time>2021-03-20 12:44:35</time>
      </trkpt>
      <trkpt lat="41.28647" lon="-8.60216">
        <ele>100.8</ele>
        <time>2021-03-20 12:44:36</time>
      </trkpt>
      <trkpt lat="41.28648" lon="-8.60222">
        <ele>101</ele>
        <time>2021-03-20 12:44:37</time>
      </trkpt>
      <trkpt lat="41.28648" lon="-8.60225">
        <ele>101.2</ele>
        <time>2021-03-20 12:44:38</time>
      </trkpt>
      <trkpt lat="41.28649" lon="-8.6023">
        <ele>101.4</ele>
        <time>2021-03-20 12:44:39</time>
      </trkpt>
      <trkpt lat="41.2865" lon="-8.60234">
        <ele>101.6</ele>
        <time>2021-03-20 12:44:40</time>
      </trkpt>
      <trkpt lat="41.2865" lon="-8.60236">
        <ele>101.6</ele>
        <time>2021-03-20 12:44:41</time>
      </trkpt>
      <trkpt lat="41.28651" lon="-8.60239">
        <ele>101.8</ele>
        <time>2021-03-20 12:44:42</time>
      </trkpt>
      <trkpt lat="41.28652" lon="-8.60242">
        <ele>102.2</ele>
        <time>2021-03-20 12:44:43</time>
      </trkpt>
      <trkpt lat="41.28653" lon="-8.60243">
        <ele>102.2</ele>
        <time>2021-03-20 12:44:44</time>
      </trkpt>
      <trkpt lat="41.28653" lon="-8.60244">
        <ele>102.2</ele>
        <time>2021-03-20 12:44:45</time>
      </trkpt>
      <trkpt lat="41.28654" lon="-8.60244">
        <ele>102.8</ele>
        <time>2021-03-20 12:44:46</time>
      </trkpt>
      <trkpt lat="41.28654" lon="-8.60245">
        <ele>103</ele>
        <time>2021-03-20 12:44:47</time>
      </trkpt>
      <trkpt lat="41.28654" lon="-8.60247">
        <ele>103.4</ele>
        <time>2021-03-20 12:44:48</time>
      </trkpt>
      <trkpt lat="41.28655" lon="-8.60247">
        <ele>103.8</ele>
        <time>2021-03-20 12:44:49</time>
      </trkpt>
      <trkpt lat="41.28655" lon="-8.60249">
        <ele>104</ele>
        <time>2021-03-20 12:44:50</time>
      </trkpt>
      <trkpt lat="41.28657" lon="-8.6025">
        <ele>104.2</ele>
        <time>2021-03-20 12:44:51</time>
      </trkpt>
      <trkpt lat="41.28658" lon="-8.6025">
        <ele>104.4</ele>
        <time>2021-03-20 12:44:52</time>
      </trkpt>
      <trkpt lat="41.28661" lon="-8.60253">
        <ele>104.4</ele>
        <time>2021-03-20 12:44:53</time>
      </trkpt>
      <trkpt lat="41.28662" lon="-8.60255">
        <ele>104.6</ele>
        <time>2021-03-20 12:44:54</time>
      </trkpt>
      <trkpt lat="41.28664" lon="-8.60257">
        <ele>105</ele>
        <time>2021-03-20 12:44:55</time>
      </trkpt>
      <trkpt lat="41.28667" lon="-8.60259">
        <ele>105</ele>
        <time>2021-03-20 12:44:56</time>
      </trkpt>
      <trkpt lat="41.28669" lon="-8.60262">
        <ele>105.4</ele>
        <time>2021-03-20 12:44:57</time>
      </trkpt>
      <trkpt lat="41.28671" lon="-8.60265">
        <ele>105.4</ele>
        <time>2021-03-20 12:44:58</time>
      </trkpt>
      <trkpt lat="41.28673" lon="-8.60272">
        <ele>105.6</ele>
        <time>2021-03-20 12:44:59</time>
      </trkpt>
      <trkpt lat="41.28674" lon="-8.60278">
        <ele>106</ele>
        <time>2021-03-20 12:45:00</time>
      </trkpt>
      <trkpt lat="41.28674" lon="-8.60283">
        <ele>106.4</ele>
        <time>2021-03-20 12:45:01</time>
      </trkpt>
      <trkpt lat="41.28676" lon="-8.60289">
        <ele>106.4</ele>
        <time>2021-03-20 12:45:02</time>
      </trkpt>
      <trkpt lat="41.28678" lon="-8.60296">
        <ele>106.6</ele>
        <time>2021-03-20 12:45:03</time>
      </trkpt>
      <trkpt lat="41.28679" lon="-8.60302">
        <ele>106.8</ele>
        <time>2021-03-20 12:45:04</time>
      </trkpt>
      <trkpt lat="41.28681" lon="-8.6031">
        <ele>106.8</ele>
        <time>2021-03-20 12:45:05</time>
      </trkpt>
      <trkpt lat="41.28683" lon="-8.60316">
        <ele>107</ele>
        <time>2021-03-20 12:45:06</time>
      </trkpt>
      <trkpt lat="41.2869" lon="-8.60322">
        <ele>107.2</ele>
        <time>2021-03-20 12:45:07</time>
      </trkpt>
      <trkpt lat="41.28694" lon="-8.60326">
        <ele>107.4</ele>
        <time>2021-03-20 12:45:08</time>
      </trkpt>
      <trkpt lat="41.28695" lon="-8.60329">
        <ele>107.4</ele>
        <time>2021-03-20 12:45:09</time>
      </trkpt>
      <trkpt lat="41.28697" lon="-8.60333">
        <ele>107.8</ele>
        <time>2021-03-20 12:45:10</time>
      </trkpt>
      <trkpt lat="41.28698" lon="-8.60337">
        <ele>108.2</ele>
        <time>2021-03-20 12:45:11</time>
      </trkpt>
      <trkpt lat="41.28705" lon="-8.60341">
        <ele>108.4</ele>
        <time>2021-03-20 12:45:12</time>
      </trkpt>
      <trkpt lat="41.28703" lon="-8.60345">
        <ele>108.6</ele>
        <time>2021-03-20 12:45:13</time>
      </trkpt>
      <trkpt lat="41.28708" lon="-8.60349">
        <ele>108.8</ele>
        <time>2021-03-20 12:45:14</time>
      </trkpt>
      <trkpt lat="41.28711" lon="-8.60354">
        <ele>109</ele>
        <time>2021-03-20 12:45:15</time>
      </trkpt>
      <trkpt lat="41.28712" lon="-8.60358">
        <ele>109.2</ele>
        <time>2021-03-20 12:45:16</time>
      </trkpt>
      <trkpt lat="41.28714" lon="-8.60365">
        <ele>109.6</ele>
        <time>2021-03-20 12:45:17</time>
      </trkpt>
      <trkpt lat="41.28716" lon="-8.60371">
        <ele>109.8</ele>
        <time>2021-03-20 12:45:18</time>
      </trkpt>
      <trkpt lat="41.28718" lon="-8.60376">
        <ele>109.8</ele>
        <time>2021-03-20 12:45:19</time>
      </trkpt>
      <trkpt lat="41.28721" lon="-8.60381">
        <ele>110</ele>
        <time>2021-03-20 12:45:20</time>
      </trkpt>
      <trkpt lat="41.28723" lon="-8.60386">
        <ele>110.2</ele>
        <time>2021-03-20 12:45:21</time>
      </trkpt>
      <trkpt lat="41.28725" lon="-8.60391">
        <ele>110.4</ele>
        <time>2021-03-20 12:45:22</time>
      </trkpt>
      <trkpt lat="41.28728" lon="-8.60395">
        <ele>110.8</ele>
        <time>2021-03-20 12:45:23</time>
      </trkpt>
      <trkpt lat="41.2873" lon="-8.604">
        <ele>110.8</ele>
        <time>2021-03-20 12:45:24</time>
      </trkpt>
      <trkpt lat="41.28731" lon="-8.60405">
        <ele>111.2</ele>
        <time>2021-03-20 12:45:25</time>
      </trkpt>
      <trkpt lat="41.28733" lon="-8.60409">
        <ele>111.4</ele>
        <time>2021-03-20 12:45:26</time>
      </trkpt>
      <trkpt lat="41.28735" lon="-8.60413">
        <ele>111.6</ele>
        <time>2021-03-20 12:45:27</time>
      </trkpt>
      <trkpt lat="41.28737" lon="-8.60416">
        <ele>111.8</ele>
        <time>2021-03-20 12:45:28</time>
      </trkpt>
      <trkpt lat="41.28739" lon="-8.60421">
        <ele>112</ele>
        <time>2021-03-20 12:45:29</time>
      </trkpt>
      <trkpt lat="41.28741" lon="-8.60424">
        <ele>112.2</ele>
        <time>2021-03-20 12:45:30</time>
      </trkpt>
      <trkpt lat="41.28744" lon="-8.60429">
        <ele>112.4</ele>
        <time>2021-03-20 12:45:31</time>
      </trkpt>
      <trkpt lat="41.28746" lon="-8.60434">
        <ele>112.8</ele>
        <time>2021-03-20 12:45:32</time>
      </trkpt>
      <trkpt lat="41.28748" lon="-8.60438">
        <ele>112.8</ele>
        <time>2021-03-20 12:45:33</time>
      </trkpt>
      <trkpt lat="41.28749" lon="-8.60441">
        <ele>112.8</ele>
        <time>2021-03-20 12:45:34</time>
      </trkpt>
      <trkpt lat="41.28752" lon="-8.60445">
        <ele>113.2</ele>
        <time>2021-03-20 12:45:35</time>
      </trkpt>
      <trkpt lat="41.28754" lon="-8.60448">
        <ele>113.2</ele>
        <time>2021-03-20 12:45:36</time>
      </trkpt>
      <trkpt lat="41.28756" lon="-8.60452">
        <ele>113.4</ele>
        <time>2021-03-20 12:45:37</time>
      </trkpt>
      <trkpt lat="41.28758" lon="-8.60455">
        <ele>113.8</ele>
        <time>2021-03-20 12:45:38</time>
      </trkpt>
      <trkpt lat="41.2876" lon="-8.60459">
        <ele>114</ele>
        <time>2021-03-20 12:45:39</time>
      </trkpt>
      <trkpt lat="41.28762" lon="-8.60463">
        <ele>114.2</ele>
        <time>2021-03-20 12:45:40</time>
      </trkpt>
      <trkpt lat="41.28764" lon="-8.60465">
        <ele>114.2</ele>
        <time>2021-03-20 12:45:41</time>
      </trkpt>
      <trkpt lat="41.28766" lon="-8.60469">
        <ele>114.6</ele>
        <time>2021-03-20 12:45:42</time>
      </trkpt>
      <trkpt lat="41.28768" lon="-8.60472">
        <ele>114.8</ele>
        <time>2021-03-20 12:45:43</time>
      </trkpt>
      <trkpt lat="41.2877" lon="-8.60478">
        <ele>114.8</ele>
        <time>2021-03-20 12:45:44</time>
      </trkpt>
      <trkpt lat="41.28772" lon="-8.60482">
        <ele>115</ele>
        <time>2021-03-20 12:45:45</time>
      </trkpt>
      <trkpt lat="41.28773" lon="-8.60484">
        <ele>115.2</ele>
        <time>2021-03-20 12:45:46</time>
      </trkpt>
      <trkpt lat="41.28775" lon="-8.60487">
        <ele>115.4</ele>
        <time>2021-03-20 12:45:47</time>
      </trkpt>
      <trkpt lat="41.28777" lon="-8.60489">
        <ele>115.6</ele>
        <time>2021-03-20 12:45:48</time>
      </trkpt>
      <trkpt lat="41.28779" lon="-8.60493">
        <ele>115.8</ele>
        <time>2021-03-20 12:45:49</time>
      </trkpt>
      <trkpt lat="41.28781" lon="-8.60495">
        <ele>116</ele>
        <time>2021-03-20 12:45:50</time>
      </trkpt>
      <trkpt lat="41.28782" lon="-8.605">
        <ele>116.2</ele>
        <time>2021-03-20 12:45:51</time>
      </trkpt>
      <trkpt lat="41.28784" lon="-8.60502">
        <ele>116.2</ele>
        <time>2021-03-20 12:45:52</time>
      </trkpt>
      <trkpt lat="41.28786" lon="-8.60506">
        <ele>116.4</ele>
        <time>2021-03-20 12:45:53</time>
      </trkpt>
      <trkpt lat="41.28788" lon="-8.6051">
        <ele>116.8</ele>
        <time>2021-03-20 12:45:54</time>
      </trkpt>
      <trkpt lat="41.2879" lon="-8.60514">
        <ele>116.8</ele>
        <time>2021-03-20 12:45:55</time>
      </trkpt>
      <trkpt lat="41.28791" lon="-8.60517">
        <ele>117</ele>
        <time>2021-03-20 12:45:56</time>
      </trkpt>
      <trkpt lat="41.28795" lon="-8.60521">
        <ele>117.2</ele>
        <time>2021-03-20 12:45:57</time>
      </trkpt>
      <trkpt lat="41.28797" lon="-8.60524">
        <ele>117.4</ele>
        <time>2021-03-20 12:45:58</time>
      </trkpt>
      <trkpt lat="41.28799" lon="-8.60528">
        <ele>117.4</ele>
        <time>2021-03-20 12:45:59</time>
      </trkpt>
      <trkpt lat="41.288" lon="-8.60531">
        <ele>117.6</ele>
        <time>2021-03-20 12:46:00</time>
      </trkpt>
      <trkpt lat="41.28802" lon="-8.60534">
        <ele>117.8</ele>
        <time>2021-03-20 12:46:01</time>
      </trkpt>
      <trkpt lat="41.28803" lon="-8.60537">
        <ele>118</ele>
        <time>2021-03-20 12:46:02</time>
      </trkpt>
      <trkpt lat="41.28806" lon="-8.60541">
        <ele>118.2</ele>
        <time>2021-03-20 12:46:03</time>
      </trkpt>
      <trkpt lat="41.28809" lon="-8.60544">
        <ele>118.4</ele>
        <time>2021-03-20 12:46:04</time>
      </trkpt>
      <trkpt lat="41.28811" lon="-8.60546">
        <ele>118.6</ele>
        <time>2021-03-20 12:46:05</time>
      </trkpt>
      <trkpt lat="41.28813" lon="-8.60549">
        <ele>118.8</ele>
        <time>2021-03-20 12:46:06</time>
      </trkpt>
      <trkpt lat="41.28815" lon="-8.60553">
        <ele>119.2</ele>
        <time>2021-03-20 12:46:07</time>
      </trkpt>
      <trkpt lat="41.28819" lon="-8.60558">
        <ele>119.4</ele>
        <time>2021-03-20 12:46:08</time>
      </trkpt>
      <trkpt lat="41.28821" lon="-8.60561">
        <ele>119.4</ele>
        <time>2021-03-20 12:46:09</time>
      </trkpt>
      <trkpt lat="41.28824" lon="-8.60567">
        <ele>119.6</ele>
        <time>2021-03-20 12:46:10</time>
      </trkpt>
      <trkpt lat="41.28825" lon="-8.60571">
        <ele>120</ele>
        <time>2021-03-20 12:46:11</time>
      </trkpt>
      <trkpt lat="41.28826" lon="-8.60575">
        <ele>120</ele>
        <time>2021-03-20 12:46:12</time>
      </trkpt>
      <trkpt lat="41.28829" lon="-8.6058">
        <ele>120.2</ele>
        <time>2021-03-20 12:46:13</time>
      </trkpt>
      <trkpt lat="41.28832" lon="-8.60584">
        <ele>120.2</ele>
        <time>2021-03-20 12:46:14</time>
      </trkpt>
      <trkpt lat="41.28833" lon="-8.60587">
        <ele>120.2</ele>
        <time>2021-03-20 12:46:15</time>
      </trkpt>
      <trkpt lat="41.28834" lon="-8.6059">
        <ele>120.4</ele>
        <time>2021-03-20 12:46:16</time>
      </trkpt>
      <trkpt lat="41.28837" lon="-8.60595">
        <ele>120.8</ele>
        <time>2021-03-20 12:46:17</time>
      </trkpt>
      <trkpt lat="41.28839" lon="-8.60598">
        <ele>120.8</ele>
        <time>2021-03-20 12:46:18</time>
      </trkpt>
      <trkpt lat="41.2884" lon="-8.60602">
        <ele>121</ele>
        <time>2021-03-20 12:46:19</time>
      </trkpt>
      <trkpt lat="41.28845" lon="-8.60606">
        <ele>121.4</ele>
        <time>2021-03-20 12:46:20</time>
      </trkpt>
      <trkpt lat="41.28845" lon="-8.6061">
        <ele>121.6</ele>
        <time>2021-03-20 12:46:21</time>
      </trkpt>
      <trkpt lat="41.28848" lon="-8.60614">
        <ele>121.6</ele>
        <time>2021-03-20 12:46:22</time>
      </trkpt>
      <trkpt lat="41.2885" lon="-8.60617">
        <ele>121.8</ele>
        <time>2021-03-20 12:46:23</time>
      </trkpt>
      <trkpt lat="41.28851" lon="-8.6062">
        <ele>122</ele>
        <time>2021-03-20 12:46:24</time>
      </trkpt>
      <trkpt lat="41.28853" lon="-8.60624">
        <ele>122</ele>
        <time>2021-03-20 12:46:25</time>
      </trkpt>
      <trkpt lat="41.28855" lon="-8.60628">
        <ele>122</ele>
        <time>2021-03-20 12:46:26</time>
      </trkpt>
      <trkpt lat="41.28859" lon="-8.60632">
        <ele>122.2</ele>
        <time>2021-03-20 12:46:27</time>
      </trkpt>
      <trkpt lat="41.28861" lon="-8.60634">
        <ele>122.2</ele>
        <time>2021-03-20 12:46:28</time>
      </trkpt>
      <trkpt lat="41.28862" lon="-8.60637">
        <ele>122.2</ele>
        <time>2021-03-20 12:46:29</time>
      </trkpt>
      <trkpt lat="41.28864" lon="-8.6064">
        <ele>122.4</ele>
        <time>2021-03-20 12:46:30</time>
      </trkpt>
      <trkpt lat="41.28871" lon="-8.60647">
        <ele>122.6</ele>
        <time>2021-03-20 12:46:31</time>
      </trkpt>
      <trkpt lat="41.28872" lon="-8.60649">
        <ele>122.8</ele>
        <time>2021-03-20 12:46:32</time>
      </trkpt>
      <trkpt lat="41.28877" lon="-8.60654">
        <ele>122.8</ele>
        <time>2021-03-20 12:46:33</time>
      </trkpt>
      <trkpt lat="41.28879" lon="-8.60669">
        <ele>123</ele>
        <time>2021-03-20 12:46:34</time>
      </trkpt>
      <trkpt lat="41.2888" lon="-8.60681">
        <ele>123.2</ele>
        <time>2021-03-20 12:46:35</time>
      </trkpt>
      <trkpt lat="41.28879" lon="-8.60684">
        <ele>123.4</ele>
        <time>2021-03-20 12:46:36</time>
      </trkpt>
      <trkpt lat="41.28882" lon="-8.6069">
        <ele>123.4</ele>
        <time>2021-03-20 12:46:37</time>
      </trkpt>
      <trkpt lat="41.2888" lon="-8.60692">
        <ele>123.6</ele>
        <time>2021-03-20 12:46:38</time>
      </trkpt>
      <trkpt lat="41.28886" lon="-8.60695">
        <ele>124</ele>
        <time>2021-03-20 12:46:39</time>
      </trkpt>
      <trkpt lat="41.28886" lon="-8.60697">
        <ele>124.2</ele>
        <time>2021-03-20 12:46:40</time>
      </trkpt>
      <trkpt lat="41.28889" lon="-8.60706">
        <ele>124.2</ele>
        <time>2021-03-20 12:46:41</time>
      </trkpt>
      <trkpt lat="41.28887" lon="-8.60705">
        <ele>124.4</ele>
        <time>2021-03-20 12:46:42</time>
      </trkpt>
      <trkpt lat="41.28893" lon="-8.60707">
        <ele>124.4</ele>
        <time>2021-03-20 12:46:43</time>
      </trkpt>
      <trkpt lat="41.28893" lon="-8.60713">
        <ele>124.4</ele>
        <time>2021-03-20 12:46:44</time>
      </trkpt>
      <trkpt lat="41.28901" lon="-8.60716">
        <ele>124.6</ele>
        <time>2021-03-20 12:46:45</time>
      </trkpt>
      <trkpt lat="41.28902" lon="-8.60721">
        <ele>124.6</ele>
        <time>2021-03-20 12:46:46</time>
      </trkpt>
      <trkpt lat="41.28905" lon="-8.60724">
        <ele>124.8</ele>
        <time>2021-03-20 12:46:47</time>
      </trkpt>
      <trkpt lat="41.28907" lon="-8.60724">
        <ele>125</ele>
        <time>2021-03-20 12:46:48</time>
      </trkpt>
      <trkpt lat="41.28908" lon="-8.60728">
        <ele>125</ele>
        <time>2021-03-20 12:46:49</time>
      </trkpt>
      <trkpt lat="41.28909" lon="-8.60729">
        <ele>125.2</ele>
        <time>2021-03-20 12:46:50</time>
      </trkpt>
      <trkpt lat="41.28916" lon="-8.60731">
        <ele>125.4</ele>
        <time>2021-03-20 12:46:51</time>
      </trkpt>
      <trkpt lat="41.28922" lon="-8.60734">
        <ele>125.6</ele>
        <time>2021-03-20 12:46:52</time>
      </trkpt>
      <trkpt lat="41.28924" lon="-8.60737">
        <ele>125.6</ele>
        <time>2021-03-20 12:46:53</time>
      </trkpt>
      <trkpt lat="41.2893" lon="-8.60745">
        <ele>125.8</ele>
        <time>2021-03-20 12:46:54</time>
      </trkpt>
      <trkpt lat="41.28932" lon="-8.60745">
        <ele>125.8</ele>
        <time>2021-03-20 12:46:55</time>
      </trkpt>
      <trkpt lat="41.28938" lon="-8.6075">
        <ele>125.8</ele>
        <time>2021-03-20 12:46:56</time>
      </trkpt>
      <trkpt lat="41.28942" lon="-8.60754">
        <ele>126</ele>
        <time>2021-03-20 12:46:57</time>
      </trkpt>
      <trkpt lat="41.28946" lon="-8.60759">
        <ele>126.2</ele>
        <time>2021-03-20 12:46:58</time>
      </trkpt>
      <trkpt lat="41.28949" lon="-8.60761">
        <ele>126.4</ele>
        <time>2021-03-20 12:46:59</time>
      </trkpt>
      <trkpt lat="41.28951" lon="-8.60763">
        <ele>126.4</ele>
        <time>2021-03-20 12:47:00</time>
      </trkpt>
      <trkpt lat="41.28952" lon="-8.60762">
        <ele>126.2</ele>
        <time>2021-03-20 12:47:01</time>
      </trkpt>
      <trkpt lat="41.28953" lon="-8.60763">
        <ele>126.4</ele>
        <time>2021-03-20 12:47:02</time>
      </trkpt>
      <trkpt lat="41.28955" lon="-8.60765">
        <ele>126.4</ele>
        <time>2021-03-20 12:47:03</time>
      </trkpt>
      <trkpt lat="41.28956" lon="-8.60771">
        <ele>126.4</ele>
        <time>2021-03-20 12:47:04</time>
      </trkpt>
      <trkpt lat="41.28961" lon="-8.60774">
        <ele>126.2</ele>
        <time>2021-03-20 12:47:05</time>
      </trkpt>
      <trkpt lat="41.28966" lon="-8.6078">
        <ele>126.2</ele>
        <time>2021-03-20 12:47:06</time>
      </trkpt>
      <trkpt lat="41.28971" lon="-8.60783">
        <ele>126.4</ele>
        <time>2021-03-20 12:47:07</time>
      </trkpt>
      <trkpt lat="41.28973" lon="-8.60784">
        <ele>126.8</ele>
        <time>2021-03-20 12:47:08</time>
      </trkpt>
      <trkpt lat="41.28976" lon="-8.60784">
        <ele>126.8</ele>
        <time>2021-03-20 12:47:09</time>
      </trkpt>
      <trkpt lat="41.28982" lon="-8.60789">
        <ele>127.2</ele>
        <time>2021-03-20 12:47:10</time>
      </trkpt>
      <trkpt lat="41.28988" lon="-8.60797">
        <ele>127.2</ele>
        <time>2021-03-20 12:47:11</time>
      </trkpt>
      <trkpt lat="41.28979" lon="-8.60796">
        <ele>127.4</ele>
        <time>2021-03-20 12:47:12</time>
      </trkpt>
      <trkpt lat="41.28987" lon="-8.608">
        <ele>127.6</ele>
        <time>2021-03-20 12:47:13</time>
      </trkpt>
      <trkpt lat="41.2899" lon="-8.60802">
        <ele>127.6</ele>
        <time>2021-03-20 12:47:14</time>
      </trkpt>
      <trkpt lat="41.28989" lon="-8.60805">
        <ele>127.6</ele>
        <time>2021-03-20 12:47:15</time>
      </trkpt>
      <trkpt lat="41.28992" lon="-8.6081">
        <ele>127.8</ele>
        <time>2021-03-20 12:47:16</time>
      </trkpt>
      <trkpt lat="41.28993" lon="-8.60816">
        <ele>128.2</ele>
        <time>2021-03-20 12:47:17</time>
      </trkpt>
      <trkpt lat="41.28997" lon="-8.60817">
        <ele>128.4</ele>
        <time>2021-03-20 12:47:18</time>
      </trkpt>
      <trkpt lat="41.29001" lon="-8.60826">
        <ele>128.6</ele>
        <time>2021-03-20 12:47:19</time>
      </trkpt>
      <trkpt lat="41.28996" lon="-8.60827">
        <ele>128.6</ele>
        <time>2021-03-20 12:47:20</time>
      </trkpt>
      <trkpt lat="41.28999" lon="-8.60834">
        <ele>128.8</ele>
        <time>2021-03-20 12:47:21</time>
      </trkpt>
      <trkpt lat="41.29006" lon="-8.60842">
        <ele>128.8</ele>
        <time>2021-03-20 12:47:22</time>
      </trkpt>
      <trkpt lat="41.29007" lon="-8.60847">
        <ele>128.6</ele>
        <time>2021-03-20 12:47:23</time>
      </trkpt>
      <trkpt lat="41.29002" lon="-8.60855">
        <ele>128.6</ele>
        <time>2021-03-20 12:47:24</time>
      </trkpt>
      <trkpt lat="41.29007" lon="-8.60855">
        <ele>128.8</ele>
        <time>2021-03-20 12:47:25</time>
      </trkpt>
      <trkpt lat="41.29003" lon="-8.60856">
        <ele>129</ele>
        <time>2021-03-20 12:47:26</time>
      </trkpt>
      <trkpt lat="41.29001" lon="-8.60866">
        <ele>129.2</ele>
        <time>2021-03-20 12:47:27</time>
      </trkpt>
      <trkpt lat="41.29007" lon="-8.6087">
        <ele>129.2</ele>
        <time>2021-03-20 12:47:28</time>
      </trkpt>
      <trkpt lat="41.29008" lon="-8.60871">
        <ele>129.4</ele>
        <time>2021-03-20 12:47:29</time>
      </trkpt>
      <trkpt lat="41.29008" lon="-8.60873">
        <ele>129.4</ele>
        <time>2021-03-20 12:47:30</time>
      </trkpt>
      <trkpt lat="41.29006" lon="-8.6089">
        <ele>129.4</ele>
        <time>2021-03-20 12:47:31</time>
      </trkpt>
      <trkpt lat="41.29006" lon="-8.60888">
        <ele>129.6</ele>
        <time>2021-03-20 12:47:32</time>
      </trkpt>
      <trkpt lat="41.2901" lon="-8.60899">
        <ele>129.8</ele>
        <time>2021-03-20 12:47:33</time>
      </trkpt>
      <trkpt lat="41.29011" lon="-8.60893">
        <ele>129.8</ele>
        <time>2021-03-20 12:47:34</time>
      </trkpt>
      <trkpt lat="41.29016" lon="-8.60904">
        <ele>130</ele>
        <time>2021-03-20 12:47:35</time>
      </trkpt>
      <trkpt lat="41.29014" lon="-8.60904">
        <ele>130.2</ele>
        <time>2021-03-20 12:47:36</time>
      </trkpt>
      <trkpt lat="41.29016" lon="-8.60908">
        <ele>130.4</ele>
        <time>2021-03-20 12:47:37</time>
      </trkpt>
      <trkpt lat="41.29015" lon="-8.60915">
        <ele>130.4</ele>
        <time>2021-03-20 12:47:38</time>
      </trkpt>
      <trkpt lat="41.29017" lon="-8.60907">
        <ele>130.6</ele>
        <time>2021-03-20 12:47:39</time>
      </trkpt>
      <trkpt lat="41.29015" lon="-8.60926">
        <ele>130.8</ele>
        <time>2021-03-20 12:47:40</time>
      </trkpt>
      <trkpt lat="41.2902" lon="-8.60928">
        <ele>131</ele>
        <time>2021-03-20 12:47:41</time>
      </trkpt>
      <trkpt lat="41.29028" lon="-8.6093">
        <ele>131.2</ele>
        <time>2021-03-20 12:47:42</time>
      </trkpt>
      <trkpt lat="41.29031" lon="-8.60934">
        <ele>131.4</ele>
        <time>2021-03-20 12:47:43</time>
      </trkpt>
      <trkpt lat="41.29038" lon="-8.60941">
        <ele>131.6</ele>
        <time>2021-03-20 12:47:44</time>
      </trkpt>
      <trkpt lat="41.2904" lon="-8.60945">
        <ele>131.8</ele>
        <time>2021-03-20 12:47:45</time>
      </trkpt>
      <trkpt lat="41.29041" lon="-8.60948">
        <ele>132</ele>
        <time>2021-03-20 12:47:46</time>
      </trkpt>
      <trkpt lat="41.29043" lon="-8.60956">
        <ele>132</ele>
        <time>2021-03-20 12:47:47</time>
      </trkpt>
      <trkpt lat="41.29045" lon="-8.60962">
        <ele>132.4</ele>
        <time>2021-03-20 12:47:48</time>
      </trkpt>
      <trkpt lat="41.29048" lon="-8.60964">
        <ele>132.6</ele>
        <time>2021-03-20 12:47:49</time>
      </trkpt>
      <trkpt lat="41.29044" lon="-8.60977">
        <ele>132.8</ele>
        <time>2021-03-20 12:47:50</time>
      </trkpt>
      <trkpt lat="41.29044" lon="-8.60986">
        <ele>132.8</ele>
        <time>2021-03-20 12:47:51</time>
      </trkpt>
      <trkpt lat="41.29051" lon="-8.60988">
        <ele>132.8</ele>
        <time>2021-03-20 12:47:52</time>
      </trkpt>
      <trkpt lat="41.29051" lon="-8.61001">
        <ele>132.8</ele>
        <time>2021-03-20 12:47:53</time>
      </trkpt>
      <trkpt lat="41.29057" lon="-8.61003">
        <ele>133</ele>
        <time>2021-03-20 12:47:54</time>
      </trkpt>
      <trkpt lat="41.2906" lon="-8.61007">
        <ele>133</ele>
        <time>2021-03-20 12:47:55</time>
      </trkpt>
      <trkpt lat="41.29061" lon="-8.61009">
        <ele>133.4</ele>
        <time>2021-03-20 12:47:56</time>
      </trkpt>
      <trkpt lat="41.2907" lon="-8.61015">
        <ele>133.4</ele>
        <time>2021-03-20 12:47:57</time>
      </trkpt>
      <trkpt lat="41.29071" lon="-8.61021">
        <ele>133.4</ele>
        <time>2021-03-20 12:47:58</time>
      </trkpt>
      <trkpt lat="41.29073" lon="-8.61026">
        <ele>133.4</ele>
        <time>2021-03-20 12:47:59</time>
      </trkpt>
      <trkpt lat="41.29073" lon="-8.61029">
        <ele>133.6</ele>
        <time>2021-03-20 12:48:00</time>
      </trkpt>
      <trkpt lat="41.29081" lon="-8.61035">
        <ele>133.8</ele>
        <time>2021-03-20 12:48:01</time>
      </trkpt>
      <trkpt lat="41.29082" lon="-8.6104">
        <ele>134</ele>
        <time>2021-03-20 12:48:02</time>
      </trkpt>
      <trkpt lat="41.29083" lon="-8.61046">
        <ele>134.2</ele>
        <time>2021-03-20 12:48:03</time>
      </trkpt>
      <trkpt lat="41.29086" lon="-8.61053">
        <ele>134.2</ele>
        <time>2021-03-20 12:48:04</time>
      </trkpt>
      <trkpt lat="41.29088" lon="-8.6106">
        <ele>134.4</ele>
        <time>2021-03-20 12:48:05</time>
      </trkpt>
      <trkpt lat="41.2909" lon="-8.61064">
        <ele>134.6</ele>
        <time>2021-03-20 12:48:06</time>
      </trkpt>
      <trkpt lat="41.29091" lon="-8.61071">
        <ele>134.6</ele>
        <time>2021-03-20 12:48:07</time>
      </trkpt>
      <trkpt lat="41.29095" lon="-8.61077">
        <ele>135</ele>
        <time>2021-03-20 12:48:08</time>
      </trkpt>
      <trkpt lat="41.29097" lon="-8.61082">
        <ele>135</ele>
        <time>2021-03-20 12:48:09</time>
      </trkpt>
      <trkpt lat="41.29095" lon="-8.61088">
        <ele>135.2</ele>
        <time>2021-03-20 12:48:10</time>
      </trkpt>
      <trkpt lat="41.29101" lon="-8.61094">
        <ele>135.2</ele>
        <time>2021-03-20 12:48:11</time>
      </trkpt>
      <trkpt lat="41.29104" lon="-8.61099">
        <ele>135.2</ele>
        <time>2021-03-20 12:48:12</time>
      </trkpt>
      <trkpt lat="41.29107" lon="-8.61105">
        <ele>135.2</ele>
        <time>2021-03-20 12:48:13</time>
      </trkpt>
      <trkpt lat="41.29112" lon="-8.6111">
        <ele>135.4</ele>
        <time>2021-03-20 12:48:14</time>
      </trkpt>
      <trkpt lat="41.29112" lon="-8.61116">
        <ele>135.6</ele>
        <time>2021-03-20 12:48:15</time>
      </trkpt>
      <trkpt lat="41.29117" lon="-8.61121">
        <ele>135.8</ele>
        <time>2021-03-20 12:48:16</time>
      </trkpt>
      <trkpt lat="41.29117" lon="-8.61127">
        <ele>136</ele>
        <time>2021-03-20 12:48:17</time>
      </trkpt>
      <trkpt lat="41.29117" lon="-8.61134">
        <ele>136.2</ele>
        <time>2021-03-20 12:48:18</time>
      </trkpt>
      <trkpt lat="41.29121" lon="-8.6114">
        <ele>136.4</ele>
        <time>2021-03-20 12:48:19</time>
      </trkpt>
      <trkpt lat="41.29126" lon="-8.61146">
        <ele>136.4</ele>
        <time>2021-03-20 12:48:20</time>
      </trkpt>
      <trkpt lat="41.29124" lon="-8.61151">
        <ele>136.8</ele>
        <time>2021-03-20 12:48:21</time>
      </trkpt>
      <trkpt lat="41.29129" lon="-8.61154">
        <ele>136.8</ele>
        <time>2021-03-20 12:48:22</time>
      </trkpt>
      <trkpt lat="41.29132" lon="-8.61159">
        <ele>137</ele>
        <time>2021-03-20 12:48:23</time>
      </trkpt>
      <trkpt lat="41.29133" lon="-8.61167">
        <ele>137</ele>
        <time>2021-03-20 12:48:24</time>
      </trkpt>
      <trkpt lat="41.29137" lon="-8.61173">
        <ele>137.2</ele>
        <time>2021-03-20 12:48:25</time>
      </trkpt>
      <trkpt lat="41.29141" lon="-8.61179">
        <ele>137.2</ele>
        <time>2021-03-20 12:48:26</time>
      </trkpt>
      <trkpt lat="41.29143" lon="-8.61185">
        <ele>137.4</ele>
        <time>2021-03-20 12:48:27</time>
      </trkpt>
      <trkpt lat="41.29144" lon="-8.61191">
        <ele>137.6</ele>
        <time>2021-03-20 12:48:28</time>
      </trkpt>
      <trkpt lat="41.29145" lon="-8.61197">
        <ele>137.8</ele>
        <time>2021-03-20 12:48:29</time>
      </trkpt>
      <trkpt lat="41.29151" lon="-8.61203">
        <ele>137.8</ele>
        <time>2021-03-20 12:48:30</time>
      </trkpt>
      <trkpt lat="41.29153" lon="-8.61209">
        <ele>138</ele>
        <time>2021-03-20 12:48:31</time>
      </trkpt>
      <trkpt lat="41.29153" lon="-8.61214">
        <ele>138</ele>
        <time>2021-03-20 12:48:32</time>
      </trkpt>
      <trkpt lat="41.29156" lon="-8.6122">
        <ele>138</ele>
        <time>2021-03-20 12:48:33</time>
      </trkpt>
      <trkpt lat="41.29156" lon="-8.61226">
        <ele>138.2</ele>
        <time>2021-03-20 12:48:34</time>
      </trkpt>
      <trkpt lat="41.29161" lon="-8.61232">
        <ele>138.2</ele>
        <time>2021-03-20 12:48:35</time>
      </trkpt>
      <trkpt lat="41.29164" lon="-8.61238">
        <ele>138.6</ele>
        <time>2021-03-20 12:48:36</time>
      </trkpt>
      <trkpt lat="41.29171" lon="-8.61242">
        <ele>139</ele>
        <time>2021-03-20 12:48:37</time>
      </trkpt>
      <trkpt lat="41.29173" lon="-8.61246">
        <ele>139.2</ele>
        <time>2021-03-20 12:48:38</time>
      </trkpt>
      <trkpt lat="41.29173" lon="-8.6125">
        <ele>139.4</ele>
        <time>2021-03-20 12:48:39</time>
      </trkpt>
      <trkpt lat="41.29177" lon="-8.61255">
        <ele>139.8</ele>
        <time>2021-03-20 12:48:40</time>
      </trkpt>
      <trkpt lat="41.2918" lon="-8.6126">
        <ele>139.8</ele>
        <time>2021-03-20 12:48:41</time>
      </trkpt>
      <trkpt lat="41.29182" lon="-8.61266">
        <ele>140</ele>
        <time>2021-03-20 12:48:42</time>
      </trkpt>
      <trkpt lat="41.29185" lon="-8.61273">
        <ele>140.4</ele>
        <time>2021-03-20 12:48:43</time>
      </trkpt>
      <trkpt lat="41.29188" lon="-8.6128">
        <ele>140.6</ele>
        <time>2021-03-20 12:48:44</time>
      </trkpt>
      <trkpt lat="41.2919" lon="-8.61287">
        <ele>141</ele>
        <time>2021-03-20 12:48:45</time>
      </trkpt>
      <trkpt lat="41.29192" lon="-8.61293">
        <ele>141.4</ele>
        <time>2021-03-20 12:48:46</time>
      </trkpt>
      <trkpt lat="41.29195" lon="-8.61299">
        <ele>141.8</ele>
        <time>2021-03-20 12:48:47</time>
      </trkpt>
      <trkpt lat="41.29198" lon="-8.61305">
        <ele>141.8</ele>
        <time>2021-03-20 12:48:48</time>
      </trkpt>
      <trkpt lat="41.29201" lon="-8.61311">
        <ele>142.2</ele>
        <time>2021-03-20 12:48:49</time>
      </trkpt>
      <trkpt lat="41.29204" lon="-8.61317">
        <ele>142.4</ele>
        <time>2021-03-20 12:48:50</time>
      </trkpt>
      <trkpt lat="41.29207" lon="-8.61322">
        <ele>142.6</ele>
        <time>2021-03-20 12:48:51</time>
      </trkpt>
      <trkpt lat="41.2921" lon="-8.61328">
        <ele>142.8</ele>
        <time>2021-03-20 12:48:52</time>
      </trkpt>
      <trkpt lat="41.29214" lon="-8.61335">
        <ele>143</ele>
        <time>2021-03-20 12:48:53</time>
      </trkpt>
      <trkpt lat="41.29215" lon="-8.6134">
        <ele>143.2</ele>
        <time>2021-03-20 12:48:54</time>
      </trkpt>
      <trkpt lat="41.29219" lon="-8.61345">
        <ele>143.2</ele>
        <time>2021-03-20 12:48:55</time>
      </trkpt>
      <trkpt lat="41.29222" lon="-8.61351">
        <ele>143.2</ele>
        <time>2021-03-20 12:48:56</time>
      </trkpt>
      <trkpt lat="41.29224" lon="-8.61357">
        <ele>143.6</ele>
        <time>2021-03-20 12:48:57</time>
      </trkpt>
      <trkpt lat="41.29227" lon="-8.61364">
        <ele>144</ele>
        <time>2021-03-20 12:48:58</time>
      </trkpt>
      <trkpt lat="41.29229" lon="-8.6137">
        <ele>144.2</ele>
        <time>2021-03-20 12:48:59</time>
      </trkpt>
      <trkpt lat="41.29232" lon="-8.61376">
        <ele>144.4</ele>
        <time>2021-03-20 12:49:00</time>
      </trkpt>
      <trkpt lat="41.29235" lon="-8.61382">
        <ele>144.8</ele>
        <time>2021-03-20 12:49:01</time>
      </trkpt>
      <trkpt lat="41.29237" lon="-8.61388">
        <ele>144.8</ele>
        <time>2021-03-20 12:49:02</time>
      </trkpt>
      <trkpt lat="41.29239" lon="-8.61395">
        <ele>145</ele>
        <time>2021-03-20 12:49:03</time>
      </trkpt>
      <trkpt lat="41.29241" lon="-8.61399">
        <ele>145</ele>
        <time>2021-03-20 12:49:04</time>
      </trkpt>
      <trkpt lat="41.29245" lon="-8.61406">
        <ele>145.2</ele>
        <time>2021-03-20 12:49:05</time>
      </trkpt>
      <trkpt lat="41.29248" lon="-8.61412">
        <ele>145.6</ele>
        <time>2021-03-20 12:49:06</time>
      </trkpt>
      <trkpt lat="41.29251" lon="-8.61418">
        <ele>145.8</ele>
        <time>2021-03-20 12:49:07</time>
      </trkpt>
      <trkpt lat="41.29254" lon="-8.61423">
        <ele>145.8</ele>
        <time>2021-03-20 12:49:08</time>
      </trkpt>
      <trkpt lat="41.29256" lon="-8.61429">
        <ele>146</ele>
        <time>2021-03-20 12:49:09</time>
      </trkpt>
      <trkpt lat="41.29259" lon="-8.61434">
        <ele>146.2</ele>
        <time>2021-03-20 12:49:10</time>
      </trkpt>
      <trkpt lat="41.2926" lon="-8.61438">
        <ele>146.4</ele>
        <time>2021-03-20 12:49:11</time>
      </trkpt>
      <trkpt lat="41.29264" lon="-8.61444">
        <ele>146.6</ele>
        <time>2021-03-20 12:49:12</time>
      </trkpt>
      <trkpt lat="41.29265" lon="-8.61448">
        <ele>147</ele>
        <time>2021-03-20 12:49:13</time>
      </trkpt>
      <trkpt lat="41.29272" lon="-8.61452">
        <ele>147</ele>
        <time>2021-03-20 12:49:14</time>
      </trkpt>
      <trkpt lat="41.29272" lon="-8.61457">
        <ele>147.2</ele>
        <time>2021-03-20 12:49:15</time>
      </trkpt>
      <trkpt lat="41.29274" lon="-8.61461">
        <ele>147.6</ele>
        <time>2021-03-20 12:49:16</time>
      </trkpt>
      <trkpt lat="41.29278" lon="-8.61465">
        <ele>147.8</ele>
        <time>2021-03-20 12:49:17</time>
      </trkpt>
      <trkpt lat="41.29278" lon="-8.61469">
        <ele>148</ele>
        <time>2021-03-20 12:49:18</time>
      </trkpt>
      <trkpt lat="41.29284" lon="-8.61475">
        <ele>148.4</ele>
        <time>2021-03-20 12:49:19</time>
      </trkpt>
      <trkpt lat="41.29285" lon="-8.61478">
        <ele>148.6</ele>
        <time>2021-03-20 12:49:20</time>
      </trkpt>
      <trkpt lat="41.29287" lon="-8.61482">
        <ele>148.8</ele>
        <time>2021-03-20 12:49:21</time>
      </trkpt>
      <trkpt lat="41.2929" lon="-8.61485">
        <ele>149</ele>
        <time>2021-03-20 12:49:22</time>
      </trkpt>
      <trkpt lat="41.29293" lon="-8.61489">
        <ele>149.2</ele>
        <time>2021-03-20 12:49:23</time>
      </trkpt>
      <trkpt lat="41.29294" lon="-8.61493">
        <ele>149.4</ele>
        <time>2021-03-20 12:49:24</time>
      </trkpt>
      <trkpt lat="41.29295" lon="-8.61496">
        <ele>149.6</ele>
        <time>2021-03-20 12:49:25</time>
      </trkpt>
      <trkpt lat="41.29296" lon="-8.615">
        <ele>149.8</ele>
        <time>2021-03-20 12:49:26</time>
      </trkpt>
      <trkpt lat="41.29299" lon="-8.61501">
        <ele>150</ele>
        <time>2021-03-20 12:49:27</time>
      </trkpt>
      <trkpt lat="41.29299" lon="-8.61503">
        <ele>150</ele>
        <time>2021-03-20 12:49:28</time>
      </trkpt>
      <trkpt lat="41.293" lon="-8.61508">
        <ele>150.2</ele>
        <time>2021-03-20 12:49:29</time>
      </trkpt>
      <trkpt lat="41.29302" lon="-8.61511">
        <ele>150.4</ele>
        <time>2021-03-20 12:49:30</time>
      </trkpt>
      <trkpt lat="41.29305" lon="-8.61518">
        <ele>150.6</ele>
        <time>2021-03-20 12:49:31</time>
      </trkpt>
      <trkpt lat="41.29308" lon="-8.61519">
        <ele>150.8</ele>
        <time>2021-03-20 12:49:32</time>
      </trkpt>
      <trkpt lat="41.2931" lon="-8.6152">
        <ele>151</ele>
        <time>2021-03-20 12:49:33</time>
      </trkpt>
      <trkpt lat="41.2931" lon="-8.6153">
        <ele>151.2</ele>
        <time>2021-03-20 12:49:34</time>
      </trkpt>
      <trkpt lat="41.2931" lon="-8.61534">
        <ele>151.4</ele>
        <time>2021-03-20 12:49:35</time>
      </trkpt>
      <trkpt lat="41.29314" lon="-8.61535">
        <ele>151.6</ele>
        <time>2021-03-20 12:49:36</time>
      </trkpt>
      <trkpt lat="41.29313" lon="-8.61539">
        <ele>151.8</ele>
        <time>2021-03-20 12:49:37</time>
      </trkpt>
      <trkpt lat="41.29315" lon="-8.61541">
        <ele>152</ele>
        <time>2021-03-20 12:49:38</time>
      </trkpt>
      <trkpt lat="41.29316" lon="-8.61545">
        <ele>152.2</ele>
        <time>2021-03-20 12:49:39</time>
      </trkpt>
      <trkpt lat="41.29317" lon="-8.61545">
        <ele>152.4</ele>
        <time>2021-03-20 12:49:40</time>
      </trkpt>
      <trkpt lat="41.29322" lon="-8.61551">
        <ele>152.6</ele>
        <time>2021-03-20 12:49:41</time>
      </trkpt>
      <trkpt lat="41.29323" lon="-8.61553">
        <ele>152.8</ele>
        <time>2021-03-20 12:49:42</time>
      </trkpt>
      <trkpt lat="41.29324" lon="-8.61556">
        <ele>152.8</ele>
        <time>2021-03-20 12:49:43</time>
      </trkpt>
      <trkpt lat="41.29329" lon="-8.61561">
        <ele>153</ele>
        <time>2021-03-20 12:49:44</time>
      </trkpt>
      <trkpt lat="41.29333" lon="-8.61574">
        <ele>153.2</ele>
        <time>2021-03-20 12:49:45</time>
      </trkpt>
      <trkpt lat="41.2933" lon="-8.61584">
        <ele>153.4</ele>
        <time>2021-03-20 12:49:46</time>
      </trkpt>
      <trkpt lat="41.2933" lon="-8.61588">
        <ele>153.6</ele>
        <time>2021-03-20 12:49:47</time>
      </trkpt>
      <trkpt lat="41.29334" lon="-8.61588">
        <ele>153.8</ele>
        <time>2021-03-20 12:49:48</time>
      </trkpt>
      <trkpt lat="41.29333" lon="-8.61587">
        <ele>154</ele>
        <time>2021-03-20 12:49:49</time>
      </trkpt>
      <trkpt lat="41.29338" lon="-8.61593">
        <ele>154.2</ele>
        <time>2021-03-20 12:49:50</time>
      </trkpt>
      <trkpt lat="41.29342" lon="-8.61599">
        <ele>154.2</ele>
        <time>2021-03-20 12:49:51</time>
      </trkpt>
      <trkpt lat="41.29344" lon="-8.61611">
        <ele>154.4</ele>
        <time>2021-03-20 12:49:52</time>
      </trkpt>
      <trkpt lat="41.29348" lon="-8.61603">
        <ele>154.6</ele>
        <time>2021-03-20 12:49:53</time>
      </trkpt>
      <trkpt lat="41.29347" lon="-8.6161">
        <ele>154.8</ele>
        <time>2021-03-20 12:49:54</time>
      </trkpt>
      <trkpt lat="41.29346" lon="-8.61617">
        <ele>155</ele>
        <time>2021-03-20 12:49:55</time>
      </trkpt>
      <trkpt lat="41.29346" lon="-8.6162">
        <ele>155.2</ele>
        <time>2021-03-20 12:49:56</time>
      </trkpt>
      <trkpt lat="41.29347" lon="-8.61624">
        <ele>155.4</ele>
        <time>2021-03-20 12:49:57</time>
      </trkpt>
      <trkpt lat="41.29347" lon="-8.61622">
        <ele>155.6</ele>
        <time>2021-03-20 12:49:58</time>
      </trkpt>
      <trkpt lat="41.29347" lon="-8.61618">
        <ele>155.8</ele>
        <time>2021-03-20 12:49:59</time>
      </trkpt>
      <trkpt lat="41.29348" lon="-8.61625">
        <ele>155.8</ele>
        <time>2021-03-20 12:50:00</time>
      </trkpt>
      <trkpt lat="41.29344" lon="-8.61633">
        <ele>156</ele>
        <time>2021-03-20 12:50:01</time>
      </trkpt>
      <trkpt lat="41.29347" lon="-8.61627">
        <ele>156.4</ele>
        <time>2021-03-20 12:50:02</time>
      </trkpt>
      <trkpt lat="41.29351" lon="-8.61628">
        <ele>156.6</ele>
        <time>2021-03-20 12:50:03</time>
      </trkpt>
      <trkpt lat="41.29352" lon="-8.6163">
        <ele>156.6</ele>
        <time>2021-03-20 12:50:04</time>
      </trkpt>
      <trkpt lat="41.29356" lon="-8.61632">
        <ele>156.8</ele>
        <time>2021-03-20 12:50:05</time>
      </trkpt>
      <trkpt lat="41.29357" lon="-8.61634">
        <ele>157</ele>
        <time>2021-03-20 12:50:06</time>
      </trkpt>
      <trkpt lat="41.29355" lon="-8.61647">
        <ele>157.2</ele>
        <time>2021-03-20 12:50:07</time>
      </trkpt>
      <trkpt lat="41.29362" lon="-8.6165">
        <ele>157.4</ele>
        <time>2021-03-20 12:50:08</time>
      </trkpt>
      <trkpt lat="41.29358" lon="-8.61652">
        <ele>157.6</ele>
        <time>2021-03-20 12:50:09</time>
      </trkpt>
      <trkpt lat="41.29357" lon="-8.61657">
        <ele>157.8</ele>
        <time>2021-03-20 12:50:10</time>
      </trkpt>
      <trkpt lat="41.29359" lon="-8.61663">
        <ele>158</ele>
        <time>2021-03-20 12:50:11</time>
      </trkpt>
      <trkpt lat="41.29358" lon="-8.61668">
        <ele>158</ele>
        <time>2021-03-20 12:50:12</time>
      </trkpt>
      <trkpt lat="41.29358" lon="-8.61674">
        <ele>158.2</ele>
        <time>2021-03-20 12:50:13</time>
      </trkpt>
      <trkpt lat="41.29362" lon="-8.61679">
        <ele>158.4</ele>
        <time>2021-03-20 12:50:14</time>
      </trkpt>
      <trkpt lat="41.29364" lon="-8.61679">
        <ele>158.6</ele>
        <time>2021-03-20 12:50:15</time>
      </trkpt>
      <trkpt lat="41.29366" lon="-8.61677">
        <ele>158.8</ele>
        <time>2021-03-20 12:50:16</time>
      </trkpt>
      <trkpt lat="41.29364" lon="-8.61687">
        <ele>159</ele>
        <time>2021-03-20 12:50:17</time>
      </trkpt>
      <trkpt lat="41.29367" lon="-8.61687">
        <ele>159.2</ele>
        <time>2021-03-20 12:50:18</time>
      </trkpt>
      <trkpt lat="41.29371" lon="-8.6169">
        <ele>159.4</ele>
        <time>2021-03-20 12:50:19</time>
      </trkpt>
      <trkpt lat="41.29373" lon="-8.61683">
        <ele>159.6</ele>
        <time>2021-03-20 12:50:20</time>
      </trkpt>
      <trkpt lat="41.29372" lon="-8.6169">
        <ele>159.8</ele>
        <time>2021-03-20 12:50:21</time>
      </trkpt>
      <trkpt lat="41.29373" lon="-8.61697">
        <ele>160</ele>
        <time>2021-03-20 12:50:22</time>
      </trkpt>
      <trkpt lat="41.29373" lon="-8.61698">
        <ele>160.2</ele>
        <time>2021-03-20 12:50:23</time>
      </trkpt>
      <trkpt lat="41.29373" lon="-8.61707">
        <ele>160.2</ele>
        <time>2021-03-20 12:50:24</time>
      </trkpt>
      <trkpt lat="41.29373" lon="-8.61712">
        <ele>160.4</ele>
        <time>2021-03-20 12:50:25</time>
      </trkpt>
      <trkpt lat="41.29375" lon="-8.61717">
        <ele>160.8</ele>
        <time>2021-03-20 12:50:26</time>
      </trkpt>
      <trkpt lat="41.29374" lon="-8.61722">
        <ele>161</ele>
        <time>2021-03-20 12:50:27</time>
      </trkpt>
      <trkpt lat="41.29375" lon="-8.61726">
        <ele>161</ele>
        <time>2021-03-20 12:50:28</time>
      </trkpt>
      <trkpt lat="41.29378" lon="-8.61732">
        <ele>161.2</ele>
        <time>2021-03-20 12:50:29</time>
      </trkpt>
      <trkpt lat="41.29378" lon="-8.61732">
        <ele>161.2</ele>
        <time>2021-03-20 12:50:30</time>
      </trkpt>
      <trkpt lat="41.29381" lon="-8.61732">
        <ele>161.6</ele>
        <time>2021-03-20 12:50:31</time>
      </trkpt>
      <trkpt lat="41.29381" lon="-8.6174">
        <ele>161.8</ele>
        <time>2021-03-20 12:50:32</time>
      </trkpt>
      <trkpt lat="41.29384" lon="-8.61738">
        <ele>162.2</ele>
        <time>2021-03-20 12:50:33</time>
      </trkpt>
      <trkpt lat="41.29386" lon="-8.61744">
        <ele>162.4</ele>
        <time>2021-03-20 12:50:34</time>
      </trkpt>
      <trkpt lat="41.29384" lon="-8.6175">
        <ele>162.8</ele>
        <time>2021-03-20 12:50:35</time>
      </trkpt>
      <trkpt lat="41.29385" lon="-8.61763">
        <ele>163</ele>
        <time>2021-03-20 12:50:36</time>
      </trkpt>
      <trkpt lat="41.2939" lon="-8.61761">
        <ele>163</ele>
        <time>2021-03-20 12:50:37</time>
      </trkpt>
      <trkpt lat="41.29389" lon="-8.61757">
        <ele>163.4</ele>
        <time>2021-03-20 12:50:38</time>
      </trkpt>
      <trkpt lat="41.29393" lon="-8.61764">
        <ele>163.6</ele>
        <time>2021-03-20 12:50:39</time>
      </trkpt>
      <trkpt lat="41.29393" lon="-8.61771">
        <ele>163.8</ele>
        <time>2021-03-20 12:50:40</time>
      </trkpt>
      <trkpt lat="41.2939" lon="-8.61776">
        <ele>164</ele>
        <time>2021-03-20 12:50:41</time>
      </trkpt>
      <trkpt lat="41.29395" lon="-8.61781">
        <ele>164.2</ele>
        <time>2021-03-20 12:50:42</time>
      </trkpt>
      <trkpt lat="41.29395" lon="-8.61787">
        <ele>164.6</ele>
        <time>2021-03-20 12:50:43</time>
      </trkpt>
      <trkpt lat="41.29396" lon="-8.61788">
        <ele>164.8</ele>
        <time>2021-03-20 12:50:44</time>
      </trkpt>
      <trkpt lat="41.29398" lon="-8.61791">
        <ele>165</ele>
        <time>2021-03-20 12:50:45</time>
      </trkpt>
      <trkpt lat="41.29401" lon="-8.61795">
        <ele>165.2</ele>
        <time>2021-03-20 12:50:46</time>
      </trkpt>
      <trkpt lat="41.294" lon="-8.61799">
        <ele>165.2</ele>
        <time>2021-03-20 12:50:47</time>
      </trkpt>
      <trkpt lat="41.294" lon="-8.61802">
        <ele>165.4</ele>
        <time>2021-03-20 12:50:48</time>
      </trkpt>
      <trkpt lat="41.29403" lon="-8.61805">
        <ele>165.8</ele>
        <time>2021-03-20 12:50:49</time>
      </trkpt>
      <trkpt lat="41.29403" lon="-8.61811">
        <ele>165.8</ele>
        <time>2021-03-20 12:50:50</time>
      </trkpt>
      <trkpt lat="41.29406" lon="-8.61814">
        <ele>166.2</ele>
        <time>2021-03-20 12:50:51</time>
      </trkpt>
      <trkpt lat="41.29408" lon="-8.61817">
        <ele>166.4</ele>
        <time>2021-03-20 12:50:52</time>
      </trkpt>
      <trkpt lat="41.29409" lon="-8.6182">
        <ele>166.6</ele>
        <time>2021-03-20 12:50:53</time>
      </trkpt>
      <trkpt lat="41.2941" lon="-8.61825">
        <ele>166.8</ele>
        <time>2021-03-20 12:50:54</time>
      </trkpt>
      <trkpt lat="41.29412" lon="-8.6183">
        <ele>167</ele>
        <time>2021-03-20 12:50:55</time>
      </trkpt>
      <trkpt lat="41.29415" lon="-8.61833">
        <ele>167</ele>
        <time>2021-03-20 12:50:56</time>
      </trkpt>
      <trkpt lat="41.29417" lon="-8.61835">
        <ele>167.2</ele>
        <time>2021-03-20 12:50:57</time>
      </trkpt>
      <trkpt lat="41.29418" lon="-8.61837">
        <ele>167.4</ele>
        <time>2021-03-20 12:50:58</time>
      </trkpt>
      <trkpt lat="41.2942" lon="-8.6184">
        <ele>167.4</ele>
        <time>2021-03-20 12:50:59</time>
      </trkpt>
      <trkpt lat="41.29421" lon="-8.61843">
        <ele>167.6</ele>
        <time>2021-03-20 12:51:00</time>
      </trkpt>
      <trkpt lat="41.29422" lon="-8.61846">
        <ele>167.6</ele>
        <time>2021-03-20 12:51:01</time>
      </trkpt>
      <trkpt lat="41.29424" lon="-8.61848">
        <ele>167.8</ele>
        <time>2021-03-20 12:51:02</time>
      </trkpt>
      <trkpt lat="41.29427" lon="-8.6185">
        <ele>167.8</ele>
        <time>2021-03-20 12:51:03</time>
      </trkpt>
      <trkpt lat="41.29429" lon="-8.61851">
        <ele>167.8</ele>
        <time>2021-03-20 12:51:04</time>
      </trkpt>
      <trkpt lat="41.29431" lon="-8.61853">
        <ele>167.8</ele>
        <time>2021-03-20 12:51:05</time>
      </trkpt>
      <trkpt lat="41.29432" lon="-8.61854">
        <ele>167.8</ele>
        <time>2021-03-20 12:51:06</time>
      </trkpt>
      <trkpt lat="41.29434" lon="-8.61857">
        <ele>168</ele>
        <time>2021-03-20 12:51:07</time>
      </trkpt>
      <trkpt lat="41.29435" lon="-8.61861">
        <ele>167.8</ele>
        <time>2021-03-20 12:51:08</time>
      </trkpt>
      <trkpt lat="41.29439" lon="-8.61867">
        <ele>167.6</ele>
        <time>2021-03-20 12:51:09</time>
      </trkpt>
      <trkpt lat="41.29438" lon="-8.61872">
        <ele>167.6</ele>
        <time>2021-03-20 12:51:10</time>
      </trkpt>
      <trkpt lat="41.29437" lon="-8.61875">
        <ele>167.8</ele>
        <time>2021-03-20 12:51:11</time>
      </trkpt>
      <trkpt lat="41.29441" lon="-8.61879">
        <ele>168</ele>
        <time>2021-03-20 12:51:12</time>
      </trkpt>
      <trkpt lat="41.29442" lon="-8.61881">
        <ele>168</ele>
        <time>2021-03-20 12:51:13</time>
      </trkpt>
      <trkpt lat="41.29444" lon="-8.61885">
        <ele>168</ele>
        <time>2021-03-20 12:51:14</time>
      </trkpt>
      <trkpt lat="41.29441" lon="-8.61888">
        <ele>168</ele>
        <time>2021-03-20 12:51:15</time>
      </trkpt>
      <trkpt lat="41.29446" lon="-8.61893">
        <ele>168</ele>
        <time>2021-03-20 12:51:16</time>
      </trkpt>
      <trkpt lat="41.29447" lon="-8.61899">
        <ele>168.2</ele>
        <time>2021-03-20 12:51:17</time>
      </trkpt>
      <trkpt lat="41.29453" lon="-8.61906">
        <ele>168.2</ele>
        <time>2021-03-20 12:51:18</time>
      </trkpt>
      <trkpt lat="41.29455" lon="-8.61914">
        <ele>168.2</ele>
        <time>2021-03-20 12:51:19</time>
      </trkpt>
      <trkpt lat="41.29456" lon="-8.6192">
        <ele>168.2</ele>
        <time>2021-03-20 12:51:20</time>
      </trkpt>
      <trkpt lat="41.29455" lon="-8.61927">
        <ele>168</ele>
        <time>2021-03-20 12:51:21</time>
      </trkpt>
      <trkpt lat="41.2946" lon="-8.61934">
        <ele>167.8</ele>
        <time>2021-03-20 12:51:22</time>
      </trkpt>
      <trkpt lat="41.29462" lon="-8.6194">
        <ele>168.6</ele>
        <time>2021-03-20 12:51:23</time>
      </trkpt>
      <trkpt lat="41.29462" lon="-8.61948">
        <ele>168.4</ele>
        <time>2021-03-20 12:51:24</time>
      </trkpt>
      <trkpt lat="41.29463" lon="-8.61954">
        <ele>168.2</ele>
        <time>2021-03-20 12:51:25</time>
      </trkpt>
      <trkpt lat="41.29462" lon="-8.6196">
        <ele>168.2</ele>
        <time>2021-03-20 12:51:26</time>
      </trkpt>
      <trkpt lat="41.29465" lon="-8.61965">
        <ele>168.4</ele>
        <time>2021-03-20 12:51:27</time>
      </trkpt>
      <trkpt lat="41.29467" lon="-8.6197">
        <ele>168.6</ele>
        <time>2021-03-20 12:51:28</time>
      </trkpt>
      <trkpt lat="41.2947" lon="-8.61976">
        <ele>168.4</ele>
        <time>2021-03-20 12:51:29</time>
      </trkpt>
      <trkpt lat="41.2947" lon="-8.61981">
        <ele>168.4</ele>
        <time>2021-03-20 12:51:30</time>
      </trkpt>
      <trkpt lat="41.29473" lon="-8.61986">
        <ele>168.6</ele>
        <time>2021-03-20 12:51:31</time>
      </trkpt>
      <trkpt lat="41.29475" lon="-8.61989">
        <ele>168.6</ele>
        <time>2021-03-20 12:51:32</time>
      </trkpt>
      <trkpt lat="41.2948" lon="-8.61995">
        <ele>168.6</ele>
        <time>2021-03-20 12:51:33</time>
      </trkpt>
      <trkpt lat="41.29481" lon="-8.61999">
        <ele>168.6</ele>
        <time>2021-03-20 12:51:34</time>
      </trkpt>
      <trkpt lat="41.29482" lon="-8.62003">
        <ele>168.6</ele>
        <time>2021-03-20 12:51:35</time>
      </trkpt>
      <trkpt lat="41.29486" lon="-8.62008">
        <ele>168.8</ele>
        <time>2021-03-20 12:51:36</time>
      </trkpt>
      <trkpt lat="41.29489" lon="-8.62012">
        <ele>168.8</ele>
        <time>2021-03-20 12:51:37</time>
      </trkpt>
      <trkpt lat="41.29492" lon="-8.62016">
        <ele>168.8</ele>
        <time>2021-03-20 12:51:38</time>
      </trkpt>
      <trkpt lat="41.29495" lon="-8.62019">
        <ele>168.8</ele>
        <time>2021-03-20 12:51:39</time>
      </trkpt>
      <trkpt lat="41.29499" lon="-8.62023">
        <ele>168.8</ele>
        <time>2021-03-20 12:51:40</time>
      </trkpt>
      <trkpt lat="41.29503" lon="-8.62027">
        <ele>169</ele>
        <time>2021-03-20 12:51:41</time>
      </trkpt>
      <trkpt lat="41.29507" lon="-8.62032">
        <ele>169.2</ele>
        <time>2021-03-20 12:51:42</time>
      </trkpt>
      <trkpt lat="41.2951" lon="-8.62036">
        <ele>169.2</ele>
        <time>2021-03-20 12:51:43</time>
      </trkpt>
      <trkpt lat="41.29514" lon="-8.62041">
        <ele>169.6</ele>
        <time>2021-03-20 12:51:44</time>
      </trkpt>
      <trkpt lat="41.29518" lon="-8.62045">
        <ele>170</ele>
        <time>2021-03-20 12:51:45</time>
      </trkpt>
      <trkpt lat="41.29522" lon="-8.62049">
        <ele>170.2</ele>
        <time>2021-03-20 12:51:46</time>
      </trkpt>
      <trkpt lat="41.29525" lon="-8.62053">
        <ele>170.4</ele>
        <time>2021-03-20 12:51:47</time>
      </trkpt>
      <trkpt lat="41.29529" lon="-8.62058">
        <ele>170.6</ele>
        <time>2021-03-20 12:51:48</time>
      </trkpt>
      <trkpt lat="41.29534" lon="-8.62062">
        <ele>170.8</ele>
        <time>2021-03-20 12:51:49</time>
      </trkpt>
      <trkpt lat="41.29538" lon="-8.62067">
        <ele>170.8</ele>
        <time>2021-03-20 12:51:50</time>
      </trkpt>
      <trkpt lat="41.29542" lon="-8.62071">
        <ele>171</ele>
        <time>2021-03-20 12:51:51</time>
      </trkpt>
      <trkpt lat="41.29546" lon="-8.62076">
        <ele>171.2</ele>
        <time>2021-03-20 12:51:52</time>
      </trkpt>
      <trkpt lat="41.2955" lon="-8.6208">
        <ele>171.4</ele>
        <time>2021-03-20 12:51:53</time>
      </trkpt>
      <trkpt lat="41.29553" lon="-8.62084">
        <ele>171.4</ele>
        <time>2021-03-20 12:51:54</time>
      </trkpt>
      <trkpt lat="41.29559" lon="-8.6209">
        <ele>171.6</ele>
        <time>2021-03-20 12:51:55</time>
      </trkpt>
      <trkpt lat="41.29564" lon="-8.62094">
        <ele>171.4</ele>
        <time>2021-03-20 12:51:56</time>
      </trkpt>
      <trkpt lat="41.29568" lon="-8.62098">
        <ele>171.8</ele>
        <time>2021-03-20 12:51:57</time>
      </trkpt>
      <trkpt lat="41.29572" lon="-8.62102">
        <ele>172</ele>
        <time>2021-03-20 12:51:58</time>
      </trkpt>
      <trkpt lat="41.29576" lon="-8.62105">
        <ele>172</ele>
        <time>2021-03-20 12:51:59</time>
      </trkpt>
      <trkpt lat="41.29578" lon="-8.62109">
        <ele>172</ele>
        <time>2021-03-20 12:52:00</time>
      </trkpt>
      <trkpt lat="41.29582" lon="-8.62114">
        <ele>172</ele>
        <time>2021-03-20 12:52:01</time>
      </trkpt>
      <trkpt lat="41.29585" lon="-8.62119">
        <ele>172.2</ele>
        <time>2021-03-20 12:52:02</time>
      </trkpt>
      <trkpt lat="41.29589" lon="-8.62124">
        <ele>172.2</ele>
        <time>2021-03-20 12:52:03</time>
      </trkpt>
      <trkpt lat="41.29593" lon="-8.62131">
        <ele>172.4</ele>
        <time>2021-03-20 12:52:04</time>
      </trkpt>
      <trkpt lat="41.29597" lon="-8.62134">
        <ele>172</ele>
        <time>2021-03-20 12:52:05</time>
      </trkpt>
      <trkpt lat="41.29601" lon="-8.6214">
        <ele>172</ele>
        <time>2021-03-20 12:52:06</time>
      </trkpt>
      <trkpt lat="41.29604" lon="-8.62143">
        <ele>172.2</ele>
        <time>2021-03-20 12:52:07</time>
      </trkpt>
      <trkpt lat="41.2961" lon="-8.62148">
        <ele>172.2</ele>
        <time>2021-03-20 12:52:08</time>
      </trkpt>
      <trkpt lat="41.29614" lon="-8.62151">
        <ele>172.4</ele>
        <time>2021-03-20 12:52:09</time>
      </trkpt>
      <trkpt lat="41.29619" lon="-8.62155">
        <ele>172.6</ele>
        <time>2021-03-20 12:52:10</time>
      </trkpt>
      <trkpt lat="41.29623" lon="-8.6216">
        <ele>172.6</ele>
        <time>2021-03-20 12:52:11</time>
      </trkpt>
      <trkpt lat="41.29625" lon="-8.62164">
        <ele>172.6</ele>
        <time>2021-03-20 12:52:12</time>
      </trkpt>
      <trkpt lat="41.29629" lon="-8.62167">
        <ele>172.8</ele>
        <time>2021-03-20 12:52:13</time>
      </trkpt>
      <trkpt lat="41.29633" lon="-8.62171">
        <ele>172.8</ele>
        <time>2021-03-20 12:52:14</time>
      </trkpt>
      <trkpt lat="41.29636" lon="-8.62175">
        <ele>173</ele>
        <time>2021-03-20 12:52:15</time>
      </trkpt>
      <trkpt lat="41.29639" lon="-8.6218">
        <ele>173.2</ele>
        <time>2021-03-20 12:52:16</time>
      </trkpt>
      <trkpt lat="41.2964" lon="-8.62181">
        <ele>173.2</ele>
        <time>2021-03-20 12:52:17</time>
      </trkpt>
      <trkpt lat="41.29643" lon="-8.62184">
        <ele>173.2</ele>
        <time>2021-03-20 12:52:18</time>
      </trkpt>
      <trkpt lat="41.29645" lon="-8.62189">
        <ele>173.4</ele>
        <time>2021-03-20 12:52:19</time>
      </trkpt>
      <trkpt lat="41.29648" lon="-8.62193">
        <ele>173.6</ele>
        <time>2021-03-20 12:52:20</time>
      </trkpt>
      <trkpt lat="41.2965" lon="-8.62197">
        <ele>173.6</ele>
        <time>2021-03-20 12:52:21</time>
      </trkpt>
      <trkpt lat="41.29652" lon="-8.62201">
        <ele>173.8</ele>
        <time>2021-03-20 12:52:22</time>
      </trkpt>
      <trkpt lat="41.29655" lon="-8.62204">
        <ele>173.8</ele>
        <time>2021-03-20 12:52:23</time>
      </trkpt>
      <trkpt lat="41.29658" lon="-8.62209">
        <ele>174</ele>
        <time>2021-03-20 12:52:24</time>
      </trkpt>
      <trkpt lat="41.29663" lon="-8.62212">
        <ele>174</ele>
        <time>2021-03-20 12:52:25</time>
      </trkpt>
      <trkpt lat="41.29667" lon="-8.62216">
        <ele>174</ele>
        <time>2021-03-20 12:52:26</time>
      </trkpt>
      <trkpt lat="41.29671" lon="-8.62221">
        <ele>174</ele>
        <time>2021-03-20 12:52:27</time>
      </trkpt>
      <trkpt lat="41.29676" lon="-8.62226">
        <ele>174</ele>
        <time>2021-03-20 12:52:28</time>
      </trkpt>
      <trkpt lat="41.29679" lon="-8.62229">
        <ele>173.8</ele>
        <time>2021-03-20 12:52:29</time>
      </trkpt>
      <trkpt lat="41.29683" lon="-8.62234">
        <ele>173.8</ele>
        <time>2021-03-20 12:52:30</time>
      </trkpt>
      <trkpt lat="41.29689" lon="-8.62238">
        <ele>173.6</ele>
        <time>2021-03-20 12:52:31</time>
      </trkpt>
      <trkpt lat="41.29694" lon="-8.62243">
        <ele>173.6</ele>
        <time>2021-03-20 12:52:32</time>
      </trkpt>
      <trkpt lat="41.297" lon="-8.62248">
        <ele>173.6</ele>
        <time>2021-03-20 12:52:33</time>
      </trkpt>
      <trkpt lat="41.29706" lon="-8.62255">
        <ele>173.4</ele>
        <time>2021-03-20 12:52:34</time>
      </trkpt>
      <trkpt lat="41.29712" lon="-8.62259">
        <ele>173.4</ele>
        <time>2021-03-20 12:52:35</time>
      </trkpt>
      <trkpt lat="41.29717" lon="-8.62264">
        <ele>173.6</ele>
        <time>2021-03-20 12:52:36</time>
      </trkpt>
      <trkpt lat="41.29724" lon="-8.62268">
        <ele>173.8</ele>
        <time>2021-03-20 12:52:37</time>
      </trkpt>
      <trkpt lat="41.29729" lon="-8.62272">
        <ele>173.6</ele>
        <time>2021-03-20 12:52:38</time>
      </trkpt>
      <trkpt lat="41.29732" lon="-8.62278">
        <ele>173.6</ele>
        <time>2021-03-20 12:52:39</time>
      </trkpt>
      <trkpt lat="41.29741" lon="-8.62284">
        <ele>173.6</ele>
        <time>2021-03-20 12:52:40</time>
      </trkpt>
      <trkpt lat="41.29744" lon="-8.62287">
        <ele>173.6</ele>
        <time>2021-03-20 12:52:41</time>
      </trkpt>
      <trkpt lat="41.29751" lon="-8.62292">
        <ele>173.6</ele>
        <time>2021-03-20 12:52:42</time>
      </trkpt>
      <trkpt lat="41.29754" lon="-8.62297">
        <ele>173.6</ele>
        <time>2021-03-20 12:52:43</time>
      </trkpt>
      <trkpt lat="41.29758" lon="-8.62301">
        <ele>173.6</ele>
        <time>2021-03-20 12:52:44</time>
      </trkpt>
      <trkpt lat="41.2976" lon="-8.62306">
        <ele>173.6</ele>
        <time>2021-03-20 12:52:45</time>
      </trkpt>
      <trkpt lat="41.29768" lon="-8.62312">
        <ele>173.8</ele>
        <time>2021-03-20 12:52:46</time>
      </trkpt>
      <trkpt lat="41.29775" lon="-8.62317">
        <ele>174</ele>
        <time>2021-03-20 12:52:47</time>
      </trkpt>
      <trkpt lat="41.29779" lon="-8.62321">
        <ele>174</ele>
        <time>2021-03-20 12:52:48</time>
      </trkpt>
      <trkpt lat="41.29787" lon="-8.62328">
        <ele>174</ele>
        <time>2021-03-20 12:52:49</time>
      </trkpt>
      <trkpt lat="41.29792" lon="-8.62332">
        <ele>174</ele>
        <time>2021-03-20 12:52:50</time>
      </trkpt>
      <trkpt lat="41.29797" lon="-8.62337">
        <ele>173.8</ele>
        <time>2021-03-20 12:52:51</time>
      </trkpt>
      <trkpt lat="41.29802" lon="-8.62342">
        <ele>173.8</ele>
        <time>2021-03-20 12:52:52</time>
      </trkpt>
      <trkpt lat="41.29806" lon="-8.62346">
        <ele>174</ele>
        <time>2021-03-20 12:52:53</time>
      </trkpt>
      <trkpt lat="41.2981" lon="-8.62351">
        <ele>174.2</ele>
        <time>2021-03-20 12:52:54</time>
      </trkpt>
      <trkpt lat="41.29815" lon="-8.62357">
        <ele>174.2</ele>
        <time>2021-03-20 12:52:55</time>
      </trkpt>
      <trkpt lat="41.2982" lon="-8.62362">
        <ele>174.2</ele>
        <time>2021-03-20 12:52:56</time>
      </trkpt>
      <trkpt lat="41.29822" lon="-8.62367">
        <ele>174.2</ele>
        <time>2021-03-20 12:52:57</time>
      </trkpt>
      <trkpt lat="41.29827" lon="-8.62371">
        <ele>174.2</ele>
        <time>2021-03-20 12:52:58</time>
      </trkpt>
      <trkpt lat="41.29831" lon="-8.62375">
        <ele>174.2</ele>
        <time>2021-03-20 12:52:59</time>
      </trkpt>
      <trkpt lat="41.29836" lon="-8.6238">
        <ele>174.2</ele>
        <time>2021-03-20 12:53:00</time>
      </trkpt>
      <trkpt lat="41.29841" lon="-8.62385">
        <ele>174.2</ele>
        <time>2021-03-20 12:53:01</time>
      </trkpt>
      <trkpt lat="41.29847" lon="-8.6239">
        <ele>174.2</ele>
        <time>2021-03-20 12:53:02</time>
      </trkpt>
      <trkpt lat="41.29852" lon="-8.62394">
        <ele>174.2</ele>
        <time>2021-03-20 12:53:03</time>
      </trkpt>
      <trkpt lat="41.29859" lon="-8.62398">
        <ele>174.2</ele>
        <time>2021-03-20 12:53:04</time>
      </trkpt>
      <trkpt lat="41.29864" lon="-8.62403">
        <ele>174.2</ele>
        <time>2021-03-20 12:53:05</time>
      </trkpt>
      <trkpt lat="41.29869" lon="-8.62408">
        <ele>174.2</ele>
        <time>2021-03-20 12:53:06</time>
      </trkpt>
      <trkpt lat="41.29873" lon="-8.62413">
        <ele>174.2</ele>
        <time>2021-03-20 12:53:07</time>
      </trkpt>
      <trkpt lat="41.2988" lon="-8.62417">
        <ele>174.4</ele>
        <time>2021-03-20 12:53:08</time>
      </trkpt>
      <trkpt lat="41.29887" lon="-8.62414">
        <ele>174.2</ele>
        <time>2021-03-20 12:53:09</time>
      </trkpt>
      <trkpt lat="41.29893" lon="-8.62418">
        <ele>174.4</ele>
        <time>2021-03-20 12:53:10</time>
      </trkpt>
      <trkpt lat="41.29897" lon="-8.6242">
        <ele>174.4</ele>
        <time>2021-03-20 12:53:11</time>
      </trkpt>
      <trkpt lat="41.299" lon="-8.62426">
        <ele>174.4</ele>
        <time>2021-03-20 12:53:12</time>
      </trkpt>
      <trkpt lat="41.2991" lon="-8.6243">
        <ele>174.4</ele>
        <time>2021-03-20 12:53:13</time>
      </trkpt>
      <trkpt lat="41.29915" lon="-8.62432">
        <ele>174.4</ele>
        <time>2021-03-20 12:53:14</time>
      </trkpt>
      <trkpt lat="41.29921" lon="-8.62438">
        <ele>174.6</ele>
        <time>2021-03-20 12:53:15</time>
      </trkpt>
      <trkpt lat="41.29927" lon="-8.62439">
        <ele>174.6</ele>
        <time>2021-03-20 12:53:16</time>
      </trkpt>
      <trkpt lat="41.2993" lon="-8.6244">
        <ele>174.4</ele>
        <time>2021-03-20 12:53:17</time>
      </trkpt>
      <trkpt lat="41.29935" lon="-8.62444">
        <ele>174.6</ele>
        <time>2021-03-20 12:53:18</time>
      </trkpt>
      <trkpt lat="41.29941" lon="-8.62444">
        <ele>174.6</ele>
        <time>2021-03-20 12:53:19</time>
      </trkpt>
      <trkpt lat="41.29948" lon="-8.62448">
        <ele>174.6</ele>
        <time>2021-03-20 12:53:20</time>
      </trkpt>
      <trkpt lat="41.29953" lon="-8.6245">
        <ele>174.4</ele>
        <time>2021-03-20 12:53:21</time>
      </trkpt>
      <trkpt lat="41.2996" lon="-8.62451">
        <ele>174.4</ele>
        <time>2021-03-20 12:53:22</time>
      </trkpt>
      <trkpt lat="41.29967" lon="-8.62453">
        <ele>174.6</ele>
        <time>2021-03-20 12:53:23</time>
      </trkpt>
      <trkpt lat="41.29973" lon="-8.62452">
        <ele>174.6</ele>
        <time>2021-03-20 12:53:24</time>
      </trkpt>
      <trkpt lat="41.29978" lon="-8.62459">
        <ele>174.6</ele>
        <time>2021-03-20 12:53:25</time>
      </trkpt>
      <trkpt lat="41.29979" lon="-8.62462">
        <ele>174.8</ele>
        <time>2021-03-20 12:53:26</time>
      </trkpt>
      <trkpt lat="41.29986" lon="-8.62465">
        <ele>174.6</ele>
        <time>2021-03-20 12:53:27</time>
      </trkpt>
      <trkpt lat="41.2999" lon="-8.62467">
        <ele>174.4</ele>
        <time>2021-03-20 12:53:28</time>
      </trkpt>
      <trkpt lat="41.29993" lon="-8.6247">
        <ele>174.6</ele>
        <time>2021-03-20 12:53:29</time>
      </trkpt>
      <trkpt lat="41.29996" lon="-8.62474">
        <ele>174.6</ele>
        <time>2021-03-20 12:53:30</time>
      </trkpt>
      <trkpt lat="41.3" lon="-8.62476">
        <ele>174.8</ele>
        <time>2021-03-20 12:53:31</time>
      </trkpt>
      <trkpt lat="41.30008" lon="-8.62476">
        <ele>174.8</ele>
        <time>2021-03-20 12:53:32</time>
      </trkpt>
      <trkpt lat="41.30008" lon="-8.62476">
        <ele>175</ele>
        <time>2021-03-20 12:53:33</time>
      </trkpt>
      <trkpt lat="41.30011" lon="-8.62478">
        <ele>175.2</ele>
        <time>2021-03-20 12:53:34</time>
      </trkpt>
      <trkpt lat="41.30016" lon="-8.62486">
        <ele>175.4</ele>
        <time>2021-03-20 12:53:35</time>
      </trkpt>
      <trkpt lat="41.30026" lon="-8.62483">
        <ele>175.4</ele>
        <time>2021-03-20 12:53:36</time>
      </trkpt>
      <trkpt lat="41.30028" lon="-8.62481">
        <ele>175.6</ele>
        <time>2021-03-20 12:53:37</time>
      </trkpt>
      <trkpt lat="41.3003" lon="-8.62493">
        <ele>175.6</ele>
        <time>2021-03-20 12:53:38</time>
      </trkpt>
      <trkpt lat="41.30039" lon="-8.62487">
        <ele>175.8</ele>
        <time>2021-03-20 12:53:39</time>
      </trkpt>
      <trkpt lat="41.30044" lon="-8.62491">
        <ele>176</ele>
        <time>2021-03-20 12:53:40</time>
      </trkpt>
      <trkpt lat="41.3005" lon="-8.62488">
        <ele>176.2</ele>
        <time>2021-03-20 12:53:41</time>
      </trkpt>
      <trkpt lat="41.30058" lon="-8.62489">
        <ele>176.4</ele>
        <time>2021-03-20 12:53:42</time>
      </trkpt>
      <trkpt lat="41.3006" lon="-8.62492">
        <ele>176.6</ele>
        <time>2021-03-20 12:53:43</time>
      </trkpt>
      <trkpt lat="41.30067" lon="-8.62492">
        <ele>176.8</ele>
        <time>2021-03-20 12:53:44</time>
      </trkpt>
      <trkpt lat="41.30069" lon="-8.62492">
        <ele>176.8</ele>
        <time>2021-03-20 12:53:45</time>
      </trkpt>
      <trkpt lat="41.30075" lon="-8.62495">
        <ele>177</ele>
        <time>2021-03-20 12:53:46</time>
      </trkpt>
      <trkpt lat="41.30083" lon="-8.62504">
        <ele>177.2</ele>
        <time>2021-03-20 12:53:47</time>
      </trkpt>
      <trkpt lat="41.30089" lon="-8.62503">
        <ele>177.2</ele>
        <time>2021-03-20 12:53:48</time>
      </trkpt>
      <trkpt lat="41.30093" lon="-8.62504">
        <ele>177.2</ele>
        <time>2021-03-20 12:53:49</time>
      </trkpt>
      <trkpt lat="41.301" lon="-8.62507">
        <ele>177.4</ele>
        <time>2021-03-20 12:53:50</time>
      </trkpt>
      <trkpt lat="41.30105" lon="-8.6251">
        <ele>177.6</ele>
        <time>2021-03-20 12:53:51</time>
      </trkpt>
      <trkpt lat="41.30109" lon="-8.62512">
        <ele>177.8</ele>
        <time>2021-03-20 12:53:52</time>
      </trkpt>
      <trkpt lat="41.30116" lon="-8.62515">
        <ele>177.8</ele>
        <time>2021-03-20 12:53:53</time>
      </trkpt>
      <trkpt lat="41.30122" lon="-8.62517">
        <ele>177.8</ele>
        <time>2021-03-20 12:53:54</time>
      </trkpt>
      <trkpt lat="41.30127" lon="-8.6252">
        <ele>177.6</ele>
        <time>2021-03-20 12:53:55</time>
      </trkpt>
      <trkpt lat="41.30131" lon="-8.62524">
        <ele>177.6</ele>
        <time>2021-03-20 12:53:56</time>
      </trkpt>
      <trkpt lat="41.30139" lon="-8.62526">
        <ele>177.4</ele>
        <time>2021-03-20 12:53:57</time>
      </trkpt>
      <trkpt lat="41.30143" lon="-8.6253">
        <ele>177.4</ele>
        <time>2021-03-20 12:53:58</time>
      </trkpt>
      <trkpt lat="41.3015" lon="-8.62534">
        <ele>177.2</ele>
        <time>2021-03-20 12:53:59</time>
      </trkpt>
      <trkpt lat="41.30152" lon="-8.62537">
        <ele>177.2</ele>
        <time>2021-03-20 12:54:00</time>
      </trkpt>
      <trkpt lat="41.30158" lon="-8.6254">
        <ele>177.2</ele>
        <time>2021-03-20 12:54:01</time>
      </trkpt>
      <trkpt lat="41.30162" lon="-8.62544">
        <ele>177.2</ele>
        <time>2021-03-20 12:54:02</time>
      </trkpt>
      <trkpt lat="41.30165" lon="-8.62547">
        <ele>177.2</ele>
        <time>2021-03-20 12:54:03</time>
      </trkpt>
      <trkpt lat="41.30173" lon="-8.62551">
        <ele>177</ele>
        <time>2021-03-20 12:54:04</time>
      </trkpt>
      <trkpt lat="41.30175" lon="-8.62555">
        <ele>177</ele>
        <time>2021-03-20 12:54:05</time>
      </trkpt>
      <trkpt lat="41.3018" lon="-8.6256">
        <ele>176.8</ele>
        <time>2021-03-20 12:54:06</time>
      </trkpt>
      <trkpt lat="41.30187" lon="-8.62563">
        <ele>176.8</ele>
        <time>2021-03-20 12:54:07</time>
      </trkpt>
      <trkpt lat="41.30192" lon="-8.62567">
        <ele>176.6</ele>
        <time>2021-03-20 12:54:08</time>
      </trkpt>
      <trkpt lat="41.30197" lon="-8.6257">
        <ele>176.6</ele>
        <time>2021-03-20 12:54:09</time>
      </trkpt>
      <trkpt lat="41.302" lon="-8.62573">
        <ele>176.6</ele>
        <time>2021-03-20 12:54:10</time>
      </trkpt>
      <trkpt lat="41.30204" lon="-8.62577">
        <ele>176.6</ele>
        <time>2021-03-20 12:54:11</time>
      </trkpt>
      <trkpt lat="41.3021" lon="-8.62581">
        <ele>176.6</ele>
        <time>2021-03-20 12:54:12</time>
      </trkpt>
      <trkpt lat="41.30216" lon="-8.62584">
        <ele>176.6</ele>
        <time>2021-03-20 12:54:13</time>
      </trkpt>
      <trkpt lat="41.30219" lon="-8.62587">
        <ele>176.8</ele>
        <time>2021-03-20 12:54:14</time>
      </trkpt>
      <trkpt lat="41.30225" lon="-8.6259">
        <ele>176.8</ele>
        <time>2021-03-20 12:54:15</time>
      </trkpt>
      <trkpt lat="41.30229" lon="-8.62594">
        <ele>176.8</ele>
        <time>2021-03-20 12:54:16</time>
      </trkpt>
      <trkpt lat="41.30232" lon="-8.62597">
        <ele>177</ele>
        <time>2021-03-20 12:54:17</time>
      </trkpt>
      <trkpt lat="41.30238" lon="-8.62602">
        <ele>177</ele>
        <time>2021-03-20 12:54:18</time>
      </trkpt>
      <trkpt lat="41.30242" lon="-8.62605">
        <ele>177</ele>
        <time>2021-03-20 12:54:19</time>
      </trkpt>
      <trkpt lat="41.3025" lon="-8.62608">
        <ele>177</ele>
        <time>2021-03-20 12:54:20</time>
      </trkpt>
      <trkpt lat="41.30255" lon="-8.62612">
        <ele>176.8</ele>
        <time>2021-03-20 12:54:21</time>
      </trkpt>
      <trkpt lat="41.30257" lon="-8.62615">
        <ele>176.4</ele>
        <time>2021-03-20 12:54:22</time>
      </trkpt>
      <trkpt lat="41.30262" lon="-8.62618">
        <ele>176</ele>
        <time>2021-03-20 12:54:23</time>
      </trkpt>
      <trkpt lat="41.30267" lon="-8.6262">
        <ele>175.8</ele>
        <time>2021-03-20 12:54:24</time>
      </trkpt>
      <trkpt lat="41.30272" lon="-8.62625">
        <ele>175.6</ele>
        <time>2021-03-20 12:54:25</time>
      </trkpt>
      <trkpt lat="41.30277" lon="-8.62627">
        <ele>175.4</ele>
        <time>2021-03-20 12:54:26</time>
      </trkpt>
      <trkpt lat="41.30281" lon="-8.62631">
        <ele>175</ele>
        <time>2021-03-20 12:54:27</time>
      </trkpt>
      <trkpt lat="41.30286" lon="-8.62631">
        <ele>174.8</ele>
        <time>2021-03-20 12:54:28</time>
      </trkpt>
      <trkpt lat="41.30288" lon="-8.62632">
        <ele>174.2</ele>
        <time>2021-03-20 12:54:29</time>
      </trkpt>
      <trkpt lat="41.30291" lon="-8.62632">
        <ele>174</ele>
        <time>2021-03-20 12:54:30</time>
      </trkpt>
      <trkpt lat="41.30297" lon="-8.62636">
        <ele>173.6</ele>
        <time>2021-03-20 12:54:31</time>
      </trkpt>
      <trkpt lat="41.30301" lon="-8.6263">
        <ele>173.4</ele>
        <time>2021-03-20 12:54:32</time>
      </trkpt>
      <trkpt lat="41.30307" lon="-8.62632">
        <ele>173.2</ele>
        <time>2021-03-20 12:54:33</time>
      </trkpt>
      <trkpt lat="41.30312" lon="-8.6263">
        <ele>172.8</ele>
        <time>2021-03-20 12:54:34</time>
      </trkpt>
      <trkpt lat="41.30316" lon="-8.62632">
        <ele>172.6</ele>
        <time>2021-03-20 12:54:35</time>
      </trkpt>
      <trkpt lat="41.30321" lon="-8.62633">
        <ele>172.4</ele>
        <time>2021-03-20 12:54:36</time>
      </trkpt>
      <trkpt lat="41.30327" lon="-8.62631">
        <ele>172</ele>
        <time>2021-03-20 12:54:37</time>
      </trkpt>
      <trkpt lat="41.30336" lon="-8.62631">
        <ele>171.8</ele>
        <time>2021-03-20 12:54:38</time>
      </trkpt>
      <trkpt lat="41.30344" lon="-8.62629">
        <ele>171.6</ele>
        <time>2021-03-20 12:54:39</time>
      </trkpt>
      <trkpt lat="41.30351" lon="-8.62634">
        <ele>171</ele>
        <time>2021-03-20 12:54:40</time>
      </trkpt>
      <trkpt lat="41.30357" lon="-8.62633">
        <ele>170.8</ele>
        <time>2021-03-20 12:54:41</time>
      </trkpt>
      <trkpt lat="41.30361" lon="-8.62633">
        <ele>170.8</ele>
        <time>2021-03-20 12:54:42</time>
      </trkpt>
      <trkpt lat="41.30368" lon="-8.62633">
        <ele>170.8</ele>
        <time>2021-03-20 12:54:43</time>
      </trkpt>
      <trkpt lat="41.30377" lon="-8.62635">
        <ele>170.6</ele>
        <time>2021-03-20 12:54:44</time>
      </trkpt>
      <trkpt lat="41.30382" lon="-8.62635">
        <ele>170.6</ele>
        <time>2021-03-20 12:54:45</time>
      </trkpt>
      <trkpt lat="41.30386" lon="-8.6263">
        <ele>170.4</ele>
        <time>2021-03-20 12:54:46</time>
      </trkpt>
      <trkpt lat="41.30392" lon="-8.62633">
        <ele>170.4</ele>
        <time>2021-03-20 12:54:47</time>
      </trkpt>
      <trkpt lat="41.30397" lon="-8.62639">
        <ele>170.2</ele>
        <time>2021-03-20 12:54:48</time>
      </trkpt>
      <trkpt lat="41.30405" lon="-8.62639">
        <ele>170</ele>
        <time>2021-03-20 12:54:49</time>
      </trkpt>
      <trkpt lat="41.30409" lon="-8.62638">
        <ele>169.8</ele>
        <time>2021-03-20 12:54:50</time>
      </trkpt>
      <trkpt lat="41.30421" lon="-8.62647">
        <ele>169.8</ele>
        <time>2021-03-20 12:54:51</time>
      </trkpt>
      <trkpt lat="41.30429" lon="-8.62649">
        <ele>169.6</ele>
        <time>2021-03-20 12:54:52</time>
      </trkpt>
      <trkpt lat="41.30432" lon="-8.62653">
        <ele>169.6</ele>
        <time>2021-03-20 12:54:53</time>
      </trkpt>
      <trkpt lat="41.30445" lon="-8.62659">
        <ele>169.6</ele>
        <time>2021-03-20 12:54:54</time>
      </trkpt>
      <trkpt lat="41.30448" lon="-8.62662">
        <ele>169.6</ele>
        <time>2021-03-20 12:54:55</time>
      </trkpt>
      <trkpt lat="41.30453" lon="-8.62665">
        <ele>169.2</ele>
        <time>2021-03-20 12:54:56</time>
      </trkpt>
      <trkpt lat="41.30461" lon="-8.6267">
        <ele>169.2</ele>
        <time>2021-03-20 12:54:57</time>
      </trkpt>
      <trkpt lat="41.3047" lon="-8.62677">
        <ele>169.2</ele>
        <time>2021-03-20 12:54:58</time>
      </trkpt>
      <trkpt lat="41.30471" lon="-8.6268">
        <ele>169.2</ele>
        <time>2021-03-20 12:54:59</time>
      </trkpt>
      <trkpt lat="41.30482" lon="-8.62685">
        <ele>169.2</ele>
        <time>2021-03-20 12:55:00</time>
      </trkpt>
      <trkpt lat="41.30488" lon="-8.6269">
        <ele>169</ele>
        <time>2021-03-20 12:55:01</time>
      </trkpt>
      <trkpt lat="41.30494" lon="-8.62695">
        <ele>169</ele>
        <time>2021-03-20 12:55:02</time>
      </trkpt>
      <trkpt lat="41.30499" lon="-8.627">
        <ele>169.2</ele>
        <time>2021-03-20 12:55:03</time>
      </trkpt>
      <trkpt lat="41.3051" lon="-8.62707">
        <ele>169.4</ele>
        <time>2021-03-20 12:55:04</time>
      </trkpt>
      <trkpt lat="41.30515" lon="-8.62711">
        <ele>169.2</ele>
        <time>2021-03-20 12:55:05</time>
      </trkpt>
      <trkpt lat="41.30522" lon="-8.62717">
        <ele>169.4</ele>
        <time>2021-03-20 12:55:06</time>
      </trkpt>
      <trkpt lat="41.30531" lon="-8.62724">
        <ele>169.4</ele>
        <time>2021-03-20 12:55:07</time>
      </trkpt>
      <trkpt lat="41.30536" lon="-8.62726">
        <ele>169.4</ele>
        <time>2021-03-20 12:55:08</time>
      </trkpt>
      <trkpt lat="41.30543" lon="-8.62732">
        <ele>169.6</ele>
        <time>2021-03-20 12:55:09</time>
      </trkpt>
      <trkpt lat="41.30555" lon="-8.62737">
        <ele>170</ele>
        <time>2021-03-20 12:55:10</time>
      </trkpt>
      <trkpt lat="41.30559" lon="-8.62741">
        <ele>170.2</ele>
        <time>2021-03-20 12:55:11</time>
      </trkpt>
      <trkpt lat="41.30563" lon="-8.62742">
        <ele>170.2</ele>
        <time>2021-03-20 12:55:12</time>
      </trkpt>
      <trkpt lat="41.3057" lon="-8.62747">
        <ele>170</ele>
        <time>2021-03-20 12:55:13</time>
      </trkpt>
      <trkpt lat="41.30578" lon="-8.62748">
        <ele>170</ele>
        <time>2021-03-20 12:55:14</time>
      </trkpt>
      <trkpt lat="41.30584" lon="-8.62757">
        <ele>170.2</ele>
        <time>2021-03-20 12:55:15</time>
      </trkpt>
      <trkpt lat="41.30592" lon="-8.62759">
        <ele>170.4</ele>
        <time>2021-03-20 12:55:16</time>
      </trkpt>
      <trkpt lat="41.30602" lon="-8.62762">
        <ele>170.6</ele>
        <time>2021-03-20 12:55:17</time>
      </trkpt>
      <trkpt lat="41.3061" lon="-8.62764">
        <ele>170.8</ele>
        <time>2021-03-20 12:55:18</time>
      </trkpt>
      <trkpt lat="41.30617" lon="-8.62766">
        <ele>170.8</ele>
        <time>2021-03-20 12:55:19</time>
      </trkpt>
      <trkpt lat="41.30622" lon="-8.6277">
        <ele>170.8</ele>
        <time>2021-03-20 12:55:20</time>
      </trkpt>
      <trkpt lat="41.30629" lon="-8.62772">
        <ele>171</ele>
        <time>2021-03-20 12:55:21</time>
      </trkpt>
      <trkpt lat="41.30635" lon="-8.62772">
        <ele>171</ele>
        <time>2021-03-20 12:55:22</time>
      </trkpt>
      <trkpt lat="41.30644" lon="-8.62778">
        <ele>171</ele>
        <time>2021-03-20 12:55:23</time>
      </trkpt>
      <trkpt lat="41.30652" lon="-8.62781">
        <ele>171.2</ele>
        <time>2021-03-20 12:55:24</time>
      </trkpt>
      <trkpt lat="41.30657" lon="-8.62786">
        <ele>171.2</ele>
        <time>2021-03-20 12:55:25</time>
      </trkpt>
      <trkpt lat="41.30661" lon="-8.62786">
        <ele>171.4</ele>
        <time>2021-03-20 12:55:26</time>
      </trkpt>
      <trkpt lat="41.30666" lon="-8.62788">
        <ele>171.6</ele>
        <time>2021-03-20 12:55:27</time>
      </trkpt>
      <trkpt lat="41.30676" lon="-8.62796">
        <ele>171.8</ele>
        <time>2021-03-20 12:55:28</time>
      </trkpt>
      <trkpt lat="41.30681" lon="-8.62801">
        <ele>171.8</ele>
        <time>2021-03-20 12:55:29</time>
      </trkpt>
      <trkpt lat="41.30687" lon="-8.62808">
        <ele>172.2</ele>
        <time>2021-03-20 12:55:30</time>
      </trkpt>
      <trkpt lat="41.30691" lon="-8.62813">
        <ele>172.2</ele>
        <time>2021-03-20 12:55:31</time>
      </trkpt>
      <trkpt lat="41.30696" lon="-8.62831">
        <ele>172.2</ele>
        <time>2021-03-20 12:55:32</time>
      </trkpt>
      <trkpt lat="41.30701" lon="-8.62836">
        <ele>172.2</ele>
        <time>2021-03-20 12:55:33</time>
      </trkpt>
      <trkpt lat="41.30703" lon="-8.62844">
        <ele>172.4</ele>
        <time>2021-03-20 12:55:34</time>
      </trkpt>
      <trkpt lat="41.30712" lon="-8.62852">
        <ele>172.6</ele>
        <time>2021-03-20 12:55:35</time>
      </trkpt>
      <trkpt lat="41.30719" lon="-8.62861">
        <ele>172.8</ele>
        <time>2021-03-20 12:55:36</time>
      </trkpt>
      <trkpt lat="41.30722" lon="-8.62864">
        <ele>173</ele>
        <time>2021-03-20 12:55:37</time>
      </trkpt>
      <trkpt lat="41.30723" lon="-8.6287">
        <ele>173.2</ele>
        <time>2021-03-20 12:55:38</time>
      </trkpt>
      <trkpt lat="41.30729" lon="-8.6287">
        <ele>173.4</ele>
        <time>2021-03-20 12:55:39</time>
      </trkpt>
      <trkpt lat="41.30736" lon="-8.62871">
        <ele>173.8</ele>
        <time>2021-03-20 12:55:40</time>
      </trkpt>
      <trkpt lat="41.30743" lon="-8.62872">
        <ele>174</ele>
        <time>2021-03-20 12:55:41</time>
      </trkpt>
      <trkpt lat="41.30751" lon="-8.6287">
        <ele>174.2</ele>
        <time>2021-03-20 12:55:42</time>
      </trkpt>
      <trkpt lat="41.3076" lon="-8.62867">
        <ele>174.4</ele>
        <time>2021-03-20 12:55:43</time>
      </trkpt>
      <trkpt lat="41.30767" lon="-8.62864">
        <ele>174.6</ele>
        <time>2021-03-20 12:55:44</time>
      </trkpt>
      <trkpt lat="41.3077" lon="-8.62861">
        <ele>174.8</ele>
        <time>2021-03-20 12:55:45</time>
      </trkpt>
      <trkpt lat="41.30774" lon="-8.62859">
        <ele>174.8</ele>
        <time>2021-03-20 12:55:46</time>
      </trkpt>
      <trkpt lat="41.3078" lon="-8.62858">
        <ele>175</ele>
        <time>2021-03-20 12:55:47</time>
      </trkpt>
      <trkpt lat="41.30788" lon="-8.62857">
        <ele>175.2</ele>
        <time>2021-03-20 12:55:48</time>
      </trkpt>
      <trkpt lat="41.30796" lon="-8.6286">
        <ele>175.2</ele>
        <time>2021-03-20 12:55:49</time>
      </trkpt>
      <trkpt lat="41.30806" lon="-8.62858">
        <ele>175.4</ele>
        <time>2021-03-20 12:55:50</time>
      </trkpt>
      <trkpt lat="41.30812" lon="-8.62856">
        <ele>175.6</ele>
        <time>2021-03-20 12:55:51</time>
      </trkpt>
      <trkpt lat="41.30816" lon="-8.62854">
        <ele>175.6</ele>
        <time>2021-03-20 12:55:52</time>
      </trkpt>
      <trkpt lat="41.30822" lon="-8.62851">
        <ele>175.6</ele>
        <time>2021-03-20 12:55:53</time>
      </trkpt>
      <trkpt lat="41.30828" lon="-8.62849">
        <ele>175.6</ele>
        <time>2021-03-20 12:55:54</time>
      </trkpt>
      <trkpt lat="41.30832" lon="-8.62847">
        <ele>175.4</ele>
        <time>2021-03-20 12:55:55</time>
      </trkpt>
      <trkpt lat="41.30838" lon="-8.62846">
        <ele>175</ele>
        <time>2021-03-20 12:55:56</time>
      </trkpt>
      <trkpt lat="41.30841" lon="-8.62845">
        <ele>175</ele>
        <time>2021-03-20 12:55:57</time>
      </trkpt>
      <trkpt lat="41.30843" lon="-8.62844">
        <ele>174.6</ele>
        <time>2021-03-20 12:55:58</time>
      </trkpt>
      <trkpt lat="41.30846" lon="-8.62841">
        <ele>174.2</ele>
        <time>2021-03-20 12:55:59</time>
      </trkpt>
      <trkpt lat="41.30849" lon="-8.62839">
        <ele>174</ele>
        <time>2021-03-20 12:56:00</time>
      </trkpt>
      <trkpt lat="41.30853" lon="-8.62838">
        <ele>173.6</ele>
        <time>2021-03-20 12:56:01</time>
      </trkpt>
      <trkpt lat="41.30856" lon="-8.62836">
        <ele>173.2</ele>
        <time>2021-03-20 12:56:02</time>
      </trkpt>
      <trkpt lat="41.30863" lon="-8.62833">
        <ele>172.8</ele>
        <time>2021-03-20 12:56:03</time>
      </trkpt>
      <trkpt lat="41.30869" lon="-8.6283">
        <ele>171.8</ele>
        <time>2021-03-20 12:56:04</time>
      </trkpt>
      <trkpt lat="41.30876" lon="-8.62828">
        <ele>171</ele>
        <time>2021-03-20 12:56:05</time>
      </trkpt>
      <trkpt lat="41.30879" lon="-8.62827">
        <ele>170.2</ele>
        <time>2021-03-20 12:56:06</time>
      </trkpt>
      <trkpt lat="41.30881" lon="-8.62824">
        <ele>169.2</ele>
        <time>2021-03-20 12:56:07</time>
      </trkpt>
      <trkpt lat="41.30885" lon="-8.62824">
        <ele>168.4</ele>
        <time>2021-03-20 12:56:08</time>
      </trkpt>
      <trkpt lat="41.3089" lon="-8.62821">
        <ele>167.6</ele>
        <time>2021-03-20 12:56:09</time>
      </trkpt>
      <trkpt lat="41.30893" lon="-8.62817">
        <ele>166.4</ele>
        <time>2021-03-20 12:56:10</time>
      </trkpt>
      <trkpt lat="41.30899" lon="-8.62815">
        <ele>165</ele>
        <time>2021-03-20 12:56:11</time>
      </trkpt>
      <trkpt lat="41.30901" lon="-8.62814">
        <ele>163.4</ele>
        <time>2021-03-20 12:56:12</time>
      </trkpt>
      <trkpt lat="41.30905" lon="-8.62811">
        <ele>161.8</ele>
        <time>2021-03-20 12:56:13</time>
      </trkpt>
      <trkpt lat="41.30908" lon="-8.62809">
        <ele>160.6</ele>
        <time>2021-03-20 12:56:14</time>
      </trkpt>
      <trkpt lat="41.30912" lon="-8.62806">
        <ele>158.6</ele>
        <time>2021-03-20 12:56:15</time>
      </trkpt>
      <trkpt lat="41.30916" lon="-8.62805">
        <ele>157</ele>
        <time>2021-03-20 12:56:16</time>
      </trkpt>
      <trkpt lat="41.30919" lon="-8.62803">
        <ele>155.6</ele>
        <time>2021-03-20 12:56:17</time>
      </trkpt>
      <trkpt lat="41.30922" lon="-8.628">
        <ele>155.6</ele>
        <time>2021-03-20 12:56:18</time>
      </trkpt>
      <trkpt lat="41.30924" lon="-8.62797">
        <ele>155.6</ele>
        <time>2021-03-20 12:56:19</time>
      </trkpt>
      <trkpt lat="41.30926" lon="-8.62795">
        <ele>155.6</ele>
        <time>2021-03-20 12:56:20</time>
      </trkpt>
      <trkpt lat="41.30927" lon="-8.62792">
        <ele>155.6</ele>
        <time>2021-03-20 12:56:21</time>
      </trkpt>
      <trkpt lat="41.30929" lon="-8.62789">
        <ele>155.6</ele>
        <time>2021-03-20 12:56:22</time>
      </trkpt>
      <trkpt lat="41.30932" lon="-8.62786">
        <ele>142.8</ele>
        <time>2021-03-20 12:56:23</time>
      </trkpt>
      <trkpt lat="41.30933" lon="-8.62785">
        <ele>141.2</ele>
        <time>2021-03-20 12:56:24</time>
      </trkpt>
      <trkpt lat="41.30935" lon="-8.6278">
        <ele>141.2</ele>
        <time>2021-03-20 12:56:25</time>
      </trkpt>
      <trkpt lat="41.30937" lon="-8.62775">
        <ele>141.2</ele>
        <time>2021-03-20 12:56:26</time>
      </trkpt>
      <trkpt lat="41.3094" lon="-8.62771">
        <ele>141.2</ele>
        <time>2021-03-20 12:56:27</time>
      </trkpt>
      <trkpt lat="41.30943" lon="-8.62768">
        <ele>141.2</ele>
        <time>2021-03-20 12:56:28</time>
      </trkpt>
      <trkpt lat="41.30947" lon="-8.62763">
        <ele>141.2</ele>
        <time>2021-03-20 12:56:29</time>
      </trkpt>
      <trkpt lat="41.3095" lon="-8.62757">
        <ele>132.4</ele>
        <time>2021-03-20 12:56:30</time>
      </trkpt>
      <trkpt lat="41.30954" lon="-8.62749">
        <ele>131.4</ele>
        <time>2021-03-20 12:56:31</time>
      </trkpt>
      <trkpt lat="41.30957" lon="-8.62743">
        <ele>130.2</ele>
        <time>2021-03-20 12:56:32</time>
      </trkpt>
      <trkpt lat="41.3096" lon="-8.62735">
        <ele>129.4</ele>
        <time>2021-03-20 12:56:33</time>
      </trkpt>
      <trkpt lat="41.30965" lon="-8.62726">
        <ele>129</ele>
        <time>2021-03-20 12:56:34</time>
      </trkpt>
      <trkpt lat="41.30972" lon="-8.62717">
        <ele>128.6</ele>
        <time>2021-03-20 12:56:35</time>
      </trkpt>
      <trkpt lat="41.30975" lon="-8.62711">
        <ele>128.2</ele>
        <time>2021-03-20 12:56:36</time>
      </trkpt>
      <trkpt lat="41.3098" lon="-8.62703">
        <ele>128.2</ele>
        <time>2021-03-20 12:56:37</time>
      </trkpt>
      <trkpt lat="41.30994" lon="-8.62693">
        <ele>128.4</ele>
        <time>2021-03-20 12:56:38</time>
      </trkpt>
      <trkpt lat="41.31013" lon="-8.62685">
        <ele>128.8</ele>
        <time>2021-03-20 12:56:39</time>
      </trkpt>
      <trkpt lat="41.31039" lon="-8.62676">
        <ele>129.4</ele>
        <time>2021-03-20 12:56:40</time>
      </trkpt>
      <trkpt lat="41.31071" lon="-8.62671">
        <ele>129.8</ele>
        <time>2021-03-20 12:56:41</time>
      </trkpt>
      <trkpt lat="41.31081" lon="-8.6267">
        <ele>130</ele>
        <time>2021-03-20 12:56:42</time>
      </trkpt>
      <trkpt lat="41.31096" lon="-8.62669">
        <ele>130.6</ele>
        <time>2021-03-20 12:56:43</time>
      </trkpt>
      <trkpt lat="41.31116" lon="-8.62662">
        <ele>131</ele>
        <time>2021-03-20 12:56:44</time>
      </trkpt>
      <trkpt lat="41.31129" lon="-8.62658">
        <ele>131.2</ele>
        <time>2021-03-20 12:56:45</time>
      </trkpt>
      <trkpt lat="41.31142" lon="-8.6265">
        <ele>131.6</ele>
        <time>2021-03-20 12:56:46</time>
      </trkpt>
      <trkpt lat="41.31154" lon="-8.62637">
        <ele>131.8</ele>
        <time>2021-03-20 12:56:47</time>
      </trkpt>
      <trkpt lat="41.31163" lon="-8.62628">
        <ele>132.2</ele>
        <time>2021-03-20 12:56:48</time>
      </trkpt>
      <trkpt lat="41.31174" lon="-8.62612">
        <ele>132.6</ele>
        <time>2021-03-20 12:56:49</time>
      </trkpt>
      <trkpt lat="41.31186" lon="-8.626">
        <ele>132.8</ele>
        <time>2021-03-20 12:56:50</time>
      </trkpt>
      <trkpt lat="41.31196" lon="-8.62586">
        <ele>133.2</ele>
        <time>2021-03-20 12:56:51</time>
      </trkpt>
      <trkpt lat="41.31205" lon="-8.62583">
        <ele>133.2</ele>
        <time>2021-03-20 12:56:52</time>
      </trkpt>
      <trkpt lat="41.31223" lon="-8.62576">
        <ele>133.6</ele>
        <time>2021-03-20 12:56:53</time>
      </trkpt>
      <trkpt lat="41.31228" lon="-8.62573">
        <ele>134</ele>
        <time>2021-03-20 12:56:54</time>
      </trkpt>
      <trkpt lat="41.31237" lon="-8.62569">
        <ele>134.4</ele>
        <time>2021-03-20 12:56:55</time>
      </trkpt>
      <trkpt lat="41.31249" lon="-8.62562">
        <ele>134.8</ele>
        <time>2021-03-20 12:56:56</time>
      </trkpt>
      <trkpt lat="41.31256" lon="-8.62558">
        <ele>135</ele>
        <time>2021-03-20 12:56:57</time>
      </trkpt>
      <trkpt lat="41.31264" lon="-8.62556">
        <ele>135.4</ele>
        <time>2021-03-20 12:56:58</time>
      </trkpt>
      <trkpt lat="41.31271" lon="-8.62555">
        <ele>135.6</ele>
        <time>2021-03-20 12:56:59</time>
      </trkpt>
      <trkpt lat="41.31275" lon="-8.62557">
        <ele>135.8</ele>
        <time>2021-03-20 12:57:00</time>
      </trkpt>
      <trkpt lat="41.31279" lon="-8.62562">
        <ele>136</ele>
        <time>2021-03-20 12:57:01</time>
      </trkpt>
      <trkpt lat="41.3128" lon="-8.62567">
        <ele>136</ele>
        <time>2021-03-20 12:57:02</time>
      </trkpt>
      <trkpt lat="41.31282" lon="-8.62573">
        <ele>136</ele>
        <time>2021-03-20 12:57:03</time>
      </trkpt>
      <trkpt lat="41.31284" lon="-8.62576">
        <ele>136.2</ele>
        <time>2021-03-20 12:57:04</time>
      </trkpt>
      <trkpt lat="41.31288" lon="-8.62581">
        <ele>136.4</ele>
        <time>2021-03-20 12:57:05</time>
      </trkpt>
      <trkpt lat="41.31289" lon="-8.62585">
        <ele>136.4</ele>
        <time>2021-03-20 12:57:06</time>
      </trkpt>
      <trkpt lat="41.3129" lon="-8.62589">
        <ele>136.6</ele>
        <time>2021-03-20 12:57:07</time>
      </trkpt>
      <trkpt lat="41.31289" lon="-8.62593">
        <ele>136.8</ele>
        <time>2021-03-20 12:57:08</time>
      </trkpt>
      <trkpt lat="41.31289" lon="-8.62598">
        <ele>137</ele>
        <time>2021-03-20 12:57:09</time>
      </trkpt>
      <trkpt lat="41.3129" lon="-8.62599">
        <ele>137.4</ele>
        <time>2021-03-20 12:57:10</time>
      </trkpt>
      <trkpt lat="41.31289" lon="-8.62604">
        <ele>137.6</ele>
        <time>2021-03-20 12:57:11</time>
      </trkpt>
      <trkpt lat="41.31299" lon="-8.62613">
        <ele>137.8</ele>
        <time>2021-03-20 12:57:12</time>
      </trkpt>
      <trkpt lat="41.313" lon="-8.6262">
        <ele>138.2</ele>
        <time>2021-03-20 12:57:13</time>
      </trkpt>
      <trkpt lat="41.31296" lon="-8.62628">
        <ele>138.6</ele>
        <time>2021-03-20 12:57:14</time>
      </trkpt>
      <trkpt lat="41.31296" lon="-8.62642">
        <ele>139</ele>
        <time>2021-03-20 12:57:15</time>
      </trkpt>
      <trkpt lat="41.31294" lon="-8.62648">
        <ele>139.2</ele>
        <time>2021-03-20 12:57:16</time>
      </trkpt>
      <trkpt lat="41.31296" lon="-8.62656">
        <ele>139.6</ele>
        <time>2021-03-20 12:57:17</time>
      </trkpt>
      <trkpt lat="41.31297" lon="-8.62661">
        <ele>140</ele>
        <time>2021-03-20 12:57:18</time>
      </trkpt>
      <trkpt lat="41.31295" lon="-8.62665">
        <ele>140.2</ele>
        <time>2021-03-20 12:57:19</time>
      </trkpt>
      <trkpt lat="41.31299" lon="-8.62673">
        <ele>140.8</ele>
        <time>2021-03-20 12:57:20</time>
      </trkpt>
      <trkpt lat="41.31302" lon="-8.62677">
        <ele>141.2</ele>
        <time>2021-03-20 12:57:21</time>
      </trkpt>
      <trkpt lat="41.31303" lon="-8.6268">
        <ele>141.6</ele>
        <time>2021-03-20 12:57:22</time>
      </trkpt>
      <trkpt lat="41.31303" lon="-8.62682">
        <ele>141.8</ele>
        <time>2021-03-20 12:57:23</time>
      </trkpt>
      <trkpt lat="41.31304" lon="-8.62689">
        <ele>142</ele>
        <time>2021-03-20 12:57:24</time>
      </trkpt>
      <trkpt lat="41.31301" lon="-8.62693">
        <ele>142.4</ele>
        <time>2021-03-20 12:57:25</time>
      </trkpt>
      <trkpt lat="41.313" lon="-8.62694">
        <ele>142.6</ele>
        <time>2021-03-20 12:57:26</time>
      </trkpt>
      <trkpt lat="41.31299" lon="-8.62701">
        <ele>143</ele>
        <time>2021-03-20 12:57:27</time>
      </trkpt>
      <trkpt lat="41.313" lon="-8.62713">
        <ele>143.2</ele>
        <time>2021-03-20 12:57:28</time>
      </trkpt>
      <trkpt lat="41.31296" lon="-8.62721">
        <ele>143.4</ele>
        <time>2021-03-20 12:57:29</time>
      </trkpt>
      <trkpt lat="41.31296" lon="-8.62726">
        <ele>143.6</ele>
        <time>2021-03-20 12:57:30</time>
      </trkpt>
      <trkpt lat="41.31296" lon="-8.62736">
        <ele>143.6</ele>
        <time>2021-03-20 12:57:31</time>
      </trkpt>
      <trkpt lat="41.31294" lon="-8.62741">
        <ele>143.6</ele>
        <time>2021-03-20 12:57:32</time>
      </trkpt>
      <trkpt lat="41.31297" lon="-8.62746">
        <ele>143.8</ele>
        <time>2021-03-20 12:57:33</time>
      </trkpt>
      <trkpt lat="41.31299" lon="-8.6275">
        <ele>144</ele>
        <time>2021-03-20 12:57:34</time>
      </trkpt>
      <trkpt lat="41.31297" lon="-8.62756">
        <ele>144</ele>
        <time>2021-03-20 12:57:35</time>
      </trkpt>
      <trkpt lat="41.31301" lon="-8.62763">
        <ele>144.2</ele>
        <time>2021-03-20 12:57:36</time>
      </trkpt>
      <trkpt lat="41.31301" lon="-8.62767">
        <ele>144.4</ele>
        <time>2021-03-20 12:57:37</time>
      </trkpt>
      <trkpt lat="41.31305" lon="-8.62769">
        <ele>144.4</ele>
        <time>2021-03-20 12:57:38</time>
      </trkpt>
      <trkpt lat="41.31307" lon="-8.62774">
        <ele>144.4</ele>
        <time>2021-03-20 12:57:39</time>
      </trkpt>
      <trkpt lat="41.31305" lon="-8.6278">
        <ele>144.8</ele>
        <time>2021-03-20 12:57:40</time>
      </trkpt>
      <trkpt lat="41.31307" lon="-8.62788">
        <ele>145</ele>
        <time>2021-03-20 12:57:41</time>
      </trkpt>
      <trkpt lat="41.31311" lon="-8.62791">
        <ele>145.2</ele>
        <time>2021-03-20 12:57:42</time>
      </trkpt>
      <trkpt lat="41.31308" lon="-8.62802">
        <ele>145.4</ele>
        <time>2021-03-20 12:57:43</time>
      </trkpt>
      <trkpt lat="41.31309" lon="-8.62809">
        <ele>145.8</ele>
        <time>2021-03-20 12:57:44</time>
      </trkpt>
      <trkpt lat="41.31309" lon="-8.62817">
        <ele>146.2</ele>
        <time>2021-03-20 12:57:45</time>
      </trkpt>
      <trkpt lat="41.31309" lon="-8.62829">
        <ele>146.4</ele>
        <time>2021-03-20 12:57:46</time>
      </trkpt>
      <trkpt lat="41.31311" lon="-8.62834">
        <ele>146.6</ele>
        <time>2021-03-20 12:57:47</time>
      </trkpt>
      <trkpt lat="41.3131" lon="-8.62842">
        <ele>146.8</ele>
        <time>2021-03-20 12:57:48</time>
      </trkpt>
      <trkpt lat="41.31314" lon="-8.62846">
        <ele>146.8</ele>
        <time>2021-03-20 12:57:49</time>
      </trkpt>
      <trkpt lat="41.31319" lon="-8.62856">
        <ele>147.2</ele>
        <time>2021-03-20 12:57:50</time>
      </trkpt>
      <trkpt lat="41.3132" lon="-8.62871">
        <ele>147.6</ele>
        <time>2021-03-20 12:57:51</time>
      </trkpt>
      <trkpt lat="41.31322" lon="-8.62871">
        <ele>147.8</ele>
        <time>2021-03-20 12:57:52</time>
      </trkpt>
      <trkpt lat="41.31324" lon="-8.62872">
        <ele>148</ele>
        <time>2021-03-20 12:57:53</time>
      </trkpt>
      <trkpt lat="41.31325" lon="-8.62876">
        <ele>148.4</ele>
        <time>2021-03-20 12:57:54</time>
      </trkpt>
      <trkpt lat="41.31323" lon="-8.62884">
        <ele>148.6</ele>
        <time>2021-03-20 12:57:55</time>
      </trkpt>
      <trkpt lat="41.31323" lon="-8.6288">
        <ele>148.8</ele>
        <time>2021-03-20 12:57:56</time>
      </trkpt>
      <trkpt lat="41.31321" lon="-8.62888">
        <ele>149</ele>
        <time>2021-03-20 12:57:57</time>
      </trkpt>
      <trkpt lat="41.31321" lon="-8.62891">
        <ele>149.2</ele>
        <time>2021-03-20 12:57:58</time>
      </trkpt>
      <trkpt lat="41.31321" lon="-8.62897">
        <ele>149.4</ele>
        <time>2021-03-20 12:57:59</time>
      </trkpt>
      <trkpt lat="41.31324" lon="-8.62893">
        <ele>149.8</ele>
        <time>2021-03-20 12:58:00</time>
      </trkpt>
      <trkpt lat="41.31325" lon="-8.62894">
        <ele>150</ele>
        <time>2021-03-20 12:58:01</time>
      </trkpt>
      <trkpt lat="41.31326" lon="-8.62898">
        <ele>150.2</ele>
        <time>2021-03-20 12:58:02</time>
      </trkpt>
      <trkpt lat="41.31328" lon="-8.62902">
        <ele>150.4</ele>
        <time>2021-03-20 12:58:03</time>
      </trkpt>
      <trkpt lat="41.31328" lon="-8.62905">
        <ele>150.8</ele>
        <time>2021-03-20 12:58:04</time>
      </trkpt>
      <trkpt lat="41.31328" lon="-8.62904">
        <ele>151</ele>
        <time>2021-03-20 12:58:05</time>
      </trkpt>
      <trkpt lat="41.31327" lon="-8.62912">
        <ele>151.2</ele>
        <time>2021-03-20 12:58:06</time>
      </trkpt>
      <trkpt lat="41.31324" lon="-8.62927">
        <ele>151.4</ele>
        <time>2021-03-20 12:58:07</time>
      </trkpt>
      <trkpt lat="41.31325" lon="-8.6293">
        <ele>151.8</ele>
        <time>2021-03-20 12:58:08</time>
      </trkpt>
      <trkpt lat="41.31326" lon="-8.62935">
        <ele>152</ele>
        <time>2021-03-20 12:58:09</time>
      </trkpt>
      <trkpt lat="41.31328" lon="-8.62934">
        <ele>152.2</ele>
        <time>2021-03-20 12:58:10</time>
      </trkpt>
      <trkpt lat="41.31329" lon="-8.62932">
        <ele>152.4</ele>
        <time>2021-03-20 12:58:11</time>
      </trkpt>
      <trkpt lat="41.31329" lon="-8.6294">
        <ele>152.8</ele>
        <time>2021-03-20 12:58:12</time>
      </trkpt>
      <trkpt lat="41.31329" lon="-8.62939">
        <ele>153.2</ele>
        <time>2021-03-20 12:58:13</time>
      </trkpt>
      <trkpt lat="41.31329" lon="-8.62946">
        <ele>153.4</ele>
        <time>2021-03-20 12:58:14</time>
      </trkpt>
      <trkpt lat="41.31332" lon="-8.6294">
        <ele>153.6</ele>
        <time>2021-03-20 12:58:15</time>
      </trkpt>
      <trkpt lat="41.31334" lon="-8.62939">
        <ele>154</ele>
        <time>2021-03-20 12:58:16</time>
      </trkpt>
      <trkpt lat="41.31334" lon="-8.6294">
        <ele>154.2</ele>
        <time>2021-03-20 12:58:17</time>
      </trkpt>
      <trkpt lat="41.31334" lon="-8.62943">
        <ele>154.6</ele>
        <time>2021-03-20 12:58:18</time>
      </trkpt>
      <trkpt lat="41.31334" lon="-8.62953">
        <ele>154.8</ele>
        <time>2021-03-20 12:58:19</time>
      </trkpt>
      <trkpt lat="41.31337" lon="-8.62955">
        <ele>155.2</ele>
        <time>2021-03-20 12:58:20</time>
      </trkpt>
      <trkpt lat="41.31338" lon="-8.62956">
        <ele>155.4</ele>
        <time>2021-03-20 12:58:21</time>
      </trkpt>
      <trkpt lat="41.31338" lon="-8.6296">
        <ele>155.6</ele>
        <time>2021-03-20 12:58:22</time>
      </trkpt>
      <trkpt lat="41.3134" lon="-8.62963">
        <ele>156</ele>
        <time>2021-03-20 12:58:23</time>
      </trkpt>
      <trkpt lat="41.31345" lon="-8.62965">
        <ele>156.2</ele>
        <time>2021-03-20 12:58:24</time>
      </trkpt>
      <trkpt lat="41.31343" lon="-8.62967">
        <ele>156.4</ele>
        <time>2021-03-20 12:58:25</time>
      </trkpt>
      <trkpt lat="41.31345" lon="-8.62968">
        <ele>156.4</ele>
        <time>2021-03-20 12:58:26</time>
      </trkpt>
      <trkpt lat="41.31348" lon="-8.62971">
        <ele>156.6</ele>
        <time>2021-03-20 12:58:27</time>
      </trkpt>
      <trkpt lat="41.31347" lon="-8.62974">
        <ele>156.8</ele>
        <time>2021-03-20 12:58:28</time>
      </trkpt>
      <trkpt lat="41.31347" lon="-8.62978">
        <ele>157</ele>
        <time>2021-03-20 12:58:29</time>
      </trkpt>
      <trkpt lat="41.31342" lon="-8.62981">
        <ele>157.2</ele>
        <time>2021-03-20 12:58:30</time>
      </trkpt>
      <trkpt lat="41.31348" lon="-8.62985">
        <ele>157.2</ele>
        <time>2021-03-20 12:58:31</time>
      </trkpt>
      <trkpt lat="41.31347" lon="-8.62987">
        <ele>157.4</ele>
        <time>2021-03-20 12:58:32</time>
      </trkpt>
      <trkpt lat="41.31349" lon="-8.62989">
        <ele>157.6</ele>
        <time>2021-03-20 12:58:33</time>
      </trkpt>
      <trkpt lat="41.31351" lon="-8.62992">
        <ele>157.6</ele>
        <time>2021-03-20 12:58:34</time>
      </trkpt>
      <trkpt lat="41.3135" lon="-8.62996">
        <ele>157.8</ele>
        <time>2021-03-20 12:58:35</time>
      </trkpt>
      <trkpt lat="41.31353" lon="-8.62998">
        <ele>157.8</ele>
        <time>2021-03-20 12:58:36</time>
      </trkpt>
      <trkpt lat="41.31356" lon="-8.63">
        <ele>158</ele>
        <time>2021-03-20 12:58:37</time>
      </trkpt>
      <trkpt lat="41.31357" lon="-8.63003">
        <ele>158</ele>
        <time>2021-03-20 12:58:38</time>
      </trkpt>
      <trkpt lat="41.31357" lon="-8.63006">
        <ele>158.2</ele>
        <time>2021-03-20 12:58:39</time>
      </trkpt>
      <trkpt lat="41.31358" lon="-8.6301">
        <ele>158.2</ele>
        <time>2021-03-20 12:58:40</time>
      </trkpt>
      <trkpt lat="41.3136" lon="-8.63013">
        <ele>158.2</ele>
        <time>2021-03-20 12:58:41</time>
      </trkpt>
      <trkpt lat="41.3136" lon="-8.63015">
        <ele>158.2</ele>
        <time>2021-03-20 12:58:42</time>
      </trkpt>
      <trkpt lat="41.31361" lon="-8.63017">
        <ele>158.2</ele>
        <time>2021-03-20 12:58:43</time>
      </trkpt>
      <trkpt lat="41.31361" lon="-8.6302">
        <ele>158.2</ele>
        <time>2021-03-20 12:58:44</time>
      </trkpt>
      <trkpt lat="41.31362" lon="-8.63023">
        <ele>158.2</ele>
        <time>2021-03-20 12:58:45</time>
      </trkpt>
      <trkpt lat="41.31362" lon="-8.63026">
        <ele>158.2</ele>
        <time>2021-03-20 12:58:46</time>
      </trkpt>
      <trkpt lat="41.31362" lon="-8.63027">
        <ele>158</ele>
        <time>2021-03-20 12:58:47</time>
      </trkpt>
      <trkpt lat="41.31363" lon="-8.6303">
        <ele>158</ele>
        <time>2021-03-20 12:58:48</time>
      </trkpt>
      <trkpt lat="41.31364" lon="-8.63034">
        <ele>157.6</ele>
        <time>2021-03-20 12:58:49</time>
      </trkpt>
      <trkpt lat="41.31365" lon="-8.63037">
        <ele>157.4</ele>
        <time>2021-03-20 12:58:50</time>
      </trkpt>
      <trkpt lat="41.31366" lon="-8.6304">
        <ele>154.6</ele>
        <time>2021-03-20 12:58:51</time>
      </trkpt>
      <trkpt lat="41.31367" lon="-8.63042">
        <ele>154.4</ele>
        <time>2021-03-20 12:58:52</time>
      </trkpt>
      <trkpt lat="41.31368" lon="-8.63044">
        <ele>154.2</ele>
        <time>2021-03-20 12:58:53</time>
      </trkpt>
      <trkpt lat="41.31369" lon="-8.63045">
        <ele>154</ele>
        <time>2021-03-20 12:58:54</time>
      </trkpt>
      <trkpt lat="41.3137" lon="-8.63046">
        <ele>153.8</ele>
        <time>2021-03-20 12:58:55</time>
      </trkpt>
      <trkpt lat="41.31371" lon="-8.63047">
        <ele>153.8</ele>
        <time>2021-03-20 12:58:56</time>
      </trkpt>
      <trkpt lat="41.31372" lon="-8.6305">
        <ele>153.6</ele>
        <time>2021-03-20 12:58:57</time>
      </trkpt>
      <trkpt lat="41.31372" lon="-8.63053">
        <ele>154</ele>
        <time>2021-03-20 12:58:58</time>
      </trkpt>
      <trkpt lat="41.31373" lon="-8.63056">
        <ele>154</ele>
        <time>2021-03-20 12:58:59</time>
      </trkpt>
      <trkpt lat="41.31374" lon="-8.63061">
        <ele>154</ele>
        <time>2021-03-20 12:59:00</time>
      </trkpt>
      <trkpt lat="41.31375" lon="-8.63064">
        <ele>154.2</ele>
        <time>2021-03-20 12:59:01</time>
      </trkpt>
      <trkpt lat="41.31375" lon="-8.63067">
        <ele>154.2</ele>
        <time>2021-03-20 12:59:02</time>
      </trkpt>
      <trkpt lat="41.31376" lon="-8.63072">
        <ele>154.4</ele>
        <time>2021-03-20 12:59:03</time>
      </trkpt>
      <trkpt lat="41.31376" lon="-8.63077">
        <ele>154.6</ele>
        <time>2021-03-20 12:59:04</time>
      </trkpt>
      <trkpt lat="41.31378" lon="-8.6308">
        <ele>154.4</ele>
        <time>2021-03-20 12:59:05</time>
      </trkpt>
      <trkpt lat="41.31379" lon="-8.63083">
        <ele>154.6</ele>
        <time>2021-03-20 12:59:06</time>
      </trkpt>
      <trkpt lat="41.31379" lon="-8.63088">
        <ele>154.6</ele>
        <time>2021-03-20 12:59:07</time>
      </trkpt>
      <trkpt lat="41.31381" lon="-8.63088">
        <ele>154.4</ele>
        <time>2021-03-20 12:59:08</time>
      </trkpt>
      <trkpt lat="41.31382" lon="-8.63091">
        <ele>154.4</ele>
        <time>2021-03-20 12:59:09</time>
      </trkpt>
      <trkpt lat="41.31384" lon="-8.63095">
        <ele>154.4</ele>
        <time>2021-03-20 12:59:10</time>
      </trkpt>
      <trkpt lat="41.31385" lon="-8.63098">
        <ele>154.6</ele>
        <time>2021-03-20 12:59:11</time>
      </trkpt>
      <trkpt lat="41.31386" lon="-8.63103">
        <ele>154.8</ele>
        <time>2021-03-20 12:59:12</time>
      </trkpt>
      <trkpt lat="41.31389" lon="-8.63108">
        <ele>155</ele>
        <time>2021-03-20 12:59:13</time>
      </trkpt>
      <trkpt lat="41.31387" lon="-8.63122">
        <ele>155</ele>
        <time>2021-03-20 12:59:14</time>
      </trkpt>
      <trkpt lat="41.31373" lon="-8.63218">
        <ele>155</ele>
        <time>2021-03-20 12:59:15</time>
      </trkpt>
      <trkpt lat="41.31369" lon="-8.6323">
        <ele>155</ele>
        <time>2021-03-20 12:59:16</time>
      </trkpt>
      <trkpt lat="41.31373" lon="-8.63245">
        <ele>155.2</ele>
        <time>2021-03-20 12:59:17</time>
      </trkpt>
      <trkpt lat="41.31375" lon="-8.63254">
        <ele>155.4</ele>
        <time>2021-03-20 12:59:18</time>
      </trkpt>
      <trkpt lat="41.31374" lon="-8.63269">
        <ele>155.2</ele>
        <time>2021-03-20 12:59:19</time>
      </trkpt>
      <trkpt lat="41.31374" lon="-8.6328">
        <ele>155.2</ele>
        <time>2021-03-20 12:59:20</time>
      </trkpt>
      <trkpt lat="41.31374" lon="-8.63292">
        <ele>155</ele>
        <time>2021-03-20 12:59:21</time>
      </trkpt>
      <trkpt lat="41.31375" lon="-8.63302">
        <ele>154.8</ele>
        <time>2021-03-20 12:59:22</time>
      </trkpt>
      <trkpt lat="41.31379" lon="-8.6331">
        <ele>154.6</ele>
        <time>2021-03-20 12:59:23</time>
      </trkpt>
      <trkpt lat="41.31382" lon="-8.63319">
        <ele>154.6</ele>
        <time>2021-03-20 12:59:24</time>
      </trkpt>
      <trkpt lat="41.31388" lon="-8.63326">
        <ele>154.4</ele>
        <time>2021-03-20 12:59:25</time>
      </trkpt>
      <trkpt lat="41.31391" lon="-8.63333">
        <ele>154.2</ele>
        <time>2021-03-20 12:59:26</time>
      </trkpt>
      <trkpt lat="41.31394" lon="-8.63338">
        <ele>153.8</ele>
        <time>2021-03-20 12:59:27</time>
      </trkpt>
      <trkpt lat="41.31398" lon="-8.63342">
        <ele>153.6</ele>
        <time>2021-03-20 12:59:28</time>
      </trkpt>
      <trkpt lat="41.314" lon="-8.63349">
        <ele>153.2</ele>
        <time>2021-03-20 12:59:29</time>
      </trkpt>
      <trkpt lat="41.31405" lon="-8.63353">
        <ele>153</ele>
        <time>2021-03-20 12:59:30</time>
      </trkpt>
      <trkpt lat="41.31406" lon="-8.63359">
        <ele>152.8</ele>
        <time>2021-03-20 12:59:31</time>
      </trkpt>
      <trkpt lat="41.31412" lon="-8.63365">
        <ele>152.6</ele>
        <time>2021-03-20 12:59:32</time>
      </trkpt>
      <trkpt lat="41.31419" lon="-8.63371">
        <ele>152.2</ele>
        <time>2021-03-20 12:59:33</time>
      </trkpt>
      <trkpt lat="41.31421" lon="-8.63376">
        <ele>151.8</ele>
        <time>2021-03-20 12:59:34</time>
      </trkpt>
      <trkpt lat="41.31425" lon="-8.63382">
        <ele>151.6</ele>
        <time>2021-03-20 12:59:35</time>
      </trkpt>
      <trkpt lat="41.3143" lon="-8.63388">
        <ele>151.4</ele>
        <time>2021-03-20 12:59:36</time>
      </trkpt>
      <trkpt lat="41.31439" lon="-8.63402">
        <ele>151</ele>
        <time>2021-03-20 12:59:37</time>
      </trkpt>
      <trkpt lat="41.31443" lon="-8.63406">
        <ele>150.6</ele>
        <time>2021-03-20 12:59:38</time>
      </trkpt>
      <trkpt lat="41.31448" lon="-8.63408">
        <ele>150.4</ele>
        <time>2021-03-20 12:59:39</time>
      </trkpt>
      <trkpt lat="41.31453" lon="-8.63411">
        <ele>150</ele>
        <time>2021-03-20 12:59:40</time>
      </trkpt>
      <trkpt lat="41.31457" lon="-8.63415">
        <ele>149.8</ele>
        <time>2021-03-20 12:59:41</time>
      </trkpt>
      <trkpt lat="41.31462" lon="-8.63417">
        <ele>149.6</ele>
        <time>2021-03-20 12:59:42</time>
      </trkpt>
      <trkpt lat="41.31466" lon="-8.6342">
        <ele>149.2</ele>
        <time>2021-03-20 12:59:43</time>
      </trkpt>
      <trkpt lat="41.31471" lon="-8.63423">
        <ele>148.8</ele>
        <time>2021-03-20 12:59:44</time>
      </trkpt>
      <trkpt lat="41.31475" lon="-8.63426">
        <ele>148.6</ele>
        <time>2021-03-20 12:59:45</time>
      </trkpt>
      <trkpt lat="41.3148" lon="-8.63428">
        <ele>148.2</ele>
        <time>2021-03-20 12:59:46</time>
      </trkpt>
      <trkpt lat="41.31484" lon="-8.63431">
        <ele>147.8</ele>
        <time>2021-03-20 12:59:47</time>
      </trkpt>
      <trkpt lat="41.31489" lon="-8.63434">
        <ele>147.6</ele>
        <time>2021-03-20 12:59:48</time>
      </trkpt>
      <trkpt lat="41.31494" lon="-8.63438">
        <ele>147.2</ele>
        <time>2021-03-20 12:59:49</time>
      </trkpt>
      <trkpt lat="41.31499" lon="-8.63441">
        <ele>146.8</ele>
        <time>2021-03-20 12:59:50</time>
      </trkpt>
      <trkpt lat="41.31505" lon="-8.63444">
        <ele>146.4</ele>
        <time>2021-03-20 12:59:51</time>
      </trkpt>
      <trkpt lat="41.3151" lon="-8.63447">
        <ele>146.2</ele>
        <time>2021-03-20 12:59:52</time>
      </trkpt>
      <trkpt lat="41.31516" lon="-8.63451">
        <ele>145.8</ele>
        <time>2021-03-20 12:59:53</time>
      </trkpt>
      <trkpt lat="41.31521" lon="-8.63455">
        <ele>145.8</ele>
        <time>2021-03-20 12:59:54</time>
      </trkpt>
      <trkpt lat="41.31527" lon="-8.63459">
        <ele>145.6</ele>
        <time>2021-03-20 12:59:55</time>
      </trkpt>
      <trkpt lat="41.31533" lon="-8.63462">
        <ele>145.4</ele>
        <time>2021-03-20 12:59:56</time>
      </trkpt>
      <trkpt lat="41.31539" lon="-8.63466">
        <ele>145.4</ele>
        <time>2021-03-20 12:59:57</time>
      </trkpt>
      <trkpt lat="41.31546" lon="-8.63468">
        <ele>145.4</ele>
        <time>2021-03-20 12:59:58</time>
      </trkpt>
      <trkpt lat="41.31553" lon="-8.63469">
        <ele>145.2</ele>
        <time>2021-03-20 12:59:59</time>
      </trkpt>
      <trkpt lat="41.31559" lon="-8.63472">
        <ele>144.6</ele>
        <time>2021-03-20 13:00:00</time>
      </trkpt>
      <trkpt lat="41.31566" lon="-8.63473">
        <ele>144.4</ele>
        <time>2021-03-20 13:00:01</time>
      </trkpt>
      <trkpt lat="41.31573" lon="-8.63475">
        <ele>144.2</ele>
        <time>2021-03-20 13:00:02</time>
      </trkpt>
      <trkpt lat="41.31581" lon="-8.63476">
        <ele>144.2</ele>
        <time>2021-03-20 13:00:03</time>
      </trkpt>
      <trkpt lat="41.31589" lon="-8.63477">
        <ele>144.2</ele>
        <time>2021-03-20 13:00:04</time>
      </trkpt>
      <trkpt lat="41.31596" lon="-8.63477">
        <ele>144</ele>
        <time>2021-03-20 13:00:05</time>
      </trkpt>
      <trkpt lat="41.31604" lon="-8.63477">
        <ele>143.8</ele>
        <time>2021-03-20 13:00:06</time>
      </trkpt>
      <trkpt lat="41.31612" lon="-8.63476">
        <ele>143.6</ele>
        <time>2021-03-20 13:00:07</time>
      </trkpt>
      <trkpt lat="41.3162" lon="-8.63476">
        <ele>143.6</ele>
        <time>2021-03-20 13:00:08</time>
      </trkpt>
      <trkpt lat="41.31628" lon="-8.63476">
        <ele>143.6</ele>
        <time>2021-03-20 13:00:09</time>
      </trkpt>
      <trkpt lat="41.31642" lon="-8.63475">
        <ele>143.6</ele>
        <time>2021-03-20 13:00:10</time>
      </trkpt>
      <trkpt lat="41.31652" lon="-8.63475">
        <ele>143.6</ele>
        <time>2021-03-20 13:00:11</time>
      </trkpt>
      <trkpt lat="41.31661" lon="-8.63475">
        <ele>143.6</ele>
        <time>2021-03-20 13:00:12</time>
      </trkpt>
      <trkpt lat="41.31671" lon="-8.63475">
        <ele>143.4</ele>
        <time>2021-03-20 13:00:13</time>
      </trkpt>
      <trkpt lat="41.3168" lon="-8.63475">
        <ele>143.4</ele>
        <time>2021-03-20 13:00:14</time>
      </trkpt>
      <trkpt lat="41.31689" lon="-8.63474">
        <ele>143.6</ele>
        <time>2021-03-20 13:00:15</time>
      </trkpt>
      <trkpt lat="41.31696" lon="-8.63473">
        <ele>143.4</ele>
        <time>2021-03-20 13:00:16</time>
      </trkpt>
      <trkpt lat="41.31706" lon="-8.63474">
        <ele>143.4</ele>
        <time>2021-03-20 13:00:17</time>
      </trkpt>
      <trkpt lat="41.31714" lon="-8.63472">
        <ele>143</ele>
        <time>2021-03-20 13:00:18</time>
      </trkpt>
      <trkpt lat="41.3172" lon="-8.63474">
        <ele>142.4</ele>
        <time>2021-03-20 13:00:19</time>
      </trkpt>
      <trkpt lat="41.31725" lon="-8.63479">
        <ele>141.6</ele>
        <time>2021-03-20 13:00:20</time>
      </trkpt>
      <trkpt lat="41.31731" lon="-8.6348">
        <ele>141</ele>
        <time>2021-03-20 13:00:21</time>
      </trkpt>
      <trkpt lat="41.31742" lon="-8.63479">
        <ele>140.4</ele>
        <time>2021-03-20 13:00:22</time>
      </trkpt>
      <trkpt lat="41.31744" lon="-8.63474">
        <ele>139.6</ele>
        <time>2021-03-20 13:00:23</time>
      </trkpt>
      <trkpt lat="41.31753" lon="-8.63473">
        <ele>139.2</ele>
        <time>2021-03-20 13:00:24</time>
      </trkpt>
      <trkpt lat="41.31759" lon="-8.63475">
        <ele>138.6</ele>
        <time>2021-03-20 13:00:25</time>
      </trkpt>
      <trkpt lat="41.31765" lon="-8.63471">
        <ele>138.2</ele>
        <time>2021-03-20 13:00:26</time>
      </trkpt>
      <trkpt lat="41.31773" lon="-8.63471">
        <ele>137.2</ele>
        <time>2021-03-20 13:00:27</time>
      </trkpt>
      <trkpt lat="41.31778" lon="-8.63467">
        <ele>136.6</ele>
        <time>2021-03-20 13:00:28</time>
      </trkpt>
      <trkpt lat="41.31789" lon="-8.63468">
        <ele>135.8</ele>
        <time>2021-03-20 13:00:29</time>
      </trkpt>
      <trkpt lat="41.31798" lon="-8.6347">
        <ele>135</ele>
        <time>2021-03-20 13:00:30</time>
      </trkpt>
      <trkpt lat="41.31809" lon="-8.63472">
        <ele>134</ele>
        <time>2021-03-20 13:00:31</time>
      </trkpt>
      <trkpt lat="41.3182" lon="-8.63475">
        <ele>133.6</ele>
        <time>2021-03-20 13:00:32</time>
      </trkpt>
      <trkpt lat="41.31828" lon="-8.63479">
        <ele>132.8</ele>
        <time>2021-03-20 13:00:33</time>
      </trkpt>
      <trkpt lat="41.31833" lon="-8.63484">
        <ele>132.2</ele>
        <time>2021-03-20 13:00:34</time>
      </trkpt>
      <trkpt lat="41.31841" lon="-8.63492">
        <ele>131.6</ele>
        <time>2021-03-20 13:00:35</time>
      </trkpt>
      <trkpt lat="41.31846" lon="-8.63498">
        <ele>130.8</ele>
        <time>2021-03-20 13:00:36</time>
      </trkpt>
      <trkpt lat="41.31851" lon="-8.63503">
        <ele>130</ele>
        <time>2021-03-20 13:00:37</time>
      </trkpt>
      <trkpt lat="41.31857" lon="-8.6351">
        <ele>129.4</ele>
        <time>2021-03-20 13:00:38</time>
      </trkpt>
      <trkpt lat="41.31862" lon="-8.63518">
        <ele>128.2</ele>
        <time>2021-03-20 13:00:39</time>
      </trkpt>
      <trkpt lat="41.31864" lon="-8.63525">
        <ele>127.2</ele>
        <time>2021-03-20 13:00:40</time>
      </trkpt>
      <trkpt lat="41.3187" lon="-8.63534">
        <ele>127.6</ele>
        <time>2021-03-20 13:00:41</time>
      </trkpt>
      <trkpt lat="41.31872" lon="-8.63538">
        <ele>126</ele>
        <time>2021-03-20 13:00:42</time>
      </trkpt>
      <trkpt lat="41.31889" lon="-8.63551">
        <ele>125</ele>
        <time>2021-03-20 13:00:43</time>
      </trkpt>
      <trkpt lat="41.31903" lon="-8.63558">
        <ele>124.2</ele>
        <time>2021-03-20 13:00:44</time>
      </trkpt>
      <trkpt lat="41.31909" lon="-8.63567">
        <ele>123</ele>
        <time>2021-03-20 13:00:45</time>
      </trkpt>
      <trkpt lat="41.31909" lon="-8.63573">
        <ele>122.6</ele>
        <time>2021-03-20 13:00:46</time>
      </trkpt>
      <trkpt lat="41.31913" lon="-8.63583">
        <ele>122</ele>
        <time>2021-03-20 13:00:47</time>
      </trkpt>
      <trkpt lat="41.31923" lon="-8.6359">
        <ele>121.6</ele>
        <time>2021-03-20 13:00:48</time>
      </trkpt>
      <trkpt lat="41.31923" lon="-8.63597">
        <ele>121</ele>
        <time>2021-03-20 13:00:49</time>
      </trkpt>
      <trkpt lat="41.31928" lon="-8.63603">
        <ele>120.4</ele>
        <time>2021-03-20 13:00:50</time>
      </trkpt>
      <trkpt lat="41.31936" lon="-8.6361">
        <ele>119.6</ele>
        <time>2021-03-20 13:00:51</time>
      </trkpt>
      <trkpt lat="41.31942" lon="-8.6362">
        <ele>118.6</ele>
        <time>2021-03-20 13:00:52</time>
      </trkpt>
      <trkpt lat="41.31947" lon="-8.63631">
        <ele>117.8</ele>
        <time>2021-03-20 13:00:53</time>
      </trkpt>
      <trkpt lat="41.31956" lon="-8.63638">
        <ele>117.2</ele>
        <time>2021-03-20 13:00:54</time>
      </trkpt>
      <trkpt lat="41.31961" lon="-8.6365">
        <ele>116.6</ele>
        <time>2021-03-20 13:00:55</time>
      </trkpt>
      <trkpt lat="41.31967" lon="-8.63657">
        <ele>115.6</ele>
        <time>2021-03-20 13:00:56</time>
      </trkpt>
      <trkpt lat="41.31969" lon="-8.63667">
        <ele>114.4</ele>
        <time>2021-03-20 13:00:57</time>
      </trkpt>
      <trkpt lat="41.31975" lon="-8.6368">
        <ele>113.4</ele>
        <time>2021-03-20 13:00:58</time>
      </trkpt>
      <trkpt lat="41.31987" lon="-8.6369">
        <ele>112.4</ele>
        <time>2021-03-20 13:00:59</time>
      </trkpt>
      <trkpt lat="41.31992" lon="-8.637">
        <ele>111.4</ele>
        <time>2021-03-20 13:01:00</time>
      </trkpt>
      <trkpt lat="41.31998" lon="-8.63718">
        <ele>110.8</ele>
        <time>2021-03-20 13:01:01</time>
      </trkpt>
      <trkpt lat="41.32003" lon="-8.63734">
        <ele>109.8</ele>
        <time>2021-03-20 13:01:02</time>
      </trkpt>
      <trkpt lat="41.32011" lon="-8.63747">
        <ele>109.2</ele>
        <time>2021-03-20 13:01:03</time>
      </trkpt>
      <trkpt lat="41.32018" lon="-8.63761">
        <ele>108.4</ele>
        <time>2021-03-20 13:01:04</time>
      </trkpt>
      <trkpt lat="41.32019" lon="-8.63771">
        <ele>107.8</ele>
        <time>2021-03-20 13:01:05</time>
      </trkpt>
      <trkpt lat="41.32027" lon="-8.63785">
        <ele>107</ele>
        <time>2021-03-20 13:01:06</time>
      </trkpt>
      <trkpt lat="41.3203" lon="-8.63795">
        <ele>106</ele>
        <time>2021-03-20 13:01:07</time>
      </trkpt>
      <trkpt lat="41.32032" lon="-8.63814">
        <ele>105.4</ele>
        <time>2021-03-20 13:01:08</time>
      </trkpt>
      <trkpt lat="41.32034" lon="-8.63825">
        <ele>104.8</ele>
        <time>2021-03-20 13:01:09</time>
      </trkpt>
      <trkpt lat="41.32036" lon="-8.63835">
        <ele>103.8</ele>
        <time>2021-03-20 13:01:10</time>
      </trkpt>
      <trkpt lat="41.32041" lon="-8.63854">
        <ele>102</ele>
        <time>2021-03-20 13:01:11</time>
      </trkpt>
      <trkpt lat="41.32042" lon="-8.63866">
        <ele>101.2</ele>
        <time>2021-03-20 13:01:12</time>
      </trkpt>
      <trkpt lat="41.32047" lon="-8.63882">
        <ele>100.4</ele>
        <time>2021-03-20 13:01:13</time>
      </trkpt>
      <trkpt lat="41.32045" lon="-8.63898">
        <ele>99.6</ele>
        <time>2021-03-20 13:01:14</time>
      </trkpt>
      <trkpt lat="41.32051" lon="-8.63909">
        <ele>98.4</ele>
        <time>2021-03-20 13:01:15</time>
      </trkpt>
      <trkpt lat="41.32058" lon="-8.63926">
        <ele>97.6</ele>
        <time>2021-03-20 13:01:16</time>
      </trkpt>
      <trkpt lat="41.32058" lon="-8.63942">
        <ele>96.8</ele>
        <time>2021-03-20 13:01:17</time>
      </trkpt>
      <trkpt lat="41.32065" lon="-8.63953">
        <ele>95.8</ele>
        <time>2021-03-20 13:01:18</time>
      </trkpt>
      <trkpt lat="41.32077" lon="-8.63975">
        <ele>95</ele>
        <time>2021-03-20 13:01:19</time>
      </trkpt>
      <trkpt lat="41.32086" lon="-8.63983">
        <ele>93.6</ele>
        <time>2021-03-20 13:01:20</time>
      </trkpt>
      <trkpt lat="41.32095" lon="-8.63995">
        <ele>93.2</ele>
        <time>2021-03-20 13:01:21</time>
      </trkpt>
      <trkpt lat="41.32104" lon="-8.64008">
        <ele>92</ele>
        <time>2021-03-20 13:01:22</time>
      </trkpt>
      <trkpt lat="41.32108" lon="-8.64019">
        <ele>91.2</ele>
        <time>2021-03-20 13:01:23</time>
      </trkpt>
      <trkpt lat="41.32112" lon="-8.64032">
        <ele>89.6</ele>
        <time>2021-03-20 13:01:24</time>
      </trkpt>
      <trkpt lat="41.32116" lon="-8.64047">
        <ele>88.8</ele>
        <time>2021-03-20 13:01:25</time>
      </trkpt>
      <trkpt lat="41.32121" lon="-8.64062">
        <ele>87.2</ele>
        <time>2021-03-20 13:01:26</time>
      </trkpt>
      <trkpt lat="41.32124" lon="-8.6407">
        <ele>86.6</ele>
        <time>2021-03-20 13:01:27</time>
      </trkpt>
      <trkpt lat="41.32131" lon="-8.64091">
        <ele>86</ele>
        <time>2021-03-20 13:01:28</time>
      </trkpt>
      <trkpt lat="41.32139" lon="-8.641">
        <ele>85.4</ele>
        <time>2021-03-20 13:01:29</time>
      </trkpt>
      <trkpt lat="41.32152" lon="-8.64115">
        <ele>84.6</ele>
        <time>2021-03-20 13:01:30</time>
      </trkpt>
      <trkpt lat="41.32159" lon="-8.64122">
        <ele>83.8</ele>
        <time>2021-03-20 13:01:31</time>
      </trkpt>
      <trkpt lat="41.32168" lon="-8.6413">
        <ele>83.2</ele>
        <time>2021-03-20 13:01:32</time>
      </trkpt>
      <trkpt lat="41.32175" lon="-8.64146">
        <ele>82.8</ele>
        <time>2021-03-20 13:01:33</time>
      </trkpt>
      <trkpt lat="41.32188" lon="-8.64164">
        <ele>82.6</ele>
        <time>2021-03-20 13:01:34</time>
      </trkpt>
      <trkpt lat="41.32198" lon="-8.64176">
        <ele>82.2</ele>
        <time>2021-03-20 13:01:35</time>
      </trkpt>
      <trkpt lat="41.32208" lon="-8.64189">
        <ele>81.6</ele>
        <time>2021-03-20 13:01:36</time>
      </trkpt>
      <trkpt lat="41.32214" lon="-8.64201">
        <ele>81.4</ele>
        <time>2021-03-20 13:01:37</time>
      </trkpt>
      <trkpt lat="41.32221" lon="-8.64213">
        <ele>81.2</ele>
        <time>2021-03-20 13:01:38</time>
      </trkpt>
      <trkpt lat="41.32228" lon="-8.64231">
        <ele>80.8</ele>
        <time>2021-03-20 13:01:39</time>
      </trkpt>
      <trkpt lat="41.32234" lon="-8.64248">
        <ele>80.4</ele>
        <time>2021-03-20 13:01:40</time>
      </trkpt>
      <trkpt lat="41.3224" lon="-8.64272">
        <ele>80</ele>
        <time>2021-03-20 13:01:41</time>
      </trkpt>
      <trkpt lat="41.32243" lon="-8.64278">
        <ele>79.8</ele>
        <time>2021-03-20 13:01:42</time>
      </trkpt>
      <trkpt lat="41.32242" lon="-8.64296">
        <ele>79.4</ele>
        <time>2021-03-20 13:01:43</time>
      </trkpt>
      <trkpt lat="41.32245" lon="-8.64316">
        <ele>79.2</ele>
        <time>2021-03-20 13:01:44</time>
      </trkpt>
      <trkpt lat="41.3225" lon="-8.64334">
        <ele>78.8</ele>
        <time>2021-03-20 13:01:45</time>
      </trkpt>
      <trkpt lat="41.32249" lon="-8.64348">
        <ele>78.2</ele>
        <time>2021-03-20 13:01:46</time>
      </trkpt>
      <trkpt lat="41.32249" lon="-8.64368">
        <ele>77</ele>
        <time>2021-03-20 13:01:47</time>
      </trkpt>
      <trkpt lat="41.32253" lon="-8.64386">
        <ele>76.4</ele>
        <time>2021-03-20 13:01:48</time>
      </trkpt>
      <trkpt lat="41.3226" lon="-8.64399">
        <ele>75.8</ele>
        <time>2021-03-20 13:01:49</time>
      </trkpt>
      <trkpt lat="41.32266" lon="-8.64411">
        <ele>74.6</ele>
        <time>2021-03-20 13:01:50</time>
      </trkpt>
      <trkpt lat="41.32274" lon="-8.6442">
        <ele>73.8</ele>
        <time>2021-03-20 13:01:51</time>
      </trkpt>
      <trkpt lat="41.32291" lon="-8.64435">
        <ele>72.8</ele>
        <time>2021-03-20 13:01:52</time>
      </trkpt>
      <trkpt lat="41.32302" lon="-8.64445">
        <ele>72</ele>
        <time>2021-03-20 13:01:53</time>
      </trkpt>
      <trkpt lat="41.3231" lon="-8.64452">
        <ele>71</ele>
        <time>2021-03-20 13:01:54</time>
      </trkpt>
      <trkpt lat="41.32324" lon="-8.64461">
        <ele>70.2</ele>
        <time>2021-03-20 13:01:55</time>
      </trkpt>
      <trkpt lat="41.32336" lon="-8.64463">
        <ele>69.2</ele>
        <time>2021-03-20 13:01:56</time>
      </trkpt>
      <trkpt lat="41.32347" lon="-8.64464">
        <ele>68.4</ele>
        <time>2021-03-20 13:01:57</time>
      </trkpt>
      <trkpt lat="41.32355" lon="-8.64465">
        <ele>67.8</ele>
        <time>2021-03-20 13:01:58</time>
      </trkpt>
      <trkpt lat="41.32368" lon="-8.64473">
        <ele>67.2</ele>
        <time>2021-03-20 13:01:59</time>
      </trkpt>
      <trkpt lat="41.32379" lon="-8.64478">
        <ele>67</ele>
        <time>2021-03-20 13:02:00</time>
      </trkpt>
      <trkpt lat="41.3239" lon="-8.64488">
        <ele>66.8</ele>
        <time>2021-03-20 13:02:01</time>
      </trkpt>
      <trkpt lat="41.32393" lon="-8.64495">
        <ele>66.6</ele>
        <time>2021-03-20 13:02:02</time>
      </trkpt>
      <trkpt lat="41.32395" lon="-8.64506">
        <ele>66.4</ele>
        <time>2021-03-20 13:02:03</time>
      </trkpt>
      <trkpt lat="41.32396" lon="-8.64516">
        <ele>66.2</ele>
        <time>2021-03-20 13:02:04</time>
      </trkpt>
      <trkpt lat="41.32397" lon="-8.64527">
        <ele>66</ele>
        <time>2021-03-20 13:02:05</time>
      </trkpt>
      <trkpt lat="41.324" lon="-8.64541">
        <ele>65.6</ele>
        <time>2021-03-20 13:02:06</time>
      </trkpt>
      <trkpt lat="41.324" lon="-8.64553">
        <ele>64.8</ele>
        <time>2021-03-20 13:02:07</time>
      </trkpt>
      <trkpt lat="41.32405" lon="-8.64566">
        <ele>64</ele>
        <time>2021-03-20 13:02:08</time>
      </trkpt>
      <trkpt lat="41.32408" lon="-8.64579">
        <ele>63.2</ele>
        <time>2021-03-20 13:02:09</time>
      </trkpt>
      <trkpt lat="41.32414" lon="-8.64598">
        <ele>62.4</ele>
        <time>2021-03-20 13:02:10</time>
      </trkpt>
      <trkpt lat="41.32423" lon="-8.64605">
        <ele>61.6</ele>
        <time>2021-03-20 13:02:11</time>
      </trkpt>
      <trkpt lat="41.3243" lon="-8.64622">
        <ele>61.2</ele>
        <time>2021-03-20 13:02:12</time>
      </trkpt>
      <trkpt lat="41.32438" lon="-8.64636">
        <ele>60</ele>
        <time>2021-03-20 13:02:13</time>
      </trkpt>
      <trkpt lat="41.32444" lon="-8.64648">
        <ele>59.2</ele>
        <time>2021-03-20 13:02:14</time>
      </trkpt>
      <trkpt lat="41.32449" lon="-8.64661">
        <ele>58.6</ele>
        <time>2021-03-20 13:02:15</time>
      </trkpt>
      <trkpt lat="41.32456" lon="-8.64673">
        <ele>58.4</ele>
        <time>2021-03-20 13:02:16</time>
      </trkpt>
      <trkpt lat="41.32466" lon="-8.64692">
        <ele>58.2</ele>
        <time>2021-03-20 13:02:17</time>
      </trkpt>
      <trkpt lat="41.32474" lon="-8.6471">
        <ele>58</ele>
        <time>2021-03-20 13:02:18</time>
      </trkpt>
      <trkpt lat="41.32478" lon="-8.64729">
        <ele>57.4</ele>
        <time>2021-03-20 13:02:19</time>
      </trkpt>
      <trkpt lat="41.32483" lon="-8.64745">
        <ele>56.6</ele>
        <time>2021-03-20 13:02:20</time>
      </trkpt>
      <trkpt lat="41.32487" lon="-8.6476">
        <ele>55.6</ele>
        <time>2021-03-20 13:02:21</time>
      </trkpt>
      <trkpt lat="41.3249" lon="-8.64777">
        <ele>55</ele>
        <time>2021-03-20 13:02:22</time>
      </trkpt>
      <trkpt lat="41.32497" lon="-8.64795">
        <ele>54.4</ele>
        <time>2021-03-20 13:02:23</time>
      </trkpt>
      <trkpt lat="41.32504" lon="-8.6481">
        <ele>53.6</ele>
        <time>2021-03-20 13:02:24</time>
      </trkpt>
      <trkpt lat="41.32512" lon="-8.64824">
        <ele>52.6</ele>
        <time>2021-03-20 13:02:25</time>
      </trkpt>
      <trkpt lat="41.32524" lon="-8.64836">
        <ele>52</ele>
        <time>2021-03-20 13:02:26</time>
      </trkpt>
      <trkpt lat="41.3253" lon="-8.64848">
        <ele>51.2</ele>
        <time>2021-03-20 13:02:27</time>
      </trkpt>
      <trkpt lat="41.32537" lon="-8.64866">
        <ele>50.6</ele>
        <time>2021-03-20 13:02:28</time>
      </trkpt>
      <trkpt lat="41.32547" lon="-8.64876">
        <ele>49.6</ele>
        <time>2021-03-20 13:02:29</time>
      </trkpt>
      <trkpt lat="41.32554" lon="-8.64895">
        <ele>48.8</ele>
        <time>2021-03-20 13:02:30</time>
      </trkpt>
      <trkpt lat="41.32562" lon="-8.64905">
        <ele>48.2</ele>
        <time>2021-03-20 13:02:31</time>
      </trkpt>
      <trkpt lat="41.32573" lon="-8.64922">
        <ele>47.4</ele>
        <time>2021-03-20 13:02:32</time>
      </trkpt>
      <trkpt lat="41.32579" lon="-8.64937">
        <ele>46.6</ele>
        <time>2021-03-20 13:02:33</time>
      </trkpt>
      <trkpt lat="41.32586" lon="-8.64953">
        <ele>46</ele>
        <time>2021-03-20 13:02:34</time>
      </trkpt>
      <trkpt lat="41.32593" lon="-8.64967">
        <ele>45.2</ele>
        <time>2021-03-20 13:02:35</time>
      </trkpt>
      <trkpt lat="41.326" lon="-8.6498">
        <ele>45</ele>
        <time>2021-03-20 13:02:36</time>
      </trkpt>
      <trkpt lat="41.32604" lon="-8.64995">
        <ele>44.6</ele>
        <time>2021-03-20 13:02:37</time>
      </trkpt>
      <trkpt lat="41.32601" lon="-8.6501">
        <ele>43.6</ele>
        <time>2021-03-20 13:02:38</time>
      </trkpt>
      <trkpt lat="41.32598" lon="-8.65024">
        <ele>43.2</ele>
        <time>2021-03-20 13:02:39</time>
      </trkpt>
      <trkpt lat="41.32592" lon="-8.65039">
        <ele>42.8</ele>
        <time>2021-03-20 13:02:40</time>
      </trkpt>
      <trkpt lat="41.32587" lon="-8.65055">
        <ele>42.4</ele>
        <time>2021-03-20 13:02:41</time>
      </trkpt>
      <trkpt lat="41.32582" lon="-8.6507">
        <ele>42.4</ele>
        <time>2021-03-20 13:02:42</time>
      </trkpt>
      <trkpt lat="41.32577" lon="-8.65086">
        <ele>42</ele>
        <time>2021-03-20 13:02:43</time>
      </trkpt>
      <trkpt lat="41.3257" lon="-8.65102">
        <ele>41.8</ele>
        <time>2021-03-20 13:02:44</time>
      </trkpt>
      <trkpt lat="41.32565" lon="-8.65118">
        <ele>41.6</ele>
        <time>2021-03-20 13:02:45</time>
      </trkpt>
      <trkpt lat="41.32561" lon="-8.65134">
        <ele>41.6</ele>
        <time>2021-03-20 13:02:46</time>
      </trkpt>
      <trkpt lat="41.32557" lon="-8.65145">
        <ele>41.2</ele>
        <time>2021-03-20 13:02:47</time>
      </trkpt>
      <trkpt lat="41.32551" lon="-8.6516">
        <ele>40.8</ele>
        <time>2021-03-20 13:02:48</time>
      </trkpt>
      <trkpt lat="41.32544" lon="-8.6518">
        <ele>40.6</ele>
        <time>2021-03-20 13:02:49</time>
      </trkpt>
      <trkpt lat="41.32538" lon="-8.65197">
        <ele>40.2</ele>
        <time>2021-03-20 13:02:50</time>
      </trkpt>
      <trkpt lat="41.32539" lon="-8.65213">
        <ele>40</ele>
        <time>2021-03-20 13:02:51</time>
      </trkpt>
      <trkpt lat="41.3254" lon="-8.6523">
        <ele>39.8</ele>
        <time>2021-03-20 13:02:52</time>
      </trkpt>
      <trkpt lat="41.32545" lon="-8.65248">
        <ele>39.6</ele>
        <time>2021-03-20 13:02:53</time>
      </trkpt>
      <trkpt lat="41.32549" lon="-8.65266">
        <ele>39.4</ele>
        <time>2021-03-20 13:02:54</time>
      </trkpt>
      <trkpt lat="41.32555" lon="-8.65283">
        <ele>39.2</ele>
        <time>2021-03-20 13:02:55</time>
      </trkpt>
      <trkpt lat="41.3256" lon="-8.65299">
        <ele>39</ele>
        <time>2021-03-20 13:02:56</time>
      </trkpt>
      <trkpt lat="41.32564" lon="-8.65317">
        <ele>39</ele>
        <time>2021-03-20 13:02:57</time>
      </trkpt>
      <trkpt lat="41.3257" lon="-8.65333">
        <ele>39</ele>
        <time>2021-03-20 13:02:58</time>
      </trkpt>
      <trkpt lat="41.32573" lon="-8.65351">
        <ele>39</ele>
        <time>2021-03-20 13:02:59</time>
      </trkpt>
      <trkpt lat="41.32576" lon="-8.65369">
        <ele>39</ele>
        <time>2021-03-20 13:03:00</time>
      </trkpt>
      <trkpt lat="41.3258" lon="-8.65386">
        <ele>38.8</ele>
        <time>2021-03-20 13:03:01</time>
      </trkpt>
      <trkpt lat="41.32583" lon="-8.65404">
        <ele>38.2</ele>
        <time>2021-03-20 13:03:02</time>
      </trkpt>
      <trkpt lat="41.32587" lon="-8.65422">
        <ele>37.4</ele>
        <time>2021-03-20 13:03:03</time>
      </trkpt>
      <trkpt lat="41.3259" lon="-8.65439">
        <ele>37.6</ele>
        <time>2021-03-20 13:03:04</time>
      </trkpt>
      <trkpt lat="41.32594" lon="-8.65456">
        <ele>37.4</ele>
        <time>2021-03-20 13:03:05</time>
      </trkpt>
      <trkpt lat="41.32597" lon="-8.65468">
        <ele>37.6</ele>
        <time>2021-03-20 13:03:06</time>
      </trkpt>
      <trkpt lat="41.32602" lon="-8.65489">
        <ele>37.8</ele>
        <time>2021-03-20 13:03:07</time>
      </trkpt>
      <trkpt lat="41.32607" lon="-8.65506">
        <ele>38</ele>
        <time>2021-03-20 13:03:08</time>
      </trkpt>
      <trkpt lat="41.32614" lon="-8.65522">
        <ele>38.4</ele>
        <time>2021-03-20 13:03:09</time>
      </trkpt>
      <trkpt lat="41.3262" lon="-8.65538">
        <ele>38.6</ele>
        <time>2021-03-20 13:03:10</time>
      </trkpt>
      <trkpt lat="41.32628" lon="-8.65552">
        <ele>38.6</ele>
        <time>2021-03-20 13:03:11</time>
      </trkpt>
      <trkpt lat="41.32635" lon="-8.65566">
        <ele>39</ele>
        <time>2021-03-20 13:03:12</time>
      </trkpt>
      <trkpt lat="41.32643" lon="-8.6558">
        <ele>39</ele>
        <time>2021-03-20 13:03:13</time>
      </trkpt>
      <trkpt lat="41.32652" lon="-8.65592">
        <ele>39</ele>
        <time>2021-03-20 13:03:14</time>
      </trkpt>
      <trkpt lat="41.32661" lon="-8.65605">
        <ele>39.2</ele>
        <time>2021-03-20 13:03:15</time>
      </trkpt>
      <trkpt lat="41.32669" lon="-8.65617">
        <ele>39.4</ele>
        <time>2021-03-20 13:03:16</time>
      </trkpt>
      <trkpt lat="41.32677" lon="-8.65629">
        <ele>39.6</ele>
        <time>2021-03-20 13:03:17</time>
      </trkpt>
      <trkpt lat="41.32685" lon="-8.65641">
        <ele>39.6</ele>
        <time>2021-03-20 13:03:18</time>
      </trkpt>
      <trkpt lat="41.32693" lon="-8.65654">
        <ele>39.4</ele>
        <time>2021-03-20 13:03:19</time>
      </trkpt>
      <trkpt lat="41.327" lon="-8.65666">
        <ele>39.4</ele>
        <time>2021-03-20 13:03:20</time>
      </trkpt>
      <trkpt lat="41.32708" lon="-8.65678">
        <ele>39.2</ele>
        <time>2021-03-20 13:03:21</time>
      </trkpt>
      <trkpt lat="41.32714" lon="-8.65687">
        <ele>38.8</ele>
        <time>2021-03-20 13:03:22</time>
      </trkpt>
      <trkpt lat="41.32723" lon="-8.65701">
        <ele>38.4</ele>
        <time>2021-03-20 13:03:23</time>
      </trkpt>
      <trkpt lat="41.32729" lon="-8.6571">
        <ele>38.2</ele>
        <time>2021-03-20 13:03:24</time>
      </trkpt>
      <trkpt lat="41.32738" lon="-8.65724">
        <ele>37.8</ele>
        <time>2021-03-20 13:03:25</time>
      </trkpt>
      <trkpt lat="41.32743" lon="-8.65733">
        <ele>37.6</ele>
        <time>2021-03-20 13:03:26</time>
      </trkpt>
      <trkpt lat="41.32752" lon="-8.65748">
        <ele>37.2</ele>
        <time>2021-03-20 13:03:27</time>
      </trkpt>
      <trkpt lat="41.32759" lon="-8.65759">
        <ele>36.6</ele>
        <time>2021-03-20 13:03:28</time>
      </trkpt>
      <trkpt lat="41.32766" lon="-8.6577">
        <ele>36</ele>
        <time>2021-03-20 13:03:29</time>
      </trkpt>
      <trkpt lat="41.32773" lon="-8.65781">
        <ele>35.4</ele>
        <time>2021-03-20 13:03:30</time>
      </trkpt>
      <trkpt lat="41.3278" lon="-8.65792">
        <ele>35.2</ele>
        <time>2021-03-20 13:03:31</time>
      </trkpt>
      <trkpt lat="41.32788" lon="-8.65803">
        <ele>34.8</ele>
        <time>2021-03-20 13:03:32</time>
      </trkpt>
      <trkpt lat="41.32794" lon="-8.65814">
        <ele>34.4</ele>
        <time>2021-03-20 13:03:33</time>
      </trkpt>
      <trkpt lat="41.32801" lon="-8.65824">
        <ele>34.4</ele>
        <time>2021-03-20 13:03:34</time>
      </trkpt>
      <trkpt lat="41.32808" lon="-8.65834">
        <ele>34.6</ele>
        <time>2021-03-20 13:03:35</time>
      </trkpt>
      <trkpt lat="41.32814" lon="-8.65843">
        <ele>34.8</ele>
        <time>2021-03-20 13:03:36</time>
      </trkpt>
      <trkpt lat="41.32821" lon="-8.65854">
        <ele>35</ele>
        <time>2021-03-20 13:03:37</time>
      </trkpt>
      <trkpt lat="41.32826" lon="-8.6586">
        <ele>35</ele>
        <time>2021-03-20 13:03:38</time>
      </trkpt>
      <trkpt lat="41.32833" lon="-8.6587">
        <ele>35.2</ele>
        <time>2021-03-20 13:03:39</time>
      </trkpt>
      <trkpt lat="41.32839" lon="-8.65878">
        <ele>35.4</ele>
        <time>2021-03-20 13:03:40</time>
      </trkpt>
      <trkpt lat="41.32845" lon="-8.65887">
        <ele>35.2</ele>
        <time>2021-03-20 13:03:41</time>
      </trkpt>
      <trkpt lat="41.3285" lon="-8.65893">
        <ele>35.4</ele>
        <time>2021-03-20 13:03:42</time>
      </trkpt>
      <trkpt lat="41.32857" lon="-8.65903">
        <ele>35.6</ele>
        <time>2021-03-20 13:03:43</time>
      </trkpt>
      <trkpt lat="41.32863" lon="-8.65911">
        <ele>35.6</ele>
        <time>2021-03-20 13:03:44</time>
      </trkpt>
      <trkpt lat="41.32866" lon="-8.65917">
        <ele>35.6</ele>
        <time>2021-03-20 13:03:45</time>
      </trkpt>
      <trkpt lat="41.32872" lon="-8.65928">
        <ele>35.4</ele>
        <time>2021-03-20 13:03:46</time>
      </trkpt>
      <trkpt lat="41.32877" lon="-8.65936">
        <ele>35.2</ele>
        <time>2021-03-20 13:03:47</time>
      </trkpt>
      <trkpt lat="41.32881" lon="-8.65942">
        <ele>35.2</ele>
        <time>2021-03-20 13:03:48</time>
      </trkpt>
      <trkpt lat="41.32887" lon="-8.65953">
        <ele>35</ele>
        <time>2021-03-20 13:03:49</time>
      </trkpt>
      <trkpt lat="41.32893" lon="-8.65961">
        <ele>35</ele>
        <time>2021-03-20 13:03:50</time>
      </trkpt>
      <trkpt lat="41.32899" lon="-8.65971">
        <ele>35</ele>
        <time>2021-03-20 13:03:51</time>
      </trkpt>
      <trkpt lat="41.32905" lon="-8.6598">
        <ele>34.8</ele>
        <time>2021-03-20 13:03:52</time>
      </trkpt>
      <trkpt lat="41.3291" lon="-8.65989">
        <ele>34.6</ele>
        <time>2021-03-20 13:03:53</time>
      </trkpt>
      <trkpt lat="41.32916" lon="-8.65998">
        <ele>34.4</ele>
        <time>2021-03-20 13:03:54</time>
      </trkpt>
      <trkpt lat="41.3292" lon="-8.66005">
        <ele>34</ele>
        <time>2021-03-20 13:03:55</time>
      </trkpt>
      <trkpt lat="41.32927" lon="-8.66017">
        <ele>33.8</ele>
        <time>2021-03-20 13:03:56</time>
      </trkpt>
      <trkpt lat="41.32933" lon="-8.66027">
        <ele>33.6</ele>
        <time>2021-03-20 13:03:57</time>
      </trkpt>
      <trkpt lat="41.3294" lon="-8.66036">
        <ele>33.4</ele>
        <time>2021-03-20 13:03:58</time>
      </trkpt>
      <trkpt lat="41.32945" lon="-8.66044">
        <ele>33</ele>
        <time>2021-03-20 13:03:59</time>
      </trkpt>
      <trkpt lat="41.32953" lon="-8.66057">
        <ele>33.2</ele>
        <time>2021-03-20 13:04:00</time>
      </trkpt>
      <trkpt lat="41.32959" lon="-8.66068">
        <ele>33.2</ele>
        <time>2021-03-20 13:04:01</time>
      </trkpt>
      <trkpt lat="41.32966" lon="-8.66078">
        <ele>33</ele>
        <time>2021-03-20 13:04:02</time>
      </trkpt>
      <trkpt lat="41.32971" lon="-8.66086">
        <ele>32.2</ele>
        <time>2021-03-20 13:04:03</time>
      </trkpt>
      <trkpt lat="41.32979" lon="-8.66098">
        <ele>31.8</ele>
        <time>2021-03-20 13:04:04</time>
      </trkpt>
      <trkpt lat="41.32987" lon="-8.66108">
        <ele>31.4</ele>
        <time>2021-03-20 13:04:05</time>
      </trkpt>
      <trkpt lat="41.32994" lon="-8.66117">
        <ele>31</ele>
        <time>2021-03-20 13:04:06</time>
      </trkpt>
      <trkpt lat="41.33" lon="-8.66126">
        <ele>30.6</ele>
        <time>2021-03-20 13:04:07</time>
      </trkpt>
      <trkpt lat="41.33006" lon="-8.66135">
        <ele>30.2</ele>
        <time>2021-03-20 13:04:08</time>
      </trkpt>
      <trkpt lat="41.33012" lon="-8.66143">
        <ele>29.6</ele>
        <time>2021-03-20 13:04:09</time>
      </trkpt>
      <trkpt lat="41.33019" lon="-8.6615">
        <ele>29.4</ele>
        <time>2021-03-20 13:04:10</time>
      </trkpt>
      <trkpt lat="41.33025" lon="-8.66158">
        <ele>29.4</ele>
        <time>2021-03-20 13:04:11</time>
      </trkpt>
      <trkpt lat="41.33031" lon="-8.66165">
        <ele>29</ele>
        <time>2021-03-20 13:04:12</time>
      </trkpt>
      <trkpt lat="41.33037" lon="-8.66172">
        <ele>28.8</ele>
        <time>2021-03-20 13:04:13</time>
      </trkpt>
      <trkpt lat="41.33043" lon="-8.66179">
        <ele>28.6</ele>
        <time>2021-03-20 13:04:14</time>
      </trkpt>
      <trkpt lat="41.3305" lon="-8.66186">
        <ele>28.2</ele>
        <time>2021-03-20 13:04:15</time>
      </trkpt>
      <trkpt lat="41.33056" lon="-8.66193">
        <ele>27.8</ele>
        <time>2021-03-20 13:04:16</time>
      </trkpt>
      <trkpt lat="41.33062" lon="-8.662">
        <ele>27.8</ele>
        <time>2021-03-20 13:04:17</time>
      </trkpt>
      <trkpt lat="41.33069" lon="-8.66205">
        <ele>27.6</ele>
        <time>2021-03-20 13:04:18</time>
      </trkpt>
      <trkpt lat="41.33075" lon="-8.66211">
        <ele>27.2</ele>
        <time>2021-03-20 13:04:19</time>
      </trkpt>
      <trkpt lat="41.33081" lon="-8.66218">
        <ele>26.8</ele>
        <time>2021-03-20 13:04:20</time>
      </trkpt>
      <trkpt lat="41.33086" lon="-8.66223">
        <ele>26.6</ele>
        <time>2021-03-20 13:04:21</time>
      </trkpt>
      <trkpt lat="41.33094" lon="-8.66231">
        <ele>26.4</ele>
        <time>2021-03-20 13:04:22</time>
      </trkpt>
      <trkpt lat="41.331" lon="-8.66238">
        <ele>25.8</ele>
        <time>2021-03-20 13:04:23</time>
      </trkpt>
      <trkpt lat="41.33106" lon="-8.66245">
        <ele>25.6</ele>
        <time>2021-03-20 13:04:24</time>
      </trkpt>
      <trkpt lat="41.33112" lon="-8.66251">
        <ele>25.2</ele>
        <time>2021-03-20 13:04:25</time>
      </trkpt>
      <trkpt lat="41.33118" lon="-8.66257">
        <ele>24.8</ele>
        <time>2021-03-20 13:04:26</time>
      </trkpt>
      <trkpt lat="41.33124" lon="-8.66264">
        <ele>24.4</ele>
        <time>2021-03-20 13:04:27</time>
      </trkpt>
      <trkpt lat="41.33129" lon="-8.66269">
        <ele>24.2</ele>
        <time>2021-03-20 13:04:28</time>
      </trkpt>
      <trkpt lat="41.33137" lon="-8.66277">
        <ele>23.8</ele>
        <time>2021-03-20 13:04:29</time>
      </trkpt>
      <trkpt lat="41.33143" lon="-8.66284">
        <ele>23.6</ele>
        <time>2021-03-20 13:04:30</time>
      </trkpt>
      <trkpt lat="41.3315" lon="-8.66291">
        <ele>23.4</ele>
        <time>2021-03-20 13:04:31</time>
      </trkpt>
      <trkpt lat="41.33157" lon="-8.66297">
        <ele>23.2</ele>
        <time>2021-03-20 13:04:32</time>
      </trkpt>
      <trkpt lat="41.33162" lon="-8.66304">
        <ele>22.8</ele>
        <time>2021-03-20 13:04:33</time>
      </trkpt>
      <trkpt lat="41.33168" lon="-8.66311">
        <ele>22.8</ele>
        <time>2021-03-20 13:04:34</time>
      </trkpt>
      <trkpt lat="41.33175" lon="-8.66319">
        <ele>22.6</ele>
        <time>2021-03-20 13:04:35</time>
      </trkpt>
      <trkpt lat="41.33182" lon="-8.66327">
        <ele>22.4</ele>
        <time>2021-03-20 13:04:36</time>
      </trkpt>
      <trkpt lat="41.33189" lon="-8.66333">
        <ele>22.4</ele>
        <time>2021-03-20 13:04:37</time>
      </trkpt>
      <trkpt lat="41.33195" lon="-8.6634">
        <ele>22.4</ele>
        <time>2021-03-20 13:04:38</time>
      </trkpt>
      <trkpt lat="41.33201" lon="-8.66345">
        <ele>22.4</ele>
        <time>2021-03-20 13:04:39</time>
      </trkpt>
      <trkpt lat="41.3321" lon="-8.66354">
        <ele>22.4</ele>
        <time>2021-03-20 13:04:40</time>
      </trkpt>
      <trkpt lat="41.33216" lon="-8.66362">
        <ele>22.6</ele>
        <time>2021-03-20 13:04:41</time>
      </trkpt>
      <trkpt lat="41.33223" lon="-8.66369">
        <ele>22.6</ele>
        <time>2021-03-20 13:04:42</time>
      </trkpt>
      <trkpt lat="41.33228" lon="-8.66374">
        <ele>22.4</ele>
        <time>2021-03-20 13:04:43</time>
      </trkpt>
      <trkpt lat="41.33237" lon="-8.66384">
        <ele>22</ele>
        <time>2021-03-20 13:04:44</time>
      </trkpt>
      <trkpt lat="41.33243" lon="-8.66389">
        <ele>21.6</ele>
        <time>2021-03-20 13:04:45</time>
      </trkpt>
      <trkpt lat="41.33249" lon="-8.66397">
        <ele>21.2</ele>
        <time>2021-03-20 13:04:46</time>
      </trkpt>
      <trkpt lat="41.33257" lon="-8.66405">
        <ele>21</ele>
        <time>2021-03-20 13:04:47</time>
      </trkpt>
      <trkpt lat="41.33265" lon="-8.66415">
        <ele>20.4</ele>
        <time>2021-03-20 13:04:48</time>
      </trkpt>
      <trkpt lat="41.3327" lon="-8.66424">
        <ele>19.6</ele>
        <time>2021-03-20 13:04:49</time>
      </trkpt>
      <trkpt lat="41.33276" lon="-8.66435">
        <ele>19.4</ele>
        <time>2021-03-20 13:04:50</time>
      </trkpt>
      <trkpt lat="41.33282" lon="-8.66445">
        <ele>18.8</ele>
        <time>2021-03-20 13:04:51</time>
      </trkpt>
      <trkpt lat="41.33289" lon="-8.66452">
        <ele>18.2</ele>
        <time>2021-03-20 13:04:52</time>
      </trkpt>
      <trkpt lat="41.33293" lon="-8.66463">
        <ele>18</ele>
        <time>2021-03-20 13:04:53</time>
      </trkpt>
      <trkpt lat="41.333" lon="-8.66475">
        <ele>17.8</ele>
        <time>2021-03-20 13:04:54</time>
      </trkpt>
      <trkpt lat="41.33306" lon="-8.66485">
        <ele>17.4</ele>
        <time>2021-03-20 13:04:55</time>
      </trkpt>
      <trkpt lat="41.33311" lon="-8.66495">
        <ele>17.2</ele>
        <time>2021-03-20 13:04:56</time>
      </trkpt>
      <trkpt lat="41.33317" lon="-8.66505">
        <ele>17</ele>
        <time>2021-03-20 13:04:57</time>
      </trkpt>
      <trkpt lat="41.33322" lon="-8.66516">
        <ele>16.8</ele>
        <time>2021-03-20 13:04:58</time>
      </trkpt>
      <trkpt lat="41.33323" lon="-8.66526">
        <ele>17</ele>
        <time>2021-03-20 13:04:59</time>
      </trkpt>
      <trkpt lat="41.33324" lon="-8.66538">
        <ele>17</ele>
        <time>2021-03-20 13:05:00</time>
      </trkpt>
      <trkpt lat="41.33335" lon="-8.66552">
        <ele>17.2</ele>
        <time>2021-03-20 13:05:01</time>
      </trkpt>
      <trkpt lat="41.33343" lon="-8.66564">
        <ele>17</ele>
        <time>2021-03-20 13:05:02</time>
      </trkpt>
      <trkpt lat="41.33345" lon="-8.66576">
        <ele>17.2</ele>
        <time>2021-03-20 13:05:03</time>
      </trkpt>
      <trkpt lat="41.3335" lon="-8.66585">
        <ele>17.2</ele>
        <time>2021-03-20 13:05:04</time>
      </trkpt>
      <trkpt lat="41.33353" lon="-8.66599">
        <ele>17.2</ele>
        <time>2021-03-20 13:05:05</time>
      </trkpt>
      <trkpt lat="41.33355" lon="-8.66611">
        <ele>17</ele>
        <time>2021-03-20 13:05:06</time>
      </trkpt>
      <trkpt lat="41.33358" lon="-8.66623">
        <ele>17.2</ele>
        <time>2021-03-20 13:05:07</time>
      </trkpt>
      <trkpt lat="41.33361" lon="-8.66633">
        <ele>17.4</ele>
        <time>2021-03-20 13:05:08</time>
      </trkpt>
      <trkpt lat="41.33364" lon="-8.66644">
        <ele>17.6</ele>
        <time>2021-03-20 13:05:09</time>
      </trkpt>
      <trkpt lat="41.33365" lon="-8.66657">
        <ele>17.6</ele>
        <time>2021-03-20 13:05:10</time>
      </trkpt>
      <trkpt lat="41.33366" lon="-8.66669">
        <ele>17.8</ele>
        <time>2021-03-20 13:05:11</time>
      </trkpt>
      <trkpt lat="41.33365" lon="-8.66681">
        <ele>17.8</ele>
        <time>2021-03-20 13:05:12</time>
      </trkpt>
      <trkpt lat="41.33366" lon="-8.66693">
        <ele>18.2</ele>
        <time>2021-03-20 13:05:13</time>
      </trkpt>
      <trkpt lat="41.33365" lon="-8.66705">
        <ele>18.4</ele>
        <time>2021-03-20 13:05:14</time>
      </trkpt>
      <trkpt lat="41.33365" lon="-8.66717">
        <ele>18.6</ele>
        <time>2021-03-20 13:05:15</time>
      </trkpt>
      <trkpt lat="41.33367" lon="-8.66729">
        <ele>18.8</ele>
        <time>2021-03-20 13:05:16</time>
      </trkpt>
      <trkpt lat="41.33369" lon="-8.66742">
        <ele>19</ele>
        <time>2021-03-20 13:05:17</time>
      </trkpt>
      <trkpt lat="41.33373" lon="-8.66754">
        <ele>19.2</ele>
        <time>2021-03-20 13:05:18</time>
      </trkpt>
      <trkpt lat="41.33377" lon="-8.66766">
        <ele>19.6</ele>
        <time>2021-03-20 13:05:19</time>
      </trkpt>
      <trkpt lat="41.33381" lon="-8.66779">
        <ele>19.6</ele>
        <time>2021-03-20 13:05:20</time>
      </trkpt>
      <trkpt lat="41.33384" lon="-8.66792">
        <ele>20</ele>
        <time>2021-03-20 13:05:21</time>
      </trkpt>
      <trkpt lat="41.33387" lon="-8.66805">
        <ele>20.4</ele>
        <time>2021-03-20 13:05:22</time>
      </trkpt>
      <trkpt lat="41.3339" lon="-8.66819">
        <ele>20.8</ele>
        <time>2021-03-20 13:05:23</time>
      </trkpt>
      <trkpt lat="41.33394" lon="-8.66832">
        <ele>21.2</ele>
        <time>2021-03-20 13:05:24</time>
      </trkpt>
      <trkpt lat="41.33397" lon="-8.66845">
        <ele>21.4</ele>
        <time>2021-03-20 13:05:25</time>
      </trkpt>
      <trkpt lat="41.33401" lon="-8.66858">
        <ele>21.8</ele>
        <time>2021-03-20 13:05:26</time>
      </trkpt>
      <trkpt lat="41.33405" lon="-8.66871">
        <ele>21.8</ele>
        <time>2021-03-20 13:05:27</time>
      </trkpt>
      <trkpt lat="41.33407" lon="-8.66881">
        <ele>22.2</ele>
        <time>2021-03-20 13:05:28</time>
      </trkpt>
      <trkpt lat="41.33412" lon="-8.66898">
        <ele>22.4</ele>
        <time>2021-03-20 13:05:29</time>
      </trkpt>
      <trkpt lat="41.33416" lon="-8.6691">
        <ele>22.6</ele>
        <time>2021-03-20 13:05:30</time>
      </trkpt>
      <trkpt lat="41.3342" lon="-8.66923">
        <ele>22.8</ele>
        <time>2021-03-20 13:05:31</time>
      </trkpt>
      <trkpt lat="41.33423" lon="-8.66933">
        <ele>23</ele>
        <time>2021-03-20 13:05:32</time>
      </trkpt>
      <trkpt lat="41.33428" lon="-8.66949">
        <ele>23.2</ele>
        <time>2021-03-20 13:05:33</time>
      </trkpt>
      <trkpt lat="41.33431" lon="-8.66962">
        <ele>23.2</ele>
        <time>2021-03-20 13:05:34</time>
      </trkpt>
      <trkpt lat="41.33435" lon="-8.66975">
        <ele>23.2</ele>
        <time>2021-03-20 13:05:35</time>
      </trkpt>
      <trkpt lat="41.33439" lon="-8.66986">
        <ele>23</ele>
        <time>2021-03-20 13:05:36</time>
      </trkpt>
      <trkpt lat="41.33443" lon="-8.66998">
        <ele>23.4</ele>
        <time>2021-03-20 13:05:37</time>
      </trkpt>
      <trkpt lat="41.33447" lon="-8.67009">
        <ele>23.6</ele>
        <time>2021-03-20 13:05:38</time>
      </trkpt>
      <trkpt lat="41.3345" lon="-8.67017">
        <ele>23.8</ele>
        <time>2021-03-20 13:05:39</time>
      </trkpt>
      <trkpt lat="41.33454" lon="-8.67032">
        <ele>23.8</ele>
        <time>2021-03-20 13:05:40</time>
      </trkpt>
      <trkpt lat="41.33457" lon="-8.67045">
        <ele>24</ele>
        <time>2021-03-20 13:05:41</time>
      </trkpt>
      <trkpt lat="41.3346" lon="-8.67056">
        <ele>24.4</ele>
        <time>2021-03-20 13:05:42</time>
      </trkpt>
      <trkpt lat="41.33464" lon="-8.67068">
        <ele>24.6</ele>
        <time>2021-03-20 13:05:43</time>
      </trkpt>
      <trkpt lat="41.33466" lon="-8.67078">
        <ele>24.6</ele>
        <time>2021-03-20 13:05:44</time>
      </trkpt>
      <trkpt lat="41.33469" lon="-8.6709">
        <ele>24.6</ele>
        <time>2021-03-20 13:05:45</time>
      </trkpt>
      <trkpt lat="41.33472" lon="-8.67101">
        <ele>24.8</ele>
        <time>2021-03-20 13:05:46</time>
      </trkpt>
      <trkpt lat="41.33474" lon="-8.67113">
        <ele>25.2</ele>
        <time>2021-03-20 13:05:47</time>
      </trkpt>
      <trkpt lat="41.3348" lon="-8.6712">
        <ele>25.2</ele>
        <time>2021-03-20 13:05:48</time>
      </trkpt>
      <trkpt lat="41.33482" lon="-8.67132">
        <ele>25.4</ele>
        <time>2021-03-20 13:05:49</time>
      </trkpt>
      <trkpt lat="41.33482" lon="-8.67144">
        <ele>25.4</ele>
        <time>2021-03-20 13:05:50</time>
      </trkpt>
      <trkpt lat="41.33486" lon="-8.67154">
        <ele>25.4</ele>
        <time>2021-03-20 13:05:51</time>
      </trkpt>
      <trkpt lat="41.33489" lon="-8.67163">
        <ele>25.6</ele>
        <time>2021-03-20 13:05:52</time>
      </trkpt>
      <trkpt lat="41.33491" lon="-8.67174">
        <ele>25.6</ele>
        <time>2021-03-20 13:05:53</time>
      </trkpt>
      <trkpt lat="41.33495" lon="-8.67183">
        <ele>25.8</ele>
        <time>2021-03-20 13:05:54</time>
      </trkpt>
      <trkpt lat="41.33499" lon="-8.67191">
        <ele>25.8</ele>
        <time>2021-03-20 13:05:55</time>
      </trkpt>
      <trkpt lat="41.33502" lon="-8.672">
        <ele>25.8</ele>
        <time>2021-03-20 13:05:56</time>
      </trkpt>
      <trkpt lat="41.33505" lon="-8.67209">
        <ele>25.8</ele>
        <time>2021-03-20 13:05:57</time>
      </trkpt>
      <trkpt lat="41.33508" lon="-8.67219">
        <ele>25.8</ele>
        <time>2021-03-20 13:05:58</time>
      </trkpt>
      <trkpt lat="41.3351" lon="-8.67228">
        <ele>25.8</ele>
        <time>2021-03-20 13:05:59</time>
      </trkpt>
      <trkpt lat="41.33512" lon="-8.67234">
        <ele>26</ele>
        <time>2021-03-20 13:06:00</time>
      </trkpt>
      <trkpt lat="41.33515" lon="-8.67247">
        <ele>25.8</ele>
        <time>2021-03-20 13:06:01</time>
      </trkpt>
      <trkpt lat="41.33517" lon="-8.67255">
        <ele>25.6</ele>
        <time>2021-03-20 13:06:02</time>
      </trkpt>
      <trkpt lat="41.33519" lon="-8.67263">
        <ele>26</ele>
        <time>2021-03-20 13:06:03</time>
      </trkpt>
      <trkpt lat="41.33521" lon="-8.67273">
        <ele>26</ele>
        <time>2021-03-20 13:06:04</time>
      </trkpt>
      <trkpt lat="41.33524" lon="-8.67282">
        <ele>26</ele>
        <time>2021-03-20 13:06:05</time>
      </trkpt>
      <trkpt lat="41.33526" lon="-8.67291">
        <ele>26</ele>
        <time>2021-03-20 13:06:06</time>
      </trkpt>
      <trkpt lat="41.33529" lon="-8.67299">
        <ele>25.8</ele>
        <time>2021-03-20 13:06:07</time>
      </trkpt>
      <trkpt lat="41.33531" lon="-8.67308">
        <ele>25.8</ele>
        <time>2021-03-20 13:06:08</time>
      </trkpt>
      <trkpt lat="41.33533" lon="-8.67316">
        <ele>25.8</ele>
        <time>2021-03-20 13:06:09</time>
      </trkpt>
      <trkpt lat="41.33534" lon="-8.67323">
        <ele>25.8</ele>
        <time>2021-03-20 13:06:10</time>
      </trkpt>
      <trkpt lat="41.33537" lon="-8.67332">
        <ele>26</ele>
        <time>2021-03-20 13:06:11</time>
      </trkpt>
      <trkpt lat="41.33538" lon="-8.67341">
        <ele>26.2</ele>
        <time>2021-03-20 13:06:12</time>
      </trkpt>
      <trkpt lat="41.3354" lon="-8.67349">
        <ele>26.2</ele>
        <time>2021-03-20 13:06:13</time>
      </trkpt>
      <trkpt lat="41.33542" lon="-8.67357">
        <ele>26.2</ele>
        <time>2021-03-20 13:06:14</time>
      </trkpt>
      <trkpt lat="41.33545" lon="-8.67365">
        <ele>26.2</ele>
        <time>2021-03-20 13:06:15</time>
      </trkpt>
      <trkpt lat="41.33547" lon="-8.67373">
        <ele>26.2</ele>
        <time>2021-03-20 13:06:16</time>
      </trkpt>
      <trkpt lat="41.3355" lon="-8.67381">
        <ele>26</ele>
        <time>2021-03-20 13:06:17</time>
      </trkpt>
      <trkpt lat="41.33552" lon="-8.67389">
        <ele>25.6</ele>
        <time>2021-03-20 13:06:18</time>
      </trkpt>
      <trkpt lat="41.33553" lon="-8.67398">
        <ele>25.6</ele>
        <time>2021-03-20 13:06:19</time>
      </trkpt>
      <trkpt lat="41.33555" lon="-8.67406">
        <ele>26</ele>
        <time>2021-03-20 13:06:20</time>
      </trkpt>
      <trkpt lat="41.33556" lon="-8.67412">
        <ele>26</ele>
        <time>2021-03-20 13:06:21</time>
      </trkpt>
      <trkpt lat="41.33559" lon="-8.67422">
        <ele>25.8</ele>
        <time>2021-03-20 13:06:22</time>
      </trkpt>
      <trkpt lat="41.33561" lon="-8.67429">
        <ele>26</ele>
        <time>2021-03-20 13:06:23</time>
      </trkpt>
      <trkpt lat="41.33564" lon="-8.67437">
        <ele>25.8</ele>
        <time>2021-03-20 13:06:24</time>
      </trkpt>
      <trkpt lat="41.33566" lon="-8.67445">
        <ele>25.8</ele>
        <time>2021-03-20 13:06:25</time>
      </trkpt>
      <trkpt lat="41.33568" lon="-8.67454">
        <ele>26</ele>
        <time>2021-03-20 13:06:26</time>
      </trkpt>
      <trkpt lat="41.3357" lon="-8.67461">
        <ele>26.4</ele>
        <time>2021-03-20 13:06:27</time>
      </trkpt>
      <trkpt lat="41.33572" lon="-8.6747">
        <ele>26.2</ele>
        <time>2021-03-20 13:06:28</time>
      </trkpt>
      <trkpt lat="41.33574" lon="-8.67479">
        <ele>26.4</ele>
        <time>2021-03-20 13:06:29</time>
      </trkpt>
      <trkpt lat="41.33577" lon="-8.67486">
        <ele>26.4</ele>
        <time>2021-03-20 13:06:30</time>
      </trkpt>
      <trkpt lat="41.33579" lon="-8.67495">
        <ele>26.4</ele>
        <time>2021-03-20 13:06:31</time>
      </trkpt>
      <trkpt lat="41.33582" lon="-8.67503">
        <ele>26.4</ele>
        <time>2021-03-20 13:06:32</time>
      </trkpt>
      <trkpt lat="41.33583" lon="-8.67512">
        <ele>26.4</ele>
        <time>2021-03-20 13:06:33</time>
      </trkpt>
      <trkpt lat="41.33586" lon="-8.6752">
        <ele>26.4</ele>
        <time>2021-03-20 13:06:34</time>
      </trkpt>
      <trkpt lat="41.33588" lon="-8.67529">
        <ele>26.2</ele>
        <time>2021-03-20 13:06:35</time>
      </trkpt>
      <trkpt lat="41.33589" lon="-8.67538">
        <ele>26.2</ele>
        <time>2021-03-20 13:06:36</time>
      </trkpt>
      <trkpt lat="41.33592" lon="-8.67548">
        <ele>26.6</ele>
        <time>2021-03-20 13:06:37</time>
      </trkpt>
      <trkpt lat="41.33594" lon="-8.67556">
        <ele>26.8</ele>
        <time>2021-03-20 13:06:38</time>
      </trkpt>
      <trkpt lat="41.33595" lon="-8.67561">
        <ele>26.8</ele>
        <time>2021-03-20 13:06:39</time>
      </trkpt>
      <trkpt lat="41.33598" lon="-8.67571">
        <ele>27.2</ele>
        <time>2021-03-20 13:06:40</time>
      </trkpt>
      <trkpt lat="41.336" lon="-8.67579">
        <ele>27.4</ele>
        <time>2021-03-20 13:06:41</time>
      </trkpt>
      <trkpt lat="41.33602" lon="-8.67587">
        <ele>27.4</ele>
        <time>2021-03-20 13:06:42</time>
      </trkpt>
      <trkpt lat="41.33603" lon="-8.67596">
        <ele>27.6</ele>
        <time>2021-03-20 13:06:43</time>
      </trkpt>
      <trkpt lat="41.33605" lon="-8.67605">
        <ele>28.2</ele>
        <time>2021-03-20 13:06:44</time>
      </trkpt>
      <trkpt lat="41.33608" lon="-8.67615">
        <ele>28.4</ele>
        <time>2021-03-20 13:06:45</time>
      </trkpt>
      <trkpt lat="41.33609" lon="-8.67622">
        <ele>28.6</ele>
        <time>2021-03-20 13:06:46</time>
      </trkpt>
      <trkpt lat="41.33612" lon="-8.67633">
        <ele>29.2</ele>
        <time>2021-03-20 13:06:47</time>
      </trkpt>
      <trkpt lat="41.33614" lon="-8.67642">
        <ele>29.4</ele>
        <time>2021-03-20 13:06:48</time>
      </trkpt>
      <trkpt lat="41.33616" lon="-8.6765">
        <ele>29.6</ele>
        <time>2021-03-20 13:06:49</time>
      </trkpt>
      <trkpt lat="41.33618" lon="-8.6766">
        <ele>30</ele>
        <time>2021-03-20 13:06:50</time>
      </trkpt>
      <trkpt lat="41.3362" lon="-8.6767">
        <ele>30.4</ele>
        <time>2021-03-20 13:06:51</time>
      </trkpt>
      <trkpt lat="41.33622" lon="-8.67679">
        <ele>30.8</ele>
        <time>2021-03-20 13:06:52</time>
      </trkpt>
      <trkpt lat="41.33625" lon="-8.67686">
        <ele>31</ele>
        <time>2021-03-20 13:06:53</time>
      </trkpt>
      <trkpt lat="41.33629" lon="-8.67697">
        <ele>31.2</ele>
        <time>2021-03-20 13:06:54</time>
      </trkpt>
      <trkpt lat="41.33631" lon="-8.67708">
        <ele>31.4</ele>
        <time>2021-03-20 13:06:55</time>
      </trkpt>
      <trkpt lat="41.33633" lon="-8.67717">
        <ele>31.8</ele>
        <time>2021-03-20 13:06:56</time>
      </trkpt>
      <trkpt lat="41.33636" lon="-8.67726">
        <ele>32.4</ele>
        <time>2021-03-20 13:06:57</time>
      </trkpt>
      <trkpt lat="41.33638" lon="-8.67736">
        <ele>32.6</ele>
        <time>2021-03-20 13:06:58</time>
      </trkpt>
      <trkpt lat="41.33641" lon="-8.67743">
        <ele>33</ele>
        <time>2021-03-20 13:06:59</time>
      </trkpt>
      <trkpt lat="41.33643" lon="-8.67752">
        <ele>33.2</ele>
        <time>2021-03-20 13:07:00</time>
      </trkpt>
      <trkpt lat="41.33645" lon="-8.67762">
        <ele>33.4</ele>
        <time>2021-03-20 13:07:01</time>
      </trkpt>
      <trkpt lat="41.33649" lon="-8.67771">
        <ele>33.8</ele>
        <time>2021-03-20 13:07:02</time>
      </trkpt>
      <trkpt lat="41.33652" lon="-8.6778">
        <ele>34</ele>
        <time>2021-03-20 13:07:03</time>
      </trkpt>
      <trkpt lat="41.33655" lon="-8.6779">
        <ele>34.4</ele>
        <time>2021-03-20 13:07:04</time>
      </trkpt>
      <trkpt lat="41.33657" lon="-8.67799">
        <ele>34.6</ele>
        <time>2021-03-20 13:07:05</time>
      </trkpt>
      <trkpt lat="41.33659" lon="-8.67807">
        <ele>34.8</ele>
        <time>2021-03-20 13:07:06</time>
      </trkpt>
      <trkpt lat="41.33662" lon="-8.6782">
        <ele>35.2</ele>
        <time>2021-03-20 13:07:07</time>
      </trkpt>
      <trkpt lat="41.33664" lon="-8.67829">
        <ele>35.4</ele>
        <time>2021-03-20 13:07:08</time>
      </trkpt>
      <trkpt lat="41.33666" lon="-8.67841">
        <ele>35.6</ele>
        <time>2021-03-20 13:07:09</time>
      </trkpt>
      <trkpt lat="41.33668" lon="-8.67851">
        <ele>36</ele>
        <time>2021-03-20 13:07:10</time>
      </trkpt>
      <trkpt lat="41.3367" lon="-8.67858">
        <ele>36.4</ele>
        <time>2021-03-20 13:07:11</time>
      </trkpt>
      <trkpt lat="41.33673" lon="-8.6787">
        <ele>36.6</ele>
        <time>2021-03-20 13:07:12</time>
      </trkpt>
      <trkpt lat="41.33676" lon="-8.6788">
        <ele>36.8</ele>
        <time>2021-03-20 13:07:13</time>
      </trkpt>
      <trkpt lat="41.3368" lon="-8.67889">
        <ele>36.8</ele>
        <time>2021-03-20 13:07:14</time>
      </trkpt>
      <trkpt lat="41.33683" lon="-8.67898">
        <ele>36.8</ele>
        <time>2021-03-20 13:07:15</time>
      </trkpt>
      <trkpt lat="41.33686" lon="-8.67907">
        <ele>37.4</ele>
        <time>2021-03-20 13:07:16</time>
      </trkpt>
      <trkpt lat="41.3369" lon="-8.67914">
        <ele>37.8</ele>
        <time>2021-03-20 13:07:17</time>
      </trkpt>
      <trkpt lat="41.33695" lon="-8.67921">
        <ele>38</ele>
        <time>2021-03-20 13:07:18</time>
      </trkpt>
      <trkpt lat="41.33699" lon="-8.67928">
        <ele>38.2</ele>
        <time>2021-03-20 13:07:19</time>
      </trkpt>
      <trkpt lat="41.33703" lon="-8.67937">
        <ele>38.4</ele>
        <time>2021-03-20 13:07:20</time>
      </trkpt>
      <trkpt lat="41.33706" lon="-8.67945">
        <ele>38.4</ele>
        <time>2021-03-20 13:07:21</time>
      </trkpt>
      <trkpt lat="41.3371" lon="-8.67952">
        <ele>38.6</ele>
        <time>2021-03-20 13:07:22</time>
      </trkpt>
      <trkpt lat="41.33714" lon="-8.67959">
        <ele>38.8</ele>
        <time>2021-03-20 13:07:23</time>
      </trkpt>
      <trkpt lat="41.33717" lon="-8.67966">
        <ele>39</ele>
        <time>2021-03-20 13:07:24</time>
      </trkpt>
      <trkpt lat="41.33721" lon="-8.67971">
        <ele>39</ele>
        <time>2021-03-20 13:07:25</time>
      </trkpt>
      <trkpt lat="41.33725" lon="-8.67978">
        <ele>39</ele>
        <time>2021-03-20 13:07:26</time>
      </trkpt>
      <trkpt lat="41.33728" lon="-8.67984">
        <ele>39</ele>
        <time>2021-03-20 13:07:27</time>
      </trkpt>
      <trkpt lat="41.33732" lon="-8.6799">
        <ele>39</ele>
        <time>2021-03-20 13:07:28</time>
      </trkpt>
      <trkpt lat="41.33734" lon="-8.67996">
        <ele>38.8</ele>
        <time>2021-03-20 13:07:29</time>
      </trkpt>
      <trkpt lat="41.33737" lon="-8.68001">
        <ele>38.6</ele>
        <time>2021-03-20 13:07:30</time>
      </trkpt>
      <trkpt lat="41.3374" lon="-8.68007">
        <ele>38.6</ele>
        <time>2021-03-20 13:07:31</time>
      </trkpt>
      <trkpt lat="41.33745" lon="-8.68012">
        <ele>38.8</ele>
        <time>2021-03-20 13:07:32</time>
      </trkpt>
      <trkpt lat="41.33749" lon="-8.68016">
        <ele>38.8</ele>
        <time>2021-03-20 13:07:33</time>
      </trkpt>
      <trkpt lat="41.33752" lon="-8.68021">
        <ele>39</ele>
        <time>2021-03-20 13:07:34</time>
      </trkpt>
      <trkpt lat="41.33755" lon="-8.68025">
        <ele>39</ele>
        <time>2021-03-20 13:07:35</time>
      </trkpt>
      <trkpt lat="41.33758" lon="-8.6803">
        <ele>39</ele>
        <time>2021-03-20 13:07:36</time>
      </trkpt>
      <trkpt lat="41.33761" lon="-8.68034">
        <ele>38.8</ele>
        <time>2021-03-20 13:07:37</time>
      </trkpt>
      <trkpt lat="41.33764" lon="-8.68038">
        <ele>38.6</ele>
        <time>2021-03-20 13:07:38</time>
      </trkpt>
      <trkpt lat="41.33768" lon="-8.68041">
        <ele>38.6</ele>
        <time>2021-03-20 13:07:39</time>
      </trkpt>
      <trkpt lat="41.33771" lon="-8.68047">
        <ele>38.4</ele>
        <time>2021-03-20 13:07:40</time>
      </trkpt>
      <trkpt lat="41.33774" lon="-8.68051">
        <ele>38.4</ele>
        <time>2021-03-20 13:07:41</time>
      </trkpt>
      <trkpt lat="41.33777" lon="-8.68056">
        <ele>38.4</ele>
        <time>2021-03-20 13:07:42</time>
      </trkpt>
      <trkpt lat="41.3378" lon="-8.68059">
        <ele>38.2</ele>
        <time>2021-03-20 13:07:43</time>
      </trkpt>
      <trkpt lat="41.33783" lon="-8.68062">
        <ele>38.2</ele>
        <time>2021-03-20 13:07:44</time>
      </trkpt>
      <trkpt lat="41.33786" lon="-8.68066">
        <ele>38.4</ele>
        <time>2021-03-20 13:07:45</time>
      </trkpt>
      <trkpt lat="41.33788" lon="-8.68068">
        <ele>38.4</ele>
        <time>2021-03-20 13:07:46</time>
      </trkpt>
      <trkpt lat="41.33791" lon="-8.68073">
        <ele>38.4</ele>
        <time>2021-03-20 13:07:47</time>
      </trkpt>
      <trkpt lat="41.33793" lon="-8.68077">
        <ele>38.2</ele>
        <time>2021-03-20 13:07:48</time>
      </trkpt>
      <trkpt lat="41.33795" lon="-8.68081">
        <ele>38.4</ele>
        <time>2021-03-20 13:07:49</time>
      </trkpt>
      <trkpt lat="41.33796" lon="-8.68084">
        <ele>38.2</ele>
        <time>2021-03-20 13:07:50</time>
      </trkpt>
      <trkpt lat="41.33797" lon="-8.68089">
        <ele>38.4</ele>
        <time>2021-03-20 13:07:51</time>
      </trkpt>
      <trkpt lat="41.338" lon="-8.68092">
        <ele>38.4</ele>
        <time>2021-03-20 13:07:52</time>
      </trkpt>
      <trkpt lat="41.33802" lon="-8.68095">
        <ele>38.2</ele>
        <time>2021-03-20 13:07:53</time>
      </trkpt>
      <trkpt lat="41.33805" lon="-8.68097">
        <ele>38.2</ele>
        <time>2021-03-20 13:07:54</time>
      </trkpt>
      <trkpt lat="41.33806" lon="-8.68099">
        <ele>38</ele>
        <time>2021-03-20 13:07:55</time>
      </trkpt>
      <trkpt lat="41.33808" lon="-8.68101">
        <ele>38</ele>
        <time>2021-03-20 13:07:56</time>
      </trkpt>
      <trkpt lat="41.3381" lon="-8.68103">
        <ele>38</ele>
        <time>2021-03-20 13:07:57</time>
      </trkpt>
      <trkpt lat="41.33811" lon="-8.68104">
        <ele>38</ele>
        <time>2021-03-20 13:07:58</time>
      </trkpt>
      <trkpt lat="41.33812" lon="-8.68106">
        <ele>37.8</ele>
        <time>2021-03-20 13:07:59</time>
      </trkpt>
      <trkpt lat="41.33813" lon="-8.68108">
        <ele>37.8</ele>
        <time>2021-03-20 13:08:00</time>
      </trkpt>
      <trkpt lat="41.33815" lon="-8.6811">
        <ele>37.8</ele>
        <time>2021-03-20 13:08:01</time>
      </trkpt>
      <trkpt lat="41.33818" lon="-8.68113">
        <ele>38</ele>
        <time>2021-03-20 13:08:02</time>
      </trkpt>
      <trkpt lat="41.33816" lon="-8.68116">
        <ele>38</ele>
        <time>2021-03-20 13:08:03</time>
      </trkpt>
      <trkpt lat="41.33817" lon="-8.68117">
        <ele>38</ele>
        <time>2021-03-20 13:08:04</time>
      </trkpt>
      <trkpt lat="41.33819" lon="-8.68119">
        <ele>38</ele>
        <time>2021-03-20 13:08:05</time>
      </trkpt>
      <trkpt lat="41.3382" lon="-8.6812">
        <ele>38</ele>
        <time>2021-03-20 13:08:06</time>
      </trkpt>
      <trkpt lat="41.3382" lon="-8.68124">
        <ele>38.2</ele>
        <time>2021-03-20 13:08:07</time>
      </trkpt>
      <trkpt lat="41.33822" lon="-8.68127">
        <ele>38.4</ele>
        <time>2021-03-20 13:08:08</time>
      </trkpt>
      <trkpt lat="41.33823" lon="-8.6813">
        <ele>38.2</ele>
        <time>2021-03-20 13:08:09</time>
      </trkpt>
      <trkpt lat="41.33824" lon="-8.68133">
        <ele>38.2</ele>
        <time>2021-03-20 13:08:10</time>
      </trkpt>
      <trkpt lat="41.33825" lon="-8.68137">
        <ele>38.2</ele>
        <time>2021-03-20 13:08:11</time>
      </trkpt>
      <trkpt lat="41.33824" lon="-8.6814">
        <ele>38.2</ele>
        <time>2021-03-20 13:08:12</time>
      </trkpt>
      <trkpt lat="41.33823" lon="-8.68143">
        <ele>38.2</ele>
        <time>2021-03-20 13:08:13</time>
      </trkpt>
      <trkpt lat="41.33823" lon="-8.68147">
        <ele>38.2</ele>
        <time>2021-03-20 13:08:14</time>
      </trkpt>
      <trkpt lat="41.33822" lon="-8.68152">
        <ele>38.4</ele>
        <time>2021-03-20 13:08:15</time>
      </trkpt>
      <trkpt lat="41.33823" lon="-8.68157">
        <ele>38.4</ele>
        <time>2021-03-20 13:08:16</time>
      </trkpt>
      <trkpt lat="41.33822" lon="-8.6816">
        <ele>38.6</ele>
        <time>2021-03-20 13:08:17</time>
      </trkpt>
      <trkpt lat="41.33819" lon="-8.68164">
        <ele>38.8</ele>
        <time>2021-03-20 13:08:18</time>
      </trkpt>
      <trkpt lat="41.33818" lon="-8.68168">
        <ele>38.8</ele>
        <time>2021-03-20 13:08:19</time>
      </trkpt>
      <trkpt lat="41.33819" lon="-8.68172">
        <ele>38.8</ele>
        <time>2021-03-20 13:08:20</time>
      </trkpt>
      <trkpt lat="41.33819" lon="-8.68176">
        <ele>38.8</ele>
        <time>2021-03-20 13:08:21</time>
      </trkpt>
      <trkpt lat="41.33819" lon="-8.68179">
        <ele>39</ele>
        <time>2021-03-20 13:08:22</time>
      </trkpt>
      <trkpt lat="41.33819" lon="-8.68181">
        <ele>38.8</ele>
        <time>2021-03-20 13:08:23</time>
      </trkpt>
      <trkpt lat="41.33819" lon="-8.68184">
        <ele>39</ele>
        <time>2021-03-20 13:08:24</time>
      </trkpt>
      <trkpt lat="41.3382" lon="-8.68187">
        <ele>39.2</ele>
        <time>2021-03-20 13:08:25</time>
      </trkpt>
      <trkpt lat="41.3382" lon="-8.68191">
        <ele>39.2</ele>
        <time>2021-03-20 13:08:26</time>
      </trkpt>
      <trkpt lat="41.3382" lon="-8.68192">
        <ele>39.4</ele>
        <time>2021-03-20 13:08:27</time>
      </trkpt>
      <trkpt lat="41.33821" lon="-8.68196">
        <ele>39.8</ele>
        <time>2021-03-20 13:08:28</time>
      </trkpt>
      <trkpt lat="41.33819" lon="-8.682">
        <ele>39.8</ele>
        <time>2021-03-20 13:08:29</time>
      </trkpt>
      <trkpt lat="41.33815" lon="-8.68206">
        <ele>39.2</ele>
        <time>2021-03-20 13:08:30</time>
      </trkpt>
      <trkpt lat="41.33812" lon="-8.68211">
        <ele>39.2</ele>
        <time>2021-03-20 13:08:31</time>
      </trkpt>
      <trkpt lat="41.3381" lon="-8.68219">
        <ele>39.2</ele>
        <time>2021-03-20 13:08:32</time>
      </trkpt>
      <trkpt lat="41.3381" lon="-8.68226">
        <ele>39.2</ele>
        <time>2021-03-20 13:08:33</time>
      </trkpt>
      <trkpt lat="41.33809" lon="-8.68234">
        <ele>39</ele>
        <time>2021-03-20 13:08:34</time>
      </trkpt>
      <trkpt lat="41.33808" lon="-8.6824">
        <ele>38.8</ele>
        <time>2021-03-20 13:08:35</time>
      </trkpt>
      <trkpt lat="41.33811" lon="-8.68244">
        <ele>38.8</ele>
        <time>2021-03-20 13:08:36</time>
      </trkpt>
      <trkpt lat="41.33809" lon="-8.68252">
        <ele>38.8</ele>
        <time>2021-03-20 13:08:37</time>
      </trkpt>
      <trkpt lat="41.33809" lon="-8.68259">
        <ele>38.6</ele>
        <time>2021-03-20 13:08:38</time>
      </trkpt>
      <trkpt lat="41.33808" lon="-8.68266">
        <ele>38.4</ele>
        <time>2021-03-20 13:08:39</time>
      </trkpt>
      <trkpt lat="41.33807" lon="-8.68273">
        <ele>38.2</ele>
        <time>2021-03-20 13:08:40</time>
      </trkpt>
      <trkpt lat="41.33809" lon="-8.68278">
        <ele>38</ele>
        <time>2021-03-20 13:08:41</time>
      </trkpt>
      <trkpt lat="41.3381" lon="-8.68288">
        <ele>37.6</ele>
        <time>2021-03-20 13:08:42</time>
      </trkpt>
      <trkpt lat="41.33811" lon="-8.68298">
        <ele>37.8</ele>
        <time>2021-03-20 13:08:43</time>
      </trkpt>
      <trkpt lat="41.33813" lon="-8.68306">
        <ele>37.6</ele>
        <time>2021-03-20 13:08:44</time>
      </trkpt>
      <trkpt lat="41.33814" lon="-8.68315">
        <ele>37.4</ele>
        <time>2021-03-20 13:08:45</time>
      </trkpt>
      <trkpt lat="41.33816" lon="-8.68324">
        <ele>37.2</ele>
        <time>2021-03-20 13:08:46</time>
      </trkpt>
      <trkpt lat="41.33816" lon="-8.68333">
        <ele>37.2</ele>
        <time>2021-03-20 13:08:47</time>
      </trkpt>
      <trkpt lat="41.33818" lon="-8.68342">
        <ele>37.2</ele>
        <time>2021-03-20 13:08:48</time>
      </trkpt>
      <trkpt lat="41.33816" lon="-8.68348">
        <ele>37.2</ele>
        <time>2021-03-20 13:08:49</time>
      </trkpt>
      <trkpt lat="41.33817" lon="-8.68356">
        <ele>37</ele>
        <time>2021-03-20 13:08:50</time>
      </trkpt>
      <trkpt lat="41.33816" lon="-8.68364">
        <ele>36.8</ele>
        <time>2021-03-20 13:08:51</time>
      </trkpt>
      <trkpt lat="41.33815" lon="-8.68373">
        <ele>36.8</ele>
        <time>2021-03-20 13:08:52</time>
      </trkpt>
      <trkpt lat="41.33815" lon="-8.68379">
        <ele>36.4</ele>
        <time>2021-03-20 13:08:53</time>
      </trkpt>
      <trkpt lat="41.33816" lon="-8.68385">
        <ele>36.2</ele>
        <time>2021-03-20 13:08:54</time>
      </trkpt>
      <trkpt lat="41.33815" lon="-8.68393">
        <ele>36.2</ele>
        <time>2021-03-20 13:08:55</time>
      </trkpt>
      <trkpt lat="41.33815" lon="-8.68402">
        <ele>36.2</ele>
        <time>2021-03-20 13:08:56</time>
      </trkpt>
      <trkpt lat="41.33813" lon="-8.6841">
        <ele>36.2</ele>
        <time>2021-03-20 13:08:57</time>
      </trkpt>
      <trkpt lat="41.33813" lon="-8.68418">
        <ele>36</ele>
        <time>2021-03-20 13:08:58</time>
      </trkpt>
      <trkpt lat="41.33812" lon="-8.6843">
        <ele>35.8</ele>
        <time>2021-03-20 13:08:59</time>
      </trkpt>
      <trkpt lat="41.33812" lon="-8.6844">
        <ele>35.6</ele>
        <time>2021-03-20 13:09:00</time>
      </trkpt>
      <trkpt lat="41.3381" lon="-8.68449">
        <ele>35.6</ele>
        <time>2021-03-20 13:09:01</time>
      </trkpt>
      <trkpt lat="41.33811" lon="-8.68457">
        <ele>35.6</ele>
        <time>2021-03-20 13:09:02</time>
      </trkpt>
      <trkpt lat="41.3381" lon="-8.68465">
        <ele>35.4</ele>
        <time>2021-03-20 13:09:03</time>
      </trkpt>
      <trkpt lat="41.33811" lon="-8.68475">
        <ele>35.2</ele>
        <time>2021-03-20 13:09:04</time>
      </trkpt>
      <trkpt lat="41.3381" lon="-8.68486">
        <ele>35</ele>
        <time>2021-03-20 13:09:05</time>
      </trkpt>
      <trkpt lat="41.3381" lon="-8.68495">
        <ele>34.8</ele>
        <time>2021-03-20 13:09:06</time>
      </trkpt>
      <trkpt lat="41.33812" lon="-8.68502">
        <ele>34.6</ele>
        <time>2021-03-20 13:09:07</time>
      </trkpt>
      <trkpt lat="41.33809" lon="-8.68512">
        <ele>34.6</ele>
        <time>2021-03-20 13:09:08</time>
      </trkpt>
      <trkpt lat="41.33809" lon="-8.68519">
        <ele>34.6</ele>
        <time>2021-03-20 13:09:09</time>
      </trkpt>
      <trkpt lat="41.3381" lon="-8.68532">
        <ele>34.4</ele>
        <time>2021-03-20 13:09:10</time>
      </trkpt>
      <trkpt lat="41.33808" lon="-8.68542">
        <ele>34.2</ele>
        <time>2021-03-20 13:09:11</time>
      </trkpt>
      <trkpt lat="41.33809" lon="-8.68549">
        <ele>34.2</ele>
        <time>2021-03-20 13:09:12</time>
      </trkpt>
      <trkpt lat="41.33808" lon="-8.68564">
        <ele>34</ele>
        <time>2021-03-20 13:09:13</time>
      </trkpt>
      <trkpt lat="41.33806" lon="-8.68575">
        <ele>34</ele>
        <time>2021-03-20 13:09:14</time>
      </trkpt>
      <trkpt lat="41.33806" lon="-8.68585">
        <ele>33.6</ele>
        <time>2021-03-20 13:09:15</time>
      </trkpt>
      <trkpt lat="41.33807" lon="-8.68595">
        <ele>33.6</ele>
        <time>2021-03-20 13:09:16</time>
      </trkpt>
      <trkpt lat="41.33807" lon="-8.68606">
        <ele>33.2</ele>
        <time>2021-03-20 13:09:17</time>
      </trkpt>
      <trkpt lat="41.33807" lon="-8.68617">
        <ele>33.4</ele>
        <time>2021-03-20 13:09:18</time>
      </trkpt>
      <trkpt lat="41.33808" lon="-8.68629">
        <ele>33</ele>
        <time>2021-03-20 13:09:19</time>
      </trkpt>
      <trkpt lat="41.33807" lon="-8.68639">
        <ele>32.6</ele>
        <time>2021-03-20 13:09:20</time>
      </trkpt>
      <trkpt lat="41.33807" lon="-8.6865">
        <ele>32.2</ele>
        <time>2021-03-20 13:09:21</time>
      </trkpt>
      <trkpt lat="41.33807" lon="-8.68662">
        <ele>31.8</ele>
        <time>2021-03-20 13:09:22</time>
      </trkpt>
      <trkpt lat="41.33807" lon="-8.68673">
        <ele>31.4</ele>
        <time>2021-03-20 13:09:23</time>
      </trkpt>
      <trkpt lat="41.33807" lon="-8.68685">
        <ele>31</ele>
        <time>2021-03-20 13:09:24</time>
      </trkpt>
      <trkpt lat="41.33807" lon="-8.68697">
        <ele>30.4</ele>
        <time>2021-03-20 13:09:25</time>
      </trkpt>
      <trkpt lat="41.33807" lon="-8.68708">
        <ele>30</ele>
        <time>2021-03-20 13:09:26</time>
      </trkpt>
      <trkpt lat="41.33807" lon="-8.68718">
        <ele>29.6</ele>
        <time>2021-03-20 13:09:27</time>
      </trkpt>
      <trkpt lat="41.33808" lon="-8.6873">
        <ele>29</ele>
        <time>2021-03-20 13:09:28</time>
      </trkpt>
      <trkpt lat="41.33807" lon="-8.6874">
        <ele>28.2</ele>
        <time>2021-03-20 13:09:29</time>
      </trkpt>
      <trkpt lat="41.33808" lon="-8.68751">
        <ele>27.8</ele>
        <time>2021-03-20 13:09:30</time>
      </trkpt>
      <trkpt lat="41.33807" lon="-8.68762">
        <ele>27.6</ele>
        <time>2021-03-20 13:09:31</time>
      </trkpt>
      <trkpt lat="41.33807" lon="-8.68773">
        <ele>27.2</ele>
        <time>2021-03-20 13:09:32</time>
      </trkpt>
      <trkpt lat="41.33807" lon="-8.68785">
        <ele>26.8</ele>
        <time>2021-03-20 13:09:33</time>
      </trkpt>
      <trkpt lat="41.33807" lon="-8.68797">
        <ele>26.4</ele>
        <time>2021-03-20 13:09:34</time>
      </trkpt>
      <trkpt lat="41.33807" lon="-8.68809">
        <ele>25.6</ele>
        <time>2021-03-20 13:09:35</time>
      </trkpt>
      <trkpt lat="41.33806" lon="-8.68821">
        <ele>25.2</ele>
        <time>2021-03-20 13:09:36</time>
      </trkpt>
      <trkpt lat="41.33807" lon="-8.68832">
        <ele>24.6</ele>
        <time>2021-03-20 13:09:37</time>
      </trkpt>
      <trkpt lat="41.33807" lon="-8.68844">
        <ele>24.2</ele>
        <time>2021-03-20 13:09:38</time>
      </trkpt>
      <trkpt lat="41.33806" lon="-8.68856">
        <ele>23.8</ele>
        <time>2021-03-20 13:09:39</time>
      </trkpt>
      <trkpt lat="41.33806" lon="-8.68868">
        <ele>23.4</ele>
        <time>2021-03-20 13:09:40</time>
      </trkpt>
      <trkpt lat="41.33806" lon="-8.6888">
        <ele>22.6</ele>
        <time>2021-03-20 13:09:41</time>
      </trkpt>
      <trkpt lat="41.33806" lon="-8.68891">
        <ele>22.6</ele>
        <time>2021-03-20 13:09:42</time>
      </trkpt>
      <trkpt lat="41.33806" lon="-8.68904">
        <ele>22.6</ele>
        <time>2021-03-20 13:09:43</time>
      </trkpt>
      <trkpt lat="41.33806" lon="-8.68915">
        <ele>22.8</ele>
        <time>2021-03-20 13:09:44</time>
      </trkpt>
      <trkpt lat="41.33805" lon="-8.68928">
        <ele>22.8</ele>
        <time>2021-03-20 13:09:45</time>
      </trkpt>
      <trkpt lat="41.33806" lon="-8.68938">
        <ele>22.6</ele>
        <time>2021-03-20 13:09:46</time>
      </trkpt>
      <trkpt lat="41.33806" lon="-8.6895">
        <ele>22.4</ele>
        <time>2021-03-20 13:09:47</time>
      </trkpt>
      <trkpt lat="41.33808" lon="-8.68962">
        <ele>22.4</ele>
        <time>2021-03-20 13:09:48</time>
      </trkpt>
      <trkpt lat="41.33809" lon="-8.68973">
        <ele>22.6</ele>
        <time>2021-03-20 13:09:49</time>
      </trkpt>
      <trkpt lat="41.33813" lon="-8.68983">
        <ele>22.8</ele>
        <time>2021-03-20 13:09:50</time>
      </trkpt>
      <trkpt lat="41.33815" lon="-8.68995">
        <ele>22.8</ele>
        <time>2021-03-20 13:09:51</time>
      </trkpt>
      <trkpt lat="41.33817" lon="-8.69007">
        <ele>22.6</ele>
        <time>2021-03-20 13:09:52</time>
      </trkpt>
      <trkpt lat="41.3382" lon="-8.69019">
        <ele>22.6</ele>
        <time>2021-03-20 13:09:53</time>
      </trkpt>
      <trkpt lat="41.33824" lon="-8.69031">
        <ele>22.8</ele>
        <time>2021-03-20 13:09:54</time>
      </trkpt>
      <trkpt lat="41.33826" lon="-8.69043">
        <ele>22.8</ele>
        <time>2021-03-20 13:09:55</time>
      </trkpt>
      <trkpt lat="41.33829" lon="-8.69057">
        <ele>23</ele>
        <time>2021-03-20 13:09:56</time>
      </trkpt>
      <trkpt lat="41.33832" lon="-8.69067">
        <ele>23.2</ele>
        <time>2021-03-20 13:09:57</time>
      </trkpt>
      <trkpt lat="41.33838" lon="-8.69084">
        <ele>23.4</ele>
        <time>2021-03-20 13:09:58</time>
      </trkpt>
      <trkpt lat="41.33844" lon="-8.69093">
        <ele>23.6</ele>
        <time>2021-03-20 13:09:59</time>
      </trkpt>
      <trkpt lat="41.33851" lon="-8.69103">
        <ele>24</ele>
        <time>2021-03-20 13:10:00</time>
      </trkpt>
      <trkpt lat="41.3386" lon="-8.69116">
        <ele>24</ele>
        <time>2021-03-20 13:10:01</time>
      </trkpt>
      <trkpt lat="41.33866" lon="-8.69122">
        <ele>24</ele>
        <time>2021-03-20 13:10:02</time>
      </trkpt>
      <trkpt lat="41.33874" lon="-8.69131">
        <ele>24.2</ele>
        <time>2021-03-20 13:10:03</time>
      </trkpt>
      <trkpt lat="41.33882" lon="-8.6914">
        <ele>24.4</ele>
        <time>2021-03-20 13:10:04</time>
      </trkpt>
      <trkpt lat="41.3389" lon="-8.69149">
        <ele>24.6</ele>
        <time>2021-03-20 13:10:05</time>
      </trkpt>
      <trkpt lat="41.33899" lon="-8.69155">
        <ele>24.8</ele>
        <time>2021-03-20 13:10:06</time>
      </trkpt>
      <trkpt lat="41.33908" lon="-8.69165">
        <ele>24.8</ele>
        <time>2021-03-20 13:10:07</time>
      </trkpt>
      <trkpt lat="41.33916" lon="-8.69174">
        <ele>24.8</ele>
        <time>2021-03-20 13:10:08</time>
      </trkpt>
      <trkpt lat="41.33923" lon="-8.69183">
        <ele>24.8</ele>
        <time>2021-03-20 13:10:09</time>
      </trkpt>
      <trkpt lat="41.3393" lon="-8.69191">
        <ele>25</ele>
        <time>2021-03-20 13:10:10</time>
      </trkpt>
      <trkpt lat="41.33938" lon="-8.692">
        <ele>25</ele>
        <time>2021-03-20 13:10:11</time>
      </trkpt>
      <trkpt lat="41.33946" lon="-8.69209">
        <ele>25.2</ele>
        <time>2021-03-20 13:10:12</time>
      </trkpt>
      <trkpt lat="41.33953" lon="-8.69218">
        <ele>25.4</ele>
        <time>2021-03-20 13:10:13</time>
      </trkpt>
      <trkpt lat="41.3396" lon="-8.69227">
        <ele>25.4</ele>
        <time>2021-03-20 13:10:14</time>
      </trkpt>
      <trkpt lat="41.33966" lon="-8.69237">
        <ele>25.4</ele>
        <time>2021-03-20 13:10:15</time>
      </trkpt>
      <trkpt lat="41.33971" lon="-8.69248">
        <ele>25.4</ele>
        <time>2021-03-20 13:10:16</time>
      </trkpt>
      <trkpt lat="41.33977" lon="-8.69258">
        <ele>25.4</ele>
        <time>2021-03-20 13:10:17</time>
      </trkpt>
      <trkpt lat="41.33982" lon="-8.69268">
        <ele>25.4</ele>
        <time>2021-03-20 13:10:18</time>
      </trkpt>
      <trkpt lat="41.33987" lon="-8.69278">
        <ele>26</ele>
        <time>2021-03-20 13:10:19</time>
      </trkpt>
      <trkpt lat="41.33993" lon="-8.69288">
        <ele>26</ele>
        <time>2021-03-20 13:10:20</time>
      </trkpt>
      <trkpt lat="41.33998" lon="-8.69298">
        <ele>26</ele>
        <time>2021-03-20 13:10:21</time>
      </trkpt>
      <trkpt lat="41.34003" lon="-8.69308">
        <ele>26</ele>
        <time>2021-03-20 13:10:22</time>
      </trkpt>
      <trkpt lat="41.34008" lon="-8.69318">
        <ele>26.2</ele>
        <time>2021-03-20 13:10:23</time>
      </trkpt>
      <trkpt lat="41.34014" lon="-8.69328">
        <ele>26.2</ele>
        <time>2021-03-20 13:10:24</time>
      </trkpt>
      <trkpt lat="41.34018" lon="-8.69337">
        <ele>26</ele>
        <time>2021-03-20 13:10:25</time>
      </trkpt>
      <trkpt lat="41.34022" lon="-8.69346">
        <ele>26.2</ele>
        <time>2021-03-20 13:10:26</time>
      </trkpt>
      <trkpt lat="41.34026" lon="-8.69356">
        <ele>27.6</ele>
        <time>2021-03-20 13:10:27</time>
      </trkpt>
      <trkpt lat="41.34029" lon="-8.69365">
        <ele>28</ele>
        <time>2021-03-20 13:10:28</time>
      </trkpt>
      <trkpt lat="41.34032" lon="-8.69375">
        <ele>28.4</ele>
        <time>2021-03-20 13:10:29</time>
      </trkpt>
      <trkpt lat="41.34035" lon="-8.69385">
        <ele>27.6</ele>
        <time>2021-03-20 13:10:30</time>
      </trkpt>
      <trkpt lat="41.34038" lon="-8.69394">
        <ele>27.4</ele>
        <time>2021-03-20 13:10:31</time>
      </trkpt>
      <trkpt lat="41.34042" lon="-8.69403">
        <ele>27.2</ele>
        <time>2021-03-20 13:10:32</time>
      </trkpt>
      <trkpt lat="41.34044" lon="-8.69413">
        <ele>27.2</ele>
        <time>2021-03-20 13:10:33</time>
      </trkpt>
      <trkpt lat="41.34046" lon="-8.69422">
        <ele>27.6</ele>
        <time>2021-03-20 13:10:34</time>
      </trkpt>
      <trkpt lat="41.34048" lon="-8.69431">
        <ele>27.4</ele>
        <time>2021-03-20 13:10:35</time>
      </trkpt>
      <trkpt lat="41.34051" lon="-8.69438">
        <ele>27.4</ele>
        <time>2021-03-20 13:10:36</time>
      </trkpt>
      <trkpt lat="41.34054" lon="-8.69446">
        <ele>27.8</ele>
        <time>2021-03-20 13:10:37</time>
      </trkpt>
      <trkpt lat="41.34057" lon="-8.69453">
        <ele>27.6</ele>
        <time>2021-03-20 13:10:38</time>
      </trkpt>
      <trkpt lat="41.34059" lon="-8.69461">
        <ele>27.6</ele>
        <time>2021-03-20 13:10:39</time>
      </trkpt>
      <trkpt lat="41.34061" lon="-8.6947">
        <ele>27.6</ele>
        <time>2021-03-20 13:10:40</time>
      </trkpt>
      <trkpt lat="41.34063" lon="-8.69479">
        <ele>28.2</ele>
        <time>2021-03-20 13:10:41</time>
      </trkpt>
      <trkpt lat="41.34065" lon="-8.69487">
        <ele>28.4</ele>
        <time>2021-03-20 13:10:42</time>
      </trkpt>
      <trkpt lat="41.34067" lon="-8.69495">
        <ele>28.6</ele>
        <time>2021-03-20 13:10:43</time>
      </trkpt>
      <trkpt lat="41.34069" lon="-8.69504">
        <ele>28.6</ele>
        <time>2021-03-20 13:10:44</time>
      </trkpt>
      <trkpt lat="41.34071" lon="-8.69513">
        <ele>28.8</ele>
        <time>2021-03-20 13:10:45</time>
      </trkpt>
      <trkpt lat="41.34074" lon="-8.69521">
        <ele>28.8</ele>
        <time>2021-03-20 13:10:46</time>
      </trkpt>
      <trkpt lat="41.34077" lon="-8.6953">
        <ele>28.8</ele>
        <time>2021-03-20 13:10:47</time>
      </trkpt>
      <trkpt lat="41.34079" lon="-8.6954">
        <ele>28.8</ele>
        <time>2021-03-20 13:10:48</time>
      </trkpt>
      <trkpt lat="41.34082" lon="-8.69548">
        <ele>28.6</ele>
        <time>2021-03-20 13:10:49</time>
      </trkpt>
      <trkpt lat="41.34084" lon="-8.69557">
        <ele>28.6</ele>
        <time>2021-03-20 13:10:50</time>
      </trkpt>
      <trkpt lat="41.34085" lon="-8.69566">
        <ele>28.6</ele>
        <time>2021-03-20 13:10:51</time>
      </trkpt>
      <trkpt lat="41.34087" lon="-8.69575">
        <ele>28.8</ele>
        <time>2021-03-20 13:10:52</time>
      </trkpt>
      <trkpt lat="41.34088" lon="-8.69585">
        <ele>28.2</ele>
        <time>2021-03-20 13:10:53</time>
      </trkpt>
      <trkpt lat="41.34089" lon="-8.69595">
        <ele>28.2</ele>
        <time>2021-03-20 13:10:54</time>
      </trkpt>
      <trkpt lat="41.3409" lon="-8.69604">
        <ele>28</ele>
        <time>2021-03-20 13:10:55</time>
      </trkpt>
      <trkpt lat="41.34091" lon="-8.69614">
        <ele>27.8</ele>
        <time>2021-03-20 13:10:56</time>
      </trkpt>
      <trkpt lat="41.3409" lon="-8.69625">
        <ele>27.6</ele>
        <time>2021-03-20 13:10:57</time>
      </trkpt>
      <trkpt lat="41.34091" lon="-8.69637">
        <ele>27.4</ele>
        <time>2021-03-20 13:10:58</time>
      </trkpt>
      <trkpt lat="41.3409" lon="-8.69651">
        <ele>26.8</ele>
        <time>2021-03-20 13:10:59</time>
      </trkpt>
      <trkpt lat="41.34088" lon="-8.6967">
        <ele>27</ele>
        <time>2021-03-20 13:11:00</time>
      </trkpt>
      <trkpt lat="41.34087" lon="-8.69684">
        <ele>27.2</ele>
        <time>2021-03-20 13:11:01</time>
      </trkpt>
      <trkpt lat="41.34086" lon="-8.69695">
        <ele>27</ele>
        <time>2021-03-20 13:11:02</time>
      </trkpt>
      <trkpt lat="41.34086" lon="-8.69705">
        <ele>26.6</ele>
        <time>2021-03-20 13:11:03</time>
      </trkpt>
      <trkpt lat="41.34086" lon="-8.69713">
        <ele>26.4</ele>
        <time>2021-03-20 13:11:04</time>
      </trkpt>
      <trkpt lat="41.34086" lon="-8.69722">
        <ele>26.2</ele>
        <time>2021-03-20 13:11:05</time>
      </trkpt>
      <trkpt lat="41.34086" lon="-8.6973">
        <ele>26.2</ele>
        <time>2021-03-20 13:11:06</time>
      </trkpt>
      <trkpt lat="41.34086" lon="-8.69739">
        <ele>25.8</ele>
        <time>2021-03-20 13:11:07</time>
      </trkpt>
      <trkpt lat="41.34087" lon="-8.69749">
        <ele>25.4</ele>
        <time>2021-03-20 13:11:08</time>
      </trkpt>
      <trkpt lat="41.34089" lon="-8.69757">
        <ele>25.2</ele>
        <time>2021-03-20 13:11:09</time>
      </trkpt>
      <trkpt lat="41.34092" lon="-8.69763">
        <ele>25</ele>
        <time>2021-03-20 13:11:10</time>
      </trkpt>
      <trkpt lat="41.34094" lon="-8.69772">
        <ele>25</ele>
        <time>2021-03-20 13:11:11</time>
      </trkpt>
      <trkpt lat="41.34095" lon="-8.69781">
        <ele>24.8</ele>
        <time>2021-03-20 13:11:12</time>
      </trkpt>
      <trkpt lat="41.34098" lon="-8.69791">
        <ele>24.8</ele>
        <time>2021-03-20 13:11:13</time>
      </trkpt>
      <trkpt lat="41.34099" lon="-8.69797">
        <ele>24.4</ele>
        <time>2021-03-20 13:11:14</time>
      </trkpt>
      <trkpt lat="41.34102" lon="-8.69805">
        <ele>24</ele>
        <time>2021-03-20 13:11:15</time>
      </trkpt>
      <trkpt lat="41.34104" lon="-8.69814">
        <ele>23.4</ele>
        <time>2021-03-20 13:11:16</time>
      </trkpt>
      <trkpt lat="41.34106" lon="-8.69822">
        <ele>23.2</ele>
        <time>2021-03-20 13:11:17</time>
      </trkpt>
      <trkpt lat="41.34106" lon="-8.69831">
        <ele>23</ele>
        <time>2021-03-20 13:11:18</time>
      </trkpt>
      <trkpt lat="41.34107" lon="-8.69841">
        <ele>22.6</ele>
        <time>2021-03-20 13:11:19</time>
      </trkpt>
      <trkpt lat="41.34107" lon="-8.6985">
        <ele>22.2</ele>
        <time>2021-03-20 13:11:20</time>
      </trkpt>
      <trkpt lat="41.34107" lon="-8.6986">
        <ele>22</ele>
        <time>2021-03-20 13:11:21</time>
      </trkpt>
      <trkpt lat="41.34106" lon="-8.69871">
        <ele>21.2</ele>
        <time>2021-03-20 13:11:22</time>
      </trkpt>
      <trkpt lat="41.34105" lon="-8.69882">
        <ele>20.8</ele>
        <time>2021-03-20 13:11:23</time>
      </trkpt>
      <trkpt lat="41.34102" lon="-8.69891">
        <ele>20.2</ele>
        <time>2021-03-20 13:11:24</time>
      </trkpt>
      <trkpt lat="41.34099" lon="-8.699">
        <ele>19.6</ele>
        <time>2021-03-20 13:11:25</time>
      </trkpt>
      <trkpt lat="41.34094" lon="-8.69909">
        <ele>19.4</ele>
        <time>2021-03-20 13:11:26</time>
      </trkpt>
      <trkpt lat="41.34089" lon="-8.69917">
        <ele>19.2</ele>
        <time>2021-03-20 13:11:27</time>
      </trkpt>
      <trkpt lat="41.34084" lon="-8.69925">
        <ele>19</ele>
        <time>2021-03-20 13:11:28</time>
      </trkpt>
      <trkpt lat="41.34079" lon="-8.69933">
        <ele>18.6</ele>
        <time>2021-03-20 13:11:29</time>
      </trkpt>
      <trkpt lat="41.34074" lon="-8.69941">
        <ele>18.2</ele>
        <time>2021-03-20 13:11:30</time>
      </trkpt>
      <trkpt lat="41.34069" lon="-8.69948">
        <ele>17.8</ele>
        <time>2021-03-20 13:11:31</time>
      </trkpt>
      <trkpt lat="41.34065" lon="-8.69956">
        <ele>17.8</ele>
        <time>2021-03-20 13:11:32</time>
      </trkpt>
      <trkpt lat="41.3406" lon="-8.69965">
        <ele>17.8</ele>
        <time>2021-03-20 13:11:33</time>
      </trkpt>
      <trkpt lat="41.34055" lon="-8.69972">
        <ele>17.6</ele>
        <time>2021-03-20 13:11:34</time>
      </trkpt>
      <trkpt lat="41.34052" lon="-8.6998">
        <ele>17.4</ele>
        <time>2021-03-20 13:11:35</time>
      </trkpt>
      <trkpt lat="41.3405" lon="-8.69988">
        <ele>17.6</ele>
        <time>2021-03-20 13:11:36</time>
      </trkpt>
      <trkpt lat="41.3405" lon="-8.69996">
        <ele>17.6</ele>
        <time>2021-03-20 13:11:37</time>
      </trkpt>
      <trkpt lat="41.34051" lon="-8.70004">
        <ele>17.6</ele>
        <time>2021-03-20 13:11:38</time>
      </trkpt>
      <trkpt lat="41.34051" lon="-8.70012">
        <ele>17.6</ele>
        <time>2021-03-20 13:11:39</time>
      </trkpt>
      <trkpt lat="41.34053" lon="-8.70022">
        <ele>17.8</ele>
        <time>2021-03-20 13:11:40</time>
      </trkpt>
      <trkpt lat="41.34055" lon="-8.70032">
        <ele>16.8</ele>
        <time>2021-03-20 13:11:41</time>
      </trkpt>
      <trkpt lat="41.34056" lon="-8.70044">
        <ele>18.8</ele>
        <time>2021-03-20 13:11:42</time>
      </trkpt>
      <trkpt lat="41.34057" lon="-8.70056">
        <ele>17.4</ele>
        <time>2021-03-20 13:11:43</time>
      </trkpt>
      <trkpt lat="41.34057" lon="-8.70069">
        <ele>17.4</ele>
        <time>2021-03-20 13:11:44</time>
      </trkpt>
      <trkpt lat="41.34057" lon="-8.70081">
        <ele>16.4</ele>
        <time>2021-03-20 13:11:45</time>
      </trkpt>
      <trkpt lat="41.34057" lon="-8.70094">
        <ele>17.4</ele>
        <time>2021-03-20 13:11:46</time>
      </trkpt>
      <trkpt lat="41.34057" lon="-8.70107">
        <ele>16.2</ele>
        <time>2021-03-20 13:11:47</time>
      </trkpt>
      <trkpt lat="41.34057" lon="-8.70121">
        <ele>16.2</ele>
        <time>2021-03-20 13:11:48</time>
      </trkpt>
      <trkpt lat="41.34057" lon="-8.70136">
        <ele>16.2</ele>
        <time>2021-03-20 13:11:49</time>
      </trkpt>
      <trkpt lat="41.34057" lon="-8.70151">
        <ele>16.2</ele>
        <time>2021-03-20 13:11:50</time>
      </trkpt>
      <trkpt lat="41.34059" lon="-8.70166">
        <ele>16.2</ele>
        <time>2021-03-20 13:11:51</time>
      </trkpt>
      <trkpt lat="41.3406" lon="-8.70182">
        <ele>14.8</ele>
        <time>2021-03-20 13:11:52</time>
      </trkpt>
      <trkpt lat="41.34063" lon="-8.70198">
        <ele>13.6</ele>
        <time>2021-03-20 13:11:53</time>
      </trkpt>
      <trkpt lat="41.34065" lon="-8.70213">
        <ele>13</ele>
        <time>2021-03-20 13:11:54</time>
      </trkpt>
      <trkpt lat="41.34067" lon="-8.70229">
        <ele>12.6</ele>
        <time>2021-03-20 13:11:55</time>
      </trkpt>
      <trkpt lat="41.34069" lon="-8.70245">
        <ele>12.8</ele>
        <time>2021-03-20 13:11:56</time>
      </trkpt>
      <trkpt lat="41.34072" lon="-8.70261">
        <ele>13</ele>
        <time>2021-03-20 13:11:57</time>
      </trkpt>
      <trkpt lat="41.34074" lon="-8.70277">
        <ele>12.8</ele>
        <time>2021-03-20 13:11:58</time>
      </trkpt>
      <trkpt lat="41.34077" lon="-8.70292">
        <ele>12.6</ele>
        <time>2021-03-20 13:11:59</time>
      </trkpt>
      <trkpt lat="41.34079" lon="-8.70307">
        <ele>12.4</ele>
        <time>2021-03-20 13:12:00</time>
      </trkpt>
      <trkpt lat="41.34082" lon="-8.70322">
        <ele>12.8</ele>
        <time>2021-03-20 13:12:01</time>
      </trkpt>
      <trkpt lat="41.34084" lon="-8.70337">
        <ele>13</ele>
        <time>2021-03-20 13:12:02</time>
      </trkpt>
      <trkpt lat="41.34087" lon="-8.70352">
        <ele>13</ele>
        <time>2021-03-20 13:12:03</time>
      </trkpt>
      <trkpt lat="41.34089" lon="-8.70366">
        <ele>13</ele>
        <time>2021-03-20 13:12:04</time>
      </trkpt>
      <trkpt lat="41.3409" lon="-8.70381">
        <ele>13.2</ele>
        <time>2021-03-20 13:12:05</time>
      </trkpt>
      <trkpt lat="41.34089" lon="-8.70395">
        <ele>13.4</ele>
        <time>2021-03-20 13:12:06</time>
      </trkpt>
      <trkpt lat="41.34089" lon="-8.70409">
        <ele>13</ele>
        <time>2021-03-20 13:12:07</time>
      </trkpt>
      <trkpt lat="41.34087" lon="-8.70423">
        <ele>13</ele>
        <time>2021-03-20 13:12:08</time>
      </trkpt>
      <trkpt lat="41.34085" lon="-8.70437">
        <ele>13</ele>
        <time>2021-03-20 13:12:09</time>
      </trkpt>
      <trkpt lat="41.34082" lon="-8.7045">
        <ele>13.2</ele>
        <time>2021-03-20 13:12:10</time>
      </trkpt>
      <trkpt lat="41.34079" lon="-8.70463">
        <ele>12.8</ele>
        <time>2021-03-20 13:12:11</time>
      </trkpt>
      <trkpt lat="41.34077" lon="-8.70474">
        <ele>12.8</ele>
        <time>2021-03-20 13:12:12</time>
      </trkpt>
      <trkpt lat="41.34074" lon="-8.70486">
        <ele>12.8</ele>
        <time>2021-03-20 13:12:13</time>
      </trkpt>
      <trkpt lat="41.34072" lon="-8.70498">
        <ele>13</ele>
        <time>2021-03-20 13:12:14</time>
      </trkpt>
      <trkpt lat="41.34069" lon="-8.7051">
        <ele>12.8</ele>
        <time>2021-03-20 13:12:15</time>
      </trkpt>
      <trkpt lat="41.34066" lon="-8.70521">
        <ele>12.8</ele>
        <time>2021-03-20 13:12:16</time>
      </trkpt>
      <trkpt lat="41.34064" lon="-8.70535">
        <ele>12.8</ele>
        <time>2021-03-20 13:12:17</time>
      </trkpt>
      <trkpt lat="41.34062" lon="-8.70548">
        <ele>13.6</ele>
        <time>2021-03-20 13:12:18</time>
      </trkpt>
      <trkpt lat="41.34061" lon="-8.70562">
        <ele>13.8</ele>
        <time>2021-03-20 13:12:19</time>
      </trkpt>
      <trkpt lat="41.34061" lon="-8.70575">
        <ele>14</ele>
        <time>2021-03-20 13:12:20</time>
      </trkpt>
      <trkpt lat="41.34063" lon="-8.70588">
        <ele>14.2</ele>
        <time>2021-03-20 13:12:21</time>
      </trkpt>
      <trkpt lat="41.34064" lon="-8.706">
        <ele>14.4</ele>
        <time>2021-03-20 13:12:22</time>
      </trkpt>
      <trkpt lat="41.34065" lon="-8.70613">
        <ele>14.6</ele>
        <time>2021-03-20 13:12:23</time>
      </trkpt>
      <trkpt lat="41.34067" lon="-8.70625">
        <ele>14.8</ele>
        <time>2021-03-20 13:12:24</time>
      </trkpt>
      <trkpt lat="41.3407" lon="-8.70637">
        <ele>15</ele>
        <time>2021-03-20 13:12:25</time>
      </trkpt>
      <trkpt lat="41.34071" lon="-8.7065">
        <ele>15.4</ele>
        <time>2021-03-20 13:12:26</time>
      </trkpt>
      <trkpt lat="41.34072" lon="-8.70662">
        <ele>15.8</ele>
        <time>2021-03-20 13:12:27</time>
      </trkpt>
      <trkpt lat="41.34073" lon="-8.70674">
        <ele>16.2</ele>
        <time>2021-03-20 13:12:28</time>
      </trkpt>
      <trkpt lat="41.34073" lon="-8.70687">
        <ele>16.4</ele>
        <time>2021-03-20 13:12:29</time>
      </trkpt>
      <trkpt lat="41.34075" lon="-8.70698">
        <ele>16.6</ele>
        <time>2021-03-20 13:12:30</time>
      </trkpt>
      <trkpt lat="41.34075" lon="-8.7071">
        <ele>16.8</ele>
        <time>2021-03-20 13:12:31</time>
      </trkpt>
      <trkpt lat="41.34076" lon="-8.70721">
        <ele>17.4</ele>
        <time>2021-03-20 13:12:32</time>
      </trkpt>
      <trkpt lat="41.34077" lon="-8.7073">
        <ele>17.4</ele>
        <time>2021-03-20 13:12:33</time>
      </trkpt>
      <trkpt lat="41.34078" lon="-8.70739">
        <ele>17.6</ele>
        <time>2021-03-20 13:12:34</time>
      </trkpt>
      <trkpt lat="41.3408" lon="-8.70748">
        <ele>17.6</ele>
        <time>2021-03-20 13:12:35</time>
      </trkpt>
      <trkpt lat="41.34082" lon="-8.7076">
        <ele>17.6</ele>
        <time>2021-03-20 13:12:36</time>
      </trkpt>
      <trkpt lat="41.34082" lon="-8.70771">
        <ele>17.8</ele>
        <time>2021-03-20 13:12:37</time>
      </trkpt>
      <trkpt lat="41.34086" lon="-8.7078">
        <ele>18</ele>
        <time>2021-03-20 13:12:38</time>
      </trkpt>
      <trkpt lat="41.3409" lon="-8.70791">
        <ele>18</ele>
        <time>2021-03-20 13:12:39</time>
      </trkpt>
      <trkpt lat="41.34092" lon="-8.70803">
        <ele>17.6</ele>
        <time>2021-03-20 13:12:40</time>
      </trkpt>
      <trkpt lat="41.34094" lon="-8.70814">
        <ele>18</ele>
        <time>2021-03-20 13:12:41</time>
      </trkpt>
      <trkpt lat="41.34095" lon="-8.70825">
        <ele>18.8</ele>
        <time>2021-03-20 13:12:42</time>
      </trkpt>
      <trkpt lat="41.34096" lon="-8.70836">
        <ele>19</ele>
        <time>2021-03-20 13:12:43</time>
      </trkpt>
      <trkpt lat="41.34099" lon="-8.70847">
        <ele>19.4</ele>
        <time>2021-03-20 13:12:44</time>
      </trkpt>
      <trkpt lat="41.341" lon="-8.70857">
        <ele>19.6</ele>
        <time>2021-03-20 13:12:45</time>
      </trkpt>
      <trkpt lat="41.34103" lon="-8.70869">
        <ele>20.2</ele>
        <time>2021-03-20 13:12:46</time>
      </trkpt>
      <trkpt lat="41.34105" lon="-8.70878">
        <ele>20.4</ele>
        <time>2021-03-20 13:12:47</time>
      </trkpt>
      <trkpt lat="41.34108" lon="-8.70888">
        <ele>20.8</ele>
        <time>2021-03-20 13:12:48</time>
      </trkpt>
      <trkpt lat="41.34111" lon="-8.70898">
        <ele>21.2</ele>
        <time>2021-03-20 13:12:49</time>
      </trkpt>
      <trkpt lat="41.34112" lon="-8.70907">
        <ele>21.2</ele>
        <time>2021-03-20 13:12:50</time>
      </trkpt>
      <trkpt lat="41.34115" lon="-8.70918">
        <ele>21.6</ele>
        <time>2021-03-20 13:12:51</time>
      </trkpt>
      <trkpt lat="41.34118" lon="-8.70928">
        <ele>21.8</ele>
        <time>2021-03-20 13:12:52</time>
      </trkpt>
      <trkpt lat="41.34119" lon="-8.70939">
        <ele>21.8</ele>
        <time>2021-03-20 13:12:53</time>
      </trkpt>
      <trkpt lat="41.3412" lon="-8.70948">
        <ele>22.2</ele>
        <time>2021-03-20 13:12:54</time>
      </trkpt>
      <trkpt lat="41.34121" lon="-8.70957">
        <ele>22.2</ele>
        <time>2021-03-20 13:12:55</time>
      </trkpt>
      <trkpt lat="41.34122" lon="-8.70967">
        <ele>22.6</ele>
        <time>2021-03-20 13:12:56</time>
      </trkpt>
      <trkpt lat="41.3412" lon="-8.70977">
        <ele>22.6</ele>
        <time>2021-03-20 13:12:57</time>
      </trkpt>
      <trkpt lat="41.34119" lon="-8.70986">
        <ele>23</ele>
        <time>2021-03-20 13:12:58</time>
      </trkpt>
      <trkpt lat="41.34118" lon="-8.70996">
        <ele>23.2</ele>
        <time>2021-03-20 13:12:59</time>
      </trkpt>
      <trkpt lat="41.34116" lon="-8.71005">
        <ele>23.6</ele>
        <time>2021-03-20 13:13:00</time>
      </trkpt>
      <trkpt lat="41.34116" lon="-8.71015">
        <ele>23.8</ele>
        <time>2021-03-20 13:13:01</time>
      </trkpt>
      <trkpt lat="41.34114" lon="-8.71023">
        <ele>23.8</ele>
        <time>2021-03-20 13:13:02</time>
      </trkpt>
      <trkpt lat="41.34112" lon="-8.71033">
        <ele>24.2</ele>
        <time>2021-03-20 13:13:03</time>
      </trkpt>
      <trkpt lat="41.3411" lon="-8.71041">
        <ele>24.2</ele>
        <time>2021-03-20 13:13:04</time>
      </trkpt>
      <trkpt lat="41.34107" lon="-8.71051">
        <ele>24.2</ele>
        <time>2021-03-20 13:13:05</time>
      </trkpt>
      <trkpt lat="41.34105" lon="-8.7106">
        <ele>24</ele>
        <time>2021-03-20 13:13:06</time>
      </trkpt>
      <trkpt lat="41.34103" lon="-8.71068">
        <ele>23.8</ele>
        <time>2021-03-20 13:13:07</time>
      </trkpt>
      <trkpt lat="41.34099" lon="-8.71077">
        <ele>23.6</ele>
        <time>2021-03-20 13:13:08</time>
      </trkpt>
      <trkpt lat="41.34096" lon="-8.71085">
        <ele>23.4</ele>
        <time>2021-03-20 13:13:09</time>
      </trkpt>
      <trkpt lat="41.34093" lon="-8.71092">
        <ele>23.4</ele>
        <time>2021-03-20 13:13:10</time>
      </trkpt>
      <trkpt lat="41.3409" lon="-8.71099">
        <ele>23.4</ele>
        <time>2021-03-20 13:13:11</time>
      </trkpt>
      <trkpt lat="41.34086" lon="-8.71106">
        <ele>23.2</ele>
        <time>2021-03-20 13:13:12</time>
      </trkpt>
      <trkpt lat="41.34081" lon="-8.71115">
        <ele>23</ele>
        <time>2021-03-20 13:13:13</time>
      </trkpt>
      <trkpt lat="41.34077" lon="-8.71122">
        <ele>22.8</ele>
        <time>2021-03-20 13:13:14</time>
      </trkpt>
      <trkpt lat="41.34073" lon="-8.71128">
        <ele>22.6</ele>
        <time>2021-03-20 13:13:15</time>
      </trkpt>
      <trkpt lat="41.34069" lon="-8.71135">
        <ele>22.4</ele>
        <time>2021-03-20 13:13:16</time>
      </trkpt>
      <trkpt lat="41.34066" lon="-8.71142">
        <ele>22</ele>
        <time>2021-03-20 13:13:17</time>
      </trkpt>
      <trkpt lat="41.34062" lon="-8.71149">
        <ele>22</ele>
        <time>2021-03-20 13:13:18</time>
      </trkpt>
      <trkpt lat="41.34058" lon="-8.71157">
        <ele>21.6</ele>
        <time>2021-03-20 13:13:19</time>
      </trkpt>
      <trkpt lat="41.34055" lon="-8.71164">
        <ele>21.4</ele>
        <time>2021-03-20 13:13:20</time>
      </trkpt>
      <trkpt lat="41.34052" lon="-8.71171">
        <ele>21.2</ele>
        <time>2021-03-20 13:13:21</time>
      </trkpt>
      <trkpt lat="41.34049" lon="-8.71177">
        <ele>21</ele>
        <time>2021-03-20 13:13:22</time>
      </trkpt>
      <trkpt lat="41.34046" lon="-8.71184">
        <ele>20.8</ele>
        <time>2021-03-20 13:13:23</time>
      </trkpt>
      <trkpt lat="41.34044" lon="-8.71191">
        <ele>20.6</ele>
        <time>2021-03-20 13:13:24</time>
      </trkpt>
      <trkpt lat="41.34041" lon="-8.71199">
        <ele>20.2</ele>
        <time>2021-03-20 13:13:25</time>
      </trkpt>
      <trkpt lat="41.3404" lon="-8.71206">
        <ele>19.8</ele>
        <time>2021-03-20 13:13:26</time>
      </trkpt>
      <trkpt lat="41.34039" lon="-8.71213">
        <ele>19.8</ele>
        <time>2021-03-20 13:13:27</time>
      </trkpt>
      <trkpt lat="41.34038" lon="-8.71221">
        <ele>19.8</ele>
        <time>2021-03-20 13:13:28</time>
      </trkpt>
      <trkpt lat="41.34037" lon="-8.71228">
        <ele>19.8</ele>
        <time>2021-03-20 13:13:29</time>
      </trkpt>
      <trkpt lat="41.34036" lon="-8.71235">
        <ele>19.8</ele>
        <time>2021-03-20 13:13:30</time>
      </trkpt>
      <trkpt lat="41.34035" lon="-8.71243">
        <ele>19.8</ele>
        <time>2021-03-20 13:13:31</time>
      </trkpt>
      <trkpt lat="41.34034" lon="-8.7125">
        <ele>19.8</ele>
        <time>2021-03-20 13:13:32</time>
      </trkpt>
      <trkpt lat="41.34033" lon="-8.71257">
        <ele>19.6</ele>
        <time>2021-03-20 13:13:33</time>
      </trkpt>
      <trkpt lat="41.34033" lon="-8.71264">
        <ele>19.4</ele>
        <time>2021-03-20 13:13:34</time>
      </trkpt>
      <trkpt lat="41.34032" lon="-8.71271">
        <ele>19.4</ele>
        <time>2021-03-20 13:13:35</time>
      </trkpt>
      <trkpt lat="41.3403" lon="-8.71279">
        <ele>19.4</ele>
        <time>2021-03-20 13:13:36</time>
      </trkpt>
      <trkpt lat="41.34029" lon="-8.71287">
        <ele>19.2</ele>
        <time>2021-03-20 13:13:37</time>
      </trkpt>
      <trkpt lat="41.34028" lon="-8.71296">
        <ele>19</ele>
        <time>2021-03-20 13:13:38</time>
      </trkpt>
      <trkpt lat="41.34027" lon="-8.71304">
        <ele>19</ele>
        <time>2021-03-20 13:13:39</time>
      </trkpt>
      <trkpt lat="41.34026" lon="-8.71312">
        <ele>18.8</ele>
        <time>2021-03-20 13:13:40</time>
      </trkpt>
      <trkpt lat="41.34025" lon="-8.71322">
        <ele>18.6</ele>
        <time>2021-03-20 13:13:41</time>
      </trkpt>
      <trkpt lat="41.34024" lon="-8.71331">
        <ele>18.6</ele>
        <time>2021-03-20 13:13:42</time>
      </trkpt>
      <trkpt lat="41.34023" lon="-8.71337">
        <ele>18</ele>
        <time>2021-03-20 13:13:43</time>
      </trkpt>
      <trkpt lat="41.34021" lon="-8.71346">
        <ele>18.2</ele>
        <time>2021-03-20 13:13:44</time>
      </trkpt>
      <trkpt lat="41.3402" lon="-8.71354">
        <ele>18</ele>
        <time>2021-03-20 13:13:45</time>
      </trkpt>
      <trkpt lat="41.34019" lon="-8.71364">
        <ele>18</ele>
        <time>2021-03-20 13:13:46</time>
      </trkpt>
      <trkpt lat="41.34018" lon="-8.71372">
        <ele>17.8</ele>
        <time>2021-03-20 13:13:47</time>
      </trkpt>
      <trkpt lat="41.34016" lon="-8.71381">
        <ele>17.6</ele>
        <time>2021-03-20 13:13:48</time>
      </trkpt>
      <trkpt lat="41.34014" lon="-8.71392">
        <ele>17.2</ele>
        <time>2021-03-20 13:13:49</time>
      </trkpt>
      <trkpt lat="41.34012" lon="-8.71401">
        <ele>16.6</ele>
        <time>2021-03-20 13:13:50</time>
      </trkpt>
      <trkpt lat="41.3401" lon="-8.7141">
        <ele>16</ele>
        <time>2021-03-20 13:13:51</time>
      </trkpt>
      <trkpt lat="41.34008" lon="-8.7142">
        <ele>15.6</ele>
        <time>2021-03-20 13:13:52</time>
      </trkpt>
      <trkpt lat="41.34006" lon="-8.71431">
        <ele>15</ele>
        <time>2021-03-20 13:13:53</time>
      </trkpt>
      <trkpt lat="41.34003" lon="-8.71443">
        <ele>14.4</ele>
        <time>2021-03-20 13:13:54</time>
      </trkpt>
      <trkpt lat="41.34001" lon="-8.71454">
        <ele>13.6</ele>
        <time>2021-03-20 13:13:55</time>
      </trkpt>
      <trkpt lat="41.33999" lon="-8.71464">
        <ele>13.2</ele>
        <time>2021-03-20 13:13:56</time>
      </trkpt>
      <trkpt lat="41.33998" lon="-8.71475">
        <ele>12.4</ele>
        <time>2021-03-20 13:13:57</time>
      </trkpt>
      <trkpt lat="41.33995" lon="-8.71486">
        <ele>11.8</ele>
        <time>2021-03-20 13:13:58</time>
      </trkpt>
      <trkpt lat="41.33994" lon="-8.71497">
        <ele>11.2</ele>
        <time>2021-03-20 13:13:59</time>
      </trkpt>
      <trkpt lat="41.33991" lon="-8.71511">
        <ele>11</ele>
        <time>2021-03-20 13:14:00</time>
      </trkpt>
      <trkpt lat="41.33988" lon="-8.71519">
        <ele>10.8</ele>
        <time>2021-03-20 13:14:01</time>
      </trkpt>
      <trkpt lat="41.33987" lon="-8.71529">
        <ele>11.2</ele>
        <time>2021-03-20 13:14:02</time>
      </trkpt>
      <trkpt lat="41.33985" lon="-8.7154">
        <ele>11.2</ele>
        <time>2021-03-20 13:14:03</time>
      </trkpt>
      <trkpt lat="41.33983" lon="-8.71551">
        <ele>11</ele>
        <time>2021-03-20 13:14:04</time>
      </trkpt>
      <trkpt lat="41.33979" lon="-8.71564">
        <ele>11</ele>
        <time>2021-03-20 13:14:05</time>
      </trkpt>
      <trkpt lat="41.33977" lon="-8.71572">
        <ele>10.8</ele>
        <time>2021-03-20 13:14:06</time>
      </trkpt>
      <trkpt lat="41.33975" lon="-8.71586">
        <ele>10.6</ele>
        <time>2021-03-20 13:14:07</time>
      </trkpt>
      <trkpt lat="41.33972" lon="-8.71594">
        <ele>10.4</ele>
        <time>2021-03-20 13:14:08</time>
      </trkpt>
      <trkpt lat="41.33969" lon="-8.71605">
        <ele>10.4</ele>
        <time>2021-03-20 13:14:09</time>
      </trkpt>
      <trkpt lat="41.33967" lon="-8.71616">
        <ele>10.6</ele>
        <time>2021-03-20 13:14:10</time>
      </trkpt>
      <trkpt lat="41.33964" lon="-8.71627">
        <ele>10.4</ele>
        <time>2021-03-20 13:14:11</time>
      </trkpt>
      <trkpt lat="41.33962" lon="-8.71638">
        <ele>10.2</ele>
        <time>2021-03-20 13:14:12</time>
      </trkpt>
      <trkpt lat="41.33961" lon="-8.71648">
        <ele>10.2</ele>
        <time>2021-03-20 13:14:13</time>
      </trkpt>
      <trkpt lat="41.33958" lon="-8.71657">
        <ele>10.2</ele>
        <time>2021-03-20 13:14:14</time>
      </trkpt>
      <trkpt lat="41.33955" lon="-8.71668">
        <ele>10.4</ele>
        <time>2021-03-20 13:14:15</time>
      </trkpt>
      <trkpt lat="41.33951" lon="-8.71679">
        <ele>10.4</ele>
        <time>2021-03-20 13:14:16</time>
      </trkpt>
      <trkpt lat="41.33948" lon="-8.71688">
        <ele>10.6</ele>
        <time>2021-03-20 13:14:17</time>
      </trkpt>
      <trkpt lat="41.33942" lon="-8.71698">
        <ele>10.6</ele>
        <time>2021-03-20 13:14:18</time>
      </trkpt>
      <trkpt lat="41.33936" lon="-8.71707">
        <ele>10.6</ele>
        <time>2021-03-20 13:14:19</time>
      </trkpt>
      <trkpt lat="41.3393" lon="-8.71716">
        <ele>10.6</ele>
        <time>2021-03-20 13:14:20</time>
      </trkpt>
      <trkpt lat="41.33924" lon="-8.71726">
        <ele>10.6</ele>
        <time>2021-03-20 13:14:21</time>
      </trkpt>
      <trkpt lat="41.33918" lon="-8.71735">
        <ele>10.8</ele>
        <time>2021-03-20 13:14:22</time>
      </trkpt>
      <trkpt lat="41.33913" lon="-8.71746">
        <ele>10.8</ele>
        <time>2021-03-20 13:14:23</time>
      </trkpt>
      <trkpt lat="41.3391" lon="-8.71759">
        <ele>10.8</ele>
        <time>2021-03-20 13:14:24</time>
      </trkpt>
      <trkpt lat="41.33908" lon="-8.71773">
        <ele>10.8</ele>
        <time>2021-03-20 13:14:25</time>
      </trkpt>
      <trkpt lat="41.33906" lon="-8.71788">
        <ele>11</ele>
        <time>2021-03-20 13:14:26</time>
      </trkpt>
      <trkpt lat="41.33905" lon="-8.71803">
        <ele>11</ele>
        <time>2021-03-20 13:14:27</time>
      </trkpt>
      <trkpt lat="41.33907" lon="-8.71821">
        <ele>11</ele>
        <time>2021-03-20 13:14:28</time>
      </trkpt>
      <trkpt lat="41.33908" lon="-8.71831">
        <ele>10.8</ele>
        <time>2021-03-20 13:14:29</time>
      </trkpt>
      <trkpt lat="41.3391" lon="-8.71845">
        <ele>10.8</ele>
        <time>2021-03-20 13:14:30</time>
      </trkpt>
      <trkpt lat="41.33912" lon="-8.71859">
        <ele>10.6</ele>
        <time>2021-03-20 13:14:31</time>
      </trkpt>
      <trkpt lat="41.33914" lon="-8.71873">
        <ele>10.4</ele>
        <time>2021-03-20 13:14:32</time>
      </trkpt>
      <trkpt lat="41.33916" lon="-8.7189">
        <ele>10</ele>
        <time>2021-03-20 13:14:33</time>
      </trkpt>
      <trkpt lat="41.33918" lon="-8.71902">
        <ele>10</ele>
        <time>2021-03-20 13:14:34</time>
      </trkpt>
      <trkpt lat="41.33919" lon="-8.71912">
        <ele>9.8</ele>
        <time>2021-03-20 13:14:35</time>
      </trkpt>
      <trkpt lat="41.3392" lon="-8.71924">
        <ele>9.6</ele>
        <time>2021-03-20 13:14:36</time>
      </trkpt>
      <trkpt lat="41.33922" lon="-8.71937">
        <ele>9.2</ele>
        <time>2021-03-20 13:14:37</time>
      </trkpt>
      <trkpt lat="41.33924" lon="-8.71949">
        <ele>9</ele>
        <time>2021-03-20 13:14:38</time>
      </trkpt>
      <trkpt lat="41.33926" lon="-8.7196">
        <ele>8.4</ele>
        <time>2021-03-20 13:14:39</time>
      </trkpt>
      <trkpt lat="41.33928" lon="-8.71972">
        <ele>8.2</ele>
        <time>2021-03-20 13:14:40</time>
      </trkpt>
      <trkpt lat="41.3393" lon="-8.71987">
        <ele>8</ele>
        <time>2021-03-20 13:14:41</time>
      </trkpt>
      <trkpt lat="41.33931" lon="-8.71995">
        <ele>7.8</ele>
        <time>2021-03-20 13:14:42</time>
      </trkpt>
      <trkpt lat="41.33933" lon="-8.72007">
        <ele>7.6</ele>
        <time>2021-03-20 13:14:43</time>
      </trkpt>
      <trkpt lat="41.33934" lon="-8.72018">
        <ele>7.4</ele>
        <time>2021-03-20 13:14:44</time>
      </trkpt>
      <trkpt lat="41.33936" lon="-8.7203">
        <ele>7</ele>
        <time>2021-03-20 13:14:45</time>
      </trkpt>
      <trkpt lat="41.33939" lon="-8.72045">
        <ele>7</ele>
        <time>2021-03-20 13:14:46</time>
      </trkpt>
      <trkpt lat="41.33942" lon="-8.72056">
        <ele>7</ele>
        <time>2021-03-20 13:14:47</time>
      </trkpt>
      <trkpt lat="41.33945" lon="-8.72064">
        <ele>6.8</ele>
        <time>2021-03-20 13:14:48</time>
      </trkpt>
      <trkpt lat="41.33949" lon="-8.72077">
        <ele>6.6</ele>
        <time>2021-03-20 13:14:49</time>
      </trkpt>
      <trkpt lat="41.33951" lon="-8.72085">
        <ele>6.4</ele>
        <time>2021-03-20 13:14:50</time>
      </trkpt>
      <trkpt lat="41.33953" lon="-8.72095">
        <ele>6</ele>
        <time>2021-03-20 13:14:51</time>
      </trkpt>
      <trkpt lat="41.33957" lon="-8.72105">
        <ele>5.8</ele>
        <time>2021-03-20 13:14:52</time>
      </trkpt>
      <trkpt lat="41.33959" lon="-8.72116">
        <ele>5.8</ele>
        <time>2021-03-20 13:14:53</time>
      </trkpt>
      <trkpt lat="41.33962" lon="-8.72129">
        <ele>5.8</ele>
        <time>2021-03-20 13:14:54</time>
      </trkpt>
      <trkpt lat="41.33964" lon="-8.72137">
        <ele>5.8</ele>
        <time>2021-03-20 13:14:55</time>
      </trkpt>
      <trkpt lat="41.33966" lon="-8.7215">
        <ele>5.8</ele>
        <time>2021-03-20 13:14:56</time>
      </trkpt>
      <trkpt lat="41.33966" lon="-8.72158">
        <ele>5.8</ele>
        <time>2021-03-20 13:14:57</time>
      </trkpt>
      <trkpt lat="41.33966" lon="-8.72168">
        <ele>5.8</ele>
        <time>2021-03-20 13:14:58</time>
      </trkpt>
      <trkpt lat="41.33963" lon="-8.72182">
        <ele>5.8</ele>
        <time>2021-03-20 13:14:59</time>
      </trkpt>
      <trkpt lat="41.33963" lon="-8.7219">
        <ele>6</ele>
        <time>2021-03-20 13:15:00</time>
      </trkpt>
      <trkpt lat="41.33961" lon="-8.72204">
        <ele>6</ele>
        <time>2021-03-20 13:15:01</time>
      </trkpt>
      <trkpt lat="41.33959" lon="-8.72212">
        <ele>6.4</ele>
        <time>2021-03-20 13:15:02</time>
      </trkpt>
      <trkpt lat="41.33956" lon="-8.72228">
        <ele>6.8</ele>
        <time>2021-03-20 13:15:03</time>
      </trkpt>
      <trkpt lat="41.33956" lon="-8.72237">
        <ele>7.4</ele>
        <time>2021-03-20 13:15:04</time>
      </trkpt>
      <trkpt lat="41.33954" lon="-8.72249">
        <ele>7.8</ele>
        <time>2021-03-20 13:15:05</time>
      </trkpt>
      <trkpt lat="41.33954" lon="-8.72261">
        <ele>8.2</ele>
        <time>2021-03-20 13:15:06</time>
      </trkpt>
      <trkpt lat="41.33953" lon="-8.72276">
        <ele>8.2</ele>
        <time>2021-03-20 13:15:07</time>
      </trkpt>
      <trkpt lat="41.33952" lon="-8.72284">
        <ele>8.8</ele>
        <time>2021-03-20 13:15:08</time>
      </trkpt>
      <trkpt lat="41.33952" lon="-8.72296">
        <ele>9.6</ele>
        <time>2021-03-20 13:15:09</time>
      </trkpt>
      <trkpt lat="41.33952" lon="-8.72308">
        <ele>9.8</ele>
        <time>2021-03-20 13:15:10</time>
      </trkpt>
      <trkpt lat="41.33954" lon="-8.72321">
        <ele>10.2</ele>
        <time>2021-03-20 13:15:11</time>
      </trkpt>
      <trkpt lat="41.33956" lon="-8.72333">
        <ele>10.4</ele>
        <time>2021-03-20 13:15:12</time>
      </trkpt>
      <trkpt lat="41.33958" lon="-8.72343">
        <ele>10.2</ele>
        <time>2021-03-20 13:15:13</time>
      </trkpt>
      <trkpt lat="41.3396" lon="-8.72355">
        <ele>10.4</ele>
        <time>2021-03-20 13:15:14</time>
      </trkpt>
      <trkpt lat="41.33963" lon="-8.72366">
        <ele>10.4</ele>
        <time>2021-03-20 13:15:15</time>
      </trkpt>
      <trkpt lat="41.33964" lon="-8.7238">
        <ele>10.2</ele>
        <time>2021-03-20 13:15:16</time>
      </trkpt>
      <trkpt lat="41.33966" lon="-8.72388">
        <ele>10.2</ele>
        <time>2021-03-20 13:15:17</time>
      </trkpt>
      <trkpt lat="41.33967" lon="-8.72401">
        <ele>10</ele>
        <time>2021-03-20 13:15:18</time>
      </trkpt>
      <trkpt lat="41.33968" lon="-8.7241">
        <ele>9.8</ele>
        <time>2021-03-20 13:15:19</time>
      </trkpt>
      <trkpt lat="41.33972" lon="-8.72421">
        <ele>9.6</ele>
        <time>2021-03-20 13:15:20</time>
      </trkpt>
      <trkpt lat="41.33974" lon="-8.72429">
        <ele>9.4</ele>
        <time>2021-03-20 13:15:21</time>
      </trkpt>
      <trkpt lat="41.33975" lon="-8.72442">
        <ele>9</ele>
        <time>2021-03-20 13:15:22</time>
      </trkpt>
      <trkpt lat="41.33977" lon="-8.72447">
        <ele>8.8</ele>
        <time>2021-03-20 13:15:23</time>
      </trkpt>
      <trkpt lat="41.33978" lon="-8.72456">
        <ele>8.6</ele>
        <time>2021-03-20 13:15:24</time>
      </trkpt>
      <trkpt lat="41.3398" lon="-8.72468">
        <ele>8.6</ele>
        <time>2021-03-20 13:15:25</time>
      </trkpt>
      <trkpt lat="41.33983" lon="-8.72474">
        <ele>8.6</ele>
        <time>2021-03-20 13:15:26</time>
      </trkpt>
      <trkpt lat="41.33987" lon="-8.72483">
        <ele>8.4</ele>
        <time>2021-03-20 13:15:27</time>
      </trkpt>
      <trkpt lat="41.3399" lon="-8.72489">
        <ele>8.2</ele>
        <time>2021-03-20 13:15:28</time>
      </trkpt>
      <trkpt lat="41.33997" lon="-8.72498">
        <ele>8</ele>
        <time>2021-03-20 13:15:29</time>
      </trkpt>
      <trkpt lat="41.34002" lon="-8.72502">
        <ele>7.8</ele>
        <time>2021-03-20 13:15:30</time>
      </trkpt>
      <trkpt lat="41.34007" lon="-8.72506">
        <ele>7.4</ele>
        <time>2021-03-20 13:15:31</time>
      </trkpt>
      <trkpt lat="41.34014" lon="-8.72509">
        <ele>7.6</ele>
        <time>2021-03-20 13:15:32</time>
      </trkpt>
      <trkpt lat="41.3402" lon="-8.7251">
        <ele>7.6</ele>
        <time>2021-03-20 13:15:33</time>
      </trkpt>
      <trkpt lat="41.34026" lon="-8.72511">
        <ele>7.4</ele>
        <time>2021-03-20 13:15:34</time>
      </trkpt>
      <trkpt lat="41.34031" lon="-8.72512">
        <ele>7.4</ele>
        <time>2021-03-20 13:15:35</time>
      </trkpt>
      <trkpt lat="41.34037" lon="-8.72512">
        <ele>7.4</ele>
        <time>2021-03-20 13:15:36</time>
      </trkpt>
      <trkpt lat="41.34042" lon="-8.72513">
        <ele>7.2</ele>
        <time>2021-03-20 13:15:37</time>
      </trkpt>
      <trkpt lat="41.34045" lon="-8.72513">
        <ele>7.2</ele>
        <time>2021-03-20 13:15:38</time>
      </trkpt>
      <trkpt lat="41.34049" lon="-8.72513">
        <ele>7</ele>
        <time>2021-03-20 13:15:39</time>
      </trkpt>
      <trkpt lat="41.34053" lon="-8.72513">
        <ele>7</ele>
        <time>2021-03-20 13:15:40</time>
      </trkpt>
      <trkpt lat="41.34057" lon="-8.72514">
        <ele>7</ele>
        <time>2021-03-20 13:15:41</time>
      </trkpt>
      <trkpt lat="41.34059" lon="-8.72515">
        <ele>7</ele>
        <time>2021-03-20 13:15:42</time>
      </trkpt>
      <trkpt lat="41.34059" lon="-8.72516">
        <ele>6.8</ele>
        <time>2021-03-20 13:15:43</time>
      </trkpt>
      <trkpt lat="41.34059" lon="-8.72519">
        <ele>6.8</ele>
        <time>2021-03-20 13:15:44</time>
      </trkpt>
      <trkpt lat="41.34059" lon="-8.7252">
        <ele>6.6</ele>
        <time>2021-03-20 13:15:45</time>
      </trkpt>
      <trkpt lat="41.34059" lon="-8.72521">
        <ele>6.6</ele>
        <time>2021-03-20 13:15:46</time>
      </trkpt>
      <trkpt lat="41.34058" lon="-8.72522">
        <ele>6.4</ele>
        <time>2021-03-20 13:15:47</time>
      </trkpt>
      <trkpt lat="41.34055" lon="-8.72523">
        <ele>6.2</ele>
        <time>2021-03-20 13:15:48</time>
      </trkpt>
      <trkpt lat="41.34054" lon="-8.72522">
        <ele>6.2</ele>
        <time>2021-03-20 13:15:49</time>
      </trkpt>
      <trkpt lat="41.34051" lon="-8.72523">
        <ele>6.2</ele>
        <time>2021-03-20 13:15:50</time>
      </trkpt>
      <trkpt lat="41.3405" lon="-8.72525">
        <ele>6</ele>
        <time>2021-03-20 13:15:51</time>
      </trkpt>
      <trkpt lat="41.34049" lon="-8.72527">
        <ele>6</ele>
        <time>2021-03-20 13:15:52</time>
      </trkpt>
      <trkpt lat="41.34048" lon="-8.72528">
        <ele>5.8</ele>
        <time>2021-03-20 13:15:53</time>
      </trkpt>
      <trkpt lat="41.34047" lon="-8.7253">
        <ele>5.8</ele>
        <time>2021-03-20 13:15:54</time>
      </trkpt>
      <trkpt lat="41.34047" lon="-8.72532">
        <ele>5.6</ele>
        <time>2021-03-20 13:15:55</time>
      </trkpt>
      <trkpt lat="41.34047" lon="-8.72534">
        <ele>5.4</ele>
        <time>2021-03-20 13:15:56</time>
      </trkpt>
      <trkpt lat="41.34046" lon="-8.72536">
        <ele>5.4</ele>
        <time>2021-03-20 13:15:57</time>
      </trkpt>
      <trkpt lat="41.34046" lon="-8.72538">
        <ele>5.4</ele>
        <time>2021-03-20 13:15:58</time>
      </trkpt>
      <trkpt lat="41.34046" lon="-8.72541">
        <ele>5.2</ele>
        <time>2021-03-20 13:15:59</time>
      </trkpt>
      <trkpt lat="41.34045" lon="-8.72543">
        <ele>5.2</ele>
        <time>2021-03-20 13:16:00</time>
      </trkpt>
      <trkpt lat="41.34045" lon="-8.72544">
        <ele>5.2</ele>
        <time>2021-03-20 13:16:01</time>
      </trkpt>
      <trkpt lat="41.34043" lon="-8.72544">
        <ele>5.2</ele>
        <time>2021-03-20 13:16:02</time>
      </trkpt>
      <trkpt lat="41.34041" lon="-8.72544">
        <ele>5.2</ele>
        <time>2021-03-20 13:16:03</time>
      </trkpt>
      <trkpt lat="41.34039" lon="-8.72543">
        <ele>5.2</ele>
        <time>2021-03-20 13:16:04</time>
      </trkpt>
      <trkpt lat="41.34036" lon="-8.72541">
        <ele>5</ele>
        <time>2021-03-20 13:16:05</time>
      </trkpt>
      <trkpt lat="41.34033" lon="-8.72539">
        <ele>4.8</ele>
        <time>2021-03-20 13:16:06</time>
      </trkpt>
      <trkpt lat="41.3403" lon="-8.72537">
        <ele>4.8</ele>
        <time>2021-03-20 13:16:07</time>
      </trkpt>
      <trkpt lat="41.34027" lon="-8.72536">
        <ele>5</ele>
        <time>2021-03-20 13:16:08</time>
      </trkpt>
      <trkpt lat="41.34025" lon="-8.72535">
        <ele>5</ele>
        <time>2021-03-20 13:16:09</time>
      </trkpt>
      <trkpt lat="41.34023" lon="-8.72533">
        <ele>5</ele>
        <time>2021-03-20 13:16:10</time>
      </trkpt>
      <trkpt lat="41.3402" lon="-8.72531">
        <ele>5</ele>
        <time>2021-03-20 13:16:11</time>
      </trkpt>
      <trkpt lat="41.34017" lon="-8.72529">
        <ele>5</ele>
        <time>2021-03-20 13:16:12</time>
      </trkpt>
      <trkpt lat="41.34015" lon="-8.72528">
        <ele>5</ele>
        <time>2021-03-20 13:16:13</time>
      </trkpt>
      <trkpt lat="41.34013" lon="-8.72527">
        <ele>4.8</ele>
        <time>2021-03-20 13:16:14</time>
      </trkpt>
      <trkpt lat="41.34011" lon="-8.72525">
        <ele>4.8</ele>
        <time>2021-03-20 13:16:15</time>
      </trkpt>
      <trkpt lat="41.34009" lon="-8.72523">
        <ele>4.8</ele>
        <time>2021-03-20 13:16:16</time>
      </trkpt>
      <trkpt lat="41.34007" lon="-8.72524">
        <ele>4.8</ele>
        <time>2021-03-20 13:16:17</time>
      </trkpt>
      <trkpt lat="41.34007" lon="-8.72524">
        <ele>4.8</ele>
        <time>2021-03-20 13:16:18</time>
      </trkpt>
      <trkpt lat="41.34005" lon="-8.72525">
        <ele>4.8</ele>
        <time>2021-03-20 13:16:19</time>
      </trkpt>
      <trkpt lat="41.34003" lon="-8.72526">
        <ele>4.4</ele>
        <time>2021-03-20 13:16:20</time>
      </trkpt>
      <trkpt lat="41.34002" lon="-8.72528">
        <ele>4.6</ele>
        <time>2021-03-20 13:16:21</time>
      </trkpt>
      <trkpt lat="41.34001" lon="-8.72531">
        <ele>4.4</ele>
        <time>2021-03-20 13:16:22</time>
      </trkpt>
      <trkpt lat="41.33999" lon="-8.72533">
        <ele>4.8</ele>
        <time>2021-03-20 13:16:23</time>
      </trkpt>
      <trkpt lat="41.33997" lon="-8.72535">
        <ele>4.8</ele>
        <time>2021-03-20 13:16:24</time>
      </trkpt>
      <trkpt lat="41.33994" lon="-8.72538">
        <ele>5</ele>
        <time>2021-03-20 13:16:25</time>
      </trkpt>
      <trkpt lat="41.33994" lon="-8.72541">
        <ele>4.8</ele>
        <time>2021-03-20 13:16:26</time>
      </trkpt>
      <trkpt lat="41.33993" lon="-8.72545">
        <ele>4.8</ele>
        <time>2021-03-20 13:16:27</time>
      </trkpt>
      <trkpt lat="41.33993" lon="-8.7255">
        <ele>4.6</ele>
        <time>2021-03-20 13:16:28</time>
      </trkpt>
      <trkpt lat="41.33993" lon="-8.72555">
        <ele>4.4</ele>
        <time>2021-03-20 13:16:29</time>
      </trkpt>
      <trkpt lat="41.33993" lon="-8.7256">
        <ele>4.4</ele>
        <time>2021-03-20 13:16:30</time>
      </trkpt>
      <trkpt lat="41.33993" lon="-8.72567">
        <ele>4.6</ele>
        <time>2021-03-20 13:16:31</time>
      </trkpt>
      <trkpt lat="41.33994" lon="-8.72574">
        <ele>4.6</ele>
        <time>2021-03-20 13:16:32</time>
      </trkpt>
      <trkpt lat="41.33994" lon="-8.72579">
        <ele>4.6</ele>
        <time>2021-03-20 13:16:33</time>
      </trkpt>
      <trkpt lat="41.33995" lon="-8.72585">
        <ele>4.6</ele>
        <time>2021-03-20 13:16:34</time>
      </trkpt>
      <trkpt lat="41.33996" lon="-8.72592">
        <ele>4.6</ele>
        <time>2021-03-20 13:16:35</time>
      </trkpt>
      <trkpt lat="41.33997" lon="-8.72598">
        <ele>4.6</ele>
        <time>2021-03-20 13:16:36</time>
      </trkpt>
      <trkpt lat="41.33998" lon="-8.72606">
        <ele>4.6</ele>
        <time>2021-03-20 13:16:37</time>
      </trkpt>
      <trkpt lat="41.34" lon="-8.72614">
        <ele>4.6</ele>
        <time>2021-03-20 13:16:38</time>
      </trkpt>
      <trkpt lat="41.34002" lon="-8.72621">
        <ele>4.8</ele>
        <time>2021-03-20 13:16:39</time>
      </trkpt>
      <trkpt lat="41.34004" lon="-8.72628">
        <ele>4.8</ele>
        <time>2021-03-20 13:16:40</time>
      </trkpt>
      <trkpt lat="41.34006" lon="-8.72635">
        <ele>4.8</ele>
        <time>2021-03-20 13:16:41</time>
      </trkpt>
      <trkpt lat="41.34008" lon="-8.72643">
        <ele>4.6</ele>
        <time>2021-03-20 13:16:42</time>
      </trkpt>
      <trkpt lat="41.34011" lon="-8.72651">
        <ele>4.6</ele>
        <time>2021-03-20 13:16:43</time>
      </trkpt>
      <trkpt lat="41.34013" lon="-8.72659">
        <ele>4.6</ele>
        <time>2021-03-20 13:16:44</time>
      </trkpt>
      <trkpt lat="41.34014" lon="-8.72667">
        <ele>4.4</ele>
        <time>2021-03-20 13:16:45</time>
      </trkpt>
      <trkpt lat="41.34016" lon="-8.72675">
        <ele>3.8</ele>
        <time>2021-03-20 13:16:46</time>
      </trkpt>
      <trkpt lat="41.34018" lon="-8.72682">
        <ele>3.6</ele>
        <time>2021-03-20 13:16:47</time>
      </trkpt>
      <trkpt lat="41.3402" lon="-8.72691">
        <ele>3</ele>
        <time>2021-03-20 13:16:48</time>
      </trkpt>
      <trkpt lat="41.34021" lon="-8.72697">
        <ele>2.6</ele>
        <time>2021-03-20 13:16:49</time>
      </trkpt>
      <trkpt lat="41.34023" lon="-8.72704">
        <ele>1.8</ele>
        <time>2021-03-20 13:16:50</time>
      </trkpt>
      <trkpt lat="41.34025" lon="-8.72711">
        <ele>1.4</ele>
        <time>2021-03-20 13:16:51</time>
      </trkpt>
      <trkpt lat="41.34026" lon="-8.72716">
        <ele>1</ele>
        <time>2021-03-20 13:16:52</time>
      </trkpt>
      <trkpt lat="41.34027" lon="-8.72722">
        <ele>0.4</ele>
        <time>2021-03-20 13:16:53</time>
      </trkpt>
      <trkpt lat="41.34027" lon="-8.72728">
        <ele>-0.2</ele>
        <time>2021-03-20 13:16:54</time>
      </trkpt>
      <trkpt lat="41.34029" lon="-8.72736">
        <ele>-1.2</ele>
        <time>2021-03-20 13:16:55</time>
      </trkpt>
      <trkpt lat="41.34031" lon="-8.72741">
        <ele>-1.8</ele>
        <time>2021-03-20 13:16:56</time>
      </trkpt>
      <trkpt lat="41.34033" lon="-8.7275">
        <ele>-2.8</ele>
        <time>2021-03-20 13:16:57</time>
      </trkpt>
      <trkpt lat="41.34035" lon="-8.72758">
        <ele>-3.6</ele>
        <time>2021-03-20 13:16:58</time>
      </trkpt>
      <trkpt lat="41.34037" lon="-8.72765">
        <ele>-4.4</ele>
        <time>2021-03-20 13:16:59</time>
      </trkpt>
      <trkpt lat="41.34038" lon="-8.72773">
        <ele>-4.8</ele>
        <time>2021-03-20 13:17:00</time>
      </trkpt>
      <trkpt lat="41.34039" lon="-8.72779">
        <ele>-5.4</ele>
        <time>2021-03-20 13:17:01</time>
      </trkpt>
      <trkpt lat="41.34041" lon="-8.72786">
        <ele>-5.8</ele>
        <time>2021-03-20 13:17:02</time>
      </trkpt>
      <trkpt lat="41.34042" lon="-8.72793">
        <ele>-6.4</ele>
        <time>2021-03-20 13:17:03</time>
      </trkpt>
      <trkpt lat="41.34045" lon="-8.728">
        <ele>-6.2</ele>
        <time>2021-03-20 13:17:04</time>
      </trkpt>
      <trkpt lat="41.34047" lon="-8.72803">
        <ele>-6</ele>
        <time>2021-03-20 13:17:05</time>
      </trkpt>
      <trkpt lat="41.34048" lon="-8.72808">
        <ele>-6</ele>
        <time>2021-03-20 13:17:06</time>
      </trkpt>
      <trkpt lat="41.3405" lon="-8.72812">
        <ele>-5.8</ele>
        <time>2021-03-20 13:17:07</time>
      </trkpt>
      <trkpt lat="41.34052" lon="-8.72817">
        <ele>-5.6</ele>
        <time>2021-03-20 13:17:08</time>
      </trkpt>
      <trkpt lat="41.34052" lon="-8.7282">
        <ele>-5.4</ele>
        <time>2021-03-20 13:17:09</time>
      </trkpt>
      <trkpt lat="41.34054" lon="-8.72823">
        <ele>-5.2</ele>
        <time>2021-03-20 13:17:10</time>
      </trkpt>
      <trkpt lat="41.34054" lon="-8.72825">
        <ele>-5.2</ele>
        <time>2021-03-20 13:17:11</time>
      </trkpt>
      <trkpt lat="41.34054" lon="-8.72827">
        <ele>-5.2</ele>
        <time>2021-03-20 13:17:12</time>
      </trkpt>
      <trkpt lat="41.34053" lon="-8.7283">
        <ele>-5.4</ele>
        <time>2021-03-20 13:17:13</time>
      </trkpt>
      <trkpt lat="41.34051" lon="-8.72831">
        <ele>-5.2</ele>
        <time>2021-03-20 13:17:14</time>
      </trkpt>
      <trkpt lat="41.34048" lon="-8.72834">
        <ele>-5</ele>
        <time>2021-03-20 13:17:15</time>
      </trkpt>
      <trkpt lat="41.34045" lon="-8.72838">
        <ele>-4.8</ele>
        <time>2021-03-20 13:17:16</time>
      </trkpt>
      <trkpt lat="41.34041" lon="-8.72841">
        <ele>-4.8</ele>
        <time>2021-03-20 13:17:17</time>
      </trkpt>
      <trkpt lat="41.34036" lon="-8.72844">
        <ele>-4.6</ele>
        <time>2021-03-20 13:17:18</time>
      </trkpt>
      <trkpt lat="41.3403" lon="-8.72848">
        <ele>-4.6</ele>
        <time>2021-03-20 13:17:19</time>
      </trkpt>
      <trkpt lat="41.34026" lon="-8.72851">
        <ele>-4.4</ele>
        <time>2021-03-20 13:17:20</time>
      </trkpt>
      <trkpt lat="41.34018" lon="-8.72856">
        <ele>-4.2</ele>
        <time>2021-03-20 13:17:21</time>
      </trkpt>
      <trkpt lat="41.34012" lon="-8.72859">
        <ele>-4</ele>
        <time>2021-03-20 13:17:22</time>
      </trkpt>
      <trkpt lat="41.34002" lon="-8.72867">
        <ele>-3.8</ele>
        <time>2021-03-20 13:17:23</time>
      </trkpt>
      <trkpt lat="41.33997" lon="-8.72871">
        <ele>-3.8</ele>
        <time>2021-03-20 13:17:24</time>
      </trkpt>
      <trkpt lat="41.33989" lon="-8.72878">
        <ele>-3.8</ele>
        <time>2021-03-20 13:17:25</time>
      </trkpt>
      <trkpt lat="41.3398" lon="-8.72885">
        <ele>-3.6</ele>
        <time>2021-03-20 13:17:26</time>
      </trkpt>
      <trkpt lat="41.33972" lon="-8.72892">
        <ele>-3.4</ele>
        <time>2021-03-20 13:17:27</time>
      </trkpt>
      <trkpt lat="41.33963" lon="-8.729">
        <ele>-3.4</ele>
        <time>2021-03-20 13:17:28</time>
      </trkpt>
      <trkpt lat="41.33954" lon="-8.72907">
        <ele>-3.4</ele>
        <time>2021-03-20 13:17:29</time>
      </trkpt>
      <trkpt lat="41.33945" lon="-8.72916">
        <ele>-3.4</ele>
        <time>2021-03-20 13:17:30</time>
      </trkpt>
      <trkpt lat="41.33937" lon="-8.72925">
        <ele>-3.4</ele>
        <time>2021-03-20 13:17:31</time>
      </trkpt>
      <trkpt lat="41.33932" lon="-8.72938">
        <ele>-3.2</ele>
        <time>2021-03-20 13:17:32</time>
      </trkpt>
      <trkpt lat="41.3393" lon="-8.72951">
        <ele>-3.4</ele>
        <time>2021-03-20 13:17:33</time>
      </trkpt>
      <trkpt lat="41.33929" lon="-8.72963">
        <ele>-3.4</ele>
        <time>2021-03-20 13:17:34</time>
      </trkpt>
      <trkpt lat="41.33932" lon="-8.72975">
        <ele>-3</ele>
        <time>2021-03-20 13:17:35</time>
      </trkpt>
      <trkpt lat="41.33937" lon="-8.72987">
        <ele>-2.8</ele>
        <time>2021-03-20 13:17:36</time>
      </trkpt>
      <trkpt lat="41.33941" lon="-8.72994">
        <ele>-2.6</ele>
        <time>2021-03-20 13:17:37</time>
      </trkpt>
      <trkpt lat="41.33945" lon="-8.73002">
        <ele>-2.6</ele>
        <time>2021-03-20 13:17:38</time>
      </trkpt>
      <trkpt lat="41.33949" lon="-8.7301">
        <ele>-2.4</ele>
        <time>2021-03-20 13:17:39</time>
      </trkpt>
      <trkpt lat="41.33953" lon="-8.73018">
        <ele>-2.4</ele>
        <time>2021-03-20 13:17:40</time>
      </trkpt>
      <trkpt lat="41.33957" lon="-8.73026">
        <ele>-2.4</ele>
        <time>2021-03-20 13:17:41</time>
      </trkpt>
      <trkpt lat="41.33961" lon="-8.73034">
        <ele>-2.2</ele>
        <time>2021-03-20 13:17:42</time>
      </trkpt>
      <trkpt lat="41.33965" lon="-8.73041">
        <ele>-2.4</ele>
        <time>2021-03-20 13:17:43</time>
      </trkpt>
      <trkpt lat="41.33969" lon="-8.73048">
        <ele>-2</ele>
        <time>2021-03-20 13:17:44</time>
      </trkpt>
      <trkpt lat="41.33973" lon="-8.73055">
        <ele>-1.6</ele>
        <time>2021-03-20 13:17:45</time>
      </trkpt>
      <trkpt lat="41.33977" lon="-8.73062">
        <ele>-1.4</ele>
        <time>2021-03-20 13:17:46</time>
      </trkpt>
      <trkpt lat="41.33981" lon="-8.73068">
        <ele>-1.4</ele>
        <time>2021-03-20 13:17:47</time>
      </trkpt>
      <trkpt lat="41.33985" lon="-8.73074">
        <ele>-1.4</ele>
        <time>2021-03-20 13:17:48</time>
      </trkpt>
      <trkpt lat="41.3399" lon="-8.73081">
        <ele>-1.2</ele>
        <time>2021-03-20 13:17:49</time>
      </trkpt>
      <trkpt lat="41.33993" lon="-8.73088">
        <ele>-1.2</ele>
        <time>2021-03-20 13:17:50</time>
      </trkpt>
      <trkpt lat="41.33995" lon="-8.73093">
        <ele>-1.2</ele>
        <time>2021-03-20 13:17:51</time>
      </trkpt>
      <trkpt lat="41.34" lon="-8.73099">
        <ele>-1</ele>
        <time>2021-03-20 13:17:52</time>
      </trkpt>
      <trkpt lat="41.34004" lon="-8.73101">
        <ele>-1.2</ele>
        <time>2021-03-20 13:17:53</time>
      </trkpt>
      <trkpt lat="41.34008" lon="-8.73108">
        <ele>-1.2</ele>
        <time>2021-03-20 13:17:54</time>
      </trkpt>
      <trkpt lat="41.34012" lon="-8.73115">
        <ele>-1.2</ele>
        <time>2021-03-20 13:17:55</time>
      </trkpt>
      <trkpt lat="41.34017" lon="-8.73123">
        <ele>-1.2</ele>
        <time>2021-03-20 13:17:56</time>
      </trkpt>
      <trkpt lat="41.34019" lon="-8.73128">
        <ele>-1.2</ele>
        <time>2021-03-20 13:17:57</time>
      </trkpt>
      <trkpt lat="41.34023" lon="-8.73135">
        <ele>-1.4</ele>
        <time>2021-03-20 13:17:58</time>
      </trkpt>
      <trkpt lat="41.34027" lon="-8.73142">
        <ele>-1.6</ele>
        <time>2021-03-20 13:17:59</time>
      </trkpt>
      <trkpt lat="41.34031" lon="-8.73149">
        <ele>-1.6</ele>
        <time>2021-03-20 13:18:00</time>
      </trkpt>
      <trkpt lat="41.34035" lon="-8.73156">
        <ele>-1.4</ele>
        <time>2021-03-20 13:18:01</time>
      </trkpt>
      <trkpt lat="41.34039" lon="-8.73167">
        <ele>-1.4</ele>
        <time>2021-03-20 13:18:02</time>
      </trkpt>
      <trkpt lat="41.34042" lon="-8.73172">
        <ele>-1.4</ele>
        <time>2021-03-20 13:18:03</time>
      </trkpt>
      <trkpt lat="41.34047" lon="-8.73181">
        <ele>-1.4</ele>
        <time>2021-03-20 13:18:04</time>
      </trkpt>
      <trkpt lat="41.34049" lon="-8.73187">
        <ele>-1.4</ele>
        <time>2021-03-20 13:18:05</time>
      </trkpt>
      <trkpt lat="41.34053" lon="-8.73193">
        <ele>-1.2</ele>
        <time>2021-03-20 13:18:06</time>
      </trkpt>
      <trkpt lat="41.34057" lon="-8.732">
        <ele>-1.2</ele>
        <time>2021-03-20 13:18:07</time>
      </trkpt>
      <trkpt lat="41.34061" lon="-8.73207">
        <ele>-1.4</ele>
        <time>2021-03-20 13:18:08</time>
      </trkpt>
      <trkpt lat="41.34066" lon="-8.73216">
        <ele>-1.6</ele>
        <time>2021-03-20 13:18:09</time>
      </trkpt>
      <trkpt lat="41.34069" lon="-8.7322">
        <ele>-1.8</ele>
        <time>2021-03-20 13:18:10</time>
      </trkpt>
      <trkpt lat="41.34073" lon="-8.73228">
        <ele>-2</ele>
        <time>2021-03-20 13:18:11</time>
      </trkpt>
      <trkpt lat="41.34077" lon="-8.73235">
        <ele>-2</ele>
        <time>2021-03-20 13:18:12</time>
      </trkpt>
      <trkpt lat="41.34081" lon="-8.73241">
        <ele>-1.8</ele>
        <time>2021-03-20 13:18:13</time>
      </trkpt>
      <trkpt lat="41.34085" lon="-8.73248">
        <ele>-2</ele>
        <time>2021-03-20 13:18:14</time>
      </trkpt>
      <trkpt lat="41.3409" lon="-8.73256">
        <ele>-2</ele>
        <time>2021-03-20 13:18:15</time>
      </trkpt>
      <trkpt lat="41.34094" lon="-8.73261">
        <ele>-2</ele>
        <time>2021-03-20 13:18:16</time>
      </trkpt>
      <trkpt lat="41.34098" lon="-8.73268">
        <ele>-2</ele>
        <time>2021-03-20 13:18:17</time>
      </trkpt>
      <trkpt lat="41.34102" lon="-8.73274">
        <ele>-2</ele>
        <time>2021-03-20 13:18:18</time>
      </trkpt>
      <trkpt lat="41.34106" lon="-8.73281">
        <ele>-2.2</ele>
        <time>2021-03-20 13:18:19</time>
      </trkpt>
      <trkpt lat="41.34111" lon="-8.73287">
        <ele>-2</ele>
        <time>2021-03-20 13:18:20</time>
      </trkpt>
      <trkpt lat="41.34115" lon="-8.73293">
        <ele>-2.2</ele>
        <time>2021-03-20 13:18:21</time>
      </trkpt>
      <trkpt lat="41.34121" lon="-8.73302">
        <ele>-1.8</ele>
        <time>2021-03-20 13:18:22</time>
      </trkpt>
      <trkpt lat="41.34125" lon="-8.73307">
        <ele>-2</ele>
        <time>2021-03-20 13:18:23</time>
      </trkpt>
      <trkpt lat="41.34129" lon="-8.73313">
        <ele>-2.4</ele>
        <time>2021-03-20 13:18:24</time>
      </trkpt>
      <trkpt lat="41.34134" lon="-8.73322">
        <ele>-2.2</ele>
        <time>2021-03-20 13:18:25</time>
      </trkpt>
      <trkpt lat="41.34138" lon="-8.73329">
        <ele>-2</ele>
        <time>2021-03-20 13:18:26</time>
      </trkpt>
      <trkpt lat="41.34143" lon="-8.73335">
        <ele>-1.8</ele>
        <time>2021-03-20 13:18:27</time>
      </trkpt>
      <trkpt lat="41.34147" lon="-8.73342">
        <ele>-1.8</ele>
        <time>2021-03-20 13:18:28</time>
      </trkpt>
      <trkpt lat="41.34151" lon="-8.73348">
        <ele>-2</ele>
        <time>2021-03-20 13:18:29</time>
      </trkpt>
      <trkpt lat="41.34154" lon="-8.73354">
        <ele>-1.8</ele>
        <time>2021-03-20 13:18:30</time>
      </trkpt>
      <trkpt lat="41.34158" lon="-8.7336">
        <ele>-1.8</ele>
        <time>2021-03-20 13:18:31</time>
      </trkpt>
      <trkpt lat="41.3416" lon="-8.73365">
        <ele>-1.8</ele>
        <time>2021-03-20 13:18:32</time>
      </trkpt>
      <trkpt lat="41.34164" lon="-8.73369">
        <ele>-1.8</ele>
        <time>2021-03-20 13:18:33</time>
      </trkpt>
      <trkpt lat="41.34169" lon="-8.73375">
        <ele>-2</ele>
        <time>2021-03-20 13:18:34</time>
      </trkpt>
      <trkpt lat="41.34173" lon="-8.7338">
        <ele>-1.8</ele>
        <time>2021-03-20 13:18:35</time>
      </trkpt>
      <trkpt lat="41.34176" lon="-8.73383">
        <ele>-1.4</ele>
        <time>2021-03-20 13:18:36</time>
      </trkpt>
      <trkpt lat="41.3418" lon="-8.73388">
        <ele>-1.4</ele>
        <time>2021-03-20 13:18:37</time>
      </trkpt>
      <trkpt lat="41.34184" lon="-8.73396">
        <ele>-1.4</ele>
        <time>2021-03-20 13:18:38</time>
      </trkpt>
      <trkpt lat="41.34187" lon="-8.73401">
        <ele>-1.2</ele>
        <time>2021-03-20 13:18:39</time>
      </trkpt>
      <trkpt lat="41.34191" lon="-8.73408">
        <ele>-1</ele>
        <time>2021-03-20 13:18:40</time>
      </trkpt>
      <trkpt lat="41.34196" lon="-8.73418">
        <ele>-1</ele>
        <time>2021-03-20 13:18:41</time>
      </trkpt>
      <trkpt lat="41.34199" lon="-8.73425">
        <ele>-1</ele>
        <time>2021-03-20 13:18:42</time>
      </trkpt>
      <trkpt lat="41.34203" lon="-8.73434">
        <ele>-1</ele>
        <time>2021-03-20 13:18:43</time>
      </trkpt>
      <trkpt lat="41.34208" lon="-8.73442">
        <ele>-1</ele>
        <time>2021-03-20 13:18:44</time>
      </trkpt>
      <trkpt lat="41.34213" lon="-8.7345">
        <ele>-1</ele>
        <time>2021-03-20 13:18:45</time>
      </trkpt>
      <trkpt lat="41.3422" lon="-8.7346">
        <ele>-1</ele>
        <time>2021-03-20 13:18:46</time>
      </trkpt>
      <trkpt lat="41.34224" lon="-8.73468">
        <ele>-1</ele>
        <time>2021-03-20 13:18:47</time>
      </trkpt>
      <trkpt lat="41.34229" lon="-8.73476">
        <ele>-1</ele>
        <time>2021-03-20 13:18:48</time>
      </trkpt>
      <trkpt lat="41.34234" lon="-8.73484">
        <ele>-0.6</ele>
        <time>2021-03-20 13:18:49</time>
      </trkpt>
      <trkpt lat="41.34239" lon="-8.73492">
        <ele>-0.4</ele>
        <time>2021-03-20 13:18:50</time>
      </trkpt>
      <trkpt lat="41.34244" lon="-8.735">
        <ele>-0.4</ele>
        <time>2021-03-20 13:18:51</time>
      </trkpt>
      <trkpt lat="41.34248" lon="-8.73506">
        <ele>-0.2</ele>
        <time>2021-03-20 13:18:52</time>
      </trkpt>
      <trkpt lat="41.34253" lon="-8.73514">
        <ele>-0.2</ele>
        <time>2021-03-20 13:18:53</time>
      </trkpt>
      <trkpt lat="41.3426" lon="-8.73524">
        <ele>-0.2</ele>
        <time>2021-03-20 13:18:54</time>
      </trkpt>
      <trkpt lat="41.34266" lon="-8.7353">
        <ele>-0.4</ele>
        <time>2021-03-20 13:18:55</time>
      </trkpt>
      <trkpt lat="41.3427" lon="-8.73535">
        <ele>0.2</ele>
        <time>2021-03-20 13:18:56</time>
      </trkpt>
      <trkpt lat="41.34277" lon="-8.73543">
        <ele>0.2</ele>
        <time>2021-03-20 13:18:57</time>
      </trkpt>
      <trkpt lat="41.34282" lon="-8.73548">
        <ele>0.2</ele>
        <time>2021-03-20 13:18:58</time>
      </trkpt>
      <trkpt lat="41.34288" lon="-8.73553">
        <ele>0.2</ele>
        <time>2021-03-20 13:18:59</time>
      </trkpt>
      <trkpt lat="41.34294" lon="-8.73558">
        <ele>0.2</ele>
        <time>2021-03-20 13:19:00</time>
      </trkpt>
      <trkpt lat="41.34302" lon="-8.73564">
        <ele>0.2</ele>
        <time>2021-03-20 13:19:01</time>
      </trkpt>
      <trkpt lat="41.34307" lon="-8.73568">
        <ele>0.2</ele>
        <time>2021-03-20 13:19:02</time>
      </trkpt>
      <trkpt lat="41.34315" lon="-8.73573">
        <ele>0.2</ele>
        <time>2021-03-20 13:19:03</time>
      </trkpt>
      <trkpt lat="41.3432" lon="-8.73577">
        <ele>0.2</ele>
        <time>2021-03-20 13:19:04</time>
      </trkpt>
      <trkpt lat="41.34325" lon="-8.73582">
        <ele>-0.4</ele>
        <time>2021-03-20 13:19:05</time>
      </trkpt>
      <trkpt lat="41.34331" lon="-8.73585">
        <ele>-0.4</ele>
        <time>2021-03-20 13:19:06</time>
      </trkpt>
      <trkpt lat="41.34339" lon="-8.73591">
        <ele>-1</ele>
        <time>2021-03-20 13:19:07</time>
      </trkpt>
      <trkpt lat="41.34344" lon="-8.73596">
        <ele>-1.4</ele>
        <time>2021-03-20 13:19:08</time>
      </trkpt>
      <trkpt lat="41.34349" lon="-8.73599">
        <ele>-1.6</ele>
        <time>2021-03-20 13:19:09</time>
      </trkpt>
      <trkpt lat="41.34355" lon="-8.73604">
        <ele>-2</ele>
        <time>2021-03-20 13:19:10</time>
      </trkpt>
      <trkpt lat="41.34363" lon="-8.73609">
        <ele>-2</ele>
        <time>2021-03-20 13:19:11</time>
      </trkpt>
      <trkpt lat="41.34367" lon="-8.73612">
        <ele>-2</ele>
        <time>2021-03-20 13:19:12</time>
      </trkpt>
      <trkpt lat="41.34375" lon="-8.73618">
        <ele>-2.4</ele>
        <time>2021-03-20 13:19:13</time>
      </trkpt>
      <trkpt lat="41.34381" lon="-8.73622">
        <ele>-3.2</ele>
        <time>2021-03-20 13:19:14</time>
      </trkpt>
      <trkpt lat="41.34387" lon="-8.73627">
        <ele>-3.2</ele>
        <time>2021-03-20 13:19:15</time>
      </trkpt>
      <trkpt lat="41.34393" lon="-8.73632">
        <ele>-4.2</ele>
        <time>2021-03-20 13:19:16</time>
      </trkpt>
      <trkpt lat="41.34397" lon="-8.73635">
        <ele>-4.4</ele>
        <time>2021-03-20 13:19:17</time>
      </trkpt>
      <trkpt lat="41.34405" lon="-8.7364">
        <ele>-4.6</ele>
        <time>2021-03-20 13:19:18</time>
      </trkpt>
      <trkpt lat="41.3441" lon="-8.73643">
        <ele>-5</ele>
        <time>2021-03-20 13:19:19</time>
      </trkpt>
      <trkpt lat="41.34416" lon="-8.73647">
        <ele>-5.2</ele>
        <time>2021-03-20 13:19:20</time>
      </trkpt>
      <trkpt lat="41.34422" lon="-8.73651">
        <ele>-5.4</ele>
        <time>2021-03-20 13:19:21</time>
      </trkpt>
      <trkpt lat="41.34428" lon="-8.73655">
        <ele>-5.8</ele>
        <time>2021-03-20 13:19:22</time>
      </trkpt>
      <trkpt lat="41.34435" lon="-8.7366">
        <ele>-6.6</ele>
        <time>2021-03-20 13:19:23</time>
      </trkpt>
      <trkpt lat="41.34441" lon="-8.73664">
        <ele>-7.2</ele>
        <time>2021-03-20 13:19:24</time>
      </trkpt>
      <trkpt lat="41.34446" lon="-8.73668">
        <ele>-7.6</ele>
        <time>2021-03-20 13:19:25</time>
      </trkpt>
      <trkpt lat="41.34453" lon="-8.73673">
        <ele>-8</ele>
        <time>2021-03-20 13:19:26</time>
      </trkpt>
      <trkpt lat="41.34462" lon="-8.73679">
        <ele>-8.4</ele>
        <time>2021-03-20 13:19:27</time>
      </trkpt>
      <trkpt lat="41.34467" lon="-8.73681">
        <ele>-9</ele>
        <time>2021-03-20 13:19:28</time>
      </trkpt>
      <trkpt lat="41.34473" lon="-8.73685">
        <ele>-9.4</ele>
        <time>2021-03-20 13:19:29</time>
      </trkpt>
      <trkpt lat="41.34479" lon="-8.7369">
        <ele>-9.6</ele>
        <time>2021-03-20 13:19:30</time>
      </trkpt>
      <trkpt lat="41.34486" lon="-8.73694">
        <ele>-10.2</ele>
        <time>2021-03-20 13:19:31</time>
      </trkpt>
      <trkpt lat="41.34492" lon="-8.73698">
        <ele>-10.2</ele>
        <time>2021-03-20 13:19:32</time>
      </trkpt>
      <trkpt lat="41.34499" lon="-8.73703">
        <ele>-10.2</ele>
        <time>2021-03-20 13:19:33</time>
      </trkpt>
      <trkpt lat="41.34505" lon="-8.73707">
        <ele>-10.2</ele>
        <time>2021-03-20 13:19:34</time>
      </trkpt>
      <trkpt lat="41.34511" lon="-8.7371">
        <ele>-10.2</ele>
        <time>2021-03-20 13:19:35</time>
      </trkpt>
      <trkpt lat="41.34514" lon="-8.73713">
        <ele>-10</ele>
        <time>2021-03-20 13:19:36</time>
      </trkpt>
      <trkpt lat="41.3452" lon="-8.73717">
        <ele>-9.8</ele>
        <time>2021-03-20 13:19:37</time>
      </trkpt>
      <trkpt lat="41.34526" lon="-8.73721">
        <ele>-10</ele>
        <time>2021-03-20 13:19:38</time>
      </trkpt>
      <trkpt lat="41.34532" lon="-8.73725">
        <ele>-10</ele>
        <time>2021-03-20 13:19:39</time>
      </trkpt>
      <trkpt lat="41.34541" lon="-8.7373">
        <ele>-10.2</ele>
        <time>2021-03-20 13:19:40</time>
      </trkpt>
      <trkpt lat="41.34545" lon="-8.73734">
        <ele>-9.8</ele>
        <time>2021-03-20 13:19:41</time>
      </trkpt>
      <trkpt lat="41.34552" lon="-8.73739">
        <ele>-10.2</ele>
        <time>2021-03-20 13:19:42</time>
      </trkpt>
      <trkpt lat="41.3456" lon="-8.73745">
        <ele>-10</ele>
        <time>2021-03-20 13:19:43</time>
      </trkpt>
      <trkpt lat="41.34567" lon="-8.73749">
        <ele>-10</ele>
        <time>2021-03-20 13:19:44</time>
      </trkpt>
      <trkpt lat="41.34574" lon="-8.73754">
        <ele>-10</ele>
        <time>2021-03-20 13:19:45</time>
      </trkpt>
      <trkpt lat="41.34582" lon="-8.73758">
        <ele>-10.2</ele>
        <time>2021-03-20 13:19:46</time>
      </trkpt>
      <trkpt lat="41.3459" lon="-8.73762">
        <ele>-10.4</ele>
        <time>2021-03-20 13:19:47</time>
      </trkpt>
      <trkpt lat="41.34597" lon="-8.73766">
        <ele>-10.2</ele>
        <time>2021-03-20 13:19:48</time>
      </trkpt>
      <trkpt lat="41.34604" lon="-8.7377">
        <ele>-10.2</ele>
        <time>2021-03-20 13:19:49</time>
      </trkpt>
      <trkpt lat="41.34611" lon="-8.73772">
        <ele>-10.2</ele>
        <time>2021-03-20 13:19:50</time>
      </trkpt>
      <trkpt lat="41.34618" lon="-8.73776">
        <ele>-10.6</ele>
        <time>2021-03-20 13:19:51</time>
      </trkpt>
      <trkpt lat="41.34625" lon="-8.73779">
        <ele>-10.6</ele>
        <time>2021-03-20 13:19:52</time>
      </trkpt>
      <trkpt lat="41.34634" lon="-8.73783">
        <ele>-10.8</ele>
        <time>2021-03-20 13:19:53</time>
      </trkpt>
      <trkpt lat="41.34642" lon="-8.73787">
        <ele>-11.4</ele>
        <time>2021-03-20 13:19:54</time>
      </trkpt>
      <trkpt lat="41.34649" lon="-8.7379">
        <ele>-12</ele>
        <time>2021-03-20 13:19:55</time>
      </trkpt>
      <trkpt lat="41.34658" lon="-8.73793">
        <ele>-12.4</ele>
        <time>2021-03-20 13:19:56</time>
      </trkpt>
      <trkpt lat="41.34666" lon="-8.73794">
        <ele>-12.6</ele>
        <time>2021-03-20 13:19:57</time>
      </trkpt>
      <trkpt lat="41.34675" lon="-8.73796">
        <ele>-13.2</ele>
        <time>2021-03-20 13:19:58</time>
      </trkpt>
      <trkpt lat="41.34682" lon="-8.73799">
        <ele>-13.6</ele>
        <time>2021-03-20 13:19:59</time>
      </trkpt>
      <trkpt lat="41.3469" lon="-8.73802">
        <ele>-14.2</ele>
        <time>2021-03-20 13:20:00</time>
      </trkpt>
      <trkpt lat="41.34698" lon="-8.73806">
        <ele>-14.4</ele>
        <time>2021-03-20 13:20:01</time>
      </trkpt>
      <trkpt lat="41.34707" lon="-8.73809">
        <ele>-15</ele>
        <time>2021-03-20 13:20:02</time>
      </trkpt>
      <trkpt lat="41.34715" lon="-8.73812">
        <ele>-16</ele>
        <time>2021-03-20 13:20:03</time>
      </trkpt>
      <trkpt lat="41.34724" lon="-8.73814">
        <ele>-16.6</ele>
        <time>2021-03-20 13:20:04</time>
      </trkpt>
      <trkpt lat="41.34732" lon="-8.73814">
        <ele>-17.4</ele>
        <time>2021-03-20 13:20:05</time>
      </trkpt>
      <trkpt lat="41.3474" lon="-8.73815">
        <ele>-17.8</ele>
        <time>2021-03-20 13:20:06</time>
      </trkpt>
      <trkpt lat="41.34747" lon="-8.73814">
        <ele>-18.2</ele>
        <time>2021-03-20 13:20:07</time>
      </trkpt>
      <trkpt lat="41.34756" lon="-8.73815">
        <ele>-18.8</ele>
        <time>2021-03-20 13:20:08</time>
      </trkpt>
      <trkpt lat="41.34765" lon="-8.73816">
        <ele>-19.2</ele>
        <time>2021-03-20 13:20:09</time>
      </trkpt>
      <trkpt lat="41.34773" lon="-8.73813">
        <ele>-19.4</ele>
        <time>2021-03-20 13:20:10</time>
      </trkpt>
      <trkpt lat="41.34782" lon="-8.7381">
        <ele>-19.8</ele>
        <time>2021-03-20 13:20:11</time>
      </trkpt>
      <trkpt lat="41.34789" lon="-8.73809">
        <ele>-19.6</ele>
        <time>2021-03-20 13:20:12</time>
      </trkpt>
      <trkpt lat="41.34797" lon="-8.73806">
        <ele>-19.8</ele>
        <time>2021-03-20 13:20:13</time>
      </trkpt>
      <trkpt lat="41.34805" lon="-8.73805">
        <ele>-19.6</ele>
        <time>2021-03-20 13:20:14</time>
      </trkpt>
      <trkpt lat="41.34812" lon="-8.73803">
        <ele>-19.4</ele>
        <time>2021-03-20 13:20:15</time>
      </trkpt>
      <trkpt lat="41.3482" lon="-8.73802">
        <ele>-19.2</ele>
        <time>2021-03-20 13:20:16</time>
      </trkpt>
      <trkpt lat="41.34828" lon="-8.738">
        <ele>-19</ele>
        <time>2021-03-20 13:20:17</time>
      </trkpt>
      <trkpt lat="41.34835" lon="-8.73799">
        <ele>-18.8</ele>
        <time>2021-03-20 13:20:18</time>
      </trkpt>
      <trkpt lat="41.34843" lon="-8.73799">
        <ele>-18.8</ele>
        <time>2021-03-20 13:20:19</time>
      </trkpt>
      <trkpt lat="41.3485" lon="-8.73798">
        <ele>-19</ele>
        <time>2021-03-20 13:20:20</time>
      </trkpt>
      <trkpt lat="41.34857" lon="-8.73799">
        <ele>-19.2</ele>
        <time>2021-03-20 13:20:21</time>
      </trkpt>
      <trkpt lat="41.34864" lon="-8.738">
        <ele>-19</ele>
        <time>2021-03-20 13:20:22</time>
      </trkpt>
      <trkpt lat="41.34871" lon="-8.73801">
        <ele>-19.2</ele>
        <time>2021-03-20 13:20:23</time>
      </trkpt>
      <trkpt lat="41.34878" lon="-8.73804">
        <ele>-18.8</ele>
        <time>2021-03-20 13:20:24</time>
      </trkpt>
      <trkpt lat="41.34885" lon="-8.73807">
        <ele>-18.8</ele>
        <time>2021-03-20 13:20:25</time>
      </trkpt>
      <trkpt lat="41.34893" lon="-8.73811">
        <ele>-18.8</ele>
        <time>2021-03-20 13:20:26</time>
      </trkpt>
      <trkpt lat="41.34899" lon="-8.73814">
        <ele>-18.6</ele>
        <time>2021-03-20 13:20:27</time>
      </trkpt>
      <trkpt lat="41.34907" lon="-8.73818">
        <ele>-18.6</ele>
        <time>2021-03-20 13:20:28</time>
      </trkpt>
      <trkpt lat="41.34913" lon="-8.73822">
        <ele>-18.6</ele>
        <time>2021-03-20 13:20:29</time>
      </trkpt>
      <trkpt lat="41.3492" lon="-8.73824">
        <ele>-19</ele>
        <time>2021-03-20 13:20:30</time>
      </trkpt>
      <trkpt lat="41.34929" lon="-8.7383">
        <ele>-19.4</ele>
        <time>2021-03-20 13:20:31</time>
      </trkpt>
      <trkpt lat="41.34936" lon="-8.73833">
        <ele>-19.6</ele>
        <time>2021-03-20 13:20:32</time>
      </trkpt>
      <trkpt lat="41.34945" lon="-8.73838">
        <ele>-19.4</ele>
        <time>2021-03-20 13:20:33</time>
      </trkpt>
      <trkpt lat="41.34953" lon="-8.73842">
        <ele>-19.8</ele>
        <time>2021-03-20 13:20:34</time>
      </trkpt>
      <trkpt lat="41.34961" lon="-8.73846">
        <ele>-20.4</ele>
        <time>2021-03-20 13:20:35</time>
      </trkpt>
      <trkpt lat="41.34973" lon="-8.73852">
        <ele>-20.4</ele>
        <time>2021-03-20 13:20:36</time>
      </trkpt>
      <trkpt lat="41.34982" lon="-8.73854">
        <ele>-20.6</ele>
        <time>2021-03-20 13:20:37</time>
      </trkpt>
      <trkpt lat="41.34987" lon="-8.73861">
        <ele>-20.6</ele>
        <time>2021-03-20 13:20:38</time>
      </trkpt>
      <trkpt lat="41.34996" lon="-8.73862">
        <ele>-20.6</ele>
        <time>2021-03-20 13:20:39</time>
      </trkpt>
      <trkpt lat="41.35005" lon="-8.73868">
        <ele>-20.8</ele>
        <time>2021-03-20 13:20:40</time>
      </trkpt>
      <trkpt lat="41.35013" lon="-8.73871">
        <ele>-20.8</ele>
        <time>2021-03-20 13:20:41</time>
      </trkpt>
      <trkpt lat="41.35023" lon="-8.73877">
        <ele>-21</ele>
        <time>2021-03-20 13:20:42</time>
      </trkpt>
      <trkpt lat="41.35032" lon="-8.73882">
        <ele>-20.8</ele>
        <time>2021-03-20 13:20:43</time>
      </trkpt>
      <trkpt lat="41.35039" lon="-8.73887">
        <ele>-20.8</ele>
        <time>2021-03-20 13:20:44</time>
      </trkpt>
      <trkpt lat="41.35047" lon="-8.73891">
        <ele>-20.8</ele>
        <time>2021-03-20 13:20:45</time>
      </trkpt>
      <trkpt lat="41.35055" lon="-8.73897">
        <ele>-20.6</ele>
        <time>2021-03-20 13:20:46</time>
      </trkpt>
      <trkpt lat="41.35067" lon="-8.73904">
        <ele>-20.8</ele>
        <time>2021-03-20 13:20:47</time>
      </trkpt>
      <trkpt lat="41.35075" lon="-8.73909">
        <ele>-20.8</ele>
        <time>2021-03-20 13:20:48</time>
      </trkpt>
      <trkpt lat="41.35082" lon="-8.73914">
        <ele>-20.8</ele>
        <time>2021-03-20 13:20:49</time>
      </trkpt>
      <trkpt lat="41.3509" lon="-8.73918">
        <ele>-20.8</ele>
        <time>2021-03-20 13:20:50</time>
      </trkpt>
      <trkpt lat="41.35099" lon="-8.73922">
        <ele>-21</ele>
        <time>2021-03-20 13:20:51</time>
      </trkpt>
      <trkpt lat="41.35104" lon="-8.73926">
        <ele>-21.2</ele>
        <time>2021-03-20 13:20:52</time>
      </trkpt>
      <trkpt lat="41.35114" lon="-8.73931">
        <ele>-21.4</ele>
        <time>2021-03-20 13:20:53</time>
      </trkpt>
      <trkpt lat="41.35119" lon="-8.73933">
        <ele>-21.6</ele>
        <time>2021-03-20 13:20:54</time>
      </trkpt>
      <trkpt lat="41.35128" lon="-8.73938">
        <ele>-21.8</ele>
        <time>2021-03-20 13:20:55</time>
      </trkpt>
      <trkpt lat="41.35135" lon="-8.73942">
        <ele>-21.6</ele>
        <time>2021-03-20 13:20:56</time>
      </trkpt>
      <trkpt lat="41.35142" lon="-8.73945">
        <ele>-21.6</ele>
        <time>2021-03-20 13:20:57</time>
      </trkpt>
      <trkpt lat="41.35146" lon="-8.73948">
        <ele>-21.6</ele>
        <time>2021-03-20 13:20:58</time>
      </trkpt>
      <trkpt lat="41.35153" lon="-8.73951">
        <ele>-21.6</ele>
        <time>2021-03-20 13:20:59</time>
      </trkpt>
      <trkpt lat="41.35157" lon="-8.73953">
        <ele>-21</ele>
        <time>2021-03-20 13:21:00</time>
      </trkpt>
      <trkpt lat="41.35162" lon="-8.73955">
        <ele>-20.8</ele>
        <time>2021-03-20 13:21:01</time>
      </trkpt>
      <trkpt lat="41.35166" lon="-8.73958">
        <ele>-21</ele>
        <time>2021-03-20 13:21:02</time>
      </trkpt>
      <trkpt lat="41.3517" lon="-8.7396">
        <ele>-20.6</ele>
        <time>2021-03-20 13:21:03</time>
      </trkpt>
      <trkpt lat="41.35175" lon="-8.73962">
        <ele>-20.2</ele>
        <time>2021-03-20 13:21:04</time>
      </trkpt>
      <trkpt lat="41.35179" lon="-8.73964">
        <ele>-20.2</ele>
        <time>2021-03-20 13:21:05</time>
      </trkpt>
      <trkpt lat="41.35185" lon="-8.73967">
        <ele>-20</ele>
        <time>2021-03-20 13:21:06</time>
      </trkpt>
      <trkpt lat="41.35192" lon="-8.7397">
        <ele>-19.8</ele>
        <time>2021-03-20 13:21:07</time>
      </trkpt>
      <trkpt lat="41.35199" lon="-8.73974">
        <ele>-19.6</ele>
        <time>2021-03-20 13:21:08</time>
      </trkpt>
      <trkpt lat="41.35204" lon="-8.73977">
        <ele>-19.2</ele>
        <time>2021-03-20 13:21:09</time>
      </trkpt>
      <trkpt lat="41.35208" lon="-8.73978">
        <ele>-19</ele>
        <time>2021-03-20 13:21:10</time>
      </trkpt>
      <trkpt lat="41.35214" lon="-8.73982">
        <ele>-18.8</ele>
        <time>2021-03-20 13:21:11</time>
      </trkpt>
      <trkpt lat="41.35222" lon="-8.73985">
        <ele>-18.6</ele>
        <time>2021-03-20 13:21:12</time>
      </trkpt>
      <trkpt lat="41.35228" lon="-8.73989">
        <ele>-18.4</ele>
        <time>2021-03-20 13:21:13</time>
      </trkpt>
      <trkpt lat="41.35237" lon="-8.73992">
        <ele>-18.4</ele>
        <time>2021-03-20 13:21:14</time>
      </trkpt>
      <trkpt lat="41.35241" lon="-8.73995">
        <ele>-18.4</ele>
        <time>2021-03-20 13:21:15</time>
      </trkpt>
      <trkpt lat="41.35247" lon="-8.73998">
        <ele>-18.4</ele>
        <time>2021-03-20 13:21:16</time>
      </trkpt>
      <trkpt lat="41.35255" lon="-8.74002">
        <ele>-18.2</ele>
        <time>2021-03-20 13:21:17</time>
      </trkpt>
      <trkpt lat="41.35259" lon="-8.74005">
        <ele>-18.2</ele>
        <time>2021-03-20 13:21:18</time>
      </trkpt>
      <trkpt lat="41.35267" lon="-8.74008">
        <ele>-17</ele>
        <time>2021-03-20 13:21:19</time>
      </trkpt>
      <trkpt lat="41.35273" lon="-8.74012">
        <ele>-17.4</ele>
        <time>2021-03-20 13:21:20</time>
      </trkpt>
      <trkpt lat="41.35279" lon="-8.74015">
        <ele>-17.4</ele>
        <time>2021-03-20 13:21:21</time>
      </trkpt>
      <trkpt lat="41.35289" lon="-8.7402">
        <ele>-17.2</ele>
        <time>2021-03-20 13:21:22</time>
      </trkpt>
      <trkpt lat="41.35295" lon="-8.74026">
        <ele>-17</ele>
        <time>2021-03-20 13:21:23</time>
      </trkpt>
      <trkpt lat="41.35301" lon="-8.74031">
        <ele>-17</ele>
        <time>2021-03-20 13:21:24</time>
      </trkpt>
      <trkpt lat="41.35307" lon="-8.74035">
        <ele>-17</ele>
        <time>2021-03-20 13:21:25</time>
      </trkpt>
      <trkpt lat="41.35312" lon="-8.74041">
        <ele>-17</ele>
        <time>2021-03-20 13:21:26</time>
      </trkpt>
      <trkpt lat="41.35317" lon="-8.74044">
        <ele>-16.8</ele>
        <time>2021-03-20 13:21:27</time>
      </trkpt>
      <trkpt lat="41.35321" lon="-8.74049">
        <ele>-16.8</ele>
        <time>2021-03-20 13:21:28</time>
      </trkpt>
      <trkpt lat="41.35325" lon="-8.74056">
        <ele>-16.4</ele>
        <time>2021-03-20 13:21:29</time>
      </trkpt>
      <trkpt lat="41.35327" lon="-8.74063">
        <ele>-15.8</ele>
        <time>2021-03-20 13:21:30</time>
      </trkpt>
      <trkpt lat="41.35329" lon="-8.74071">
        <ele>-15.6</ele>
        <time>2021-03-20 13:21:31</time>
      </trkpt>
      <trkpt lat="41.35326" lon="-8.74077">
        <ele>-15.4</ele>
        <time>2021-03-20 13:21:32</time>
      </trkpt>
      <trkpt lat="41.35327" lon="-8.74084">
        <ele>-15</ele>
        <time>2021-03-20 13:21:33</time>
      </trkpt>
      <trkpt lat="41.35325" lon="-8.74093">
        <ele>-14.6</ele>
        <time>2021-03-20 13:21:34</time>
      </trkpt>
      <trkpt lat="41.35324" lon="-8.74101">
        <ele>-14.6</ele>
        <time>2021-03-20 13:21:35</time>
      </trkpt>
      <trkpt lat="41.35322" lon="-8.74108">
        <ele>-14.4</ele>
        <time>2021-03-20 13:21:36</time>
      </trkpt>
      <trkpt lat="41.35322" lon="-8.74115">
        <ele>-14.2</ele>
        <time>2021-03-20 13:21:37</time>
      </trkpt>
      <trkpt lat="41.35321" lon="-8.7412">
        <ele>-14.2</ele>
        <time>2021-03-20 13:21:38</time>
      </trkpt>
      <trkpt lat="41.35321" lon="-8.74126">
        <ele>-14.4</ele>
        <time>2021-03-20 13:21:39</time>
      </trkpt>
      <trkpt lat="41.3532" lon="-8.74132">
        <ele>-14.4</ele>
        <time>2021-03-20 13:21:40</time>
      </trkpt>
      <trkpt lat="41.3532" lon="-8.74138">
        <ele>-14.4</ele>
        <time>2021-03-20 13:21:41</time>
      </trkpt>
      <trkpt lat="41.35319" lon="-8.74144">
        <ele>-14.6</ele>
        <time>2021-03-20 13:21:42</time>
      </trkpt>
      <trkpt lat="41.35319" lon="-8.74151">
        <ele>-14.8</ele>
        <time>2021-03-20 13:21:43</time>
      </trkpt>
      <trkpt lat="41.35318" lon="-8.74156">
        <ele>-14.8</ele>
        <time>2021-03-20 13:21:44</time>
      </trkpt>
      <trkpt lat="41.35319" lon="-8.74162">
        <ele>-14.8</ele>
        <time>2021-03-20 13:21:45</time>
      </trkpt>
      <trkpt lat="41.35319" lon="-8.74169">
        <ele>-14.8</ele>
        <time>2021-03-20 13:21:46</time>
      </trkpt>
      <trkpt lat="41.35318" lon="-8.74177">
        <ele>-14.8</ele>
        <time>2021-03-20 13:21:47</time>
      </trkpt>
      <trkpt lat="41.35318" lon="-8.74185">
        <ele>-14.8</ele>
        <time>2021-03-20 13:21:48</time>
      </trkpt>
      <trkpt lat="41.35319" lon="-8.74192">
        <ele>-14.8</ele>
        <time>2021-03-20 13:21:49</time>
      </trkpt>
      <trkpt lat="41.35318" lon="-8.74198">
        <ele>-14.8</ele>
        <time>2021-03-20 13:21:50</time>
      </trkpt>
      <trkpt lat="41.35318" lon="-8.74209">
        <ele>-14.8</ele>
        <time>2021-03-20 13:21:51</time>
      </trkpt>
      <trkpt lat="41.35319" lon="-8.74218">
        <ele>-14.8</ele>
        <time>2021-03-20 13:21:52</time>
      </trkpt>
      <trkpt lat="41.35319" lon="-8.74225">
        <ele>-14</ele>
        <time>2021-03-20 13:21:53</time>
      </trkpt>
      <trkpt lat="41.3532" lon="-8.74233">
        <ele>-13.8</ele>
        <time>2021-03-20 13:21:54</time>
      </trkpt>
      <trkpt lat="41.35318" lon="-8.74243">
        <ele>-13.4</ele>
        <time>2021-03-20 13:21:55</time>
      </trkpt>
      <trkpt lat="41.35318" lon="-8.7425">
        <ele>-13.4</ele>
        <time>2021-03-20 13:21:56</time>
      </trkpt>
      <trkpt lat="41.35316" lon="-8.74257">
        <ele>-13.2</ele>
        <time>2021-03-20 13:21:57</time>
      </trkpt>
      <trkpt lat="41.35316" lon="-8.74267">
        <ele>-12.8</ele>
        <time>2021-03-20 13:21:58</time>
      </trkpt>
      <trkpt lat="41.35318" lon="-8.74276">
        <ele>-12.4</ele>
        <time>2021-03-20 13:21:59</time>
      </trkpt>
      <trkpt lat="41.35321" lon="-8.74283">
        <ele>-12.6</ele>
        <time>2021-03-20 13:22:00</time>
      </trkpt>
      <trkpt lat="41.35323" lon="-8.7429">
        <ele>-12.6</ele>
        <time>2021-03-20 13:22:01</time>
      </trkpt>
      <trkpt lat="41.35323" lon="-8.74296">
        <ele>-12.4</ele>
        <time>2021-03-20 13:22:02</time>
      </trkpt>
      <trkpt lat="41.35331" lon="-8.74302">
        <ele>-12</ele>
        <time>2021-03-20 13:22:03</time>
      </trkpt>
      <trkpt lat="41.35337" lon="-8.74306">
        <ele>-12</ele>
        <time>2021-03-20 13:22:04</time>
      </trkpt>
      <trkpt lat="41.35335" lon="-8.74309">
        <ele>-12.2</ele>
        <time>2021-03-20 13:22:05</time>
      </trkpt>
      <trkpt lat="41.35339" lon="-8.7431">
        <ele>-12</ele>
        <time>2021-03-20 13:22:06</time>
      </trkpt>
      <trkpt lat="41.35338" lon="-8.74312">
        <ele>-11.8</ele>
        <time>2021-03-20 13:22:07</time>
      </trkpt>
      <trkpt lat="41.3534" lon="-8.74313">
        <ele>-11.4</ele>
        <time>2021-03-20 13:22:08</time>
      </trkpt>
      <trkpt lat="41.3534" lon="-8.74314">
        <ele>-11.4</ele>
        <time>2021-03-20 13:22:09</time>
      </trkpt>
      <trkpt lat="41.35336" lon="-8.74313">
        <ele>-11.4</ele>
        <time>2021-03-20 13:22:10</time>
      </trkpt>
      <trkpt lat="41.35335" lon="-8.74313">
        <ele>-11.2</ele>
        <time>2021-03-20 13:22:11</time>
      </trkpt>
      <trkpt lat="41.35335" lon="-8.74316">
        <ele>-11</ele>
        <time>2021-03-20 13:22:12</time>
      </trkpt>
      <trkpt lat="41.35334" lon="-8.74314">
        <ele>-10.6</ele>
        <time>2021-03-20 13:22:13</time>
      </trkpt>
      <trkpt lat="41.35334" lon="-8.74315">
        <ele>-10.2</ele>
        <time>2021-03-20 13:22:14</time>
      </trkpt>
      <trkpt lat="41.35334" lon="-8.74316">
        <ele>-10</ele>
        <time>2021-03-20 13:22:15</time>
      </trkpt>
      <trkpt lat="41.35335" lon="-8.74316">
        <ele>-10.2</ele>
        <time>2021-03-20 13:22:16</time>
      </trkpt>
      <trkpt lat="41.35337" lon="-8.74318">
        <ele>-10.4</ele>
        <time>2021-03-20 13:22:17</time>
      </trkpt>
      <trkpt lat="41.35333" lon="-8.74318">
        <ele>-10.2</ele>
        <time>2021-03-20 13:22:18</time>
      </trkpt>
      <trkpt lat="41.35334" lon="-8.74319">
        <ele>-10</ele>
        <time>2021-03-20 13:22:19</time>
      </trkpt>
      <trkpt lat="41.35332" lon="-8.74312">
        <ele>-9.8</ele>
        <time>2021-03-20 13:22:20</time>
      </trkpt>
      <trkpt lat="41.35334" lon="-8.74313">
        <ele>-9.6</ele>
        <time>2021-03-20 13:22:21</time>
      </trkpt>
      <trkpt lat="41.35333" lon="-8.74314">
        <ele>-9.8</ele>
        <time>2021-03-20 13:22:22</time>
      </trkpt>
      <trkpt lat="41.35333" lon="-8.74314">
        <ele>-9.2</ele>
        <time>2021-03-20 13:22:23</time>
      </trkpt>
      <trkpt lat="41.35334" lon="-8.74314">
        <ele>-9.2</ele>
        <time>2021-03-20 13:22:24</time>
      </trkpt>
      <trkpt lat="41.35335" lon="-8.74315">
        <ele>-9.2</ele>
        <time>2021-03-20 13:22:25</time>
      </trkpt>
      <trkpt lat="41.35336" lon="-8.74316">
        <ele>-9.2</ele>
        <time>2021-03-20 13:22:26</time>
      </trkpt>
      <trkpt lat="41.35337" lon="-8.7432">
        <ele>-9.2</ele>
        <time>2021-03-20 13:22:27</time>
      </trkpt>
      <trkpt lat="41.35339" lon="-8.74322">
        <ele>-9.2</ele>
        <time>2021-03-20 13:22:28</time>
      </trkpt>
      <trkpt lat="41.35341" lon="-8.74324">
        <ele>-9.2</ele>
        <time>2021-03-20 13:22:29</time>
      </trkpt>
      <trkpt lat="41.35343" lon="-8.74325">
        <ele>-9.2</ele>
        <time>2021-03-20 13:22:30</time>
      </trkpt>
      <trkpt lat="41.35344" lon="-8.74329">
        <ele>-9.2</ele>
        <time>2021-03-20 13:22:31</time>
      </trkpt>
      <trkpt lat="41.35346" lon="-8.74334">
        <ele>-9.4</ele>
        <time>2021-03-20 13:22:32</time>
      </trkpt>
      <trkpt lat="41.35348" lon="-8.74337">
        <ele>-9.2</ele>
        <time>2021-03-20 13:22:33</time>
      </trkpt>
      <trkpt lat="41.35349" lon="-8.7434">
        <ele>-9.2</ele>
        <time>2021-03-20 13:22:34</time>
      </trkpt>
      <trkpt lat="41.35351" lon="-8.74343">
        <ele>-9.2</ele>
        <time>2021-03-20 13:22:35</time>
      </trkpt>
      <trkpt lat="41.35352" lon="-8.74345">
        <ele>-9.2</ele>
        <time>2021-03-20 13:22:36</time>
      </trkpt>
      <trkpt lat="41.35354" lon="-8.74346">
        <ele>-9.4</ele>
        <time>2021-03-20 13:22:37</time>
      </trkpt>
      <trkpt lat="41.35356" lon="-8.74349">
        <ele>-9.2</ele>
        <time>2021-03-20 13:22:38</time>
      </trkpt>
      <trkpt lat="41.35357" lon="-8.74351">
        <ele>-9.2</ele>
        <time>2021-03-20 13:22:39</time>
      </trkpt>
      <trkpt lat="41.3536" lon="-8.74355">
        <ele>-9</ele>
        <time>2021-03-20 13:22:40</time>
      </trkpt>
      <trkpt lat="41.35363" lon="-8.74359">
        <ele>-9.2</ele>
        <time>2021-03-20 13:22:41</time>
      </trkpt>
      <trkpt lat="41.35366" lon="-8.7436">
        <ele>-9.6</ele>
        <time>2021-03-20 13:22:42</time>
      </trkpt>
      <trkpt lat="41.35368" lon="-8.74362">
        <ele>-9.6</ele>
        <time>2021-03-20 13:22:43</time>
      </trkpt>
      <trkpt lat="41.3537" lon="-8.74364">
        <ele>-9.8</ele>
        <time>2021-03-20 13:22:44</time>
      </trkpt>
      <trkpt lat="41.35373" lon="-8.74367">
        <ele>-10.2</ele>
        <time>2021-03-20 13:22:45</time>
      </trkpt>
      <trkpt lat="41.35374" lon="-8.74369">
        <ele>-10.2</ele>
        <time>2021-03-20 13:22:46</time>
      </trkpt>
      <trkpt lat="41.35377" lon="-8.74372">
        <ele>-10.2</ele>
        <time>2021-03-20 13:22:47</time>
      </trkpt>
      <trkpt lat="41.35379" lon="-8.74374">
        <ele>-10.4</ele>
        <time>2021-03-20 13:22:48</time>
      </trkpt>
      <trkpt lat="41.35381" lon="-8.74376">
        <ele>-10.4</ele>
        <time>2021-03-20 13:22:49</time>
      </trkpt>
      <trkpt lat="41.35383" lon="-8.74378">
        <ele>-10.6</ele>
        <time>2021-03-20 13:26:15</time>
      </trkpt>
      <trkpt lat="41.35386" lon="-8.7438">
        <ele>-10.6</ele>
        <time>2021-03-20 13:26:16</time>
      </trkpt>
      <trkpt lat="41.35388" lon="-8.74382">
        <ele>-10.4</ele>
        <time>2021-03-20 13:26:17</time>
      </trkpt>
      <trkpt lat="41.3539" lon="-8.74383">
        <ele>-10.2</ele>
        <time>2021-03-20 13:26:18</time>
      </trkpt>
      <trkpt lat="41.35392" lon="-8.74384">
        <ele>-10.2</ele>
        <time>2021-03-20 13:26:19</time>
      </trkpt>
      <trkpt lat="41.35395" lon="-8.74386">
        <ele>-10</ele>
        <time>2021-03-20 13:26:20</time>
      </trkpt>
      <trkpt lat="41.35396" lon="-8.74388">
        <ele>-10</ele>
        <time>2021-03-20 13:26:21</time>
      </trkpt>
      <trkpt lat="41.35399" lon="-8.7439">
        <ele>-10</ele>
        <time>2021-03-20 13:26:22</time>
      </trkpt>
      <trkpt lat="41.35401" lon="-8.74393">
        <ele>-10.2</ele>
        <time>2021-03-20 13:26:23</time>
      </trkpt>
      <trkpt lat="41.35402" lon="-8.74395">
        <ele>-10.4</ele>
        <time>2021-03-20 13:26:24</time>
      </trkpt>
      <trkpt lat="41.35405" lon="-8.74397">
        <ele>-10.6</ele>
        <time>2021-03-20 13:26:25</time>
      </trkpt>
      <trkpt lat="41.35407" lon="-8.74399">
        <ele>-10.6</ele>
        <time>2021-03-20 13:26:26</time>
      </trkpt>
      <trkpt lat="41.35409" lon="-8.74401">
        <ele>-10.6</ele>
        <time>2021-03-20 13:26:27</time>
      </trkpt>
      <trkpt lat="41.35412" lon="-8.74401">
        <ele>-10.8</ele>
        <time>2021-03-20 13:26:28</time>
      </trkpt>
      <trkpt lat="41.35414" lon="-8.74401">
        <ele>-10.8</ele>
        <time>2021-03-20 13:26:29</time>
      </trkpt>
      <trkpt lat="41.3542" lon="-8.74404">
        <ele>-11</ele>
        <time>2021-03-20 13:26:30</time>
      </trkpt>
      <trkpt lat="41.35419" lon="-8.74405">
        <ele>-11</ele>
        <time>2021-03-20 13:26:31</time>
      </trkpt>
      <trkpt lat="41.35421" lon="-8.74405">
        <ele>-11</ele>
        <time>2021-03-20 13:26:32</time>
      </trkpt>
      <trkpt lat="41.35424" lon="-8.74405">
        <ele>-11.2</ele>
        <time>2021-03-20 13:26:33</time>
      </trkpt>
      <trkpt lat="41.35426" lon="-8.74406">
        <ele>-11.2</ele>
        <time>2021-03-20 13:26:34</time>
      </trkpt>
      <trkpt lat="41.35424" lon="-8.74408">
        <ele>-11.2</ele>
        <time>2021-03-20 13:26:35</time>
      </trkpt>
      <trkpt lat="41.35427" lon="-8.74411">
        <ele>-11.2</ele>
        <time>2021-03-20 13:26:36</time>
      </trkpt>
      <trkpt lat="41.35428" lon="-8.74412">
        <ele>-11.4</ele>
        <time>2021-03-20 13:26:37</time>
      </trkpt>
      <trkpt lat="41.35431" lon="-8.74416">
        <ele>-11.2</ele>
        <time>2021-03-20 13:26:38</time>
      </trkpt>
      <trkpt lat="41.35432" lon="-8.74419">
        <ele>-11.4</ele>
        <time>2021-03-20 13:26:39</time>
      </trkpt>
      <trkpt lat="41.35432" lon="-8.74421">
        <ele>-11.6</ele>
        <time>2021-03-20 13:26:40</time>
      </trkpt>
      <trkpt lat="41.35432" lon="-8.74424">
        <ele>-11.8</ele>
        <time>2021-03-20 13:26:41</time>
      </trkpt>
      <trkpt lat="41.35431" lon="-8.74427">
        <ele>-11.8</ele>
        <time>2021-03-20 13:26:42</time>
      </trkpt>
      <trkpt lat="41.3543" lon="-8.7443">
        <ele>-12</ele>
        <time>2021-03-20 13:26:43</time>
      </trkpt>
      <trkpt lat="41.3543" lon="-8.74431">
        <ele>-12</ele>
        <time>2021-03-20 13:26:44</time>
      </trkpt>
      <trkpt lat="41.3543" lon="-8.74433">
        <ele>-12</ele>
        <time>2021-03-20 13:26:45</time>
      </trkpt>
      <trkpt lat="41.35429" lon="-8.74439">
        <ele>-11.8</ele>
        <time>2021-03-20 13:26:46</time>
      </trkpt>
      <trkpt lat="41.35429" lon="-8.74442">
        <ele>-12</ele>
        <time>2021-03-20 13:26:47</time>
      </trkpt>
      <trkpt lat="41.35429" lon="-8.74445">
        <ele>-12.6</ele>
        <time>2021-03-20 13:26:48</time>
      </trkpt>
      <trkpt lat="41.35429" lon="-8.74448">
        <ele>-12.8</ele>
        <time>2021-03-20 13:26:49</time>
      </trkpt>
      <trkpt lat="41.35429" lon="-8.74451">
        <ele>-12.8</ele>
        <time>2021-03-20 13:26:50</time>
      </trkpt>
      <trkpt lat="41.35428" lon="-8.74453">
        <ele>-12.8</ele>
        <time>2021-03-20 13:26:51</time>
      </trkpt>
      <trkpt lat="41.35428" lon="-8.74454">
        <ele>-13</ele>
        <time>2021-03-20 13:26:52</time>
      </trkpt>
      <trkpt lat="41.35427" lon="-8.74455">
        <ele>-13.2</ele>
        <time>2021-03-20 13:26:53</time>
      </trkpt>
      <trkpt lat="41.35426" lon="-8.74458">
        <ele>-13</ele>
        <time>2021-03-20 13:26:54</time>
      </trkpt>
      <trkpt lat="41.35426" lon="-8.74459">
        <ele>-13</ele>
        <time>2021-03-20 13:26:55</time>
      </trkpt>
      <trkpt lat="41.35425" lon="-8.74459">
        <ele>-13.2</ele>
        <time>2021-03-20 13:26:56</time>
      </trkpt>
      <trkpt lat="41.35423" lon="-8.74461">
        <ele>-13.6</ele>
        <time>2021-03-20 13:26:57</time>
      </trkpt>
      <trkpt lat="41.35423" lon="-8.74462">
        <ele>-13.8</ele>
        <time>2021-03-20 13:26:58</time>
      </trkpt>
      <trkpt lat="41.35421" lon="-8.74465">
        <ele>-13.8</ele>
        <time>2021-03-20 13:26:59</time>
      </trkpt>
      <trkpt lat="41.3542" lon="-8.74466">
        <ele>-13.8</ele>
        <time>2021-03-20 13:27:00</time>
      </trkpt>
      <trkpt lat="41.35419" lon="-8.74467">
        <ele>-13.8</ele>
        <time>2021-03-20 13:27:01</time>
      </trkpt>
      <trkpt lat="41.35418" lon="-8.74468">
        <ele>-13.8</ele>
        <time>2021-03-20 13:27:02</time>
      </trkpt>
      <trkpt lat="41.35418" lon="-8.74468">
        <ele>-13.6</ele>
        <time>2021-03-20 13:27:03</time>
      </trkpt>
      <trkpt lat="41.35418" lon="-8.74471">
        <ele>-13.4</ele>
        <time>2021-03-20 13:27:04</time>
      </trkpt>
      <trkpt lat="41.35418" lon="-8.74473">
        <ele>-13.6</ele>
        <time>2021-03-20 13:27:05</time>
      </trkpt>
      <trkpt lat="41.35417" lon="-8.74474">
        <ele>-13.8</ele>
        <time>2021-03-20 13:27:06</time>
      </trkpt>
      <trkpt lat="41.35416" lon="-8.74475">
        <ele>-13.8</ele>
        <time>2021-03-20 13:27:07</time>
      </trkpt>
      <trkpt lat="41.35415" lon="-8.74476">
        <ele>-14</ele>
        <time>2021-03-20 13:27:08</time>
      </trkpt>
      <trkpt lat="41.35413" lon="-8.74479">
        <ele>-14</ele>
        <time>2021-03-20 13:27:09</time>
      </trkpt>
      <trkpt lat="41.35411" lon="-8.74481">
        <ele>-14</ele>
        <time>2021-03-20 13:27:10</time>
      </trkpt>
      <trkpt lat="41.3541" lon="-8.74482">
        <ele>-14.2</ele>
        <time>2021-03-20 13:27:11</time>
      </trkpt>
      <trkpt lat="41.35408" lon="-8.74485">
        <ele>-14.4</ele>
        <time>2021-03-20 13:27:12</time>
      </trkpt>
      <trkpt lat="41.35405" lon="-8.74487">
        <ele>-14.4</ele>
        <time>2021-03-20 13:27:13</time>
      </trkpt>
      <trkpt lat="41.35406" lon="-8.74491">
        <ele>-14.4</ele>
        <time>2021-03-20 13:27:14</time>
      </trkpt>
      <trkpt lat="41.35404" lon="-8.74494">
        <ele>-14.4</ele>
        <time>2021-03-20 13:27:15</time>
      </trkpt>
      <trkpt lat="41.35403" lon="-8.74496">
        <ele>-14.2</ele>
        <time>2021-03-20 13:27:16</time>
      </trkpt>
      <trkpt lat="41.35401" lon="-8.74498">
        <ele>-14</ele>
        <time>2021-03-20 13:27:17</time>
      </trkpt>
      <trkpt lat="41.354" lon="-8.74501">
        <ele>-14</ele>
        <time>2021-03-20 13:27:18</time>
      </trkpt>
      <trkpt lat="41.35399" lon="-8.74504">
        <ele>-14</ele>
        <time>2021-03-20 13:27:19</time>
      </trkpt>
      <trkpt lat="41.35398" lon="-8.74506">
        <ele>-14</ele>
        <time>2021-03-20 13:27:20</time>
      </trkpt>
      <trkpt lat="41.35396" lon="-8.74509">
        <ele>-14.2</ele>
        <time>2021-03-20 13:27:21</time>
      </trkpt>
      <trkpt lat="41.35394" lon="-8.74512">
        <ele>-14.2</ele>
        <time>2021-03-20 13:27:22</time>
      </trkpt>
      <trkpt lat="41.35392" lon="-8.74515">
        <ele>-14.2</ele>
        <time>2021-03-20 13:27:23</time>
      </trkpt>
      <trkpt lat="41.35389" lon="-8.74519">
        <ele>-14.2</ele>
        <time>2021-03-20 13:27:24</time>
      </trkpt>
      <trkpt lat="41.35389" lon="-8.74523">
        <ele>-14</ele>
        <time>2021-03-20 13:27:25</time>
      </trkpt>
      <trkpt lat="41.35387" lon="-8.74526">
        <ele>-14</ele>
        <time>2021-03-20 13:27:26</time>
      </trkpt>
      <trkpt lat="41.35384" lon="-8.7453">
        <ele>-14</ele>
        <time>2021-03-20 13:27:27</time>
      </trkpt>
      <trkpt lat="41.35382" lon="-8.74535">
        <ele>-14</ele>
        <time>2021-03-20 13:27:28</time>
      </trkpt>
      <trkpt lat="41.3538" lon="-8.7454">
        <ele>-14</ele>
        <time>2021-03-20 13:27:29</time>
      </trkpt>
      <trkpt lat="41.35378" lon="-8.74545">
        <ele>-14.2</ele>
        <time>2021-03-20 13:27:30</time>
      </trkpt>
      <trkpt lat="41.35376" lon="-8.74551">
        <ele>-13.8</ele>
        <time>2021-03-20 13:27:31</time>
      </trkpt>
      <trkpt lat="41.35374" lon="-8.74556">
        <ele>-13.6</ele>
        <time>2021-03-20 13:27:32</time>
      </trkpt>
      <trkpt lat="41.35372" lon="-8.74561">
        <ele>-13.6</ele>
        <time>2021-03-20 13:27:33</time>
      </trkpt>
      <trkpt lat="41.35369" lon="-8.74565">
        <ele>-13.6</ele>
        <time>2021-03-20 13:27:34</time>
      </trkpt>
      <trkpt lat="41.35369" lon="-8.74569">
        <ele>-13.4</ele>
        <time>2021-03-20 13:27:35</time>
      </trkpt>
      <trkpt lat="41.35367" lon="-8.74574">
        <ele>-13.4</ele>
        <time>2021-03-20 13:27:36</time>
      </trkpt>
      <trkpt lat="41.35366" lon="-8.7458">
        <ele>-13.4</ele>
        <time>2021-03-20 13:27:37</time>
      </trkpt>
      <trkpt lat="41.35362" lon="-8.74583">
        <ele>-13.6</ele>
        <time>2021-03-20 13:27:38</time>
      </trkpt>
      <trkpt lat="41.35362" lon="-8.74589">
        <ele>-13.8</ele>
        <time>2021-03-20 13:27:39</time>
      </trkpt>
      <trkpt lat="41.35357" lon="-8.74592">
        <ele>-13.8</ele>
        <time>2021-03-20 13:27:40</time>
      </trkpt>
      <trkpt lat="41.35359" lon="-8.74601">
        <ele>-13.6</ele>
        <time>2021-03-20 13:27:41</time>
      </trkpt>
      <trkpt lat="41.35355" lon="-8.74605">
        <ele>-13.6</ele>
        <time>2021-03-20 13:27:42</time>
      </trkpt>
      <trkpt lat="41.35356" lon="-8.74607">
        <ele>-13.4</ele>
        <time>2021-03-20 13:27:43</time>
      </trkpt>
      <trkpt lat="41.35354" lon="-8.74612">
        <ele>-13.4</ele>
        <time>2021-03-20 13:27:44</time>
      </trkpt>
      <trkpt lat="41.35354" lon="-8.74614">
        <ele>-13.6</ele>
        <time>2021-03-20 13:27:45</time>
      </trkpt>
      <trkpt lat="41.35352" lon="-8.74616">
        <ele>-13.6</ele>
        <time>2021-03-20 13:27:46</time>
      </trkpt>
      <trkpt lat="41.35352" lon="-8.74618">
        <ele>-13.6</ele>
        <time>2021-03-20 13:27:47</time>
      </trkpt>
      <trkpt lat="41.35354" lon="-8.74622">
        <ele>-13.8</ele>
        <time>2021-03-20 13:27:48</time>
      </trkpt>
      <trkpt lat="41.35356" lon="-8.74623">
        <ele>-14</ele>
        <time>2021-03-20 13:27:49</time>
      </trkpt>
      <trkpt lat="41.35358" lon="-8.74625">
        <ele>-13.8</ele>
        <time>2021-03-20 13:27:50</time>
      </trkpt>
      <trkpt lat="41.3536" lon="-8.74626">
        <ele>-13.6</ele>
        <time>2021-03-20 13:27:51</time>
      </trkpt>
      <trkpt lat="41.35361" lon="-8.74628">
        <ele>-13.6</ele>
        <time>2021-03-20 13:27:52</time>
      </trkpt>
      <trkpt lat="41.35363" lon="-8.74629">
        <ele>-13.6</ele>
        <time>2021-03-20 13:27:53</time>
      </trkpt>
      <trkpt lat="41.3537" lon="-8.74632">
        <ele>-13.6</ele>
        <time>2021-03-20 13:27:54</time>
      </trkpt>
      <trkpt lat="41.35368" lon="-8.74635">
        <ele>-13.4</ele>
        <time>2021-03-20 13:27:55</time>
      </trkpt>
      <trkpt lat="41.35375" lon="-8.74639">
        <ele>-13</ele>
        <time>2021-03-20 13:27:56</time>
      </trkpt>
      <trkpt lat="41.35375" lon="-8.74641">
        <ele>-12.8</ele>
        <time>2021-03-20 13:27:57</time>
      </trkpt>
      <trkpt lat="41.35379" lon="-8.74644">
        <ele>-12.6</ele>
        <time>2021-03-20 13:27:58</time>
      </trkpt>
      <trkpt lat="41.35382" lon="-8.74646">
        <ele>-12.6</ele>
        <time>2021-03-20 13:27:59</time>
      </trkpt>
      <trkpt lat="41.35385" lon="-8.74648">
        <ele>-12.4</ele>
        <time>2021-03-20 13:28:00</time>
      </trkpt>
      <trkpt lat="41.35388" lon="-8.74649">
        <ele>-12.4</ele>
        <time>2021-03-20 13:28:01</time>
      </trkpt>
      <trkpt lat="41.3539" lon="-8.74655">
        <ele>-12.2</ele>
        <time>2021-03-20 13:28:02</time>
      </trkpt>
      <trkpt lat="41.35389" lon="-8.74653">
        <ele>-12.2</ele>
        <time>2021-03-20 13:28:03</time>
      </trkpt>
      <trkpt lat="41.35394" lon="-8.74658">
        <ele>-12.4</ele>
        <time>2021-03-20 13:28:04</time>
      </trkpt>
      <trkpt lat="41.35395" lon="-8.7466">
        <ele>-12.2</ele>
        <time>2021-03-20 13:28:05</time>
      </trkpt>
      <trkpt lat="41.35398" lon="-8.74661">
        <ele>-12.2</ele>
        <time>2021-03-20 13:28:06</time>
      </trkpt>
      <trkpt lat="41.354" lon="-8.74666">
        <ele>-12.2</ele>
        <time>2021-03-20 13:28:07</time>
      </trkpt>
      <trkpt lat="41.354" lon="-8.74667">
        <ele>-12.4</ele>
        <time>2021-03-20 13:28:08</time>
      </trkpt>
      <trkpt lat="41.35401" lon="-8.7467">
        <ele>-12.4</ele>
        <time>2021-03-20 13:28:09</time>
      </trkpt>
      <trkpt lat="41.35402" lon="-8.74671">
        <ele>-12.2</ele>
        <time>2021-03-20 13:28:10</time>
      </trkpt>
      <trkpt lat="41.35401" lon="-8.74677">
        <ele>-11.8</ele>
        <time>2021-03-20 13:28:11</time>
      </trkpt>
      <trkpt lat="41.354" lon="-8.74679">
        <ele>-11.2</ele>
        <time>2021-03-20 13:28:12</time>
      </trkpt>
      <trkpt lat="41.354" lon="-8.74681">
        <ele>-11.2</ele>
        <time>2021-03-20 13:28:13</time>
      </trkpt>
      <trkpt lat="41.35398" lon="-8.74686">
        <ele>-11.2</ele>
        <time>2021-03-20 13:28:14</time>
      </trkpt>
      <trkpt lat="41.354" lon="-8.7469">
        <ele>-11.2</ele>
        <time>2021-03-20 13:28:15</time>
      </trkpt>
      <trkpt lat="41.35401" lon="-8.74698">
        <ele>-11.2</ele>
        <time>2021-03-20 13:28:16</time>
      </trkpt>
      <trkpt lat="41.35402" lon="-8.74699">
        <ele>-11.2</ele>
        <time>2021-03-20 13:28:17</time>
      </trkpt>
      <trkpt lat="41.35407" lon="-8.74706">
        <ele>-11</ele>
        <time>2021-03-20 13:28:18</time>
      </trkpt>
      <trkpt lat="41.35418" lon="-8.74712">
        <ele>-11</ele>
        <time>2021-03-20 13:28:19</time>
      </trkpt>
      <trkpt lat="41.3542" lon="-8.74718">
        <ele>-11</ele>
        <time>2021-03-20 13:28:20</time>
      </trkpt>
      <trkpt lat="41.35421" lon="-8.74727">
        <ele>-11</ele>
        <time>2021-03-20 13:28:21</time>
      </trkpt>
      <trkpt lat="41.35419" lon="-8.74734">
        <ele>-11</ele>
        <time>2021-03-20 13:28:22</time>
      </trkpt>
      <trkpt lat="41.35422" lon="-8.7474">
        <ele>-10.8</ele>
        <time>2021-03-20 13:28:23</time>
      </trkpt>
      <trkpt lat="41.35417" lon="-8.74749">
        <ele>-10.8</ele>
        <time>2021-03-20 13:28:24</time>
      </trkpt>
      <trkpt lat="41.35413" lon="-8.74752">
        <ele>-10.8</ele>
        <time>2021-03-20 13:28:25</time>
      </trkpt>
      <trkpt lat="41.35413" lon="-8.74754">
        <ele>-10.8</ele>
        <time>2021-03-20 13:28:26</time>
      </trkpt>
      <trkpt lat="41.35412" lon="-8.74762">
        <ele>-11</ele>
        <time>2021-03-20 13:28:27</time>
      </trkpt>
      <trkpt lat="41.35411" lon="-8.74766">
        <ele>-10.8</ele>
        <time>2021-03-20 13:28:28</time>
      </trkpt>
      <trkpt lat="41.35411" lon="-8.74768">
        <ele>-10.8</ele>
        <time>2021-03-20 13:28:29</time>
      </trkpt>
      <trkpt lat="41.35412" lon="-8.74772">
        <ele>-10.8</ele>
        <time>2021-03-20 13:28:30</time>
      </trkpt>
      <trkpt lat="41.35417" lon="-8.74775">
        <ele>-10.8</ele>
        <time>2021-03-20 13:28:31</time>
      </trkpt>
      <trkpt lat="41.35417" lon="-8.74784">
        <ele>-10.8</ele>
        <time>2021-03-20 13:28:32</time>
      </trkpt>
      <trkpt lat="41.35421" lon="-8.74786">
        <ele>-10.8</ele>
        <time>2021-03-20 13:28:33</time>
      </trkpt>
      <trkpt lat="41.35418" lon="-8.74792">
        <ele>-10.8</ele>
        <time>2021-03-20 13:28:34</time>
      </trkpt>
      <trkpt lat="41.35419" lon="-8.74794">
        <ele>-10.8</ele>
        <time>2021-03-20 13:28:35</time>
      </trkpt>
      <trkpt lat="41.35419" lon="-8.74799">
        <ele>-10.8</ele>
        <time>2021-03-20 13:28:36</time>
      </trkpt>
      <trkpt lat="41.35422" lon="-8.74802">
        <ele>-10.8</ele>
        <time>2021-03-20 13:28:37</time>
      </trkpt>
      <trkpt lat="41.35422" lon="-8.74804">
        <ele>-10.8</ele>
        <time>2021-03-20 13:28:38</time>
      </trkpt>
      <trkpt lat="41.35422" lon="-8.74806">
        <ele>-10.8</ele>
        <time>2021-03-20 13:28:39</time>
      </trkpt>
      <trkpt lat="41.35421" lon="-8.7481">
        <ele>-11.2</ele>
        <time>2021-03-20 13:28:40</time>
      </trkpt>
      <trkpt lat="41.3542" lon="-8.74813">
        <ele>-11</ele>
        <time>2021-03-20 13:28:41</time>
      </trkpt>
      <trkpt lat="41.3542" lon="-8.74816">
        <ele>-10.8</ele>
        <time>2021-03-20 13:28:42</time>
      </trkpt>
      <trkpt lat="41.35419" lon="-8.74819">
        <ele>-10.6</ele>
        <time>2021-03-20 13:28:43</time>
      </trkpt>
      <trkpt lat="41.35417" lon="-8.74822">
        <ele>-10.6</ele>
        <time>2021-03-20 13:28:44</time>
      </trkpt>
      <trkpt lat="41.35416" lon="-8.74824">
        <ele>-11</ele>
        <time>2021-03-20 13:28:45</time>
      </trkpt>
      <trkpt lat="41.35415" lon="-8.74828">
        <ele>-10.8</ele>
        <time>2021-03-20 13:28:46</time>
      </trkpt>
      <trkpt lat="41.35414" lon="-8.74831">
        <ele>-10.6</ele>
        <time>2021-03-20 13:28:47</time>
      </trkpt>
      <trkpt lat="41.35412" lon="-8.74837">
        <ele>-10.6</ele>
        <time>2021-03-20 13:28:48</time>
      </trkpt>
      <trkpt lat="41.3541" lon="-8.74839">
        <ele>-10.6</ele>
        <time>2021-03-20 13:28:49</time>
      </trkpt>
      <trkpt lat="41.35409" lon="-8.74843">
        <ele>-10.6</ele>
        <time>2021-03-20 13:28:50</time>
      </trkpt>
      <trkpt lat="41.35412" lon="-8.74846">
        <ele>-10.4</ele>
        <time>2021-03-20 13:28:51</time>
      </trkpt>
      <trkpt lat="41.35411" lon="-8.74849">
        <ele>-10.2</ele>
        <time>2021-03-20 13:28:52</time>
      </trkpt>
      <trkpt lat="41.35411" lon="-8.74851">
        <ele>-10.4</ele>
        <time>2021-03-20 13:28:53</time>
      </trkpt>
      <trkpt lat="41.35412" lon="-8.74852">
        <ele>-10.2</ele>
        <time>2021-03-20 13:28:54</time>
      </trkpt>
      <trkpt lat="41.35413" lon="-8.74854">
        <ele>-10.2</ele>
        <time>2021-03-20 13:28:55</time>
      </trkpt>
      <trkpt lat="41.35413" lon="-8.74854">
        <ele>-11.8</ele>
        <time>2021-03-20 13:28:56</time>
      </trkpt>
      <trkpt lat="41.35412" lon="-8.74855">
        <ele>-11.8</ele>
        <time>2021-03-20 13:28:57</time>
      </trkpt>
      <trkpt lat="41.35412" lon="-8.74856">
        <ele>-11.8</ele>
        <time>2021-03-20 13:28:58</time>
      </trkpt>
      <trkpt lat="41.35412" lon="-8.74856">
        <ele>-11.8</ele>
        <time>2021-03-20 13:28:59</time>
      </trkpt>
      <trkpt lat="41.35413" lon="-8.74857">
        <ele>-11.6</ele>
        <time>2021-03-20 13:29:00</time>
      </trkpt>
      <trkpt lat="41.35414" lon="-8.74859">
        <ele>-11.6</ele>
        <time>2021-03-20 13:29:01</time>
      </trkpt>
      <trkpt lat="41.35413" lon="-8.74859">
        <ele>-11.8</ele>
        <time>2021-03-20 13:29:02</time>
      </trkpt>
      <trkpt lat="41.35413" lon="-8.74859">
        <ele>-11.8</ele>
        <time>2021-03-20 13:29:03</time>
      </trkpt>
      <trkpt lat="41.35413" lon="-8.74859">
        <ele>-11.8</ele>
        <time>2021-03-20 13:29:04</time>
      </trkpt>
      <trkpt lat="41.35414" lon="-8.74861">
        <ele>-11.8</ele>
        <time>2021-03-20 13:29:05</time>
      </trkpt>
      <trkpt lat="41.35416" lon="-8.74864">
        <ele>-11.8</ele>
        <time>2021-03-20 13:29:06</time>
      </trkpt>
      <trkpt lat="41.35426" lon="-8.74876">
        <ele>-12</ele>
        <time>2021-03-20 13:29:07</time>
      </trkpt>
      <trkpt lat="41.3543" lon="-8.74878">
        <ele>-12</ele>
        <time>2021-03-20 13:29:08</time>
      </trkpt>
      <trkpt lat="41.3543" lon="-8.74878">
        <ele>-11.8</ele>
        <time>2021-03-20 13:29:09</time>
      </trkpt>
      <trkpt lat="41.35429" lon="-8.74878">
        <ele>-12</ele>
        <time>2021-03-20 13:29:10</time>
      </trkpt>
      <trkpt lat="41.35429" lon="-8.74878">
        <ele>-12</ele>
        <time>2021-03-20 13:29:11</time>
      </trkpt>
      <trkpt lat="41.35429" lon="-8.74877">
        <ele>-12</ele>
        <time>2021-03-20 13:29:12</time>
      </trkpt>
      <trkpt lat="41.3543" lon="-8.74876">
        <ele>-12</ele>
        <time>2021-03-20 13:29:13</time>
      </trkpt>
      <trkpt lat="41.35429" lon="-8.74876">
        <ele>-12</ele>
        <time>2021-03-20 13:29:14</time>
      </trkpt>
      <trkpt lat="41.35428" lon="-8.74875">
        <ele>-12</ele>
        <time>2021-03-20 13:29:15</time>
      </trkpt>
      <trkpt lat="41.35427" lon="-8.74874">
        <ele>-12</ele>
        <time>2021-03-20 13:29:16</time>
      </trkpt>
      <trkpt lat="41.35425" lon="-8.74874">
        <ele>-12</ele>
        <time>2021-03-20 13:29:17</time>
      </trkpt>
      <trkpt lat="41.35424" lon="-8.74873">
        <ele>-12</ele>
        <time>2021-03-20 13:29:18</time>
      </trkpt>
      <trkpt lat="41.35423" lon="-8.74873">
        <ele>-12</ele>
        <time>2021-03-20 13:29:19</time>
      </trkpt>
      <trkpt lat="41.35423" lon="-8.74872">
        <ele>-12</ele>
        <time>2021-03-20 13:29:20</time>
      </trkpt>
      <trkpt lat="41.35422" lon="-8.74873">
        <ele>-12</ele>
        <time>2021-03-20 13:29:21</time>
      </trkpt>
      <trkpt lat="41.35422" lon="-8.74873">
        <ele>-12</ele>
        <time>2021-03-20 13:29:22</time>
      </trkpt>
      <trkpt lat="41.35432" lon="-8.74876">
        <ele>-12</ele>
        <time>2021-03-20 13:29:23</time>
      </trkpt>
      <trkpt lat="41.35433" lon="-8.74873">
        <ele>8</ele>
        <time>2021-03-20 13:29:24</time>
      </trkpt>
      <trkpt lat="41.35434" lon="-8.74872">
        <ele>8.6</ele>
        <time>2021-03-20 13:29:25</time>
      </trkpt>
      <trkpt lat="41.35434" lon="-8.7487">
        <ele>8</ele>
        <time>2021-03-20 13:29:26</time>
      </trkpt>
      <trkpt lat="41.35434" lon="-8.74871">
        <ele>8</ele>
        <time>2021-03-20 13:29:27</time>
      </trkpt>
      <trkpt lat="41.35434" lon="-8.74871">
        <ele>7.6</ele>
        <time>2021-03-20 13:29:28</time>
      </trkpt>
      <trkpt lat="41.35434" lon="-8.74871">
        <ele>7.6</ele>
        <time>2021-03-20 13:29:29</time>
      </trkpt>
      <trkpt lat="41.35434" lon="-8.74871">
        <ele>7.6</ele>
        <time>2021-03-20 13:29:30</time>
      </trkpt>
      <trkpt lat="41.35434" lon="-8.74871">
        <ele>7.6</ele>
        <time>2021-03-20 13:29:31</time>
      </trkpt>
      <trkpt lat="41.35434" lon="-8.74873">
        <ele>7.6</ele>
        <time>2021-03-20 13:29:32</time>
      </trkpt>
      <trkpt lat="41.35434" lon="-8.74873">
        <ele>7.8</ele>
        <time>2021-03-20 13:29:33</time>
      </trkpt>
      <trkpt lat="41.35433" lon="-8.74872">
        <ele>8</ele>
        <time>2021-03-20 13:29:34</time>
      </trkpt>
      <trkpt lat="41.35432" lon="-8.74872">
        <ele>7.8</ele>
        <time>2021-03-20 13:29:35</time>
      </trkpt>
      <trkpt lat="41.35432" lon="-8.74871">
        <ele>7.6</ele>
        <time>2021-03-20 13:29:36</time>
      </trkpt>
      <trkpt lat="41.35432" lon="-8.74871">
        <ele>7.8</ele>
        <time>2021-03-20 13:32:54</time>
      </trkpt>
      <trkpt lat="41.3543" lon="-8.7487">
        <ele>7.6</ele>
        <time>2021-03-20 13:32:55</time>
      </trkpt>
      <trkpt lat="41.3543" lon="-8.7487">
        <ele>7.8</ele>
        <time>2021-03-20 13:32:56</time>
      </trkpt>
      <trkpt lat="41.3543" lon="-8.7487">
        <ele>8.2</ele>
        <time>2021-03-20 13:32:58</time>
      </trkpt>
      <trkpt lat="41.35431" lon="-8.74871">
        <ele>8.6</ele>
        <time>2021-03-20 13:33:00</time>
      </trkpt>
      <trkpt lat="41.35432" lon="-8.74871">
        <ele>8.8</ele>
        <time>2021-03-20 13:33:02</time>
      </trkpt>
      <trkpt lat="41.35432" lon="-8.74871">
        <ele>8.8</ele>
        <time>2021-03-20 13:33:03</time>
      </trkpt>
      <trkpt lat="41.35433" lon="-8.74873">
        <ele>9</ele>
        <time>2021-03-20 13:33:04</time>
      </trkpt>
      <trkpt lat="41.35435" lon="-8.74874">
        <ele>8.8</ele>
        <time>2021-03-20 13:33:06</time>
      </trkpt>
      <trkpt lat="41.35435" lon="-8.74873">
        <ele>8.8</ele>
        <time>2021-03-20 13:33:07</time>
      </trkpt>
      <trkpt lat="41.35436" lon="-8.74873">
        <ele>8.8</ele>
        <time>2021-03-20 13:33:09</time>
      </trkpt>
      <trkpt lat="41.35436" lon="-8.74873">
        <ele>9.2</ele>
        <time>2021-03-20 13:33:11</time>
      </trkpt>
      <trkpt lat="41.35437" lon="-8.74873">
        <ele>9.2</ele>
        <time>2021-03-20 13:33:12</time>
      </trkpt>
      <trkpt lat="41.35437" lon="-8.74873">
        <ele>9.2</ele>
        <time>2021-03-20 13:33:13</time>
      </trkpt>
      <trkpt lat="41.3525829836726" lon="-8.74531030654907">
        <ele>9.2</ele>
        <time>2021-03-20T01:06:38</time>
      </trkpt>
      <trkpt lat="41.3526034355164" lon="-8.74526303261518">
        <ele>9.2</ele>
        <time>2021-03-20T01:06:39</time>
      </trkpt>
      <trkpt lat="41.3526229653508" lon="-8.74521768651903">
        <ele>9.4</ele>
        <time>2021-03-20T01:06:40</time>
      </trkpt>
      <trkpt lat="41.3526507094502" lon="-8.74518206343055">
        <ele>9.6</ele>
        <time>2021-03-20T01:06:41</time>
      </trkpt>
      <trkpt lat="41.3526721671224" lon="-8.74514702707529">
        <ele>9.4</ele>
        <time>2021-03-20T01:06:42</time>
      </trkpt>
      <trkpt lat="41.352692451328" lon="-8.74509078450501">
        <ele>9.4</ele>
        <time>2021-03-20T01:06:43</time>
      </trkpt>
      <trkpt lat="41.3526947144419" lon="-8.74502825550735">
        <ele>9</ele>
        <time>2021-03-20T01:06:44</time>
      </trkpt>
      <trkpt lat="41.3527091313154" lon="-8.74496270902455">
        <ele>8.6</ele>
        <time>2021-03-20T01:06:45</time>
      </trkpt>
      <trkpt lat="41.3527097180486" lon="-8.7448788061738">
        <ele>8.4</ele>
        <time>2021-03-20T01:06:46</time>
      </trkpt>
      <trkpt lat="41.3527136575431" lon="-8.74482532963157">
        <ele>8.4</ele>
        <time>2021-03-20T01:06:47</time>
      </trkpt>
      <trkpt lat="41.3527401443571" lon="-8.74476699158549">
        <ele>8.4</ele>
        <time>2021-03-20T01:06:48</time>
      </trkpt>
      <trkpt lat="41.3527642842382" lon="-8.74469205737114">
        <ele>8.2</ele>
        <time>2021-03-20T01:06:49</time>
      </trkpt>
      <trkpt lat="41.3527972251177" lon="-8.74459482729435">
        <ele>8</ele>
        <time>2021-03-20T01:06:50</time>
      </trkpt>
      <trkpt lat="41.3528176769614" lon="-8.74453581869602">
        <ele>7.6</ele>
        <time>2021-03-20T01:06:51</time>
      </trkpt>
      <trkpt lat="41.3528442475945" lon="-8.74447328969836">
        <ele>7.4</ele>
        <time>2021-03-20T01:06:52</time>
      </trkpt>
      <trkpt lat="41.3528677169234" lon="-8.74440900050104">
        <ele>7.2</ele>
        <time>2021-03-20T01:06:53</time>
      </trkpt>
      <trkpt lat="41.3528854865581" lon="-8.74436122365296">
        <ele>7</ele>
        <time>2021-03-20T01:06:54</time>
      </trkpt>
      <trkpt lat="41.3528866600245" lon="-8.74428930692375">
        <ele>6.6</ele>
        <time>2021-03-20T01:06:55</time>
      </trkpt>
      <trkpt lat="41.352909123525" lon="-8.74421671964228">
        <ele>6.6</ele>
        <time>2021-03-20T01:06:56</time>
      </trkpt>
      <trkpt lat="41.3529337663204" lon="-8.74416131526232">
        <ele>6.6</ele>
        <time>2021-03-20T01:06:57</time>
      </trkpt>
      <trkpt lat="41.3529524579644" lon="-8.74410632997751">
        <ele>6.4</ele>
        <time>2021-03-20T01:06:58</time>
      </trkpt>
      <trkpt lat="41.3529711496085" lon="-8.7440603133291">
        <ele>5.8</ele>
        <time>2021-03-20T01:06:59</time>
      </trkpt>
      <trkpt lat="41.3529951218516" lon="-8.74398068524897">
        <ele>5.6</ele>
        <time>2021-03-20T01:07:00</time>
      </trkpt>
      <trkpt lat="41.3530217763036" lon="-8.74391279183328">
        <ele>5.8</ele>
        <time>2021-03-20T01:07:01</time>
      </trkpt>
      <trkpt lat="41.3530524540693" lon="-8.74385504052043">
        <ele>6</ele>
        <time>2021-03-20T01:07:02</time>
      </trkpt>
      <trkpt lat="41.3530721515417" lon="-8.74378169886768">
        <ele>5.8</ele>
        <time>2021-03-20T01:07:03</time>
      </trkpt>
      <trkpt lat="41.3530916813761" lon="-8.7437233608216">
        <ele>5.4</ele>
        <time>2021-03-20T01:07:04</time>
      </trkpt>
      <trkpt lat="41.3531202636659" lon="-8.74365923926234">
        <ele>5.2</ele>
        <time>2021-03-20T01:07:05</time>
      </trkpt>
      <trkpt lat="41.3531532883644" lon="-8.74358556233346">
        <ele>5</ele>
        <time>2021-03-20T01:07:06</time>
      </trkpt>
      <trkpt lat="41.3531872350723" lon="-8.74351004138589">
        <ele>5</ele>
        <time>2021-03-20T01:07:07</time>
      </trkpt>
      <trkpt lat="41.3532117102295" lon="-8.74344524927437">
        <ele>5</ele>
        <time>2021-03-20T01:07:08</time>
      </trkpt>
      <trkpt lat="41.3532377779484" lon="-8.74337433837354">
        <ele>4.8</ele>
        <time>2021-03-20T01:07:09</time>
      </trkpt>
      <trkpt lat="41.3532434776425" lon="-8.74331901781261">
        <ele>4.8</ele>
        <time>2021-03-20T01:07:10</time>
      </trkpt>
      <trkpt lat="41.353247417137" lon="-8.74324073083699">
        <ele>4.6</ele>
        <time>2021-03-20T01:07:11</time>
      </trkpt>
      <trkpt lat="41.353263258934" lon="-8.74315749853849">
        <ele>4.4</ele>
        <time>2021-03-20T01:07:12</time>
      </trkpt>
      <trkpt lat="41.3532847166061" lon="-8.74307049438357">
        <ele>4.2</ele>
        <time>2021-03-20T01:07:13</time>
      </trkpt>
      <trkpt lat="41.3532861415297" lon="-8.74298005364835">
        <ele>4.2</ele>
        <time>2021-03-20T01:07:14</time>
      </trkpt>
      <trkpt lat="41.3532867282629" lon="-8.74291182495654">
        <ele>4.2</ele>
        <time>2021-03-20T01:07:15</time>
      </trkpt>
      <trkpt lat="41.3532964512706" lon="-8.74282884411514">
        <ele>4</ele>
        <time>2021-03-20T01:07:16</time>
      </trkpt>
      <trkpt lat="41.3532981276512" lon="-8.74273370951414">
        <ele>4</ele>
        <time>2021-03-20T01:07:17</time>
      </trkpt>
      <trkpt lat="41.3532979600132" lon="-8.74262331984937">
        <ele>4</ele>
        <time>2021-03-20T01:07:18</time>
      </trkpt>
      <trkpt lat="41.3533031567931" lon="-8.74254419468343">
        <ele>4</ele>
        <time>2021-03-20T01:07:19</time>
      </trkpt>
      <trkpt lat="41.3533076830208" lon="-8.74244629405439">
        <ele>4.2</ele>
        <time>2021-03-20T01:07:20</time>
      </trkpt>
      <trkpt lat="41.3533102814108" lon="-8.74234235845506">
        <ele>4.6</ele>
        <time>2021-03-20T01:07:21</time>
      </trkpt>
      <trkpt lat="41.3533096108586" lon="-8.74225904233754">
        <ele>4.6</ele>
        <time>2021-03-20T01:07:22</time>
      </trkpt>
      <trkpt lat="41.3533141370863" lon="-8.74215175397694">
        <ele>4.2</ele>
        <time>2021-03-20T01:07:23</time>
      </trkpt>
      <trkpt lat="41.3533201720566" lon="-8.74205184169114">
        <ele>4.2</ele>
        <time>2021-03-20T01:07:24</time>
      </trkpt>
      <trkpt lat="41.3533156458288" lon="-8.74193583615124">
        <ele>4.4</ele>
        <time>2021-03-20T01:07:25</time>
      </trkpt>
      <trkpt lat="41.3533171545714" lon="-8.74183575622737">
        <ele>4.4</ele>
        <time>2021-03-20T01:07:26</time>
      </trkpt>
      <trkpt lat="41.3533219322562" lon="-8.74175721779466">
        <ele>4.2</ele>
        <time>2021-03-20T01:07:27</time>
      </trkpt>
      <trkpt lat="41.3533211778849" lon="-8.7416442297399">
        <ele>4.2</ele>
        <time>2021-03-20T01:07:28</time>
      </trkpt>
      <trkpt lat="41.3533156458288" lon="-8.74154783785343">
        <ele>4.4</ele>
        <time>2021-03-20T01:07:29</time>
      </trkpt>
      <trkpt lat="41.3533084373921" lon="-8.74147248454392">
        <ele>4.2</ele>
        <time>2021-03-20T01:07:30</time>
      </trkpt>
      <trkpt lat="41.3533074315637" lon="-8.74141305685043">
        <ele>4.4</ele>
        <time>2021-03-20T01:07:31</time>
      </trkpt>
      <trkpt lat="41.3533132150769" lon="-8.74134734272957">
        <ele>4.4</ele>
        <time>2021-03-20T01:07:32</time>
      </trkpt>
      <trkpt lat="41.3533199205995" lon="-8.74128632247448">
        <ele>4.4</ele>
        <time>2021-03-20T01:07:33</time>
      </trkpt>
      <trkpt lat="41.3533301465213" lon="-8.74121826142073">
        <ele>4.8</ele>
        <time>2021-03-20T01:07:34</time>
      </trkpt>
      <trkpt lat="41.3533321581781" lon="-8.74117249622941">
        <ele>5</ele>
        <time>2021-03-20T01:07:35</time>
      </trkpt>
      <trkpt lat="41.3533339183778" lon="-8.74112103134394">
        <ele>4.8</ele>
        <time>2021-03-20T01:07:36</time>
      </trkpt>
      <trkpt lat="41.3533219322562" lon="-8.74107719399035">
        <ele>4.8</ele>
        <time>2021-03-20T01:07:37</time>
      </trkpt>
      <trkpt lat="41.3533164840192" lon="-8.74103570356965">
        <ele>4.4</ele>
        <time>2021-03-20T01:07:38</time>
      </trkpt>
      <trkpt lat="41.3533139694482" lon="-8.74101483263075">
        <ele>4.4</ele>
        <time>2021-03-20T01:07:39</time>
      </trkpt>
      <trkpt lat="41.3533077668399" lon="-8.74098968692124">
        <ele>4.6</ele>
        <time>2021-03-20T01:07:40</time>
      </trkpt>
      <trkpt lat="41.3533052522689" lon="-8.74097200110555">
        <ele>4.4</ele>
        <time>2021-03-20T01:07:41</time>
      </trkpt>
      <trkpt lat="41.3532847166061" lon="-8.74092556536198">
        <ele>4.6</ele>
        <time>2021-03-20T01:07:42</time>
      </trkpt>
      <trkpt lat="41.3532754126936" lon="-8.74088432639837">
        <ele>4.6</ele>
        <time>2021-03-20T01:07:43</time>
      </trkpt>
      <trkpt lat="41.3532729819417" lon="-8.74084082432091">
        <ele>4.8</ele>
        <time>2021-03-20T01:07:44</time>
      </trkpt>
      <trkpt lat="41.3532637618482" lon="-8.74079254455864">
        <ele>4.8</ele>
        <time>2021-03-20T01:07:45</time>
      </trkpt>
      <trkpt lat="41.3532567210496" lon="-8.74073856510222">
        <ele>5</ele>
        <time>2021-03-20T01:07:46</time>
      </trkpt>
      <trkpt lat="41.3532382808626" lon="-8.74069003388286">
        <ele>5</ele>
        <time>2021-03-20T01:07:47</time>
      </trkpt>
      <trkpt lat="41.3532136380672" lon="-8.74066170305014">
        <ele>5</ele>
        <time>2021-03-20T01:07:48</time>
      </trkpt>
      <trkpt lat="41.35318916291" lon="-8.74061283655465">
        <ele>5.2</ele>
        <time>2021-03-20T01:07:49</time>
      </trkpt>
      <trkpt lat="41.3531572278589" lon="-8.74059422872961">
        <ele>5.6</ele>
        <time>2021-03-20T01:07:50</time>
      </trkpt>
      <trkpt lat="41.3531117141247" lon="-8.740552989766">
        <ele>5.8</ele>
        <time>2021-03-20T01:07:51</time>
      </trkpt>
      <trkpt lat="41.353067625314" lon="-8.74051778577268">
        <ele>6</ele>
        <time>2021-03-20T01:07:52</time>
      </trkpt>
      <trkpt lat="41.3530367799103" lon="-8.7405030336231">
        <ele>6</ele>
        <time>2021-03-20T01:07:53</time>
      </trkpt>
      <trkpt lat="41.3529894221574" lon="-8.74047880992293">
        <ele>5.8</ele>
        <time>2021-03-20T01:07:54</time>
      </trkpt>
      <trkpt lat="41.352948686108" lon="-8.7404583580792">
        <ele>5.8</ele>
        <time>2021-03-20T01:07:55</time>
      </trkpt>
      <trkpt lat="41.3529019150883" lon="-8.74042935669422">
        <ele>6</ele>
        <time>2021-03-20T01:07:56</time>
      </trkpt>
      <trkpt lat="41.3528511207551" lon="-8.74039649963379">
        <ele>6</ele>
        <time>2021-03-20T01:07:57</time>
      </trkpt>
      <trkpt lat="41.3527826406062" lon="-8.74033749103546">
        <ele>5.8</ele>
        <time>2021-03-20T01:07:58</time>
      </trkpt>
      <trkpt lat="41.3527287449688" lon="-8.74031075276434">
        <ele>6</ele>
        <time>2021-03-20T01:07:59</time>
      </trkpt>
      <trkpt lat="41.3526834826916" lon="-8.74027873389423">
        <ele>6</ele>
        <time>2021-03-20T01:08:00</time>
      </trkpt>
      <trkpt lat="41.3526349514723" lon="-8.74025484547019">
        <ele>6</ele>
        <time>2021-03-20T01:08:01</time>
      </trkpt>
      <trkpt lat="41.3525702431798" lon="-8.7402025423944">
        <ele>6</ele>
        <time>2021-03-20T01:08:02</time>
      </trkpt>
      <trkpt lat="41.352515257895" lon="-8.74016918241978">
        <ele>6.2</ele>
        <time>2021-03-20T01:08:03</time>
      </trkpt>
      <trkpt lat="41.3524616137147" lon="-8.74015199951828">
        <ele>6</ele>
        <time>2021-03-20T01:08:04</time>
      </trkpt>
      <trkpt lat="41.3524022698402" lon="-8.74011126346886">
        <ele>5.6</ele>
        <time>2021-03-20T01:08:05</time>
      </trkpt>
      <trkpt lat="41.3523654732853" lon="-8.74008025042713">
        <ele>5.2</ele>
        <time>2021-03-20T01:08:06</time>
      </trkpt>
      <trkpt lat="41.3523266650736" lon="-8.74005552381277">
        <ele>5.2</ele>
        <time>2021-03-20T01:08:07</time>
      </trkpt>
      <trkpt lat="41.3523074705154" lon="-8.74005703255534">
        <ele>5.4</ele>
        <time>2021-03-20T01:08:08</time>
      </trkpt>
      <trkpt lat="41.3522814866155" lon="-8.74003280885518">
        <ele>5.4</ele>
        <time>2021-03-20T01:08:09</time>
      </trkpt>
      <trkpt lat="41.3522564247251" lon="-8.74001830816269">
        <ele>5.4</ele>
        <time>2021-03-20T01:08:10</time>
      </trkpt>
      <trkpt lat="41.3522214721888" lon="-8.74001051299274">
        <ele>5.6</ele>
        <time>2021-03-20T01:08:11</time>
      </trkpt>
      <trkpt lat="41.3521939795464" lon="-8.73999802395701">
        <ele>5.8</ele>
        <time>2021-03-20T01:08:12</time>
      </trkpt>
      <trkpt lat="41.3521592784673" lon="-8.73998804949224">
        <ele>6</ele>
        <time>2021-03-20T01:08:13</time>
      </trkpt>
      <trkpt lat="41.352118961513" lon="-8.73996550217271">
        <ele>6.2</ele>
        <time>2021-03-20T01:08:14</time>
      </trkpt>
      <trkpt lat="41.3520797342062" lon="-8.73994706198573">
        <ele>6.6</ele>
        <time>2021-03-20T01:08:15</time>
      </trkpt>
      <trkpt lat="41.3520366512239" lon="-8.739916048944">
        <ele>7.2</ele>
        <time>2021-03-20T01:08:16</time>
      </trkpt>
      <trkpt lat="41.3519986812025" lon="-8.73988218605518">
        <ele>7.4</ele>
        <time>2021-03-20T01:08:17</time>
      </trkpt>
      <trkpt lat="41.3519586157054" lon="-8.73985829763114">
        <ele>7.6</ele>
        <time>2021-03-20T01:08:18</time>
      </trkpt>
      <trkpt lat="41.3519077375531" lon="-8.73982326127589">
        <ele>8.2</ele>
        <time>2021-03-20T01:08:19</time>
      </trkpt>
      <trkpt lat="41.3518556859344" lon="-8.73978881165385">
        <ele>8.4</ele>
        <time>2021-03-20T01:08:20</time>
      </trkpt>
      <trkpt lat="41.3518141116947" lon="-8.73976525850594">
        <ele>8.8</ele>
        <time>2021-03-20T01:08:21</time>
      </trkpt>
      <trkpt lat="41.3517596293241" lon="-8.73972955159843">
        <ele>9.4</ele>
        <time>2021-03-20T01:08:22</time>
      </trkpt>
      <trkpt lat="41.3517079129815" lon="-8.73971085995436">
        <ele>9.4</ele>
        <time>2021-03-20T01:08:23</time>
      </trkpt>
      <trkpt lat="41.3516449648887" lon="-8.73967154882848">
        <ele>9.8</ele>
        <time>2021-03-20T01:08:24</time>
      </trkpt>
      <trkpt lat="41.3516019657254" lon="-8.73965000733733">
        <ele>10.8</ele>
        <time>2021-03-20T01:08:25</time>
      </trkpt>
      <trkpt lat="41.3515421189368" lon="-8.73962628655136">
        <ele>11</ele>
        <time>2021-03-20T01:08:26</time>
      </trkpt>
      <trkpt lat="41.3514837808907" lon="-8.73959384858608">
        <ele>11</ele>
        <time>2021-03-20T01:08:27</time>
      </trkpt>
      <trkpt lat="41.3514277059585" lon="-8.73956602066755">
        <ele>11</ele>
        <time>2021-03-20T01:08:28</time>
      </trkpt>
      <trkpt lat="41.3513714633882" lon="-8.73953819274902">
        <ele>11.4</ele>
        <time>2021-03-20T01:08:29</time>
      </trkpt>
      <trkpt lat="41.3513187412173" lon="-8.73951480723918">
        <ele>11.8</ele>
        <time>2021-03-20T01:08:30</time>
      </trkpt>
      <trkpt lat="41.3512574695051" lon="-8.73948873952031">
        <ele>12</ele>
        <time>2021-03-20T01:08:31</time>
      </trkpt>
      <trkpt lat="41.3512051664293" lon="-8.73946032486856">
        <ele>12.4</ele>
        <time>2021-03-20T01:08:32</time>
      </trkpt>
      <trkpt lat="41.3511459063739" lon="-8.73942730017006">
        <ele>12.8</ele>
        <time>2021-03-20T01:08:33</time>
      </trkpt>
      <trkpt lat="41.3510997220874" lon="-8.73940274119377">
        <ele>13.2</ele>
        <time>2021-03-20T01:08:34</time>
      </trkpt>
      <trkpt lat="41.3510364387184" lon="-8.73937021940946">
        <ele>13.2</ele>
        <time>2021-03-20T01:08:35</time>
      </trkpt>
      <trkpt lat="41.3509661145508" lon="-8.73932822607458">
        <ele>13.6</ele>
        <time>2021-03-20T01:08:36</time>
      </trkpt>
      <trkpt lat="41.350897718221" lon="-8.739292351529">
        <ele>13.8</ele>
        <time>2021-03-20T01:08:37</time>
      </trkpt>
      <trkpt lat="41.3508411403745" lon="-8.73925924301148">
        <ele>13.8</ele>
        <time>2021-03-20T01:08:38</time>
      </trkpt>
      <trkpt lat="41.3507706485689" lon="-8.73922781087458">
        <ele>13.8</ele>
        <time>2021-03-20T01:08:39</time>
      </trkpt>
      <trkpt lat="41.3506979774684" lon="-8.73918883502484">
        <ele>14.2</ele>
        <time>2021-03-20T01:08:40</time>
      </trkpt>
      <trkpt lat="41.3506444171071" lon="-8.73916771262884">
        <ele>14.4</ele>
        <time>2021-03-20T01:08:41</time>
      </trkpt>
      <trkpt lat="41.3505731709302" lon="-8.73912521637976">
        <ele>14.4</ele>
        <time>2021-03-20T01:08:42</time>
      </trkpt>
      <trkpt lat="41.3505042716861" lon="-8.73909135349095">
        <ele>14.4</ele>
        <time>2021-03-20T01:08:43</time>
      </trkpt>
      <trkpt lat="41.3504489511251" lon="-8.7390647828579">
        <ele>14.2</ele>
        <time>2021-03-20T01:08:44</time>
      </trkpt>
      <trkpt lat="41.3503884337842" lon="-8.73903653584421">
        <ele>14</ele>
        <time>2021-03-20T01:08:45</time>
      </trkpt>
      <trkpt lat="41.3503184448928" lon="-8.73900049366057">
        <ele>14.2</ele>
        <time>2021-03-20T01:08:46</time>
      </trkpt>
      <trkpt lat="41.3502527307719" lon="-8.7389675527811">
        <ele>14.2</ele>
        <time>2021-03-20T01:08:47</time>
      </trkpt>
      <trkpt lat="41.3501959852874" lon="-8.73893729411066">
        <ele>14.4</ele>
        <time>2021-03-20T01:08:48</time>
      </trkpt>
      <trkpt lat="41.3501476217061" lon="-8.73890829272568">
        <ele>14.6</ele>
        <time>2021-03-20T01:08:49</time>
      </trkpt>
      <trkpt lat="41.3500702567399" lon="-8.73886370100081">
        <ele>14.4</ele>
        <time>2021-03-20T01:08:50</time>
      </trkpt>
      <trkpt lat="41.350007141009" lon="-8.73883025720716">
        <ele>14.4</ele>
        <time>2021-03-20T01:08:51</time>
      </trkpt>
      <trkpt lat="41.34995165281" lon="-8.73881005682051">
        <ele>14.2</ele>
        <time>2021-03-20T01:08:52</time>
      </trkpt>
      <trkpt lat="41.3498861063272" lon="-8.73877569101751">
        <ele>14.2</ele>
        <time>2021-03-20T01:08:53</time>
      </trkpt>
      <trkpt lat="41.3498146086931" lon="-8.73872883617878">
        <ele>14.6</ele>
        <time>2021-03-20T01:08:54</time>
      </trkpt>
      <trkpt lat="41.3497599586844" lon="-8.73869899660349">
        <ele>14.8</ele>
        <time>2021-03-20T01:08:55</time>
      </trkpt>
      <trkpt lat="41.3497151155025" lon="-8.73866831883788">
        <ele>15</ele>
        <time>2021-03-20T01:08:56</time>
      </trkpt>
      <trkpt lat="41.3496457133442" lon="-8.73863185755908">
        <ele>14.8</ele>
        <time>2021-03-20T01:08:57</time>
      </trkpt>
      <trkpt lat="41.3495809212327" lon="-8.73859179206192">
        <ele>15</ele>
        <time>2021-03-20T01:08:58</time>
      </trkpt>
      <trkpt lat="41.349518224597" lon="-8.73855784535408">
        <ele>15</ele>
        <time>2021-03-20T01:08:59</time>
      </trkpt>
      <trkpt lat="41.3494619820267" lon="-8.73852876015008">
        <ele>15.2</ele>
        <time>2021-03-20T01:09:00</time>
      </trkpt>
      <trkpt lat="41.349402135238" lon="-8.73849271796644">
        <ele>15.2</ele>
        <time>2021-03-20T01:09:01</time>
      </trkpt>
      <trkpt lat="41.3493426237255" lon="-8.73846254311502">
        <ele>15.4</ele>
        <time>2021-03-20T01:09:02</time>
      </trkpt>
      <trkpt lat="41.349280430004" lon="-8.73842675238848">
        <ele>15.4</ele>
        <time>2021-03-20T01:09:03</time>
      </trkpt>
      <trkpt lat="41.3492279592901" lon="-8.7383998464793">
        <ele>15.6</ele>
        <time>2021-03-20T01:09:04</time>
      </trkpt>
      <trkpt lat="41.3491577189416" lon="-8.7383562605828">
        <ele>16.2</ele>
        <time>2021-03-20T01:09:05</time>
      </trkpt>
      <trkpt lat="41.3491122052074" lon="-8.73834678903222">
        <ele>16.2</ele>
        <time>2021-03-20T01:09:06</time>
      </trkpt>
      <trkpt lat="41.3490471616387" lon="-8.73830873519182">
        <ele>16.6</ele>
        <time>2021-03-20T01:09:07</time>
      </trkpt>
      <trkpt lat="41.348994942382" lon="-8.73828534968197">
        <ele>16.8</ele>
        <time>2021-03-20T01:09:08</time>
      </trkpt>
      <trkpt lat="41.3489391189069" lon="-8.73826498165727">
        <ele>17.2</ele>
        <time>2021-03-20T01:09:09</time>
      </trkpt>
      <trkpt lat="41.3488871511072" lon="-8.73823774047196">
        <ele>17.2</ele>
        <time>2021-03-20T01:09:10</time>
      </trkpt>
      <trkpt lat="41.348828477785" lon="-8.73822005465627">
        <ele>17.4</ele>
        <time>2021-03-20T01:09:11</time>
      </trkpt>
      <trkpt lat="41.3487707264721" lon="-8.73820530250669">
        <ele>17.8</ele>
        <time>2021-03-20T01:09:12</time>
      </trkpt>
      <trkpt lat="41.348733259365" lon="-8.73820253647864">
        <ele>18.6</ele>
        <time>2021-03-20T01:09:13</time>
      </trkpt>
      <trkpt lat="41.3486719038338" lon="-8.73819775879383">
        <ele>19</ele>
        <time>2021-03-20T01:09:14</time>
      </trkpt>
      <trkpt lat="41.348609123379" lon="-8.73819373548031">
        <ele>19.4</ele>
        <time>2021-03-20T01:09:15</time>
      </trkpt>
      <trkpt lat="41.3485292438418" lon="-8.73821536079049">
        <ele>19.6</ele>
        <time>2021-03-20T01:09:16</time>
      </trkpt>
      <trkpt lat="41.3484646193683" lon="-8.73823505826294">
        <ele>20</ele>
        <time>2021-03-20T01:09:17</time>
      </trkpt>
      <trkpt lat="41.3484209496528" lon="-8.7382492236793">
        <ele>20.4</ele>
        <time>2021-03-20T01:09:18</time>
      </trkpt>
      <trkpt lat="41.3483572471887" lon="-8.73827051371336">
        <ele>20.8</ele>
        <time>2021-03-20T01:09:19</time>
      </trkpt>
      <trkpt lat="41.3482696563005" lon="-8.7382928095758">
        <ele>21</ele>
        <time>2021-03-20T01:09:20</time>
      </trkpt>
      <trkpt lat="41.3482162635773" lon="-8.73829825781286">
        <ele>21.2</ele>
        <time>2021-03-20T01:09:21</time>
      </trkpt>
      <trkpt lat="41.3481524772942" lon="-8.73831720091402">
        <ele>21.2</ele>
        <time>2021-03-20T01:09:22</time>
      </trkpt>
      <trkpt lat="41.3480687420815" lon="-8.73834033496678">
        <ele>21.4</ele>
        <time>2021-03-20T01:09:23</time>
      </trkpt>
      <trkpt lat="41.3480032794178" lon="-8.738356763497">
        <ele>21.8</ele>
        <time>2021-03-20T01:09:24</time>
      </trkpt>
      <trkpt lat="41.3479566760361" lon="-8.7383705098182">
        <ele>22</ele>
        <time>2021-03-20T01:09:25</time>
      </trkpt>
      <trkpt lat="41.3478856813163" lon="-8.73838132247329">
        <ele>22.2</ele>
        <time>2021-03-20T01:09:26</time>
      </trkpt>
      <trkpt lat="41.3478022813797" lon="-8.73840420506894">
        <ele>22.6</ele>
        <time>2021-03-20T01:09:27</time>
      </trkpt>
      <trkpt lat="41.3477531634271" lon="-8.73841024003923">
        <ele>22.6</ele>
        <time>2021-03-20T01:09:28</time>
      </trkpt>
      <trkpt lat="41.3476796541363" lon="-8.73841132968664">
        <ele>22.8</ele>
        <time>2021-03-20T01:09:29</time>
      </trkpt>
      <trkpt lat="41.347594158724" lon="-8.7384117487818">
        <ele>23.4</ele>
        <time>2021-03-20T01:09:30</time>
      </trkpt>
      <trkpt lat="41.3475277740508" lon="-8.73841535300016">
        <ele>23.8</ele>
        <time>2021-03-20T01:09:31</time>
      </trkpt>
      <trkpt lat="41.3474802486598" lon="-8.73841602355242">
        <ele>23.8</ele>
        <time>2021-03-20T01:09:32</time>
      </trkpt>
      <trkpt lat="41.3474129419774" lon="-8.73840923421085">
        <ele>23.8</ele>
        <time>2021-03-20T01:09:33</time>
      </trkpt>
      <trkpt lat="41.3473456352949" lon="-8.73839280568063">
        <ele>24</ele>
        <time>2021-03-20T01:09:34</time>
      </trkpt>
      <trkpt lat="41.347279753536" lon="-8.73837679624558">
        <ele>24.2</ele>
        <time>2021-03-20T01:09:35</time>
      </trkpt>
      <trkpt lat="41.3472129497677" lon="-8.73835785314441">
        <ele>24.4</ele>
        <time>2021-03-20T01:09:36</time>
      </trkpt>
      <trkpt lat="41.3471631612629" lon="-8.73834284953773">
        <ele>24.6</ele>
        <time>2021-03-20T01:09:37</time>
      </trkpt>
      <trkpt lat="41.3471017219126" lon="-8.73831979930401">
        <ele>24.8</ele>
        <time>2021-03-20T01:09:38</time>
      </trkpt>
      <trkpt lat="41.3470401149243" lon="-8.73828920535743">
        <ele>24.8</ele>
        <time>2021-03-20T01:09:39</time>
      </trkpt>
      <trkpt lat="41.3469576369971" lon="-8.73824721202254">
        <ele>24.8</ele>
        <time>2021-03-20T01:09:40</time>
      </trkpt>
      <trkpt lat="41.34691497311" lon="-8.73822684399784">
        <ele>25</ele>
        <time>2021-03-20T01:09:41</time>
      </trkpt>
      <trkpt lat="41.3468509353697" lon="-8.73820220120251">
        <ele>24.8</ele>
        <time>2021-03-20T01:09:42</time>
      </trkpt>
      <trkpt lat="41.3468024041504" lon="-8.73818334192038">
        <ele>24.8</ele>
        <time>2021-03-20T01:09:43</time>
      </trkpt>
      <trkpt lat="41.3467329181731" lon="-8.73815601691604">
        <ele>24.8</ele>
        <time>2021-03-20T01:09:44</time>
      </trkpt>
      <trkpt lat="41.3466889131814" lon="-8.73814025893807">
        <ele>24.4</ele>
        <time>2021-03-20T01:09:45</time>
      </trkpt>
      <trkpt lat="41.3466311618686" lon="-8.73811804689467">
        <ele>24.4</ele>
        <time>2021-03-20T01:09:46</time>
      </trkpt>
      <trkpt lat="41.34655572474" lon="-8.73808619566262">
        <ele>24.4</ele>
        <time>2021-03-20T01:09:47</time>
      </trkpt>
      <trkpt lat="41.3464937824756" lon="-8.7380613014102">
        <ele>24.2</ele>
        <time>2021-03-20T01:09:48</time>
      </trkpt>
      <trkpt lat="41.3464606739581" lon="-8.7380507402122">
        <ele>24.4</ele>
        <time>2021-03-20T01:09:49</time>
      </trkpt>
      <trkpt lat="41.3463947083801" lon="-8.7380229961127">
        <ele>24</ele>
        <time>2021-03-20T01:09:50</time>
      </trkpt>
      <trkpt lat="41.3463501166552" lon="-8.73801620677114">
        <ele>23.8</ele>
        <time>2021-03-20T01:09:51</time>
      </trkpt>
      <trkpt lat="41.3463087100536" lon="-8.73799935914576">
        <ele>23.8</ele>
        <time>2021-03-20T01:09:52</time>
      </trkpt>
      <trkpt lat="41.3462711591274" lon="-8.73798971995711">
        <ele>24</ele>
        <time>2021-03-20T01:09:53</time>
      </trkpt>
      <trkpt lat="41.3462029304355" lon="-8.73795870691538">
        <ele>23.8</ele>
        <time>2021-03-20T01:09:54</time>
      </trkpt>
      <trkpt lat="41.3461489509791" lon="-8.73794755898416">
        <ele>23.4</ele>
        <time>2021-03-20T01:09:55</time>
      </trkpt>
      <trkpt lat="41.346093127504" lon="-8.73790925368667">
        <ele>23.4</ele>
        <time>2021-03-20T01:09:56</time>
      </trkpt>
      <trkpt lat="41.3460422493517" lon="-8.73787606135011">
        <ele>23.4</ele>
        <time>2021-03-20T01:09:57</time>
      </trkpt>
      <trkpt lat="41.3459721766412" lon="-8.73783473856747">
        <ele>23.4</ele>
        <time>2021-03-20T01:09:58</time>
      </trkpt>
      <trkpt lat="41.3459154311568" lon="-8.73779450543225">
        <ele>23.4</ele>
        <time>2021-03-20T01:09:59</time>
      </trkpt>
      <trkpt lat="41.3458812329918" lon="-8.73777723871171">
        <ele>23.4</ele>
        <time>2021-03-20T01:10:00</time>
      </trkpt>
      <trkpt lat="41.3458091486245" lon="-8.73773348517716">
        <ele>23.2</ele>
        <time>2021-03-20T01:10:01</time>
      </trkpt>
      <trkpt lat="41.3457606174052" lon="-8.73769853264094">
        <ele>23.2</ele>
        <time>2021-03-20T01:10:02</time>
      </trkpt>
      <trkpt lat="41.3457176182419" lon="-8.73765922151506">
        <ele>23</ele>
        <time>2021-03-20T01:10:03</time>
      </trkpt>
      <trkpt lat="41.3456599507481" lon="-8.73761186376214">
        <ele>23</ele>
        <time>2021-03-20T01:10:04</time>
      </trkpt>
      <trkpt lat="41.3455932307988" lon="-8.73757028952241">
        <ele>23</ele>
        <time>2021-03-20T01:10:05</time>
      </trkpt>
      <trkpt lat="41.3455386646092" lon="-8.73752502724528">
        <ele>23</ele>
        <time>2021-03-20T01:10:06</time>
      </trkpt>
      <trkpt lat="41.3454994373024" lon="-8.7374997138977">
        <ele>23.2</ele>
        <time>2021-03-20T01:10:07</time>
      </trkpt>
      <trkpt lat="41.3454307056963" lon="-8.73744984157384">
        <ele>23</ele>
        <time>2021-03-20T01:10:08</time>
      </trkpt>
      <trkpt lat="41.3453917298466" lon="-8.73742268420756">
        <ele>23</ele>
        <time>2021-03-20T01:10:09</time>
      </trkpt>
      <trkpt lat="41.345337247476" lon="-8.73738228343427">
        <ele>23</ele>
        <time>2021-03-20T01:10:10</time>
      </trkpt>
      <trkpt lat="41.3452676776797" lon="-8.73733433894813">
        <ele>22.8</ele>
        <time>2021-03-20T01:10:11</time>
      </trkpt>
      <trkpt lat="41.3452274445444" lon="-8.73730584047735">
        <ele>22.6</ele>
        <time>2021-03-20T01:10:12</time>
      </trkpt>
      <trkpt lat="41.3451712857932" lon="-8.73726552352309">
        <ele>22.6</ele>
        <time>2021-03-20T01:10:13</time>
      </trkpt>
      <trkpt lat="41.3451016321778" lon="-8.73721254989505">
        <ele>22.6</ele>
        <time>2021-03-20T01:10:14</time>
      </trkpt>
      <trkpt lat="41.3450462277979" lon="-8.73716929927468">
        <ele>22.8</ele>
        <time>2021-03-20T01:10:15</time>
      </trkpt>
      <trkpt lat="41.3449999596924" lon="-8.73713585548103">
        <ele>22.8</ele>
        <time>2021-03-20T01:10:16</time>
      </trkpt>
      <trkpt lat="41.3449379336089" lon="-8.73708698898554">
        <ele>22.8</ele>
        <time>2021-03-20T01:10:17</time>
      </trkpt>
      <trkpt lat="41.3448596466333" lon="-8.7370284833014">
        <ele>22.6</ele>
        <time>2021-03-20T01:10:18</time>
      </trkpt>
      <trkpt lat="41.3448017276824" lon="-8.73698548413813">
        <ele>22.6</ele>
        <time>2021-03-20T01:10:19</time>
      </trkpt>
      <trkpt lat="41.3447561301291" lon="-8.73696025460958">
        <ele>22.6</ele>
        <time>2021-03-20T01:10:20</time>
      </trkpt>
      <trkpt lat="41.3446749094874" lon="-8.73690200038254">
        <ele>22.6</ele>
        <time>2021-03-20T01:10:21</time>
      </trkpt>
      <trkpt lat="41.34461062029" lon="-8.73686025850475">
        <ele>22.8</ele>
        <time>2021-03-20T01:10:22</time>
      </trkpt>
      <trkpt lat="41.3445442356169" lon="-8.73681533150375">
        <ele>23</ele>
        <time>2021-03-20T01:10:23</time>
      </trkpt>
      <trkpt lat="41.3444952853024" lon="-8.73678624629974">
        <ele>23</ele>
        <time>2021-03-20T01:10:24</time>
      </trkpt>
      <trkpt lat="41.3444216083735" lon="-8.73673754744232">
        <ele>22.8</ele>
        <time>2021-03-20T01:10:25</time>
      </trkpt>
      <trkpt lat="41.3443564809859" lon="-8.7366915307939">
        <ele>22.8</ele>
        <time>2021-03-20T01:10:26</time>
      </trkpt>
      <trkpt lat="41.3443116378039" lon="-8.7366640381515">
        <ele>22.6</ele>
        <time>2021-03-20T01:10:27</time>
      </trkpt>
      <trkpt lat="41.3442332670093" lon="-8.73661953024566">
        <ele>23</ele>
        <time>2021-03-20T01:10:28</time>
      </trkpt>
      <trkpt lat="41.3441656250507" lon="-8.73657586053014">
        <ele>23</ele>
        <time>2021-03-20T01:10:29</time>
      </trkpt>
      <trkpt lat="41.3440997432917" lon="-8.73653604649007">
        <ele>23.2</ele>
        <time>2021-03-20T01:10:30</time>
      </trkpt>
      <trkpt lat="41.3440409023315" lon="-8.73650805093348">
        <ele>22.8</ele>
        <time>2021-03-20T01:10:31</time>
      </trkpt>
      <trkpt lat="41.3439707458019" lon="-8.73645884916186">
        <ele>22.6</ele>
        <time>2021-03-20T01:10:32</time>
      </trkpt>
      <trkpt lat="41.3438981585205" lon="-8.73641023412347">
        <ele>22.8</ele>
        <time>2021-03-20T01:10:33</time>
      </trkpt>
      <trkpt lat="41.3438324443996" lon="-8.73636472038925">
        <ele>23</ele>
        <time>2021-03-20T01:10:34</time>
      </trkpt>
      <trkpt lat="41.3437639642507" lon="-8.73631903901696">
        <ele>23.2</ele>
        <time>2021-03-20T01:10:35</time>
      </trkpt>
      <trkpt lat="41.3436914607882" lon="-8.73627469874918">
        <ele>23.2</ele>
        <time>2021-03-20T01:10:36</time>
      </trkpt>
      <trkpt lat="41.3436357211322" lon="-8.73624075204134">
        <ele>23.2</ele>
        <time>2021-03-20T01:10:37</time>
      </trkpt>
      <trkpt lat="41.3435386586934" lon="-8.73617503792048">
        <ele>23.2</ele>
        <time>2021-03-20T01:10:38</time>
      </trkpt>
      <trkpt lat="41.3434617128223" lon="-8.73612273484468">
        <ele>23.2</ele>
        <time>2021-03-20T01:10:39</time>
      </trkpt>
      <trkpt lat="41.3433846831322" lon="-8.73606372624636">
        <ele>23.2</ele>
        <time>2021-03-20T01:10:40</time>
      </trkpt>
      <trkpt lat="41.3432991039008" lon="-8.73599801212549">
        <ele>23.2</ele>
        <time>2021-03-20T01:10:41</time>
      </trkpt>
      <trkpt lat="41.3432227447629" lon="-8.73593933880329">
        <ele>23.2</ele>
        <time>2021-03-20T01:10:42</time>
      </trkpt>
      <trkpt lat="41.3431431166828" lon="-8.73587882146239">
        <ele>23</ele>
        <time>2021-03-20T01:10:43</time>
      </trkpt>
      <trkpt lat="41.3430871255696" lon="-8.73583322390914">
        <ele>23</ele>
        <time>2021-03-20T01:10:44</time>
      </trkpt>
      <trkpt lat="41.3429832737893" lon="-8.73574253171682">
        <ele>22.8</ele>
        <time>2021-03-20T01:10:45</time>
      </trkpt>
      <trkpt lat="41.342905741185" lon="-8.73566499911249">
        <ele>23</ele>
        <time>2021-03-20T01:10:46</time>
      </trkpt>
      <trkpt lat="41.3428281247616" lon="-8.73558771796524">
        <ele>23</ele>
        <time>2021-03-20T01:10:47</time>
      </trkpt>
      <trkpt lat="41.3427784200758" lon="-8.73552904464304">
        <ele>22.8</ele>
        <time>2021-03-20T01:10:48</time>
      </trkpt>
      <trkpt lat="41.3426976185292" lon="-8.73542485758662">
        <ele>22.8</ele>
        <time>2021-03-20T01:10:49</time>
      </trkpt>
      <trkpt lat="41.3426479138434" lon="-8.73535470105708">
        <ele>22.6</ele>
        <time>2021-03-20T01:10:50</time>
      </trkpt>
      <trkpt lat="41.3425816129893" lon="-8.73526250012219">
        <ele>22.6</ele>
        <time>2021-03-20T01:10:51</time>
      </trkpt>
      <trkpt lat="41.3425116240978" lon="-8.73516225256026">
        <ele>22.6</ele>
        <time>2021-03-20T01:10:52</time>
      </trkpt>
      <trkpt lat="41.3424391206354" lon="-8.73506627976894">
        <ele>22.6</ele>
        <time>2021-03-20T01:10:53</time>
      </trkpt>
      <trkpt lat="41.3423864822835" lon="-8.73499168083072">
        <ele>22.6</ele>
        <time>2021-03-20T01:10:54</time>
      </trkpt>
      <trkpt lat="41.3423061836511" lon="-8.73487902805209">
        <ele>22.4</ele>
        <time>2021-03-20T01:10:55</time>
      </trkpt>
      <trkpt lat="41.3422376196831" lon="-8.73478800058365">
        <ele>22.2</ele>
        <time>2021-03-20T01:10:56</time>
      </trkpt>
      <trkpt lat="41.3421854842454" lon="-8.73471432365477">
        <ele>22.2</ele>
        <time>2021-03-20T01:10:57</time>
      </trkpt>
      <trkpt lat="41.3421264756471" lon="-8.73463972471654">
        <ele>22</ele>
        <time>2021-03-20T01:10:58</time>
      </trkpt>
      <trkpt lat="41.3420482724905" lon="-8.73453729785979">
        <ele>21.8</ele>
        <time>2021-03-20T01:10:59</time>
      </trkpt>
      <trkpt lat="41.3419647049159" lon="-8.73447300866246">
        <ele>21.6</ele>
        <time>2021-03-20T01:11:00</time>
      </trkpt>
      <trkpt lat="41.341890944168" lon="-8.73440628871322">
        <ele>21.4</ele>
        <time>2021-03-20T01:11:01</time>
      </trkpt>
      <trkpt lat="41.3418274093419" lon="-8.7343274988234">
        <ele>21.4</ele>
        <time>2021-03-20T01:11:02</time>
      </trkpt>
      <trkpt lat="41.3417794648558" lon="-8.73423504643142">
        <ele>21.2</ele>
        <time>2021-03-20T01:11:03</time>
      </trkpt>
      <trkpt lat="41.3417289219797" lon="-8.73412574641406">
        <ele>20.8</ele>
        <time>2021-03-20T01:11:04</time>
      </trkpt>
      <trkpt lat="41.34168474935" lon="-8.73403622768819">
        <ele>20.8</ele>
        <time>2021-03-20T01:11:05</time>
      </trkpt>
      <trkpt lat="41.3416209630668" lon="-8.73390354216099">
        <ele>20.8</ele>
        <time>2021-03-20T01:11:06</time>
      </trkpt>
      <trkpt lat="41.3415682408959" lon="-8.73381234705448">
        <ele>20.8</ele>
        <time>2021-03-20T01:11:07</time>
      </trkpt>
      <trkpt lat="41.3415229786187" lon="-8.73372601345181">
        <ele>20.8</ele>
        <time>2021-03-20T01:11:08</time>
      </trkpt>
      <trkpt lat="41.3414651434869" lon="-8.73362802900374">
        <ele>20.6</ele>
        <time>2021-03-20T01:11:09</time>
      </trkpt>
      <trkpt lat="41.3414114154875" lon="-8.73353398405016">
        <ele>20.4</ele>
        <time>2021-03-20T01:11:10</time>
      </trkpt>
      <trkpt lat="41.3413567654788" lon="-8.73343549668789">
        <ele>20.2</ele>
        <time>2021-03-20T01:11:11</time>
      </trkpt>
      <trkpt lat="41.341309659183" lon="-8.73334949836135">
        <ele>20</ele>
        <time>2021-03-20T01:11:12</time>
      </trkpt>
      <trkpt lat="41.3412422686815" lon="-8.73323173262179">
        <ele>19.8</ele>
        <time>2021-03-20T01:11:13</time>
      </trkpt>
      <trkpt lat="41.3411851041019" lon="-8.73313148505986">
        <ele>19.6</ele>
        <time>2021-03-20T01:11:14</time>
      </trkpt>
      <trkpt lat="41.3411436136812" lon="-8.73306149616838">
        <ele>19.4</ele>
        <time>2021-03-20T01:11:15</time>
      </trkpt>
      <trkpt lat="41.3410757202655" lon="-8.73295085504651">
        <ele>19.4</ele>
        <time>2021-03-20T01:11:16</time>
      </trkpt>
      <trkpt lat="41.3410192262381" lon="-8.73285982757807">
        <ele>19.2</ele>
        <time>2021-03-20T01:11:17</time>
      </trkpt>
      <trkpt lat="41.340976729989" lon="-8.73279302380979">
        <ele>19.4</ele>
        <time>2021-03-20T01:11:18</time>
      </trkpt>
      <trkpt lat="41.340899951756" lon="-8.73268255032599">
        <ele>19.4</ele>
        <time>2021-03-20T01:11:19</time>
      </trkpt>
      <trkpt lat="41.3408356625587" lon="-8.73258699662984">
        <ele>19.2</ele>
        <time>2021-03-20T01:11:20</time>
      </trkpt>
      <trkpt lat="41.3407789170742" lon="-8.73248934745789">
        <ele>19</ele>
        <time>2021-03-20T01:11:21</time>
      </trkpt>
      <trkpt lat="41.3407391030341" lon="-8.73243469744921">
        <ele>19</ele>
        <time>2021-03-20T01:11:22</time>
      </trkpt>
      <trkpt lat="41.3406712096184" lon="-8.73232481069863">
        <ele>19</ele>
        <time>2021-03-20T01:11:23</time>
      </trkpt>
      <trkpt lat="41.3406247738749" lon="-8.73225473798811">
        <ele>18.8</ele>
        <time>2021-03-20T01:11:24</time>
      </trkpt>
      <trkpt lat="41.3405744824558" lon="-8.73217536136508">
        <ele>18.2</ele>
        <time>2021-03-20T01:11:25</time>
      </trkpt>
      <trkpt lat="41.340508935973" lon="-8.73206606134772">
        <ele>18.2</ele>
        <time>2021-03-20T01:11:26</time>
      </trkpt>
      <trkpt lat="41.3404566328973" lon="-8.73197184875608">
        <ele>18.2</ele>
        <time>2021-03-20T01:11:27</time>
      </trkpt>
      <trkpt lat="41.3404096104205" lon="-8.73189230449498">
        <ele>18.2</ele>
        <time>2021-03-20T01:11:28</time>
      </trkpt>
      <trkpt lat="41.3403464108706" lon="-8.73177202418446">
        <ele>18</ele>
        <time>2021-03-20T01:11:29</time>
      </trkpt>
      <trkpt lat="41.340302741155" lon="-8.73169424012303">
        <ele>18</ele>
        <time>2021-03-20T01:11:30</time>
      </trkpt>
      <trkpt lat="41.340241972357" lon="-8.7315976805985">
        <ele>17.6</ele>
        <time>2021-03-20T01:11:31</time>
      </trkpt>
      <trkpt lat="41.3401846401393" lon="-8.73149625957012">
        <ele>17.6</ele>
        <time>2021-03-20T01:11:32</time>
      </trkpt>
      <trkpt lat="41.3401159085333" lon="-8.73137002810836">
        <ele>17.4</ele>
        <time>2021-03-20T01:11:33</time>
      </trkpt>
      <trkpt lat="41.340075256303" lon="-8.73129023239016">
        <ele>17.2</ele>
        <time>2021-03-20T01:11:34</time>
      </trkpt>
      <trkpt lat="41.3400187622756" lon="-8.73118780553341">
        <ele>17.2</ele>
        <time>2021-03-20T01:11:35</time>
      </trkpt>
      <trkpt lat="41.3399534672499" lon="-8.73106031678617">
        <ele>17.2</ele>
        <time>2021-03-20T01:11:36</time>
      </trkpt>
      <trkpt lat="41.3399162515998" lon="-8.73098521493375">
        <ele>17.4</ele>
        <time>2021-03-20T01:11:37</time>
      </trkpt>
      <trkpt lat="41.3398594222963" lon="-8.7308825366199">
        <ele>17.4</ele>
        <time>2021-03-20T01:11:38</time>
      </trkpt>
      <trkpt lat="41.339803179726" lon="-8.73077751137316">
        <ele>17.4</ele>
        <time>2021-03-20T01:11:39</time>
      </trkpt>
      <trkpt lat="41.3397349510342" lon="-8.73064851388335">
        <ele>17.2</ele>
        <time>2021-03-20T01:11:40</time>
      </trkpt>
      <trkpt lat="41.3396926224232" lon="-8.73057131655514">
        <ele>17.2</ele>
        <time>2021-03-20T01:11:41</time>
      </trkpt>
      <trkpt lat="41.3396456837654" lon="-8.73049621470272">
        <ele>17</ele>
        <time>2021-03-20T01:11:42</time>
      </trkpt>
      <trkpt lat="41.3395744375885" lon="-8.73036906123161">
        <ele>17</ele>
        <time>2021-03-20T01:11:43</time>
      </trkpt>
      <trkpt lat="41.3395144231617" lon="-8.73026931658387">
        <ele>16.6</ele>
        <time>2021-03-20T01:11:44</time>
      </trkpt>
      <trkpt lat="41.3394539058208" lon="-8.73016571626067">
        <ele>16.4</ele>
        <time>2021-03-20T01:11:45</time>
      </trkpt>
      <trkpt lat="41.3393796421587" lon="-8.7300310190767">
        <ele>16.4</ele>
        <time>2021-03-20T01:11:46</time>
      </trkpt>
      <trkpt lat="41.3393152691424" lon="-8.72993001714349">
        <ele>16.4</ele>
        <time>2021-03-20T01:11:47</time>
      </trkpt>
      <trkpt lat="41.3392676599324" lon="-8.72986782342196">
        <ele>16.6</ele>
        <time>2021-03-20T01:11:48</time>
      </trkpt>
      <trkpt lat="41.3391839247197" lon="-8.72979783453047">
        <ele>16.6</ele>
        <time>2021-03-20T01:11:49</time>
      </trkpt>
      <trkpt lat="41.3390697631985" lon="-8.72971099801362">
        <ele>16.6</ele>
        <time>2021-03-20T01:11:50</time>
      </trkpt>
      <trkpt lat="41.3390166219324" lon="-8.72964235022664">
        <ele>16.4</ele>
        <time>2021-03-20T01:11:51</time>
      </trkpt>
      <trkpt lat="41.3389687612653" lon="-8.72953422367573">
        <ele>16.2</ele>
        <time>2021-03-20T01:11:52</time>
      </trkpt>
      <trkpt lat="41.3389356527478" lon="-8.72937521897256">
        <ele>16</ele>
        <time>2021-03-20T01:11:53</time>
      </trkpt>
      <trkpt lat="41.3389029633254" lon="-8.72924479655921">
        <ele>15.6</ele>
        <time>2021-03-20T01:11:54</time>
      </trkpt>
      <trkpt lat="41.338870106265" lon="-8.72915184125304">
        <ele>15.4</ele>
        <time>2021-03-20T01:11:55</time>
      </trkpt>
      <trkpt lat="41.338796261698" lon="-8.72900499030948">
        <ele>15.2</ele>
        <time>2021-03-20T01:11:56</time>
      </trkpt>
      <trkpt lat="41.3387317210436" lon="-8.72889149934054">
        <ele>15.2</ele>
        <time>2021-03-20T01:11:57</time>
      </trkpt>
      <trkpt lat="41.3386839441955" lon="-8.72880449518561">
        <ele>15.2</ele>
        <time>2021-03-20T01:11:58</time>
      </trkpt>
      <trkpt lat="41.3386206608266" lon="-8.72868672944605">
        <ele>15</ele>
        <time>2021-03-20T01:11:59</time>
      </trkpt>
      <trkpt lat="41.3385421223938" lon="-8.72854398563504">
        <ele>15</ele>
        <time>2021-03-20T01:12:00</time>
      </trkpt>
      <trkpt lat="41.3384759053588" lon="-8.72843175195158">
        <ele>14.8</ele>
        <time>2021-03-20T01:12:01</time>
      </trkpt>
      <trkpt lat="41.3384282123297" lon="-8.72834424488246">
        <ele>14.6</ele>
        <time>2021-03-20T01:12:02</time>
      </trkpt>
      <trkpt lat="41.3383584748954" lon="-8.72820979915559">
        <ele>14.6</ele>
        <time>2021-03-20T01:12:03</time>
      </trkpt>
      <trkpt lat="41.3383079320192" lon="-8.72812421992421">
        <ele>14.8</ele>
        <time>2021-03-20T01:12:04</time>
      </trkpt>
      <trkpt lat="41.3382452353835" lon="-8.7280108127743">
        <ele>15</ele>
        <time>2021-03-20T01:12:05</time>
      </trkpt>
      <trkpt lat="41.3381817005575" lon="-8.72789120301604">
        <ele>14.6</ele>
        <time>2021-03-20T01:12:06</time>
      </trkpt>
      <trkpt lat="41.3381049223244" lon="-8.72774728573859">
        <ele>14.6</ele>
        <time>2021-03-20T01:12:07</time>
      </trkpt>
      <trkpt lat="41.33804298006" lon="-8.72763773426414">
        <ele>14.2</ele>
        <time>2021-03-20T01:12:08</time>
      </trkpt>
      <trkpt lat="41.3380022440106" lon="-8.72756070457399">
        <ele>14.2</ele>
        <time>2021-03-20T01:12:09</time>
      </trkpt>
      <trkpt lat="41.3379396311939" lon="-8.72744377702474">
        <ele>14.2</ele>
        <time>2021-03-20T01:12:10</time>
      </trkpt>
      <trkpt lat="41.3378574047238" lon="-8.72729952447116">
        <ele>14.4</ele>
        <time>2021-03-20T01:12:11</time>
      </trkpt>
      <trkpt lat="41.3378087058663" lon="-8.72721419669688">
        <ele>14.8</ele>
        <time>2021-03-20T01:12:12</time>
      </trkpt>
      <trkpt lat="41.337731257081" lon="-8.72708268463612">
        <ele>14.8</ele>
        <time>2021-03-20T01:12:13</time>
      </trkpt>
      <trkpt lat="41.3376657105982" lon="-8.7269642483443">
        <ele>14.6</ele>
        <time>2021-03-20T01:12:14</time>
      </trkpt>
      <trkpt lat="41.3376041036099" lon="-8.72685050591826">
        <ele>14.6</ele>
        <time>2021-03-20T01:12:15</time>
      </trkpt>
      <trkpt lat="41.337556745857" lon="-8.72676827944815">
        <ele>15</ele>
        <time>2021-03-20T01:12:16</time>
      </trkpt>
      <trkpt lat="41.3374679815024" lon="-8.72661799192429">
        <ele>15.2</ele>
        <time>2021-03-20T01:12:17</time>
      </trkpt>
      <trkpt lat="41.3374256528914" lon="-8.72653853148222">
        <ele>15.6</ele>
        <time>2021-03-20T01:12:18</time>
      </trkpt>
      <trkpt lat="41.3373577594757" lon="-8.72641825117171">
        <ele>16</ele>
        <time>2021-03-20T01:12:19</time>
      </trkpt>
      <trkpt lat="41.3372752815485" lon="-8.72627072967589">
        <ele>16.6</ele>
        <time>2021-03-20T01:12:20</time>
      </trkpt>
      <trkpt lat="41.3372149318457" lon="-8.72616453096271">
        <ele>17</ele>
        <time>2021-03-20T01:12:21</time>
      </trkpt>
      <trkpt lat="41.337165646255" lon="-8.72607828117907">
        <ele>17.2</ele>
        <time>2021-03-20T01:12:22</time>
      </trkpt>
      <trkpt lat="41.3371029496193" lon="-8.72596805915236">
        <ele>18</ele>
        <time>2021-03-20T01:12:23</time>
      </trkpt>
      <trkpt lat="41.3370236568153" lon="-8.72582632116974">
        <ele>18.4</ele>
        <time>2021-03-20T01:12:24</time>
      </trkpt>
      <trkpt lat="41.3369754608721" lon="-8.72574225068092">
        <ele>18.8</ele>
        <time>2021-03-20T01:12:25</time>
      </trkpt>
      <trkpt lat="41.3369116745889" lon="-8.72562029398978">
        <ele>19.6</ele>
        <time>2021-03-20T01:12:26</time>
      </trkpt>
      <trkpt lat="41.3368302024901" lon="-8.72547620907426">
        <ele>20.2</ele>
        <time>2021-03-20T01:12:27</time>
      </trkpt>
      <trkpt lat="41.3367674220353" lon="-8.7253637239337">
        <ele>21.4</ele>
        <time>2021-03-20T01:12:28</time>
      </trkpt>
      <trkpt lat="41.3366971816868" lon="-8.72524168342352">
        <ele>22</ele>
        <time>2021-03-20T01:12:29</time>
      </trkpt>
      <trkpt lat="41.3366507459432" lon="-8.72515199705958">
        <ele>22.4</ele>
        <time>2021-03-20T01:12:30</time>
      </trkpt>
      <trkpt lat="41.3365872111172" lon="-8.7250405177474">
        <ele>22.8</ele>
        <time>2021-03-20T01:12:31</time>
      </trkpt>
      <trkpt lat="41.336523424834" lon="-8.72492585331202">
        <ele>23.4</ele>
        <time>2021-03-20T01:12:32</time>
      </trkpt>
      <trkpt lat="41.3364682719111" lon="-8.72482099570334">
        <ele>24</ele>
        <time>2021-03-20T01:12:33</time>
      </trkpt>
      <trkpt lat="41.3363836146891" lon="-8.72466802597046">
        <ele>24.4</ele>
        <time>2021-03-20T01:12:34</time>
      </trkpt>
      <trkpt lat="41.3363236002624" lon="-8.72455772012472">
        <ele>25.2</ele>
        <time>2021-03-20T01:12:35</time>
      </trkpt>
      <trkpt lat="41.3362747337669" lon="-8.72447473928332">
        <ele>25.8</ele>
        <time>2021-03-20T01:12:36</time>
      </trkpt>
      <trkpt lat="41.3362122047693" lon="-8.72435722500086">
        <ele>26.2</ele>
        <time>2021-03-20T01:12:37</time>
      </trkpt>
      <trkpt lat="41.3361271284521" lon="-8.72420752421021">
        <ele>26.8</ele>
        <time>2021-03-20T01:12:38</time>
      </trkpt>
      <trkpt lat="41.336084716022" lon="-8.72412655502558">
        <ele>27.2</ele>
        <time>2021-03-20T01:12:39</time>
      </trkpt>
      <trkpt lat="41.3359972089529" lon="-8.72398029081524">
        <ele>27.4</ele>
        <time>2021-03-20T01:12:40</time>
      </trkpt>
      <trkpt lat="41.3359321653843" lon="-8.72386269271374">
        <ele>27.8</ele>
        <time>2021-03-20T01:12:41</time>
      </trkpt>
      <trkpt lat="41.3358634337783" lon="-8.72374232858419">
        <ele>28</ele>
        <time>2021-03-20T01:12:42</time>
      </trkpt>
      <trkpt lat="41.3358200993389" lon="-8.72366169467568">
        <ele>28</ele>
        <time>2021-03-20T01:12:43</time>
      </trkpt>
      <trkpt lat="41.3357554748654" lon="-8.72355155646801">
        <ele>28.2</ele>
        <time>2021-03-20T01:12:44</time>
      </trkpt>
      <trkpt lat="41.3356989808381" lon="-8.72345298528671">
        <ele>28.4</ele>
        <time>2021-03-20T01:12:45</time>
      </trkpt>
      <trkpt lat="41.3356307521462" lon="-8.72334578074515">
        <ele>28.6</ele>
        <time>2021-03-20T01:12:46</time>
      </trkpt>
      <trkpt lat="41.3355439156294" lon="-8.72321418486536">
        <ele>28.8</ele>
        <time>2021-03-20T01:12:47</time>
      </trkpt>
      <trkpt lat="41.3354712445289" lon="-8.72312030754984">
        <ele>29.2</ele>
        <time>2021-03-20T01:12:48</time>
      </trkpt>
      <trkpt lat="41.3354077097028" lon="-8.72303154319525">
        <ele>29.2</ele>
        <time>2021-03-20T01:12:49</time>
      </trkpt>
      <trkpt lat="41.3353376369923" lon="-8.7229373306036">
        <ele>29.2</ele>
        <time>2021-03-20T01:12:50</time>
      </trkpt>
      <trkpt lat="41.335283908993" lon="-8.72286901809275">
        <ele>29.4</ele>
        <time>2021-03-20T01:12:51</time>
      </trkpt>
      <trkpt lat="41.335212662816" lon="-8.72278301976621">
        <ele>29.4</ele>
        <time>2021-03-20T01:12:52</time>
      </trkpt>
      <trkpt lat="41.3351396564394" lon="-8.7226904835552">
        <ele>29.4</ele>
        <time>2021-03-20T01:12:53</time>
      </trkpt>
      <trkpt lat="41.3350477069616" lon="-8.72257850132883">
        <ele>29.2</ele>
        <time>2021-03-20T01:12:54</time>
      </trkpt>
      <trkpt lat="41.3349662348628" lon="-8.72248722240329">
        <ele>29.2</ele>
        <time>2021-03-20T01:12:55</time>
      </trkpt>
      <trkpt lat="41.3348899595439" lon="-8.72240851633251">
        <ele>29.4</ele>
        <time>2021-03-20T01:12:56</time>
      </trkpt>
      <trkpt lat="41.3348172046244" lon="-8.72232821770012">
        <ele>29.2</ele>
        <time>2021-03-20T01:12:57</time>
      </trkpt>
      <trkpt lat="41.3347577769309" lon="-8.72227197512984">
        <ele>29.2</ele>
        <time>2021-03-20T01:12:58</time>
      </trkpt>
      <trkpt lat="41.3346886262298" lon="-8.72220349498093">
        <ele>29.2</ele>
        <time>2021-03-20T01:12:59</time>
      </trkpt>
      <trkpt lat="41.334609920159" lon="-8.72212923131883">
        <ele>29.4</ele>
        <time>2021-03-20T01:13:00</time>
      </trkpt>
      <trkpt lat="41.3345024641603" lon="-8.72202219441533">
        <ele>29.2</ele>
        <time>2021-03-20T01:13:01</time>
      </trkpt>
      <trkpt lat="41.3344297092408" lon="-8.72195773757994">
        <ele>29</ele>
        <time>2021-03-20T01:13:02</time>
      </trkpt>
      <trkpt lat="41.3343496620655" lon="-8.72188774868846">
        <ele>29.2</ele>
        <time>2021-03-20T01:13:03</time>
      </trkpt>
      <trkpt lat="41.3342896476388" lon="-8.7218323443085">
        <ele>29.2</ele>
        <time>2021-03-20T01:13:04</time>
      </trkpt>
      <trkpt lat="41.3342126179486" lon="-8.72177300043404">
        <ele>29.2</ele>
        <time>2021-03-20T01:13:05</time>
      </trkpt>
      <trkpt lat="41.3341246079654" lon="-8.72169848531484">
        <ele>29.4</ele>
        <time>2021-03-20T01:13:06</time>
      </trkpt>
      <trkpt lat="41.3340272102505" lon="-8.72162271291018">
        <ele>29.8</ele>
        <time>2021-03-20T01:13:07</time>
      </trkpt>
      <trkpt lat="41.3339514378458" lon="-8.72156521305442">
        <ele>29.6</ele>
        <time>2021-03-20T01:13:08</time>
      </trkpt>
      <trkpt lat="41.3338742405176" lon="-8.72150930576026">
        <ele>29.8</ele>
        <time>2021-03-20T01:13:09</time>
      </trkpt>
      <trkpt lat="41.3338079396635" lon="-8.7214642111212">
        <ele>29.8</ele>
        <time>2021-03-20T01:13:10</time>
      </trkpt>
      <trkpt lat="41.3337504398078" lon="-8.72142422944307">
        <ele>29.8</ele>
        <time>2021-03-20T01:13:11</time>
      </trkpt>
      <trkpt lat="41.3336754217744" lon="-8.72136530466378">
        <ele>29.8</ele>
        <time>2021-03-20T01:13:12</time>
      </trkpt>
      <trkpt lat="41.3336071092635" lon="-8.72131970711052">
        <ele>30</ele>
        <time>2021-03-20T01:13:13</time>
      </trkpt>
      <trkpt lat="41.3335189316422" lon="-8.72125734575093">
        <ele>30.2</ele>
        <time>2021-03-20T01:13:14</time>
      </trkpt>
      <trkpt lat="41.3334564026445" lon="-8.72121225111186">
        <ele>30.4</ele>
        <time>2021-03-20T01:13:15</time>
      </trkpt>
      <trkpt lat="41.3333961367607" lon="-8.72117528691888">
        <ele>30.4</ele>
        <time>2021-03-20T01:13:16</time>
      </trkpt>
      <trkpt lat="41.3333219569176" lon="-8.72112650424242">
        <ele>30.4</ele>
        <time>2021-03-20T01:13:17</time>
      </trkpt>
      <trkpt lat="41.333264708519" lon="-8.7210949882865">
        <ele>30.4</ele>
        <time>2021-03-20T01:13:18</time>
      </trkpt>
      <trkpt lat="41.3332054484636" lon="-8.72105651535094">
        <ele>30.6</ele>
        <time>2021-03-20T01:13:19</time>
      </trkpt>
      <trkpt lat="41.3331393990666" lon="-8.72101083397865">
        <ele>30.6</ele>
        <time>2021-03-20T01:13:20</time>
      </trkpt>
      <trkpt lat="41.333055915311" lon="-8.72095023281872">
        <ele>30.6</ele>
        <time>2021-03-20T01:13:21</time>
      </trkpt>
      <trkpt lat="41.3329902011901" lon="-8.72090421617031">
        <ele>30.6</ele>
        <time>2021-03-20T01:13:22</time>
      </trkpt>
      <trkpt lat="41.3329259119928" lon="-8.72085920535028">
        <ele>30.8</ele>
        <time>2021-03-20T01:13:23</time>
      </trkpt>
      <trkpt lat="41.3328619580716" lon="-8.72081452980638">
        <ele>30.8</ele>
        <time>2021-03-20T01:13:24</time>
      </trkpt>
      <trkpt lat="41.332791717723" lon="-8.72076750732958">
        <ele>31</ele>
        <time>2021-03-20T01:13:25</time>
      </trkpt>
      <trkpt lat="41.3327342178673" lon="-8.72072928585112">
        <ele>31.4</ele>
        <time>2021-03-20T01:13:26</time>
      </trkpt>
      <trkpt lat="41.3326731137931" lon="-8.72069475241006">
        <ele>31.4</ele>
        <time>2021-03-20T01:13:27</time>
      </trkpt>
      <trkpt lat="41.3325862772763" lon="-8.72063079848886">
        <ele>31.4</ele>
        <time>2021-03-20T01:13:28</time>
      </trkpt>
      <trkpt lat="41.3325174618512" lon="-8.72058134526014">
        <ele>31.6</ele>
        <time>2021-03-20T01:13:29</time>
      </trkpt>
      <trkpt lat="41.3324522506446" lon="-8.72054153122008">
        <ele>31.6</ele>
        <time>2021-03-20T01:13:30</time>
      </trkpt>
      <trkpt lat="41.332392655313" lon="-8.72050280682743">
        <ele>31.6</ele>
        <time>2021-03-20T01:13:31</time>
      </trkpt>
      <trkpt lat="41.332326605916" lon="-8.72045905329287">
        <ele>32</ele>
        <time>2021-03-20T01:13:32</time>
      </trkpt>
      <trkpt lat="41.3322787452489" lon="-8.72042770497501">
        <ele>32</ele>
        <time>2021-03-20T01:13:33</time>
      </trkpt>
      <trkpt lat="41.332202218473" lon="-8.72038017958403">
        <ele>32</ele>
        <time>2021-03-20T01:13:34</time>
      </trkpt>
      <trkpt lat="41.3321314752102" lon="-8.72033575549722">
        <ele>32.6</ele>
        <time>2021-03-20T01:13:35</time>
      </trkpt>
      <trkpt lat="41.3320742268115" lon="-8.72030323371291">
        <ele>32.8</ele>
        <time>2021-03-20T01:13:36</time>
      </trkpt>
      <trkpt lat="41.3320087641478" lon="-8.72025981545448">
        <ele>33</ele>
        <time>2021-03-20T01:13:37</time>
      </trkpt>
      <trkpt lat="41.3319401163608" lon="-8.72021170333028">
        <ele>33.2</ele>
        <time>2021-03-20T01:13:38</time>
      </trkpt>
      <trkpt lat="41.3318846281618" lon="-8.72018203139305">
        <ele>33.2</ele>
        <time>2021-03-20T01:13:39</time>
      </trkpt>
      <trkpt lat="41.3318386115134" lon="-8.720150180161">
        <ele>33.2</ele>
        <time>2021-03-20T01:13:40</time>
      </trkpt>
      <trkpt lat="41.3317527808249" lon="-8.7200965359807">
        <ele>33.4</ele>
        <time>2021-03-20T01:13:41</time>
      </trkpt>
      <trkpt lat="41.3316932693124" lon="-8.72005730867386">
        <ele>33.6</ele>
        <time>2021-03-20T01:13:42</time>
      </trkpt>
      <trkpt lat="41.3316257111728" lon="-8.72001548297703">
        <ele>33.8</ele>
        <time>2021-03-20T01:13:43</time>
      </trkpt>
      <trkpt lat="41.3315576501191" lon="-8.71996829286218">
        <ele>34</ele>
        <time>2021-03-20T01:13:44</time>
      </trkpt>
      <trkpt lat="41.331496713683" lon="-8.71992722153664">
        <ele>34</ele>
        <time>2021-03-20T01:13:45</time>
      </trkpt>
      <trkpt lat="41.3314281497151" lon="-8.71988631784916">
        <ele>34.4</ele>
        <time>2021-03-20T01:13:46</time>
      </trkpt>
      <trkpt lat="41.3313877489418" lon="-8.71986075304449">
        <ele>34.6</ele>
        <time>2021-03-20T01:13:47</time>
      </trkpt>
      <trkpt lat="41.3312972243875" lon="-8.71979654766619">
        <ele>34.6</ele>
        <time>2021-03-20T01:13:48</time>
      </trkpt>
      <trkpt lat="41.331224469468" lon="-8.71974902227521">
        <ele>34.6</ele>
        <time>2021-03-20T01:13:49</time>
      </trkpt>
      <trkpt lat="41.3311607670039" lon="-8.71970971114934">
        <ele>34.8</ele>
        <time>2021-03-20T01:13:50</time>
      </trkpt>
      <trkpt lat="41.331092454493" lon="-8.71966352686286">
        <ele>35.4</ele>
        <time>2021-03-20T01:13:51</time>
      </trkpt>
      <trkpt lat="41.3310154248029" lon="-8.71961524710059">
        <ele>35.6</ele>
        <time>2021-03-20T01:13:52</time>
      </trkpt>
      <trkpt lat="41.3309432566166" lon="-8.71956185437739">
        <ele>35.6</ele>
        <time>2021-03-20T01:13:53</time>
      </trkpt>
      <trkpt lat="41.3308876007795" lon="-8.71952019631863">
        <ele>35.8</ele>
        <time>2021-03-20T01:13:54</time>
      </trkpt>
      <trkpt lat="41.3307924661785" lon="-8.71945833787322">
        <ele>36</ele>
        <time>2021-03-20T01:13:55</time>
      </trkpt>
      <trkpt lat="41.3307217229158" lon="-8.71941475197673">
        <ele>36</ele>
        <time>2021-03-20T01:13:56</time>
      </trkpt>
      <trkpt lat="41.3306504767388" lon="-8.71936404146254">
        <ele>36.2</ele>
        <time>2021-03-20T01:13:57</time>
      </trkpt>
      <trkpt lat="41.3305749557912" lon="-8.7193092238158">
        <ele>36.2</ele>
        <time>2021-03-20T01:13:58</time>
      </trkpt>
      <trkpt lat="41.3305011112243" lon="-8.71925817802548">
        <ele>36.4</ele>
        <time>2021-03-20T01:13:59</time>
      </trkpt>
      <trkpt lat="41.3304431084543" lon="-8.71922129765153">
        <ele>36.6</ele>
        <time>2021-03-20T01:14:00</time>
      </trkpt>
      <trkpt lat="41.330352416262" lon="-8.71915533207357">
        <ele>37</ele>
        <time>2021-03-20T01:14:01</time>
      </trkpt>
      <trkpt lat="41.3302887137979" lon="-8.71911803260446">
        <ele>37.2</ele>
        <time>2021-03-20T01:14:02</time>
      </trkpt>
      <trkpt lat="41.3302110973746" lon="-8.71907981112599">
        <ele>37.4</ele>
        <time>2021-03-20T01:14:03</time>
      </trkpt>
      <trkpt lat="41.3301311340183" lon="-8.71905852109194">
        <ele>37.4</ele>
        <time>2021-03-20T01:14:04</time>
      </trkpt>
      <trkpt lat="41.330056199804" lon="-8.71905349195004">
        <ele>37.4</ele>
        <time>2021-03-20T01:14:05</time>
      </trkpt>
      <trkpt lat="41.3299856241792" lon="-8.71905768290162">
        <ele>37.6</ele>
        <time>2021-03-20T01:14:06</time>
      </trkpt>
      <trkpt lat="41.3299327343702" lon="-8.71906271204352">
        <ele>37.6</ele>
        <time>2021-03-20T01:14:07</time>
      </trkpt>
      <trkpt lat="41.3298386055976" lon="-8.71905701234937">
        <ele>37.8</ele>
        <time>2021-03-20T01:14:08</time>
      </trkpt>
      <trkpt lat="41.3297771662474" lon="-8.71903454884887">
        <ele>38.2</ele>
        <time>2021-03-20T01:14:09</time>
      </trkpt>
      <trkpt lat="41.3297166489065" lon="-8.71896154247224">
        <ele>38</ele>
        <time>2021-03-20T01:14:10</time>
      </trkpt>
      <trkpt lat="41.329667698592" lon="-8.71888350695372">
        <ele>38.2</ele>
        <time>2021-03-20T01:14:11</time>
      </trkpt>
      <trkpt lat="41.3296215981245" lon="-8.71880278922618">
        <ele>38.2</ele>
        <time>2021-03-20T01:14:12</time>
      </trkpt>
      <trkpt lat="41.3295792695135" lon="-8.71873724274337">
        <ele>38.4</ele>
        <time>2021-03-20T01:14:13</time>
      </trkpt>
      <trkpt lat="41.3295411318541" lon="-8.71868904680014">
        <ele>38.4</ele>
        <time>2021-03-20T01:14:14</time>
      </trkpt>
      <trkpt lat="41.3294609170407" lon="-8.71862199157476">
        <ele>38.6</ele>
        <time>2021-03-20T01:14:15</time>
      </trkpt>
      <trkpt lat="41.3293989747763" lon="-8.71858921833336">
        <ele>38.4</ele>
        <time>2021-03-20T01:14:16</time>
      </trkpt>
      <trkpt lat="41.3293371163309" lon="-8.71854982338846">
        <ele>38.6</ele>
        <time>2021-03-20T01:14:17</time>
      </trkpt>
      <trkpt lat="41.3292786106467" lon="-8.71850732713938">
        <ele>39</ele>
        <time>2021-03-20T01:14:18</time>
      </trkpt>
      <trkpt lat="41.3292364496738" lon="-8.71848025359213">
        <ele>39</ele>
        <time>2021-03-20T01:14:19</time>
      </trkpt>
      <trkpt lat="41.3291754294187" lon="-8.71844069100916">
        <ele>39</ele>
        <time>2021-03-20T01:14:20</time>
      </trkpt>
      <trkpt lat="41.3291176781058" lon="-8.71841085143387">
        <ele>39</ele>
        <time>2021-03-20T01:14:21</time>
      </trkpt>
      <trkpt lat="41.3290406484157" lon="-8.71836173348129">
        <ele>39</ele>
        <time>2021-03-20T01:14:22</time>
      </trkpt>
      <trkpt lat="41.3289817236364" lon="-8.71832569129765">
        <ele>39</ele>
        <time>2021-03-20T01:14:23</time>
      </trkpt>
      <trkpt lat="41.3289276603609" lon="-8.71829073876142">
        <ele>39</ele>
        <time>2021-03-20T01:14:24</time>
      </trkpt>
      <trkpt lat="41.3288641255349" lon="-8.71824882924557">
        <ele>39</ele>
        <time>2021-03-20T01:14:25</time>
      </trkpt>
      <trkpt lat="41.3288152590394" lon="-8.71821974404156">
        <ele>39.2</ele>
        <time>2021-03-20T01:14:26</time>
      </trkpt>
      <trkpt lat="41.3287512212992" lon="-8.71817951090634">
        <ele>39.2</ele>
        <time>2021-03-20T01:14:27</time>
      </trkpt>
      <trkpt lat="41.3286676537246" lon="-8.71812527999282">
        <ele>39.2</ele>
        <time>2021-03-20T01:14:28</time>
      </trkpt>
      <trkpt lat="41.3286022748798" lon="-8.7180832028389">
        <ele>39.2</ele>
        <time>2021-03-20T01:14:29</time>
      </trkpt>
      <trkpt lat="41.3285326212645" lon="-8.71803852729499">
        <ele>39.4</ele>
        <time>2021-03-20T01:14:30</time>
      </trkpt>
      <trkpt lat="41.3284666556865" lon="-8.71799955144524">
        <ele>39.4</ele>
        <time>2021-03-20T01:14:31</time>
      </trkpt>
      <trkpt lat="41.3284021150321" lon="-8.71796350926161">
        <ele>39.4</ele>
        <time>2021-03-20T01:14:32</time>
      </trkpt>
      <trkpt lat="41.3283501472324" lon="-8.7179312389344">
        <ele>39.4</ele>
        <time>2021-03-20T01:14:33</time>
      </trkpt>
      <trkpt lat="41.3282774761319" lon="-8.71788153424859">
        <ele>39.2</ele>
        <time>2021-03-20T01:14:34</time>
      </trkpt>
      <trkpt lat="41.328198434785" lon="-8.71783300302923">
        <ele>38.8</ele>
        <time>2021-03-20T01:14:35</time>
      </trkpt>
      <trkpt lat="41.3281276077032" lon="-8.71778673492372">
        <ele>39</ele>
        <time>2021-03-20T01:14:36</time>
      </trkpt>
      <trkpt lat="41.3280623964965" lon="-8.71774951927364">
        <ele>39.2</ele>
        <time>2021-03-20T01:14:37</time>
      </trkpt>
      <trkpt lat="41.3279964309186" lon="-8.71771171689034">
        <ele>39.4</ele>
        <time>2021-03-20T01:14:38</time>
      </trkpt>
      <trkpt lat="41.3279322255403" lon="-8.71766754426062">
        <ele>39.4</ele>
        <time>2021-03-20T01:14:39</time>
      </trkpt>
      <trkpt lat="41.3278886396438" lon="-8.71763669885695">
        <ele>39.4</ele>
        <time>2021-03-20T01:14:40</time>
      </trkpt>
      <trkpt lat="41.3278194051236" lon="-8.71759403496981">
        <ele>39.4</ele>
        <time>2021-03-20T01:14:41</time>
      </trkpt>
      <trkpt lat="41.3277304731309" lon="-8.71752974577248">
        <ele>39.4</ele>
        <time>2021-03-20T01:14:42</time>
      </trkpt>
      <trkpt lat="41.3276621606201" lon="-8.71748532168567">
        <ele>39.4</ele>
        <time>2021-03-20T01:14:43</time>
      </trkpt>
      <trkpt lat="41.3275924231857" lon="-8.7174372933805">
        <ele>39.8</ele>
        <time>2021-03-20T01:14:44</time>
      </trkpt>
      <trkpt lat="41.3275254517794" lon="-8.71739571914077">
        <ele>40</ele>
        <time>2021-03-20T01:14:45</time>
      </trkpt>
      <trkpt lat="41.3274577260017" lon="-8.71735372580588">
        <ele>40</ele>
        <time>2021-03-20T01:14:46</time>
      </trkpt>
      <trkpt lat="41.3274067640305" lon="-8.71731818653643">
        <ele>39.8</ele>
        <time>2021-03-20T01:14:47</time>
      </trkpt>
      <trkpt lat="41.3273331709206" lon="-8.71726521290839">
        <ele>40</ele>
        <time>2021-03-20T01:14:48</time>
      </trkpt>
      <trkpt lat="41.327241724357" lon="-8.71719681657851">
        <ele>39.8</ele>
        <time>2021-03-20T01:14:49</time>
      </trkpt>
      <trkpt lat="41.3271706458181" lon="-8.71714627370238">
        <ele>39.8</ele>
        <time>2021-03-20T01:14:50</time>
      </trkpt>
      <trkpt lat="41.3271004054695" lon="-8.71710478328168">
        <ele>40</ele>
        <time>2021-03-20T01:14:51</time>
      </trkpt>
      <trkpt lat="41.3270324282348" lon="-8.71706002391875">
        <ele>40.2</ele>
        <time>2021-03-20T01:14:52</time>
      </trkpt>
      <trkpt lat="41.3269701506942" lon="-8.71701727621257">
        <ele>40.2</ele>
        <time>2021-03-20T01:14:53</time>
      </trkpt>
      <trkpt lat="41.3269256427884" lon="-8.71698969975114">
        <ele>40.2</ele>
        <time>2021-03-20T01:14:54</time>
      </trkpt>
      <trkpt lat="41.3268394768238" lon="-8.71693203225732">
        <ele>40.6</ele>
        <time>2021-03-20T01:14:55</time>
      </trkpt>
      <trkpt lat="41.3267609383911" lon="-8.71687729842961">
        <ele>40.8</ele>
        <time>2021-03-20T01:14:56</time>
      </trkpt>
      <trkpt lat="41.3266886025667" lon="-8.71682449243963">
        <ele>40.8</ele>
        <time>2021-03-20T01:14:57</time>
      </trkpt>
      <trkpt lat="41.3266167696565" lon="-8.71678501367569">
        <ele>40.6</ele>
        <time>2021-03-20T01:14:58</time>
      </trkpt>
      <trkpt lat="41.3265435956418" lon="-8.71673723682761">
        <ele>40.6</ele>
        <time>2021-03-20T01:14:59</time>
      </trkpt>
      <trkpt lat="41.3264754507691" lon="-8.71669105254114">
        <ele>40.6</ele>
        <time>2021-03-20T01:15:00</time>
      </trkpt>
      <trkpt lat="41.3264204654843" lon="-8.7166568543762">
        <ele>40.8</ele>
        <time>2021-03-20T01:15:01</time>
      </trkpt>
      <trkpt lat="41.3263339642435" lon="-8.71660153381526">
        <ele>40.6</ele>
        <time>2021-03-20T01:15:02</time>
      </trkpt>
      <trkpt lat="41.3262632209808" lon="-8.71655534952879">
        <ele>40.8</ele>
        <time>2021-03-20T01:15:03</time>
      </trkpt>
      <trkpt lat="41.3261866103858" lon="-8.71650522574782">
        <ele>40.8</ele>
        <time>2021-03-20T01:15:04</time>
      </trkpt>
      <trkpt lat="41.3261096645147" lon="-8.71645719744265">
        <ele>41</ele>
        <time>2021-03-20T01:15:05</time>
      </trkpt>
      <trkpt lat="41.3260279409587" lon="-8.71639248915017">
        <ele>40.8</ele>
        <time>2021-03-20T01:15:06</time>
      </trkpt>
      <trkpt lat="41.325975637883" lon="-8.7163582071662">
        <ele>40.8</ele>
        <time>2021-03-20T01:15:07</time>
      </trkpt>
      <trkpt lat="41.3259047269821" lon="-8.71631520800292">
        <ele>40.8</ele>
        <time>2021-03-20T01:15:08</time>
      </trkpt>
      <trkpt lat="41.3258204050362" lon="-8.71625569649041">
        <ele>40.6</ele>
        <time>2021-03-20T01:15:09</time>
      </trkpt>
      <trkpt lat="41.3257584627718" lon="-8.7162147089839">
        <ele>40.4</ele>
        <time>2021-03-20T01:15:10</time>
      </trkpt>
      <trkpt lat="41.3256986998022" lon="-8.71618369594216">
        <ele>40.6</ele>
        <time>2021-03-20T01:15:11</time>
      </trkpt>
      <trkpt lat="41.3256212510169" lon="-8.71613767929375">
        <ele>40.6</ele>
        <time>2021-03-20T01:15:12</time>
      </trkpt>
      <trkpt lat="41.3255462329835" lon="-8.71608797460794">
        <ele>40.6</ele>
        <time>2021-03-20T01:15:13</time>
      </trkpt>
      <trkpt lat="41.3254979532212" lon="-8.71605897322297">
        <ele>40.6</ele>
        <time>2021-03-20T01:15:14</time>
      </trkpt>
      <trkpt lat="41.3254321552813" lon="-8.7160125374794">
        <ele>40.6</ele>
        <time>2021-03-20T01:15:15</time>
      </trkpt>
      <trkpt lat="41.3253556285054" lon="-8.7159575521946">
        <ele>40.6</ele>
        <time>2021-03-20T01:15:16</time>
      </trkpt>
      <trkpt lat="41.3253062590957" lon="-8.71592947281897">
        <ele>40.8</ele>
        <time>2021-03-20T01:15:17</time>
      </trkpt>
      <trkpt lat="41.325248926878" lon="-8.71589619666338">
        <ele>41</ele>
        <time>2021-03-20T01:15:18</time>
      </trkpt>
      <trkpt lat="41.3251884095371" lon="-8.71584850363434">
        <ele>41</ele>
        <time>2021-03-20T01:15:19</time>
      </trkpt>
      <trkpt lat="41.3251374475658" lon="-8.71582134626806">
        <ele>41</ele>
        <time>2021-03-20T01:15:20</time>
      </trkpt>
      <trkpt lat="41.3250996451825" lon="-8.7157950270921">
        <ele>41.2</ele>
        <time>2021-03-20T01:15:21</time>
      </trkpt>
      <trkpt lat="41.3250309135765" lon="-8.71575403958559">
        <ele>41</ele>
        <time>2021-03-20T01:15:22</time>
      </trkpt>
      <trkpt lat="41.3249706476927" lon="-8.71571933850646">
        <ele>40.8</ele>
        <time>2021-03-20T01:15:23</time>
      </trkpt>
      <trkpt lat="41.3249116390944" lon="-8.71567625552416">
        <ele>40.8</ele>
        <time>2021-03-20T01:15:24</time>
      </trkpt>
      <trkpt lat="41.3248586654663" lon="-8.715636190027">
        <ele>41</ele>
        <time>2021-03-20T01:15:25</time>
      </trkpt>
      <trkpt lat="41.324802422896" lon="-8.71560048311949">
        <ele>41.2</ele>
        <time>2021-03-20T01:15:26</time>
      </trkpt>
      <trkpt lat="41.3247532211244" lon="-8.71556628495455">
        <ele>41.4</ele>
        <time>2021-03-20T01:15:27</time>
      </trkpt>
      <trkpt lat="41.3247141614556" lon="-8.71554004959762">
        <ele>41.6</ele>
        <time>2021-03-20T01:15:28</time>
      </trkpt>
      <trkpt lat="41.3246497046202" lon="-8.71549922972918">
        <ele>41.8</ele>
        <time>2021-03-20T01:15:29</time>
      </trkpt>
      <trkpt lat="41.3245979044586" lon="-8.71546578593552">
        <ele>42</ele>
        <time>2021-03-20T01:15:30</time>
      </trkpt>
      <trkpt lat="41.3245450984687" lon="-8.7154377065599">
        <ele>42.2</ele>
        <time>2021-03-20T01:15:31</time>
      </trkpt>
      <trkpt lat="41.3244856707752" lon="-8.71539319865406">
        <ele>42.2</ele>
        <time>2021-03-20T01:15:32</time>
      </trkpt>
      <trkpt lat="41.3244317751378" lon="-8.71535497717559">
        <ele>42.2</ele>
        <time>2021-03-20T01:15:33</time>
      </trkpt>
      <trkpt lat="41.3243924640119" lon="-8.71532572433352">
        <ele>42.2</ele>
        <time>2021-03-20T01:15:34</time>
      </trkpt>
      <trkpt lat="41.3243364728987" lon="-8.71528674848378">
        <ele>42.4</ele>
        <time>2021-03-20T01:15:35</time>
      </trkpt>
      <trkpt lat="41.3242671545595" lon="-8.71524198912084">
        <ele>42.8</ele>
        <time>2021-03-20T01:15:36</time>
      </trkpt>
      <trkpt lat="41.3242191262543" lon="-8.71520728804171">
        <ele>42.8</ele>
        <time>2021-03-20T01:15:37</time>
      </trkpt>
      <trkpt lat="41.3241676613688" lon="-8.71517074294388">
        <ele>43</ele>
        <time>2021-03-20T01:15:38</time>
      </trkpt>
      <trkpt lat="41.3241092395037" lon="-8.71512548066676">
        <ele>43.2</ele>
        <time>2021-03-20T01:15:39</time>
      </trkpt>
      <trkpt lat="41.324054421857" lon="-8.71508524753153">
        <ele>43.2</ele>
        <time>2021-03-20T01:15:40</time>
      </trkpt>
      <trkpt lat="41.3240127637982" lon="-8.71505985036492">
        <ele>43</ele>
        <time>2021-03-20T01:15:41</time>
      </trkpt>
      <trkpt lat="41.3239522464573" lon="-8.71501827612519">
        <ele>43</ele>
        <time>2021-03-20T01:15:42</time>
      </trkpt>
      <trkpt lat="41.3238866999745" lon="-8.71497334912419">
        <ele>43</ele>
        <time>2021-03-20T01:15:43</time>
      </trkpt>
      <trkpt lat="41.3238339778036" lon="-8.71493998914957">
        <ele>43.2</ele>
        <time>2021-03-20T01:15:44</time>
      </trkpt>
      <trkpt lat="41.3237854465842" lon="-8.71490931138396">
        <ele>43.2</ele>
        <time>2021-03-20T01:15:45</time>
      </trkpt>
      <trkpt lat="41.3237276114523" lon="-8.71486723423004">
        <ele>43</ele>
        <time>2021-03-20T01:15:46</time>
      </trkpt>
      <trkpt lat="41.3236727099866" lon="-8.71483068913221">
        <ele>43</ele>
        <time>2021-03-20T01:15:47</time>
      </trkpt>
      <trkpt lat="41.3236384280026" lon="-8.71481199748814">
        <ele>42.8</ele>
        <time>2021-03-20T01:15:48</time>
      </trkpt>
      <trkpt lat="41.323573468253" lon="-8.71477201581001">
        <ele>43</ele>
        <time>2021-03-20T01:15:49</time>
      </trkpt>
      <trkpt lat="41.3235261105001" lon="-8.71474519371986">
        <ele>43.2</ele>
        <time>2021-03-20T01:15:50</time>
      </trkpt>
      <trkpt lat="41.3234736397862" lon="-8.71471879072487">
        <ele>43.4</ele>
        <time>2021-03-20T01:15:51</time>
      </trkpt>
      <trkpt lat="41.3234204147011" lon="-8.7146813236177">
        <ele>43.6</ele>
        <time>2021-03-20T01:15:52</time>
      </trkpt>
      <trkpt lat="41.3233664352447" lon="-8.71464377269149">
        <ele>43.6</ele>
        <time>2021-03-20T01:15:53</time>
      </trkpt>
      <trkpt lat="41.3233166467398" lon="-8.71460119262338">
        <ele>44</ele>
        <time>2021-03-20T01:15:54</time>
      </trkpt>
      <trkpt lat="41.3232726417482" lon="-8.71456523425877">
        <ele>43.8</ele>
        <time>2021-03-20T01:15:55</time>
      </trkpt>
      <trkpt lat="41.3231939356774" lon="-8.71451083570719">
        <ele>44</ele>
        <time>2021-03-20T01:15:56</time>
      </trkpt>
      <trkpt lat="41.3231236953288" lon="-8.7144633103162">
        <ele>44.2</ele>
        <time>2021-03-20T01:15:57</time>
      </trkpt>
      <trkpt lat="41.3230459112674" lon="-8.71442383155227">
        <ele>44.2</ele>
        <time>2021-03-20T01:15:58</time>
      </trkpt>
      <trkpt lat="41.3229436520487" lon="-8.71436079964042">
        <ele>44.2</ele>
        <time>2021-03-20T01:15:59</time>
      </trkpt>
      <trkpt lat="41.3228511158377" lon="-8.71430723927915">
        <ele>44.2</ele>
        <time>2021-03-20T01:16:00</time>
      </trkpt>
      <trkpt lat="41.3227581605315" lon="-8.71424881741404">
        <ele>44.4</ele>
        <time>2021-03-20T01:16:01</time>
      </trkpt>
      <trkpt lat="41.3226731680334" lon="-8.71419634670019">
        <ele>45</ele>
        <time>2021-03-20T01:16:02</time>
      </trkpt>
      <trkpt lat="41.3225494511426" lon="-8.71411797590554">
        <ele>45.4</ele>
        <time>2021-03-20T01:16:03</time>
      </trkpt>
      <trkpt lat="41.3224507123232" lon="-8.71405779384076">
        <ele>46</ele>
        <time>2021-03-20T01:16:04</time>
      </trkpt>
      <trkpt lat="41.3223571702838" lon="-8.71399534866214">
        <ele>46.6</ele>
        <time>2021-03-20T01:16:05</time>
      </trkpt>
      <trkpt lat="41.3222606945783" lon="-8.71393005363643">
        <ele>47.2</ele>
        <time>2021-03-20T01:16:06</time>
      </trkpt>
      <trkpt lat="41.322162123397" lon="-8.71386350132525">
        <ele>47.4</ele>
        <time>2021-03-20T01:16:07</time>
      </trkpt>
      <trkpt lat="41.3220677431673" lon="-8.71380851604044">
        <ele>47.4</ele>
        <time>2021-03-20T01:16:08</time>
      </trkpt>
      <trkpt lat="41.3219712674618" lon="-8.7137365154922">
        <ele>47.6</ele>
        <time>2021-03-20T01:16:09</time>
      </trkpt>
      <trkpt lat="41.3218761328608" lon="-8.71366485022008">
        <ele>48</ele>
        <time>2021-03-20T01:16:10</time>
      </trkpt>
      <trkpt lat="41.3217704370618" lon="-8.71358069591224">
        <ele>48.2</ele>
        <time>2021-03-20T01:16:11</time>
      </trkpt>
      <trkpt lat="41.321673123166" lon="-8.71351598761976">
        <ele>48</ele>
        <time>2021-03-20T01:16:12</time>
      </trkpt>
      <trkpt lat="41.3215734623373" lon="-8.7134463340044">
        <ele>47.8</ele>
        <time>2021-03-20T01:16:13</time>
      </trkpt>
      <trkpt lat="41.3214763998985" lon="-8.71338271535933">
        <ele>47.6</ele>
        <time>2021-03-20T01:16:14</time>
      </trkpt>
      <trkpt lat="41.321406243369" lon="-8.7133377045393">
        <ele>47.2</ele>
        <time>2021-03-20T01:16:15</time>
      </trkpt>
      <trkpt lat="41.3212954346091" lon="-8.71326427906752">
        <ele>46.6</ele>
        <time>2021-03-20T01:16:16</time>
      </trkpt>
      <trkpt lat="41.3212082628161" lon="-8.71321549639106">
        <ele>46.6</ele>
        <time>2021-03-20T01:16:17</time>
      </trkpt>
      <trkpt lat="41.321120923385" lon="-8.71315833181143">
        <ele>46.6</ele>
        <time>2021-03-20T01:16:18</time>
      </trkpt>
      <trkpt lat="41.3210267107934" lon="-8.71309848502278">
        <ele>46.4</ele>
        <time>2021-03-20T01:16:19</time>
      </trkpt>
      <trkpt lat="41.3209372758865" lon="-8.71304073370993">
        <ele>46.2</ele>
        <time>2021-03-20T01:16:20</time>
      </trkpt>
      <trkpt lat="41.3208437338471" lon="-8.7129817251116">
        <ele>45.8</ele>
        <time>2021-03-20T01:16:21</time>
      </trkpt>
      <trkpt lat="41.3207774329931" lon="-8.71293604373932">
        <ele>45.8</ele>
        <time>2021-03-20T01:16:22</time>
      </trkpt>
      <trkpt lat="41.3206669595093" lon="-8.7128627859056">
        <ele>46</ele>
        <time>2021-03-20T01:16:23</time>
      </trkpt>
      <trkpt lat="41.320586912334" lon="-8.71280721388757">
        <ele>46</ele>
        <time>2021-03-20T01:16:24</time>
      </trkpt>
      <trkpt lat="41.3204836472869" lon="-8.71273454278708">
        <ele>45.8</ele>
        <time>2021-03-20T01:16:25</time>
      </trkpt>
      <trkpt lat="41.320399241522" lon="-8.7126590218395">
        <ele>46</ele>
        <time>2021-03-20T01:16:26</time>
      </trkpt>
      <trkpt lat="41.3203271571547" lon="-8.71262532658875">
        <ele>45.6</ele>
        <time>2021-03-20T01:16:27</time>
      </trkpt>
      <trkpt lat="41.3202502112836" lon="-8.71260269545019">
        <ele>46</ele>
        <time>2021-03-20T01:16:28</time>
      </trkpt>
      <trkpt lat="41.3201629556716" lon="-8.71254905126989">
        <ele>46.2</ele>
        <time>2021-03-20T01:16:29</time>
      </trkpt>
      <trkpt lat="41.3200594391674" lon="-8.71247353032231">
        <ele>45.6</ele>
        <time>2021-03-20T01:16:30</time>
      </trkpt>
      <trkpt lat="41.3199986703694" lon="-8.71243581175804">
        <ele>45.4</ele>
        <time>2021-03-20T01:16:31</time>
      </trkpt>
      <trkpt lat="41.3199214730412" lon="-8.71239423751831">
        <ele>45.2</ele>
        <time>2021-03-20T01:16:32</time>
      </trkpt>
      <trkpt lat="41.3198294397444" lon="-8.7123310379684">
        <ele>45.2</ele>
        <time>2021-03-20T01:16:33</time>
      </trkpt>
      <trkpt lat="41.3197452016175" lon="-8.71228368021548">
        <ele>45.2</ele>
        <time>2021-03-20T01:16:34</time>
      </trkpt>
      <trkpt lat="41.3196584489197" lon="-8.71220421977341">
        <ele>45.4</ele>
        <time>2021-03-20T01:16:35</time>
      </trkpt>
      <trkpt lat="41.3195864483714" lon="-8.71213154867291">
        <ele>45.2</ele>
        <time>2021-03-20T01:16:36</time>
      </trkpt>
      <trkpt lat="41.3195172138512" lon="-8.71204605326056">
        <ele>45.2</ele>
        <time>2021-03-20T01:16:37</time>
      </trkpt>
      <trkpt lat="41.3194552715868" lon="-8.71195854619146">
        <ele>45.2</ele>
        <time>2021-03-20T01:16:38</time>
      </trkpt>
      <trkpt lat="41.3193837739527" lon="-8.71186735108495">
        <ele>45.2</ele>
        <time>2021-03-20T01:16:39</time>
      </trkpt>
      <trkpt lat="41.3193081691861" lon="-8.71178152039647">
        <ele>45</ele>
        <time>2021-03-20T01:16:40</time>
      </trkpt>
      <trkpt lat="41.3192149624228" lon="-8.71171429753304">
        <ele>45.2</ele>
        <time>2021-03-20T01:16:41</time>
      </trkpt>
      <trkpt lat="41.319130724296" lon="-8.71166702359915">
        <ele>45</ele>
        <time>2021-03-20T01:16:42</time>
      </trkpt>
      <trkpt lat="41.3190469052643" lon="-8.71160348877311">
        <ele>44.8</ele>
        <time>2021-03-20T01:16:43</time>
      </trkpt>
      <trkpt lat="41.3189764134586" lon="-8.71152780018747">
        <ele>45.2</ele>
        <time>2021-03-20T01:16:44</time>
      </trkpt>
      <trkpt lat="41.3189039099962" lon="-8.71142554096878">
        <ele>45.6</ele>
        <time>2021-03-20T01:16:45</time>
      </trkpt>
      <trkpt lat="41.3188222702593" lon="-8.71133250184357">
        <ele>45.2</ele>
        <time>2021-03-20T01:16:46</time>
      </trkpt>
      <trkpt lat="41.3187381159514" lon="-8.71126351878047">
        <ele>45.2</ele>
        <time>2021-03-20T01:16:47</time>
      </trkpt>
      <trkpt lat="41.3186474237591" lon="-8.71120249852538">
        <ele>45.2</ele>
        <time>2021-03-20T01:16:48</time>
      </trkpt>
      <trkpt lat="41.3185582403094" lon="-8.71115698479116">
        <ele>44.8</ele>
        <time>2021-03-20T01:16:49</time>
      </trkpt>
      <trkpt lat="41.3184707332402" lon="-8.71112572029233">
        <ele>44.6</ele>
        <time>2021-03-20T01:16:50</time>
      </trkpt>
      <trkpt lat="41.3183691445738" lon="-8.71107903309166">
        <ele>44.4</ele>
        <time>2021-03-20T01:16:51</time>
      </trkpt>
      <trkpt lat="41.3182712439448" lon="-8.71104022487998">
        <ele>44.2</ele>
        <time>2021-03-20T01:16:52</time>
      </trkpt>
      <trkpt lat="41.3181696552783" lon="-8.71100502088666">
        <ele>43.8</ele>
        <time>2021-03-20T01:16:53</time>
      </trkpt>
      <trkpt lat="41.3180717546493" lon="-8.71096721850336">
        <ele>43.2</ele>
        <time>2021-03-20T01:16:54</time>
      </trkpt>
      <trkpt lat="41.3179764524102" lon="-8.71093285270035">
        <ele>43.2</ele>
        <time>2021-03-20T01:16:55</time>
      </trkpt>
      <trkpt lat="41.3178844191134" lon="-8.71089354157448">
        <ele>42.8</ele>
        <time>2021-03-20T01:16:56</time>
      </trkpt>
      <trkpt lat="41.3177972473204" lon="-8.71085699647665">
        <ele>42.6</ele>
        <time>2021-03-20T01:16:57</time>
      </trkpt>
      <trkpt lat="41.3177121710032" lon="-8.71081248857081">
        <ele>42.4</ele>
        <time>2021-03-20T01:16:58</time>
      </trkpt>
      <trkpt lat="41.3176229037344" lon="-8.71077024377882">
        <ele>42</ele>
        <time>2021-03-20T01:16:59</time>
      </trkpt>
      <trkpt lat="41.3175309542567" lon="-8.71072255074978">
        <ele>42</ele>
        <time>2021-03-20T01:17:00</time>
      </trkpt>
      <trkpt lat="41.3174469675869" lon="-8.71067904867232">
        <ele>41.8</ele>
        <time>2021-03-20T01:17:01</time>
      </trkpt>
      <trkpt lat="41.3173830974847" lon="-8.71064149774611">
        <ele>41.8</ele>
        <time>2021-03-20T01:17:02</time>
      </trkpt>
      <trkpt lat="41.3172964286059" lon="-8.71059380471706">
        <ele>41.4</ele>
        <time>2021-03-20T01:17:03</time>
      </trkpt>
      <trkpt lat="41.3171921577305" lon="-8.71053253300488">
        <ele>41.4</ele>
        <time>2021-03-20T01:17:04</time>
      </trkpt>
      <trkpt lat="41.3171059079468" lon="-8.71046748943627">
        <ele>41.2</ele>
        <time>2021-03-20T01:17:05</time>
      </trkpt>
      <trkpt lat="41.3170202448964" lon="-8.71040378697216">
        <ele>41.6</ele>
        <time>2021-03-20T01:17:06</time>
      </trkpt>
      <trkpt lat="41.3169367611408" lon="-8.71035047806799">
        <ele>41.6</ele>
        <time>2021-03-20T01:17:07</time>
      </trkpt>
      <trkpt lat="41.3168519362807" lon="-8.71030404232442">
        <ele>41.6</ele>
        <time>2021-03-20T01:17:08</time>
      </trkpt>
      <trkpt lat="41.3167873956263" lon="-8.71026422828436">
        <ele>41.6</ele>
        <time>2021-03-20T01:17:09</time>
      </trkpt>
      <trkpt lat="41.3166827056557" lon="-8.71019499376416">
        <ele>41.6</ele>
        <time>2021-03-20T01:17:10</time>
      </trkpt>
      <trkpt lat="41.3165949471295" lon="-8.71013917028904">
        <ele>41.8</ele>
        <time>2021-03-20T01:17:11</time>
      </trkpt>
      <trkpt lat="41.3165086973458" lon="-8.71008879505098">
        <ele>42</ele>
        <time>2021-03-20T01:17:12</time>
      </trkpt>
      <trkpt lat="41.316427141428" lon="-8.71003967709839">
        <ele>42</ele>
        <time>2021-03-20T01:17:13</time>
      </trkpt>
      <trkpt lat="41.3163386285305" lon="-8.70998251251876">
        <ele>42.2</ele>
        <time>2021-03-20T01:17:14</time>
      </trkpt>
      <trkpt lat="41.3162610959262" lon="-8.70993071235716">
        <ele>42.4</ele>
        <time>2021-03-20T01:17:15</time>
      </trkpt>
      <trkpt lat="41.3161969743669" lon="-8.70988553389907">
        <ele>42.8</ele>
        <time>2021-03-20T01:17:16</time>
      </trkpt>
      <trkpt lat="41.3160924520344" lon="-8.7098182272166">
        <ele>43</ele>
        <time>2021-03-20T01:17:17</time>
      </trkpt>
      <trkpt lat="41.3160081300884" lon="-8.70976248756051">
        <ele>43</ele>
        <time>2021-03-20T01:17:18</time>
      </trkpt>
      <trkpt lat="41.31592489779" lon="-8.70969727635384">
        <ele>43.2</ele>
        <time>2021-03-20T01:17:19</time>
      </trkpt>
      <trkpt lat="41.3158489577472" lon="-8.7096353340894">
        <ele>43.4</ele>
        <time>2021-03-20T01:17:20</time>
      </trkpt>
      <trkpt lat="41.315763713792" lon="-8.7095785047859">
        <ele>43.6</ele>
        <time>2021-03-20T01:17:21</time>
      </trkpt>
      <trkpt lat="41.3156811520457" lon="-8.709512706846">
        <ele>43.8</ele>
        <time>2021-03-20T01:17:22</time>
      </trkpt>
      <trkpt lat="41.3155906274915" lon="-8.70945051312446">
        <ele>44</ele>
        <time>2021-03-20T01:17:23</time>
      </trkpt>
      <trkpt lat="41.315502198413" lon="-8.70939083397388">
        <ele>44</ele>
        <time>2021-03-20T01:17:24</time>
      </trkpt>
      <trkpt lat="41.3154132664204" lon="-8.70932721532881">
        <ele>44.4</ele>
        <time>2021-03-20T01:17:25</time>
      </trkpt>
      <trkpt lat="41.31531720981" lon="-8.70925630442798">
        <ele>44.6</ele>
        <time>2021-03-20T01:17:26</time>
      </trkpt>
      <trkpt lat="41.3152255956084" lon="-8.70919805020094">
        <ele>44.6</ele>
        <time>2021-03-20T01:17:27</time>
      </trkpt>
      <trkpt lat="41.3151302095503" lon="-8.70914281345904">
        <ele>44.8</ele>
        <time>2021-03-20T01:17:28</time>
      </trkpt>
      <trkpt lat="41.3150571193546" lon="-8.70909947901964">
        <ele>44.8</ele>
        <time>2021-03-20T01:17:29</time>
      </trkpt>
      <trkpt lat="41.3149494118988" lon="-8.70903921313584">
        <ele>45</ele>
        <time>2021-03-20T01:17:30</time>
      </trkpt>
      <trkpt lat="41.3148559536785" lon="-8.70897182263434">
        <ele>45.2</ele>
        <time>2021-03-20T01:17:31</time>
      </trkpt>
      <trkpt lat="41.3147587236017" lon="-8.70891004800796">
        <ele>45.4</ele>
        <time>2021-03-20T01:17:32</time>
      </trkpt>
      <trkpt lat="41.3146562129259" lon="-8.70884072966874">
        <ele>45.8</ele>
        <time>2021-03-20T01:17:33</time>
      </trkpt>
      <trkpt lat="41.3145564682782" lon="-8.70877099223435">
        <ele>46.2</ele>
        <time>2021-03-20T01:17:34</time>
      </trkpt>
      <trkpt lat="41.314487401396" lon="-8.70872371830046">
        <ele>46.2</ele>
        <time>2021-03-20T01:17:35</time>
      </trkpt>
      <trkpt lat="41.3143979664892" lon="-8.70866630226374">
        <ele>46.2</ele>
        <time>2021-03-20T01:17:36</time>
      </trkpt>
      <trkpt lat="41.3142744172364" lon="-8.70857980102301">
        <ele>46.4</ele>
        <time>2021-03-20T01:17:37</time>
      </trkpt>
      <trkpt lat="41.3141760975122" lon="-8.7085094768554">
        <ele>46.6</ele>
        <time>2021-03-20T01:17:38</time>
      </trkpt>
      <trkpt lat="41.3140736706555" lon="-8.70843898504972">
        <ele>46.6</ele>
        <time>2021-03-20T01:17:39</time>
      </trkpt>
      <trkpt lat="41.3139776978642" lon="-8.70837251655758">
        <ele>46.8</ele>
        <time>2021-03-20T01:17:40</time>
      </trkpt>
      <trkpt lat="41.3138911128044" lon="-8.70831551961601">
        <ele>47.4</ele>
        <time>2021-03-20T01:17:41</time>
      </trkpt>
      <trkpt lat="41.3138167653233" lon="-8.70826221071184">
        <ele>47.4</ele>
        <time>2021-03-20T01:17:42</time>
      </trkpt>
      <trkpt lat="41.3137302640826" lon="-8.70820127427578">
        <ele>47.4</ele>
        <time>2021-03-20T01:17:43</time>
      </trkpt>
      <trkpt lat="41.3136144261807" lon="-8.70812650769949">
        <ele>47.4</ele>
        <time>2021-03-20T01:17:44</time>
      </trkpt>
      <trkpt lat="41.3135256618261" lon="-8.70806104503572">
        <ele>47.8</ele>
        <time>2021-03-20T01:17:45</time>
      </trkpt>
      <trkpt lat="41.3134096562862" lon="-8.70797923766076">
        <ele>48</ele>
        <time>2021-03-20T01:17:46</time>
      </trkpt>
      <trkpt lat="41.3133412599564" lon="-8.70793221518397">
        <ele>48</ele>
        <time>2021-03-20T01:17:47</time>
      </trkpt>
      <trkpt lat="41.3132581114769" lon="-8.70787899009884">
        <ele>48.2</ele>
        <time>2021-03-20T01:17:48</time>
      </trkpt>
      <trkpt lat="41.3131792377681" lon="-8.70782727375626">
        <ele>48</ele>
        <time>2021-03-20T01:17:49</time>
      </trkpt>
      <trkpt lat="41.3130913954228" lon="-8.70776399038732">
        <ele>48.2</ele>
        <time>2021-03-20T01:17:50</time>
      </trkpt>
      <trkpt lat="41.3130096718669" lon="-8.70770833455026">
        <ele>48.4</ele>
        <time>2021-03-20T01:17:51</time>
      </trkpt>
      <trkpt lat="41.31292543374" lon="-8.70765368454158">
        <ele>48.6</ele>
        <time>2021-03-20T01:17:52</time>
      </trkpt>
      <trkpt lat="41.3128527626395" lon="-8.70760523714125">
        <ele>48.8</ele>
        <time>2021-03-20T01:17:53</time>
      </trkpt>
      <trkpt lat="41.3127761520445" lon="-8.70755519717932">
        <ele>48.8</ele>
        <time>2021-03-20T01:17:54</time>
      </trkpt>
      <trkpt lat="41.3126992061734" lon="-8.70750524103642">
        <ele>48.8</ele>
        <time>2021-03-20T01:17:55</time>
      </trkpt>
      <trkpt lat="41.3126299716532" lon="-8.70746123604476">
        <ele>49</ele>
        <time>2021-03-20T01:17:56</time>
      </trkpt>
      <trkpt lat="41.3125706277788" lon="-8.70741647668183">
        <ele>49.2</ele>
        <time>2021-03-20T01:17:57</time>
      </trkpt>
      <trkpt lat="41.3124732300639" lon="-8.70735352858901">
        <ele>49.6</ele>
        <time>2021-03-20T01:17:58</time>
      </trkpt>
      <trkpt lat="41.3123962003738" lon="-8.70730575174093">
        <ele>50</ele>
        <time>2021-03-20T01:17:59</time>
      </trkpt>
      <trkpt lat="41.3123124651611" lon="-8.70725604705512">
        <ele>50</ele>
        <time>2021-03-20T01:18:00</time>
      </trkpt>
      <trkpt lat="41.3122374471277" lon="-8.70720667764544">
        <ele>50</ele>
        <time>2021-03-20T01:18:01</time>
      </trkpt>
      <trkpt lat="41.3121601659805" lon="-8.70715470984578">
        <ele>50</ele>
        <time>2021-03-20T01:18:02</time>
      </trkpt>
      <trkpt lat="41.3120892550796" lon="-8.70710768736899">
        <ele>50</ele>
        <time>2021-03-20T01:18:03</time>
      </trkpt>
      <trkpt lat="41.3120126444846" lon="-8.70705328881741">
        <ele>49.8</ele>
        <time>2021-03-20T01:18:04</time>
      </trkpt>
      <trkpt lat="41.3119381293654" lon="-8.70700324885547">
        <ele>50</ele>
        <time>2021-03-20T01:18:05</time>
      </trkpt>
      <trkpt lat="41.3118688948452" lon="-8.70695823803544">
        <ele>49.8</ele>
        <time>2021-03-20T01:18:06</time>
      </trkpt>
      <trkpt lat="41.311796894297" lon="-8.70691280812025">
        <ele>49.8</ele>
        <time>2021-03-20T01:18:07</time>
      </trkpt>
      <trkpt lat="41.3117209542543" lon="-8.70686117559671">
        <ele>50.2</ele>
        <time>2021-03-20T01:18:08</time>
      </trkpt>
      <trkpt lat="41.311640907079" lon="-8.70680535212159">
        <ele>50.4</ele>
        <time>2021-03-20T01:18:09</time>
      </trkpt>
      <trkpt lat="41.3115872628987" lon="-8.7067718245089">
        <ele>50.4</ele>
        <time>2021-03-20T01:18:10</time>
      </trkpt>
      <trkpt lat="41.3114939723164" lon="-8.70670979842544">
        <ele>50.4</ele>
        <time>2021-03-20T01:18:11</time>
      </trkpt>
      <trkpt lat="41.3114204630256" lon="-8.70666177012026">
        <ele>50.8</ele>
        <time>2021-03-20T01:18:12</time>
      </trkpt>
      <trkpt lat="41.3113539107144" lon="-8.70661801658571">
        <ele>50.8</ele>
        <time>2021-03-20T01:18:13</time>
      </trkpt>
      <trkpt lat="41.3112864363939" lon="-8.70657878927886">
        <ele>51</ele>
        <time>2021-03-20T01:18:14</time>
      </trkpt>
      <trkpt lat="41.3112151063979" lon="-8.70653704740107">
        <ele>51.2</ele>
        <time>2021-03-20T01:18:15</time>
      </trkpt>
      <trkpt lat="41.3111379090697" lon="-8.70648122392595">
        <ele>51.4</ele>
        <time>2021-03-20T01:18:16</time>
      </trkpt>
      <trkpt lat="41.3110761344433" lon="-8.70643931441009">
        <ele>51.4</ele>
        <time>2021-03-20T01:18:17</time>
      </trkpt>
      <trkpt lat="41.3109626434743" lon="-8.70636697858572">
        <ele>51.2</ele>
        <time>2021-03-20T01:18:18</time>
      </trkpt>
      <trkpt lat="41.3109057303518" lon="-8.70632951147854">
        <ele>51.4</ele>
        <time>2021-03-20T01:18:19</time>
      </trkpt>
      <trkpt lat="41.3108276948333" lon="-8.70627402327955">
        <ele>51.6</ele>
        <time>2021-03-20T01:18:20</time>
      </trkpt>
      <trkpt lat="41.3107574544847" lon="-8.70623119175434">
        <ele>51.4</ele>
        <time>2021-03-20T01:18:21</time>
      </trkpt>
      <trkpt lat="41.3106887228787" lon="-8.70618567802012">
        <ele>51.4</ele>
        <time>2021-03-20T01:18:22</time>
      </trkpt>
      <trkpt lat="41.3106191530824" lon="-8.7061383202672">
        <ele>51.6</ele>
        <time>2021-03-20T01:18:23</time>
      </trkpt>
      <trkpt lat="41.3105391059071" lon="-8.70608350262046">
        <ele>51.6</ele>
        <time>2021-03-20T01:18:24</time>
      </trkpt>
      <trkpt lat="41.3104676920921" lon="-8.70603673160076">
        <ele>51.2</ele>
        <time>2021-03-20T01:18:25</time>
      </trkpt>
      <trkpt lat="41.3103972002864" lon="-8.70598970912397">
        <ele>51.4</ele>
        <time>2021-03-20T01:18:26</time>
      </trkpt>
      <trkpt lat="41.3103293906897" lon="-8.70594805106521">
        <ele>51.6</ele>
        <time>2021-03-20T01:18:27</time>
      </trkpt>
      <trkpt lat="41.3102495949715" lon="-8.70589935220778">
        <ele>51.4</ele>
        <time>2021-03-20T01:18:28</time>
      </trkpt>
      <trkpt lat="41.3101701345295" lon="-8.70584554038942">
        <ele>51.6</ele>
        <time>2021-03-20T01:18:29</time>
      </trkpt>
      <trkpt lat="41.3101032469422" lon="-8.70580027811229">
        <ele>51.6</ele>
        <time>2021-03-20T01:18:30</time>
      </trkpt>
      <trkpt lat="41.3100326713175" lon="-8.70575401000679">
        <ele>51.6</ele>
        <time>2021-03-20T01:18:31</time>
      </trkpt>
      <trkpt lat="41.3099553901702" lon="-8.70571000501514">
        <ele>51.6</ele>
        <time>2021-03-20T01:18:32</time>
      </trkpt>
      <trkpt lat="41.3098797015846" lon="-8.70566273108125">
        <ele>51.4</ele>
        <time>2021-03-20T01:18:33</time>
      </trkpt>
      <trkpt lat="41.3098112214357" lon="-8.7056203186512">
        <ele>51.4</ele>
        <time>2021-03-20T01:18:34</time>
      </trkpt>
      <trkpt lat="41.3097421545535" lon="-8.70557530783117">
        <ele>51.6</ele>
        <time>2021-03-20T01:18:35</time>
      </trkpt>
      <trkpt lat="41.3096704054624" lon="-8.70553272776306">
        <ele>51.2</ele>
        <time>2021-03-20T01:18:36</time>
      </trkpt>
      <trkpt lat="41.3096071220934" lon="-8.70549350045621">
        <ele>51</ele>
        <time>2021-03-20T01:18:37</time>
      </trkpt>
      <trkpt lat="41.3095326907933" lon="-8.7054442986846">
        <ele>51</ele>
        <time>2021-03-20T01:18:38</time>
      </trkpt>
      <trkpt lat="41.3094556611031" lon="-8.70539199560881">
        <ele>50.8</ele>
        <time>2021-03-20T01:18:39</time>
      </trkpt>
      <trkpt lat="41.309389108792" lon="-8.70534631423652">
        <ele>51</ele>
        <time>2021-03-20T01:18:40</time>
      </trkpt>
      <trkpt lat="41.3093157671392" lon="-8.70529283769429">
        <ele>51</ele>
        <time>2021-03-20T01:18:41</time>
      </trkpt>
      <trkpt lat="41.309243934229" lon="-8.70525478385389">
        <ele>51</ele>
        <time>2021-03-20T01:18:42</time>
      </trkpt>
      <trkpt lat="41.3091802317649" lon="-8.70521631091833">
        <ele>51</ele>
        <time>2021-03-20T01:18:43</time>
      </trkpt>
      <trkpt lat="41.3091083988547" lon="-8.70518018491566">
        <ele>51</ele>
        <time>2021-03-20T01:18:44</time>
      </trkpt>
      <trkpt lat="41.3090281002224" lon="-8.70512000285089">
        <ele>51</ele>
        <time>2021-03-20T01:18:45</time>
      </trkpt>
      <trkpt lat="41.3089472148567" lon="-8.70506484992802">
        <ele>51</ele>
        <time>2021-03-20T01:18:46</time>
      </trkpt>
      <trkpt lat="41.3088731188327" lon="-8.70501950383186">
        <ele>51.4</ele>
        <time>2021-03-20T01:18:47</time>
      </trkpt>
      <trkpt lat="41.3087952509522" lon="-8.7049677874893">
        <ele>51.2</ele>
        <time>2021-03-20T01:18:48</time>
      </trkpt>
      <trkpt lat="41.3087156228721" lon="-8.70491422712803">
        <ele>51.4</ele>
        <time>2021-03-20T01:18:49</time>
      </trkpt>
      <trkpt lat="41.3086372520775" lon="-8.70486401952803">
        <ele>51.2</ele>
        <time>2021-03-20T01:18:50</time>
      </trkpt>
      <trkpt lat="41.3085579592735" lon="-8.70481280609965">
        <ele>51</ele>
        <time>2021-03-20T01:18:51</time>
      </trkpt>
      <trkpt lat="41.3084691110998" lon="-8.70475069619715">
        <ele>51.2</ele>
        <time>2021-03-20T01:18:52</time>
      </trkpt>
      <trkpt lat="41.3083907403052" lon="-8.70469872839749">
        <ele>51.2</ele>
        <time>2021-03-20T01:18:53</time>
      </trkpt>
      <trkpt lat="41.3083062507212" lon="-8.70464147999883">
        <ele>51.2</ele>
        <time>2021-03-20T01:18:54</time>
      </trkpt>
      <trkpt lat="41.3082337472588" lon="-8.70459320023656">
        <ele>51.4</ele>
        <time>2021-03-20T01:18:55</time>
      </trkpt>
      <trkpt lat="41.3081544544548" lon="-8.70454248972237">
        <ele>51.6</ele>
        <time>2021-03-20T01:18:56</time>
      </trkpt>
      <trkpt lat="41.3080734014511" lon="-8.70449169538915">
        <ele>51.6</ele>
        <time>2021-03-20T01:18:57</time>
      </trkpt>
      <trkpt lat="41.3079917617142" lon="-8.70443620719016">
        <ele>51.4</ele>
        <time>2021-03-20T01:18:58</time>
      </trkpt>
      <trkpt lat="41.3079086132348" lon="-8.70438222773373">
        <ele>51.6</ele>
        <time>2021-03-20T01:18:59</time>
      </trkpt>
      <trkpt lat="41.3078301586211" lon="-8.70432648807764">
        <ele>51.6</ele>
        <time>2021-03-20T01:19:00</time>
      </trkpt>
      <trkpt lat="41.307747932151" lon="-8.70426882058382">
        <ele>51.8</ele>
        <time>2021-03-20T01:19:01</time>
      </trkpt>
      <trkpt lat="41.3076605927199" lon="-8.70420721359551">
        <ele>51.8</ele>
        <time>2021-03-20T01:19:02</time>
      </trkpt>
      <trkpt lat="41.307573588565" lon="-8.70415583252907">
        <ele>52</ele>
        <time>2021-03-20T01:19:03</time>
      </trkpt>
      <trkpt lat="41.3074926193804" lon="-8.70410453528166">
        <ele>52</ele>
        <time>2021-03-20T01:19:04</time>
      </trkpt>
      <trkpt lat="41.3074108958244" lon="-8.70404602959752">
        <ele>52.2</ele>
        <time>2021-03-20T01:19:05</time>
      </trkpt>
      <trkpt lat="41.3073281664401" lon="-8.70398920029402">
        <ele>51.8</ele>
        <time>2021-03-20T01:19:06</time>
      </trkpt>
      <trkpt lat="41.3072447665036" lon="-8.70393731631339">
        <ele>51.4</ele>
        <time>2021-03-20T01:19:07</time>
      </trkpt>
      <trkpt lat="41.3071632105857" lon="-8.7038794811815">
        <ele>51.2</ele>
        <time>2021-03-20T01:19:08</time>
      </trkpt>
      <trkpt lat="41.3070806488395" lon="-8.70382902212441">
        <ele>51.4</ele>
        <time>2021-03-20T01:19:09</time>
      </trkpt>
      <trkpt lat="41.3069987576455" lon="-8.70377252809703">
        <ele>51.8</ele>
        <time>2021-03-20T01:19:10</time>
      </trkpt>
      <trkpt lat="41.3069166988134" lon="-8.70371921919286">
        <ele>51.8</ele>
        <time>2021-03-20T01:19:11</time>
      </trkpt>
      <trkpt lat="41.3068296108395" lon="-8.70366347953677">
        <ele>51.6</ele>
        <time>2021-03-20T01:19:12</time>
      </trkpt>
      <trkpt lat="41.306754425168" lon="-8.70361804962158">
        <ele>51.2</ele>
        <time>2021-03-20T01:19:13</time>
      </trkpt>
      <trkpt lat="41.3066729530692" lon="-8.70356381870806">
        <ele>51.2</ele>
        <time>2021-03-20T01:19:14</time>
      </trkpt>
      <trkpt lat="41.3065876252949" lon="-8.70350170880556">
        <ele>51.4</ele>
        <time>2021-03-20T01:19:15</time>
      </trkpt>
      <trkpt lat="41.3065021298826" lon="-8.70344747789204">
        <ele>51.6</ele>
        <time>2021-03-20T01:19:16</time>
      </trkpt>
      <trkpt lat="41.3064431212842" lon="-8.70340674184263">
        <ele>51.6</ele>
        <time>2021-03-20T01:19:17</time>
      </trkpt>
      <trkpt lat="41.3063646666706" lon="-8.70335351675749">
        <ele>51.6</ele>
        <time>2021-03-20T01:19:18</time>
      </trkpt>
      <trkpt lat="41.3062672689557" lon="-8.70328830555081">
        <ele>52.2</ele>
        <time>2021-03-20T01:19:19</time>
      </trkpt>
      <trkpt lat="41.306188646704" lon="-8.70323449373245">
        <ele>51.8</ele>
        <time>2021-03-20T01:19:20</time>
      </trkpt>
      <trkpt lat="41.3061089348048" lon="-8.70317900553346">
        <ele>52</ele>
        <time>2021-03-20T01:19:21</time>
      </trkpt>
      <trkpt lat="41.3060226012021" lon="-8.70311899110675">
        <ele>52.2</ele>
        <time>2021-03-20T01:19:22</time>
      </trkpt>
      <trkpt lat="41.3059691246599" lon="-8.70308621786535">
        <ele>52.4</ele>
        <time>2021-03-20T01:19:23</time>
      </trkpt>
      <trkpt lat="41.3058826234192" lon="-8.70302570052445">
        <ele>52.4</ele>
        <time>2021-03-20T01:19:24</time>
      </trkpt>
      <trkpt lat="41.3057853933424" lon="-8.7029608245939">
        <ele>52.6</ele>
        <time>2021-03-20T01:19:25</time>
      </trkpt>
      <trkpt lat="41.3057049270719" lon="-8.70290474966168">
        <ele>52.4</ele>
        <time>2021-03-20T01:19:26</time>
      </trkpt>
      <trkpt lat="41.3056229520589" lon="-8.70285470969975">
        <ele>52.2</ele>
        <time>2021-03-20T01:19:27</time>
      </trkpt>
      <trkpt lat="41.3055389653891" lon="-8.70279754512012">
        <ele>52.2</ele>
        <time>2021-03-20T01:19:28</time>
      </trkpt>
      <trkpt lat="41.3054532185197" lon="-8.70274230837822">
        <ele>52.2</ele>
        <time>2021-03-20T01:19:29</time>
      </trkpt>
      <trkpt lat="41.3053664658219" lon="-8.70268933475018">
        <ele>52.2</ele>
        <time>2021-03-20T01:19:30</time>
      </trkpt>
      <trkpt lat="41.3053067028522" lon="-8.70265404693782">
        <ele>52.2</ele>
        <time>2021-03-20T01:19:31</time>
      </trkpt>
      <trkpt lat="41.3052059523761" lon="-8.7026035040617">
        <ele>52</ele>
        <time>2021-03-20T01:19:32</time>
      </trkpt>
      <trkpt lat="41.3051186967641" lon="-8.70257332921028">
        <ele>51.6</ele>
        <time>2021-03-20T01:19:33</time>
      </trkpt>
      <trkpt lat="41.3050351291895" lon="-8.70256578549743">
        <ele>51.6</ele>
        <time>2021-03-20T01:19:34</time>
      </trkpt>
      <trkpt lat="41.3049476221204" lon="-8.70255975052714">
        <ele>51.8</ele>
        <time>2021-03-20T01:19:35</time>
      </trkpt>
      <trkpt lat="41.3048581033945" lon="-8.70253778994084">
        <ele>51.8</ele>
        <time>2021-03-20T01:19:36</time>
      </trkpt>
      <trkpt lat="41.3047964125872" lon="-8.70250904001296">
        <ele>51</ele>
        <time>2021-03-20T01:19:37</time>
      </trkpt>
      <trkpt lat="41.3047267589718" lon="-8.70244148187339">
        <ele>51.2</ele>
        <time>2021-03-20T01:19:38</time>
      </trkpt>
      <trkpt lat="41.3046606257558" lon="-8.70235699228942">
        <ele>51.2</ele>
        <time>2021-03-20T01:19:39</time>
      </trkpt>
      <trkpt lat="41.3045829255134" lon="-8.70225699618459">
        <ele>51.6</ele>
        <time>2021-03-20T01:19:40</time>
      </trkpt>
      <trkpt lat="41.3045161217451" lon="-8.70218046940863">
        <ele>51.4</ele>
        <time>2021-03-20T01:19:41</time>
      </trkpt>
      <trkpt lat="41.3044434506446" lon="-8.70212372392416">
        <ele>51.2</ele>
        <time>2021-03-20T01:19:42</time>
      </trkpt>
      <trkpt lat="41.3043631520122" lon="-8.70206630788744">
        <ele>51.4</ele>
        <time>2021-03-20T01:19:43</time>
      </trkpt>
      <trkpt lat="41.3043004553765" lon="-8.70202330872416">
        <ele>52</ele>
        <time>2021-03-20T01:19:44</time>
      </trkpt>
      <trkpt lat="41.3042137026787" lon="-8.7019591871649">
        <ele>52.2</ele>
        <time>2021-03-20T01:19:45</time>
      </trkpt>
      <trkpt lat="41.3041206635535" lon="-8.70188375003636">
        <ele>52</ele>
        <time>2021-03-20T01:19:46</time>
      </trkpt>
      <trkpt lat="41.3040381018072" lon="-8.70182432234287">
        <ele>51.4</ele>
        <time>2021-03-20T01:19:47</time>
      </trkpt>
      <trkpt lat="41.3039547018707" lon="-8.70178199373186">
        <ele>51.4</ele>
        <time>2021-03-20T01:19:48</time>
      </trkpt>
      <trkpt lat="41.303873648867" lon="-8.70173597708344">
        <ele>51.2</ele>
        <time>2021-03-20T01:19:49</time>
      </trkpt>
      <trkpt lat="41.3038002233952" lon="-8.70169716887176">
        <ele>51.2</ele>
        <time>2021-03-20T01:19:50</time>
      </trkpt>
      <trkpt lat="41.3037350960076" lon="-8.70165534317494">
        <ele>50.8</ele>
        <time>2021-03-20T01:19:51</time>
      </trkpt>
      <trkpt lat="41.3036259636283" lon="-8.70158501900732">
        <ele>50.4</ele>
        <time>2021-03-20T01:19:52</time>
      </trkpt>
      <trkpt lat="41.3035413902253" lon="-8.70153053663671">
        <ele>50.6</ele>
        <time>2021-03-20T01:19:53</time>
      </trkpt>
      <trkpt lat="41.3034562300891" lon="-8.70144747197628">
        <ele>50.8</ele>
        <time>2021-03-20T01:19:54</time>
      </trkpt>
      <trkpt lat="41.3033737521619" lon="-8.70137672871351">
        <ele>50.8</ele>
        <time>2021-03-20T01:19:55</time>
      </trkpt>
      <trkpt lat="41.3032904360443" lon="-8.70132484473288">
        <ele>50.6</ele>
        <time>2021-03-20T01:19:56</time>
      </trkpt>
      <trkpt lat="41.3032107241452" lon="-8.70127874426544">
        <ele>50.4</ele>
        <time>2021-03-20T01:19:57</time>
      </trkpt>
      <trkpt lat="41.3031497038901" lon="-8.70124530047178">
        <ele>50.8</ele>
        <time>2021-03-20T01:19:58</time>
      </trkpt>
      <trkpt lat="41.3030346203595" lon="-8.70117623358965">
        <ele>50.8</ele>
        <time>2021-03-20T01:19:59</time>
      </trkpt>
      <trkpt lat="41.3029474485666" lon="-8.70112476870418">
        <ele>51</ele>
        <time>2021-03-20T01:20:00</time>
      </trkpt>
      <trkpt lat="41.302864132449" lon="-8.70108420029282">
        <ele>51.2</ele>
        <time>2021-03-20T01:20:01</time>
      </trkpt>
      <trkpt lat="41.302776960656" lon="-8.70102871209383">
        <ele>51</ele>
        <time>2021-03-20T01:20:02</time>
      </trkpt>
      <trkpt lat="41.3026916328818" lon="-8.70097322389484">
        <ele>50.6</ele>
        <time>2021-03-20T01:20:03</time>
      </trkpt>
      <trkpt lat="41.3026332110167" lon="-8.70093927718699">
        <ele>50.6</ele>
        <time>2021-03-20T01:20:04</time>
      </trkpt>
      <trkpt lat="41.3025436084718" lon="-8.70088370516896">
        <ele>50.6</ele>
        <time>2021-03-20T01:20:05</time>
      </trkpt>
      <trkpt lat="41.3024399243295" lon="-8.70081899687648">
        <ele>50.6</ele>
        <time>2021-03-20T01:20:06</time>
      </trkpt>
      <trkpt lat="41.3023597095162" lon="-8.70076501742005">
        <ele>50.2</ele>
        <time>2021-03-20T01:20:07</time>
      </trkpt>
      <trkpt lat="41.3022776506841" lon="-8.70071221143007">
        <ele>50.2</ele>
        <time>2021-03-20T01:20:08</time>
      </trkpt>
      <trkpt lat="41.3021892216057" lon="-8.70065278373659">
        <ele>50.2</ele>
        <time>2021-03-20T01:20:09</time>
      </trkpt>
      <trkpt lat="41.3020994514227" lon="-8.70059167966246">
        <ele>50.2</ele>
        <time>2021-03-20T01:20:10</time>
      </trkpt>
      <trkpt lat="41.3020321447402" lon="-8.70054624974728">
        <ele>50.4</ele>
        <time>2021-03-20T01:20:11</time>
      </trkpt>
      <trkpt lat="41.3019467331469" lon="-8.70048648677766">
        <ele>50.2</ele>
        <time>2021-03-20T01:20:12</time>
      </trkpt>
      <trkpt lat="41.301835924387" lon="-8.70041767135262">
        <ele>49.8</ele>
        <time>2021-03-20T01:20:13</time>
      </trkpt>
      <trkpt lat="41.3017531111836" lon="-8.70036880485714">
        <ele>49.6</ele>
        <time>2021-03-20T01:20:14</time>
      </trkpt>
      <trkpt lat="41.3016770873219" lon="-8.70032354258001">
        <ele>49.6</ele>
        <time>2021-03-20T01:20:15</time>
      </trkpt>
      <trkpt lat="41.3015572261065" lon="-8.70025053620338">
        <ele>49.6</ele>
        <time>2021-03-20T01:20:16</time>
      </trkpt>
      <trkpt lat="41.301352204755" lon="-8.70012103579938">
        <ele>49.6</ele>
        <time>2021-03-20T01:20:17</time>
      </trkpt>
      <trkpt lat="41.3012469280511" lon="-8.7000547349453">
        <ele>49.4</ele>
        <time>2021-03-20T01:20:18</time>
      </trkpt>
      <trkpt lat="41.3011562358588" lon="-8.69998717680574">
        <ele>49.4</ele>
        <time>2021-03-20T01:20:19</time>
      </trkpt>
      <trkpt lat="41.3010706566274" lon="-8.69993504136801">
        <ele>49.2</ele>
        <time>2021-03-20T01:20:20</time>
      </trkpt>
      <trkpt lat="41.3009821437299" lon="-8.69987351819873">
        <ele>49.2</ele>
        <time>2021-03-20T01:20:21</time>
      </trkpt>
      <trkpt lat="41.3009086344391" lon="-8.69981702417135">
        <ele>49</ele>
        <time>2021-03-20T01:20:22</time>
      </trkpt>
      <trkpt lat="41.300826407969" lon="-8.69976446963847">
        <ele>48.8</ele>
        <time>2021-03-20T01:20:23</time>
      </trkpt>
      <trkpt lat="41.3007427565753" lon="-8.69971367530525">
        <ele>48.6</ele>
        <time>2021-03-20T01:20:24</time>
      </trkpt>
      <trkpt lat="41.3006801437587" lon="-8.6996659822762">
        <ele>48.6</ele>
        <time>2021-03-20T01:20:25</time>
      </trkpt>
      <trkpt lat="41.3005941454321" lon="-8.69960680603981">
        <ele>48.4</ele>
        <time>2021-03-20T01:20:26</time>
      </trkpt>
      <trkpt lat="41.300514433533" lon="-8.69955274276435">
        <ele>48.2</ele>
        <time>2021-03-20T01:20:27</time>
      </trkpt>
      <trkpt lat="41.300430111587" lon="-8.69949054904282">
        <ele>48.2</ele>
        <time>2021-03-20T01:20:28</time>
      </trkpt>
      <trkpt lat="41.3003497291356" lon="-8.69943204335868">
        <ele>48</ele>
        <time>2021-03-20T01:20:29</time>
      </trkpt>
      <trkpt lat="41.3002844341099" lon="-8.69937982410192">
        <ele>47.8</ele>
        <time>2021-03-20T01:20:30</time>
      </trkpt>
      <trkpt lat="41.3002056442201" lon="-8.69930983521044">
        <ele>47.6</ele>
        <time>2021-03-20T01:20:31</time>
      </trkpt>
      <trkpt lat="41.3001276087016" lon="-8.69923766702414">
        <ele>47.6</ele>
        <time>2021-03-20T01:20:32</time>
      </trkpt>
      <trkpt lat="41.3000507466495" lon="-8.69917522184551">
        <ele>47.8</ele>
        <time>2021-03-20T01:20:33</time>
      </trkpt>
      <trkpt lat="41.2999871280044" lon="-8.69912669062614">
        <ele>48</ele>
        <time>2021-03-20T01:20:34</time>
      </trkpt>
      <trkpt lat="41.2999047338963" lon="-8.69906080886722">
        <ele>48</ele>
        <time>2021-03-20T01:20:35</time>
      </trkpt>
      <trkpt lat="41.2998291291296" lon="-8.69899668730795">
        <ele>48</ele>
        <time>2021-03-20T01:20:36</time>
      </trkpt>
      <trkpt lat="41.299761403352" lon="-8.6989354994148">
        <ele>47.6</ele>
        <time>2021-03-20T01:20:37</time>
      </trkpt>
      <trkpt lat="41.2996949348599" lon="-8.69887104257941">
        <ele>47.6</ele>
        <time>2021-03-20T01:20:38</time>
      </trkpt>
      <trkpt lat="41.2996262032539" lon="-8.69880080223084">
        <ele>47.4</ele>
        <time>2021-03-20T01:20:39</time>
      </trkpt>
      <trkpt lat="41.2995671946555" lon="-8.69873450137675">
        <ele>47.2</ele>
        <time>2021-03-20T01:20:40</time>
      </trkpt>
      <trkpt lat="41.2995007261634" lon="-8.69865319691598">
        <ele>46.8</ele>
        <time>2021-03-20T01:20:41</time>
      </trkpt>
      <trkpt lat="41.2994369398802" lon="-8.69856527075171">
        <ele>46.6</ele>
        <time>2021-03-20T01:20:42</time>
      </trkpt>
      <trkpt lat="41.2993722315878" lon="-8.69846971705556">
        <ele>46.6</ele>
        <time>2021-03-20T01:20:43</time>
      </trkpt>
      <trkpt lat="41.2993257120252" lon="-8.6983984708786">
        <ele>46.6</ele>
        <time>2021-03-20T01:20:44</time>
      </trkpt>
      <trkpt lat="41.299264607951" lon="-8.69830224663019">
        <ele>46.6</ele>
        <time>2021-03-20T01:20:45</time>
      </trkpt>
      <trkpt lat="41.2992079462856" lon="-8.69821700267494">
        <ele>46.2</ele>
        <time>2021-03-20T01:20:46</time>
      </trkpt>
      <trkpt lat="41.299148099497" lon="-8.69812371209264">
        <ele>45.8</ele>
        <time>2021-03-20T01:20:47</time>
      </trkpt>
      <trkpt lat="41.2990887556225" lon="-8.69802581146359">
        <ele>45.6</ele>
        <time>2021-03-20T01:20:48</time>
      </trkpt>
      <trkpt lat="41.2990457564592" lon="-8.69794702157378">
        <ele>45.4</ele>
        <time>2021-03-20T01:20:49</time>
      </trkpt>
      <trkpt lat="41.2989784497768" lon="-8.69784501381218">
        <ele>45.2</ele>
        <time>2021-03-20T01:20:50</time>
      </trkpt>
      <trkpt lat="41.2989151664078" lon="-8.69774149730802">
        <ele>45</ele>
        <time>2021-03-20T01:20:51</time>
      </trkpt>
      <trkpt lat="41.2988471053541" lon="-8.69763068854809">
        <ele>44.4</ele>
        <time>2021-03-20T01:20:52</time>
      </trkpt>
      <trkpt lat="41.2988031003624" lon="-8.69756204076111">
        <ele>44.4</ele>
        <time>2021-03-20T01:20:53</time>
      </trkpt>
      <trkpt lat="41.2987383920699" lon="-8.69745877571404">
        <ele>44.2</ele>
        <time>2021-03-20T01:20:54</time>
      </trkpt>
      <trkpt lat="41.2986782100052" lon="-8.69737453758716">
        <ele>43.6</ele>
        <time>2021-03-20T01:20:55</time>
      </trkpt>
      <trkpt lat="41.2986081372946" lon="-8.69727370329201">
        <ele>43.4</ele>
        <time>2021-03-20T01:20:56</time>
      </trkpt>
      <trkpt lat="41.298535130918" lon="-8.69717320427299">
        <ele>43.4</ele>
        <time>2021-03-20T01:20:57</time>
      </trkpt>
      <trkpt lat="41.2984855938703" lon="-8.69709927588701">
        <ele>43.6</ele>
        <time>2021-03-20T01:20:58</time>
      </trkpt>
      <trkpt lat="41.2984222266823" lon="-8.69701000861824">
        <ele>43.4</ele>
        <time>2021-03-20T01:20:59</time>
      </trkpt>
      <trkpt lat="41.2983567640185" lon="-8.69690934196114">
        <ele>43</ele>
        <time>2021-03-20T01:21:00</time>
      </trkpt>
      <trkpt lat="41.2982936482877" lon="-8.69680699892342">
        <ele>43</ele>
        <time>2021-03-20T01:21:01</time>
      </trkpt>
      <trkpt lat="41.298247128725" lon="-8.69673701003194">
        <ele>42.6</ele>
        <time>2021-03-20T01:21:02</time>
      </trkpt>
      <trkpt lat="41.2981772236526" lon="-8.69664497673512">
        <ele>42.4</ele>
        <time>2021-03-20T01:21:03</time>
      </trkpt>
      <trkpt lat="41.2980991881341" lon="-8.69656132534146">
        <ele>42.6</ele>
        <time>2021-03-20T01:21:04</time>
      </trkpt>
      <trkpt lat="41.2979926541448" lon="-8.69651480577886">
        <ele>42.6</ele>
        <time>2021-03-20T01:21:05</time>
      </trkpt>
      <trkpt lat="41.2979347351938" lon="-8.69651271030307">
        <ele>42.4</ele>
        <time>2021-03-20T01:21:06</time>
      </trkpt>
      <trkpt lat="41.2978514190763" lon="-8.6964609939605">
        <ele>42.2</ele>
        <time>2021-03-20T01:21:07</time>
      </trkpt>
      <trkpt lat="41.2977746408433" lon="-8.69638371281326">
        <ele>42</ele>
        <time>2021-03-20T01:21:08</time>
      </trkpt>
      <trkpt lat="41.2977377604693" lon="-8.69629980996251">
        <ele>41.6</ele>
        <time>2021-03-20T01:21:09</time>
      </trkpt>
      <trkpt lat="41.2977049034089" lon="-8.69620576500893">
        <ele>41.6</ele>
        <time>2021-03-20T01:21:10</time>
      </trkpt>
      <trkpt lat="41.2976904027164" lon="-8.69610568508506">
        <ele>42</ele>
        <time>2021-03-20T01:21:11</time>
      </trkpt>
      <trkpt lat="41.2976679392159" lon="-8.69600032456219">
        <ele>41.8</ele>
        <time>2021-03-20T01:21:12</time>
      </trkpt>
      <trkpt lat="41.2976566236466" lon="-8.69590418413281">
        <ele>41.6</ele>
        <time>2021-03-20T01:21:13</time>
      </trkpt>
      <trkpt lat="41.297620665282" lon="-8.69580368511379">
        <ele>41.2</ele>
        <time>2021-03-20T01:21:14</time>
      </trkpt>
      <trkpt lat="41.2975684460252" lon="-8.69571383111179">
        <ele>41</ele>
        <time>2021-03-20T01:21:15</time>
      </trkpt>
      <trkpt lat="41.2975101079792" lon="-8.69563898071647">
        <ele>40.8</ele>
        <time>2021-03-20T01:21:16</time>
      </trkpt>
      <trkpt lat="41.297443639487" lon="-8.69556278921664">
        <ele>40.8</ele>
        <time>2021-03-20T01:21:17</time>
      </trkpt>
      <trkpt lat="41.2973857205361" lon="-8.69547628797591">
        <ele>40.4</ele>
        <time>2021-03-20T01:21:18</time>
      </trkpt>
      <trkpt lat="41.2973013985902" lon="-8.69535684585571">
        <ele>39.6</ele>
        <time>2021-03-20T01:21:19</time>
      </trkpt>
      <trkpt lat="41.2972531188279" lon="-8.69528434239328">
        <ele>39.2</ele>
        <time>2021-03-20T01:21:20</time>
      </trkpt>
      <trkpt lat="41.2971791066229" lon="-8.69517646729946">
        <ele>38.6</ele>
        <time>2021-03-20T01:21:21</time>
      </trkpt>
      <trkpt lat="41.2971149012446" lon="-8.6950793210417">
        <ele>38.2</ele>
        <time>2021-03-20T01:21:22</time>
      </trkpt>
      <trkpt lat="41.2970359437168" lon="-8.69496029801667">
        <ele>37.6</ele>
        <time>2021-03-20T01:21:23</time>
      </trkpt>
      <trkpt lat="41.2969796173274" lon="-8.6948826815933">
        <ele>37.2</ele>
        <time>2021-03-20T01:21:24</time>
      </trkpt>
      <trkpt lat="41.2969128973782" lon="-8.69479299522936">
        <ele>37</ele>
        <time>2021-03-20T01:21:25</time>
      </trkpt>
      <trkpt lat="41.2968403939158" lon="-8.69469182565808">
        <ele>36.4</ele>
        <time>2021-03-20T01:21:26</time>
      </trkpt>
      <trkpt lat="41.2967702373862" lon="-8.69459350593388">
        <ele>35.8</ele>
        <time>2021-03-20T01:21:27</time>
      </trkpt>
      <trkpt lat="41.2966968957335" lon="-8.69448822923005">
        <ele>35</ele>
        <time>2021-03-20T01:21:28</time>
      </trkpt>
      <trkpt lat="41.2966101430356" lon="-8.69435470551252">
        <ele>34.2</ele>
        <time>2021-03-20T01:21:29</time>
      </trkpt>
      <trkpt lat="41.2965521402657" lon="-8.69427197612822">
        <ele>33.6</ele>
        <time>2021-03-20T01:21:30</time>
      </trkpt>
      <trkpt lat="41.296484163031" lon="-8.69416829198599">
        <ele>33</ele>
        <time>2021-03-20T01:21:31</time>
      </trkpt>
      <trkpt lat="41.2963037006557" lon="-8.69390199892223">
        <ele>32.6</ele>
        <time>2021-03-20T01:21:32</time>
      </trkpt>
      <trkpt lat="41.2962285988033" lon="-8.69378867559135">
        <ele>32.2</ele>
        <time>2021-03-20T01:21:33</time>
      </trkpt>
      <trkpt lat="41.2961534131318" lon="-8.69367334060371">
        <ele>31.2</ele>
        <time>2021-03-20T01:21:34</time>
      </trkpt>
      <trkpt lat="41.2960970867425" lon="-8.69359170086682">
        <ele>30.4</ele>
        <time>2021-03-20T01:21:35</time>
      </trkpt>
      <trkpt lat="41.2960352282971" lon="-8.69349304586649">
        <ele>29.6</ele>
        <time>2021-03-20T01:21:36</time>
      </trkpt>
      <trkpt lat="41.2959646526724" lon="-8.69338726624846">
        <ele>29.2</ele>
        <time>2021-03-20T01:21:37</time>
      </trkpt>
      <trkpt lat="41.2958898860961" lon="-8.69327654130757">
        <ele>28.8</ele>
        <time>2021-03-20T01:21:38</time>
      </trkpt>
      <trkpt lat="41.2958276923746" lon="-8.69318266399205">
        <ele>28.8</ele>
        <time>2021-03-20T01:21:39</time>
      </trkpt>
      <trkpt lat="41.295770611614" lon="-8.69310253299773">
        <ele>28.4</ele>
        <time>2021-03-20T01:21:40</time>
      </trkpt>
      <trkpt lat="41.2956996168941" lon="-8.69300270453096">
        <ele>28</ele>
        <time>2021-03-20T01:21:41</time>
      </trkpt>
      <trkpt lat="41.2956242635846" lon="-8.69290522299707">
        <ele>28</ele>
        <time>2021-03-20T01:21:42</time>
      </trkpt>
      <trkpt lat="41.295548658818" lon="-8.69280078448355">
        <ele>27.8</ele>
        <time>2021-03-20T01:21:43</time>
      </trkpt>
      <trkpt lat="41.2954892311245" lon="-8.69271277450025">
        <ele>27.6</ele>
        <time>2021-03-20T01:21:44</time>
      </trkpt>
      <trkpt lat="41.2954151351005" lon="-8.69261001236737">
        <ele>27.4</ele>
        <time>2021-03-20T01:21:45</time>
      </trkpt>
      <trkpt lat="41.2953481636941" lon="-8.69251169264316">
        <ele>27.4</ele>
        <time>2021-03-20T01:21:46</time>
      </trkpt>
      <trkpt lat="41.2952731456608" lon="-8.69240432046354">
        <ele>27.6</ele>
        <time>2021-03-20T01:21:47</time>
      </trkpt>
      <trkpt lat="41.2952091917396" lon="-8.69229828938842">
        <ele>27.4</ele>
        <time>2021-03-20T01:21:48</time>
      </trkpt>
      <trkpt lat="41.2951576430351" lon="-8.69221379980445">
        <ele>27.6</ele>
        <time>2021-03-20T01:21:49</time>
      </trkpt>
      <trkpt lat="41.2950812000781" lon="-8.69209804572165">
        <ele>27.8</ele>
        <time>2021-03-20T01:21:50</time>
      </trkpt>
      <trkpt lat="41.2950055953115" lon="-8.69198019616306">
        <ele>28.2</ele>
        <time>2021-03-20T01:21:51</time>
      </trkpt>
      <trkpt lat="41.2949267216027" lon="-8.6918677110225">
        <ele>28.4</ele>
        <time>2021-03-20T01:21:52</time>
      </trkpt>
      <trkpt lat="41.2948651984334" lon="-8.6917810421437">
        <ele>28.6</ele>
        <time>2021-03-20T01:21:53</time>
      </trkpt>
      <trkpt lat="41.2947872467339" lon="-8.69166671298444">
        <ele>29</ele>
        <time>2021-03-20T01:21:54</time>
      </trkpt>
      <trkpt lat="41.2947144079953" lon="-8.69155816733837">
        <ele>29.6</ele>
        <time>2021-03-20T01:21:55</time>
      </trkpt>
      <trkpt lat="41.2946322653443" lon="-8.69143269024789">
        <ele>29.6</ele>
        <time>2021-03-20T01:21:56</time>
      </trkpt>
      <trkpt lat="41.2945662159473" lon="-8.69133596308529">
        <ele>30</ele>
        <time>2021-03-20T01:21:57</time>
      </trkpt>
      <trkpt lat="41.2944896053523" lon="-8.69121903553605">
        <ele>30.6</ele>
        <time>2021-03-20T01:21:58</time>
      </trkpt>
      <trkpt lat="41.2943941354752" lon="-8.69106933474541">
        <ele>30.6</ele>
        <time>2021-03-20T01:21:59</time>
      </trkpt>
      <trkpt lat="41.2942916247994" lon="-8.69091854430735">
        <ele>30.8</ele>
        <time>2021-03-20T01:22:00</time>
      </trkpt>
      <trkpt lat="41.294161118567" lon="-8.69070832617581">
        <ele>31.2</ele>
        <time>2021-03-20T01:22:01</time>
      </trkpt>
      <trkpt lat="41.2940801493824" lon="-8.69057329371572">
        <ele>31.4</ele>
        <time>2021-03-20T01:22:02</time>
      </trkpt>
      <trkpt lat="41.2939942348748" lon="-8.69044404476881">
        <ele>31.6</ele>
        <time>2021-03-20T01:22:03</time>
      </trkpt>
      <trkpt lat="41.2939068954438" lon="-8.69030850939453">
        <ele>31.6</ele>
        <time>2021-03-20T01:22:04</time>
      </trkpt>
      <trkpt lat="41.293844114989" lon="-8.69021404534578">
        <ele>31.6</ele>
        <time>2021-03-20T01:22:05</time>
      </trkpt>
      <trkpt lat="41.2937511596829" lon="-8.69008027017116">
        <ele>32</ele>
        <time>2021-03-20T01:22:06</time>
      </trkpt>
      <trkpt lat="41.2936587072909" lon="-8.6899521946907">
        <ele>32</ele>
        <time>2021-03-20T01:22:07</time>
      </trkpt>
      <trkpt lat="41.2935829348862" lon="-8.68983778171241">
        <ele>32</ele>
        <time>2021-03-20T01:22:08</time>
      </trkpt>
      <trkpt lat="41.2935221660882" lon="-8.68974767625332">
        <ele>31.8</ele>
        <time>2021-03-20T01:22:09</time>
      </trkpt>
      <trkpt lat="41.2934461422265" lon="-8.68961976841092">
        <ele>31.6</ele>
        <time>2021-03-20T01:22:10</time>
      </trkpt>
      <trkpt lat="41.2933626584709" lon="-8.68948750197887">
        <ele>31.6</ele>
        <time>2021-03-20T01:22:11</time>
      </trkpt>
      <trkpt lat="41.2932794261724" lon="-8.6893567442894">
        <ele>31.8</ele>
        <time>2021-03-20T01:22:12</time>
      </trkpt>
      <trkpt lat="41.2932197470218" lon="-8.68926228024066">
        <ele>31.8</ele>
        <time>2021-03-20T01:22:13</time>
      </trkpt>
      <trkpt lat="41.2931314017624" lon="-8.68912934325636">
        <ele>32</ele>
        <time>2021-03-20T01:22:14</time>
      </trkpt>
      <trkpt lat="41.2930412124842" lon="-8.68899749591946">
        <ele>32</ele>
        <time>2021-03-20T01:22:15</time>
      </trkpt>
      <trkpt lat="41.2929578963667" lon="-8.68887696415186">
        <ele>32.2</ele>
        <time>2021-03-20T01:22:16</time>
      </trkpt>
      <trkpt lat="41.2928964570165" lon="-8.68878032080829">
        <ele>32.2</ele>
        <time>2021-03-20T01:22:17</time>
      </trkpt>
      <trkpt lat="41.2928177509457" lon="-8.68866481818259">
        <ele>32.6</ele>
        <time>2021-03-20T01:22:18</time>
      </trkpt>
      <trkpt lat="41.2927356082946" lon="-8.6885430291295">
        <ele>33</ele>
        <time>2021-03-20T01:22:19</time>
      </trkpt>
      <trkpt lat="41.2926524598151" lon="-8.68842082098126">
        <ele>33.6</ele>
        <time>2021-03-20T01:22:20</time>
      </trkpt>
      <trkpt lat="41.2925906851888" lon="-8.68832602165639">
        <ele>34</ele>
        <time>2021-03-20T01:22:21</time>
      </trkpt>
      <trkpt lat="41.2925084587187" lon="-8.68820180185139">
        <ele>34.4</ele>
        <time>2021-03-20T01:22:22</time>
      </trkpt>
      <trkpt lat="41.2924286630005" lon="-8.68808001279831">
        <ele>34.8</ele>
        <time>2021-03-20T01:22:23</time>
      </trkpt>
      <trkpt lat="41.2923522200435" lon="-8.68796417489648">
        <ele>35</ele>
        <time>2021-03-20T01:22:24</time>
      </trkpt>
      <trkpt lat="41.292274100706" lon="-8.68784498423338">
        <ele>35</ele>
        <time>2021-03-20T01:22:25</time>
      </trkpt>
      <trkpt lat="41.2922024354339" lon="-8.68773819878697">
        <ele>35.2</ele>
        <time>2021-03-20T01:22:26</time>
      </trkpt>
      <trkpt lat="41.2921264115721" lon="-8.68762454017997">
        <ele>35.4</ele>
        <time>2021-03-20T01:22:27</time>
      </trkpt>
      <trkpt lat="41.292052231729" lon="-8.68751029483974">
        <ele>35.8</ele>
        <time>2021-03-20T01:22:28</time>
      </trkpt>
      <trkpt lat="41.2919792253524" lon="-8.68739898316562">
        <ele>36</ele>
        <time>2021-03-20T01:22:29</time>
      </trkpt>
      <trkpt lat="41.2919082306325" lon="-8.68729571811855">
        <ele>36.4</ele>
        <time>2021-03-20T01:22:30</time>
      </trkpt>
      <trkpt lat="41.2918322067708" lon="-8.68717770092189">
        <ele>36.8</ele>
        <time>2021-03-20T01:22:31</time>
      </trkpt>
      <trkpt lat="41.2917584460229" lon="-8.6870667245239">
        <ele>36.8</ele>
        <time>2021-03-20T01:22:32</time>
      </trkpt>
      <trkpt lat="41.2916819192469" lon="-8.68696304038167">
        <ele>37.4</ele>
        <time>2021-03-20T01:22:33</time>
      </trkpt>
      <trkpt lat="41.2916119303554" lon="-8.68686203844845">
        <ele>37.8</ele>
        <time>2021-03-20T01:22:34</time>
      </trkpt>
      <trkpt lat="41.2915402650833" lon="-8.68675852194428">
        <ele>37.8</ele>
        <time>2021-03-20T01:22:35</time>
      </trkpt>
      <trkpt lat="41.2914372514933" lon="-8.68660354055464">
        <ele>37.8</ele>
        <time>2021-03-20T01:22:36</time>
      </trkpt>
      <trkpt lat="41.2913426198065" lon="-8.68646079674363">
        <ele>38.2</ele>
        <time>2021-03-20T01:22:37</time>
      </trkpt>
      <trkpt lat="41.2912736367434" lon="-8.68636121973395">
        <ele>38.6</ele>
        <time>2021-03-20T01:22:38</time>
      </trkpt>
      <trkpt lat="41.2912096828222" lon="-8.68627681396902">
        <ele>39</ele>
        <time>2021-03-20T01:22:39</time>
      </trkpt>
      <trkpt lat="41.2911394424736" lon="-8.68617866188288">
        <ele>39.2</ele>
        <time>2021-03-20T01:22:40</time>
      </trkpt>
      <trkpt lat="41.2910912465304" lon="-8.68611571379006">
        <ele>39.4</ele>
        <time>2021-03-20T01:22:41</time>
      </trkpt>
      <trkpt lat="41.291024107486" lon="-8.68602351285517">
        <ele>39.4</ele>
        <time>2021-03-20T01:22:42</time>
      </trkpt>
      <trkpt lat="41.2909596506506" lon="-8.68593282066286">
        <ele>39.8</ele>
        <time>2021-03-20T01:22:43</time>
      </trkpt>
      <trkpt lat="41.2908969540149" lon="-8.68584481067956">
        <ele>40</ele>
        <time>2021-03-20T01:22:44</time>
      </trkpt>
      <trkpt lat="41.2908536195755" lon="-8.68577683344484">
        <ele>40.4</ele>
        <time>2021-03-20T01:22:45</time>
      </trkpt>
      <trkpt lat="41.2907877378166" lon="-8.68568278849125">
        <ele>40.6</ele>
        <time>2021-03-20T01:22:46</time>
      </trkpt>
      <trkpt lat="41.2907304055989" lon="-8.68559318594634">
        <ele>40.8</ele>
        <time>2021-03-20T01:22:47</time>
      </trkpt>
      <trkpt lat="41.2906755879521" lon="-8.68550517596304">
        <ele>41</ele>
        <time>2021-03-20T01:22:48</time>
      </trkpt>
      <trkpt lat="41.2906344328076" lon="-8.68543879128992">
        <ele>41.4</ele>
        <time>2021-03-20T01:22:49</time>
      </trkpt>
      <trkpt lat="41.2905804533511" lon="-8.68535396642983">
        <ele>41.6</ele>
        <time>2021-03-20T01:22:50</time>
      </trkpt>
      <trkpt lat="41.2905209418386" lon="-8.68526520207524">
        <ele>42</ele>
        <time>2021-03-20T01:22:51</time>
      </trkpt>
      <trkpt lat="41.2904577422887" lon="-8.68517727591097">
        <ele>42.4</ele>
        <time>2021-03-20T01:22:52</time>
      </trkpt>
      <trkpt lat="41.2904160842299" lon="-8.68511533364654">
        <ele>42.8</ele>
        <time>2021-03-20T01:22:53</time>
      </trkpt>
      <trkpt lat="41.2903577461839" lon="-8.68503696285188">
        <ele>43</ele>
        <time>2021-03-20T01:22:54</time>
      </trkpt>
      <trkpt lat="41.2902875896543" lon="-8.68493746966124">
        <ele>43.4</ele>
        <time>2021-03-20T01:22:55</time>
      </trkpt>
      <trkpt lat="41.2902371305972" lon="-8.6848596855998">
        <ele>43.4</ele>
        <time>2021-03-20T01:22:56</time>
      </trkpt>
      <trkpt lat="41.2902015913278" lon="-8.68479833006859">
        <ele>43.8</ele>
        <time>2021-03-20T01:22:57</time>
      </trkpt>
      <trkpt lat="41.2901512160897" lon="-8.68469984270632">
        <ele>44.2</ele>
        <time>2021-03-20T01:22:58</time>
      </trkpt>
      <trkpt lat="41.2900821492076" lon="-8.68458568118513">
        <ele>44.4</ele>
        <time>2021-03-20T01:22:59</time>
      </trkpt>
      <trkpt lat="41.2900481186807" lon="-8.68452901951969">
        <ele>44.6</ele>
        <time>2021-03-20T01:23:00</time>
      </trkpt>
      <trkpt lat="41.2899967376143" lon="-8.68444452993572">
        <ele>44.8</ele>
        <time>2021-03-20T01:23:01</time>
      </trkpt>
      <trkpt lat="41.289927419275" lon="-8.68433380499482">
        <ele>45</ele>
        <time>2021-03-20T01:23:02</time>
      </trkpt>
      <trkpt lat="41.2898802291602" lon="-8.68425627239048">
        <ele>45.2</ele>
        <time>2021-03-20T01:23:03</time>
      </trkpt>
      <trkpt lat="41.2898493837565" lon="-8.68420229293406">
        <ele>45.6</ele>
        <time>2021-03-20T01:23:04</time>
      </trkpt>
      <trkpt lat="41.2897974159569" lon="-8.68412568233907">
        <ele>45.6</ele>
        <time>2021-03-20T01:23:05</time>
      </trkpt>
      <trkpt lat="41.2897519022226" lon="-8.68405451998114">
        <ele>45.8</ele>
        <time>2021-03-20T01:23:06</time>
      </trkpt>
      <trkpt lat="41.2896931450814" lon="-8.68397799320519">
        <ele>46</ele>
        <time>2021-03-20T01:23:07</time>
      </trkpt>
      <trkpt lat="41.2896469607949" lon="-8.68391630239785">
        <ele>46.6</ele>
        <time>2021-03-20T01:23:08</time>
      </trkpt>
      <trkpt lat="41.2895827554166" lon="-8.68383516557515">
        <ele>46.6</ele>
        <time>2021-03-20T01:23:09</time>
      </trkpt>
      <trkpt lat="41.2895269319415" lon="-8.68376467376947">
        <ele>46.8</ele>
        <time>2021-03-20T01:23:10</time>
      </trkpt>
      <trkpt lat="41.2894907221198" lon="-8.68371916003525">
        <ele>47.2</ele>
        <time>2021-03-20T01:23:11</time>
      </trkpt>
      <trkpt lat="41.2894446216524" lon="-8.683668281883">
        <ele>47.6</ele>
        <time>2021-03-20T01:23:12</time>
      </trkpt>
      <trkpt lat="41.2893932405859" lon="-8.6836027354002">
        <ele>47.8</ele>
        <time>2021-03-20T01:23:13</time>
      </trkpt>
      <trkpt lat="41.2893401831388" lon="-8.68354129604995">
        <ele>48</ele>
        <time>2021-03-20T01:23:14</time>
      </trkpt>
      <trkpt lat="41.2892841082066" lon="-8.68347600102425">
        <ele>48.4</ele>
        <time>2021-03-20T01:23:15</time>
      </trkpt>
      <trkpt lat="41.2892139516771" lon="-8.68339880369604">
        <ele>48.4</ele>
        <time>2021-03-20T01:23:16</time>
      </trkpt>
      <trkpt lat="41.2891691923142" lon="-8.68335002101958">
        <ele>48.4</ele>
        <time>2021-03-20T01:23:17</time>
      </trkpt>
      <trkpt lat="41.2891126982868" lon="-8.68329629302025">
        <ele>48.6</ele>
        <time>2021-03-20T01:23:18</time>
      </trkpt>
      <trkpt lat="41.2890576291829" lon="-8.68324633687734">
        <ele>48.8</ele>
        <time>2021-03-20T01:23:19</time>
      </trkpt>
      <trkpt lat="41.2890061642975" lon="-8.68320149369538">
        <ele>49</ele>
        <time>2021-03-20T01:23:20</time>
      </trkpt>
      <trkpt lat="41.2889516819268" lon="-8.68314952589571">
        <ele>49.2</ele>
        <time>2021-03-20T01:23:21</time>
      </trkpt>
      <trkpt lat="41.2888851296157" lon="-8.68309118784964">
        <ele>49.4</ele>
        <time>2021-03-20T01:23:22</time>
      </trkpt>
      <trkpt lat="41.2888432200998" lon="-8.6830519605428">
        <ele>49.6</ele>
        <time>2021-03-20T01:23:23</time>
      </trkpt>
      <trkpt lat="41.2887876480818" lon="-8.68300921283662">
        <ele>49.6</ele>
        <time>2021-03-20T01:23:24</time>
      </trkpt>
      <trkpt lat="41.2887312378734" lon="-8.68296998552978">
        <ele>49.6</ele>
        <time>2021-03-20T01:23:25</time>
      </trkpt>
      <trkpt lat="41.2886713910848" lon="-8.68292497470975">
        <ele>49.8</ele>
        <time>2021-03-20T01:23:26</time>
      </trkpt>
      <trkpt lat="41.2886133883148" lon="-8.68288172408938">
        <ele>49.8</ele>
        <time>2021-03-20T01:23:27</time>
      </trkpt>
      <trkpt lat="41.2885573972017" lon="-8.6828426644206">
        <ele>49.8</ele>
        <time>2021-03-20T01:23:28</time>
      </trkpt>
      <trkpt lat="41.2884959578514" lon="-8.68280176073313">
        <ele>50</ele>
        <time>2021-03-20T01:23:29</time>
      </trkpt>
      <trkpt lat="41.2884294055402" lon="-8.68275524117052">
        <ele>50</ele>
        <time>2021-03-20T01:23:30</time>
      </trkpt>
      <trkpt lat="41.2883641943336" lon="-8.68270947597921">
        <ele>49.8</ele>
        <time>2021-03-20T01:23:31</time>
      </trkpt>
      <trkpt lat="41.2883051019162" lon="-8.68267276324332">
        <ele>49.6</ele>
        <time>2021-03-20T01:23:32</time>
      </trkpt>
      <trkpt lat="41.2882489431649" lon="-8.68263898417354">
        <ele>49.4</ele>
        <time>2021-03-20T01:23:33</time>
      </trkpt>
      <trkpt lat="41.2881774455309" lon="-8.68258877657354">
        <ele>49.6</ele>
        <time>2021-03-20T01:23:34</time>
      </trkpt>
      <trkpt lat="41.2881152518094" lon="-8.68254820816219">
        <ele>49.4</ele>
        <time>2021-03-20T01:23:35</time>
      </trkpt>
      <trkpt lat="41.2880516331643" lon="-8.68250302970409">
        <ele>49.2</ele>
        <time>2021-03-20T01:23:36</time>
      </trkpt>
      <trkpt lat="41.2879914510995" lon="-8.6824649758637">
        <ele>49</ele>
        <time>2021-03-20T01:23:37</time>
      </trkpt>
      <trkpt lat="41.2879295926541" lon="-8.68242583237588">
        <ele>48.6</ele>
        <time>2021-03-20T01:23:38</time>
      </trkpt>
      <trkpt lat="41.2878777086735" lon="-8.68239347822964">
        <ele>48.6</ele>
        <time>2021-03-20T01:23:39</time>
      </trkpt>
      <trkpt lat="41.2878197059035" lon="-8.68235869333148">
        <ele>48.4</ele>
        <time>2021-03-20T01:23:40</time>
      </trkpt>
      <trkpt lat="41.2877567578107" lon="-8.68231971748173">
        <ele>48.4</ele>
        <time>2021-03-20T01:23:41</time>
      </trkpt>
      <trkpt lat="41.2877101544291" lon="-8.68229079991579">
        <ele>48.2</ele>
        <time>2021-03-20T01:23:42</time>
      </trkpt>
      <trkpt lat="41.2876334600151" lon="-8.68224201723933">
        <ele>47.6</ele>
        <time>2021-03-20T01:23:43</time>
      </trkpt>
      <trkpt lat="41.2875714339316" lon="-8.68220278993249">
        <ele>47.4</ele>
        <time>2021-03-20T01:23:44</time>
      </trkpt>
      <trkpt lat="41.2875094078481" lon="-8.68216574192047">
        <ele>47</ele>
        <time>2021-03-20T01:23:45</time>
      </trkpt>
      <trkpt lat="41.2874488905072" lon="-8.68213347159326">
        <ele>46.4</ele>
        <time>2021-03-20T01:23:46</time>
      </trkpt>
      <trkpt lat="41.2873887084424" lon="-8.68209650740028">
        <ele>46.2</ele>
        <time>2021-03-20T01:23:47</time>
      </trkpt>
      <trkpt lat="41.287329448387" lon="-8.68206230923534">
        <ele>45.8</ele>
        <time>2021-03-20T01:23:48</time>
      </trkpt>
      <trkpt lat="41.2872820906341" lon="-8.68203070946038">
        <ele>45.2</ele>
        <time>2021-03-20T01:23:49</time>
      </trkpt>
      <trkpt lat="41.2872047256678" lon="-8.68197899311781">
        <ele>44.6</ele>
        <time>2021-03-20T01:23:50</time>
      </trkpt>
      <trkpt lat="41.2871406041086" lon="-8.6819361615926">
        <ele>44.2</ele>
        <time>2021-03-20T01:23:51</time>
      </trkpt>
      <trkpt lat="41.2870794162154" lon="-8.68189852684736">
        <ele>43.4</ele>
        <time>2021-03-20T01:23:52</time>
      </trkpt>
      <trkpt lat="41.2870192341506" lon="-8.6818603053689">
        <ele>43</ele>
        <time>2021-03-20T01:23:53</time>
      </trkpt>
      <trkpt lat="41.2869546096772" lon="-8.68181831203401">
        <ele>42.4</ele>
        <time>2021-03-20T01:23:54</time>
      </trkpt>
      <trkpt lat="41.2869072519243" lon="-8.68178822100162">
        <ele>41.8</ele>
        <time>2021-03-20T01:23:55</time>
      </trkpt>
      <trkpt lat="41.2868345808238" lon="-8.68174019269645">
        <ele>41</ele>
        <time>2021-03-20T01:23:56</time>
      </trkpt>
      <trkpt lat="41.2867737282068" lon="-8.68170029483736">
        <ele>40.8</ele>
        <time>2021-03-20T01:23:57</time>
      </trkpt>
      <trkpt lat="41.2867153901607" lon="-8.68166383355856">
        <ele>40</ele>
        <time>2021-03-20T01:23:58</time>
      </trkpt>
      <trkpt lat="41.2866531964392" lon="-8.68161966092884">
        <ele>39.6</ele>
        <time>2021-03-20T01:23:59</time>
      </trkpt>
      <trkpt lat="41.2865891586989" lon="-8.68157523684204">
        <ele>38.6</ele>
        <time>2021-03-20T01:24:00</time>
      </trkpt>
      <trkpt lat="41.2865249533206" lon="-8.68152745999396">
        <ele>38.2</ele>
        <time>2021-03-20T01:24:01</time>
      </trkpt>
      <trkpt lat="41.2864767573774" lon="-8.6814942676574">
        <ele>37.4</ele>
        <time>2021-03-20T01:24:02</time>
      </trkpt>
      <trkpt lat="41.286404253915" lon="-8.68144850246608">
        <ele>36.6</ele>
        <time>2021-03-20T01:24:03</time>
      </trkpt>
      <trkpt lat="41.2863387074322" lon="-8.68140332400799">
        <ele>35.6</ele>
        <time>2021-03-20T01:24:04</time>
      </trkpt>
      <trkpt lat="41.2862727418542" lon="-8.68135672062636">
        <ele>34.6</ele>
        <time>2021-03-20T01:24:05</time>
      </trkpt>
      <trkpt lat="41.2862118892372" lon="-8.68131472729146">
        <ele>34</ele>
        <time>2021-03-20T01:24:06</time>
      </trkpt>
      <trkpt lat="41.2861486896872" lon="-8.68127868510783">
        <ele>32.8</ele>
        <time>2021-03-20T01:24:07</time>
      </trkpt>
      <trkpt lat="41.2860828917474" lon="-8.68123677559197">
        <ele>32.4</ele>
        <time>2021-03-20T01:24:08</time>
      </trkpt>
      <trkpt lat="41.2860121484846" lon="-8.681197213009">
        <ele>32</ele>
        <time>2021-03-20T01:24:09</time>
      </trkpt>
      <trkpt lat="41.2859412375838" lon="-8.68115270510316">
        <ele>31</ele>
        <time>2021-03-20T01:24:10</time>
      </trkpt>
      <trkpt lat="41.2858725897968" lon="-8.68111347779632">
        <ele>31</ele>
        <time>2021-03-20T01:24:11</time>
      </trkpt>
      <trkpt lat="41.2858002539724" lon="-8.68106922134757">
        <ele>30.6</ele>
        <time>2021-03-20T01:24:12</time>
      </trkpt>
      <trkpt lat="41.2857201229781" lon="-8.68101482279599">
        <ele>29.8</ele>
        <time>2021-03-20T01:24:13</time>
      </trkpt>
      <trkpt lat="41.2856451887637" lon="-8.68096478283405">
        <ele>29.4</ele>
        <time>2021-03-20T01:24:14</time>
      </trkpt>
      <trkpt lat="41.2855778820813" lon="-8.68093552999198">
        <ele>29.4</ele>
        <time>2021-03-20T01:24:15</time>
      </trkpt>
      <trkpt lat="41.2855062168092" lon="-8.68089873343706">
        <ele>29.6</ele>
        <time>2021-03-20T01:24:16</time>
      </trkpt>
      <trkpt lat="41.2854274269193" lon="-8.68084626272321">
        <ele>29.8</ele>
        <time>2021-03-20T01:24:17</time>
      </trkpt>
      <trkpt lat="41.2853336334228" lon="-8.68078683502972">
        <ele>29.6</ele>
        <time>2021-03-20T01:24:18</time>
      </trkpt>
      <trkpt lat="41.2852694280446" lon="-8.68074928410351">
        <ele>29.2</ele>
        <time>2021-03-20T01:24:19</time>
      </trkpt>
      <trkpt lat="41.2851981818676" lon="-8.68071072734892">
        <ele>29.2</ele>
        <time>2021-03-20T01:24:20</time>
      </trkpt>
      <trkpt lat="41.2851187214255" lon="-8.6806517187506">
        <ele>29.2</ele>
        <time>2021-03-20T01:24:21</time>
      </trkpt>
      <trkpt lat="41.2850357405841" lon="-8.68060318753123">
        <ele>29.2</ele>
        <time>2021-03-20T01:24:22</time>
      </trkpt>
      <trkpt lat="41.28492962569" lon="-8.68054149672389">
        <ele>29.2</ele>
        <time>2021-03-20T01:24:23</time>
      </trkpt>
      <trkpt lat="41.2848401907831" lon="-8.68048223666847">
        <ele>29.2</ele>
        <time>2021-03-20T01:24:24</time>
      </trkpt>
      <trkpt lat="41.2847438827157" lon="-8.68041618727148">
        <ele>29.4</ele>
        <time>2021-03-20T01:24:25</time>
      </trkpt>
      <trkpt lat="41.2846586387604" lon="-8.68036522530019">
        <ele>29.4</ele>
        <time>2021-03-20T01:24:26</time>
      </trkpt>
      <trkpt lat="41.284594098106" lon="-8.68032432161272">
        <ele>29.6</ele>
        <time>2021-03-20T01:24:27</time>
      </trkpt>
      <trkpt lat="41.2845022324473" lon="-8.68025827221572">
        <ele>29.8</ele>
        <time>2021-03-20T01:24:28</time>
      </trkpt>
      <trkpt lat="41.2844050861895" lon="-8.68019448593259">
        <ele>30.2</ele>
        <time>2021-03-20T01:24:29</time>
      </trkpt>
      <trkpt lat="41.2842781841755" lon="-8.68011251091957">
        <ele>30.8</ele>
        <time>2021-03-20T01:24:30</time>
      </trkpt>
      <trkpt lat="41.2842047587037" lon="-8.68006523698568">
        <ele>31.2</ele>
        <time>2021-03-20T01:24:31</time>
      </trkpt>
      <trkpt lat="41.2841069418937" lon="-8.67999927140772">
        <ele>31.8</ele>
        <time>2021-03-20T01:24:32</time>
      </trkpt>
      <trkpt lat="41.2840014137328" lon="-8.67992852814496">
        <ele>32</ele>
        <time>2021-03-20T01:24:33</time>
      </trkpt>
      <trkpt lat="41.2838994059712" lon="-8.67986348457634">
        <ele>32.4</ele>
        <time>2021-03-20T01:24:34</time>
      </trkpt>
      <trkpt lat="41.2837914470583" lon="-8.67979927919805">
        <ele>32.4</ele>
        <time>2021-03-20T01:24:35</time>
      </trkpt>
      <trkpt lat="41.2836865894496" lon="-8.67973272688687">
        <ele>33</ele>
        <time>2021-03-20T01:24:36</time>
      </trkpt>
      <trkpt lat="41.2835531495512" lon="-8.67965033277869">
        <ele>33</ele>
        <time>2021-03-20T01:24:37</time>
      </trkpt>
      <trkpt lat="41.283470755443" lon="-8.67960473522544">
        <ele>33.8</ele>
        <time>2021-03-20T01:24:38</time>
      </trkpt>
      <trkpt lat="41.2833459489048" lon="-8.67952980101109">
        <ele>34.2</ele>
        <time>2021-03-20T01:24:39</time>
      </trkpt>
      <trkpt lat="41.2832612078637" lon="-8.67949023842812">
        <ele>34.4</ele>
        <time>2021-03-20T01:24:40</time>
      </trkpt>
      <trkpt lat="41.2831461243331" lon="-8.6794304754585">
        <ele>34.8</ele>
        <time>2021-03-20T01:24:41</time>
      </trkpt>
      <trkpt lat="41.2830376625061" lon="-8.67937901057303">
        <ele>35.2</ele>
        <time>2021-03-20T01:24:42</time>
      </trkpt>
      <trkpt lat="41.2829222436994" lon="-8.67932268418372">
        <ele>35.6</ele>
        <time>2021-03-20T01:24:43</time>
      </trkpt>
      <trkpt lat="41.282799616456" lon="-8.67926627397537">
        <ele>35.8</ele>
        <time>2021-03-20T01:24:44</time>
      </trkpt>
      <trkpt lat="41.2826854549348" lon="-8.67921698838472">
        <ele>36</ele>
        <time>2021-03-20T01:24:45</time>
      </trkpt>
      <trkpt lat="41.2825694493949" lon="-8.67917323485017">
        <ele>36.6</ele>
        <time>2021-03-20T01:24:46</time>
      </trkpt>
      <trkpt lat="41.2824509292841" lon="-8.67912872694433">
        <ele>36.8</ele>
        <time>2021-03-20T01:24:47</time>
      </trkpt>
      <trkpt lat="41.2823314033449" lon="-8.67908329702914">
        <ele>37.2</ele>
        <time>2021-03-20T01:24:48</time>
      </trkpt>
      <trkpt lat="41.2822169065475" lon="-8.67904733866453">
        <ele>37.4</ele>
        <time>2021-03-20T01:24:49</time>
      </trkpt>
      <trkpt lat="41.2820981349796" lon="-8.67900526151061">
        <ele>38</ele>
        <time>2021-03-20T01:24:50</time>
      </trkpt>
      <trkpt lat="41.2819887511432" lon="-8.67897248826921">
        <ele>38.4</ele>
        <time>2021-03-20T01:24:51</time>
      </trkpt>
      <trkpt lat="41.2818732485175" lon="-8.67893326096237">
        <ele>38.8</ele>
        <time>2021-03-20T01:24:52</time>
      </trkpt>
      <trkpt lat="41.2817587517202" lon="-8.67890551686287">
        <ele>39</ele>
        <time>2021-03-20T01:24:53</time>
      </trkpt>
      <trkpt lat="41.2816460989416" lon="-8.67887249216437">
        <ele>39.4</ele>
        <time>2021-03-20T01:24:54</time>
      </trkpt>
      <trkpt lat="41.2815425824374" lon="-8.67884751409292">
        <ele>39.6</ele>
        <time>2021-03-20T01:24:55</time>
      </trkpt>
      <trkpt lat="41.2814699113369" lon="-8.67883217521012">
        <ele>40</ele>
        <time>2021-03-20T01:24:56</time>
      </trkpt>
      <trkpt lat="41.2813489604741" lon="-8.67881080135703">
        <ele>40.4</ele>
        <time>2021-03-20T01:24:57</time>
      </trkpt>
      <trkpt lat="41.2812493834645" lon="-8.67879219353199">
        <ele>40.8</ele>
        <time>2021-03-20T01:24:58</time>
      </trkpt>
      <trkpt lat="41.2811469566077" lon="-8.67877216078341">
        <ele>41</ele>
        <time>2021-03-20T01:24:59</time>
      </trkpt>
      <trkpt lat="41.2810451164842" lon="-8.67874416522682">
        <ele>41.2</ele>
        <time>2021-03-20T01:25:00</time>
      </trkpt>
      <trkpt lat="41.2809487245977" lon="-8.67872002534568">
        <ele>41.4</ele>
        <time>2021-03-20T01:25:01</time>
      </trkpt>
      <trkpt lat="41.2808576971292" lon="-8.67870116606355">
        <ele>41.6</ele>
        <time>2021-03-20T01:25:02</time>
      </trkpt>
      <trkpt lat="41.2807641550899" lon="-8.67867451161146">
        <ele>41.8</ele>
        <time>2021-03-20T01:25:03</time>
      </trkpt>
      <trkpt lat="41.2806729599834" lon="-8.67864978499711">
        <ele>42</ele>
        <time>2021-03-20T01:25:04</time>
      </trkpt>
      <trkpt lat="41.2805916555226" lon="-8.67863201536238">
        <ele>42.4</ele>
        <time>2021-03-20T01:25:05</time>
      </trkpt>
      <trkpt lat="41.2805070821196" lon="-8.6786138266325">
        <ele>42.6</ele>
        <time>2021-03-20T01:25:06</time>
      </trkpt>
      <trkpt lat="41.2804401945323" lon="-8.67861131206155">
        <ele>42.8</ele>
        <time>2021-03-20T01:25:07</time>
      </trkpt>
      <trkpt lat="41.2803634162992" lon="-8.67859052494168">
        <ele>43</ele>
        <time>2021-03-20T01:25:08</time>
      </trkpt>
      <trkpt lat="41.2803070899099" lon="-8.67857501842082">
        <ele>43.2</ele>
        <time>2021-03-20T01:25:09</time>
      </trkpt>
      <trkpt lat="41.2802091892809" lon="-8.67854283191264">
        <ele>43.4</ele>
        <time>2021-03-20T01:25:10</time>
      </trkpt>
      <trkpt lat="41.2801340874284" lon="-8.67852120660246">
        <ele>43.8</ele>
        <time>2021-03-20T01:25:11</time>
      </trkpt>
      <trkpt lat="41.2800656910986" lon="-8.67850628681481">
        <ele>44</ele>
        <time>2021-03-20T01:25:12</time>
      </trkpt>
      <trkpt lat="41.2799946125597" lon="-8.67848700843751">
        <ele>44.4</ele>
        <time>2021-03-20T01:25:13</time>
      </trkpt>
      <trkpt lat="41.2799229472876" lon="-8.67846622131765">
        <ele>44.6</ele>
        <time>2021-03-20T01:25:14</time>
      </trkpt>
      <trkpt lat="41.279855389148" lon="-8.67844719439745">
        <ele>44.8</ele>
        <time>2021-03-20T01:25:15</time>
      </trkpt>
      <trkpt lat="41.2797897588462" lon="-8.67842623963952">
        <ele>44.8</ele>
        <time>2021-03-20T01:25:16</time>
      </trkpt>
      <trkpt lat="41.2797222007066" lon="-8.67840553633869">
        <ele>45</ele>
        <time>2021-03-20T01:25:17</time>
      </trkpt>
      <trkpt lat="41.2796657066792" lon="-8.67839246056974">
        <ele>45.6</ele>
        <time>2021-03-20T01:25:18</time>
      </trkpt>
      <trkpt lat="41.2796112243086" lon="-8.67838500067592">
        <ele>45.8</ele>
        <time>2021-03-20T01:25:19</time>
      </trkpt>
      <trkpt lat="41.2795547302812" lon="-8.67837276309729">
        <ele>46.2</ele>
        <time>2021-03-20T01:25:20</time>
      </trkpt>
      <trkpt lat="41.2794997449964" lon="-8.67836077697575">
        <ele>46.4</ele>
        <time>2021-03-20T01:25:21</time>
      </trkpt>
      <trkpt lat="41.2794361263514" lon="-8.6783394869417">
        <ele>46.8</ele>
        <time>2021-03-20T01:25:22</time>
      </trkpt>
      <trkpt lat="41.2793781235814" lon="-8.67832683026791">
        <ele>47.2</ele>
        <time>2021-03-20T01:25:23</time>
      </trkpt>
      <trkpt lat="41.2793218810111" lon="-8.6783133354038">
        <ele>47.4</ele>
        <time>2021-03-20T01:25:24</time>
      </trkpt>
      <trkpt lat="41.2792782112956" lon="-8.67830595932901">
        <ele>47.8</ele>
        <time>2021-03-20T01:25:25</time>
      </trkpt>
      <trkpt lat="41.279218448326" lon="-8.6782839987427">
        <ele>48</ele>
        <time>2021-03-20T01:25:26</time>
      </trkpt>
      <trkpt lat="41.2791545782238" lon="-8.67825801484287">
        <ele>48.4</ele>
        <time>2021-03-20T01:25:27</time>
      </trkpt>
      <trkpt lat="41.2790962401778" lon="-8.6782337911427">
        <ele>48.8</ele>
        <time>2021-03-20T01:25:28</time>
      </trkpt>
      <trkpt lat="41.2790382374078" lon="-8.67821367457509">
        <ele>49</ele>
        <time>2021-03-20T01:25:29</time>
      </trkpt>
      <trkpt lat="41.2789854314178" lon="-8.67819498293102">
        <ele>49.2</ele>
        <time>2021-03-20T01:25:30</time>
      </trkpt>
      <trkpt lat="41.2789353914559" lon="-8.67818232625723">
        <ele>49.4</ele>
        <time>2021-03-20T01:25:31</time>
      </trkpt>
      <trkpt lat="41.2788894586265" lon="-8.67817017249763">
        <ele>49.8</ele>
        <time>2021-03-20T01:25:32</time>
      </trkpt>
      <trkpt lat="41.2788407597691" lon="-8.67815298959613">
        <ele>50.2</ele>
        <time>2021-03-20T01:25:33</time>
      </trkpt>
      <trkpt lat="41.278792899102" lon="-8.67813899181783">
        <ele>50.6</ele>
        <time>2021-03-20T01:25:34</time>
      </trkpt>
      <trkpt lat="41.2787476368248" lon="-8.67812667042017">
        <ele>50.8</ele>
        <time>2021-03-20T01:25:35</time>
      </trkpt>
      <trkpt lat="41.2786939088255" lon="-8.6781093198806">
        <ele>51.2</ele>
        <time>2021-03-20T01:25:36</time>
      </trkpt>
      <trkpt lat="41.2786539271474" lon="-8.67809649556875">
        <ele>51.4</ele>
        <time>2021-03-20T01:25:37</time>
      </trkpt>
      <trkpt lat="41.2785945832729" lon="-8.67807880975306">
        <ele>51.6</ele>
        <time>2021-03-20T01:25:38</time>
      </trkpt>
      <trkpt lat="41.2785434536636" lon="-8.678062800318">
        <ele>52.2</ele>
        <time>2021-03-20T01:25:39</time>
      </trkpt>
      <trkpt lat="41.2784939166158" lon="-8.67805282585323">
        <ele>52.2</ele>
        <time>2021-03-20T01:25:40</time>
      </trkpt>
      <trkpt lat="41.2784385960549" lon="-8.67802918888628">
        <ele>52.6</ele>
        <time>2021-03-20T01:25:41</time>
      </trkpt>
      <trkpt lat="41.2783857062459" lon="-8.67801217362285">
        <ele>53</ele>
        <time>2021-03-20T01:25:42</time>
      </trkpt>
      <trkpt lat="41.2783334031701" lon="-8.67799515835941">
        <ele>53.2</ele>
        <time>2021-03-20T01:25:43</time>
      </trkpt>
      <trkpt lat="41.2782814353704" lon="-8.67797872982919">
        <ele>53.4</ele>
        <time>2021-03-20T01:25:44</time>
      </trkpt>
      <trkpt lat="41.2782261148095" lon="-8.67795802652836">
        <ele>53.6</ele>
        <time>2021-03-20T01:25:45</time>
      </trkpt>
      <trkpt lat="41.2781742308289" lon="-8.67794469930232">
        <ele>53.8</ele>
        <time>2021-03-20T01:25:46</time>
      </trkpt>
      <trkpt lat="41.2781200837344" lon="-8.67792516946793">
        <ele>53.8</ele>
        <time>2021-03-20T01:25:47</time>
      </trkpt>
      <trkpt lat="41.2780640926212" lon="-8.67790379561484">
        <ele>54.4</ele>
        <time>2021-03-20T01:25:48</time>
      </trkpt>
      <trkpt lat="41.2780065927654" lon="-8.67788376286626">
        <ele>54.6</ele>
        <time>2021-03-20T01:25:49</time>
      </trkpt>
      <trkpt lat="41.2779558822513" lon="-8.67786901071668">
        <ele>54.8</ele>
        <time>2021-03-20T01:25:50</time>
      </trkpt>
      <trkpt lat="41.2778992205858" lon="-8.67785249836743">
        <ele>55</ele>
        <time>2021-03-20T01:25:51</time>
      </trkpt>
      <trkpt lat="41.2778407149017" lon="-8.67782869376242">
        <ele>55.4</ele>
        <time>2021-03-20T01:25:52</time>
      </trkpt>
      <trkpt lat="41.2777936086059" lon="-8.67781930603087">
        <ele>55.8</ele>
        <time>2021-03-20T01:25:53</time>
      </trkpt>
      <trkpt lat="41.2777397129685" lon="-8.6778072360903">
        <ele>55.8</ele>
        <time>2021-03-20T01:25:54</time>
      </trkpt>
      <trkpt lat="41.2776916008443" lon="-8.67779977619648">
        <ele>55.8</ele>
        <time>2021-03-20T01:25:55</time>
      </trkpt>
      <trkpt lat="41.2776413932443" lon="-8.67778418585658">
        <ele>56</ele>
        <time>2021-03-20T01:25:56</time>
      </trkpt>
      <trkpt lat="41.277590431273" lon="-8.67776717059314">
        <ele>56.2</ele>
        <time>2021-03-20T01:25:57</time>
      </trkpt>
      <trkpt lat="41.2775383796543" lon="-8.67775166407228">
        <ele>56.4</ele>
        <time>2021-03-20T01:25:58</time>
      </trkpt>
      <trkpt lat="41.2774776946753" lon="-8.67773079313338">
        <ele>56.4</ele>
        <time>2021-03-20T01:25:59</time>
      </trkpt>
      <trkpt lat="41.2774211168289" lon="-8.67770967073739">
        <ele>56.6</ele>
        <time>2021-03-20T01:26:00</time>
      </trkpt>
      <trkpt lat="41.2773732561618" lon="-8.6777017917484">
        <ele>56.8</ele>
        <time>2021-03-20T01:26:01</time>
      </trkpt>
      <trkpt lat="41.2773211207241" lon="-8.67768569849432">
        <ele>56.6</ele>
        <time>2021-03-20T01:26:02</time>
      </trkpt>
      <trkpt lat="41.2772704102099" lon="-8.67766683921218">
        <ele>56.8</ele>
        <time>2021-03-20T01:26:03</time>
      </trkpt>
      <trkpt lat="41.277231182903" lon="-8.6776518356055">
        <ele>57.2</ele>
        <time>2021-03-20T01:26:04</time>
      </trkpt>
      <trkpt lat="41.277167648077" lon="-8.67763322778046">
        <ele>57.2</ele>
        <time>2021-03-20T01:26:05</time>
      </trkpt>
      <trkpt lat="41.2771149259061" lon="-8.67761730216444">
        <ele>57.4</ele>
        <time>2021-03-20T01:26:06</time>
      </trkpt>
      <trkpt lat="41.2770668976009" lon="-8.67760380730033">
        <ele>57.4</ele>
        <time>2021-03-20T01:26:07</time>
      </trkpt>
      <trkpt lat="41.277019707486" lon="-8.67758922278881">
        <ele>57.6</ele>
        <time>2021-03-20T01:26:08</time>
      </trkpt>
      <trkpt lat="41.2769714277238" lon="-8.67757371626794">
        <ele>58</ele>
        <time>2021-03-20T01:26:09</time>
      </trkpt>
      <trkpt lat="41.2769254110754" lon="-8.67756072431803">
        <ele>58</ele>
        <time>2021-03-20T01:26:10</time>
      </trkpt>
      <trkpt lat="41.2768781371415" lon="-8.67754018865526">
        <ele>58.2</ele>
        <time>2021-03-20T01:26:11</time>
      </trkpt>
      <trkpt lat="41.2768281809986" lon="-8.67751579731703">
        <ele>58.2</ele>
        <time>2021-03-20T01:26:12</time>
      </trkpt>
      <trkpt lat="41.2767742015421" lon="-8.67748319171369">
        <ele>58.2</ele>
        <time>2021-03-20T01:26:13</time>
      </trkpt>
      <trkpt lat="41.2767259217799" lon="-8.67745603434742">
        <ele>58.2</ele>
        <time>2021-03-20T01:26:14</time>
      </trkpt>
      <trkpt lat="41.2766879517585" lon="-8.6774377617985">
        <ele>58.6</ele>
        <time>2021-03-20T01:26:15</time>
      </trkpt>
      <trkpt lat="41.2766397558153" lon="-8.67740666493774">
        <ele>58.8</ele>
        <time>2021-03-20T01:26:16</time>
      </trkpt>
      <trkpt lat="41.2766067311168" lon="-8.6773946788162">
        <ele>58.8</ele>
        <time>2021-03-20T01:26:17</time>
      </trkpt>
      <trkpt lat="41.2765617202967" lon="-8.67735830135644">
        <ele>59.2</ele>
        <time>2021-03-20T01:26:18</time>
      </trkpt>
      <trkpt lat="41.276525426656" lon="-8.6773309763521">
        <ele>59.6</ele>
        <time>2021-03-20T01:26:19</time>
      </trkpt>
      <trkpt lat="41.2764746323228" lon="-8.6772945150733">
        <ele>59.6</ele>
        <time>2021-03-20T01:26:20</time>
      </trkpt>
      <trkpt lat="41.276419730857" lon="-8.67724816314876">
        <ele>59.6</ele>
        <time>2021-03-20T01:26:21</time>
      </trkpt>
      <trkpt lat="41.2763762287796" lon="-8.67720776237547">
        <ele>59.6</ele>
        <time>2021-03-20T01:26:22</time>
      </trkpt>
      <trkpt lat="41.2763471435756" lon="-8.67718001827598">
        <ele>59.6</ele>
        <time>2021-03-20T01:26:23</time>
      </trkpt>
      <trkpt lat="41.2763043958694" lon="-8.67714028805494">
        <ele>59.6</ele>
        <time>2021-03-20T01:26:24</time>
      </trkpt>
      <trkpt lat="41.2762607261538" lon="-8.67709720507264">
        <ele>60</ele>
        <time>2021-03-20T01:26:25</time>
      </trkpt>
      <trkpt lat="41.2762217503041" lon="-8.677061162889">
        <ele>60</ele>
        <time>2021-03-20T01:26:26</time>
      </trkpt>
      <trkpt lat="41.2761562038213" lon="-8.67698480375111">
        <ele>60.2</ele>
        <time>2021-03-20T01:26:27</time>
      </trkpt>
      <trkpt lat="41.276113204658" lon="-8.6769419722259">
        <ele>60.4</ele>
        <time>2021-03-20T01:26:28</time>
      </trkpt>
      <trkpt lat="41.2760780844837" lon="-8.67690333165228">
        <ele>60.4</ele>
        <time>2021-03-20T01:26:29</time>
      </trkpt>
      <trkpt lat="41.2760302238166" lon="-8.67684817872942">
        <ele>60.4</ele>
        <time>2021-03-20T01:26:30</time>
      </trkpt>
      <trkpt lat="41.2759795971215" lon="-8.67678531445563">
        <ele>60.4</ele>
        <time>2021-03-20T01:26:31</time>
      </trkpt>
      <trkpt lat="41.2759499251842" lon="-8.67674482986331">
        <ele>60.2</ele>
        <time>2021-03-20T01:26:32</time>
      </trkpt>
      <trkpt lat="41.275904243812" lon="-8.67668397724628">
        <ele>60.2</ele>
        <time>2021-03-20T01:26:33</time>
      </trkpt>
      <trkpt lat="41.2758599035442" lon="-8.67663033306599">
        <ele>60.2</ele>
        <time>2021-03-20T01:26:34</time>
      </trkpt>
      <trkpt lat="41.2758126296103" lon="-8.67657417431474">
        <ele>60</ele>
        <time>2021-03-20T01:26:35</time>
      </trkpt>
      <trkpt lat="41.27576418221" lon="-8.6765156686306">
        <ele>60</ele>
        <time>2021-03-20T01:26:36</time>
      </trkpt>
      <trkpt lat="41.2757132202387" lon="-8.67645523510873">
        <ele>60</ele>
        <time>2021-03-20T01:26:37</time>
      </trkpt>
      <trkpt lat="41.2756571453065" lon="-8.67637979798019">
        <ele>60.2</ele>
        <time>2021-03-20T01:26:38</time>
      </trkpt>
      <trkpt lat="41.2756122183055" lon="-8.67632322013378">
        <ele>60.4</ele>
        <time>2021-03-20T01:26:39</time>
      </trkpt>
      <trkpt lat="41.2755760923028" lon="-8.67627779021859">
        <ele>60.4</ele>
        <time>2021-03-20T01:26:40</time>
      </trkpt>
      <trkpt lat="41.2755297403783" lon="-8.67622221820056">
        <ele>60.4</ele>
        <time>2021-03-20T01:26:41</time>
      </trkpt>
      <trkpt lat="41.2754924409092" lon="-8.67618299089372">
        <ele>60.6</ele>
        <time>2021-03-20T01:26:42</time>
      </trkpt>
      <trkpt lat="41.275447094813" lon="-8.67614099755883">
        <ele>60.6</ele>
        <time>2021-03-20T01:26:43</time>
      </trkpt>
      <trkpt lat="41.2754001561552" lon="-8.67609179578722">
        <ele>60.8</ele>
        <time>2021-03-20T01:26:44</time>
      </trkpt>
      <trkpt lat="41.2753447517753" lon="-8.67602298036218">
        <ele>60.8</ele>
        <time>2021-03-20T01:26:45</time>
      </trkpt>
      <trkpt lat="41.2752916105092" lon="-8.67596170864999">
        <ele>61</ele>
        <time>2021-03-20T01:26:46</time>
      </trkpt>
      <trkpt lat="41.2752411514521" lon="-8.67590328678489">
        <ele>61.2</ele>
        <time>2021-03-20T01:26:47</time>
      </trkpt>
      <trkpt lat="41.2751948833466" lon="-8.67584645748138">
        <ele>61.6</ele>
        <time>2021-03-20T01:26:48</time>
      </trkpt>
      <trkpt lat="41.275153644383" lon="-8.67580496706069">
        <ele>61.8</ele>
        <time>2021-03-20T01:26:49</time>
      </trkpt>
      <trkpt lat="41.2751256488264" lon="-8.67576976306736">
        <ele>62</ele>
        <time>2021-03-20T01:26:50</time>
      </trkpt>
      <trkpt lat="41.2750924564898" lon="-8.67573380470276">
        <ele>62</ele>
        <time>2021-03-20T01:26:51</time>
      </trkpt>
      <trkpt lat="41.2750381417572" lon="-8.67567328736186">
        <ele>62.4</ele>
        <time>2021-03-20T01:26:52</time>
      </trkpt>
      <trkpt lat="41.2749864254147" lon="-8.67561880499124">
        <ele>62.4</ele>
        <time>2021-03-20T01:26:53</time>
      </trkpt>
      <trkpt lat="41.2749394029379" lon="-8.67557077668607">
        <ele>62.6</ele>
        <time>2021-03-20T01:26:54</time>
      </trkpt>
      <trkpt lat="41.2748961523175" lon="-8.6755261849612">
        <ele>62.8</ele>
        <time>2021-03-20T01:26:55</time>
      </trkpt>
      <trkpt lat="41.2748616188765" lon="-8.6754862871021">
        <ele>62.8</ele>
        <time>2021-03-20T01:26:56</time>
      </trkpt>
      <trkpt lat="41.2748279236257" lon="-8.67544580250978">
        <ele>62.8</ele>
        <time>2021-03-20T01:26:57</time>
      </trkpt>
      <trkpt lat="41.2748031131923" lon="-8.67542216554284">
        <ele>63</ele>
        <time>2021-03-20T01:26:58</time>
      </trkpt>
      <trkpt lat="41.2747579347342" lon="-8.67537220939994">
        <ele>63</ele>
        <time>2021-03-20T01:26:59</time>
      </trkpt>
      <trkpt lat="41.2747346330434" lon="-8.67535896599293">
        <ele>63</ele>
        <time>2021-03-20T01:27:00</time>
      </trkpt>
      <trkpt lat="41.2747191265225" lon="-8.67534421384334">
        <ele>63</ele>
        <time>2021-03-20T01:27:01</time>
      </trkpt>
      <trkpt lat="41.274709654972" lon="-8.67532527074218">
        <ele>63.2</ele>
        <time>2021-03-20T01:27:02</time>
      </trkpt>
      <trkpt lat="41.2746962439269" lon="-8.67531177587807">
        <ele>63.2</ele>
        <time>2021-03-20T01:27:03</time>
      </trkpt>
      <trkpt lat="41.2746908795088" lon="-8.67530398070812">
        <ele>63.2</ele>
        <time>2021-03-20T01:27:04</time>
      </trkpt>
      <trkpt lat="41.2746771331876" lon="-8.67528168484569">
        <ele>63.2</ele>
        <time>2021-03-20T01:27:05</time>
      </trkpt>
      <trkpt lat="41.2746651470661" lon="-8.67526626214385">
        <ele>63.2</ele>
        <time>2021-03-20T01:27:06</time>
      </trkpt>
      <trkpt lat="41.2746565975249" lon="-8.67526433430612">
        <ele>63.2</ele>
        <time>2021-03-20T01:27:07</time>
      </trkpt>
      <trkpt lat="41.2746483832598" lon="-8.67526265792549">
        <ele>62.8</ele>
        <time>2021-03-20T01:27:08</time>
      </trkpt>
      <trkpt lat="41.2746482156217" lon="-8.67526416666806">
        <ele>63</ele>
        <time>2021-03-20T01:27:09</time>
      </trkpt>
      <trkpt lat="41.2746213935316" lon="-8.67523499764502">
        <ele>62.8</ele>
        <time>2021-03-20T01:27:10</time>
      </trkpt>
      <trkpt lat="41.2745931465179" lon="-8.67519970983267">
        <ele>62.6</ele>
        <time>2021-03-20T01:27:11</time>
      </trkpt>
      <trkpt lat="41.2745607085526" lon="-8.67514723911881">
        <ele>62.8</ele>
        <time>2021-03-20T01:27:12</time>
      </trkpt>
      <trkpt lat="41.2745312042534" lon="-8.67510097101331">
        <ele>62.4</ele>
        <time>2021-03-20T01:27:13</time>
      </trkpt>
      <trkpt lat="41.2744891270995" lon="-8.6750618275255">
        <ele>62.4</ele>
        <time>2021-03-20T01:27:14</time>
      </trkpt>
      <trkpt lat="41.2744550965726" lon="-8.67502846755087">
        <ele>62.2</ele>
        <time>2021-03-20T01:27:15</time>
      </trkpt>
      <trkpt lat="41.2744116783142" lon="-8.67498898878694">
        <ele>62.2</ele>
        <time>2021-03-20T01:27:16</time>
      </trkpt>
      <trkpt lat="41.2743736244738" lon="-8.67494783364236">
        <ele>62.2</ele>
        <time>2021-03-20T01:27:17</time>
      </trkpt>
      <trkpt lat="41.2743321340531" lon="-8.67490231990814">
        <ele>62</ele>
        <time>2021-03-20T01:27:18</time>
      </trkpt>
      <trkpt lat="41.274297600612" lon="-8.67486217059195">
        <ele>62</ele>
        <time>2021-03-20T01:27:19</time>
      </trkpt>
      <trkpt lat="41.2742401007563" lon="-8.67480182088912">
        <ele>61.8</ele>
        <time>2021-03-20T01:27:20</time>
      </trkpt>
      <trkpt lat="41.2741902284324" lon="-8.67474700324237">
        <ele>61.6</ele>
        <time>2021-03-20T01:27:21</time>
      </trkpt>
      <trkpt lat="41.2741491571069" lon="-8.67470433935523">
        <ele>61.6</ele>
        <time>2021-03-20T01:27:22</time>
      </trkpt>
      <trkpt lat="41.2741214130074" lon="-8.67467433214188">
        <ele>61.4</ele>
        <time>2021-03-20T01:27:23</time>
      </trkpt>
      <trkpt lat="41.2740717083216" lon="-8.67461951449514">
        <ele>61.4</ele>
        <time>2021-03-20T01:27:24</time>
      </trkpt>
      <trkpt lat="41.2740215845406" lon="-8.67455832660198">
        <ele>61.4</ele>
        <time>2021-03-20T01:27:25</time>
      </trkpt>
      <trkpt lat="41.273967185989" lon="-8.67451298050582">
        <ele>61.4</ele>
        <time>2021-03-20T01:27:26</time>
      </trkpt>
      <trkpt lat="41.2739167269319" lon="-8.67446017451584">
        <ele>61.2</ele>
        <time>2021-03-20T01:27:27</time>
      </trkpt>
      <trkpt lat="41.27387188375" lon="-8.67440803907812">
        <ele>61.2</ele>
        <time>2021-03-20T01:27:28</time>
      </trkpt>
      <trkpt lat="41.2738389428705" lon="-8.674376020208">
        <ele>62.4</ele>
        <time>2021-03-20T01:27:29</time>
      </trkpt>
      <trkpt lat="41.2737891543657" lon="-8.67432723753154">
        <ele>62.4</ele>
        <time>2021-03-20T01:27:30</time>
      </trkpt>
      <trkpt lat="41.2737401202321" lon="-8.67426596581936">
        <ele>62.4</ele>
        <time>2021-03-20T01:27:31</time>
      </trkpt>
      <trkpt lat="41.2736614141613" lon="-8.67416873574257">
        <ele>62.4</ele>
        <time>2021-03-20T01:27:32</time>
      </trkpt>
      <trkpt lat="41.2735630944371" lon="-8.67405767552554">
        <ele>62.4</ele>
        <time>2021-03-20T01:27:33</time>
      </trkpt>
      <trkpt lat="41.2735216878355" lon="-8.6740067973733">
        <ele>62.4</ele>
        <time>2021-03-20T01:27:34</time>
      </trkpt>
      <trkpt lat="41.2734636012465" lon="-8.67393580265343">
        <ele>62.6</ele>
        <time>2021-03-20T01:27:35</time>
      </trkpt>
      <trkpt lat="41.2734001502395" lon="-8.67386321537196">
        <ele>62.6</ele>
        <time>2021-03-20T01:27:36</time>
      </trkpt>
      <trkpt lat="41.2733396328986" lon="-8.67379766888916">
        <ele>62.6</ele>
        <time>2021-03-20T01:27:37</time>
      </trkpt>
      <trkpt lat="41.2732869107276" lon="-8.67373773828149">
        <ele>62.4</ele>
        <time>2021-03-20T01:27:38</time>
      </trkpt>
      <trkpt lat="41.2732314225286" lon="-8.67367152124643">
        <ele>62.4</ele>
        <time>2021-03-20T01:27:39</time>
      </trkpt>
      <trkpt lat="41.2731737550348" lon="-8.67360052652657">
        <ele>62.6</ele>
        <time>2021-03-20T01:27:40</time>
      </trkpt>
      <trkpt lat="41.2731106393039" lon="-8.6735281907022">
        <ele>62.6</ele>
        <time>2021-03-20T01:27:41</time>
      </trkpt>
      <trkpt lat="41.2730481941253" lon="-8.6734592076391">
        <ele>62.8</ele>
        <time>2021-03-20T01:27:42</time>
      </trkpt>
      <trkpt lat="41.2730056140572" lon="-8.67341025732458">
        <ele>63.2</ele>
        <time>2021-03-20T01:27:43</time>
      </trkpt>
      <trkpt lat="41.2729506287724" lon="-8.67334445938468">
        <ele>63.2</ele>
        <time>2021-03-20T01:27:44</time>
      </trkpt>
      <trkpt lat="41.272878209129" lon="-8.6732691898942">
        <ele>63.6</ele>
        <time>2021-03-20T01:27:45</time>
      </trkpt>
      <trkpt lat="41.2728241458535" lon="-8.67321403697133">
        <ele>63.6</ele>
        <time>2021-03-20T01:27:46</time>
      </trkpt>
      <trkpt lat="41.2727596890181" lon="-8.67313927039504">
        <ele>63.6</ele>
        <time>2021-03-20T01:27:47</time>
      </trkpt>
      <trkpt lat="41.2726874370128" lon="-8.67305821739137">
        <ele>63.6</ele>
        <time>2021-03-20T01:27:48</time>
      </trkpt>
      <trkpt lat="41.2726198788732" lon="-8.67298646830022">
        <ele>63.8</ele>
        <time>2021-03-20T01:27:49</time>
      </trkpt>
      <trkpt lat="41.2725524045527" lon="-8.67291270755231">
        <ele>64.2</ele>
        <time>2021-03-20T01:27:50</time>
      </trkpt>
      <trkpt lat="41.2724994309247" lon="-8.67285151965916">
        <ele>64.2</ele>
        <time>2021-03-20T01:27:51</time>
      </trkpt>
      <trkpt lat="41.2724102474749" lon="-8.67275319993496">
        <ele>64</ele>
        <time>2021-03-20T01:27:52</time>
      </trkpt>
      <trkpt lat="41.2723597045988" lon="-8.6726972926408">
        <ele>64</ele>
        <time>2021-03-20T01:27:53</time>
      </trkpt>
      <trkpt lat="41.2722641509026" lon="-8.67259670980275">
        <ele>64.6</ele>
        <time>2021-03-20T01:27:54</time>
      </trkpt>
      <trkpt lat="41.2722058966756" lon="-8.67253627628088">
        <ele>64.8</ele>
        <time>2021-03-20T01:27:55</time>
      </trkpt>
      <trkpt lat="41.2721347343177" lon="-8.67246083915234">
        <ele>64.6</ele>
        <time>2021-03-20T01:27:56</time>
      </trkpt>
      <trkpt lat="41.2720572017133" lon="-8.67237869650126">
        <ele>64.6</ele>
        <time>2021-03-20T01:27:57</time>
      </trkpt>
      <trkpt lat="41.271963911131" lon="-8.67227316834032">
        <ele>64.8</ele>
        <time>2021-03-20T01:27:58</time>
      </trkpt>
      <trkpt lat="41.2718937546015" lon="-8.67219471372664">
        <ele>64.8</ele>
        <time>2021-03-20T01:27:59</time>
      </trkpt>
      <trkpt lat="41.2718376796693" lon="-8.67213377729058">
        <ele>65</ele>
        <time>2021-03-20T01:28:00</time>
      </trkpt>
      <trkpt lat="41.2717697024345" lon="-8.67205297574401">
        <ele>65.2</ele>
        <time>2021-03-20T01:28:01</time>
      </trkpt>
      <trkpt lat="41.2716940976679" lon="-8.67197150364518">
        <ele>65</ele>
        <time>2021-03-20T01:28:02</time>
      </trkpt>
      <trkpt lat="41.2716340832412" lon="-8.6719052027911">
        <ele>65</ele>
        <time>2021-03-20T01:28:03</time>
      </trkpt>
      <trkpt lat="41.2715298961848" lon="-8.67179129272699">
        <ele>65.2</ele>
        <time>2021-03-20T01:28:04</time>
      </trkpt>
      <trkpt lat="41.2714164052159" lon="-8.67166765965521">
        <ele>65.4</ele>
        <time>2021-03-20T01:28:05</time>
      </trkpt>
      <trkpt lat="41.2713589053601" lon="-8.6716044601053">
        <ele>65.4</ele>
        <time>2021-03-20T01:28:06</time>
      </trkpt>
      <trkpt lat="41.2712904252112" lon="-8.67152751423419">
        <ele>65.6</ele>
        <time>2021-03-20T01:28:07</time>
      </trkpt>
      <trkpt lat="41.2712339311838" lon="-8.67145668715239">
        <ele>65.6</ele>
        <time>2021-03-20T01:28:08</time>
      </trkpt>
      <trkpt lat="41.2711664568633" lon="-8.6713784839958">
        <ele>66</ele>
        <time>2021-03-20T01:28:09</time>
      </trkpt>
      <trkpt lat="41.2710991501808" lon="-8.67130430415273">
        <ele>66</ele>
        <time>2021-03-20T01:28:10</time>
      </trkpt>
      <trkpt lat="41.2710457574576" lon="-8.67124076932669">
        <ele>65.8</ele>
        <time>2021-03-20T01:28:11</time>
      </trkpt>
      <trkpt lat="41.2709784507751" lon="-8.67116566747427">
        <ele>66</ele>
        <time>2021-03-20T01:28:12</time>
      </trkpt>
      <trkpt lat="41.270914580673" lon="-8.6710970196873">
        <ele>66</ele>
        <time>2021-03-20T01:28:13</time>
      </trkpt>
      <trkpt lat="41.2708516325802" lon="-8.6710225045681">
        <ele>65.8</ele>
        <time>2021-03-20T01:28:14</time>
      </trkpt>
      <trkpt lat="41.2707981560379" lon="-8.67096525616944">
        <ele>65.6</ele>
        <time>2021-03-20T01:28:15</time>
      </trkpt>
      <trkpt lat="41.2707279156894" lon="-8.67089375853538">
        <ele>65.6</ele>
        <time>2021-03-20T01:28:16</time>
      </trkpt>
      <trkpt lat="41.270668739453" lon="-8.67082829587162">
        <ele>65.6</ele>
        <time>2021-03-20T01:28:17</time>
      </trkpt>
      <trkpt lat="41.2706039473414" lon="-8.67075629532337">
        <ele>65.6</ele>
        <time>2021-03-20T01:28:18</time>
      </trkpt>
      <trkpt lat="41.2705536559224" lon="-8.670699801296">
        <ele>65.6</ele>
        <time>2021-03-20T01:28:19</time>
      </trkpt>
      <trkpt lat="41.2704834155738" lon="-8.67061698809266">
        <ele>65.8</ele>
        <time>2021-03-20T01:28:20</time>
      </trkpt>
      <trkpt lat="41.2704146839678" lon="-8.67053719237447">
        <ele>65.8</ele>
        <time>2021-03-20T01:28:21</time>
      </trkpt>
      <trkpt lat="41.2703487183899" lon="-8.67045915685594">
        <ele>65.6</ele>
        <time>2021-03-20T01:28:22</time>
      </trkpt>
      <trkpt lat="41.2702794000506" lon="-8.67037869058549">
        <ele>65.6</ele>
        <time>2021-03-20T01:28:23</time>
      </trkpt>
      <trkpt lat="41.2702141050249" lon="-8.67030669003725">
        <ele>65.6</ele>
        <time>2021-03-20T01:28:24</time>
      </trkpt>
      <trkpt lat="41.2701618857682" lon="-8.67024927400052">
        <ele>65.6</ele>
        <time>2021-03-20T01:28:25</time>
      </trkpt>
      <trkpt lat="41.2700817547739" lon="-8.67016118019819">
        <ele>66</ele>
        <time>2021-03-20T01:28:26</time>
      </trkpt>
      <trkpt lat="41.2700089160353" lon="-8.67008171975613">
        <ele>65.8</ele>
        <time>2021-03-20T01:28:27</time>
      </trkpt>
      <trkpt lat="41.2699546851218" lon="-8.67001969367266">
        <ele>65.6</ele>
        <time>2021-03-20T01:28:28</time>
      </trkpt>
      <trkpt lat="41.2698792479932" lon="-8.66993847303092">
        <ele>65.4</ele>
        <time>2021-03-20T01:28:29</time>
      </trkpt>
      <trkpt lat="41.2697925791144" lon="-8.66984501481056">
        <ele>65.4</ele>
        <time>2021-03-20T01:28:30</time>
      </trkpt>
      <trkpt lat="41.2697229254991" lon="-8.66976672783494">
        <ele>65.2</ele>
        <time>2021-03-20T01:28:31</time>
      </trkpt>
      <trkpt lat="41.2696691136807" lon="-8.66970679722726">
        <ele>65</ele>
        <time>2021-03-20T01:28:32</time>
      </trkpt>
      <trkpt lat="41.2695976160467" lon="-8.66962976753712">
        <ele>64.6</ele>
        <time>2021-03-20T01:28:33</time>
      </trkpt>
      <trkpt lat="41.2695277109742" lon="-8.6695509776473">
        <ele>64.6</ele>
        <time>2021-03-20T01:28:34</time>
      </trkpt>
      <trkpt lat="41.2694551236928" lon="-8.66947319358587">
        <ele>64.4</ele>
        <time>2021-03-20T01:28:35</time>
      </trkpt>
      <trkpt lat="41.2693863920867" lon="-8.66939616389573">
        <ele>64.2</ele>
        <time>2021-03-20T01:28:36</time>
      </trkpt>
      <trkpt lat="41.2693179119378" lon="-8.66931796073914">
        <ele>63.8</ele>
        <time>2021-03-20T01:28:37</time>
      </trkpt>
      <trkpt lat="41.2692464143038" lon="-8.66924478672445">
        <ele>63.6</ele>
        <time>2021-03-20T01:28:38</time>
      </trkpt>
      <trkpt lat="41.2691759224981" lon="-8.6691677570343">
        <ele>63.2</ele>
        <time>2021-03-20T01:28:39</time>
      </trkpt>
      <trkpt lat="41.2691061850637" lon="-8.66909399628639">
        <ele>63.4</ele>
        <time>2021-03-20T01:28:40</time>
      </trkpt>
      <trkpt lat="41.2690369505435" lon="-8.66901596076786">
        <ele>63.4</ele>
        <time>2021-03-20T01:28:41</time>
      </trkpt>
      <trkpt lat="41.2689631897956" lon="-8.6689346563071">
        <ele>63.2</ele>
        <time>2021-03-20T01:28:42</time>
      </trkpt>
      <trkpt lat="41.2688880879432" lon="-8.66885251365602">
        <ele>62.8</ele>
        <time>2021-03-20T01:28:43</time>
      </trkpt>
      <trkpt lat="41.2688174284995" lon="-8.66877229884267">
        <ele>62.8</ele>
        <time>2021-03-20T01:28:44</time>
      </trkpt>
      <trkpt lat="41.2687460985035" lon="-8.66869669407606">
        <ele>62.6</ele>
        <time>2021-03-20T01:28:45</time>
      </trkpt>
      <trkpt lat="41.2686714157462" lon="-8.668617233634">
        <ele>62.4</ele>
        <time>2021-03-20T01:28:46</time>
      </trkpt>
      <trkpt lat="41.2686007563025" lon="-8.66853701882064">
        <ele>62.2</ele>
        <time>2021-03-20T01:28:47</time>
      </trkpt>
      <trkpt lat="41.2685285881162" lon="-8.6684547085315">
        <ele>61.8</ele>
        <time>2021-03-20T01:28:48</time>
      </trkpt>
      <trkpt lat="41.2684557493776" lon="-8.66837382316589">
        <ele>61.6</ele>
        <time>2021-03-20T01:28:49</time>
      </trkpt>
      <trkpt lat="41.2683646380901" lon="-8.66827349178493">
        <ele>61.4</ele>
        <time>2021-03-20T01:28:50</time>
      </trkpt>
      <trkpt lat="41.2682943977416" lon="-8.66819579154253">
        <ele>61.4</ele>
        <time>2021-03-20T01:28:51</time>
      </trkpt>
      <trkpt lat="41.2682358920574" lon="-8.66813820786774">
        <ele>61.2</ele>
        <time>2021-03-20T01:28:52</time>
      </trkpt>
      <trkpt lat="41.2681472115219" lon="-8.66804072633386">
        <ele>61</ele>
        <time>2021-03-20T01:28:53</time>
      </trkpt>
      <trkpt lat="41.2680936511606" lon="-8.66798331029713">
        <ele>60.8</ele>
        <time>2021-03-20T01:28:54</time>
      </trkpt>
      <trkpt lat="41.2680192198604" lon="-8.66790301166475">
        <ele>60.8</ele>
        <time>2021-03-20T01:28:55</time>
      </trkpt>
      <trkpt lat="41.2679396755993" lon="-8.6678124871105">
        <ele>60.6</ele>
        <time>2021-03-20T01:28:56</time>
      </trkpt>
      <trkpt lat="41.2678519170731" lon="-8.66771383211017">
        <ele>60.4</ele>
        <time>2021-03-20T01:28:57</time>
      </trkpt>
      <trkpt lat="41.2677876278758" lon="-8.6676462739706">
        <ele>60</ele>
        <time>2021-03-20T01:28:58</time>
      </trkpt>
      <trkpt lat="41.2677157111466" lon="-8.66756471805274">
        <ele>59.8</ele>
        <time>2021-03-20T01:28:59</time>
      </trkpt>
      <trkpt lat="41.2676384299994" lon="-8.66748349741101">
        <ele>59.6</ele>
        <time>2021-03-20T01:29:00</time>
      </trkpt>
      <trkpt lat="41.267579253763" lon="-8.66741325706244">
        <ele>59.6</ele>
        <time>2021-03-20T01:29:01</time>
      </trkpt>
      <trkpt lat="41.2675041519105" lon="-8.66732751019299">
        <ele>60</ele>
        <time>2021-03-20T01:29:02</time>
      </trkpt>
      <trkpt lat="41.2674354203045" lon="-8.6672442778945">
        <ele>60</ele>
        <time>2021-03-20T01:29:03</time>
      </trkpt>
      <trkpt lat="41.2673438899219" lon="-8.66714579053223">
        <ele>60</ele>
        <time>2021-03-20T01:29:04</time>
      </trkpt>
      <trkpt lat="41.2672624178231" lon="-8.66705677472055">
        <ele>60.4</ele>
        <time>2021-03-20T01:29:05</time>
      </trkpt>
      <trkpt lat="41.2671847175807" lon="-8.66697672754526">
        <ele>61</ele>
        <time>2021-03-20T01:29:06</time>
      </trkpt>
      <trkpt lat="41.2671118788421" lon="-8.66688796319068">
        <ele>61.4</ele>
        <time>2021-03-20T01:29:07</time>
      </trkpt>
      <trkpt lat="41.2670541275293" lon="-8.66682023741305">
        <ele>61.4</ele>
        <time>2021-03-20T01:29:08</time>
      </trkpt>
      <trkpt lat="41.266976678744" lon="-8.66673080250621">
        <ele>62</ele>
        <time>2021-03-20T01:29:09</time>
      </trkpt>
      <trkpt lat="41.2668678816408" lon="-8.66660976782441">
        <ele>63</ele>
        <time>2021-03-20T01:29:10</time>
      </trkpt>
      <trkpt lat="41.2667886726558" lon="-8.66652418859303">
        <ele>63.4</ele>
        <time>2021-03-20T01:29:11</time>
      </trkpt>
      <trkpt lat="41.2667112238705" lon="-8.66643450222909">
        <ele>63.6</ele>
        <time>2021-03-20T01:29:12</time>
      </trkpt>
      <trkpt lat="41.2666302546859" lon="-8.6663409601897">
        <ele>63.8</ele>
        <time>2021-03-20T01:29:13</time>
      </trkpt>
      <trkpt lat="41.2665531411767" lon="-8.66625999100506">
        <ele>64.4</ele>
        <time>2021-03-20T01:29:14</time>
      </trkpt>
      <trkpt lat="41.2664962280542" lon="-8.66619821637869">
        <ele>64.6</ele>
        <time>2021-03-20T01:29:15</time>
      </trkpt>
      <trkpt lat="41.266421712935" lon="-8.66611565463245">
        <ele>65.4</ele>
        <time>2021-03-20T01:29:16</time>
      </trkpt>
      <trkpt lat="41.2663290929049" lon="-8.66601071320474">
        <ele>65.8</ele>
        <time>2021-03-20T01:29:17</time>
      </trkpt>
      <trkpt lat="41.2662491295487" lon="-8.66593569517136">
        <ele>66</ele>
        <time>2021-03-20T01:29:18</time>
      </trkpt>
      <trkpt lat="41.2661664001644" lon="-8.66585279814899">
        <ele>66.2</ele>
        <time>2021-03-20T01:29:19</time>
      </trkpt>
      <trkpt lat="41.266091382131" lon="-8.66576872766018">
        <ele>66.6</ele>
        <time>2021-03-20T01:29:20</time>
      </trkpt>
      <trkpt lat="41.2660326249898" lon="-8.66570577956736">
        <ele>66.8</ele>
        <time>2021-03-20T01:29:21</time>
      </trkpt>
      <trkpt lat="41.2659436091781" lon="-8.66561525501311">
        <ele>67.2</ele>
        <time>2021-03-20T01:29:22</time>
      </trkpt>
      <trkpt lat="41.2658608797938" lon="-8.66552447900176">
        <ele>67.4</ele>
        <time>2021-03-20T01:29:23</time>
      </trkpt>
      <trkpt lat="41.2657519150525" lon="-8.66540679708123">
        <ele>67.8</ele>
        <time>2021-03-20T01:29:24</time>
      </trkpt>
      <trkpt lat="41.2656691018492" lon="-8.66532272659242">
        <ele>68.2</ele>
        <time>2021-03-20T01:29:25</time>
      </trkpt>
      <trkpt lat="41.2655939161778" lon="-8.66524452343583">
        <ele>68.4</ele>
        <time>2021-03-20T01:29:26</time>
      </trkpt>
      <trkpt lat="41.2655217479914" lon="-8.66516766138375">
        <ele>68.8</ele>
        <time>2021-03-20T01:29:27</time>
      </trkpt>
      <trkpt lat="41.2654457241297" lon="-8.6650924757123">
        <ele>68.8</ele>
        <time>2021-03-20T01:29:28</time>
      </trkpt>
      <trkpt lat="41.2653789203614" lon="-8.66502768360078">
        <ele>69.2</ele>
        <time>2021-03-20T01:29:29</time>
      </trkpt>
      <trkpt lat="41.2652883958072" lon="-8.66493799723685">
        <ele>69.4</ele>
        <time>2021-03-20T01:29:30</time>
      </trkpt>
      <trkpt lat="41.2651784252375" lon="-8.66484001278877">
        <ele>69.6</ele>
        <time>2021-03-20T01:29:31</time>
      </trkpt>
      <trkpt lat="41.2650861404836" lon="-8.66476147435606">
        <ele>70</ele>
        <time>2021-03-20T01:29:32</time>
      </trkpt>
      <trkpt lat="41.2650071829557" lon="-8.66469131782651">
        <ele>70.2</ele>
        <time>2021-03-20T01:29:33</time>
      </trkpt>
      <trkpt lat="41.2649177480489" lon="-8.66462233476341">
        <ele>70.4</ele>
        <time>2021-03-20T01:29:34</time>
      </trkpt>
      <trkpt lat="41.2648268882185" lon="-8.66453968919814">
        <ele>70.8</ele>
        <time>2021-03-20T01:29:35</time>
      </trkpt>
      <trkpt lat="41.2647631857544" lon="-8.66448545828462">
        <ele>71</ele>
        <time>2021-03-20T01:29:36</time>
      </trkpt>
      <trkpt lat="41.2646739184856" lon="-8.66440633311868">
        <ele>71.2</ele>
        <time>2021-03-20T01:29:37</time>
      </trkpt>
      <trkpt lat="41.2645741738379" lon="-8.66432226262987">
        <ele>71.4</ele>
        <time>2021-03-20T01:29:38</time>
      </trkpt>
      <trkpt lat="41.2644946295768" lon="-8.66426233202219">
        <ele>71.8</ele>
        <time>2021-03-20T01:29:39</time>
      </trkpt>
      <trkpt lat="41.2644170969725" lon="-8.66420022211969">
        <ele>72</ele>
        <time>2021-03-20T01:29:40</time>
      </trkpt>
      <trkpt lat="41.2643446773291" lon="-8.66414146497846">
        <ele>72</ele>
        <time>2021-03-20T01:29:41</time>
      </trkpt>
      <trkpt lat="41.2642951402813" lon="-8.66409779526293">
        <ele>72.2</ele>
        <time>2021-03-20T01:29:42</time>
      </trkpt>
      <trkpt lat="41.2642300967127" lon="-8.66404482163489">
        <ele>72.4</ele>
        <time>2021-03-20T01:29:43</time>
      </trkpt>
      <trkpt lat="41.2641321122646" lon="-8.6639594938606">
        <ele>72.4</ele>
        <time>2021-03-20T01:29:44</time>
      </trkpt>
      <trkpt lat="41.2640741933137" lon="-8.6639180034399">
        <ele>72.8</ele>
        <time>2021-03-20T01:29:45</time>
      </trkpt>
      <trkpt lat="41.2640129216015" lon="-8.66387601010501">
        <ele>73</ele>
        <time>2021-03-20T01:29:46</time>
      </trkpt>
      <trkpt lat="41.2639419268817" lon="-8.66383032873273">
        <ele>73.2</ele>
        <time>2021-03-20T01:29:47</time>
      </trkpt>
      <trkpt lat="41.2638931442052" lon="-8.66379202343524">
        <ele>73.4</ele>
        <time>2021-03-20T01:29:48</time>
      </trkpt>
      <trkpt lat="41.2638332135975" lon="-8.66374751552939">
        <ele>73.6</ele>
        <time>2021-03-20T01:29:49</time>
      </trkpt>
      <trkpt lat="41.2637716904283" lon="-8.6637060251087">
        <ele>73.8</ele>
        <time>2021-03-20T01:29:50</time>
      </trkpt>
      <trkpt lat="41.2636898830533" lon="-8.66364517249167">
        <ele>74</ele>
        <time>2021-03-20T01:29:51</time>
      </trkpt>
      <trkpt lat="41.2636271025986" lon="-8.66359647363424">
        <ele>74.2</ele>
        <time>2021-03-20T01:29:52</time>
      </trkpt>
      <trkpt lat="41.2635654117912" lon="-8.66355448029935">
        <ele>74.2</ele>
        <time>2021-03-20T01:29:53</time>
      </trkpt>
      <trkpt lat="41.2635032180697" lon="-8.66350846365094">
        <ele>74.6</ele>
        <time>2021-03-20T01:29:54</time>
      </trkpt>
      <trkpt lat="41.2634421139956" lon="-8.66346571594477">
        <ele>75</ele>
        <time>2021-03-20T01:29:55</time>
      </trkpt>
      <trkpt lat="41.2633929122239" lon="-8.6634261533618">
        <ele>75.2</ele>
        <time>2021-03-20T01:29:56</time>
      </trkpt>
      <trkpt lat="41.2633316405118" lon="-8.66337846033275">
        <ele>75.4</ele>
        <time>2021-03-20T01:29:57</time>
      </trkpt>
      <trkpt lat="41.2632593885064" lon="-8.66332548670471">
        <ele>75.6</ele>
        <time>2021-03-20T01:29:58</time>
      </trkpt>
      <trkpt lat="41.2631981167942" lon="-8.66327527910471">
        <ele>76</ele>
        <time>2021-03-20T01:29:59</time>
      </trkpt>
      <trkpt lat="41.2631413713098" lon="-8.66323730908334">
        <ele>76.2</ele>
        <time>2021-03-20T01:30:00</time>
      </trkpt>
      <trkpt lat="41.2630837038159" lon="-8.66319615393877">
        <ele>76.4</ele>
        <time>2021-03-20T01:30:01</time>
      </trkpt>
      <trkpt lat="41.263041626662" lon="-8.66316547617316">
        <ele>76.6</ele>
        <time>2021-03-20T01:30:02</time>
      </trkpt>
      <trkpt lat="41.262986222282" lon="-8.6631219740957">
        <ele>76.8</ele>
        <time>2021-03-20T01:30:03</time>
      </trkpt>
      <trkpt lat="41.2629339192063" lon="-8.66308316588402">
        <ele>77.2</ele>
        <time>2021-03-20T01:30:04</time>
      </trkpt>
      <trkpt lat="41.2628393713385" lon="-8.66301929578185">
        <ele>77.4</ele>
        <time>2021-03-20T01:30:05</time>
      </trkpt>
      <trkpt lat="41.2627765908837" lon="-8.66297931410372">
        <ele>77.6</ele>
        <time>2021-03-20T01:30:06</time>
      </trkpt>
      <trkpt lat="41.2627160735428" lon="-8.66294100880623">
        <ele>77.8</ele>
        <time>2021-03-20T01:30:07</time>
      </trkpt>
      <trkpt lat="41.2626708950847" lon="-8.66291427053511">
        <ele>78</ele>
        <time>2021-03-20T01:30:08</time>
      </trkpt>
      <trkpt lat="41.26261071302" lon="-8.66287747398019">
        <ele>78.6</ele>
        <time>2021-03-20T01:30:09</time>
      </trkpt>
      <trkpt lat="41.2623962201178" lon="-8.66274680010974">
        <ele>78.8</ele>
        <time>2021-03-20T01:30:10</time>
      </trkpt>
      <trkpt lat="41.2621521390974" lon="-8.66260472685099">
        <ele>78.8</ele>
        <time>2021-03-20T01:30:11</time>
      </trkpt>
      <trkpt lat="41.2620296794921" lon="-8.66253431886434">
        <ele>78.8</ele>
        <time>2021-03-20T01:30:12</time>
      </trkpt>
      <trkpt lat="41.2620296794921" lon="-8.66253431886434">
        <ele>79.4</ele>
        <time>2021-03-20T01:30:13</time>
      </trkpt>
      <trkpt lat="41.2619057111442" lon="-8.66246701218188">
        <ele>80</ele>
        <time>2021-03-20T01:30:14</time>
      </trkpt>
      <trkpt lat="41.2618425954133" lon="-8.66243197582662">
        <ele>80.2</ele>
        <time>2021-03-20T01:30:15</time>
      </trkpt>
      <trkpt lat="41.2618425954133" lon="-8.66243197582662">
        <ele>80.6</ele>
        <time>2021-03-20T01:30:16</time>
      </trkpt>
      <trkpt lat="41.2617164477706" lon="-8.66236332803965">
        <ele>80.8</ele>
        <time>2021-03-20T01:30:17</time>
      </trkpt>
      <trkpt lat="41.2616535834968" lon="-8.66232946515083">
        <ele>81.2</ele>
        <time>2021-03-20T01:30:18</time>
      </trkpt>
      <trkpt lat="41.2615913897753" lon="-8.66229300387204">
        <ele>81.2</ele>
        <time>2021-03-20T01:30:19</time>
      </trkpt>
      <trkpt lat="41.2615286931396" lon="-8.66225771605968">
        <ele>81.4</ele>
        <time>2021-03-20T01:30:20</time>
      </trkpt>
      <trkpt lat="41.2615286931396" lon="-8.66225771605968">
        <ele>81.8</ele>
        <time>2021-03-20T01:30:21</time>
      </trkpt>
      <trkpt lat="41.2614018749446" lon="-8.6621879786253">
        <ele>82.2</ele>
        <time>2021-03-20T01:30:22</time>
      </trkpt>
      <trkpt lat="41.2614018749446" lon="-8.6621879786253">
        <ele>82.4</ele>
        <time>2021-03-20T01:30:23</time>
      </trkpt>
      <trkpt lat="41.2613379210234" lon="-8.66215269081294">
        <ele>82.6</ele>
        <time>2021-03-20T01:30:24</time>
      </trkpt>
      <trkpt lat="41.261210180819" lon="-8.66208345629275">
        <ele>82.8</ele>
        <time>2021-03-20T01:30:25</time>
      </trkpt>
      <trkpt lat="41.2611461430788" lon="-8.66204783320427">
        <ele>83</ele>
        <time>2021-03-20T01:30:26</time>
      </trkpt>
      <trkpt lat="41.2610819377005" lon="-8.66201296448708">
        <ele>83.2</ele>
        <time>2021-03-20T01:30:27</time>
      </trkpt>
      <trkpt lat="41.2610178999603" lon="-8.66197750903666">
        <ele>83.4</ele>
        <time>2021-03-20T01:30:28</time>
      </trkpt>
      <trkpt lat="41.2609544489533" lon="-8.66194331087172">
        <ele>83.6</ele>
        <time>2021-03-20T01:30:29</time>
      </trkpt>
      <trkpt lat="41.2608910817653" lon="-8.66190978325904">
        <ele>83.8</ele>
        <time>2021-03-20T01:30:30</time>
      </trkpt>
      <trkpt lat="41.2608291395009" lon="-8.6618771776557">
        <ele>84</ele>
        <time>2021-03-20T01:30:31</time>
      </trkpt>
      <trkpt lat="41.2607659399509" lon="-8.66184197366238">
        <ele>83.8</ele>
        <time>2021-03-20T01:30:32</time>
      </trkpt>
      <trkpt lat="41.2607017345726" lon="-8.66180517710745">
        <ele>84.2</ele>
        <time>2021-03-20T01:30:33</time>
      </trkpt>
      <trkpt lat="41.2606376130134" lon="-8.66176771000028">
        <ele>84.4</ele>
        <time>2021-03-20T01:30:34</time>
      </trkpt>
      <trkpt lat="41.2606376130134" lon="-8.66176771000028">
        <ele>84.6</ele>
        <time>2021-03-20T01:30:35</time>
      </trkpt>
      <trkpt lat="41.2605074420571" lon="-8.6616890039295">
        <ele>84.6</ele>
        <time>2021-03-20T01:30:36</time>
      </trkpt>
      <trkpt lat="41.2604427337646" lon="-8.66165195591748">
        <ele>84.8</ele>
        <time>2021-03-20T01:30:37</time>
      </trkpt>
      <trkpt lat="41.2604427337646" lon="-8.66165195591748">
        <ele>84.8</ele>
        <time>2021-03-20T01:30:38</time>
      </trkpt>
      <trkpt lat="41.2603136524558" lon="-8.66156822070479">
        <ele>85</ele>
        <time>2021-03-20T01:30:39</time>
      </trkpt>
      <trkpt lat="41.2602683901787" lon="-8.66153578273952">
        <ele>85</ele>
        <time>2021-03-20T01:30:40</time>
      </trkpt>
      <trkpt lat="41.2602046877146" lon="-8.66148968227208">
        <ele>85.6</ele>
        <time>2021-03-20T01:30:41</time>
      </trkpt>
      <trkpt lat="41.2601516302675" lon="-8.66144475527108">
        <ele>85.6</ele>
        <time>2021-03-20T01:30:42</time>
      </trkpt>
      <trkpt lat="41.2601011712104" lon="-8.66140175610781">
        <ele>86</ele>
        <time>2021-03-20T01:30:43</time>
      </trkpt>
      <trkpt lat="41.2600596807897" lon="-8.66136671975255">
        <ele>86.2</ele>
        <time>2021-03-20T01:30:44</time>
      </trkpt>
      <trkpt lat="41.2600019294769" lon="-8.66131416521966">
        <ele>86.4</ele>
        <time>2021-03-20T01:30:45</time>
      </trkpt>
      <trkpt lat="41.2599482014775" lon="-8.66125951521099">
        <ele>86.4</ele>
        <time>2021-03-20T01:30:46</time>
      </trkpt>
      <trkpt lat="41.2598884385079" lon="-8.66119782440364">
        <ele>87</ele>
        <time>2021-03-20T01:30:47</time>
      </trkpt>
      <trkpt lat="41.2598394043744" lon="-8.66114250384271">
        <ele>87.2</ele>
        <time>2021-03-20T01:30:48</time>
      </trkpt>
      <trkpt lat="41.2598053738475" lon="-8.66109766066074">
        <ele>87.2</ele>
        <time>2021-03-20T01:30:49</time>
      </trkpt>
      <trkpt lat="41.2597569264472" lon="-8.66103420965374">
        <ele>87.4</ele>
        <time>2021-03-20T01:30:50</time>
      </trkpt>
      <trkpt lat="41.2597047071904" lon="-8.66096053272486">
        <ele>87.6</ele>
        <time>2021-03-20T01:30:51</time>
      </trkpt>
      <trkpt lat="41.2596576847136" lon="-8.66089121438563">
        <ele>87.6</ele>
        <time>2021-03-20T01:30:52</time>
      </trkpt>
      <trkpt lat="41.2596124224365" lon="-8.66083329543471">
        <ele>87.8</ele>
        <time>2021-03-20T01:30:53</time>
      </trkpt>
      <trkpt lat="41.2595680821687" lon="-8.66076431237161">
        <ele>88.2</ele>
        <time>2021-03-20T01:30:54</time>
      </trkpt>
      <trkpt lat="41.2595182098448" lon="-8.66068569011986">
        <ele>88.2</ele>
        <time>2021-03-20T01:30:55</time>
      </trkpt>
      <trkpt lat="41.2594623863697" lon="-8.66059432737529">
        <ele>88.4</ele>
        <time>2021-03-20T01:30:56</time>
      </trkpt>
      <trkpt lat="41.2594405934215" lon="-8.66054747253656">
        <ele>88.4</ele>
        <time>2021-03-20T01:30:57</time>
      </trkpt>
      <trkpt lat="41.2593907210976" lon="-8.66045979782939">
        <ele>88.6</ele>
        <time>2021-03-20T01:30:58</time>
      </trkpt>
      <trkpt lat="41.2593613844365" lon="-8.66039852611721">
        <ele>88.6</ele>
        <time>2021-03-20T01:30:59</time>
      </trkpt>
      <trkpt lat="41.2593202292919" lon="-8.66032551974058">
        <ele>89</ele>
        <time>2021-03-20T01:31:00</time>
      </trkpt>
      <trkpt lat="41.2592964246869" lon="-8.66027472540736">
        <ele>89.2</ele>
        <time>2021-03-20T01:31:01</time>
      </trkpt>
      <trkpt lat="41.2592644058168" lon="-8.66021496243775">
        <ele>89.4</ele>
        <time>2021-03-20T01:31:02</time>
      </trkpt>
      <trkpt lat="41.2592294532806" lon="-8.66014027968049">
        <ele>89.6</ele>
        <time>2021-03-20T01:31:03</time>
      </trkpt>
      <trkpt lat="41.2592012062669" lon="-8.66006903350353">
        <ele>89.8</ele>
        <time>2021-03-20T01:31:04</time>
      </trkpt>
      <trkpt lat="41.2591721210629" lon="-8.66000767797232">
        <ele>90</ele>
        <time>2021-03-20T01:31:05</time>
      </trkpt>
      <trkpt lat="41.2591429520398" lon="-8.65994330495596">
        <ele>90</ele>
        <time>2021-03-20T01:31:06</time>
      </trkpt>
      <trkpt lat="41.259108921513" lon="-8.65986929275096">
        <ele>90.2</ele>
        <time>2021-03-20T01:31:07</time>
      </trkpt>
      <trkpt lat="41.2590762320906" lon="-8.65979745984078">
        <ele>90.2</ele>
        <time>2021-03-20T01:31:08</time>
      </trkpt>
      <trkpt lat="41.2590389326215" lon="-8.65972001105547">
        <ele>90.6</ele>
        <time>2021-03-20T01:31:09</time>
      </trkpt>
      <trkpt lat="41.2590016331524" lon="-8.659652704373">
        <ele>90.6</ele>
        <time>2021-03-20T01:31:10</time>
      </trkpt>
      <trkpt lat="41.2589620705694" lon="-8.65957349538803">
        <ele>90.8</ele>
        <time>2021-03-20T01:31:11</time>
      </trkpt>
      <trkpt lat="41.2589261122048" lon="-8.65950317122042">
        <ele>91.2</ele>
        <time>2021-03-20T01:31:12</time>
      </trkpt>
      <trkpt lat="41.2588834483176" lon="-8.65942019037902">
        <ele>91.4</ele>
        <time>2021-03-20T01:31:13</time>
      </trkpt>
      <trkpt lat="41.2588614039123" lon="-8.65937350317836">
        <ele>91.6</ele>
        <time>2021-03-20T01:31:14</time>
      </trkpt>
      <trkpt lat="41.2588268704712" lon="-8.65930418483913">
        <ele>91.6</ele>
        <time>2021-03-20T01:31:15</time>
      </trkpt>
      <trkpt lat="41.2587852124125" lon="-8.65922765806317">
        <ele>91.8</ele>
        <time>2021-03-20T01:31:16</time>
      </trkpt>
      <trkpt lat="41.2587534449995" lon="-8.65916227921844">
        <ele>92</ele>
        <time>2021-03-20T01:31:17</time>
      </trkpt>
      <trkpt lat="41.2587278801948" lon="-8.65911098197102">
        <ele>92.2</ele>
        <time>2021-03-20T01:31:18</time>
      </trkpt>
      <trkpt lat="41.2586921732873" lon="-8.65904426202178">
        <ele>92.4</ele>
        <time>2021-03-20T01:31:19</time>
      </trkpt>
      <trkpt lat="41.2586614117026" lon="-8.65898181684315">
        <ele>92.6</ele>
        <time>2021-03-20T01:31:20</time>
      </trkpt>
      <trkpt lat="41.2586241122335" lon="-8.65891576744616">
        <ele>92.8</ele>
        <time>2021-03-20T01:31:21</time>
      </trkpt>
      <trkpt lat="41.2586011458188" lon="-8.65886321291328">
        <ele>92.8</ele>
        <time>2021-03-20T01:31:22</time>
      </trkpt>
      <trkpt lat="41.2585677020252" lon="-8.65879967808724">
        <ele>93.2</ele>
        <time>2021-03-20T01:31:23</time>
      </trkpt>
      <trkpt lat="41.2585336714983" lon="-8.65873480215669">
        <ele>93.2</ele>
        <time>2021-03-20T01:31:24</time>
      </trkpt>
      <trkpt lat="41.2584983836859" lon="-8.6586666572839">
        <ele>93.2</ele>
        <time>2021-03-20T01:31:25</time>
      </trkpt>
      <trkpt lat="41.2584587372839" lon="-8.65860152989626">
        <ele>93.6</ele>
        <time>2021-03-20T01:31:26</time>
      </trkpt>
      <trkpt lat="41.2584283947945" lon="-8.65855467505753">
        <ele>93.8</ele>
        <time>2021-03-20T01:31:27</time>
      </trkpt>
      <trkpt lat="41.2583931908011" lon="-8.65848468616605">
        <ele>94</ele>
        <time>2021-03-20T01:31:28</time>
      </trkpt>
      <trkpt lat="41.2583576515317" lon="-8.65841620601714">
        <ele>94.2</ele>
        <time>2021-03-20T01:31:29</time>
      </trkpt>
      <trkpt lat="41.2583309132606" lon="-8.65836532786489">
        <ele>94</ele>
        <time>2021-03-20T01:31:30</time>
      </trkpt>
      <trkpt lat="41.258300403133" lon="-8.65829952992499">
        <ele>94.2</ele>
        <time>2021-03-20T01:31:31</time>
      </trkpt>
      <trkpt lat="41.2582641094923" lon="-8.65823448635638">
        <ele>94.2</ele>
        <time>2021-03-20T01:31:32</time>
      </trkpt>
      <trkpt lat="41.2582284025848" lon="-8.65816868841648">
        <ele>95</ele>
        <time>2021-03-20T01:31:33</time>
      </trkpt>
      <trkpt lat="41.2582002393901" lon="-8.65812350995839">
        <ele>95.6</ele>
        <time>2021-03-20T01:31:34</time>
      </trkpt>
      <trkpt lat="41.2581677176058" lon="-8.65806098096073">
        <ele>94.8</ele>
        <time>2021-03-20T01:31:35</time>
      </trkpt>
      <trkpt lat="41.2581331003457" lon="-8.65800130181014">
        <ele>94.8</ele>
        <time>2021-03-20T01:31:36</time>
      </trkpt>
      <trkpt lat="41.2581054400653" lon="-8.65795218385756">
        <ele>95.2</ele>
        <time>2021-03-20T01:31:37</time>
      </trkpt>
      <trkpt lat="41.2580673862249" lon="-8.65787800401449">
        <ele>95.6</ele>
        <time>2021-03-20T01:31:38</time>
      </trkpt>
      <trkpt lat="41.2580290809274" lon="-8.65781622938812">
        <ele>95.6</ele>
        <time>2021-03-20T01:31:39</time>
      </trkpt>
      <trkpt lat="41.2579931225628" lon="-8.65774733014405">
        <ele>96</ele>
        <time>2021-03-20T01:31:40</time>
      </trkpt>
      <trkpt lat="41.2579651270062" lon="-8.65770181640983">
        <ele>96</ele>
        <time>2021-03-20T01:31:41</time>
      </trkpt>
      <trkpt lat="41.2579289171845" lon="-8.65763518027961">
        <ele>96.2</ele>
        <time>2021-03-20T01:31:42</time>
      </trkpt>
      <trkpt lat="41.2578994128853" lon="-8.65758103318512">
        <ele>96.2</ele>
        <time>2021-03-20T01:31:43</time>
      </trkpt>
      <trkpt lat="41.2578782066703" lon="-8.65753317251802">
        <ele>96.4</ele>
        <time>2021-03-20T01:31:44</time>
      </trkpt>
      <trkpt lat="41.2578397337347" lon="-8.65746896713972">
        <ele>96.6</ele>
        <time>2021-03-20T01:31:45</time>
      </trkpt>
      <trkpt lat="41.2578031886369" lon="-8.65739746950567">
        <ele>96.4</ele>
        <time>2021-03-20T01:31:46</time>
      </trkpt>
      <trkpt lat="41.2577720917761" lon="-8.65733116865158">
        <ele>96.6</ele>
        <time>2021-03-20T01:31:47</time>
      </trkpt>
      <trkpt lat="41.257745185867" lon="-8.65727819502354">
        <ele>96.8</ele>
        <time>2021-03-20T01:31:48</time>
      </trkpt>
      <trkpt lat="41.2577086407691" lon="-8.65720527246594">
        <ele>97</ele>
        <time>2021-03-20T01:31:49</time>
      </trkpt>
      <trkpt lat="41.25767393969" lon="-8.65713796578348">
        <ele>97</ele>
        <time>2021-03-20T01:31:50</time>
      </trkpt>
      <trkpt lat="41.2576389033347" lon="-8.65707149729133">
        <ele>97</ele>
        <time>2021-03-20T01:31:51</time>
      </trkpt>
      <trkpt lat="41.2576119136065" lon="-8.65701978094876">
        <ele>97</ele>
        <time>2021-03-20T01:31:52</time>
      </trkpt>
      <trkpt lat="41.2575771287084" lon="-8.65695297718048">
        <ele>97</ele>
        <time>2021-03-20T01:31:53</time>
      </trkpt>
      <trkpt lat="41.2575372308493" lon="-8.65688097663224">
        <ele>97.2</ele>
        <time>2021-03-20T01:31:54</time>
      </trkpt>
      <trkpt lat="41.2575041223317" lon="-8.65681551396847">
        <ele>97.2</ele>
        <time>2021-03-20T01:31:55</time>
      </trkpt>
      <trkpt lat="41.2574798986316" lon="-8.65676673129201">
        <ele>97.4</ele>
        <time>2021-03-20T01:31:56</time>
      </trkpt>
      <trkpt lat="41.2574436049908" lon="-8.65669975988567">
        <ele>97.4</ele>
        <time>2021-03-20T01:31:57</time>
      </trkpt>
      <trkpt lat="41.2574006896466" lon="-8.65662130527198">
        <ele>97.8</ele>
        <time>2021-03-20T01:31:58</time>
      </trkpt>
      <trkpt lat="41.2573782261461" lon="-8.65657126531005">
        <ele>98.2</ele>
        <time>2021-03-20T01:31:59</time>
      </trkpt>
      <trkpt lat="41.2573336344212" lon="-8.65648367442191">
        <ele>98.2</ele>
        <time>2021-03-20T01:32:00</time>
      </trkpt>
      <trkpt lat="41.2573115900159" lon="-8.6564376577735">
        <ele>98.2</ele>
        <time>2021-03-20T01:32:01</time>
      </trkpt>
      <trkpt lat="41.2572665791959" lon="-8.65635719150305">
        <ele>98.4</ele>
        <time>2021-03-20T01:32:02</time>
      </trkpt>
      <trkpt lat="41.2572242505848" lon="-8.6562783177942">
        <ele>98.6</ele>
        <time>2021-03-20T01:32:03</time>
      </trkpt>
      <trkpt lat="41.2571861967444" lon="-8.65620715543628">
        <ele>98.8</ele>
        <time>2021-03-20T01:32:04</time>
      </trkpt>
      <trkpt lat="41.2571462150663" lon="-8.65614051930606">
        <ele>98.8</ele>
        <time>2021-03-20T01:32:05</time>
      </trkpt>
      <trkpt lat="41.2571157049388" lon="-8.65609299391508">
        <ele>98.8</ele>
        <time>2021-03-20T01:32:06</time>
      </trkpt>
      <trkpt lat="41.2570782378316" lon="-8.65602719597518">
        <ele>98.8</ele>
        <time>2021-03-20T01:32:07</time>
      </trkpt>
      <trkpt lat="41.2570318859071" lon="-8.65594153292477">
        <ele>98.8</ele>
        <time>2021-03-20T01:32:08</time>
      </trkpt>
      <trkpt lat="41.2569915689528" lon="-8.65587028674781">
        <ele>99</ele>
        <time>2021-03-20T01:32:09</time>
      </trkpt>
      <trkpt lat="41.2569650821388" lon="-8.65581681020558">
        <ele>99</ele>
        <time>2021-03-20T01:32:10</time>
      </trkpt>
      <trkpt lat="41.2569443788379" lon="-8.65577515214682">
        <ele>99.2</ele>
        <time>2021-03-20T01:32:11</time>
      </trkpt>
      <trkpt lat="41.2569051515311" lon="-8.65570466034114">
        <ele>99.2</ele>
        <time>2021-03-20T01:32:12</time>
      </trkpt>
      <trkpt lat="41.2568617332727" lon="-8.65563601255417">
        <ele>99.2</ele>
        <time>2021-03-20T01:32:13</time>
      </trkpt>
      <trkpt lat="41.2568200752139" lon="-8.65557775832713">
        <ele>99.4</ele>
        <time>2021-03-20T01:32:14</time>
      </trkpt>
      <trkpt lat="41.2567966897041" lon="-8.65555169060826">
        <ele>99.6</ele>
        <time>2021-03-20T01:32:15</time>
      </trkpt>
      <trkpt lat="41.2567601446062" lon="-8.65551020018756">
        <ele>100</ele>
        <time>2021-03-20T01:32:16</time>
      </trkpt>
      <trkpt lat="41.2567178998142" lon="-8.65544431842864">
        <ele>100.2</ele>
        <time>2021-03-20T01:32:17</time>
      </trkpt>
      <trkpt lat="41.2566738948226" lon="-8.65538329817355">
        <ele>100.2</ele>
        <time>2021-03-20T01:32:18</time>
      </trkpt>
      <trkpt lat="41.25663257204" lon="-8.65532948635519">
        <ele>100.4</ele>
        <time>2021-03-20T01:32:19</time>
      </trkpt>
      <trkpt lat="41.2565838731825" lon="-8.65528330206871">
        <ele>100.4</ele>
        <time>2021-03-20T01:32:20</time>
      </trkpt>
      <trkpt lat="41.2565271276981" lon="-8.65521968342364">
        <ele>100.2</ele>
        <time>2021-03-20T01:32:21</time>
      </trkpt>
      <trkpt lat="41.2564973719418" lon="-8.65517970174551">
        <ele>100.2</ele>
        <time>2021-03-20T01:32:22</time>
      </trkpt>
      <trkpt lat="41.2564506009221" lon="-8.65512932650745">
        <ele>100.2</ele>
        <time>2021-03-20T01:32:23</time>
      </trkpt>
      <trkpt lat="41.2563961185515" lon="-8.65506378002465">
        <ele>100.2</ele>
        <time>2021-03-20T01:32:24</time>
      </trkpt>
      <trkpt lat="41.2563350982964" lon="-8.65499446168542">
        <ele>100.4</ele>
        <time>2021-03-20T01:32:25</time>
      </trkpt>
      <trkpt lat="41.256278436631" lon="-8.65494048222899">
        <ele>100.6</ele>
        <time>2021-03-20T01:32:26</time>
      </trkpt>
      <trkpt lat="41.2562381196767" lon="-8.65490117110312">
        <ele>100.6</ele>
        <time>2021-03-20T01:32:27</time>
      </trkpt>
      <trkpt lat="41.2561882473528" lon="-8.65485532209277">
        <ele>101</ele>
        <time>2021-03-20T01:32:28</time>
      </trkpt>
      <trkpt lat="41.2561407219619" lon="-8.65481777116656">
        <ele>101</ele>
        <time>2021-03-20T01:32:29</time>
      </trkpt>
      <trkpt lat="41.2560931127518" lon="-8.6547777056694">
        <ele>101.4</ele>
        <time>2021-03-20T01:32:30</time>
      </trkpt>
      <trkpt lat="41.2560416478664" lon="-8.65473772399128">
        <ele>101.6</ele>
        <time>2021-03-20T01:32:31</time>
      </trkpt>
      <trkpt lat="41.2559802085161" lon="-8.65470595657826">
        <ele>101.6</ele>
        <time>2021-03-20T01:32:32</time>
      </trkpt>
      <trkpt lat="41.2559334374964" lon="-8.65468231961131">
        <ele>101.6</ele>
        <time>2021-03-20T01:32:33</time>
      </trkpt>
      <trkpt lat="41.2558984011412" lon="-8.65467024967074">
        <ele>101.6</ele>
        <time>2021-03-20T01:32:34</time>
      </trkpt>
      <trkpt lat="41.2558494508266" lon="-8.65464468486607">
        <ele>101.6</ele>
        <time>2021-03-20T01:32:35</time>
      </trkpt>
      <trkpt lat="41.255792370066" lon="-8.65459950640798">
        <ele>101.6</ele>
        <time>2021-03-20T01:32:36</time>
      </trkpt>
      <trkpt lat="41.2557378876954" lon="-8.65458182059228">
        <ele>101.6</ele>
        <time>2021-03-20T01:32:37</time>
      </trkpt>
      <trkpt lat="41.2555906176567" lon="-8.65451317280531">
        <ele>101.6</ele>
        <time>2021-03-20T01:32:38</time>
      </trkpt>
      <trkpt lat="41.255541248247" lon="-8.65448232740164">
        <ele>101.8</ele>
        <time>2021-03-20T01:32:39</time>
      </trkpt>
      <trkpt lat="41.2554850894958" lon="-8.65444578230381">
        <ele>101.6</ele>
        <time>2021-03-20T01:32:40</time>
      </trkpt>
      <trkpt lat="41.2554271705449" lon="-8.65442072041333">
        <ele>101.6</ele>
        <time>2021-03-20T01:32:41</time>
      </trkpt>
      <trkpt lat="41.2553665693849" lon="-8.6543912999332">
        <ele>101.4</ele>
        <time>2021-03-20T01:32:42</time>
      </trkpt>
      <trkpt lat="41.2553073931485" lon="-8.654366992414">
        <ele>101.2</ele>
        <time>2021-03-20T01:32:43</time>
      </trkpt>
      <trkpt lat="41.2551709357649" lon="-8.65429549477994">
        <ele>101.2</ele>
        <time>2021-03-20T01:32:44</time>
      </trkpt>
      <trkpt lat="41.2551217339933" lon="-8.6542546749115">
        <ele>101.2</ele>
        <time>2021-03-20T01:32:45</time>
      </trkpt>
      <trkpt lat="41.2550384178758" lon="-8.65418376401067">
        <ele>101</ele>
        <time>2021-03-20T01:32:46</time>
      </trkpt>
      <trkpt lat="41.254975637421" lon="-8.6541183013469">
        <ele>101</ele>
        <time>2021-03-20T01:32:47</time>
      </trkpt>
      <trkpt lat="41.254898943007" lon="-8.65410329774022">
        <ele>101</ele>
        <time>2021-03-20T01:32:48</time>
      </trkpt>
      <trkpt lat="41.2548362463713" lon="-8.65408125333488">
        <ele>101</ele>
        <time>2021-03-20T01:32:49</time>
      </trkpt>
      <trkpt lat="41.2547681014985" lon="-8.6540506593883">
        <ele>101</ele>
        <time>2021-03-20T01:32:50</time>
      </trkpt>
      <trkpt lat="41.2546893954277" lon="-8.6540527548641">
        <ele>101</ele>
        <time>2021-03-20T01:32:51</time>
      </trkpt>
      <trkpt lat="41.2546011339873" lon="-8.65408301353454">
        <ele>101.2</ele>
        <time>2021-03-20T01:32:52</time>
      </trkpt>
      <trkpt lat="41.2545311450958" lon="-8.65408125333488">
        <ele>101.2</ele>
        <time>2021-03-20T01:32:53</time>
      </trkpt>
      <trkpt lat="41.2544754054397" lon="-8.65406180731952">
        <ele>101</ele>
        <time>2021-03-20T01:32:54</time>
      </trkpt>
      <trkpt lat="41.2544573843479" lon="-8.65404521115124">
        <ele>100.8</ele>
        <time>2021-03-20T01:32:55</time>
      </trkpt>
      <trkpt lat="41.254412708804" lon="-8.65398427471519">
        <ele>100.6</ele>
        <time>2021-03-20T01:32:56</time>
      </trkpt>
      <trkpt lat="41.2543661892414" lon="-8.65391596220434">
        <ele>100.4</ele>
        <time>2021-03-20T01:32:57</time>
      </trkpt>
      <trkpt lat="41.2543521076441" lon="-8.65388746373355">
        <ele>100</ele>
        <time>2021-03-20T01:32:58</time>
      </trkpt>
      <trkpt lat="41.2543354276568" lon="-8.65384194999933">
        <ele>99.8</ele>
        <time>2021-03-20T01:32:59</time>
      </trkpt>
      <trkpt lat="41.2542833760381" lon="-8.65377321839333">
        <ele>99.6</ele>
        <time>2021-03-20T01:33:00</time>
      </trkpt>
      <trkpt lat="41.2542379461229" lon="-8.6537004634738">
        <ele>99.4</ele>
        <time>2021-03-20T01:33:01</time>
      </trkpt>
      <trkpt lat="41.2542050890624" lon="-8.65370465442538">
        <ele>99</ele>
        <time>2021-03-20T01:33:02</time>
      </trkpt>
      <trkpt lat="41.254150941968" lon="-8.65364279597998">
        <ele>98.6</ele>
        <time>2021-03-20T01:33:03</time>
      </trkpt>
      <trkpt lat="41.2541224434972" lon="-8.65361832082272">
        <ele>98.6</ele>
        <time>2021-03-20T01:33:04</time>
      </trkpt>
      <trkpt lat="41.2540711462498" lon="-8.65358219482005">
        <ele>98.2</ele>
        <time>2021-03-20T01:33:05</time>
      </trkpt>
      <trkpt lat="41.2540304102004" lon="-8.6535535287112">
        <ele>98</ele>
        <time>2021-03-20T01:33:06</time>
      </trkpt>
      <trkpt lat="41.2539651989937" lon="-8.65349519066513">
        <ele>98</ele>
        <time>2021-03-20T01:33:07</time>
      </trkpt>
      <trkpt lat="41.2539171706885" lon="-8.65345881320536">
        <ele>97.8</ele>
        <time>2021-03-20T01:33:08</time>
      </trkpt>
      <trkpt lat="41.2538585811853" lon="-8.65340081043541">
        <ele>97.2</ele>
        <time>2021-03-20T01:33:09</time>
      </trkpt>
      <trkpt lat="41.2538169231266" lon="-8.65335722453892">
        <ele>97.2</ele>
        <time>2021-03-20T01:33:10</time>
      </trkpt>
      <trkpt lat="41.2537636142224" lon="-8.65331430919468">
        <ele>97</ele>
        <time>2021-03-20T01:33:11</time>
      </trkpt>
      <trkpt lat="41.2537103891373" lon="-8.65326577797532">
        <ele>96.4</ele>
        <time>2021-03-20T01:33:12</time>
      </trkpt>
      <trkpt lat="41.2536702398211" lon="-8.65322914905846">
        <ele>96.2</ele>
        <time>2021-03-20T01:33:13</time>
      </trkpt>
      <trkpt lat="41.253614667803" lon="-8.6531787738204">
        <ele>95.8</ele>
        <time>2021-03-20T01:33:14</time>
      </trkpt>
      <trkpt lat="41.2535549048334" lon="-8.65312420763075">
        <ele>95.6</ele>
        <time>2021-03-20T01:33:15</time>
      </trkpt>
      <trkpt lat="41.2535039428622" lon="-8.65307726897299">
        <ele>95.4</ele>
        <time>2021-03-20T01:33:16</time>
      </trkpt>
      <trkpt lat="41.2534596864134" lon="-8.65303720347583">
        <ele>95.4</ele>
        <time>2021-03-20T01:33:17</time>
      </trkpt>
      <trkpt lat="41.2534026894718" lon="-8.65299152210355">
        <ele>95</ele>
        <time>2021-03-20T01:33:18</time>
      </trkpt>
      <trkpt lat="41.2533459439874" lon="-8.65294517017901">
        <ele>94.6</ele>
        <time>2021-03-20T01:33:19</time>
      </trkpt>
      <trkpt lat="41.2532907072455" lon="-8.65289881825447">
        <ele>94.4</ele>
        <time>2021-03-20T01:33:20</time>
      </trkpt>
      <trkpt lat="41.2532476242632" lon="-8.65285045467317">
        <ele>93.8</ele>
        <time>2021-03-20T01:33:21</time>
      </trkpt>
      <trkpt lat="41.2532124202698" lon="-8.65280921570957">
        <ele>93.4</ele>
        <time>2021-03-20T01:33:22</time>
      </trkpt>
      <trkpt lat="41.253165230155" lon="-8.65277250297368">
        <ele>93</ele>
        <time>2021-03-20T01:33:23</time>
      </trkpt>
      <trkpt lat="41.2531021982431" lon="-8.65271802060306">
        <ele>92.6</ele>
        <time>2021-03-20T01:33:24</time>
      </trkpt>
      <trkpt lat="41.2530446983874" lon="-8.65267175249755">
        <ele>92.6</ele>
        <time>2021-03-20T01:33:25</time>
      </trkpt>
      <trkpt lat="41.2529831752181" lon="-8.65261525847018">
        <ele>92.4</ele>
        <time>2021-03-20T01:33:26</time>
      </trkpt>
      <trkpt lat="41.2529436126351" lon="-8.6525814794004">
        <ele>92</ele>
        <time>2021-03-20T01:33:27</time>
      </trkpt>
      <trkpt lat="41.2528809159994" lon="-8.65252800285816">
        <ele>92.2</ele>
        <time>2021-03-20T01:33:28</time>
      </trkpt>
      <trkpt lat="41.2528178840876" lon="-8.65246865898371">
        <ele>92.2</ele>
        <time>2021-03-20T01:33:29</time>
      </trkpt>
      <trkpt lat="41.2527473922819" lon="-8.65241115912795">
        <ele>92.2</ele>
        <time>2021-03-20T01:33:30</time>
      </trkpt>
      <trkpt lat="41.2526741344482" lon="-8.65234779193997">
        <ele>92</ele>
        <time>2021-03-20T01:33:31</time>
      </trkpt>
      <trkpt lat="41.2526111025363" lon="-8.65228652022779">
        <ele>91.6</ele>
        <time>2021-03-20T01:33:32</time>
      </trkpt>
      <trkpt lat="41.2525438796729" lon="-8.65223220549524">
        <ele>91.6</ele>
        <time>2021-03-20T01:33:33</time>
      </trkpt>
      <trkpt lat="41.252480680123" lon="-8.65217428654432">
        <ele>91.4</ele>
        <time>2021-03-20T01:33:34</time>
      </trkpt>
      <trkpt lat="41.2524189054966" lon="-8.65212265402079">
        <ele>91.6</ele>
        <time>2021-03-20T01:33:35</time>
      </trkpt>
      <trkpt lat="41.2523462343961" lon="-8.65206020884216">
        <ele>91.6</ele>
        <time>2021-03-20T01:33:36</time>
      </trkpt>
      <trkpt lat="41.2522785924375" lon="-8.65199818275869">
        <ele>91.6</ele>
        <time>2021-03-20T01:33:37</time>
      </trkpt>
      <trkpt lat="41.2522141356021" lon="-8.65193774923682">
        <ele>91.6</ele>
        <time>2021-03-20T01:33:38</time>
      </trkpt>
      <trkpt lat="41.2521386984736" lon="-8.65186868235469">
        <ele>91.4</ele>
        <time>2021-03-20T01:33:39</time>
      </trkpt>
      <trkpt lat="41.2520730681717" lon="-8.65180875174701">
        <ele>91.4</ele>
        <time>2021-03-20T01:33:40</time>
      </trkpt>
      <trkpt lat="41.251997128129" lon="-8.65174278616905">
        <ele>92</ele>
        <time>2021-03-20T01:33:41</time>
      </trkpt>
      <trkpt lat="41.251928396523" lon="-8.65168830379844">
        <ele>92.2</ele>
        <time>2021-03-20T01:33:42</time>
      </trkpt>
      <trkpt lat="41.2518521212041" lon="-8.65161471068859">
        <ele>92.2</ele>
        <time>2021-03-20T01:33:43</time>
      </trkpt>
      <trkpt lat="41.2517791986465" lon="-8.65155679173768">
        <ele>92.4</ele>
        <time>2021-03-20T01:33:44</time>
      </trkpt>
      <trkpt lat="41.2517081201076" lon="-8.65149099379778">
        <ele>92.4</ele>
        <time>2021-03-20T01:33:45</time>
      </trkpt>
      <trkpt lat="41.2516314256936" lon="-8.6514207534492">
        <ele>92.8</ele>
        <time>2021-03-20T01:33:46</time>
      </trkpt>
      <trkpt lat="41.2515606824309" lon="-8.65135830827057">
        <ele>93</ele>
        <time>2021-03-20T01:33:47</time>
      </trkpt>
      <trkpt lat="41.2514938786626" lon="-8.6512912530452">
        <ele>93</ele>
        <time>2021-03-20T01:33:48</time>
      </trkpt>
      <trkpt lat="41.2514191120863" lon="-8.65122981369496">
        <ele>92.8</ele>
        <time>2021-03-20T01:33:49</time>
      </trkpt>
      <trkpt lat="41.251344429329" lon="-8.65116267465055">
        <ele>93</ele>
        <time>2021-03-20T01:33:50</time>
      </trkpt>
      <trkpt lat="41.2512684054673" lon="-8.65109997801483">
        <ele>93</ele>
        <time>2021-03-20T01:33:51</time>
      </trkpt>
      <trkpt lat="41.2511896155775" lon="-8.65102395415306">
        <ele>92.6</ele>
        <time>2021-03-20T01:33:52</time>
      </trkpt>
      <trkpt lat="41.2511166092008" lon="-8.65096016786992">
        <ele>92.6</ele>
        <time>2021-03-20T01:33:53</time>
      </trkpt>
      <trkpt lat="41.2510402500629" lon="-8.65087249316275">
        <ele>92.8</ele>
        <time>2021-03-20T01:33:54</time>
      </trkpt>
      <trkpt lat="41.2509503960609" lon="-8.65078582428396">
        <ele>92.6</ele>
        <time>2021-03-20T01:33:55</time>
      </trkpt>
      <trkpt lat="41.250858111307" lon="-8.65070351399481">
        <ele>92.6</ele>
        <time>2021-03-20T01:33:56</time>
      </trkpt>
      <trkpt lat="41.2507726997137" lon="-8.65062598139048">
        <ele>92.6</ele>
        <time>2021-03-20T01:33:57</time>
      </trkpt>
      <trkpt lat="41.2506816722453" lon="-8.65054769441486">
        <ele>92.6</ele>
        <time>2021-03-20T01:33:58</time>
      </trkpt>
      <trkpt lat="41.2505925726146" lon="-8.65047502331436">
        <ele>92.6</ele>
        <time>2021-03-20T01:33:59</time>
      </trkpt>
      <trkpt lat="41.250517135486" lon="-8.65040402859449">
        <ele>92.4</ele>
        <time>2021-03-20T01:34:00</time>
      </trkpt>
      <trkpt lat="41.2504411116242" lon="-8.65032968111336">
        <ele>92</ele>
        <time>2021-03-20T01:34:01</time>
      </trkpt>
      <trkpt lat="41.2503396067768" lon="-8.65024745464325">
        <ele>92.2</ele>
        <time>2021-03-20T01:34:02</time>
      </trkpt>
      <trkpt lat="41.2502676900476" lon="-8.65018350072205">
        <ele>92.4</ele>
        <time>2021-03-20T01:34:03</time>
      </trkpt>
      <trkpt lat="41.2501837033778" lon="-8.65012222900987">
        <ele>92.2</ele>
        <time>2021-03-20T01:34:04</time>
      </trkpt>
      <trkpt lat="41.2500951904804" lon="-8.65006749518216">
        <ele>92</ele>
        <time>2021-03-20T01:34:05</time>
      </trkpt>
      <trkpt lat="41.2500045821071" lon="-8.65001569502056">
        <ele>91.6</ele>
        <time>2021-03-20T01:34:06</time>
      </trkpt>
      <trkpt lat="41.2499169073999" lon="-8.6499632243067">
        <ele>91.4</ele>
        <time>2021-03-20T01:34:07</time>
      </trkpt>
      <trkpt lat="41.2498330883682" lon="-8.64990966394544">
        <ele>91.2</ele>
        <time>2021-03-20T01:34:08</time>
      </trkpt>
      <trkpt lat="41.2497523706406" lon="-8.64985752850771">
        <ele>91.4</ele>
        <time>2021-03-20T01:34:09</time>
      </trkpt>
      <trkpt lat="41.2496626842767" lon="-8.64981201477349">
        <ele>91.2</ele>
        <time>2021-03-20T01:34:10</time>
      </trkpt>
      <trkpt lat="41.2495648674667" lon="-8.64974831230938">
        <ele>91</ele>
        <time>2021-03-20T01:34:11</time>
      </trkpt>
      <trkpt lat="41.2494874186814" lon="-8.64970095455646">
        <ele>90.8</ele>
        <time>2021-03-20T01:34:12</time>
      </trkpt>
      <trkpt lat="41.2493923678994" lon="-8.64964722655714">
        <ele>90.4</ele>
        <time>2021-03-20T01:34:13</time>
      </trkpt>
      <trkpt lat="41.2493112310767" lon="-8.64960632286966">
        <ele>90.2</ele>
        <time>2021-03-20T01:34:14</time>
      </trkpt>
      <trkpt lat="41.2492341175675" lon="-8.64956650882959">
        <ele>90</ele>
        <time>2021-03-20T01:34:15</time>
      </trkpt>
      <trkpt lat="41.2491702474654" lon="-8.64953122101724">
        <ele>89.8</ele>
        <time>2021-03-20T01:34:16</time>
      </trkpt>
      <trkpt lat="41.249095145613" lon="-8.6494867131114">
        <ele>89.6</ele>
        <time>2021-03-20T01:34:17</time>
      </trkpt>
      <trkpt lat="41.2490284256637" lon="-8.64945217967034">
        <ele>89.2</ele>
        <time>2021-03-20T01:34:18</time>
      </trkpt>
      <trkpt lat="41.2489429302514" lon="-8.64940515719354">
        <ele>88.8</ele>
        <time>2021-03-20T01:34:19</time>
      </trkpt>
      <trkpt lat="41.2488690856844" lon="-8.64937699399888">
        <ele>88.4</ele>
        <time>2021-03-20T01:34:20</time>
      </trkpt>
      <trkpt lat="41.2487897090614" lon="-8.6493432149291">
        <ele>88.2</ele>
        <time>2021-03-20T01:34:21</time>
      </trkpt>
      <trkpt lat="41.2487071473151" lon="-8.64931480027735">
        <ele>88</ele>
        <time>2021-03-20T01:34:22</time>
      </trkpt>
      <trkpt lat="41.2486202269793" lon="-8.64928429014981">
        <ele>87.6</ele>
        <time>2021-03-20T01:34:23</time>
      </trkpt>
      <trkpt lat="41.248550741002" lon="-8.64926702342928">
        <ele>87.2</ele>
        <time>2021-03-20T01:34:24</time>
      </trkpt>
      <trkpt lat="41.2484805844724" lon="-8.6492414586246">
        <ele>87.2</ele>
        <time>2021-03-20T01:34:25</time>
      </trkpt>
      <trkpt lat="41.2484157085419" lon="-8.64921664819121">
        <ele>87.2</ele>
        <time>2021-03-20T01:34:26</time>
      </trkpt>
      <trkpt lat="41.2483365833759" lon="-8.64919368177652">
        <ele>86.8</ele>
        <time>2021-03-20T01:34:27</time>
      </trkpt>
      <trkpt lat="41.2482676841319" lon="-8.64917666651309">
        <ele>86.6</ele>
        <time>2021-03-20T01:34:28</time>
      </trkpt>
      <trkpt lat="41.2481931690127" lon="-8.64916048943996">
        <ele>86.4</ele>
        <time>2021-03-20T01:34:29</time>
      </trkpt>
      <trkpt lat="41.2481157202274" lon="-8.6491346731782">
        <ele>86.4</ele>
        <time>2021-03-20T01:34:30</time>
      </trkpt>
      <trkpt lat="41.2480515986681" lon="-8.64911665208638">
        <ele>86.2</ele>
        <time>2021-03-20T01:34:31</time>
      </trkpt>
      <trkpt lat="41.2479824479669" lon="-8.64910433068872">
        <ele>86</ele>
        <time>2021-03-20T01:34:32</time>
      </trkpt>
      <trkpt lat="41.2479200866073" lon="-8.64909351803362">
        <ele>85.8</ele>
        <time>2021-03-20T01:34:33</time>
      </trkpt>
      <trkpt lat="41.2478484213352" lon="-8.6490807775408">
        <ele>85.8</ele>
        <time>2021-03-20T01:34:34</time>
      </trkpt>
      <trkpt lat="41.2477983813733" lon="-8.6490651872009">
        <ele>85.8</ele>
        <time>2021-03-20T01:34:35</time>
      </trkpt>
      <trkpt lat="41.2477271351963" lon="-8.64905077032745">
        <ele>85.6</ele>
        <time>2021-03-20T01:34:36</time>
      </trkpt>
      <trkpt lat="41.2476624269038" lon="-8.64902872592211">
        <ele>85.6</ele>
        <time>2021-03-20T01:34:37</time>
      </trkpt>
      <trkpt lat="41.2475926056504" lon="-8.64902528934181">
        <ele>85.4</ele>
        <time>2021-03-20T01:34:38</time>
      </trkpt>
      <trkpt lat="41.2475266400725" lon="-8.6490207631141">
        <ele>85.4</ele>
        <time>2021-03-20T01:34:39</time>
      </trkpt>
      <trkpt lat="41.2474527116865" lon="-8.64900098182261">
        <ele>85.6</ele>
        <time>2021-03-20T01:34:40</time>
      </trkpt>
      <trkpt lat="41.2473741732538" lon="-8.64898329600692">
        <ele>85.8</ele>
        <time>2021-03-20T01:34:41</time>
      </trkpt>
      <trkpt lat="41.2473036814481" lon="-8.64896980114281">
        <ele>85.6</ele>
        <time>2021-03-20T01:34:42</time>
      </trkpt>
      <trkpt lat="41.2472341954708" lon="-8.64895630627871">
        <ele>85.6</ele>
        <time>2021-03-20T01:34:43</time>
      </trkpt>
      <trkpt lat="41.2471616081893" lon="-8.648941218853">
        <ele>85.6</ele>
        <time>2021-03-20T01:34:44</time>
      </trkpt>
      <trkpt lat="41.247092122212" lon="-8.64892797544599">
        <ele>85.6</ele>
        <time>2021-03-20T01:34:45</time>
      </trkpt>
      <trkpt lat="41.2470122426748" lon="-8.64889981225133">
        <ele>85.4</ele>
        <time>2021-03-20T01:34:46</time>
      </trkpt>
      <trkpt lat="41.2469392362982" lon="-8.64888371899724">
        <ele>85</ele>
        <time>2021-03-20T01:34:47</time>
      </trkpt>
      <trkpt lat="41.2468667328358" lon="-8.64886217750609">
        <ele>84.8</ele>
        <time>2021-03-20T01:34:48</time>
      </trkpt>
      <trkpt lat="41.246793223545" lon="-8.64884432405234">
        <ele>85</ele>
        <time>2021-03-20T01:34:49</time>
      </trkpt>
      <trkpt lat="41.2467222288251" lon="-8.64883694797754">
        <ele>85.2</ele>
        <time>2021-03-20T01:34:50</time>
      </trkpt>
      <trkpt lat="41.2466409243643" lon="-8.64881875924766">
        <ele>84.8</ele>
        <time>2021-03-20T01:34:51</time>
      </trkpt>
      <trkpt lat="41.2465616315603" lon="-8.64880467765033">
        <ele>84.8</ele>
        <time>2021-03-20T01:34:52</time>
      </trkpt>
      <trkpt lat="41.2464757170528" lon="-8.64878850057721">
        <ele>84.6</ele>
        <time>2021-03-20T01:34:53</time>
      </trkpt>
      <trkpt lat="41.2463955860585" lon="-8.64877349697054">
        <ele>84.4</ele>
        <time>2021-03-20T01:34:54</time>
      </trkpt>
      <trkpt lat="41.2462984398007" lon="-8.64874726161361">
        <ele>84.2</ele>
        <time>2021-03-20T01:34:55</time>
      </trkpt>
      <trkpt lat="41.246235743165" lon="-8.64873644895852">
        <ele>83.8</ele>
        <time>2021-03-20T01:34:56</time>
      </trkpt>
      <trkpt lat="41.2461551930755" lon="-8.64872647449374">
        <ele>83.2</ele>
        <time>2021-03-20T01:34:57</time>
      </trkpt>
      <trkpt lat="41.2460671830922" lon="-8.64871247671544">
        <ele>83.4</ele>
        <time>2021-03-20T01:34:58</time>
      </trkpt>
      <trkpt lat="41.2459826935083" lon="-8.64870669320226">
        <ele>82.8</ele>
        <time>2021-03-20T01:34:59</time>
      </trkpt>
      <trkpt lat="41.2459076754749" lon="-8.64869629964232">
        <ele>82.4</ele>
        <time>2021-03-20T01:35:00</time>
      </trkpt>
      <trkpt lat="41.245847074315" lon="-8.64870082587004">
        <ele>82.2</ele>
        <time>2021-03-20T01:35:01</time>
      </trkpt>
      <trkpt lat="41.245775911957" lon="-8.64868045784533">
        <ele>81.6</ele>
        <time>2021-03-20T01:35:02</time>
      </trkpt>
      <trkpt lat="41.2457273807377" lon="-8.64868121221662">
        <ele>81</ele>
        <time>2021-03-20T01:35:03</time>
      </trkpt>
      <trkpt lat="41.2456961162388" lon="-8.64868900738656">
        <ele>80.8</ele>
        <time>2021-03-20T01:35:04</time>
      </trkpt>
      <trkpt lat="41.2456528656185" lon="-8.64866998046636">
        <ele>80.6</ele>
        <time>2021-03-20T01:35:05</time>
      </trkpt>
      <trkpt lat="41.2456307373941" lon="-8.64866872318089">
        <ele>80.2</ele>
        <time>2021-03-20T01:35:06</time>
      </trkpt>
      <trkpt lat="41.2456074357033" lon="-8.64865547977388">
        <ele>79.4</ele>
        <time>2021-03-20T01:35:07</time>
      </trkpt>
      <trkpt lat="41.2455900851637" lon="-8.64865547977388">
        <ele>79</ele>
        <time>2021-03-20T01:35:08</time>
      </trkpt>
      <trkpt lat="41.2455764226615" lon="-8.64865564741194">
        <ele>78.6</ele>
        <time>2021-03-20T01:35:09</time>
      </trkpt>
      <trkpt lat="41.2455578986555" lon="-8.6486460082233">
        <ele>78.2</ele>
        <time>2021-03-20T01:35:10</time>
      </trkpt>
      <trkpt lat="41.2455480918288" lon="-8.64863452501595">
        <ele>78.2</ele>
        <time>2021-03-20T01:35:11</time>
      </trkpt>
      <trkpt lat="41.2455447390676" lon="-8.648637291044">
        <ele>78</ele>
        <time>2021-03-20T01:35:12</time>
      </trkpt>
      <trkpt lat="41.2455435656011" lon="-8.648632010445">
        <ele>78</ele>
        <time>2021-03-20T01:35:13</time>
      </trkpt>
      <trkpt lat="41.2455516122282" lon="-8.64863418973982">
        <ele>77.8</ele>
        <time>2021-03-20T01:35:14</time>
      </trkpt>
      <trkpt lat="41.245548678562" lon="-8.64863217808306">
        <ele>78</ele>
        <time>2021-03-20T01:35:15</time>
      </trkpt>
      <trkpt lat="41.2455479241908" lon="-8.6486269813031">
        <ele>77.8</ele>
        <time>2021-03-20T01:35:16</time>
      </trkpt>
      <trkpt lat="41.2455359380692" lon="-8.64862103015184">
        <ele>77.4</ele>
        <time>2021-03-20T01:35:17</time>
      </trkpt>
      <trkpt lat="41.2455292325467" lon="-8.64862396381796">
        <ele>77.8</ele>
        <time>2021-03-20T01:35:18</time>
      </trkpt>
      <trkpt lat="41.245503667742" lon="-8.64861876703799">
        <ele>77.6</ele>
        <time>2021-03-20T01:35:19</time>
      </trkpt>
      <trkpt lat="41.2454732414335" lon="-8.64861030131578">
        <ele>77</ele>
        <time>2021-03-20T01:35:20</time>
      </trkpt>
      <trkpt lat="41.2454417254776" lon="-8.64860828965902">
        <ele>77</ele>
        <time>2021-03-20T01:35:21</time>
      </trkpt>
      <trkpt lat="41.2454098742455" lon="-8.64860518835485">
        <ele>76.8</ele>
        <time>2021-03-20T01:35:22</time>
      </trkpt>
      <trkpt lat="41.2453751731664" lon="-8.64859152585268">
        <ele>76.4</ele>
        <time>2021-03-20T01:35:23</time>
      </trkpt>
      <trkpt lat="41.2453314196318" lon="-8.64857476204634">
        <ele>75.6</ele>
        <time>2021-03-20T01:35:24</time>
      </trkpt>
      <trkpt lat="41.2452870793641" lon="-8.64856570959091">
        <ele>75.2</ele>
        <time>2021-03-20T01:35:25</time>
      </trkpt>
      <trkpt lat="41.2452378775924" lon="-8.64856000989676">
        <ele>74.8</ele>
        <time>2021-03-20T01:35:26</time>
      </trkpt>
      <trkpt lat="41.2451821379364" lon="-8.64854550920427">
        <ele>74.6</ele>
        <time>2021-03-20T01:35:27</time>
      </trkpt>
      <trkpt lat="41.2451166752726" lon="-8.64854115061462">
        <ele>74.4</ele>
        <time>2021-03-20T01:35:28</time>
      </trkpt>
      <trkpt lat="41.245054230094" lon="-8.64853922277689">
        <ele>74.6</ele>
        <time>2021-03-20T01:35:29</time>
      </trkpt>
      <trkpt lat="41.2449852470309" lon="-8.64852447062731">
        <ele>74</ele>
        <time>2021-03-20T01:35:30</time>
      </trkpt>
      <trkpt lat="41.2449144199491" lon="-8.6485162563622">
        <ele>73.8</ele>
        <time>2021-03-20T01:35:31</time>
      </trkpt>
      <trkpt lat="41.244834875688" lon="-8.64850418642163">
        <ele>73.8</ele>
        <time>2021-03-20T01:35:32</time>
      </trkpt>
      <trkpt lat="41.2447539065033" lon="-8.64848298020661">
        <ele>73.6</ele>
        <time>2021-03-20T01:35:33</time>
      </trkpt>
      <trkpt lat="41.2446756195277" lon="-8.64847149699926">
        <ele>73.2</ele>
        <time>2021-03-20T01:35:34</time>
      </trkpt>
      <trkpt lat="41.244597081095" lon="-8.64845565520227">
        <ele>73</ele>
        <time>2021-03-20T01:35:35</time>
      </trkpt>
      <trkpt lat="41.2445154413581" lon="-8.64844266325235">
        <ele>72.8</ele>
        <time>2021-03-20T01:35:36</time>
      </trkpt>
      <trkpt lat="41.2444234080613" lon="-8.64844132214785">
        <ele>72.6</ele>
        <time>2021-03-20T01:35:37</time>
      </trkpt>
      <trkpt lat="41.2443316262215" lon="-8.64844324998558">
        <ele>72.4</ele>
        <time>2021-03-20T01:35:38</time>
      </trkpt>
      <trkpt lat="41.2442421913147" lon="-8.64845280535519">
        <ele>72.2</ele>
        <time>2021-03-20T01:35:39</time>
      </trkpt>
      <trkpt lat="41.2441482301801" lon="-8.64846881479025">
        <ele>71.8</ele>
        <time>2021-03-20T01:35:40</time>
      </trkpt>
      <trkpt lat="41.2440504133701" lon="-8.64848499186337">
        <ele>71.2</ele>
        <time>2021-03-20T01:35:41</time>
      </trkpt>
      <trkpt lat="41.2439619004726" lon="-8.64852120168507">
        <ele>70.8</ele>
        <time>2021-03-20T01:35:42</time>
      </trkpt>
      <trkpt lat="41.2438843678683" lon="-8.64858448505402">
        <ele>70.2</ele>
        <time>2021-03-20T01:35:43</time>
      </trkpt>
      <trkpt lat="41.2438224256039" lon="-8.64866629242897">
        <ele>69.8</ele>
        <time>2021-03-20T01:35:44</time>
      </trkpt>
      <trkpt lat="41.2437696196139" lon="-8.64874818362296">
        <ele>69.8</ele>
        <time>2021-03-20T01:35:45</time>
      </trkpt>
      <trkpt lat="41.2437094375491" lon="-8.64882269874215">
        <ele>69.6</ele>
        <time>2021-03-20T01:35:46</time>
      </trkpt>
      <trkpt lat="41.243640370667" lon="-8.64888698793948">
        <ele>69.6</ele>
        <time>2021-03-20T01:35:47</time>
      </trkpt>
      <trkpt lat="41.2435669451952" lon="-8.64893032237887">
        <ele>69.8</ele>
        <time>2021-03-20T01:35:48</time>
      </trkpt>
      <trkpt lat="41.2434915918857" lon="-8.64894700236619">
        <ele>69.8</ele>
        <time>2021-03-20T01:35:49</time>
      </trkpt>
      <trkpt lat="41.2434146460146" lon="-8.64893149584532">
        <ele>69.8</ele>
        <time>2021-03-20T01:35:50</time>
      </trkpt>
      <trkpt lat="41.2433479260653" lon="-8.64890182390809">
        <ele>69.4</ele>
        <time>2021-03-20T01:35:51</time>
      </trkpt>
      <trkpt lat="41.2432776857168" lon="-8.64884574897587">
        <ele>68.6</ele>
        <time>2021-03-20T01:35:52</time>
      </trkpt>
      <trkpt lat="41.2432030867785" lon="-8.64882898516953">
        <ele>68.2</ele>
        <time>2021-03-20T01:35:53</time>
      </trkpt>
      <trkpt lat="41.2431241292506" lon="-8.64881917834282">
        <ele>67.4</ele>
        <time>2021-03-20T01:35:54</time>
      </trkpt>
      <trkpt lat="41.2430412322283" lon="-8.64881297573447">
        <ele>66.8</ele>
        <time>2021-03-20T01:35:55</time>
      </trkpt>
      <trkpt lat="41.2429550662637" lon="-8.64879118278623">
        <ele>66</ele>
        <time>2021-03-20T01:35:56</time>
      </trkpt>
      <trkpt lat="41.2428746838123" lon="-8.64876930601895">
        <ele>65.4</ele>
        <time>2021-03-20T01:35:57</time>
      </trkpt>
      <trkpt lat="41.2427917029709" lon="-8.64872965961695">
        <ele>64.4</ele>
        <time>2021-03-20T01:35:58</time>
      </trkpt>
      <trkpt lat="41.2427151761949" lon="-8.64868825301528">
        <ele>63.6</ele>
        <time>2021-03-20T01:35:59</time>
      </trkpt>
      <trkpt lat="41.2426286749542" lon="-8.64864198490977">
        <ele>62</ele>
        <time>2021-03-20T01:36:00</time>
      </trkpt>
      <trkpt lat="41.2425406649709" lon="-8.64860367961228">
        <ele>60</ele>
        <time>2021-03-20T01:36:01</time>
      </trkpt>
      <trkpt lat="41.242451230064" lon="-8.64857199601829">
        <ele>59</ele>
        <time>2021-03-20T01:36:02</time>
      </trkpt>
      <trkpt lat="41.2423670757562" lon="-8.64856202155352">
        <ele>57.2</ele>
        <time>2021-03-20T01:36:03</time>
      </trkpt>
      <trkpt lat="41.2422831729054" lon="-8.6485524661839">
        <ele>56</ele>
        <time>2021-03-20T01:36:04</time>
      </trkpt>
      <trkpt lat="41.2421970907599" lon="-8.64856394939124">
        <ele>54.4</ele>
        <time>2021-03-20T01:36:05</time>
      </trkpt>
      <trkpt lat="41.2421079073101" lon="-8.64857895299792">
        <ele>53.6</ele>
        <time>2021-03-20T01:36:06</time>
      </trkpt>
      <trkpt lat="41.2420147005469" lon="-8.64859177730978">
        <ele>52.4</ele>
        <time>2021-03-20T01:36:07</time>
      </trkpt>
      <trkpt lat="41.2419187277555" lon="-8.64860778674483">
        <ele>51.6</ele>
        <time>2021-03-20T01:36:08</time>
      </trkpt>
      <trkpt lat="41.2418244313449" lon="-8.64862572401762">
        <ele>50.8</ele>
        <time>2021-03-20T01:36:09</time>
      </trkpt>
      <trkpt lat="41.2417292129248" lon="-8.6486423201859">
        <ele>50</ele>
        <time>2021-03-20T01:36:10</time>
      </trkpt>
      <trkpt lat="41.2416573800147" lon="-8.64866017363966">
        <ele>49.4</ele>
        <time>2021-03-20T01:36:11</time>
      </trkpt>
      <trkpt lat="41.2415491696447" lon="-8.64870828576386">
        <ele>49</ele>
        <time>2021-03-20T01:36:12</time>
      </trkpt>
      <trkpt lat="41.2414639256895" lon="-8.64875799044967">
        <ele>48.2</ele>
        <time>2021-03-20T01:36:13</time>
      </trkpt>
      <trkpt lat="41.2413776759058" lon="-8.64881046116352">
        <ele>47.4</ele>
        <time>2021-03-20T01:36:14</time>
      </trkpt>
      <trkpt lat="41.2412874028087" lon="-8.6488579865545">
        <ele>47</ele>
        <time>2021-03-20T01:36:15</time>
      </trkpt>
      <trkpt lat="41.2411998957396" lon="-8.64888346754014">
        <ele>46.6</ele>
        <time>2021-03-20T01:36:16</time>
      </trkpt>
      <trkpt lat="41.2411204352975" lon="-8.64887868985534">
        <ele>46</ele>
        <time>2021-03-20T01:36:17</time>
      </trkpt>
      <trkpt lat="41.2410366162658" lon="-8.64884097129106">
        <ele>45.4</ele>
        <time>2021-03-20T01:36:18</time>
      </trkpt>
      <trkpt lat="41.2409801222384" lon="-8.64878498017788">
        <ele>45</ele>
        <time>2021-03-20T01:36:19</time>
      </trkpt>
      <trkpt lat="41.240910384804" lon="-8.64872965961695">
        <ele>44.2</ele>
        <time>2021-03-20T01:36:20</time>
      </trkpt>
      <trkpt lat="41.2408405635506" lon="-8.64867777563632">
        <ele>43.8</ele>
        <time>2021-03-20T01:36:21</time>
      </trkpt>
      <trkpt lat="41.2407600972801" lon="-8.6486180126667">
        <ele>43</ele>
        <time>2021-03-20T01:36:22</time>
      </trkpt>
      <trkpt lat="41.24068566598" lon="-8.64857316948474">
        <ele>42.4</ele>
        <time>2021-03-20T01:36:23</time>
      </trkpt>
      <trkpt lat="41.2406058702618" lon="-8.64852078258991">
        <ele>41.8</ele>
        <time>2021-03-20T01:36:24</time>
      </trkpt>
      <trkpt lat="41.2405208777636" lon="-8.6484591756016">
        <ele>41</ele>
        <time>2021-03-20T01:36:25</time>
      </trkpt>
      <trkpt lat="41.2404301855713" lon="-8.64839832298458">
        <ele>40.2</ele>
        <time>2021-03-20T01:36:26</time>
      </trkpt>
      <trkpt lat="41.2403380684555" lon="-8.64833830855787">
        <ele>39.8</ele>
        <time>2021-03-20T01:36:27</time>
      </trkpt>
      <trkpt lat="41.2402456160635" lon="-8.64827821031213">
        <ele>39.2</ele>
        <time>2021-03-20T01:36:28</time>
      </trkpt>
      <trkpt lat="41.2401382438838" lon="-8.64822498522699">
        <ele>39.4</ele>
        <time>2021-03-20T01:36:29</time>
      </trkpt>
      <trkpt lat="41.2400255911052" lon="-8.64819045178592">
        <ele>39.4</ele>
        <time>2021-03-20T01:36:30</time>
      </trkpt>
      <trkpt lat="41.2399095855653" lon="-8.64817201159894">
        <ele>39.4</ele>
        <time>2021-03-20T01:36:31</time>
      </trkpt>
      <trkpt lat="41.2397867068648" lon="-8.6481602769345">
        <ele>39.4</ele>
        <time>2021-03-20T01:36:32</time>
      </trkpt>
      <trkpt lat="41.2396617326885" lon="-8.64815482869744">
        <ele>39.2</ele>
        <time>2021-03-20T01:36:33</time>
      </trkpt>
      <trkpt lat="41.2395133730024" lon="-8.64814116619527">
        <ele>39</ele>
        <time>2021-03-20T01:36:34</time>
      </trkpt>
      <trkpt lat="41.2393956072628" lon="-8.64814418368042">
        <ele>39</ele>
        <time>2021-03-20T01:36:35</time>
      </trkpt>
      <trkpt lat="41.2392514385283" lon="-8.64815818145871">
        <ele>39</ele>
        <time>2021-03-20T01:36:36</time>
      </trkpt>
      <trkpt lat="41.239102743566" lon="-8.64816497080028">
        <ele>39.2</ele>
        <time>2021-03-20T01:36:37</time>
      </trkpt>
      <trkpt lat="41.2389595806599" lon="-8.64816966466606">
        <ele>39.2</ele>
        <time>2021-03-20T01:36:38</time>
      </trkpt>
      <trkpt lat="41.2388181779534" lon="-8.64818181842566">
        <ele>39</ele>
        <time>2021-03-20T01:36:39</time>
      </trkpt>
      <trkpt lat="41.2386656273156" lon="-8.64817326888442">
        <ele>39.2</ele>
        <time>2021-03-20T01:36:40</time>
      </trkpt>
      <trkpt lat="41.238518441096" lon="-8.64817075431347">
        <ele>40</ele>
        <time>2021-03-20T01:36:41</time>
      </trkpt>
      <trkpt lat="41.238378630951" lon="-8.6481639649719">
        <ele>40.2</ele>
        <time>2021-03-20T01:36:42</time>
      </trkpt>
      <trkpt lat="41.2382392399013" lon="-8.64815566688776">
        <ele>40.6</ele>
        <time>2021-03-20T01:36:43</time>
      </trkpt>
      <trkpt lat="41.2381028663367" lon="-8.64813068881631">
        <ele>40.8</ele>
        <time>2021-03-20T01:36:44</time>
      </trkpt>
      <trkpt lat="41.2379724439234" lon="-8.64808081649244">
        <ele>41.2</ele>
        <time>2021-03-20T01:36:45</time>
      </trkpt>
      <trkpt lat="41.2378370761871" lon="-8.64803429692984">
        <ele>41.6</ele>
        <time>2021-03-20T01:36:46</time>
      </trkpt>
      <trkpt lat="41.2377136107534" lon="-8.64798869937658">
        <ele>41.8</ele>
        <time>2021-03-20T01:36:47</time>
      </trkpt>
      <trkpt lat="41.2375836912543" lon="-8.64793648011982">
        <ele>42</ele>
        <time>2021-03-20T01:36:48</time>
      </trkpt>
      <trkpt lat="41.2374596390873" lon="-8.64788895472884">
        <ele>42.4</ele>
        <time>2021-03-20T01:36:49</time>
      </trkpt>
      <trkpt lat="41.2373355869204" lon="-8.64785031415522">
        <ele>42.6</ele>
        <time>2021-03-20T01:36:50</time>
      </trkpt>
      <trkpt lat="41.2372060865164" lon="-8.64779281429946">
        <ele>42.8</ele>
        <time>2021-03-20T01:36:51</time>
      </trkpt>
      <trkpt lat="41.2370842136443" lon="-8.64774780347943">
        <ele>43</ele>
        <time>2021-03-20T01:36:52</time>
      </trkpt>
      <trkpt lat="41.2369615864009" lon="-8.64768946543336">
        <ele>43.6</ele>
        <time>2021-03-20T01:36:53</time>
      </trkpt>
      <trkpt lat="41.2368346005678" lon="-8.64762869663536">
        <ele>43.8</ele>
        <time>2021-03-20T01:36:54</time>
      </trkpt>
      <trkpt lat="41.2367253843695" lon="-8.64756717346609">
        <ele>44</ele>
        <time>2021-03-20T01:36:55</time>
      </trkpt>
      <trkpt lat="41.2365985661745" lon="-8.64746977575123">
        <ele>44.4</ele>
        <time>2021-03-20T01:36:56</time>
      </trkpt>
      <trkpt lat="41.2365135736764" lon="-8.64738771691918">
        <ele>44.8</ele>
        <time>2021-03-20T01:36:57</time>
      </trkpt>
      <trkpt lat="41.2364098895341" lon="-8.64728847518563">
        <ele>45</ele>
        <time>2021-03-20T01:36:58</time>
      </trkpt>
      <trkpt lat="41.2363216280937" lon="-8.6471932567656">
        <ele>45.4</ele>
        <time>2021-03-20T01:36:59</time>
      </trkpt>
      <trkpt lat="41.2362227216363" lon="-8.64709225483239">
        <ele>45.6</ele>
        <time>2021-03-20T01:37:00</time>
      </trkpt>
      <trkpt lat="41.2361353822052" lon="-8.64699795842171">
        <ele>46</ele>
        <time>2021-03-20T01:37:01</time>
      </trkpt>
      <trkpt lat="41.2360546644777" lon="-8.64690827205777">
        <ele>46.4</ele>
        <time>2021-03-20T01:37:02</time>
      </trkpt>
      <trkpt lat="41.2359729409218" lon="-8.64680576138198">
        <ele>46.8</ele>
        <time>2021-03-20T01:37:03</time>
      </trkpt>
      <trkpt lat="41.2358816619962" lon="-8.64670995622873">
        <ele>47</ele>
        <time>2021-03-20T01:37:04</time>
      </trkpt>
      <trkpt lat="41.23579390347" lon="-8.64661775529385">
        <ele>47</ele>
        <time>2021-03-20T01:37:05</time>
      </trkpt>
      <trkpt lat="41.2357131019235" lon="-8.64651549607515">
        <ele>47.2</ele>
        <time>2021-03-20T01:37:06</time>
      </trkpt>
      <trkpt lat="41.2356400955468" lon="-8.64638297818601">
        <ele>47.8</ele>
        <time>2021-03-20T01:37:07</time>
      </trkpt>
      <trkpt lat="41.235574381426" lon="-8.64624501205981">
        <ele>48.2</ele>
        <time>2021-03-20T01:37:08</time>
      </trkpt>
      <trkpt lat="41.2355287000537" lon="-8.64611676894128">
        <ele>48.6</ele>
        <time>2021-03-20T01:37:09</time>
      </trkpt>
      <trkpt lat="41.2354966811836" lon="-8.64598676562309">
        <ele>48.8</ele>
        <time>2021-03-20T01:37:10</time>
      </trkpt>
      <trkpt lat="41.2354701943696" lon="-8.645857013762">
        <ele>49</ele>
        <time>2021-03-20T01:37:11</time>
      </trkpt>
      <trkpt lat="41.2354485690594" lon="-8.64572466351092">
        <ele>49.4</ele>
        <time>2021-03-20T01:37:12</time>
      </trkpt>
      <trkpt lat="41.2354301288724" lon="-8.64559231325984">
        <ele>49.6</ele>
        <time>2021-03-20T01:37:13</time>
      </trkpt>
      <trkpt lat="41.2354181427509" lon="-8.64547471515834">
        <ele>49.8</ele>
        <time>2021-03-20T01:37:14</time>
      </trkpt>
      <trkpt lat="41.2353956792504" lon="-8.6453525070101">
        <ele>50</ele>
        <time>2021-03-20T01:37:15</time>
      </trkpt>
      <trkpt lat="41.2353790830821" lon="-8.64523951895535">
        <ele>50.2</ele>
        <time>2021-03-20T01:37:16</time>
      </trkpt>
      <trkpt lat="41.2353689409792" lon="-8.64512527361512">
        <ele>50.4</ele>
        <time>2021-03-20T01:37:17</time>
      </trkpt>
      <trkpt lat="41.2353581283242" lon="-8.64501748234034">
        <ele>50.8</ele>
        <time>2021-03-20T01:37:18</time>
      </trkpt>
      <trkpt lat="41.2353457231075" lon="-8.64491547457874">
        <ele>51</ele>
        <time>2021-03-20T01:37:19</time>
      </trkpt>
      <trkpt lat="41.2353394366801" lon="-8.64481078460812">
        <ele>51</ele>
        <time>2021-03-20T01:37:20</time>
      </trkpt>
      <trkpt lat="41.2353349104524" lon="-8.64471070468426">
        <ele>51.2</ele>
        <time>2021-03-20T01:37:21</time>
      </trkpt>
      <trkpt lat="41.2353282049298" lon="-8.64461322315037">
        <ele>51.2</ele>
        <time>2021-03-20T01:37:22</time>
      </trkpt>
      <trkpt lat="41.2353204097599" lon="-8.64451549015939">
        <ele>51.2</ele>
        <time>2021-03-20T01:37:23</time>
      </trkpt>
      <trkpt lat="41.2353091780096" lon="-8.64441876299679">
        <ele>51.4</ele>
        <time>2021-03-20T01:37:24</time>
      </trkpt>
      <trkpt lat="41.2352956831455" lon="-8.64433729089796">
        <ele>51.4</ele>
        <time>2021-03-20T01:37:25</time>
      </trkpt>
      <trkpt lat="41.2352737225592" lon="-8.64425380714238">
        <ele>51.6</ele>
        <time>2021-03-20T01:37:26</time>
      </trkpt>
      <trkpt lat="41.2352408654988" lon="-8.64417979493737">
        <ele>51.8</ele>
        <time>2021-03-20T01:37:27</time>
      </trkpt>
      <trkpt lat="41.2351973634213" lon="-8.64410276524722">
        <ele>52</ele>
        <time>2021-03-20T01:37:28</time>
      </trkpt>
      <trkpt lat="41.2351562082768" lon="-8.6440437566489">
        <ele>52.2</ele>
        <time>2021-03-20T01:37:29</time>
      </trkpt>
      <trkpt lat="41.2351070903242" lon="-8.64399178884924">
        <ele>52.4</ele>
        <time>2021-03-20T01:37:30</time>
      </trkpt>
      <trkpt lat="41.2350588943809" lon="-8.6439414974302">
        <ele>52.4</ele>
        <time>2021-03-20T01:37:31</time>
      </trkpt>
      <trkpt lat="41.2350069265813" lon="-8.6438896972686">
        <ele>52.4</ele>
        <time>2021-03-20T01:37:32</time>
      </trkpt>
      <trkpt lat="41.2349516060203" lon="-8.64383001811802">
        <ele>52.4</ele>
        <time>2021-03-20T01:37:33</time>
      </trkpt>
      <trkpt lat="41.2348988838494" lon="-8.64376648329198">
        <ele>52.8</ele>
        <time>2021-03-20T01:37:34</time>
      </trkpt>
      <trkpt lat="41.2348438985646" lon="-8.64370915107429">
        <ele>53</ele>
        <time>2021-03-20T01:37:35</time>
      </trkpt>
      <trkpt lat="41.2347896676511" lon="-8.64365676417947">
        <ele>53.2</ele>
        <time>2021-03-20T01:37:36</time>
      </trkpt>
      <trkpt lat="41.2347378674895" lon="-8.64361066371202">
        <ele>53.4</ele>
        <time>2021-03-20T01:37:37</time>
      </trkpt>
      <trkpt lat="41.2346924375743" lon="-8.64356347359717">
        <ele>53.6</ele>
        <time>2021-03-20T01:37:38</time>
      </trkpt>
      <trkpt lat="41.2346403859556" lon="-8.6435202229768">
        <ele>53.6</ele>
        <time>2021-03-20T01:37:39</time>
      </trkpt>
      <trkpt lat="41.2345869094133" lon="-8.64347420632839">
        <ele>53.6</ele>
        <time>2021-03-20T01:37:40</time>
      </trkpt>
      <trkpt lat="41.2345306668431" lon="-8.64343196153641">
        <ele>53.8</ele>
        <time>2021-03-20T01:37:41</time>
      </trkpt>
      <trkpt lat="41.2344801239669" lon="-8.64338644780219">
        <ele>54</ele>
        <time>2021-03-20T01:37:42</time>
      </trkpt>
      <trkpt lat="41.2344251386821" lon="-8.64333531819284">
        <ele>54.4</ele>
        <time>2021-03-20T01:37:43</time>
      </trkpt>
      <trkpt lat="41.234369231388" lon="-8.64328871481121">
        <ele>54.6</ele>
        <time>2021-03-20T01:37:44</time>
      </trkpt>
      <trkpt lat="41.234327070415" lon="-8.64326180890202">
        <ele>54.4</ele>
        <time>2021-03-20T01:37:45</time>
      </trkpt>
      <trkpt lat="41.234276695177" lon="-8.64321746863425">
        <ele>54.8</ele>
        <time>2021-03-20T01:37:46</time>
      </trkpt>
      <trkpt lat="41.2342170998454" lon="-8.64316164515912">
        <ele>55</ele>
        <time>2021-03-20T01:37:47</time>
      </trkpt>
      <trkpt lat="41.2341627012938" lon="-8.64311722107232">
        <ele>55</ele>
        <time>2021-03-20T01:37:48</time>
      </trkpt>
      <trkpt lat="41.2340328656137" lon="-8.64305318333209">
        <ele>55.2</ele>
        <time>2021-03-20T01:37:49</time>
      </trkpt>
      <trkpt lat="41.2339704204351" lon="-8.64301747642458">
        <ele>55.4</ele>
        <time>2021-03-20T01:37:50</time>
      </trkpt>
      <trkpt lat="41.2338979169726" lon="-8.64298746921122">
        <ele>55.4</ele>
        <time>2021-03-20T01:37:51</time>
      </trkpt>
      <trkpt lat="41.2338451109827" lon="-8.64297120831907">
        <ele>55.4</ele>
        <time>2021-03-20T01:37:52</time>
      </trkpt>
      <trkpt lat="41.2337733618915" lon="-8.64295268431306">
        <ele>55.6</ele>
        <time>2021-03-20T01:37:53</time>
      </trkpt>
      <trkpt lat="41.2337004393339" lon="-8.64294396713376">
        <ele>55.8</ele>
        <time>2021-03-20T01:37:54</time>
      </trkpt>
      <trkpt lat="41.2336481362581" lon="-8.64293617196381">
        <ele>56</ele>
        <time>2021-03-20T01:37:55</time>
      </trkpt>
      <trkpt lat="41.2335825897753" lon="-8.6429334897548">
        <ele>56.2</ele>
        <time>2021-03-20T01:37:56</time>
      </trkpt>
      <trkpt lat="41.2335119303316" lon="-8.64292720332742">
        <ele>56.4</ele>
        <time>2021-03-20T01:37:57</time>
      </trkpt>
      <trkpt lat="41.2334616389126" lon="-8.64292879588902">
        <ele>56.6</ele>
        <time>2021-03-20T01:37:58</time>
      </trkpt>
      <trkpt lat="41.2333898898214" lon="-8.64292720332742">
        <ele>56.8</ele>
        <time>2021-03-20T01:37:59</time>
      </trkpt>
      <trkpt lat="41.2333205714822" lon="-8.64292695187032">
        <ele>57</ele>
        <time>2021-03-20T01:38:00</time>
      </trkpt>
      <trkpt lat="41.2332499120384" lon="-8.6429279576987">
        <ele>57.4</ele>
        <time>2021-03-20T01:38:01</time>
      </trkpt>
      <trkpt lat="41.2331988662481" lon="-8.64292829297483">
        <ele>57.6</ele>
        <time>2021-03-20T01:38:02</time>
      </trkpt>
      <trkpt lat="41.2331281229854" lon="-8.64292628131807">
        <ele>58</ele>
        <time>2021-03-20T01:38:03</time>
      </trkpt>
      <trkpt lat="41.2330617383122" lon="-8.64292619749904">
        <ele>58.2</ele>
        <time>2021-03-20T01:38:04</time>
      </trkpt>
      <trkpt lat="41.2329895701259" lon="-8.6429231800139">
        <ele>58.4</ele>
        <time>2021-03-20T01:38:05</time>
      </trkpt>
      <trkpt lat="41.2329344172031" lon="-8.64291672594845">
        <ele>58.8</ele>
        <time>2021-03-20T01:38:06</time>
      </trkpt>
      <trkpt lat="41.2328693736345" lon="-8.64291999489069">
        <ele>58.8</ele>
        <time>2021-03-20T01:38:07</time>
      </trkpt>
      <trkpt lat="41.2327988818288" lon="-8.64292217418551">
        <ele>59</ele>
        <time>2021-03-20T01:38:08</time>
      </trkpt>
      <trkpt lat="41.232725372538" lon="-8.64292871206999">
        <ele>59.2</ele>
        <time>2021-03-20T01:38:09</time>
      </trkpt>
      <trkpt lat="41.2326532043517" lon="-8.64292946644127">
        <ele>59.6</ele>
        <time>2021-03-20T01:38:10</time>
      </trkpt>
      <trkpt lat="41.2326002307236" lon="-8.642941955477">
        <ele>60</ele>
        <time>2021-03-20T01:38:11</time>
      </trkpt>
      <trkpt lat="41.232529906556" lon="-8.64295519888401">
        <ele>60.2</ele>
        <time>2021-03-20T01:38:12</time>
      </trkpt>
      <trkpt lat="41.2324625998735" lon="-8.64296869374812">
        <ele>60.2</ele>
        <time>2021-03-20T01:38:13</time>
      </trkpt>
      <trkpt lat="41.2323926109821" lon="-8.64298478700221">
        <ele>60.8</ele>
        <time>2021-03-20T01:38:14</time>
      </trkpt>
      <trkpt lat="41.2323232088238" lon="-8.64300649613142">
        <ele>60.8</ele>
        <time>2021-03-20T01:38:15</time>
      </trkpt>
      <trkpt lat="41.2322503700852" lon="-8.6430267803371">
        <ele>61.2</ele>
        <time>2021-03-20T01:38:16</time>
      </trkpt>
      <trkpt lat="41.232181135565" lon="-8.64305477589369">
        <ele>61.6</ele>
        <time>2021-03-20T01:38:17</time>
      </trkpt>
      <trkpt lat="41.2321088835597" lon="-8.64307950250804">
        <ele>61.8</ele>
        <time>2021-03-20T01:38:18</time>
      </trkpt>
      <trkpt lat="41.2320426665246" lon="-8.64311152137816">
        <ele>62.2</ele>
        <time>2021-03-20T01:38:19</time>
      </trkpt>
      <trkpt lat="41.231974940747" lon="-8.64314245060086">
        <ele>62.6</ele>
        <time>2021-03-20T01:38:20</time>
      </trkpt>
      <trkpt lat="41.2319048680365" lon="-8.64317296072841">
        <ele>62.6</ele>
        <time>2021-03-20T01:38:21</time>
      </trkpt>
      <trkpt lat="41.2318356335163" lon="-8.64320246502757">
        <ele>63.2</ele>
        <time>2021-03-20T01:38:22</time>
      </trkpt>
      <trkpt lat="41.2317669019103" lon="-8.64323171786964">
        <ele>63.6</ele>
        <time>2021-03-20T01:38:23</time>
      </trkpt>
      <trkpt lat="41.2316971644759" lon="-8.64325971342623">
        <ele>64</ele>
        <time>2021-03-20T01:38:24</time>
      </trkpt>
      <trkpt lat="41.2316239066422" lon="-8.64327471703291">
        <ele>64.4</ele>
        <time>2021-03-20T01:38:25</time>
      </trkpt>
      <trkpt lat="41.2315505649894" lon="-8.6432857811451">
        <ele>64.6</ele>
        <time>2021-03-20T01:38:26</time>
      </trkpt>
      <trkpt lat="41.231478061527" lon="-8.64329852163792">
        <ele>64.8</ele>
        <time>2021-03-20T01:38:27</time>
      </trkpt>
      <trkpt lat="41.2314038816839" lon="-8.64330665208399">
        <ele>65.2</ele>
        <time>2021-03-20T01:38:28</time>
      </trkpt>
      <trkpt lat="41.2313259299844" lon="-8.64331201650202">
        <ele>65.4</ele>
        <time>2021-03-20T01:38:29</time>
      </trkpt>
      <trkpt lat="41.2312531750649" lon="-8.64331277087331">
        <ele>65.8</ele>
        <time>2021-03-20T01:38:30</time>
      </trkpt>
      <trkpt lat="41.2311809230596" lon="-8.64331402815878">
        <ele>66.2</ele>
        <time>2021-03-20T01:38:31</time>
      </trkpt>
      <trkpt lat="41.2311050668359" lon="-8.64331050775945">
        <ele>66.6</ele>
        <time>2021-03-20T01:38:32</time>
      </trkpt>
      <trkpt lat="41.2310369219631" lon="-8.64331226795912">
        <ele>66.8</ele>
        <time>2021-03-20T01:38:33</time>
      </trkpt>
      <trkpt lat="41.2309686932713" lon="-8.64330472424626">
        <ele>67.2</ele>
        <time>2021-03-20T01:38:34</time>
      </trkpt>
      <trkpt lat="41.2309023924172" lon="-8.64329625852406">
        <ele>67.4</ele>
        <time>2021-03-20T01:38:35</time>
      </trkpt>
      <trkpt lat="41.2308366782963" lon="-8.64328469149768">
        <ele>67.6</ele>
        <time>2021-03-20T01:38:36</time>
      </trkpt>
      <trkpt lat="41.2307718861848" lon="-8.64326180890202">
        <ele>68</ele>
        <time>2021-03-20T01:38:37</time>
      </trkpt>
      <trkpt lat="41.2307075969875" lon="-8.64323121495545">
        <ele>68</ele>
        <time>2021-03-20T01:38:38</time>
      </trkpt>
      <trkpt lat="41.2306485883892" lon="-8.64320422522724">
        <ele>68.4</ele>
        <time>2021-03-20T01:38:39</time>
      </trkpt>
      <trkpt lat="41.2305817008018" lon="-8.64316516555846">
        <ele>68.6</ele>
        <time>2021-03-20T01:38:40</time>
      </trkpt>
      <trkpt lat="41.2305199261755" lon="-8.64312677644193">
        <ele>69</ele>
        <time>2021-03-20T01:38:41</time>
      </trkpt>
      <trkpt lat="41.2304587382823" lon="-8.64309031516314">
        <ele>69.2</ele>
        <time>2021-03-20T01:38:42</time>
      </trkpt>
      <trkpt lat="41.2303946167231" lon="-8.64304295741022">
        <ele>69.4</ele>
        <time>2021-03-20T01:38:43</time>
      </trkpt>
      <trkpt lat="41.2303354404867" lon="-8.6430022213608">
        <ele>69.6</ele>
        <time>2021-03-20T01:38:44</time>
      </trkpt>
      <trkpt lat="41.2302803713828" lon="-8.6429559532553">
        <ele>69.8</ele>
        <time>2021-03-20T01:38:45</time>
      </trkpt>
      <trkpt lat="41.2302290741354" lon="-8.64291815087199">
        <ele>70</ele>
        <time>2021-03-20T01:38:46</time>
      </trkpt>
      <trkpt lat="41.2301761843264" lon="-8.64287230186164">
        <ele>70.4</ele>
        <time>2021-03-20T01:38:47</time>
      </trkpt>
      <trkpt lat="41.2301257252693" lon="-8.64283399656415">
        <ele>70.8</ele>
        <time>2021-03-20T01:38:48</time>
      </trkpt>
      <trkpt lat="41.230071913451" lon="-8.64279217086732">
        <ele>71</ele>
        <time>2021-03-20T01:38:49</time>
      </trkpt>
      <trkpt lat="41.2300247233361" lon="-8.64275797270238">
        <ele>71.2</ele>
        <time>2021-03-20T01:38:50</time>
      </trkpt>
      <trkpt lat="41.2299837358296" lon="-8.64273701794446">
        <ele>71.4</ele>
        <time>2021-03-20T01:38:51</time>
      </trkpt>
      <trkpt lat="41.2299361266196" lon="-8.64270231686532">
        <ele>72</ele>
        <time>2021-03-20T01:38:52</time>
      </trkpt>
      <trkpt lat="41.2299021799117" lon="-8.64267750643194">
        <ele>72.2</ele>
        <time>2021-03-20T01:38:53</time>
      </trkpt>
      <trkpt lat="41.2298545707017" lon="-8.642643308267">
        <ele>72.4</ele>
        <time>2021-03-20T01:38:54</time>
      </trkpt>
      <trkpt lat="41.2298197019845" lon="-8.64261279813945">
        <ele>72.4</ele>
        <time>2021-03-20T01:38:55</time>
      </trkpt>
      <trkpt lat="41.2297741044313" lon="-8.64257868379354">
        <ele>72.4</ele>
        <time>2021-03-20T01:38:56</time>
      </trkpt>
      <trkpt lat="41.2297306861728" lon="-8.64254398271441">
        <ele>72.6</ele>
        <time>2021-03-20T01:38:57</time>
      </trkpt>
      <trkpt lat="41.2296820711344" lon="-8.64250500686467">
        <ele>72.6</ele>
        <time>2021-03-20T01:38:58</time>
      </trkpt>
      <trkpt lat="41.2296384014189" lon="-8.64247449673712">
        <ele>73</ele>
        <time>2021-03-20T01:38:59</time>
      </trkpt>
      <trkpt lat="41.2295940611512" lon="-8.64245027303696">
        <ele>73.2</ele>
        <time>2021-03-20T01:39:00</time>
      </trkpt>
      <trkpt lat="41.2295746989548" lon="-8.64244130440056">
        <ele>73.6</ele>
        <time>2021-03-20T01:39:01</time>
      </trkpt>
      <trkpt lat="41.229477385059" lon="-8.64235371351242">
        <ele>73.8</ele>
        <time>2021-03-20T01:39:02</time>
      </trkpt>
      <trkpt lat="41.2294337153435" lon="-8.64232077263296">
        <ele>73.6</ele>
        <time>2021-03-20T01:39:03</time>
      </trkpt>
      <trkpt lat="41.2293726950884" lon="-8.64228221587837">
        <ele>73.8</ele>
        <time>2021-03-20T01:39:04</time>
      </trkpt>
      <trkpt lat="41.2293235771358" lon="-8.64224231801927">
        <ele>74</ele>
        <time>2021-03-20T01:39:05</time>
      </trkpt>
      <trkpt lat="41.2292618863285" lon="-8.64219118840992">
        <ele>74</ele>
        <time>2021-03-20T01:39:06</time>
      </trkpt>
      <trkpt lat="41.2292163725942" lon="-8.64216168411076">
        <ele>74.2</ele>
        <time>2021-03-20T01:39:07</time>
      </trkpt>
      <trkpt lat="41.2291504070163" lon="-8.64210368134081">
        <ele>74.4</ele>
        <time>2021-03-20T01:39:08</time>
      </trkpt>
      <trkpt lat="41.2290905602276" lon="-8.64205271936953">
        <ele>74.8</ele>
        <time>2021-03-20T01:39:09</time>
      </trkpt>
      <trkpt lat="41.2290380895138" lon="-8.64201399497688">
        <ele>74.8</ele>
        <time>2021-03-20T01:39:10</time>
      </trkpt>
      <trkpt lat="41.2290071602911" lon="-8.64199069328606">
        <ele>75</ele>
        <time>2021-03-20T01:39:11</time>
      </trkpt>
      <trkpt lat="41.2289728783071" lon="-8.64197015762329">
        <ele>75.4</ele>
        <time>2021-03-20T01:39:12</time>
      </trkpt>
      <trkpt lat="41.2289099302143" lon="-8.64192447625101">
        <ele>75.8</ele>
        <time>2021-03-20T01:39:13</time>
      </trkpt>
      <trkpt lat="41.2288956809789" lon="-8.64189019426704">
        <ele>75.8</ele>
        <time>2021-03-20T01:39:14</time>
      </trkpt>
      <trkpt lat="41.2288494128734" lon="-8.64187720231712">
        <ele>76</ele>
        <time>2021-03-20T01:39:15</time>
      </trkpt>
      <trkpt lat="41.2287959363312" lon="-8.64184602163732">
        <ele>76.2</ele>
        <time>2021-03-20T01:39:16</time>
      </trkpt>
      <trkpt lat="41.228742627427" lon="-8.64181375131011">
        <ele>76.4</ele>
        <time>2021-03-20T01:39:17</time>
      </trkpt>
      <trkpt lat="41.2286954373121" lon="-8.64176899194717">
        <ele>76.6</ele>
        <time>2021-03-20T01:39:18</time>
      </trkpt>
      <trkpt lat="41.2286312319338" lon="-8.64169749431312">
        <ele>77</ele>
        <time>2021-03-20T01:39:19</time>
      </trkpt>
      <trkpt lat="41.2286049127579" lon="-8.64170277491212">
        <ele>77</ele>
        <time>2021-03-20T01:39:20</time>
      </trkpt>
      <trkpt lat="41.2285742349923" lon="-8.64170000888407">
        <ele>77</ele>
        <time>2021-03-20T01:39:21</time>
      </trkpt>
      <trkpt lat="41.2285236082971" lon="-8.64165776409209">
        <ele>77.2</ele>
        <time>2021-03-20T01:39:22</time>
      </trkpt>
      <trkpt lat="41.2284961156547" lon="-8.64164200611412">
        <ele>77.6</ele>
        <time>2021-03-20T01:39:23</time>
      </trkpt>
      <trkpt lat="41.2284381967038" lon="-8.64158065058291">
        <ele>78</ele>
        <time>2021-03-20T01:39:24</time>
      </trkpt>
      <trkpt lat="41.2283682078123" lon="-8.64151426590979">
        <ele>78.2</ele>
        <time>2021-03-20T01:39:25</time>
      </trkpt>
      <trkpt lat="41.2283010687679" lon="-8.64146925508976">
        <ele>78.4</ele>
        <time>2021-03-20T01:39:26</time>
      </trkpt>
      <trkpt lat="41.2282807007432" lon="-8.64143245853484">
        <ele>78.8</ele>
        <time>2021-03-20T01:39:27</time>
      </trkpt>
      <trkpt lat="41.2282376177609" lon="-8.64142131060362">
        <ele>79.2</ele>
        <time>2021-03-20T01:39:28</time>
      </trkpt>
      <trkpt lat="41.2281720712781" lon="-8.64135668613016">
        <ele>79.2</ele>
        <time>2021-03-20T01:39:29</time>
      </trkpt>
      <trkpt lat="41.2281253840774" lon="-8.64131066948176">
        <ele>79.4</ele>
        <time>2021-03-20T01:39:30</time>
      </trkpt>
      <trkpt lat="41.2280786968768" lon="-8.64127052016556">
        <ele>79.6</ele>
        <time>2021-03-20T01:39:31</time>
      </trkpt>
      <trkpt lat="41.2280171737075" lon="-8.64121922291815">
        <ele>79.6</ele>
        <time>2021-03-20T01:39:32</time>
      </trkpt>
      <trkpt lat="41.2279584165662" lon="-8.64116725511849">
        <ele>79.6</ele>
        <time>2021-03-20T01:39:33</time>
      </trkpt>
      <trkpt lat="41.2279082089663" lon="-8.64114118739962">
        <ele>79.4</ele>
        <time>2021-03-20T01:39:34</time>
      </trkpt>
      <trkpt lat="41.2278697360307" lon="-8.64112199284136">
        <ele>79.6</ele>
        <time>2021-03-20T01:39:35</time>
      </trkpt>
      <trkpt lat="41.2278486974537" lon="-8.64111721515656">
        <ele>79.4</ele>
        <time>2021-03-20T01:39:36</time>
      </trkpt>
      <trkpt lat="41.227828161791" lon="-8.6411561910063">
        <ele>79.6</ele>
        <time>2021-03-20T01:39:37</time>
      </trkpt>
      <trkpt lat="41.2277903594077" lon="-8.64114881493151">
        <ele>79.8</ele>
        <time>2021-03-20T01:39:38</time>
      </trkpt>
      <trkpt lat="41.2277393974364" lon="-8.64112752489746">
        <ele>79.6</ele>
        <time>2021-03-20T01:39:39</time>
      </trkpt>
      <trkpt lat="41.2277216278017" lon="-8.64110170863569">
        <ele>79.8</ele>
        <time>2021-03-20T01:39:40</time>
      </trkpt>
      <trkpt lat="41.2276648823172" lon="-8.64105795510113">
        <ele>79.8</ele>
        <time>2021-03-20T01:39:41</time>
      </trkpt>
      <trkpt lat="41.2276257388294" lon="-8.6410287860781">
        <ele>80.2</ele>
        <time>2021-03-20T01:39:42</time>
      </trkpt>
      <trkpt lat="41.2275819014758" lon="-8.64099500700831">
        <ele>80.2</ele>
        <time>2021-03-20T01:39:43</time>
      </trkpt>
      <trkpt lat="41.2275265809149" lon="-8.64095879718661">
        <ele>80</ele>
        <time>2021-03-20T01:39:44</time>
      </trkpt>
      <trkpt lat="41.2274831626564" lon="-8.6409318074584">
        <ele>80</ele>
        <time>2021-03-20T01:39:45</time>
      </trkpt>
      <trkpt lat="41.2274453602731" lon="-8.64091177470982">
        <ele>80</ele>
        <time>2021-03-20T01:39:46</time>
      </trkpt>
      <trkpt lat="41.227397415787" lon="-8.64088570699096">
        <ele>80</ele>
        <time>2021-03-20T01:39:47</time>
      </trkpt>
      <trkpt lat="41.2273505609482" lon="-8.64085117354989">
        <ele>80</ele>
        <time>2021-03-20T01:39:48</time>
      </trkpt>
      <trkpt lat="41.2273006048054" lon="-8.64081328734756">
        <ele>80</ele>
        <time>2021-03-20T01:39:49</time>
      </trkpt>
      <trkpt lat="41.2272456195205" lon="-8.64076626487076">
        <ele>80</ele>
        <time>2021-03-20T01:39:50</time>
      </trkpt>
      <trkpt lat="41.2272057216614" lon="-8.64073500037193">
        <ele>79.8</ele>
        <time>2021-03-20T01:39:51</time>
      </trkpt>
      <trkpt lat="41.2271598726511" lon="-8.64070851355791">
        <ele>79.8</ele>
        <time>2021-03-20T01:39:52</time>
      </trkpt>
      <trkpt lat="41.2271183822304" lon="-8.64068202674389">
        <ele>79.6</ele>
        <time>2021-03-20T01:39:53</time>
      </trkpt>
      <trkpt lat="41.2270761374384" lon="-8.64065419882536">
        <ele>79.4</ele>
        <time>2021-03-20T01:39:54</time>
      </trkpt>
      <trkpt lat="41.227032886818" lon="-8.64062779583037">
        <ele>79.4</ele>
        <time>2021-03-20T01:39:55</time>
      </trkpt>
      <trkpt lat="41.2270023766905" lon="-8.64062896929681">
        <ele>78.8</ele>
        <time>2021-03-20T01:39:56</time>
      </trkpt>
      <trkpt lat="41.2269583716989" lon="-8.64061145111918">
        <ele>78.8</ele>
        <time>2021-03-20T01:39:57</time>
      </trkpt>
      <trkpt lat="41.2269079126418" lon="-8.64058270119131">
        <ele>78.6</ele>
        <time>2021-03-20T01:39:58</time>
      </trkpt>
      <trkpt lat="41.2268650811166" lon="-8.64055428653956">
        <ele>78.4</ele>
        <time>2021-03-20T01:39:59</time>
      </trkpt>
      <trkpt lat="41.2268057372421" lon="-8.64051665179431">
        <ele>78</ele>
        <time>2021-03-20T01:40:00</time>
      </trkpt>
      <trkpt lat="41.2266904022545" lon="-8.64045429043472">
        <ele>77.8</ele>
        <time>2021-03-20T01:40:01</time>
      </trkpt>
      <trkpt lat="41.2266370933503" lon="-8.64042478613556">
        <ele>77.6</ele>
        <time>2021-03-20T01:40:02</time>
      </trkpt>
      <trkpt lat="41.2265748996288" lon="-8.64038379862904">
        <ele>77.4</ele>
        <time>2021-03-20T01:40:03</time>
      </trkpt>
      <trkpt lat="41.2265489157289" lon="-8.6403707228601">
        <ele>77.2</ele>
        <time>2021-03-20T01:40:04</time>
      </trkpt>
      <trkpt lat="41.2265075929463" lon="-8.64035052247346">
        <ele>77.2</ele>
        <time>2021-03-20T01:40:05</time>
      </trkpt>
      <trkpt lat="41.2264571338892" lon="-8.64032445475459">
        <ele>77.2</ele>
        <time>2021-03-20T01:40:06</time>
      </trkpt>
      <trkpt lat="41.2264191638678" lon="-8.64030425436795">
        <ele>77</ele>
        <time>2021-03-20T01:40:07</time>
      </trkpt>
      <trkpt lat="41.2263692077249" lon="-8.64027516916394">
        <ele>76.6</ele>
        <time>2021-03-20T01:40:08</time>
      </trkpt>
      <trkpt lat="41.2263196706772" lon="-8.64024030044675">
        <ele>76.6</ele>
        <time>2021-03-20T01:40:09</time>
      </trkpt>
      <trkpt lat="41.2262730672956" lon="-8.64021582528949">
        <ele>76.4</ele>
        <time>2021-03-20T01:40:10</time>
      </trkpt>
      <trkpt lat="41.2262263800949" lon="-8.64019394852221">
        <ele>76.2</ele>
        <time>2021-03-20T01:40:11</time>
      </trkpt>
      <trkpt lat="41.2261919304728" lon="-8.6401756759733">
        <ele>76.2</ele>
        <time>2021-03-20T01:40:12</time>
      </trkpt>
      <trkpt lat="41.2261465843767" lon="-8.64015270955861">
        <ele>76.2</ele>
        <time>2021-03-20T01:40:13</time>
      </trkpt>
      <trkpt lat="41.2260803673416" lon="-8.64012622274458">
        <ele>76</ele>
        <time>2021-03-20T01:40:14</time>
      </trkpt>
      <trkpt lat="41.2260329257697" lon="-8.64010199904442">
        <ele>75.8</ele>
        <time>2021-03-20T01:40:15</time>
      </trkpt>
      <trkpt lat="41.2259931117296" lon="-8.64008548669517">
        <ele>76</ele>
        <time>2021-03-20T01:40:16</time>
      </trkpt>
      <trkpt lat="41.2259376235306" lon="-8.6400667950511">
        <ele>76.2</ele>
        <time>2021-03-20T01:40:17</time>
      </trkpt>
      <trkpt lat="41.2258786149323" lon="-8.6400393024087">
        <ele>76</ele>
        <time>2021-03-20T01:40:18</time>
      </trkpt>
      <trkpt lat="41.2258191034198" lon="-8.64001968875527">
        <ele>76</ele>
        <time>2021-03-20T01:40:19</time>
      </trkpt>
      <trkpt lat="41.2257671356201" lon="-8.6399959679693">
        <ele>76.2</ele>
        <time>2021-03-20T01:40:20</time>
      </trkpt>
      <trkpt lat="41.2257051933557" lon="-8.63995875231922">
        <ele>76</ele>
        <time>2021-03-20T01:40:21</time>
      </trkpt>
      <trkpt lat="41.2256301753223" lon="-8.6399217043072">
        <ele>76.2</ele>
        <time>2021-03-20T01:40:22</time>
      </trkpt>
      <trkpt lat="41.2255508825183" lon="-8.63988071680069">
        <ele>76.4</ele>
        <time>2021-03-20T01:40:23</time>
      </trkpt>
      <trkpt lat="41.2254751939326" lon="-8.63984148949385">
        <ele>76.6</ele>
        <time>2021-03-20T01:40:24</time>
      </trkpt>
      <trkpt lat="41.2254217173904" lon="-8.63981525413692">
        <ele>76.4</ele>
        <time>2021-03-20T01:40:25</time>
      </trkpt>
      <trkpt lat="41.2253581825644" lon="-8.63980025053024">
        <ele>76.2</ele>
        <time>2021-03-20T01:40:26</time>
      </trkpt>
      <trkpt lat="41.2252866011113" lon="-8.63977049477398">
        <ele>76.4</ele>
        <time>2021-03-20T01:40:27</time>
      </trkpt>
      <trkpt lat="41.2252178695053" lon="-8.63973847590387">
        <ele>76.8</ele>
        <time>2021-03-20T01:40:28</time>
      </trkpt>
      <trkpt lat="41.2251495569944" lon="-8.63970846869051">
        <ele>76.6</ele>
        <time>2021-03-20T01:40:29</time>
      </trkpt>
      <trkpt lat="41.2250696774572" lon="-8.63967745564878">
        <ele>76.8</ele>
        <time>2021-03-20T01:40:30</time>
      </trkpt>
      <trkpt lat="41.2250126805156" lon="-8.63965750671923">
        <ele>76.8</ele>
        <time>2021-03-20T01:40:31</time>
      </trkpt>
      <trkpt lat="41.2249433621764" lon="-8.63963278010488">
        <ele>76.6</ele>
        <time>2021-03-20T01:40:32</time>
      </trkpt>
      <trkpt lat="41.2248357385397" lon="-8.63958994857967">
        <ele>76.4</ele>
        <time>2021-03-20T01:40:33</time>
      </trkpt>
      <trkpt lat="41.2247354071587" lon="-8.63956446759403">
        <ele>76</ele>
        <time>2021-03-20T01:40:34</time>
      </trkpt>
      <trkpt lat="41.2246453855187" lon="-8.63951970823109">
        <ele>76.4</ele>
        <time>2021-03-20T01:40:35</time>
      </trkpt>
      <trkpt lat="41.2245790846646" lon="-8.63952917978168">
        <ele>77.4</ele>
        <time>2021-03-20T01:40:36</time>
      </trkpt>
      <trkpt lat="41.2244738917798" lon="-8.63947696052492">
        <ele>77.4</ele>
        <time>2021-03-20T01:40:37</time>
      </trkpt>
      <trkpt lat="41.2244002148509" lon="-8.63944821059704">
        <ele>77</ele>
        <time>2021-03-20T01:40:38</time>
      </trkpt>
      <trkpt lat="41.2242592312396" lon="-8.63936481066048">
        <ele>77</ele>
        <time>2021-03-20T01:40:39</time>
      </trkpt>
      <trkpt lat="41.2241580616683" lon="-8.63931996747851">
        <ele>77.4</ele>
        <time>2021-03-20T01:40:40</time>
      </trkpt>
      <trkpt lat="41.224078182131" lon="-8.63928845152259">
        <ele>77.4</ele>
        <time>2021-03-20T01:40:41</time>
      </trkpt>
      <trkpt lat="41.2239619251341" lon="-8.63923849537969">
        <ele>77.6</ele>
        <time>2021-03-20T01:40:42</time>
      </trkpt>
      <trkpt lat="41.2238646112382" lon="-8.63919918425381">
        <ele>77.6</ele>
        <time>2021-03-20T01:40:43</time>
      </trkpt>
      <trkpt lat="41.223782133311" lon="-8.63917118869722">
        <ele>77.8</ele>
        <time>2021-03-20T01:40:44</time>
      </trkpt>
      <trkpt lat="41.223716083914" lon="-8.63916649483144">
        <ele>78</ele>
        <time>2021-03-20T01:40:45</time>
      </trkpt>
      <trkpt lat="41.2236496992409" lon="-8.63914730027318">
        <ele>78</ele>
        <time>2021-03-20T01:40:46</time>
      </trkpt>
      <trkpt lat="41.2235844042152" lon="-8.63918049260974">
        <ele>78.2</ele>
        <time>2021-03-20T01:40:47</time>
      </trkpt>
      <trkpt lat="41.2235280778259" lon="-8.63917395472526">
        <ele>78.4</ele>
        <time>2021-03-20T01:40:48</time>
      </trkpt>
      <trkpt lat="41.2234787084162" lon="-8.63918828777969">
        <ele>78.4</ele>
        <time>2021-03-20T01:40:49</time>
      </trkpt>
      <trkpt lat="41.223406707868" lon="-8.63917076960206">
        <ele>78.4</ele>
        <time>2021-03-20T01:40:50</time>
      </trkpt>
      <trkpt lat="41.2233026884496" lon="-8.63912668079138">
        <ele>78.4</ele>
        <time>2021-03-20T01:40:51</time>
      </trkpt>
      <trkpt lat="41.2232230603695" lon="-8.6390908062458">
        <ele>78.4</ele>
        <time>2021-03-20T01:40:52</time>
      </trkpt>
      <trkpt lat="41.223142594099" lon="-8.63906121812761">
        <ele>78.6</ele>
        <time>2021-03-20T01:40:53</time>
      </trkpt>
      <trkpt lat="41.2230621278286" lon="-8.639025259763">
        <ele>79</ele>
        <time>2021-03-20T01:40:54</time>
      </trkpt>
      <trkpt lat="41.2229512352496" lon="-8.63898351788521">
        <ele>79.2</ele>
        <time>2021-03-20T01:40:55</time>
      </trkpt>
      <trkpt lat="41.2228536698967" lon="-8.6389338131994">
        <ele>79.4</ele>
        <time>2021-03-20T01:40:56</time>
      </trkpt>
      <trkpt lat="41.2227611336857" lon="-8.63888796418905">
        <ele>79.6</ele>
        <time>2021-03-20T01:40:57</time>
      </trkpt>
      <trkpt lat="41.2226871214807" lon="-8.63885879516602">
        <ele>80</ele>
        <time>2021-03-20T01:40:58</time>
      </trkpt>
      <trkpt lat="41.2226105947048" lon="-8.63881881348789">
        <ele>80.2</ele>
        <time>2021-03-20T01:40:59</time>
      </trkpt>
      <trkpt lat="41.2225322239101" lon="-8.6388043127954">
        <ele>80.4</ele>
        <time>2021-03-20T01:41:00</time>
      </trkpt>
      <trkpt lat="41.2224479019642" lon="-8.63877078518271">
        <ele>80.6</ele>
        <time>2021-03-20T01:41:01</time>
      </trkpt>
      <trkpt lat="41.2223987001926" lon="-8.63875871524215">
        <ele>80.6</ele>
        <time>2021-03-20T01:41:02</time>
      </trkpt>
      <trkpt lat="41.2222837004811" lon="-8.6387023050338">
        <ele>81</ele>
        <time>2021-03-20T01:41:03</time>
      </trkpt>
      <trkpt lat="41.2222302239388" lon="-8.63867900334299">
        <ele>81.2</ele>
        <time>2021-03-20T01:41:04</time>
      </trkpt>
      <trkpt lat="41.2221314013004" lon="-8.638631477952">
        <ele>82</ele>
        <time>2021-03-20T01:41:05</time>
      </trkpt>
      <trkpt lat="41.2220914196223" lon="-8.63861546851694">
        <ele>82.2</ele>
        <time>2021-03-20T01:41:06</time>
      </trkpt>
      <trkpt lat="41.2220180779696" lon="-8.63857766613364">
        <ele>82.4</ele>
        <time>2021-03-20T01:41:07</time>
      </trkpt>
      <trkpt lat="41.221924116835" lon="-8.63854170776904">
        <ele>82.4</ele>
        <time>2021-03-20T01:41:08</time>
      </trkpt>
      <trkpt lat="41.2218615878373" lon="-8.63851220346987">
        <ele>82.6</ele>
        <time>2021-03-20T01:41:09</time>
      </trkpt>
      <trkpt lat="41.2217610888183" lon="-8.63847414962947">
        <ele>82.8</ele>
        <time>2021-03-20T01:41:10</time>
      </trkpt>
      <trkpt lat="41.2217035889626" lon="-8.6384522728622">
        <ele>83</ele>
        <time>2021-03-20T01:41:11</time>
      </trkpt>
      <trkpt lat="41.221607113257" lon="-8.63841631449759">
        <ele>83.2</ele>
        <time>2021-03-20T01:41:12</time>
      </trkpt>
      <trkpt lat="41.2215483561158" lon="-8.63838764838874">
        <ele>83.4</ele>
        <time>2021-03-20T01:41:13</time>
      </trkpt>
      <trkpt lat="41.2214527186006" lon="-8.63835051655769">
        <ele>83.6</ele>
        <time>2021-03-20T01:41:14</time>
      </trkpt>
      <trkpt lat="41.2213968951255" lon="-8.63833115436137">
        <ele>83.6</ele>
        <time>2021-03-20T01:41:15</time>
      </trkpt>
      <trkpt lat="41.2213058676571" lon="-8.63829452544451">
        <ele>83.8</ele>
        <time>2021-03-20T01:41:16</time>
      </trkpt>
      <trkpt lat="41.2212461046874" lon="-8.63826552405954">
        <ele>84.2</ele>
        <time>2021-03-20T01:41:17</time>
      </trkpt>
      <trkpt lat="41.2211782112718" lon="-8.63823719322681">
        <ele>84.2</ele>
        <time>2021-03-20T01:41:18</time>
      </trkpt>
      <trkpt lat="41.2211052048951" lon="-8.63820400089026">
        <ele>85</ele>
        <time>2021-03-20T01:41:19</time>
      </trkpt>
      <trkpt lat="41.2210348807275" lon="-8.63816728815436">
        <ele>85.2</ele>
        <time>2021-03-20T01:41:20</time>
      </trkpt>
      <trkpt lat="41.2209679093212" lon="-8.63812495954335">
        <ele>85.4</ele>
        <time>2021-03-20T01:41:21</time>
      </trkpt>
      <trkpt lat="41.2208984233439" lon="-8.63808380439878">
        <ele>85.4</ele>
        <time>2021-03-20T01:41:22</time>
      </trkpt>
      <trkpt lat="41.220835391432" lon="-8.63804751075804">
        <ele>85.4</ele>
        <time>2021-03-20T01:41:23</time>
      </trkpt>
      <trkpt lat="41.2207705993205" lon="-8.63800920546055">
        <ele>85.8</ele>
        <time>2021-03-20T01:41:24</time>
      </trkpt>
      <trkpt lat="41.2207062263042" lon="-8.63796880468726">
        <ele>85.6</ele>
        <time>2021-03-20T01:41:25</time>
      </trkpt>
      <trkpt lat="41.2206431943923" lon="-8.63792999647558">
        <ele>85.8</ele>
        <time>2021-03-20T01:41:26</time>
      </trkpt>
      <trkpt lat="41.2205746304244" lon="-8.63789202645421">
        <ele>85.8</ele>
        <time>2021-03-20T01:41:27</time>
      </trkpt>
      <trkpt lat="41.2205281108618" lon="-8.63786428235471">
        <ele>86</ele>
        <time>2021-03-20T01:41:28</time>
      </trkpt>
      <trkpt lat="41.2204659171402" lon="-8.63781952299178">
        <ele>86.2</ele>
        <time>2021-03-20T01:41:29</time>
      </trkpt>
      <trkpt lat="41.2204161286354" lon="-8.63778850995004">
        <ele>86.2</ele>
        <time>2021-03-20T01:41:30</time>
      </trkpt>
      <trkpt lat="41.220348905772" lon="-8.63775565288961">
        <ele>86</ele>
        <time>2021-03-20T01:41:31</time>
      </trkpt>
      <trkpt lat="41.2202966026962" lon="-8.63772422075272">
        <ele>86.2</ele>
        <time>2021-03-20T01:41:32</time>
      </trkpt>
      <trkpt lat="41.2202366720885" lon="-8.63768968731165">
        <ele>86.4</ele>
        <time>2021-03-20T01:41:33</time>
      </trkpt>
      <trkpt lat="41.2201910745352" lon="-8.63767376169562">
        <ele>86.6</ele>
        <time>2021-03-20T01:41:34</time>
      </trkpt>
      <trkpt lat="41.2201355863363" lon="-8.63764970563352">
        <ele>87</ele>
        <time>2021-03-20T01:41:35</time>
      </trkpt>
      <trkpt lat="41.2200895696878" lon="-8.63761617802084">
        <ele>87</ele>
        <time>2021-03-20T01:41:36</time>
      </trkpt>
      <trkpt lat="41.2200471572578" lon="-8.63758818246424">
        <ele>87</ele>
        <time>2021-03-20T01:41:37</time>
      </trkpt>
      <trkpt lat="41.2200034037232" lon="-8.63754828460514">
        <ele>87</ele>
        <time>2021-03-20T01:41:38</time>
      </trkpt>
      <trkpt lat="41.2199381925166" lon="-8.63750796765089">
        <ele>87.4</ele>
        <time>2021-03-20T01:41:39</time>
      </trkpt>
      <trkpt lat="41.2198791000992" lon="-8.63747301511466">
        <ele>87.4</ele>
        <time>2021-03-20T01:41:40</time>
      </trkpt>
      <trkpt lat="41.2198184151202" lon="-8.63744451664388">
        <ele>87.4</ele>
        <time>2021-03-20T01:41:41</time>
      </trkpt>
      <trkpt lat="41.2197413854301" lon="-8.63740126602352">
        <ele>87.4</ele>
        <time>2021-03-20T01:41:42</time>
      </trkpt>
      <trkpt lat="41.2197031639516" lon="-8.63738265819848">
        <ele>87.6</ele>
        <time>2021-03-20T01:41:43</time>
      </trkpt>
      <trkpt lat="41.2196417246014" lon="-8.63734846003354">
        <ele>87.6</ele>
        <time>2021-03-20T01:41:44</time>
      </trkpt>
      <trkpt lat="41.219569388777" lon="-8.63732364960015">
        <ele>87.8</ele>
        <time>2021-03-20T01:41:45</time>
      </trkpt>
      <trkpt lat="41.2195285689086" lon="-8.63729749806225">
        <ele>87.8</ele>
        <time>2021-03-20T01:41:46</time>
      </trkpt>
      <trkpt lat="41.2194776907563" lon="-8.63726430572569">
        <ele>87.8</ele>
        <time>2021-03-20T01:41:47</time>
      </trkpt>
      <trkpt lat="41.2194221187383" lon="-8.63722901791334">
        <ele>88.2</ele>
        <time>2021-03-20T01:41:48</time>
      </trkpt>
      <trkpt lat="41.2193648703396" lon="-8.63719381392002">
        <ele>88.6</ele>
        <time>2021-03-20T01:41:49</time>
      </trkpt>
      <trkpt lat="41.2193031795323" lon="-8.63715651445091">
        <ele>88.6</ele>
        <time>2021-03-20T01:41:50</time>
      </trkpt>
      <trkpt lat="41.2192471046001" lon="-8.63712365739048">
        <ele>88.6</ele>
        <time>2021-03-20T01:41:51</time>
      </trkpt>
      <trkpt lat="41.2191942147911" lon="-8.63708526827395">
        <ele>88.4</ele>
        <time>2021-03-20T01:41:52</time>
      </trkpt>
      <trkpt lat="41.2191478628665" lon="-8.63707319833338">
        <ele>88.6</ele>
        <time>2021-03-20T01:41:53</time>
      </trkpt>
      <trkpt lat="41.2190844118595" lon="-8.63705618306994">
        <ele>88.8</ele>
        <time>2021-03-20T01:41:54</time>
      </trkpt>
      <trkpt lat="41.2190149258822" lon="-8.63702265545726">
        <ele>89.2</ele>
        <time>2021-03-20T01:41:55</time>
      </trkpt>
      <trkpt lat="41.2189637124538" lon="-8.6369944922626">
        <ele>89.2</ele>
        <time>2021-03-20T01:41:56</time>
      </trkpt>
      <trkpt lat="41.2189004290849" lon="-8.63696247339249">
        <ele>89.4</ele>
        <time>2021-03-20T01:41:57</time>
      </trkpt>
      <trkpt lat="41.2188237346709" lon="-8.63692752085626">
        <ele>89.6</ele>
        <time>2021-03-20T01:41:58</time>
      </trkpt>
      <trkpt lat="41.2187709286809" lon="-8.63688980229199">
        <ele>89.8</ele>
        <time>2021-03-20T01:41:59</time>
      </trkpt>
      <trkpt lat="41.2187266722322" lon="-8.63686826080084">
        <ele>90</ele>
        <time>2021-03-20T01:42:00</time>
      </trkpt>
      <trkpt lat="41.21866020374" lon="-8.63682400435209">
        <ele>90</ele>
        <time>2021-03-20T01:42:01</time>
      </trkpt>
      <trkpt lat="41.2185785640031" lon="-8.63677421584725">
        <ele>90</ele>
        <time>2021-03-20T01:42:02</time>
      </trkpt>
      <trkpt lat="41.2185079045594" lon="-8.63673079758882">
        <ele>90</ele>
        <time>2021-03-20T01:42:03</time>
      </trkpt>
      <trkpt lat="41.2184509076178" lon="-8.63670372404158">
        <ele>90.6</ele>
        <time>2021-03-20T01:42:04</time>
      </trkpt>
      <trkpt lat="41.2183829303831" lon="-8.6366614792496">
        <ele>91</ele>
        <time>2021-03-20T01:42:05</time>
      </trkpt>
      <trkpt lat="41.2183182220906" lon="-8.63662116229534">
        <ele>91.2</ele>
        <time>2021-03-20T01:42:06</time>
      </trkpt>
      <trkpt lat="41.2182825990021" lon="-8.6365975253284">
        <ele>91.6</ele>
        <time>2021-03-20T01:42:07</time>
      </trkpt>
      <trkpt lat="41.2182235904038" lon="-8.63657045178115">
        <ele>91.6</ele>
        <time>2021-03-20T01:42:08</time>
      </trkpt>
      <trkpt lat="41.2181602232158" lon="-8.63653650507331">
        <ele>91.6</ele>
        <time>2021-03-20T01:42:09</time>
      </trkpt>
      <trkpt lat="41.2180828582495" lon="-8.63648470491171">
        <ele>91.8</ele>
        <time>2021-03-20T01:42:10</time>
      </trkpt>
      <trkpt lat="41.2180307228118" lon="-8.63644547760486">
        <ele>92</ele>
        <time>2021-03-20T01:42:11</time>
      </trkpt>
      <trkpt lat="41.2179510947317" lon="-8.63639946095646">
        <ele>92.2</ele>
        <time>2021-03-20T01:42:12</time>
      </trkpt>
      <trkpt lat="41.2178976181895" lon="-8.63636928610504">
        <ele>92.6</ele>
        <time>2021-03-20T01:42:13</time>
      </trkpt>
      <trkpt lat="41.2178266234696" lon="-8.63632947206497">
        <ele>92.8</ele>
        <time>2021-03-20T01:42:14</time>
      </trkpt>
      <trkpt lat="41.2177553772926" lon="-8.63628848455846">
        <ele>93</ele>
        <time>2021-03-20T01:42:15</time>
      </trkpt>
      <trkpt lat="41.2177181616426" lon="-8.63627649843693">
        <ele>93</ele>
        <time>2021-03-20T01:42:16</time>
      </trkpt>
      <trkpt lat="41.2176252063364" lon="-8.63625152036548">
        <ele>93.2</ele>
        <time>2021-03-20T01:42:17</time>
      </trkpt>
      <trkpt lat="41.2175651080906" lon="-8.63622427918017">
        <ele>93.4</ele>
        <time>2021-03-20T01:42:18</time>
      </trkpt>
      <trkpt lat="41.2174916826189" lon="-8.63618371076882">
        <ele>93.6</ele>
        <time>2021-03-20T01:42:19</time>
      </trkpt>
      <trkpt lat="41.2174341827631" lon="-8.63618069328368">
        <ele>93.8</ele>
        <time>2021-03-20T01:42:20</time>
      </trkpt>
      <trkpt lat="41.2173681333661" lon="-8.63614699803293">
        <ele>94</ele>
        <time>2021-03-20T01:42:21</time>
      </trkpt>
      <trkpt lat="41.2172875832766" lon="-8.6360930185765">
        <ele>94</ele>
        <time>2021-03-20T01:42:22</time>
      </trkpt>
      <trkpt lat="41.2172201927751" lon="-8.63606401719153">
        <ele>94.2</ele>
        <time>2021-03-20T01:42:23</time>
      </trkpt>
      <trkpt lat="41.2171600945294" lon="-8.63603015430272">
        <ele>94.6</ele>
        <time>2021-03-20T01:42:24</time>
      </trkpt>
      <trkpt lat="41.2170623615384" lon="-8.6359775159508">
        <ele>94.8</ele>
        <time>2021-03-20T01:42:25</time>
      </trkpt>
      <trkpt lat="41.2170171830803" lon="-8.63595547154546">
        <ele>94.8</ele>
        <time>2021-03-20T01:42:26</time>
      </trkpt>
      <trkpt lat="41.2169522233307" lon="-8.63591766916216">
        <ele>95</ele>
        <time>2021-03-20T01:42:27</time>
      </trkpt>
      <trkpt lat="41.2168871797621" lon="-8.63587819039822">
        <ele>95.2</ele>
        <time>2021-03-20T01:42:28</time>
      </trkpt>
      <trkpt lat="41.216815430671" lon="-8.63584726117551">
        <ele>95.2</ele>
        <time>2021-03-20T01:42:29</time>
      </trkpt>
      <trkpt lat="41.2167539075017" lon="-8.63581398501992">
        <ele>95.6</ele>
        <time>2021-03-20T01:42:30</time>
      </trkpt>
      <trkpt lat="41.2166964076459" lon="-8.63578515127301">
        <ele>95.8</ele>
        <time>2021-03-20T01:42:31</time>
      </trkpt>
      <trkpt lat="41.2166210543364" lon="-8.63575648516416">
        <ele>95.8</ele>
        <time>2021-03-20T01:42:32</time>
      </trkpt>
      <trkpt lat="41.216577719897" lon="-8.63574567250907">
        <ele>95.8</ele>
        <time>2021-03-20T01:42:33</time>
      </trkpt>
      <trkpt lat="41.2164841778576" lon="-8.63568515516818">
        <ele>96</ele>
        <time>2021-03-20T01:42:34</time>
      </trkpt>
      <trkpt lat="41.2164225708693" lon="-8.63569672219455">
        <ele>96.2</ele>
        <time>2021-03-20T01:42:35</time>
      </trkpt>
      <trkpt lat="41.2163597065955" lon="-8.63569001667202">
        <ele>96.2</ele>
        <time>2021-03-20T01:42:36</time>
      </trkpt>
      <trkpt lat="41.2162871193141" lon="-8.63567425869405">
        <ele>96.6</ele>
        <time>2021-03-20T01:42:37</time>
      </trkpt>
      <trkpt lat="41.2162141129374" lon="-8.63567618653178">
        <ele>96.8</ele>
        <time>2021-03-20T01:42:38</time>
      </trkpt>
      <trkpt lat="41.2161421123892" lon="-8.63563075661659">
        <ele>96.6</ele>
        <time>2021-03-20T01:42:39</time>
      </trkpt>
      <trkpt lat="41.2160760629922" lon="-8.63562270998955">
        <ele>96.6</ele>
        <time>2021-03-20T01:42:40</time>
      </trkpt>
      <trkpt lat="41.216012109071" lon="-8.63560929894447">
        <ele>96.8</ele>
        <time>2021-03-20T01:42:41</time>
      </trkpt>
      <trkpt lat="41.2159586325288" lon="-8.63563419319689">
        <ele>97</ele>
        <time>2021-03-20T01:42:42</time>
      </trkpt>
      <trkpt lat="41.2159080896527" lon="-8.63564701750874">
        <ele>97.2</ele>
        <time>2021-03-20T01:42:43</time>
      </trkpt>
      <trkpt lat="41.2158421240747" lon="-8.63563796505332">
        <ele>97.2</ele>
        <time>2021-03-20T01:42:44</time>
      </trkpt>
      <trkpt lat="41.2157976999879" lon="-8.63565246574581">
        <ele>97</ele>
        <time>2021-03-20T01:42:45</time>
      </trkpt>
      <trkpt lat="41.2157374341041" lon="-8.63564131781459">
        <ele>97.2</ele>
        <time>2021-03-20T01:42:46</time>
      </trkpt>
      <trkpt lat="41.2156634218991" lon="-8.635592199862">
        <ele>97</ele>
        <time>2021-03-20T01:42:47</time>
      </trkpt>
      <trkpt lat="41.215597204864" lon="-8.6355924513191">
        <ele>97.4</ele>
        <time>2021-03-20T01:42:48</time>
      </trkpt>
      <trkpt lat="41.2155435606837" lon="-8.6355610191822">
        <ele>97.2</ele>
        <time>2021-03-20T01:42:49</time>
      </trkpt>
      <trkpt lat="41.2154547125101" lon="-8.63551500253379">
        <ele>97.4</ele>
        <time>2021-03-20T01:42:50</time>
      </trkpt>
      <trkpt lat="41.2153953686357" lon="-8.63547594286501">
        <ele>97.4</ele>
        <time>2021-03-20T01:42:51</time>
      </trkpt>
      <trkpt lat="41.215316914022" lon="-8.63542774692178">
        <ele>97.6</ele>
        <time>2021-03-20T01:42:52</time>
      </trkpt>
      <trkpt lat="41.2152600847185" lon="-8.63543101586401">
        <ele>97.4</ele>
        <time>2021-03-20T01:42:53</time>
      </trkpt>
      <trkpt lat="41.2151827197522" lon="-8.63538768142462">
        <ele>97.4</ele>
        <time>2021-03-20T01:42:54</time>
      </trkpt>
      <trkpt lat="41.2151191849262" lon="-8.63534945994616">
        <ele>97.2</ele>
        <time>2021-03-20T01:42:55</time>
      </trkpt>
      <trkpt lat="41.2150193564594" lon="-8.63530101254582">
        <ele>97.2</ele>
        <time>2021-03-20T01:42:56</time>
      </trkpt>
      <trkpt lat="41.2149421591312" lon="-8.63525725901127">
        <ele>97.4</ele>
        <time>2021-03-20T01:42:57</time>
      </trkpt>
      <trkpt lat="41.2148741818964" lon="-8.63522121682763">
        <ele>97.4</ele>
        <time>2021-03-20T01:42:58</time>
      </trkpt>
      <trkpt lat="41.2148156762123" lon="-8.63520830869675">
        <ele>97.4</ele>
        <time>2021-03-20T01:42:59</time>
      </trkpt>
      <trkpt lat="41.2147651333362" lon="-8.63519875332713">
        <ele>97.2</ele>
        <time>2021-03-20T01:43:00</time>
      </trkpt>
      <trkpt lat="41.214693216607" lon="-8.6351727694273">
        <ele>97.4</ele>
        <time>2021-03-20T01:43:01</time>
      </trkpt>
      <trkpt lat="41.2146451883018" lon="-8.63516732119024">
        <ele>97.4</ele>
        <time>2021-03-20T01:43:02</time>
      </trkpt>
      <trkpt lat="41.2145839165896" lon="-8.63514829427004">
        <ele>97.4</ele>
        <time>2021-03-20T01:43:03</time>
      </trkpt>
      <trkpt lat="41.2145296018571" lon="-8.6351484619081">
        <ele>97.6</ele>
        <time>2021-03-20T01:43:04</time>
      </trkpt>
      <trkpt lat="41.2144588585943" lon="-8.63507528789341">
        <ele>97.4</ele>
        <time>2021-03-20T01:43:05</time>
      </trkpt>
      <trkpt lat="41.2143854331225" lon="-8.63504268229008">
        <ele>97.6</ele>
        <time>2021-03-20T01:43:06</time>
      </trkpt>
      <trkpt lat="41.2143041286618" lon="-8.63500731065869">
        <ele>97.6</ele>
        <time>2021-03-20T01:43:07</time>
      </trkpt>
      <trkpt lat="41.2142525799572" lon="-8.63500747829676">
        <ele>97.6</ele>
        <time>2021-03-20T01:43:08</time>
      </trkpt>
      <trkpt lat="41.2142018694431" lon="-8.63498602062464">
        <ele>98</ele>
        <time>2021-03-20T01:43:09</time>
      </trkpt>
      <trkpt lat="41.214122409001" lon="-8.63496749661863">
        <ele>98.2</ele>
        <time>2021-03-20T01:43:10</time>
      </trkpt>
      <trkpt lat="41.2140603829175" lon="-8.63491619937122">
        <ele>97.8</ele>
        <time>2021-03-20T01:43:11</time>
      </trkpt>
      <trkpt lat="41.2139726243913" lon="-8.63485970534384">
        <ele>97.8</ele>
        <time>2021-03-20T01:43:12</time>
      </trkpt>
      <trkpt lat="41.2139126099646" lon="-8.63485216163099">
        <ele>97.8</ele>
        <time>2021-03-20T01:43:13</time>
      </trkpt>
      <trkpt lat="41.2138086743653" lon="-8.6347877047956">
        <ele>98</ele>
        <time>2021-03-20T01:43:14</time>
      </trkpt>
      <trkpt lat="41.213757628575" lon="-8.63475878722966">
        <ele>98.2</ele>
        <time>2021-03-20T01:43:15</time>
      </trkpt>
      <trkpt lat="41.2136489152908" lon="-8.63468821160495">
        <ele>98.2</ele>
        <time>2021-03-20T01:43:16</time>
      </trkpt>
      <trkpt lat="41.2136030662805" lon="-8.63467597402632">
        <ele>98.4</ele>
        <time>2021-03-20T01:43:17</time>
      </trkpt>
      <trkpt lat="41.2135233543813" lon="-8.63463867455721">
        <ele>98.4</ele>
        <time>2021-03-20T01:43:18</time>
      </trkpt>
      <trkpt lat="41.2134456541389" lon="-8.6345805041492">
        <ele>98.6</ele>
        <time>2021-03-20T01:43:19</time>
      </trkpt>
      <trkpt lat="41.2133838795126" lon="-8.63455829210579">
        <ele>98.6</ele>
        <time>2021-03-20T01:43:20</time>
      </trkpt>
      <trkpt lat="41.2133406288922" lon="-8.63454144448042">
        <ele>98.6</ele>
        <time>2021-03-20T01:43:21</time>
      </trkpt>
      <trkpt lat="41.2132722325623" lon="-8.63448796793818">
        <ele>98.8</ele>
        <time>2021-03-20T01:43:22</time>
      </trkpt>
      <trkpt lat="41.2131909281015" lon="-8.6344338208437">
        <ele>99</ele>
        <time>2021-03-20T01:43:23</time>
      </trkpt>
      <trkpt lat="41.2131290696561" lon="-8.63435829989612">
        <ele>99</ele>
        <time>2021-03-20T01:43:24</time>
      </trkpt>
      <trkpt lat="41.2130698934197" lon="-8.63433097489178">
        <ele>99</ele>
        <time>2021-03-20T01:43:25</time>
      </trkpt>
      <trkpt lat="41.2130118906498" lon="-8.63430381752551">
        <ele>99.2</ele>
        <time>2021-03-20T01:43:26</time>
      </trkpt>
      <trkpt lat="41.2129547260702" lon="-8.63427397795022">
        <ele>99.4</ele>
        <time>2021-03-20T01:43:27</time>
      </trkpt>
      <trkpt lat="41.2128493655473" lon="-8.63420952111483">
        <ele>99.6</ele>
        <time>2021-03-20T01:43:28</time>
      </trkpt>
      <trkpt lat="41.2127685640007" lon="-8.63416065461934">
        <ele>99.6</ele>
        <time>2021-03-20T01:43:29</time>
      </trkpt>
      <trkpt lat="41.2127309292555" lon="-8.63413718529046">
        <ele>99.6</ele>
        <time>2021-03-20T01:43:30</time>
      </trkpt>
      <trkpt lat="41.2126672267914" lon="-8.63408228382468">
        <ele>99.6</ele>
        <time>2021-03-20T01:43:31</time>
      </trkpt>
      <trkpt lat="41.2126196175814" lon="-8.63405370153487">
        <ele>99.8</ele>
        <time>2021-03-20T01:43:32</time>
      </trkpt>
      <trkpt lat="41.2125291768461" lon="-8.63400927744806">
        <ele>99.6</ele>
        <time>2021-03-20T01:43:33</time>
      </trkpt>
      <trkpt lat="41.212470587343" lon="-8.63397818058729">
        <ele>99.6</ele>
        <time>2021-03-20T01:43:34</time>
      </trkpt>
      <trkpt lat="41.2123883608729" lon="-8.6339361872524">
        <ele>99.4</ele>
        <time>2021-03-20T01:43:35</time>
      </trkpt>
      <trkpt lat="41.2123196292669" lon="-8.63389595411718">
        <ele>99</ele>
        <time>2021-03-20T01:43:36</time>
      </trkpt>
      <trkpt lat="41.2122545856982" lon="-8.633863767609">
        <ele>99</ele>
        <time>2021-03-20T01:43:37</time>
      </trkpt>
      <trkpt lat="41.2121949065477" lon="-8.63382864743471">
        <ele>99</ele>
        <time>2021-03-20T01:43:38</time>
      </trkpt>
      <trkpt lat="41.2121415976435" lon="-8.63381121307611">
        <ele>99</ele>
        <time>2021-03-20T01:43:39</time>
      </trkpt>
      <trkpt lat="41.2120654061437" lon="-8.63376980647445">
        <ele>98.8</ele>
        <time>2021-03-20T01:43:40</time>
      </trkpt>
      <trkpt lat="41.2119746301323" lon="-8.63370417617261">
        <ele>99</ele>
        <time>2021-03-20T01:43:41</time>
      </trkpt>
      <trkpt lat="41.2119048926979" lon="-8.63368296995759">
        <ele>98.6</ele>
        <time>2021-03-20T01:43:42</time>
      </trkpt>
      <trkpt lat="41.211844375357" lon="-8.63365422002971">
        <ele>98.6</ele>
        <time>2021-03-20T01:43:43</time>
      </trkpt>
      <trkpt lat="41.2117912340909" lon="-8.63358867354691">
        <ele>98.8</ele>
        <time>2021-03-20T01:43:44</time>
      </trkpt>
      <trkpt lat="41.2117205746472" lon="-8.63356017507613">
        <ele>98.4</ele>
        <time>2021-03-20T01:43:45</time>
      </trkpt>
      <trkpt lat="41.2116490770131" lon="-8.63351365551352">
        <ele>98.2</ele>
        <time>2021-03-20T01:43:46</time>
      </trkpt>
      <trkpt lat="41.2115707062185" lon="-8.63346026279032">
        <ele>98.4</ele>
        <time>2021-03-20T01:43:47</time>
      </trkpt>
      <trkpt lat="41.2114958558232" lon="-8.6334422416985">
        <ele>98.4</ele>
        <time>2021-03-20T01:43:48</time>
      </trkpt>
      <trkpt lat="41.2114229332656" lon="-8.6334113124758">
        <ele>98</ele>
        <time>2021-03-20T01:43:49</time>
      </trkpt>
      <trkpt lat="41.2113504298031" lon="-8.63337845541537">
        <ele>97.8</ele>
        <time>2021-03-20T01:43:50</time>
      </trkpt>
      <trkpt lat="41.2112706340849" lon="-8.63327267579734">
        <ele>97.6</ele>
        <time>2021-03-20T01:43:51</time>
      </trkpt>
      <trkpt lat="41.211196705699" lon="-8.63322699442506">
        <ele>97.2</ele>
        <time>2021-03-20T01:43:52</time>
      </trkpt>
      <trkpt lat="41.2111501861364" lon="-8.63319916650653">
        <ele>97.2</ele>
        <time>2021-03-20T01:43:53</time>
      </trkpt>
      <trkpt lat="41.2110703904182" lon="-8.63316731527448">
        <ele>97.2</ele>
        <time>2021-03-20T01:43:54</time>
      </trkpt>
      <trkpt lat="41.2109946180135" lon="-8.63314594142139">
        <ele>97</ele>
        <time>2021-03-20T01:43:55</time>
      </trkpt>
      <trkpt lat="41.2109164148569" lon="-8.63313077017665">
        <ele>96.6</ele>
        <time>2021-03-20T01:43:56</time>
      </trkpt>
      <trkpt lat="41.2108460906893" lon="-8.6331002600491">
        <ele>96.6</ele>
        <time>2021-03-20T01:43:57</time>
      </trkpt>
      <trkpt lat="41.2107761017978" lon="-8.6330782994628">
        <ele>96.6</ele>
        <time>2021-03-20T01:43:58</time>
      </trkpt>
      <trkpt lat="41.2107110582292" lon="-8.63306044600904">
        <ele>96.2</ele>
        <time>2021-03-20T01:43:59</time>
      </trkpt>
      <trkpt lat="41.2106596771628" lon="-8.63305365666747">
        <ele>95.8</ele>
        <time>2021-03-20T01:44:00</time>
      </trkpt>
      <trkpt lat="41.2105927057564" lon="-8.63305072300136">
        <ele>95.6</ele>
        <time>2021-03-20T01:44:01</time>
      </trkpt>
      <trkpt lat="41.2105188611895" lon="-8.63305080682039">
        <ele>95</ele>
        <time>2021-03-20T01:44:02</time>
      </trkpt>
      <trkpt lat="41.2104338686913" lon="-8.63305751234293">
        <ele>94.6</ele>
        <time>2021-03-20T01:44:03</time>
      </trkpt>
      <trkpt lat="41.2103846669197" lon="-8.63306069746614">
        <ele>94.4</ele>
        <time>2021-03-20T01:44:04</time>
      </trkpt>
      <trkpt lat="41.2103125825524" lon="-8.63306321203709">
        <ele>93.6</ele>
        <time>2021-03-20T01:44:05</time>
      </trkpt>
      <trkpt lat="41.2102316971868" lon="-8.63306480459869">
        <ele>93.4</ele>
        <time>2021-03-20T01:44:06</time>
      </trkpt>
      <trkpt lat="41.2101372331381" lon="-8.63305265083909">
        <ele>93</ele>
        <time>2021-03-20T01:44:07</time>
      </trkpt>
      <trkpt lat="41.2100751232356" lon="-8.63305826671422">
        <ele>92.6</ele>
        <time>2021-03-20T01:44:08</time>
      </trkpt>
      <trkpt lat="41.2099856883287" lon="-8.63306145183742">
        <ele>92.4</ele>
        <time>2021-03-20T01:44:09</time>
      </trkpt>
      <trkpt lat="41.2098949123174" lon="-8.63304644823074">
        <ele>92.4</ele>
        <time>2021-03-20T01:44:10</time>
      </trkpt>
      <trkpt lat="41.2098361551762" lon="-8.63308802247048">
        <ele>92.4</ele>
        <time>2021-03-20T01:44:11</time>
      </trkpt>
      <trkpt lat="41.2097689323127" lon="-8.6330968234688">
        <ele>92</ele>
        <time>2021-03-20T01:44:12</time>
      </trkpt>
      <trkpt lat="41.2096965964884" lon="-8.63310445100069">
        <ele>91.8</ele>
        <time>2021-03-20T01:44:13</time>
      </trkpt>
      <trkpt lat="41.2096307147294" lon="-8.63311702385545">
        <ele>91.2</ele>
        <time>2021-03-20T01:44:14</time>
      </trkpt>
      <trkpt lat="41.2095320597291" lon="-8.63306664861739">
        <ele>90.2</ele>
        <time>2021-03-20T01:44:15</time>
      </trkpt>
      <trkpt lat="41.2094506714493" lon="-8.63309414125979">
        <ele>89.4</ele>
        <time>2021-03-20T01:44:16</time>
      </trkpt>
      <trkpt lat="41.2093656789511" lon="-8.63308726809919">
        <ele>89.4</ele>
        <time>2021-03-20T01:44:17</time>
      </trkpt>
      <trkpt lat="41.2092811055481" lon="-8.63308047875762">
        <ele>88.8</ele>
        <time>2021-03-20T01:44:18</time>
      </trkpt>
      <trkpt lat="41.2092039082199" lon="-8.63308374769986">
        <ele>88.6</ele>
        <time>2021-03-20T01:44:19</time>
      </trkpt>
      <trkpt lat="41.2091253697872" lon="-8.63308877684176">
        <ele>88.4</ele>
        <time>2021-03-20T01:44:20</time>
      </trkpt>
      <trkpt lat="41.2090470828116" lon="-8.63309280015528">
        <ele>88</ele>
        <time>2021-03-20T01:44:21</time>
      </trkpt>
      <trkpt lat="41.2089718971401" lon="-8.63309598527849">
        <ele>87.2</ele>
        <time>2021-03-20T01:44:22</time>
      </trkpt>
      <trkpt lat="41.2088941968977" lon="-8.63309824839234">
        <ele>86.6</ele>
        <time>2021-03-20T01:44:23</time>
      </trkpt>
      <trkpt lat="41.2088145688176" lon="-8.63309565000236">
        <ele>86</ele>
        <time>2021-03-20T01:44:24</time>
      </trkpt>
      <trkpt lat="41.2087398860604" lon="-8.63309095613658">
        <ele>85.8</ele>
        <time>2021-03-20T01:44:25</time>
      </trkpt>
      <trkpt lat="41.2086641974747" lon="-8.63310319371521">
        <ele>85.4</ele>
        <time>2021-03-20T01:44:26</time>
      </trkpt>
      <trkpt lat="41.2085870839655" lon="-8.63310621120036">
        <ele>85.2</ele>
        <time>2021-03-20T01:44:27</time>
      </trkpt>
      <trkpt lat="41.2085135746747" lon="-8.63310880959034">
        <ele>84.6</ele>
        <time>2021-03-20T01:44:28</time>
      </trkpt>
      <trkpt lat="41.2084371317178" lon="-8.63311870023608">
        <ele>84.4</ele>
        <time>2021-03-20T01:44:29</time>
      </trkpt>
      <trkpt lat="41.2083488702774" lon="-8.63312347792089">
        <ele>84.2</ele>
        <time>2021-03-20T01:44:30</time>
      </trkpt>
      <trkpt lat="41.2082901969552" lon="-8.63313127309084">
        <ele>84.2</ele>
        <time>2021-03-20T01:44:31</time>
      </trkpt>
      <trkpt lat="41.2081966549158" lon="-8.63312766887248">
        <ele>84</ele>
        <time>2021-03-20T01:44:32</time>
      </trkpt>
      <trkpt lat="41.2080989219248" lon="-8.63314275629818">
        <ele>83.8</ele>
        <time>2021-03-20T01:44:33</time>
      </trkpt>
      <trkpt lat="41.2080260831863" lon="-8.63313529640436">
        <ele>83.6</ele>
        <time>2021-03-20T01:44:34</time>
      </trkpt>
      <trkpt lat="41.2079376541078" lon="-8.6331367213279">
        <ele>83.4</ele>
        <time>2021-03-20T01:44:35</time>
      </trkpt>
      <trkpt lat="41.2078306172043" lon="-8.63314250484109">
        <ele>83.2</ele>
        <time>2021-03-20T01:44:36</time>
      </trkpt>
      <trkpt lat="41.2077443674207" lon="-8.63315130583942">
        <ele>83</ele>
        <time>2021-03-20T01:44:37</time>
      </trkpt>
      <trkpt lat="41.2076588720083" lon="-8.63315516151488">
        <ele>82.8</ele>
        <time>2021-03-20T01:44:38</time>
      </trkpt>
      <trkpt lat="41.2075556907803" lon="-8.6331504676491">
        <ele>82.8</ele>
        <time>2021-03-20T01:44:39</time>
      </trkpt>
      <trkpt lat="41.2074620649219" lon="-8.63315817900002">
        <ele>83</ele>
        <time>2021-03-20T01:44:40</time>
      </trkpt>
      <trkpt lat="41.2074038945138" lon="-8.63317267969251">
        <ele>83</ele>
        <time>2021-03-20T01:44:41</time>
      </trkpt>
      <trkpt lat="41.207314375788" lon="-8.63317670300603">
        <ele>82.8</ele>
        <time>2021-03-20T01:44:42</time>
      </trkpt>
      <trkpt lat="41.2072261981666" lon="-8.63318424671888">
        <ele>82.6</ele>
        <time>2021-03-20T01:44:43</time>
      </trkpt>
      <trkpt lat="41.2071297224611" lon="-8.63320101052523">
        <ele>82.6</ele>
        <time>2021-03-20T01:44:44</time>
      </trkpt>
      <trkpt lat="41.2070383597165" lon="-8.63319598138332">
        <ele>83</ele>
        <time>2021-03-20T01:44:45</time>
      </trkpt>
      <trkpt lat="41.2067536264658" lon="-8.63318701274693">
        <ele>82.8</ele>
        <time>2021-03-20T01:44:46</time>
      </trkpt>
      <trkpt lat="41.2066476792097" lon="-8.63319296389818">
        <ele>83.2</ele>
        <time>2021-03-20T01:44:47</time>
      </trkpt>
      <trkpt lat="41.2065272312611" lon="-8.63317770883441">
        <ele>83.4</ele>
        <time>2021-03-20T01:44:48</time>
      </trkpt>
      <trkpt lat="41.2064257264137" lon="-8.63317930139601">
        <ele>83.6</ele>
        <time>2021-03-20T01:44:49</time>
      </trkpt>
      <trkpt lat="41.2063481938094" lon="-8.63318114541471">
        <ele>84</ele>
        <time>2021-03-20T01:44:50</time>
      </trkpt>
      <trkpt lat="41.20625465177" lon="-8.6332025192678">
        <ele>84.2</ele>
        <time>2021-03-20T01:44:51</time>
      </trkpt>
      <trkpt lat="41.2061483692378" lon="-8.63320721313357">
        <ele>84.6</ele>
        <time>2021-03-20T01:44:52</time>
      </trkpt>
      <trkpt lat="41.2060434278101" lon="-8.63321995362639">
        <ele>85</ele>
        <time>2021-03-20T01:44:53</time>
      </trkpt>
      <trkpt lat="41.2059653922915" lon="-8.63322598859668">
        <ele>85</ele>
        <time>2021-03-20T01:44:54</time>
      </trkpt>
      <trkpt lat="41.2058684136718" lon="-8.63324065692723">
        <ele>85.2</ele>
        <time>2021-03-20T01:44:55</time>
      </trkpt>
      <trkpt lat="41.2057650648057" lon="-8.63324669189751">
        <ele>85.6</ele>
        <time>2021-03-20T01:44:56</time>
      </trkpt>
      <trkpt lat="41.2056549265981" lon="-8.6332524754107">
        <ele>85.8</ele>
        <time>2021-03-20T01:44:57</time>
      </trkpt>
      <trkpt lat="41.2055732030422" lon="-8.63325666636229">
        <ele>86.2</ele>
        <time>2021-03-20T01:44:58</time>
      </trkpt>
      <trkpt lat="41.2054681777954" lon="-8.63326320424676">
        <ele>86.4</ele>
        <time>2021-03-20T01:44:59</time>
      </trkpt>
      <trkpt lat="41.2053577043116" lon="-8.63326370716095">
        <ele>86.6</ele>
        <time>2021-03-20T01:45:00</time>
      </trkpt>
      <trkpt lat="41.2052524276078" lon="-8.63327016122639">
        <ele>86.8</ele>
        <time>2021-03-20T01:45:01</time>
      </trkpt>
      <trkpt lat="41.205171123147" lon="-8.63327376544476">
        <ele>86.8</ele>
        <time>2021-03-20T01:45:02</time>
      </trkpt>
      <trkpt lat="41.205065427348" lon="-8.63327728584409">
        <ele>86.8</ele>
        <time>2021-03-20T01:45:03</time>
      </trkpt>
      <trkpt lat="41.2049609050155" lon="-8.63328047096729">
        <ele>87.2</ele>
        <time>2021-03-20T01:45:04</time>
      </trkpt>
      <trkpt lat="41.2048552092165" lon="-8.63328449428082">
        <ele>87.2</ele>
        <time>2021-03-20T01:45:05</time>
      </trkpt>
      <trkpt lat="41.2047780957073" lon="-8.63329078070819">
        <ele>87.2</ele>
        <time>2021-03-20T01:45:06</time>
      </trkpt>
      <trkpt lat="41.2046823743731" lon="-8.63330880180001">
        <ele>87.4</ele>
        <time>2021-03-20T01:45:07</time>
      </trkpt>
      <trkpt lat="41.2045786064118" lon="-8.63331718370318">
        <ele>87.8</ele>
        <time>2021-03-20T01:45:08</time>
      </trkpt>
      <trkpt lat="41.2044751737267" lon="-8.63332045264542">
        <ele>88.2</ele>
        <time>2021-03-20T01:45:09</time>
      </trkpt>
      <trkpt lat="41.2043936178088" lon="-8.63332120701671">
        <ele>88.4</ele>
        <time>2021-03-20T01:45:10</time>
      </trkpt>
      <trkpt lat="41.2042906880379" lon="-8.6333301756531">
        <ele>88.6</ele>
        <time>2021-03-20T01:45:11</time>
      </trkpt>
      <trkpt lat="41.2041802145541" lon="-8.63332682289183">
        <ele>88.8</ele>
        <time>2021-03-20T01:45:12</time>
      </trkpt>
      <trkpt lat="41.204071668908" lon="-8.63332824781537">
        <ele>89</ele>
        <time>2021-03-20T01:45:13</time>
      </trkpt>
      <trkpt lat="41.2039655540138" lon="-8.63333118148148">
        <ele>89.2</ele>
        <time>2021-03-20T01:45:14</time>
      </trkpt>
      <trkpt lat="41.2038891110569" lon="-8.63333721645176">
        <ele>89.4</ele>
        <time>2021-03-20T01:45:15</time>
      </trkpt>
      <trkpt lat="41.2037839181721" lon="-8.63334098830819">
        <ele>89.6</ele>
        <time>2021-03-20T01:45:16</time>
      </trkpt>
      <trkpt lat="41.2036775518209" lon="-8.6333455145359">
        <ele>89.8</ele>
        <time>2021-03-20T01:45:17</time>
      </trkpt>
      <trkpt lat="41.2035751249641" lon="-8.63335364498198">
        <ele>90</ele>
        <time>2021-03-20T01:45:18</time>
      </trkpt>
      <trkpt lat="41.203498179093" lon="-8.63335875794292">
        <ele>90.2</ele>
        <time>2021-03-20T01:45:19</time>
      </trkpt>
      <trkpt lat="41.2033970933408" lon="-8.63336697220802">
        <ele>90.4</ele>
        <time>2021-03-20T01:45:20</time>
      </trkpt>
      <trkpt lat="41.2032959237695" lon="-8.63337677903474">
        <ele>90.6</ele>
        <time>2021-03-20T01:45:21</time>
      </trkpt>
      <trkpt lat="41.2031945865601" lon="-8.63337895832956">
        <ele>90.6</ele>
        <time>2021-03-20T01:45:22</time>
      </trkpt>
      <trkpt lat="41.2030997034162" lon="-8.63337920978665">
        <ele>90.8</ele>
        <time>2021-03-20T01:45:23</time>
      </trkpt>
      <trkpt lat="41.2030054070056" lon="-8.63337644375861">
        <ele>91</ele>
        <time>2021-03-20T01:45:24</time>
      </trkpt>
      <trkpt lat="41.2029153853655" lon="-8.63337677903474">
        <ele>91.4</ele>
        <time>2021-03-20T01:45:25</time>
      </trkpt>
      <trkpt lat="41.2028283812106" lon="-8.6333838198334">
        <ele>91.4</ele>
        <time>2021-03-20T01:45:26</time>
      </trkpt>
      <trkpt lat="41.2027464061976" lon="-8.63340226002038">
        <ele>92.2</ele>
        <time>2021-03-20T01:45:27</time>
      </trkpt>
      <trkpt lat="41.2026653531939" lon="-8.63340921700001">
        <ele>92.4</ele>
        <time>2021-03-20T01:45:28</time>
      </trkpt>
      <trkpt lat="41.2025769241154" lon="-8.63341399468482">
        <ele>92.6</ele>
        <time>2021-03-20T01:45:29</time>
      </trkpt>
      <trkpt lat="41.2024958711118" lon="-8.63341877236962">
        <ele>93</ele>
        <time>2021-03-20T01:45:30</time>
      </trkpt>
      <trkpt lat="41.2024073582143" lon="-8.63342329859734">
        <ele>93.6</ele>
        <time>2021-03-20T01:45:31</time>
      </trkpt>
      <trkpt lat="41.2023190967739" lon="-8.63342824392021">
        <ele>93.8</ele>
        <time>2021-03-20T01:45:32</time>
      </trkpt>
      <trkpt lat="41.2022425699979" lon="-8.63343779928982">
        <ele>94.2</ele>
        <time>2021-03-20T01:45:33</time>
      </trkpt>
      <trkpt lat="41.2021599244326" lon="-8.63344215787947">
        <ele>94.8</ele>
        <time>2021-03-20T01:45:34</time>
      </trkpt>
      <trkpt lat="41.2020699027926" lon="-8.63344366662204">
        <ele>95</ele>
        <time>2021-03-20T01:45:35</time>
      </trkpt>
      <trkpt lat="41.2019936274737" lon="-8.63345665857196">
        <ele>95.2</ele>
        <time>2021-03-20T01:45:36</time>
      </trkpt>
      <trkpt lat="41.2019103951752" lon="-8.63345850259066">
        <ele>95.6</ele>
        <time>2021-03-20T01:45:37</time>
      </trkpt>
      <trkpt lat="41.201835712418" lon="-8.63347518257797">
        <ele>96.2</ele>
        <time>2021-03-20T01:45:38</time>
      </trkpt>
      <trkpt lat="41.2017616163939" lon="-8.63348599523306">
        <ele>96.4</ele>
        <time>2021-03-20T01:45:39</time>
      </trkpt>
      <trkpt lat="41.2016901187599" lon="-8.63349228166044">
        <ele>96.8</ele>
        <time>2021-03-20T01:45:40</time>
      </trkpt>
      <trkpt lat="41.2016109097749" lon="-8.63350200466812">
        <ele>97</ele>
        <time>2021-03-20T01:45:41</time>
      </trkpt>
      <trkpt lat="41.2015347182751" lon="-8.63349680788815">
        <ele>97.4</ele>
        <time>2021-03-20T01:45:42</time>
      </trkpt>
      <trkpt lat="41.2014573533088" lon="-8.63349781371653">
        <ele>97.8</ele>
        <time>2021-03-20T01:45:43</time>
      </trkpt>
      <trkpt lat="41.2013810779899" lon="-8.63349228166044">
        <ele>98.2</ele>
        <time>2021-03-20T01:45:44</time>
      </trkpt>
      <trkpt lat="41.2012959178537" lon="-8.63347727805376">
        <ele>98.4</ele>
        <time>2021-03-20T01:45:45</time>
      </trkpt>
      <trkpt lat="41.2010892201215" lon="-8.63347828388214">
        <ele>99</ele>
        <time>2021-03-20T01:45:46</time>
      </trkpt>
      <trkpt lat="41.2010258529335" lon="-8.63347048871219">
        <ele>99.6</ele>
        <time>2021-03-20T01:45:47</time>
      </trkpt>
      <trkpt lat="41.2009386811405" lon="-8.63344651646912">
        <ele>99.8</ele>
        <time>2021-03-20T01:45:48</time>
      </trkpt>
      <trkpt lat="41.2008543591946" lon="-8.6334150005132">
        <ele>100</ele>
        <time>2021-03-20T01:45:49</time>
      </trkpt>
      <trkpt lat="41.2007712107152" lon="-8.63343771547079">
        <ele>100.2</ele>
        <time>2021-03-20T01:45:50</time>
      </trkpt>
      <trkpt lat="41.2007209192961" lon="-8.6334993224591">
        <ele>100.4</ele>
        <time>2021-03-20T01:45:51</time>
      </trkpt>
      <trkpt lat="41.2006616592407" lon="-8.63351667299867">
        <ele>101</ele>
        <time>2021-03-20T01:45:53</time>
      </trkpt>
      <trkpt lat="41.2005096115172" lon="-8.6335077881813">
        <ele>101.2</ele>
        <time>2021-03-20T01:45:55</time>
      </trkpt>
      <trkpt lat="41.200366364792" lon="-8.63348264247179">
        <ele>101.4</ele>
        <time>2021-03-20T01:45:56</time>
      </trkpt>
      <trkpt lat="41.2002936936915" lon="-8.63350594416261">
        <ele>101.8</ele>
        <time>2021-03-20T01:45:58</time>
      </trkpt>
      <trkpt lat="41.2001429032534" lon="-8.63350418396294">
        <ele>102.2</ele>
        <time>2021-03-20T01:46:00</time>
      </trkpt>
      <trkpt lat="41.1999661289156" lon="-8.63349001854658">
        <ele>102.4</ele>
        <time>2021-03-20T01:46:02</time>
      </trkpt>
      <trkpt lat="41.1997642088681" lon="-8.63350267522037">
        <ele>103</ele>
        <time>2021-03-20T01:46:03</time>
      </trkpt>
      <trkpt lat="41.1996694095433" lon="-8.63346965052188">
        <ele>103</ele>
        <time>2021-03-20T01:46:05</time>
      </trkpt>
      <trkpt lat="41.1995328683406" lon="-8.63344576209784">
        <ele>103.2</ele>
        <time>2021-03-20T01:46:07</time>
      </trkpt>
      <trkpt lat="41.1993863526732" lon="-8.63347250036895">
        <ele>103.4</ele>
        <time>2021-03-20T01:46:09</time>
      </trkpt>
      <trkpt lat="41.1992898769677" lon="-8.63353000022471">
        <ele>103.4</ele>
        <time>2021-03-20T01:46:10</time>
      </trkpt>
      <trkpt lat="41.1992022022605" lon="-8.63350099883974">
        <ele>103.8</ele>
        <time>2021-03-20T01:46:12</time>
      </trkpt>
      <trkpt lat="41.1990545969456" lon="-8.6335077881813">
        <ele>104</ele>
        <time>2021-03-20T01:46:14</time>
      </trkpt>
      <trkpt lat="41.198939178139" lon="-8.63351868465543">
        <ele>104.2</ele>
        <time>2021-03-20T01:46:15</time>
      </trkpt>
      <trkpt lat="41.1988623999059" lon="-8.63352128304541">
        <ele>104.4</ele>
        <time>2021-03-20T01:46:17</time>
      </trkpt>
      <trkpt lat="41.1987393535674" lon="-8.63352279178798">
        <ele>104.8</ele>
        <time>2021-03-20T01:46:18</time>
      </trkpt>
      <trkpt lat="41.1986681912094" lon="-8.63352899439633">
        <ele>104.8</ele>
        <time>2021-03-20T01:46:20</time>
      </trkpt>
      <trkpt lat="41.1985319014639" lon="-8.63353880122304">
        <ele>105</ele>
        <time>2021-03-20T01:46:21</time>
      </trkpt>
      <trkpt lat="41.1984775867313" lon="-8.6335426568985">
        <ele>105.2</ele>
        <time>2021-03-20T01:46:23</time>
      </trkpt>
      <trkpt lat="41.198342051357" lon="-8.63354299217462">
        <ele>105.2</ele>
        <time>2021-03-20T01:46:25</time>
      </trkpt>
      <trkpt lat="41.1982161551714" lon="-8.63355648703873">
        <ele>105.6</ele>
        <time>2021-03-20T01:46:27</time>
      </trkpt>
      <trkpt lat="41.1981081962585" lon="-8.63356981426478">
        <ele>105.8</ele>
        <time>2021-03-20T01:46:29</time>
      </trkpt>
      <trkpt lat="41.1979768518358" lon="-8.63357501104474">
        <ele>106</ele>
        <time>2021-03-20T01:46:31</time>
      </trkpt>
      <trkpt lat="41.197863696143" lon="-8.6335841473192">
        <ele>106</ele>
        <time>2021-03-20T01:46:32</time>
      </trkpt>
      <trkpt lat="41.1978077050298" lon="-8.63359495997429">
        <ele>106.2</ele>
        <time>2021-03-20T01:46:34</time>
      </trkpt>
      <trkpt lat="41.1977073736489" lon="-8.63363477401435">
        <ele>106</ele>
        <time>2021-03-20T01:46:35</time>
      </trkpt>
      <trkpt lat="41.1976532265544" lon="-8.63365245983004">
        <ele>106.4</ele>
        <time>2021-03-20T01:46:37</time>
      </trkpt>
      <trkpt lat="41.1975673958659" lon="-8.63369730301201">
        <ele>106.8</ele>
        <time>2021-03-20T01:46:38</time>
      </trkpt>
      <trkpt lat="41.1974684055895" lon="-8.63369076512754">
        <ele>106.8</ele>
        <time>2021-03-20T01:46:40</time>
      </trkpt>
      <trkpt lat="41.1973531544208" lon="-8.63366947509348">
        <ele>106.8</ele>
        <time>2021-03-20T01:46:41</time>
      </trkpt>
      <trkpt lat="41.1972922179848" lon="-8.63365648314357">
        <ele>107</ele>
        <time>2021-03-20T01:46:43</time>
      </trkpt>
      <trkpt lat="41.1971821635962" lon="-8.63366620615125">
        <ele>107.2</ele>
        <time>2021-03-20T01:46:44</time>
      </trkpt>
      <trkpt lat="41.1971293576062" lon="-8.63367500714958">
        <ele>107.4</ele>
        <time>2021-03-20T01:46:46</time>
      </trkpt>
      <trkpt lat="41.1969866976142" lon="-8.63364516757429">
        <ele>107.6</ele>
        <time>2021-03-20T01:46:48</time>
      </trkpt>
      <trkpt lat="41.196875218302" lon="-8.63364977762103">
        <ele>107.8</ele>
        <time>2021-03-20T01:46:49</time>
      </trkpt>
      <trkpt lat="41.1968315485865" lon="-8.63365614786744">
        <ele>108.4</ele>
        <time>2021-03-20T01:46:50</time>
      </trkpt>
      <trkpt lat="41.1967885494232" lon="-8.63367299549282">
        <ele>108.4</ele>
        <time>2021-03-20T01:46:51</time>
      </trkpt>
      <trkpt lat="41.1967401858419" lon="-8.63369897939265">
        <ele>108.6</ele>
        <time>2021-03-20T01:46:52</time>
      </trkpt>
      <trkpt lat="41.1966898944229" lon="-8.63370769657195">
        <ele>109</ele>
        <time>2021-03-20T01:46:53</time>
      </trkpt>
      <trkpt lat="41.1966463923454" lon="-8.6337136477232">
        <ele>109.2</ele>
        <time>2021-03-20T01:46:55</time>
      </trkpt>
      <trkpt lat="41.1965453904122" lon="-8.63370300270617">
        <ele>109.4</ele>
        <time>2021-03-20T01:46:56</time>
      </trkpt>
      <trkpt lat="41.1965035647154" lon="-8.63370300270617">
        <ele>109.6</ele>
        <time>2021-03-20T01:46:58</time>
      </trkpt>
      <trkpt lat="41.1964224278927" lon="-8.6337065231055">
        <ele>109.8</ele>
        <time>2021-03-20T01:47:00</time>
      </trkpt>
      <trkpt lat="41.196259399876" lon="-8.63371096551418">
        <ele>110</ele>
        <time>2021-03-20T01:47:02</time>
      </trkpt>
      <trkpt lat="41.1962164007127" lon="-8.63370166160166">
        <ele>110.2</ele>
        <time>2021-03-20T01:47:03</time>
      </trkpt>
      <trkpt lat="41.1961920931935" lon="-8.63370476290584">
        <ele>110.6</ele>
        <time>2021-03-20T01:47:04</time>
      </trkpt>
      <trkpt lat="41.1961451545358" lon="-8.63371901214123">
        <ele>110.8</ele>
        <time>2021-03-20T01:47:05</time>
      </trkpt>
      <trkpt lat="41.1960936896503" lon="-8.63372077234089">
        <ele>111.2</ele>
        <time>2021-03-20T01:47:06</time>
      </trkpt>
      <trkpt lat="41.1960545461625" lon="-8.63373074680567">
        <ele>111.8</ele>
        <time>2021-03-20T01:47:07</time>
      </trkpt>
      <trkpt lat="41.196002913639" lon="-8.63372831605375">
        <ele>112</ele>
        <time>2021-03-20T01:47:08</time>
      </trkpt>
      <trkpt lat="41.1959636025131" lon="-8.63369369879365">
        <ele>112.2</ele>
        <time>2021-03-20T01:47:09</time>
      </trkpt>
      <trkpt lat="41.1959096230566" lon="-8.63369897939265">
        <ele>112.4</ele>
        <time>2021-03-20T01:47:10</time>
      </trkpt>
      <trkpt lat="41.195870898664" lon="-8.6337118037045">
        <ele>112.6</ele>
        <time>2021-03-20T01:47:11</time>
      </trkpt>
      <trkpt lat="41.195826055482" lon="-8.63369571045041">
        <ele>112.8</ele>
        <time>2021-03-20T01:47:12</time>
      </trkpt>
      <trkpt lat="41.1957938689738" lon="-8.63370819948614">
        <ele>113</ele>
        <time>2021-03-20T01:47:13</time>
      </trkpt>
      <trkpt lat="41.1957528814673" lon="-8.63373996689916">
        <ele>113.6</ele>
        <time>2021-03-20T01:47:14</time>
      </trkpt>
      <trkpt lat="41.1957056913525" lon="-8.6337514501065">
        <ele>113.8</ele>
        <time>2021-03-20T01:47:15</time>
      </trkpt>
      <trkpt lat="41.1955523863435" lon="-8.63373728469014">
        <ele>114.2</ele>
        <time>2021-03-20T01:47:16</time>
      </trkpt>
      <trkpt lat="41.1954584252089" lon="-8.63370878621936">
        <ele>114.6</ele>
        <time>2021-03-20T01:47:17</time>
      </trkpt>
      <trkpt lat="41.1953990813345" lon="-8.63372119143605">
        <ele>114.8</ele>
        <time>2021-03-20T01:47:18</time>
      </trkpt>
      <trkpt lat="41.1953621171415" lon="-8.63375446759164">
        <ele>114.8</ele>
        <time>2021-03-20T01:47:19</time>
      </trkpt>
      <trkpt lat="41.1953146755695" lon="-8.63375178538263">
        <ele>115</ele>
        <time>2021-03-20T01:47:20</time>
      </trkpt>
      <trkpt lat="41.1952795553952" lon="-8.63375999964774">
        <ele>115.2</ele>
        <time>2021-03-20T01:47:21</time>
      </trkpt>
      <trkpt lat="41.1952333711088" lon="-8.63377198576927">
        <ele>115.4</ele>
        <time>2021-03-20T01:47:22</time>
      </trkpt>
      <trkpt lat="41.195202190429" lon="-8.63379579037428">
        <ele>115.4</ele>
        <time>2021-03-20T01:47:23</time>
      </trkpt>
      <trkpt lat="41.1951618734747" lon="-8.63379931077361">
        <ele>115.6</ele>
        <time>2021-03-20T01:47:24</time>
      </trkpt>
      <trkpt lat="41.1950638890266" lon="-8.63376075401902">
        <ele>115.8</ele>
        <time>2021-03-20T01:47:25</time>
      </trkpt>
      <trkpt lat="41.1950461193919" lon="-8.63384725525975">
        <ele>115.6</ele>
        <time>2021-03-20T01:47:26</time>
      </trkpt>
      <trkpt lat="41.194937909022" lon="-8.63386267796159">
        <ele>115.8</ele>
        <time>2021-03-20T01:47:27</time>
      </trkpt>
      <trkpt lat="41.1949441954494" lon="-8.63393031992018">
        <ele>115.8</ele>
        <time>2021-03-20T01:47:28</time>
      </trkpt>
      <trkpt lat="41.1948786489666" lon="-8.63389100879431">
        <ele>116.2</ele>
        <time>2021-03-20T01:47:29</time>
      </trkpt>
      <trkpt lat="41.1948374100029" lon="-8.63387097604573">
        <ele>116.2</ele>
        <time>2021-03-20T01:47:30</time>
      </trkpt>
      <trkpt lat="41.1947949137539" lon="-8.63387022167444">
        <ele>116.4</ele>
        <time>2021-03-20T01:47:31</time>
      </trkpt>
      <trkpt lat="41.1947251763195" lon="-8.63388480618596">
        <ele>116.4</ele>
        <time>2021-03-20T01:47:32</time>
      </trkpt>
      <trkpt lat="41.1946452129632" lon="-8.63387298770249">
        <ele>116.2</ele>
        <time>2021-03-20T01:47:33</time>
      </trkpt>
      <trkpt lat="41.1945418640971" lon="-8.63380014896393">
        <ele>116</ele>
        <time>2021-03-20T01:47:34</time>
      </trkpt>
      <trkpt lat="41.1944790836424" lon="-8.63375019282103">
        <ele>115.8</ele>
        <time>2021-03-20T01:47:35</time>
      </trkpt>
      <trkpt lat="41.1944101005793" lon="-8.63368581980467">
        <ele>116</ele>
        <time>2021-03-20T01:47:36</time>
      </trkpt>
      <trkpt lat="41.1943631619215" lon="-8.63372982479632">
        <ele>116</ele>
        <time>2021-03-20T01:47:37</time>
      </trkpt>
      <trkpt lat="41.1943030636758" lon="-8.63375321030617">
        <ele>115.8</ele>
        <time>2021-03-20T01:47:38</time>
      </trkpt>
      <trkpt lat="41.1942241899669" lon="-8.63374466076493">
        <ele>115.8</ele>
        <time>2021-03-20T01:47:39</time>
      </trkpt>
      <trkpt lat="41.1941746529192" lon="-8.63375597633421">
        <ele>115.8</ele>
        <time>2021-03-20T01:47:40</time>
      </trkpt>
      <trkpt lat="41.1941091064364" lon="-8.63374030217528">
        <ele>116</ele>
        <time>2021-03-20T01:47:41</time>
      </trkpt>
      <trkpt lat="41.194036854431" lon="-8.63371415063739">
        <ele>116</ele>
        <time>2021-03-20T01:47:42</time>
      </trkpt>
      <trkpt lat="41.1939741577953" lon="-8.63371448591352">
        <ele>116.2</ele>
        <time>2021-03-20T01:47:43</time>
      </trkpt>
      <trkpt lat="41.1938926856965" lon="-8.6336827185005">
        <ele>116</ele>
        <time>2021-03-20T01:47:44</time>
      </trkpt>
      <trkpt lat="41.1938625946641" lon="-8.63370618782938">
        <ele>116.4</ele>
        <time>2021-03-20T01:47:45</time>
      </trkpt>
      <trkpt lat="41.1937870737165" lon="-8.63365380093455">
        <ele>116.6</ele>
        <time>2021-03-20T01:47:46</time>
      </trkpt>
      <trkpt lat="41.1937311664224" lon="-8.63364231772721">
        <ele>116.6</ele>
        <time>2021-03-20T01:47:47</time>
      </trkpt>
      <trkpt lat="41.1936735827476" lon="-8.63364852033556">
        <ele>116.6</ele>
        <time>2021-03-20T01:47:48</time>
      </trkpt>
      <trkpt lat="41.1936140712351" lon="-8.63365296274424">
        <ele>116.4</ele>
        <time>2021-03-20T01:47:49</time>
      </trkpt>
      <trkpt lat="41.1935711558908" lon="-8.63367944955826">
        <ele>116.6</ele>
        <time>2021-03-20T01:47:50</time>
      </trkpt>
      <trkpt lat="41.1934866663069" lon="-8.63368581980467">
        <ele>116.6</ele>
        <time>2021-03-20T01:47:51</time>
      </trkpt>
      <trkpt lat="41.1934300884604" lon="-8.63370350562036">
        <ele>116.2</ele>
        <time>2021-03-20T01:47:52</time>
      </trkpt>
      <trkpt lat="41.1933879274875" lon="-8.63373728469014">
        <ele>116</ele>
        <time>2021-03-20T01:47:53</time>
      </trkpt>
      <trkpt lat="41.1933451797813" lon="-8.63377969712019">
        <ele>115.8</ele>
        <time>2021-03-20T01:47:54</time>
      </trkpt>
      <trkpt lat="41.1932989116758" lon="-8.63377768546343">
        <ele>115.8</ele>
        <time>2021-03-20T01:47:55</time>
      </trkpt>
      <trkpt lat="41.1932476144284" lon="-8.63378397189081">
        <ele>115.6</ele>
        <time>2021-03-20T01:47:56</time>
      </trkpt>
      <trkpt lat="41.1931873485446" lon="-8.63374499604106">
        <ele>115.8</ele>
        <time>2021-03-20T01:47:57</time>
      </trkpt>
      <trkpt lat="41.1931425891817" lon="-8.63374566659331">
        <ele>115.4</ele>
        <time>2021-03-20T01:47:58</time>
      </trkpt>
      <trkpt lat="41.1930953990668" lon="-8.63372177816928">
        <ele>115.4</ele>
        <time>2021-03-20T01:47:59</time>
      </trkpt>
      <trkpt lat="41.1930652242154" lon="-8.6337258014828">
        <ele>115</ele>
        <time>2021-03-20T01:48:00</time>
      </trkpt>
      <trkpt lat="41.1930021084845" lon="-8.63368799909949">
        <ele>114.6</ele>
        <time>2021-03-20T01:48:01</time>
      </trkpt>
      <trkpt lat="41.192969167605" lon="-8.63369495607912">
        <ele>114.2</ele>
        <time>2021-03-20T01:48:02</time>
      </trkpt>
      <trkpt lat="41.192955924198" lon="-8.63371876068413">
        <ele>114.2</ele>
        <time>2021-03-20T01:48:03</time>
      </trkpt>
      <trkpt lat="41.1929094046354" lon="-8.63369680009782">
        <ele>114.2</ele>
        <time>2021-03-20T01:48:04</time>
      </trkpt>
      <trkpt lat="41.1928661540151" lon="-8.63370576873422">
        <ele>114.2</ele>
        <time>2021-03-20T01:48:05</time>
      </trkpt>
      <trkpt lat="41.192834386602" lon="-8.63370082341134">
        <ele>114</ele>
        <time>2021-03-20T01:48:06</time>
      </trkpt>
      <trkpt lat="41.1928340513259" lon="-8.63376997411251">
        <ele>114</ele>
        <time>2021-03-20T01:48:07</time>
      </trkpt>
      <trkpt lat="41.1927961651236" lon="-8.63375077955425">
        <ele>114</ele>
        <time>2021-03-20T01:48:08</time>
      </trkpt>
      <trkpt lat="41.1927156150341" lon="-8.63366922363639">
        <ele>114</ele>
        <time>2021-03-20T01:48:09</time>
      </trkpt>
      <trkpt lat="41.1926477216184" lon="-8.63361625000834">
        <ele>113.8</ele>
        <time>2021-03-20T01:48:10</time>
      </trkpt>
      <trkpt lat="41.1925881262869" lon="-8.63357844762504">
        <ele>113.4</ele>
        <time>2021-03-20T01:48:11</time>
      </trkpt>
      <trkpt lat="41.192524926737" lon="-8.63357274793088">
        <ele>113.2</ele>
        <time>2021-03-20T01:48:12</time>
      </trkpt>
      <trkpt lat="41.1924940813333" lon="-8.63357501104474">
        <ele>113.2</ele>
        <time>2021-03-20T01:48:13</time>
      </trkpt>
      <trkpt lat="41.1924081668258" lon="-8.63353494554758">
        <ele>113.2</ele>
        <time>2021-03-20T01:48:14</time>
      </trkpt>
      <trkpt lat="41.1923553608358" lon="-8.63354466855526">
        <ele>113</ele>
        <time>2021-03-20T01:48:15</time>
      </trkpt>
      <trkpt lat="41.1922801751643" lon="-8.6335011664778">
        <ele>112.8</ele>
        <time>2021-03-20T01:48:16</time>
      </trkpt>
      <trkpt lat="41.1922201607376" lon="-8.6334681417793">
        <ele>112.4</ele>
        <time>2021-03-20T01:48:17</time>
      </trkpt>
      <trkpt lat="41.1921771615744" lon="-8.6334839835763">
        <ele>112.4</ele>
        <time>2021-03-20T01:48:18</time>
      </trkpt>
      <trkpt lat="41.1920945998281" lon="-8.63339245319366">
        <ele>112.4</ele>
        <time>2021-03-20T01:48:19</time>
      </trkpt>
      <trkpt lat="41.1920336633921" lon="-8.63338625058532">
        <ele>112.4</ele>
        <time>2021-03-20T01:48:20</time>
      </trkpt>
      <trkpt lat="41.1919641774148" lon="-8.63331517204642">
        <ele>111.8</ele>
        <time>2021-03-20T01:48:21</time>
      </trkpt>
      <trkpt lat="41.1918769218028" lon="-8.63325901329517">
        <ele>111.8</ele>
        <time>2021-03-20T01:48:22</time>
      </trkpt>
      <trkpt lat="41.1918305698782" lon="-8.63324820064008">
        <ele>112</ele>
        <time>2021-03-20T01:48:23</time>
      </trkpt>
      <trkpt lat="41.191779691726" lon="-8.63330779597163">
        <ele>112</ele>
        <time>2021-03-20T01:48:24</time>
      </trkpt>
      <trkpt lat="41.1917698848993" lon="-8.633340485394">
        <ele>111.8</ele>
        <time>2021-03-20T01:48:25</time>
      </trkpt>
      <trkpt lat="41.1917301546782" lon="-8.63337744958699">
        <ele>111.4</ele>
        <time>2021-03-20T01:48:26</time>
      </trkpt>
      <trkpt lat="41.1916933581233" lon="-8.63336001522839">
        <ele>111</ele>
        <time>2021-03-20T01:48:27</time>
      </trkpt>
      <trkpt lat="41.1916206870228" lon="-8.63332179374993">
        <ele>111</ele>
        <time>2021-03-20T01:48:28</time>
      </trkpt>
      <trkpt lat="41.1915599182248" lon="-8.63336169160902">
        <ele>111</ele>
        <time>2021-03-20T01:48:29</time>
      </trkpt>
      <trkpt lat="41.1914963833988" lon="-8.63334501162171">
        <ele>111</ele>
        <time>2021-03-20T01:48:30</time>
      </trkpt>
      <trkpt lat="41.1914356146008" lon="-8.63332397304475">
        <ele>111</ele>
        <time>2021-03-20T01:48:31</time>
      </trkpt>
      <trkpt lat="41.1913575790822" lon="-8.63331366330385">
        <ele>110.8</ele>
        <time>2021-03-20T01:48:32</time>
      </trkpt>
      <trkpt lat="41.191288176924" lon="-8.6333129927516">
        <ele>110.8</ele>
        <time>2021-03-20T01:48:33</time>
      </trkpt>
      <trkpt lat="41.1912181880325" lon="-8.63330150954425">
        <ele>110.4</ele>
        <time>2021-03-20T01:48:34</time>
      </trkpt>
      <trkpt lat="41.191132189706" lon="-8.63321567885578">
        <ele>110.4</ele>
        <time>2021-03-20T01:48:35</time>
      </trkpt>
      <trkpt lat="41.1910478677601" lon="-8.63317879848182">
        <ele>110</ele>
        <time>2021-03-20T01:48:36</time>
      </trkpt>
      <trkpt lat="41.1909588519484" lon="-8.63313521258533">
        <ele>109.8</ele>
        <time>2021-03-20T01:48:37</time>
      </trkpt>
      <trkpt lat="41.1908606160432" lon="-8.63309699110687">
        <ele>109.6</ele>
        <time>2021-03-20T01:48:38</time>
      </trkpt>
      <trkpt lat="41.1906886193901" lon="-8.6330296844244">
        <ele>109.6</ele>
        <time>2021-03-20T01:48:39</time>
      </trkpt>
      <trkpt lat="41.1906762141734" lon="-8.6330851726234">
        <ele>109.2</ele>
        <time>2021-03-20T01:48:40</time>
      </trkpt>
      <trkpt lat="41.1906105838716" lon="-8.63308668136597">
        <ele>109</ele>
        <time>2021-03-20T01:48:41</time>
      </trkpt>
      <trkpt lat="41.1905696801841" lon="-8.6330674868077">
        <ele>108.8</ele>
        <time>2021-03-20T01:48:42</time>
      </trkpt>
      <trkpt lat="41.190455602482" lon="-8.63301794975996">
        <ele>108.6</ele>
        <time>2021-03-20T01:48:43</time>
      </trkpt>
      <trkpt lat="41.1903623957187" lon="-8.63297268748284">
        <ele>108.2</ele>
        <time>2021-03-20T01:48:44</time>
      </trkpt>
      <trkpt lat="41.1902612261474" lon="-8.6329329572618">
        <ele>108</ele>
        <time>2021-03-20T01:48:45</time>
      </trkpt>
      <trkpt lat="41.1901818495244" lon="-8.63292021676898">
        <ele>107.6</ele>
        <time>2021-03-20T01:48:46</time>
      </trkpt>
      <trkpt lat="41.1900877207518" lon="-8.63290965557098">
        <ele>107.2</ele>
        <time>2021-03-20T01:48:47</time>
      </trkpt>
      <trkpt lat="41.1900108586997" lon="-8.63290881738067">
        <ele>107.2</ele>
        <time>2021-03-20T01:48:48</time>
      </trkpt>
      <trkpt lat="41.1899541132152" lon="-8.63288316875696">
        <ele>107</ele>
        <time>2021-03-20T01:48:49</time>
      </trkpt>
      <trkpt lat="41.1898929253221" lon="-8.63289096392691">
        <ele>106.6</ele>
        <time>2021-03-20T01:48:50</time>
      </trkpt>
      <trkpt lat="41.1898176558316" lon="-8.63288568332791">
        <ele>106.2</ele>
        <time>2021-03-20T01:48:51</time>
      </trkpt>
      <trkpt lat="41.1897496785969" lon="-8.63286120817065">
        <ele>106</ele>
        <time>2021-03-20T01:48:52</time>
      </trkpt>
      <trkpt lat="41.1897160671651" lon="-8.63285232335329">
        <ele>105.8</ele>
        <time>2021-03-20T01:48:53</time>
      </trkpt>
      <trkpt lat="41.1895710602403" lon="-8.63279750570655">
        <ele>105.6</ele>
        <time>2021-03-20T01:48:54</time>
      </trkpt>
      <trkpt lat="41.1894921027124" lon="-8.63276716321707">
        <ele>105.4</ele>
        <time>2021-03-20T01:48:55</time>
      </trkpt>
      <trkpt lat="41.1894161626697" lon="-8.63275450654328">
        <ele>105</ele>
        <time>2021-03-20T01:48:56</time>
      </trkpt>
      <trkpt lat="41.1893290746957" lon="-8.63271980546415">
        <ele>104.6</ele>
        <time>2021-03-20T01:48:58</time>
      </trkpt>
      <trkpt lat="41.1892667133361" lon="-8.63270899280906">
        <ele>104</ele>
        <time>2021-03-20T01:48:59</time>
      </trkpt>
      <trkpt lat="41.1891835648566" lon="-8.63264470361173">
        <ele>103.8</ele>
        <time>2021-03-20T01:49:00</time>
      </trkpt>
      <trkpt lat="41.1891398951411" lon="-8.63267194479704">
        <ele>103.6</ele>
        <time>2021-03-20T01:49:01</time>
      </trkpt>
      <trkpt lat="41.1890518851578" lon="-8.63260631449521">
        <ele>103.4</ele>
        <time>2021-03-20T01:49:02</time>
      </trkpt>
      <trkpt lat="41.1889935471118" lon="-8.63257647491992">
        <ele>103.2</ele>
        <time>2021-03-20T01:49:03</time>
      </trkpt>
      <trkpt lat="41.1889215465635" lon="-8.63255300559104">
        <ele>102.6</ele>
        <time>2021-03-20T01:49:04</time>
      </trkpt>
      <trkpt lat="41.1888451874256" lon="-8.63256365060806">
        <ele>102.6</ele>
        <time>2021-03-20T01:49:05</time>
      </trkpt>
      <trkpt lat="41.1887731030583" lon="-8.63255065865815">
        <ele>102.2</ele>
        <time>2021-03-20T01:49:06</time>
      </trkpt>
      <trkpt lat="41.1886866856366" lon="-8.6325217410922">
        <ele>102</ele>
        <time>2021-03-20T01:49:07</time>
      </trkpt>
      <trkpt lat="41.1886223964393" lon="-8.63250514492392">
        <ele>101.6</ele>
        <time>2021-03-20T01:49:08</time>
      </trkpt>
      <trkpt lat="41.188558191061" lon="-8.6324892193079">
        <ele>101.4</ele>
        <time>2021-03-20T01:49:09</time>
      </trkpt>
      <trkpt lat="41.1884881183505" lon="-8.63243624567986">
        <ele>101.4</ele>
        <time>2021-03-20T01:49:10</time>
      </trkpt>
      <trkpt lat="41.188394408673" lon="-8.6324186436832">
        <ele>100.8</ele>
        <time>2021-03-20T01:49:11</time>
      </trkpt>
      <trkpt lat="41.1883486434817" lon="-8.63242400810122">
        <ele>100.4</ele>
        <time>2021-03-20T01:49:12</time>
      </trkpt>
      <trkpt lat="41.1882529221475" lon="-8.63237924873829">
        <ele>100.2</ele>
        <time>2021-03-20T01:49:13</time>
      </trkpt>
      <trkpt lat="41.1881656665355" lon="-8.63235225901008">
        <ele>100</ele>
        <time>2021-03-20T01:49:14</time>
      </trkpt>
      <trkpt lat="41.1880853679031" lon="-8.63234429620206">
        <ele>100</ele>
        <time>2021-03-20T01:49:15</time>
      </trkpt>
      <trkpt lat="41.1880045663565" lon="-8.63228746689856">
        <ele>99.4</ele>
        <time>2021-03-20T01:49:16</time>
      </trkpt>
      <trkpt lat="41.1879461444914" lon="-8.63228796981275">
        <ele>99.4</ele>
        <time>2021-03-20T01:49:17</time>
      </trkpt>
      <trkpt lat="41.1878518480808" lon="-8.63224471919239">
        <ele>99.6</ele>
        <time>2021-03-20T01:49:18</time>
      </trkpt>
      <trkpt lat="41.1878059152514" lon="-8.63226232118904">
        <ele>99.2</ele>
        <time>2021-03-20T01:49:19</time>
      </trkpt>
      <trkpt lat="41.1877459008247" lon="-8.63228796981275">
        <ele>98.6</ele>
        <time>2021-03-20T01:49:20</time>
      </trkpt>
      <trkpt lat="41.1876518558711" lon="-8.63225125707686">
        <ele>98.4</ele>
        <time>2021-03-20T01:49:21</time>
      </trkpt>
      <trkpt lat="41.1875698808581" lon="-8.6322354990989">
        <ele>98.2</ele>
        <time>2021-03-20T01:49:22</time>
      </trkpt>
      <trkpt lat="41.1875140573829" lon="-8.63222870975733">
        <ele>98</ele>
        <time>2021-03-20T01:49:23</time>
      </trkpt>
      <trkpt lat="41.1874175816774" lon="-8.63220876082778">
        <ele>98</ele>
        <time>2021-03-20T01:49:24</time>
      </trkpt>
      <trkpt lat="41.1873278953135" lon="-8.63220297731459">
        <ele>97.8</ele>
        <time>2021-03-20T01:49:25</time>
      </trkpt>
      <trkpt lat="41.1872501950711" lon="-8.63218914717436">
        <ele>97.8</ele>
        <time>2021-03-20T01:49:26</time>
      </trkpt>
      <trkpt lat="41.1871818825603" lon="-8.63220297731459">
        <ele>97.6</ele>
        <time>2021-03-20T01:49:27</time>
      </trkpt>
      <trkpt lat="41.1870901845396" lon="-8.63217615522444">
        <ele>97.4</ele>
        <time>2021-03-20T01:49:28</time>
      </trkpt>
      <trkpt lat="41.187025392428" lon="-8.63221596926451">
        <ele>97.2</ele>
        <time>2021-03-20T01:49:29</time>
      </trkpt>
      <trkpt lat="41.1869456805289" lon="-8.63217649050057">
        <ele>97.2</ele>
        <time>2021-03-20T01:49:30</time>
      </trkpt>
      <trkpt lat="41.1868580896407" lon="-8.63216517493129">
        <ele>97</ele>
        <time>2021-03-20T01:49:31</time>
      </trkpt>
      <trkpt lat="41.1867576744407" lon="-8.63213198259473">
        <ele>97</ele>
        <time>2021-03-20T01:49:32</time>
      </trkpt>
      <trkpt lat="41.1866731010377" lon="-8.63210465759039">
        <ele>97</ele>
        <time>2021-03-20T01:49:33</time>
      </trkpt>
      <trkpt lat="41.1865650583059" lon="-8.6320679448545">
        <ele>96.6</ele>
        <time>2021-03-20T01:49:34</time>
      </trkpt>
      <trkpt lat="41.1864883638918" lon="-8.63206350244582">
        <ele>96.2</ele>
        <time>2021-03-20T01:49:35</time>
      </trkpt>
      <trkpt lat="41.1863866075873" lon="-8.63202125765383">
        <ele>96.2</ele>
        <time>2021-03-20T01:49:36</time>
      </trkpt>
      <trkpt lat="41.1863052193075" lon="-8.63201815634966">
        <ele>96.2</ele>
        <time>2021-03-20T01:49:37</time>
      </trkpt>
      <trkpt lat="41.1862156167626" lon="-8.63200114108622">
        <ele>96.2</ele>
        <time>2021-03-20T01:49:38</time>
      </trkpt>
      <trkpt lat="41.1861136928201" lon="-8.63197381608188">
        <ele>96.2</ele>
        <time>2021-03-20T01:49:39</time>
      </trkpt>
      <trkpt lat="41.1860298737884" lon="-8.63196350634098">
        <ele>96</ele>
        <time>2021-03-20T01:49:40</time>
      </trkpt>
      <trkpt lat="41.185896685347" lon="-8.63182151690126">
        <ele>95.8</ele>
        <time>2021-03-20T01:49:41</time>
      </trkpt>
      <trkpt lat="41.1858050711453" lon="-8.63183869980276">
        <ele>95.6</ele>
        <time>2021-03-20T01:49:42</time>
      </trkpt>
      <trkpt lat="41.1857251916081" lon="-8.63184649497271">
        <ele>95.4</ele>
        <time>2021-03-20T01:49:43</time>
      </trkpt>
      <trkpt lat="41.1856288835406" lon="-8.63183048553765">
        <ele>95.2</ele>
        <time>2021-03-20T01:49:44</time>
      </trkpt>
      <trkpt lat="41.1855355929583" lon="-8.63180575892329">
        <ele>95</ele>
        <time>2021-03-20T01:49:45</time>
      </trkpt>
      <trkpt lat="41.1854371894151" lon="-8.63178044557571">
        <ele>94.6</ele>
        <time>2021-03-20T01:49:46</time>
      </trkpt>
      <trkpt lat="41.1853591538966" lon="-8.63177449442446">
        <ele>94.8</ele>
        <time>2021-03-20T01:49:47</time>
      </trkpt>
      <trkpt lat="41.1852729041129" lon="-8.63176577724516">
        <ele>94.4</ele>
        <time>2021-03-20T01:49:48</time>
      </trkpt>
      <trkpt lat="41.1851710639894" lon="-8.63174071535468">
        <ele>94.2</ele>
        <time>2021-03-20T01:49:49</time>
      </trkpt>
      <trkpt lat="41.1850884184241" lon="-8.63173451274634">
        <ele>94</ele>
        <time>2021-03-20T01:49:50</time>
      </trkpt>
      <trkpt lat="41.1849985644221" lon="-8.63171582110226">
        <ele>94</ele>
        <time>2021-03-20T01:49:51</time>
      </trkpt>
      <trkpt lat="41.1849026754498" lon="-8.63168371841311">
        <ele>93.8</ele>
        <time>2021-03-20T01:49:52</time>
      </trkpt>
      <trkpt lat="41.184810642153" lon="-8.63165429793298">
        <ele>93.4</ele>
        <time>2021-03-20T01:49:53</time>
      </trkpt>
      <trkpt lat="41.1847196985036" lon="-8.63162647001445">
        <ele>93.4</ele>
        <time>2021-03-20T01:49:54</time>
      </trkpt>
      <trkpt lat="41.1846323590726" lon="-8.63160115666688">
        <ele>93.4</ele>
        <time>2021-03-20T01:49:55</time>
      </trkpt>
      <trkpt lat="41.1845443490893" lon="-8.6315827164799">
        <ele>93.2</ele>
        <time>2021-03-20T01:49:56</time>
      </trkpt>
      <trkpt lat="41.1844443529844" lon="-8.63155170343816">
        <ele>93</ele>
        <time>2021-03-20T01:49:57</time>
      </trkpt>
      <trkpt lat="41.1843607015908" lon="-8.6315359454602">
        <ele>93</ele>
        <time>2021-03-20T01:49:58</time>
      </trkpt>
      <trkpt lat="41.184290042147" lon="-8.63153695128858">
        <ele>93</ele>
        <time>2021-03-20T01:49:59</time>
      </trkpt>
      <trkpt lat="41.1842183768749" lon="-8.63152831792831">
        <ele>93</ele>
        <time>2021-03-20T01:50:00</time>
      </trkpt>
      <trkpt lat="41.184155093506" lon="-8.63151297904551">
        <ele>92.8</ele>
        <time>2021-03-20T01:50:01</time>
      </trkpt>
      <trkpt lat="41.1840918939561" lon="-8.63150124438107">
        <ele>92.8</ele>
        <time>2021-03-20T01:50:02</time>
      </trkpt>
      <trkpt lat="41.1840110924095" lon="-8.63149219192564">
        <ele>92.8</ele>
        <time>2021-03-20T01:50:03</time>
      </trkpt>
      <trkpt lat="41.1839271895587" lon="-8.63148875534534">
        <ele>92.8</ele>
        <time>2021-03-20T01:50:04</time>
      </trkpt>
      <trkpt lat="41.1838371679187" lon="-8.63146117888391">
        <ele>92.8</ele>
        <time>2021-03-20T01:50:05</time>
      </trkpt>
      <trkpt lat="41.1837523430586" lon="-8.63144030794501">
        <ele>92.8</ele>
        <time>2021-03-20T01:50:06</time>
      </trkpt>
      <trkpt lat="41.1836600583047" lon="-8.63141030073166">
        <ele>93</ele>
        <time>2021-03-20T01:50:07</time>
      </trkpt>
      <trkpt lat="41.1835775803775" lon="-8.63138331100345">
        <ele>93</ele>
        <time>2021-03-20T01:50:08</time>
      </trkpt>
      <trkpt lat="41.1834915820509" lon="-8.63134928047657">
        <ele>93.2</ele>
        <time>2021-03-20T01:50:09</time>
      </trkpt>
      <trkpt lat="41.1834030691534" lon="-8.63132195547223">
        <ele>93.4</ele>
        <time>2021-03-20T01:50:10</time>
      </trkpt>
      <trkpt lat="41.1833220999688" lon="-8.63128918223083">
        <ele>93.4</ele>
        <time>2021-03-20T01:50:11</time>
      </trkpt>
      <trkpt lat="41.1832449026406" lon="-8.63125297240913">
        <ele>93.6</ele>
        <time>2021-03-20T01:50:12</time>
      </trkpt>
      <trkpt lat="41.1831606645137" lon="-8.63121718168259">
        <ele>93.8</ele>
        <time>2021-03-20T01:50:13</time>
      </trkpt>
      <trkpt lat="41.1830766778439" lon="-8.63118097186089">
        <ele>93.8</ele>
        <time>2021-03-20T01:50:14</time>
      </trkpt>
      <trkpt lat="41.1829875782132" lon="-8.63113830797374">
        <ele>94.2</ele>
        <time>2021-03-20T01:50:15</time>
      </trkpt>
      <trkpt lat="41.1828975565732" lon="-8.63110419362784">
        <ele>94.4</ele>
        <time>2021-03-20T01:50:16</time>
      </trkpt>
      <trkpt lat="41.1828095465898" lon="-8.6310663074255">
        <ele>94.4</ele>
        <time>2021-03-20T01:50:17</time>
      </trkpt>
      <trkpt lat="41.1827341932803" lon="-8.6310266610235">
        <ele>94.4</ele>
        <time>2021-03-20T01:50:18</time>
      </trkpt>
      <trkpt lat="41.1826662160456" lon="-8.63099564798176">
        <ele>94.6</ele>
        <time>2021-03-20T01:50:19</time>
      </trkpt>
      <trkpt lat="41.1825738474727" lon="-8.63094745203853">
        <ele>95</ele>
        <time>2021-03-20T01:50:20</time>
      </trkpt>
      <trkpt lat="41.1824846640229" lon="-8.63090529106557">
        <ele>95.6</ele>
        <time>2021-03-20T01:50:21</time>
      </trkpt>
      <trkpt lat="41.1823829077184" lon="-8.63086849451065">
        <ele>96.2</ele>
        <time>2021-03-20T01:50:22</time>
      </trkpt>
      <trkpt lat="41.1823171097785" lon="-8.63084577955306">
        <ele>96.2</ele>
        <time>2021-03-20T01:50:23</time>
      </trkpt>
      <trkpt lat="41.1822308599949" lon="-8.63081929273904">
        <ele>96.2</ele>
        <time>2021-03-20T01:50:24</time>
      </trkpt>
      <trkpt lat="41.1821241583675" lon="-8.63074419088662">
        <ele>96.2</ele>
        <time>2021-03-20T01:50:25</time>
      </trkpt>
      <trkpt lat="41.1820322088897" lon="-8.63070831634104">
        <ele>96.2</ele>
        <time>2021-03-20T01:50:26</time>
      </trkpt>
      <trkpt lat="41.1819651536644" lon="-8.63068501465022">
        <ele>96.2</ele>
        <time>2021-03-20T01:50:27</time>
      </trkpt>
      <trkpt lat="41.1818900518119" lon="-8.6306587792933">
        <ele>96.2</ele>
        <time>2021-03-20T01:50:28</time>
      </trkpt>
      <trkpt lat="41.1817828472704" lon="-8.63061494193971">
        <ele>96.4</ele>
        <time>2021-03-20T01:50:29</time>
      </trkpt>
      <trkpt lat="41.18168938905" lon="-8.63058501854539">
        <ele>96.4</ele>
        <time>2021-03-20T01:50:30</time>
      </trkpt>
      <trkpt lat="41.1814676877111" lon="-8.63050027750432">
        <ele>96.4</ele>
        <time>2021-03-20T01:50:31</time>
      </trkpt>
      <trkpt lat="41.181382862851" lon="-8.63049130886793">
        <ele>96.4</ele>
        <time>2021-03-20T01:50:32</time>
      </trkpt>
      <trkpt lat="41.1812833696604" lon="-8.63047429360449">
        <ele>96.4</ele>
        <time>2021-03-20T01:50:33</time>
      </trkpt>
      <trkpt lat="41.1812205892056" lon="-8.63042316399515">
        <ele>96.4</ele>
        <time>2021-03-20T01:50:34</time>
      </trkpt>
      <trkpt lat="41.1811583954841" lon="-8.63038728944957">
        <ele>96.4</ele>
        <time>2021-03-20T01:50:35</time>
      </trkpt>
      <trkpt lat="41.1810386180878" lon="-8.63031671382487">
        <ele>96.2</ele>
        <time>2021-03-20T01:50:36</time>
      </trkpt>
      <trkpt lat="41.1809262167662" lon="-8.63023297861218">
        <ele>96.2</ele>
        <time>2021-03-20T01:50:37</time>
      </trkpt>
      <trkpt lat="41.1808481812477" lon="-8.63021495752036">
        <ele>96.2</ele>
        <time>2021-03-20T01:50:38</time>
      </trkpt>
      <trkpt lat="41.180788166821" lon="-8.63020431250334">
        <ele>96.2</ele>
        <time>2021-03-20T01:50:39</time>
      </trkpt>
      <trkpt lat="41.180656068027" lon="-8.63008730113506">
        <ele>96</ele>
        <time>2021-03-20T01:50:40</time>
      </trkpt>
      <trkpt lat="41.1805426608771" lon="-8.62996743991971">
        <ele>96.2</ele>
        <time>2021-03-20T01:50:41</time>
      </trkpt>
      <trkpt lat="41.1804751865566" lon="-8.62997070886195">
        <ele>96.2</ele>
        <time>2021-03-20T01:50:42</time>
      </trkpt>
      <trkpt lat="41.1803788784891" lon="-8.62988026812673">
        <ele>96.6</ele>
        <time>2021-03-20T01:50:43</time>
      </trkpt>
      <trkpt lat="41.1803380586207" lon="-8.62989921122789">
        <ele>96.8</ele>
        <time>2021-03-20T01:50:44</time>
      </trkpt>
      <trkpt lat="41.1802381463349" lon="-8.62983047962189">
        <ele>96.8</ele>
        <time>2021-03-20T01:50:45</time>
      </trkpt>
      <trkpt lat="41.1801868490875" lon="-8.62980902194977">
        <ele>96.8</ele>
        <time>2021-03-20T01:50:46</time>
      </trkpt>
      <trkpt lat="41.1801293492317" lon="-8.629793766886">
        <ele>97</ele>
        <time>2021-03-20T01:50:47</time>
      </trkpt>
      <trkpt lat="41.1800311971456" lon="-8.62972947768867">
        <ele>97.4</ele>
        <time>2021-03-20T01:50:48</time>
      </trkpt>
      <trkpt lat="41.179847382009" lon="-8.62960928119719">
        <ele>97.8</ele>
        <time>2021-03-20T01:50:49</time>
      </trkpt>
      <trkpt lat="41.1797253414988" lon="-8.62945647910237">
        <ele>97.8</ele>
        <time>2021-03-20T01:50:50</time>
      </trkpt>
      <trkpt lat="41.1796816717833" lon="-8.6294517852366">
        <ele>98</ele>
        <time>2021-03-20T01:50:51</time>
      </trkpt>
      <trkpt lat="41.1796317156404" lon="-8.62945815548301">
        <ele>98.2</ele>
        <time>2021-03-20T01:50:52</time>
      </trkpt>
      <trkpt lat="41.1796032171696" lon="-8.62944516353309">
        <ele>98.2</ele>
        <time>2021-03-20T01:50:53</time>
      </trkpt>
      <trkpt lat="41.1796116828918" lon="-8.62952378578484">
        <ele>98.2</ele>
        <time>2021-03-20T01:50:54</time>
      </trkpt>
      <trkpt lat="41.1796133592725" lon="-8.62955546937883">
        <ele>98.2</ele>
        <time>2021-03-20T01:50:55</time>
      </trkpt>
      <trkpt lat="41.1796011216938" lon="-8.62957625649869">
        <ele>98.2</ele>
        <time>2021-03-20T01:50:56</time>
      </trkpt>
      <trkpt lat="41.1795872077346" lon="-8.6295760050416">
        <ele>98.4</ele>
        <time>2021-03-20T01:50:57</time>
      </trkpt>
      <trkpt lat="41.1796028818935" lon="-8.62962394952774">
        <ele>98.6</ele>
        <time>2021-03-20T01:50:58</time>
      </trkpt>
      <trkpt lat="41.179588213563" lon="-8.629579693079">
        <ele>98.6</ele>
        <time>2021-03-20T01:50:59</time>
      </trkpt>
      <trkpt lat="41.1796074081212" lon="-8.62965630367398">
        <ele>98.8</ele>
        <time>2021-03-20T01:51:00</time>
      </trkpt>
      <trkpt lat="41.179580418393" lon="-8.62961866892874">
        <ele>99</ele>
        <time>2021-03-20T01:51:01</time>
      </trkpt>
      <trkpt lat="41.1795825976878" lon="-8.62960626371205">
        <ele>99.2</ele>
        <time>2021-03-20T01:51:02</time>
      </trkpt>
      <trkpt lat="41.1795711982995" lon="-8.62954499199986">
        <ele>99.4</ele>
        <time>2021-03-20T01:51:03</time>
      </trkpt>
      <trkpt lat="41.1795868724585" lon="-8.62957726232708">
        <ele>99.4</ele>
        <time>2021-03-20T01:51:04</time>
      </trkpt>
      <trkpt lat="41.1795875430107" lon="-8.62957994453609">
        <ele>99.6</ele>
        <time>2021-03-20T01:51:05</time>
      </trkpt>
      <trkpt lat="41.1795794125646" lon="-8.6295760050416">
        <ele>99.8</ele>
        <time>2021-03-20T01:51:06</time>
      </trkpt>
      <trkpt lat="41.1795701086521" lon="-8.62960550934076">
        <ele>100</ele>
        <time>2021-03-20T01:51:07</time>
      </trkpt>
      <trkpt lat="41.1795393470675" lon="-8.62957399338484">
        <ele>100</ele>
        <time>2021-03-20T01:51:08</time>
      </trkpt>
      <trkpt lat="41.1795219127089" lon="-8.62961179576814">
        <ele>100.2</ele>
        <time>2021-03-20T01:51:09</time>
      </trkpt>
      <trkpt lat="41.179485199973" lon="-8.62959729507566">
        <ele>100.4</ele>
        <time>2021-03-20T01:51:10</time>
      </trkpt>
      <trkpt lat="41.179458880797" lon="-8.62955345772207">
        <ele>100.2</ele>
        <time>2021-03-20T01:51:11</time>
      </trkpt>
      <trkpt lat="41.1794505827129" lon="-8.62950601615012">
        <ele>100.2</ele>
        <time>2021-03-20T01:51:12</time>
      </trkpt>
      <trkpt lat="41.1794336512685" lon="-8.62943569198251">
        <ele>100.4</ele>
        <time>2021-03-20T01:51:13</time>
      </trkpt>
      <trkpt lat="41.1794276162982" lon="-8.62938246689737">
        <ele>100.4</ele>
        <time>2021-03-20T01:51:14</time>
      </trkpt>
      <trkpt lat="41.1794273648411" lon="-8.62932764925063">
        <ele>100.6</ele>
        <time>2021-03-20T01:51:15</time>
      </trkpt>
      <trkpt lat="41.1794176418334" lon="-8.62925430759788">
        <ele>100.8</ele>
        <time>2021-03-20T01:51:16</time>
      </trkpt>
      <trkpt lat="41.1794176418334" lon="-8.62920368090272">
        <ele>100.8</ele>
        <time>2021-03-20T01:51:17</time>
      </trkpt>
      <trkpt lat="41.1794137023389" lon="-8.62913696095347">
        <ele>100.8</ele>
        <time>2021-03-20T01:51:18</time>
      </trkpt>
      <trkpt lat="41.1794172227383" lon="-8.62907024100423">
        <ele>101</ele>
        <time>2021-03-20T01:51:19</time>
      </trkpt>
      <trkpt lat="41.1794158816338" lon="-8.62900645472109">
        <ele>101.2</ele>
        <time>2021-03-20T01:51:20</time>
      </trkpt>
      <trkpt lat="41.1794205754995" lon="-8.62895524129272">
        <ele>101.4</ele>
        <time>2021-03-20T01:51:21</time>
      </trkpt>
      <trkpt lat="41.1794167198241" lon="-8.62888131290674">
        <ele>101.4</ele>
        <time>2021-03-20T01:51:22</time>
      </trkpt>
      <trkpt lat="41.1794141214341" lon="-8.62881367094815">
        <ele>101.4</ele>
        <time>2021-03-20T01:51:23</time>
      </trkpt>
      <trkpt lat="41.179416384548" lon="-8.62874845974147">
        <ele>101.6</ele>
        <time>2021-03-20T01:51:24</time>
      </trkpt>
      <trkpt lat="41.1794195696712" lon="-8.62866966985166">
        <ele>101.6</ele>
        <time>2021-03-20T01:51:25</time>
      </trkpt>
      <trkpt lat="41.1794236768037" lon="-8.62859766930342">
        <ele>101.4</ele>
        <time>2021-03-20T01:51:26</time>
      </trkpt>
      <trkpt lat="41.1794248502702" lon="-8.62854494713247">
        <ele>101.2</ele>
        <time>2021-03-20T01:51:27</time>
      </trkpt>
      <trkpt lat="41.1794155463576" lon="-8.62845350056887">
        <ele>101.2</ele>
        <time>2021-03-20T01:51:28</time>
      </trkpt>
      <trkpt lat="41.1794276162982" lon="-8.62837580032647">
        <ele>101.8</ele>
        <time>2021-03-20T01:51:29</time>
      </trkpt>
      <trkpt lat="41.179445721209" lon="-8.62831327132881">
        <ele>102.2</ele>
        <time>2021-03-20T01:51:30</time>
      </trkpt>
      <trkpt lat="41.1794453859329" lon="-8.62824864685536">
        <ele>102.4</ele>
        <time>2021-03-20T01:51:31</time>
      </trkpt>
      <trkpt lat="41.1794411949813" lon="-8.62809148617089">
        <ele>102.4</ele>
        <time>2021-03-20T01:51:33</time>
      </trkpt>
      <trkpt lat="41.1794526781887" lon="-8.62801621668041">
        <ele>102.4</ele>
        <time>2021-03-20T01:51:34</time>
      </trkpt>
      <trkpt lat="41.1794706992805" lon="-8.62794874235988">
        <ele>102.4</ele>
        <time>2021-03-20T01:51:35</time>
      </trkpt>
      <trkpt lat="41.179474722594" lon="-8.62789778038859">
        <ele>102.4</ele>
        <time>2021-03-20T01:51:36</time>
      </trkpt>
      <trkpt lat="41.1794858705252" lon="-8.6278179846704">
        <ele>102.4</ele>
        <time>2021-03-20T01:51:37</time>
      </trkpt>
      <trkpt lat="41.1794748902321" lon="-8.62772352062166">
        <ele>102.6</ele>
        <time>2021-03-20T01:51:38</time>
      </trkpt>
      <trkpt lat="41.1794868763536" lon="-8.62765965051949">
        <ele>103</ele>
        <time>2021-03-20T01:51:39</time>
      </trkpt>
      <trkpt lat="41.1794960964471" lon="-8.62759418785572">
        <ele>103</ele>
        <time>2021-03-20T01:51:40</time>
      </trkpt>
      <trkpt lat="41.1794991977513" lon="-8.62752579152584">
        <ele>103.2</ele>
        <time>2021-03-20T01:51:41</time>
      </trkpt>
      <trkpt lat="41.1794986110181" lon="-8.62747164443135">
        <ele>103.2</ele>
        <time>2021-03-20T01:51:42</time>
      </trkpt>
      <trkpt lat="41.1795046459883" lon="-8.62738765776157">
        <ele>103</ele>
        <time>2021-03-20T01:51:43</time>
      </trkpt>
      <trkpt lat="41.1795128602535" lon="-8.62731565721333">
        <ele>103.2</ele>
        <time>2021-03-20T01:51:44</time>
      </trkpt>
      <trkpt lat="41.1795191466808" lon="-8.62723678350449">
        <ele>103.6</ele>
        <time>2021-03-20T01:51:45</time>
      </trkpt>
      <trkpt lat="41.1795268580318" lon="-8.62717769108713">
        <ele>103.6</ele>
        <time>2021-03-20T01:51:46</time>
      </trkpt>
      <trkpt lat="41.179532893002" lon="-8.62709051929414">
        <ele>103.6</ele>
        <time>2021-03-20T01:51:47</time>
      </trkpt>
      <trkpt lat="41.1795398499817" lon="-8.62700846046209">
        <ele>103.8</ele>
        <time>2021-03-20T01:51:48</time>
      </trkpt>
      <trkpt lat="41.1795533448458" lon="-8.62691701389849">
        <ele>103.8</ele>
        <time>2021-03-20T01:51:49</time>
      </trkpt>
      <trkpt lat="41.1795623973012" lon="-8.62683948129416">
        <ele>104.2</ele>
        <time>2021-03-20T01:51:50</time>
      </trkpt>
      <trkpt lat="41.1795743834227" lon="-8.62676831893623">
        <ele>104.4</ele>
        <time>2021-03-20T01:51:51</time>
      </trkpt>
      <trkpt lat="41.1795897223055" lon="-8.62670327536762">
        <ele>104.4</ele>
        <time>2021-03-20T01:51:52</time>
      </trkpt>
      <trkpt lat="41.1796066537499" lon="-8.6266231443733">
        <ele>104.6</ele>
        <time>2021-03-20T01:51:53</time>
      </trkpt>
      <trkpt lat="41.1796178855002" lon="-8.62654879689216">
        <ele>104.6</ele>
        <time>2021-03-20T01:51:54</time>
      </trkpt>
      <trkpt lat="41.1796266864985" lon="-8.62647000700235">
        <ele>105</ele>
        <time>2021-03-20T01:51:55</time>
      </trkpt>
      <trkpt lat="41.1796369124204" lon="-8.62638551741838">
        <ele>105</ele>
        <time>2021-03-20T01:51:56</time>
      </trkpt>
      <trkpt lat="41.1796458810568" lon="-8.62630974501371">
        <ele>105</ele>
        <time>2021-03-20T01:51:57</time>
      </trkpt>
      <trkpt lat="41.1796626448631" lon="-8.62622299231589">
        <ele>104.6</ele>
        <time>2021-03-20T01:51:58</time>
      </trkpt>
      <trkpt lat="41.1796745471656" lon="-8.6261395085603">
        <ele>104.6</ele>
        <time>2021-03-20T01:51:59</time>
      </trkpt>
      <trkpt lat="41.179686198011" lon="-8.62605568952858">
        <ele>104.8</ele>
        <time>2021-03-20T01:52:00</time>
      </trkpt>
      <trkpt lat="41.1796981003135" lon="-8.62597279250622">
        <ele>105.4</ele>
        <time>2021-03-20T01:52:01</time>
      </trkpt>
      <trkpt lat="41.1797030456364" lon="-8.62588545307517">
        <ele>105.4</ele>
        <time>2021-03-20T01:52:02</time>
      </trkpt>
      <trkpt lat="41.179717713967" lon="-8.6258064955473">
        <ele>105.2</ele>
        <time>2021-03-20T01:52:03</time>
      </trkpt>
      <trkpt lat="41.1797298677266" lon="-8.62572468817234">
        <ele>105.2</ele>
        <time>2021-03-20T01:52:04</time>
      </trkpt>
      <trkpt lat="41.1797423567623" lon="-8.62565897405148">
        <ele>105.2</ele>
        <time>2021-03-20T01:52:05</time>
      </trkpt>
      <trkpt lat="41.1797501519322" lon="-8.6255712993443">
        <ele>105.4</ele>
        <time>2021-03-20T01:52:06</time>
      </trkpt>
      <trkpt lat="41.1797605454922" lon="-8.62549267709255">
        <ele>105.2</ele>
        <time>2021-03-20T01:52:07</time>
      </trkpt>
      <trkpt lat="41.1797690950334" lon="-8.62540843896568">
        <ele>105.4</ele>
        <time>2021-03-20T01:52:08</time>
      </trkpt>
      <trkpt lat="41.179775884375" lon="-8.62531171180308">
        <ele>105.4</ele>
        <time>2021-03-20T01:52:09</time>
      </trkpt>
      <trkpt lat="41.179778566584" lon="-8.62522915005684">
        <ele>105.4</ele>
        <time>2021-03-20T01:52:10</time>
      </trkpt>
      <trkpt lat="41.1797868646681" lon="-8.62514801323414">
        <ele>105.4</ele>
        <time>2021-03-20T01:52:11</time>
      </trkpt>
      <trkpt lat="41.1797941569239" lon="-8.62506444565952">
        <ele>105.2</ele>
        <time>2021-03-20T01:52:12</time>
      </trkpt>
      <trkpt lat="41.1798100825399" lon="-8.62498020753264">
        <ele>105.2</ele>
        <time>2021-03-20T01:52:13</time>
      </trkpt>
      <trkpt lat="41.1798148602247" lon="-8.62489496357739">
        <ele>105.4</ele>
        <time>2021-03-20T01:52:14</time>
      </trkpt>
      <trkpt lat="41.1798281036317" lon="-8.62481349147856">
        <ele>105.2</ele>
        <time>2021-03-20T01:52:15</time>
      </trkpt>
      <trkpt lat="41.1798408441246" lon="-8.62472900189459">
        <ele>104.8</ele>
        <time>2021-03-20T01:52:16</time>
      </trkpt>
      <trkpt lat="41.1798478849232" lon="-8.6246404889971">
        <ele>105</ele>
        <time>2021-03-20T01:52:17</time>
      </trkpt>
      <trkpt lat="41.179860541597" lon="-8.62455298192799">
        <ele>105</ele>
        <time>2021-03-20T01:52:18</time>
      </trkpt>
      <trkpt lat="41.1798698455095" lon="-8.62446128390729">
        <ele>105.2</ele>
        <time>2021-03-20T01:52:19</time>
      </trkpt>
      <trkpt lat="41.179879065603" lon="-8.62437218427658">
        <ele>105</ele>
        <time>2021-03-20T01:52:20</time>
      </trkpt>
      <trkpt lat="41.17988971062" lon="-8.62428073771298">
        <ele>105.2</ele>
        <time>2021-03-20T01:52:21</time>
      </trkpt>
      <trkpt lat="41.1799013614655" lon="-8.6241964995861">
        <ele>105.8</ele>
        <time>2021-03-20T01:52:22</time>
      </trkpt>
      <trkpt lat="41.1799111682922" lon="-8.62410765141249">
        <ele>105.8</ele>
        <time>2021-03-20T01:52:23</time>
      </trkpt>
      <trkpt lat="41.1799235735089" lon="-8.62400631420314">
        <ele>105.8</ele>
        <time>2021-03-20T01:52:24</time>
      </trkpt>
      <trkpt lat="41.1799420975149" lon="-8.62390900030732">
        <ele>105.6</ele>
        <time>2021-03-20T01:52:25</time>
      </trkpt>
      <trkpt lat="41.1799561791122" lon="-8.62382048740983">
        <ele>105.4</ele>
        <time>2021-03-20T01:52:26</time>
      </trkpt>
      <trkpt lat="41.1799681652337" lon="-8.62373348325491">
        <ele>105.4</ele>
        <time>2021-03-20T01:52:27</time>
      </trkpt>
      <trkpt lat="41.1799851804972" lon="-8.62364664673805">
        <ele>105.2</ele>
        <time>2021-03-20T01:52:28</time>
      </trkpt>
      <trkpt lat="41.1799991782755" lon="-8.62355394288898">
        <ele>105.2</ele>
        <time>2021-03-20T01:52:29</time>
      </trkpt>
      <trkpt lat="41.1800182051957" lon="-8.6234591435641">
        <ele>105.2</ele>
        <time>2021-03-20T01:52:30</time>
      </trkpt>
      <trkpt lat="41.1800426803529" lon="-8.62337121739984">
        <ele>105</ele>
        <time>2021-03-20T01:52:31</time>
      </trkpt>
      <trkpt lat="41.180066568777" lon="-8.62328018993139">
        <ele>105</ele>
        <time>2021-03-20T01:52:32</time>
      </trkpt>
      <trkpt lat="41.1800888646394" lon="-8.62318899482489">
        <ele>104.8</ele>
        <time>2021-03-20T01:52:33</time>
      </trkpt>
      <trkpt lat="41.1801100708544" lon="-8.62309981137514">
        <ele>104.6</ele>
        <time>2021-03-20T01:52:34</time>
      </trkpt>
      <trkpt lat="41.1801288463175" lon="-8.62300844863057">
        <ele>104.8</ele>
        <time>2021-03-20T01:52:35</time>
      </trkpt>
      <trkpt lat="41.1801531538367" lon="-8.62291700206697">
        <ele>105</ele>
        <time>2021-03-20T01:52:36</time>
      </trkpt>
      <trkpt lat="41.1801826581359" lon="-8.62282781861722">
        <ele>105</ele>
        <time>2021-03-20T01:52:37</time>
      </trkpt>
      <trkpt lat="41.1802046187222" lon="-8.62273477949202">
        <ele>105.2</ele>
        <time>2021-03-20T01:52:38</time>
      </trkpt>
      <trkpt lat="41.1802235618234" lon="-8.62264014780521">
        <ele>105</ele>
        <time>2021-03-20T01:52:39</time>
      </trkpt>
      <trkpt lat="41.1802451871336" lon="-8.62254643812776">
        <ele>105</ele>
        <time>2021-03-20T01:52:40</time>
      </trkpt>
      <trkpt lat="41.1802699137479" lon="-8.62245826050639">
        <ele>105.2</ele>
        <time>2021-03-20T01:52:41</time>
      </trkpt>
      <trkpt lat="41.1802850849926" lon="-8.62236245535314">
        <ele>105.4</ele>
        <time>2021-03-20T01:52:42</time>
      </trkpt>
      <trkpt lat="41.1802976578474" lon="-8.62227519974112">
        <time>2021-03-20T01:52:43</time>
      </trkpt>
      <trkpt lat="41.1803103983402" lon="-8.62219481728971">
        <time>2021-03-20T01:52:44</time>
      </trkpt>
      <trkpt lat="41.1803443450481" lon="-8.62212667241692">
        <time>2021-03-20T01:52:45</time>
      </trkpt>
      <trkpt lat="41.1803866736591" lon="-8.62205416895449">
        <time>2021-03-20T01:52:46</time>
      </trkpt>
      <trkpt lat="41.1804196145386" lon="-8.6219571903348">
        <time>2021-03-20T01:52:47</time>
      </trkpt>
      <trkpt lat="41.1804436706006" lon="-8.62186146900058">
        <time>2021-03-20T01:52:48</time>
      </trkpt>
      <trkpt lat="41.1804756056517" lon="-8.62176725640893">
        <time>2021-03-20T01:52:49</time>
      </trkpt>
      <trkpt lat="41.1805092170835" lon="-8.62167773768306">
        <time>2021-03-20T01:52:50</time>
      </trkpt>
      <trkpt lat="41.1805448401719" lon="-8.6215734668076">
        <time>2021-03-20T01:52:51</time>
      </trkpt>
      <trkpt lat="41.1805761046708" lon="-8.6214806791395">
        <time>2021-03-20T01:52:52</time>
      </trkpt>
      <trkpt lat="41.1806072015315" lon="-8.62139015458524">
        <time>2021-03-20T01:52:53</time>
      </trkpt>
      <trkpt lat="41.180642908439" lon="-8.62130298279226">
        <time>2021-03-20T01:52:54</time>
      </trkpt>
      <trkpt lat="41.1806710716337" lon="-8.62121128477156">
        <time>2021-03-20T01:52:55</time>
      </trkpt>
      <trkpt lat="41.1807031743228" lon="-8.62111665308476">
        <time>2021-03-20T01:52:56</time>
      </trkpt>
      <trkpt lat="41.180737875402" lon="-8.62102545797825">
        <time>2021-03-20T01:52:57</time>
      </trkpt>
      <trkpt lat="41.1807756777853" lon="-8.62093417905271">
        <time>2021-03-20T01:52:58</time>
      </trkpt>
      <trkpt lat="41.1808107141405" lon="-8.6208379548043">
        <time>2021-03-20T01:52:59</time>
      </trkpt>
      <trkpt lat="41.1808449123055" lon="-8.62074273638427">
        <time>2021-03-20T01:53:00</time>
      </trkpt>
      <trkpt lat="41.1808840557933" lon="-8.62064768560231">
        <time>2021-03-20T01:53:01</time>
      </trkpt>
      <trkpt lat="41.1809179186821" lon="-8.62055481411517">
        <time>2021-03-20T01:53:02</time>
      </trkpt>
      <trkpt lat="41.1809619236738" lon="-8.62046521157026">
        <time>2021-03-20T01:53:03</time>
      </trkpt>
      <trkpt lat="41.1810071859509" lon="-8.62037845887244">
        <time>2021-03-20T01:53:04</time>
      </trkpt>
      <trkpt lat="41.181044569239" lon="-8.62029229290784">
        <time>2021-03-20T01:53:05</time>
      </trkpt>
      <trkpt lat="41.1810886580497" lon="-8.6202007625252">
        <time>2021-03-20T01:53:06</time>
      </trkpt>
      <trkpt lat="41.1811336688697" lon="-8.62011669203639">
        <time>2021-03-20T01:53:07</time>
      </trkpt>
      <trkpt lat="41.1811712197959" lon="-8.62003329209983">
        <time>2021-03-20T01:53:08</time>
      </trkpt>
      <trkpt lat="41.1812049150467" lon="-8.61994670704007">
        <time>2021-03-20T01:53:09</time>
      </trkpt>
      <trkpt lat="41.18106" lon="-8.62048">
        <ele>95.62</ele>
      </trkpt>
      <trkpt lat="41.18126" lon="-8.62006">
        <ele>95.53</ele>
      </trkpt>
      <trkpt lat="41.181580000000004" lon="-8.61941">
        <ele>95.65</ele>
      </trkpt>
      <trkpt lat="41.181946670089985" lon="-8.618780007070985">
        <ele>95.75</ele>
      </trkpt>
      <trkpt lat="41.18231333674709" lon="-8.618150007087468">
        <ele>96.08000000000001</ele>
      </trkpt>
      <trkpt lat="41.182680000000005" lon="-8.61752">
        <ele>96.94000000000001</ele>
      </trkpt>
      <trkpt lat="41.182750000000006" lon="-8.61726">
        <ele>96.94000000000001</ele>
      </trkpt>
      <trkpt lat="41.18287251657145" lon="-8.61613000629476">
        <ele>98.4</ele>
      </trkpt>
      <trkpt lat="41.18299502209871" lon="-8.61500000836166">
        <ele>100.34</ele>
      </trkpt>
      <trkpt lat="41.18311751658165" lon="-8.613870006201042">
        <ele>102.0</ele>
      </trkpt>
      <trkpt lat="41.183240000000005" lon="-8.61274">
        <ele>102.95000000000002</ele>
      </trkpt>
      <trkpt lat="41.1833" lon="-8.6125">
        <ele>103.32000000000001</ele>
      </trkpt>
      <trkpt lat="41.18361667193102" lon="-8.611720007538391">
        <ele>104.83</ele>
      </trkpt>
      <trkpt lat="41.18393333859984" lon="-8.610940007533184">
        <ele>104.75000000000001</ele>
      </trkpt>
      <trkpt lat="41.184250000000006" lon="-8.61016">
        <ele>103.23</ele>
      </trkpt>
      <trkpt lat="41.18444" lon="-8.60955">
        <ele>102.58</ele>
      </trkpt>
      <trkpt lat="41.18453" lon="-8.60918">
        <ele>102.08</ele>
      </trkpt>
      <trkpt lat="41.1846" lon="-8.60875">
        <ele>101.98000000000002</ele>
      </trkpt>
      <trkpt lat="41.184630000000006" lon="-8.60837">
        <ele>102.20000000000002</ele>
      </trkpt>
      <trkpt lat="41.18462" lon="-8.60786">
        <ele>102.99000000000001</ele>
      </trkpt>
      <trkpt lat="41.18459" lon="-8.60736">
        <ele>104.57000000000001</ele>
      </trkpt>
      <trkpt lat="41.184385012135124" lon="-8.606392490869714">
        <ele>109.07000000000001</ele>
      </trkpt>
      <trkpt lat="41.18418001617387" lon="-8.605424987796775">
        <ele>112.5</ele>
      </trkpt>
      <trkpt lat="41.18397501211633" lon="-8.604457490781336">
        <ele>115.44000000000001</ele>
      </trkpt>
      <trkpt lat="41.18377" lon="-8.60349">
        <ele>116.45</ele>
      </trkpt>
      <trkpt lat="41.18353000506919" lon="-8.602409996153963">
        <ele>116.76</ele>
      </trkpt>
      <trkpt lat="41.18329000000001" lon="-8.60133">
        <ele>117.37000000000002</ele>
      </trkpt>
      <trkpt lat="41.182992021078796" lon="-8.600225979886408">
        <ele>117.98000000000002</ele>
      </trkpt>
      <trkpt lat="41.182694031615426" lon="-8.599121969819873">
        <ele>117.74000000000001</ele>
      </trkpt>
      <trkpt lat="41.18239603161003" lon="-8.59801796980055">
        <ele>119.67000000000002</ele>
      </trkpt>
      <trkpt lat="41.182098021062885" lon="-8.5969139798286">
        <ele>120.8</ele>
      </trkpt>
      <trkpt lat="41.1818" lon="-8.59581">
        <ele>122.12</ele>
      </trkpt>
      <trkpt lat="41.18161500142284" lon="-8.595239998444603">
        <ele>123.09</ele>
      </trkpt>
      <trkpt lat="41.181430000000006" lon="-8.59467">
        <ele>124.53000000000002</ele>
      </trkpt>
      <trkpt lat="41.18106667324477" lon="-8.593796656931522">
        <ele>125.84</ele>
      </trkpt>
      <trkpt lat="41.1807033398926" lon="-8.59292332355307">
        <ele>126.15</ele>
      </trkpt>
      <trkpt lat="41.18034" lon="-8.59205">
        <ele>125.81</ele>
      </trkpt>
      <trkpt lat="41.180060000000005" lon="-8.59125">
        <ele>124.11000000000001</ele>
      </trkpt>
      <trkpt lat="41.1799" lon="-8.59069">
        <ele>123.44000000000001</ele>
      </trkpt>
      <trkpt lat="41.179790000000004" lon="-8.59018">
        <ele>123.3</ele>
      </trkpt>
      <trkpt lat="41.179700000000004" lon="-8.589640000000001">
        <ele>123.42000000000002</ele>
      </trkpt>
      <trkpt lat="41.17964500179627" lon="-8.588989999089272">
        <ele>123.91</ele>
      </trkpt>
      <trkpt lat="41.179590000000005" lon="-8.58834">
        <ele>125.30000000000003</ele>
      </trkpt>
      <trkpt lat="41.179570000000005" lon="-8.58754">
        <ele>127.15</ele>
      </trkpt>
      <trkpt lat="41.17967" lon="-8.58694">
        <ele>128.45000000000002</ele>
      </trkpt>
      <trkpt lat="41.179840000000006" lon="-8.58646">
        <ele>129.41</ele>
      </trkpt>
      <trkpt lat="41.179930000000006" lon="-8.58628">
        <ele>129.46</ele>
      </trkpt>
      <trkpt lat="41.179990000000004" lon="-8.58614">
        <ele>129.86</ele>
      </trkpt>
      <trkpt lat="41.18057000324545" lon="-8.585275007645906">
        <ele>132.16</ele>
      </trkpt>
      <trkpt lat="41.18115" lon="-8.58441">
        <ele>134.64000000000001</ele>
      </trkpt>
      <trkpt lat="41.181230000000006" lon="-8.58427">
        <ele>135.37</ele>
      </trkpt>
      <trkpt lat="41.181270000000005" lon="-8.58403">
        <ele>136.01000000000002</ele>
      </trkpt>
      <trkpt lat="41.18122" lon="-8.583770000000001">
        <ele>136.53</ele>
      </trkpt>
      <trkpt lat="41.181020000000004" lon="-8.58333">
        <ele>137.33</ele>
      </trkpt>
      <trkpt lat="41.18172500083664" lon="-8.58307250832459">
        <ele>138.15000000000003</ele>
      </trkpt>
      <trkpt lat="41.18243000109981" lon="-8.582815011105367">
        <ele>140.64000000000001</ele>
      </trkpt>
      <trkpt lat="41.18313500078948" lon="-8.58255750834208">
        <ele>143.1</ele>
      </trkpt>
      <trkpt lat="41.183840000000004" lon="-8.5823">
        <ele>146.29</ele>
      </trkpt>
      <trkpt lat="41.184495000313696" lon="-8.5820300027013">
        <ele>149.97000000000003</ele>
      </trkpt>
      <trkpt lat="41.18515" lon="-8.581760000000001">
        <ele>152.64000000000001</ele>
      </trkpt>
      <trkpt lat="41.185410000000005" lon="-8.58163">
        <ele>153.11</ele>
      </trkpt>
      <trkpt lat="41.185990000000004" lon="-8.581140000000001">
        <ele>153.89</ele>
      </trkpt>
      <trkpt lat="41.18638000000001" lon="-8.58088">
        <ele>154.54000000000002</ele>
      </trkpt>
      <trkpt lat="41.18683" lon="-8.58069">
        <ele>154.73</ele>
      </trkpt>
      <trkpt lat="41.187290000000004" lon="-8.5806">
        <ele>154.81</ele>
      </trkpt>
      <trkpt lat="41.18766" lon="-8.58056">
        <ele>155.59</ele>
      </trkpt>
      <trkpt lat="41.18789" lon="-8.58056">
        <ele>155.59</ele>
      </trkpt>
      <trkpt lat="41.188350000000504" lon="-8.580624999540827">
        <ele>155.77</ele>
      </trkpt>
      <trkpt lat="41.188810000000004" lon="-8.58069">
        <ele>155.67</ele>
      </trkpt>
      <trkpt lat="41.18932" lon="-8.58065">
        <ele>155.18</ele>
      </trkpt>
      <trkpt lat="41.18967000000001" lon="-8.58056">
        <ele>154.82000000000002</ele>
      </trkpt>
      <trkpt lat="41.190380000000005" lon="-8.580440000000001">
        <ele>153.88000000000002</ele>
      </trkpt>
      <trkpt lat="41.19088000018167" lon="-8.580290001120268">
        <ele>153.62</ele>
      </trkpt>
      <trkpt lat="41.19138" lon="-8.58014">
        <ele>153.51</ele>
      </trkpt>
      <trkpt lat="41.19194" lon="-8.57994">
        <ele>153.63000000000002</ele>
      </trkpt>
      <trkpt lat="41.19239000048753" lon="-8.579720001376227">
        <ele>154.02</ele>
      </trkpt>
      <trkpt lat="41.192840000000004" lon="-8.579500000000001">
        <ele>154.34</ele>
      </trkpt>
      <trkpt lat="41.19308" lon="-8.57933">
        <ele>154.53</ele>
      </trkpt>
      <trkpt lat="41.19324" lon="-8.579180000000001">
        <ele>154.60000000000002</ele>
      </trkpt>
      <trkpt lat="41.19384" lon="-8.57844">
        <ele>154.13000000000002</ele>
      </trkpt>
      <trkpt lat="41.19408000000001" lon="-8.57817">
        <ele>153.27</ele>
      </trkpt>
      <trkpt lat="41.19471" lon="-8.5776">
        <ele>150.33</ele>
      </trkpt>
      <trkpt lat="41.194900000000004" lon="-8.577440000000001">
        <ele>149.78000000000003</ele>
      </trkpt>
      <trkpt lat="41.195040000000006" lon="-8.577340000000001">
        <ele>149.52</ele>
      </trkpt>
      <trkpt lat="41.19464000000001" lon="-8.57642">
        <ele>149.71</ele>
      </trkpt>
      <trkpt lat="41.194520000000004" lon="-8.57605">
        <ele>148.71</ele>
      </trkpt>
      <trkpt lat="41.19449" lon="-8.5754">
        <ele>147.59</ele>
      </trkpt>
      <trkpt lat="41.194410000000005" lon="-8.57469">
        <ele>146.61</ele>
      </trkpt>
      <trkpt lat="41.194300000000005" lon="-8.574380000000001">
        <ele>146.14000000000001</ele>
      </trkpt>
      <trkpt lat="41.19398" lon="-8.573870000000001">
        <ele>145.4</ele>
      </trkpt>
      <trkpt lat="41.19343500299482" lon="-8.574710007080753">
        <ele>143.82</ele>
      </trkpt>
      <trkpt lat="41.192890000000006" lon="-8.575550000000002">
        <ele>143.52</ele>
      </trkpt>
      <trkpt lat="41.19283" lon="-8.57562">
        <ele>143.52</ele>
      </trkpt>
      <trkpt lat="41.1923" lon="-8.57592">
        <ele>142.76</ele>
      </trkpt>
    </trkseg>
  </trk>
</gpx>
